<?xml version="1.0" encoding="UTF-8" standalone="no" ?>
<gpx xmlns="http://www.topografix.com/GPX/1/1" xmlns:xsi="http://www.w3.org/2001/XMLSchema-instance" xsi:schemaLocation="http://www.topografix.com/GPX/1/1 http://www.topografix.com/GPX/1/1/gpx.xsd" version="1.1" creator="VisuGPX - https://www.visugpx.com">
  <metadata>
    <name>Mandelieu - Les Esterets</name>
    <desc><![CDATA[Mandelieu - Les Esterets par le lac de l\'Ecureuil, Roussiveau et le Porfait.]]></desc>
  </metadata>
  <trk>
    <name><![CDATA[Mandelieu - Les Esterets_1]]></name>
    <trkseg>
      <trkpt lat="43.51783" lon="6.93562">
        <ele>15</ele>
        <time>2011-01-09T07:29:53Z</time>
      </trkpt>
      <trkpt lat="43.5178" lon="6.93552">
        <ele>15</ele>
        <time>2011-01-09T07:29:54Z</time>
      </trkpt>
      <trkpt lat="43.51721" lon="6.93543">
        <ele>16</ele>
        <time>2011-01-09T07:30:04Z</time>
      </trkpt>
      <trkpt lat="43.51691" lon="6.93599">
        <ele>20</ele>
        <time>2011-01-09T07:30:14Z</time>
      </trkpt>
      <trkpt lat="43.51686" lon="6.93608">
        <ele>21</ele>
        <time>2011-01-09T07:30:16Z</time>
      </trkpt>
      <trkpt lat="43.51681" lon="6.93617">
        <ele>22</ele>
        <time>2011-01-09T07:30:18Z</time>
      </trkpt>
      <trkpt lat="43.51677" lon="6.93627">
        <ele>22</ele>
        <time>2011-01-09T07:30:20Z</time>
      </trkpt>
      <trkpt lat="43.51673" lon="6.93637">
        <ele>23</ele>
        <time>2011-01-09T07:30:22Z</time>
      </trkpt>
      <trkpt lat="43.51666" lon="6.93657">
        <ele>24</ele>
        <time>2011-01-09T07:30:26Z</time>
      </trkpt>
      <trkpt lat="43.51663" lon="6.93667">
        <ele>24</ele>
        <time>2011-01-09T07:30:28Z</time>
      </trkpt>
      <trkpt lat="43.51662" lon="6.93672">
        <ele>24</ele>
        <time>2011-01-09T07:30:29Z</time>
      </trkpt>
      <trkpt lat="43.51659" lon="6.93682">
        <ele>25</ele>
        <time>2011-01-09T07:30:31Z</time>
      </trkpt>
      <trkpt lat="43.5165" lon="6.93706">
        <ele>26</ele>
        <time>2011-01-09T07:30:36Z</time>
      </trkpt>
      <trkpt lat="43.51648" lon="6.93711">
        <ele>26</ele>
        <time>2011-01-09T07:30:37Z</time>
      </trkpt>
      <trkpt lat="43.51641" lon="6.93723">
        <ele>27</ele>
        <time>2011-01-09T07:30:40Z</time>
      </trkpt>
      <trkpt lat="43.51637" lon="6.93731">
        <ele>28</ele>
        <time>2011-01-09T07:30:42Z</time>
      </trkpt>
      <trkpt lat="43.51634" lon="6.93735">
        <ele>28</ele>
        <time>2011-01-09T07:30:43Z</time>
      </trkpt>
      <trkpt lat="43.51631" lon="6.93738">
        <ele>28</ele>
        <time>2011-01-09T07:30:44Z</time>
      </trkpt>
      <trkpt lat="43.51626" lon="6.93746">
        <ele>29</ele>
        <time>2011-01-09T07:30:46Z</time>
      </trkpt>
      <trkpt lat="43.51624" lon="6.93751">
        <ele>29</ele>
        <time>2011-01-09T07:30:47Z</time>
      </trkpt>
      <trkpt lat="43.51618" lon="6.93765">
        <ele>29</ele>
        <time>2011-01-09T07:30:50Z</time>
      </trkpt>
      <trkpt lat="43.51615" lon="6.9377">
        <ele>29</ele>
        <time>2011-01-09T07:30:51Z</time>
      </trkpt>
      <trkpt lat="43.51612" lon="6.93774">
        <ele>29</ele>
        <time>2011-01-09T07:30:52Z</time>
      </trkpt>
      <trkpt lat="43.51609" lon="6.93778">
        <ele>29</ele>
        <time>2011-01-09T07:30:53Z</time>
      </trkpt>
      <trkpt lat="43.51605" lon="6.9378">
        <ele>29</ele>
        <time>2011-01-09T07:30:54Z</time>
      </trkpt>
      <trkpt lat="43.516" lon="6.93782">
        <ele>29</ele>
        <time>2011-01-09T07:30:55Z</time>
      </trkpt>
      <trkpt lat="43.51595" lon="6.93783">
        <ele>28</ele>
        <time>2011-01-09T07:30:56Z</time>
      </trkpt>
      <trkpt lat="43.5159" lon="6.93782">
        <ele>28</ele>
        <time>2011-01-09T07:30:57Z</time>
      </trkpt>
      <trkpt lat="43.51537" lon="6.93747">
        <ele>27</ele>
        <time>2011-01-09T07:31:07Z</time>
      </trkpt>
      <trkpt lat="43.51482" lon="6.93699">
        <ele>25</ele>
        <time>2011-01-09T07:31:17Z</time>
      </trkpt>
      <trkpt lat="43.5142" lon="6.93693">
        <ele>23</ele>
        <time>2011-01-09T07:31:27Z</time>
      </trkpt>
      <trkpt lat="43.51365" lon="6.93701">
        <ele>24</ele>
        <time>2011-01-09T07:31:37Z</time>
      </trkpt>
      <trkpt lat="43.51309" lon="6.93709">
        <ele>24</ele>
        <time>2011-01-09T07:31:47Z</time>
      </trkpt>
      <trkpt lat="43.51256" lon="6.937">
        <ele>24</ele>
        <time>2011-01-09T07:31:57Z</time>
      </trkpt>
      <trkpt lat="43.51208" lon="6.93739">
        <ele>22</ele>
        <time>2011-01-09T07:32:07Z</time>
      </trkpt>
      <trkpt lat="43.51139" lon="6.93741">
        <ele>20</ele>
        <time>2011-01-09T07:32:17Z</time>
      </trkpt>
      <trkpt lat="43.51073" lon="6.93692">
        <ele>18</ele>
        <time>2011-01-09T07:32:27Z</time>
      </trkpt>
      <trkpt lat="43.51007" lon="6.937">
        <ele>18</ele>
        <time>2011-01-09T07:32:37Z</time>
      </trkpt>
      <trkpt lat="43.50937" lon="6.93728">
        <ele>16</ele>
        <time>2011-01-09T07:32:47Z</time>
      </trkpt>
      <trkpt lat="43.5087" lon="6.93759">
        <ele>15</ele>
        <time>2011-01-09T07:32:57Z</time>
      </trkpt>
      <trkpt lat="43.50815" lon="6.93814">
        <ele>15</ele>
        <time>2011-01-09T07:33:08Z</time>
      </trkpt>
      <trkpt lat="43.50796" lon="6.93893">
        <ele>16</ele>
        <time>2011-01-09T07:33:19Z</time>
      </trkpt>
      <trkpt lat="43.50783" lon="6.93963">
        <ele>15</ele>
        <time>2011-01-09T07:33:29Z</time>
      </trkpt>
      <trkpt lat="43.50774" lon="6.94046">
        <ele>12</ele>
        <time>2011-01-09T07:33:39Z</time>
      </trkpt>
      <trkpt lat="43.50757" lon="6.9414">
        <ele>8</ele>
        <time>2011-01-09T07:33:49Z</time>
      </trkpt>
      <trkpt lat="43.5072" lon="6.94155">
        <ele>6</ele>
        <time>2011-01-09T07:33:59Z</time>
      </trkpt>
      <trkpt lat="43.50686" lon="6.94099">
        <ele>5</ele>
        <time>2011-01-09T07:34:09Z</time>
      </trkpt>
      <trkpt lat="43.50683" lon="6.94094">
        <ele>5</ele>
        <time>2011-01-09T07:34:10Z</time>
      </trkpt>
      <trkpt lat="43.5068" lon="6.94089">
        <ele>5</ele>
        <time>2011-01-09T07:34:11Z</time>
      </trkpt>
      <trkpt lat="43.50666" lon="6.94068">
        <ele>6</ele>
        <time>2011-01-09T07:34:15Z</time>
      </trkpt>
      <trkpt lat="43.50662" lon="6.94063">
        <ele>6</ele>
        <time>2011-01-09T07:34:16Z</time>
      </trkpt>
      <trkpt lat="43.50652" lon="6.94048">
        <ele>6</ele>
        <time>2011-01-09T07:34:19Z</time>
      </trkpt>
      <trkpt lat="43.50648" lon="6.94043">
        <ele>6</ele>
        <time>2011-01-09T07:34:20Z</time>
      </trkpt>
      <trkpt lat="43.50644" lon="6.9404">
        <ele>6</ele>
        <time>2011-01-09T07:34:21Z</time>
      </trkpt>
      <trkpt lat="43.50628" lon="6.94014">
        <ele>6</ele>
        <time>2011-01-09T07:34:26Z</time>
      </trkpt>
      <trkpt lat="43.50625" lon="6.94008">
        <ele>6</ele>
        <time>2011-01-09T07:34:27Z</time>
      </trkpt>
      <trkpt lat="43.50623" lon="6.94001">
        <ele>6</ele>
        <time>2011-01-09T07:34:28Z</time>
      </trkpt>
      <trkpt lat="43.50622" lon="6.93995">
        <ele>6</ele>
        <time>2011-01-09T07:34:29Z</time>
      </trkpt>
      <trkpt lat="43.5062" lon="6.93988">
        <ele>6</ele>
        <time>2011-01-09T07:34:30Z</time>
      </trkpt>
      <trkpt lat="43.50618" lon="6.93982">
        <ele>6</ele>
        <time>2011-01-09T07:34:31Z</time>
      </trkpt>
      <trkpt lat="43.50614" lon="6.93978">
        <ele>6</ele>
        <time>2011-01-09T07:34:32Z</time>
      </trkpt>
      <trkpt lat="43.5061" lon="6.93976">
        <ele>6</ele>
        <time>2011-01-09T07:34:33Z</time>
      </trkpt>
      <trkpt lat="43.50605" lon="6.93974">
        <ele>6</ele>
        <time>2011-01-09T07:34:34Z</time>
      </trkpt>
      <trkpt lat="43.506" lon="6.93971">
        <ele>6</ele>
        <time>2011-01-09T07:34:35Z</time>
      </trkpt>
      <trkpt lat="43.50596" lon="6.93968">
        <ele>7</ele>
        <time>2011-01-09T07:34:36Z</time>
      </trkpt>
      <trkpt lat="43.50592" lon="6.93964">
        <ele>7</ele>
        <time>2011-01-09T07:34:37Z</time>
      </trkpt>
      <trkpt lat="43.50588" lon="6.9396">
        <ele>7</ele>
        <time>2011-01-09T07:34:38Z</time>
      </trkpt>
      <trkpt lat="43.50584" lon="6.93956">
        <ele>7</ele>
        <time>2011-01-09T07:34:39Z</time>
      </trkpt>
      <trkpt lat="43.50577" lon="6.93946">
        <ele>8</ele>
        <time>2011-01-09T07:34:41Z</time>
      </trkpt>
      <trkpt lat="43.50574" lon="6.93941">
        <ele>8</ele>
        <time>2011-01-09T07:34:42Z</time>
      </trkpt>
      <trkpt lat="43.50561" lon="6.93922">
        <ele>9</ele>
        <time>2011-01-09T07:34:46Z</time>
      </trkpt>
      <trkpt lat="43.50558" lon="6.93918">
        <ele>9</ele>
        <time>2011-01-09T07:34:47Z</time>
      </trkpt>
      <trkpt lat="43.50554" lon="6.93915">
        <ele>9</ele>
        <time>2011-01-09T07:34:48Z</time>
      </trkpt>
      <trkpt lat="43.5055" lon="6.93912">
        <ele>9</ele>
        <time>2011-01-09T07:34:49Z</time>
      </trkpt>
      <trkpt lat="43.50546" lon="6.93909">
        <ele>9</ele>
        <time>2011-01-09T07:34:50Z</time>
      </trkpt>
      <trkpt lat="43.50542" lon="6.93906">
        <ele>9</ele>
        <time>2011-01-09T07:34:51Z</time>
      </trkpt>
      <trkpt lat="43.5053" lon="6.93898">
        <ele>10</ele>
        <time>2011-01-09T07:34:54Z</time>
      </trkpt>
      <trkpt lat="43.50526" lon="6.93895">
        <ele>10</ele>
        <time>2011-01-09T07:34:55Z</time>
      </trkpt>
      <trkpt lat="43.50517" lon="6.9389">
        <ele>9</ele>
        <time>2011-01-09T07:34:57Z</time>
      </trkpt>
      <trkpt lat="43.50513" lon="6.93887">
        <ele>9</ele>
        <time>2011-01-09T07:34:58Z</time>
      </trkpt>
      <trkpt lat="43.50509" lon="6.93884">
        <ele>9</ele>
        <time>2011-01-09T07:34:59Z</time>
      </trkpt>
      <trkpt lat="43.50505" lon="6.93881">
        <ele>10</ele>
        <time>2011-01-09T07:35:00Z</time>
      </trkpt>
      <trkpt lat="43.505" lon="6.93879">
        <ele>9</ele>
        <time>2011-01-09T07:35:01Z</time>
      </trkpt>
      <trkpt lat="43.50492" lon="6.93873">
        <ele>10</ele>
        <time>2011-01-09T07:35:03Z</time>
      </trkpt>
      <trkpt lat="43.50488" lon="6.9387">
        <ele>10</ele>
        <time>2011-01-09T07:35:04Z</time>
      </trkpt>
      <trkpt lat="43.50475" lon="6.93862">
        <ele>9</ele>
        <time>2011-01-09T07:35:07Z</time>
      </trkpt>
      <trkpt lat="43.50471" lon="6.93859">
        <ele>10</ele>
        <time>2011-01-09T07:35:08Z</time>
      </trkpt>
      <trkpt lat="43.50467" lon="6.93855">
        <ele>11</ele>
        <time>2011-01-09T07:35:09Z</time>
      </trkpt>
      <trkpt lat="43.5046" lon="6.9385">
        <ele>13</ele>
        <time>2011-01-09T07:35:11Z</time>
      </trkpt>
      <trkpt lat="43.50457" lon="6.93848">
        <ele>13</ele>
        <time>2011-01-09T07:35:12Z</time>
      </trkpt>
      <trkpt lat="43.50443" lon="6.93838">
        <ele>14</ele>
        <time>2011-01-09T07:35:16Z</time>
      </trkpt>
      <trkpt lat="43.50437" lon="6.93833">
        <ele>14</ele>
        <time>2011-01-09T07:35:18Z</time>
      </trkpt>
      <trkpt lat="43.5043" lon="6.93824">
        <ele>14</ele>
        <time>2011-01-09T07:35:21Z</time>
      </trkpt>
      <trkpt lat="43.50426" lon="6.93817">
        <ele>14</ele>
        <time>2011-01-09T07:35:23Z</time>
      </trkpt>
      <trkpt lat="43.50423" lon="6.9381">
        <ele>15</ele>
        <time>2011-01-09T07:35:25Z</time>
      </trkpt>
      <trkpt lat="43.5042" lon="6.93807">
        <ele>15</ele>
        <time>2011-01-09T07:35:26Z</time>
      </trkpt>
      <trkpt lat="43.50418" lon="6.93804">
        <ele>15</ele>
        <time>2011-01-09T07:35:27Z</time>
      </trkpt>
      <trkpt lat="43.50416" lon="6.93801">
        <ele>15</ele>
        <time>2011-01-09T07:35:28Z</time>
      </trkpt>
      <trkpt lat="43.50414" lon="6.93798">
        <ele>15</ele>
        <time>2011-01-09T07:35:29Z</time>
      </trkpt>
      <trkpt lat="43.50409" lon="6.93791">
        <ele>15</ele>
        <time>2011-01-09T07:35:31Z</time>
      </trkpt>
      <trkpt lat="43.50405" lon="6.93785">
        <ele>15</ele>
        <time>2011-01-09T07:35:33Z</time>
      </trkpt>
      <trkpt lat="43.50402" lon="6.93778">
        <ele>15</ele>
        <time>2011-01-09T07:35:35Z</time>
      </trkpt>
      <trkpt lat="43.50401" lon="6.93774">
        <ele>15</ele>
        <time>2011-01-09T07:35:36Z</time>
      </trkpt>
      <trkpt lat="43.50396" lon="6.9377">
        <ele>15</ele>
        <time>2011-01-09T07:35:38Z</time>
      </trkpt>
      <trkpt lat="43.50392" lon="6.93764">
        <ele>15</ele>
        <time>2011-01-09T07:35:40Z</time>
      </trkpt>
      <trkpt lat="43.5039" lon="6.93762">
        <ele>15</ele>
        <time>2011-01-09T07:35:41Z</time>
      </trkpt>
      <trkpt lat="43.50385" lon="6.93757">
        <ele>15</ele>
        <time>2011-01-09T07:35:43Z</time>
      </trkpt>
      <trkpt lat="43.50379" lon="6.93754">
        <ele>16</ele>
        <time>2011-01-09T07:35:45Z</time>
      </trkpt>
      <trkpt lat="43.50373" lon="6.93751">
        <ele>16</ele>
        <time>2011-01-09T07:35:47Z</time>
      </trkpt>
      <trkpt lat="43.50367" lon="6.93748">
        <ele>16</ele>
        <time>2011-01-09T07:35:49Z</time>
      </trkpt>
      <trkpt lat="43.50356" lon="6.93742">
        <ele>16</ele>
        <time>2011-01-09T07:35:53Z</time>
      </trkpt>
      <trkpt lat="43.50351" lon="6.93739">
        <ele>16</ele>
        <time>2011-01-09T07:35:55Z</time>
      </trkpt>
      <trkpt lat="43.50346" lon="6.93736">
        <ele>17</ele>
        <time>2011-01-09T07:35:57Z</time>
      </trkpt>
      <trkpt lat="43.50337" lon="6.93733">
        <ele>18</ele>
        <time>2011-01-09T07:36:00Z</time>
      </trkpt>
      <trkpt lat="43.50334" lon="6.93732">
        <ele>18</ele>
        <time>2011-01-09T07:36:01Z</time>
      </trkpt>
      <trkpt lat="43.50329" lon="6.93728">
        <ele>18</ele>
        <time>2011-01-09T07:36:03Z</time>
      </trkpt>
      <trkpt lat="43.50324" lon="6.93724">
        <ele>18</ele>
        <time>2011-01-09T07:36:05Z</time>
      </trkpt>
      <trkpt lat="43.5032" lon="6.93722">
        <ele>19</ele>
        <time>2011-01-09T07:36:07Z</time>
      </trkpt>
      <trkpt lat="43.50318" lon="6.93721">
        <ele>19</ele>
        <time>2011-01-09T07:36:08Z</time>
      </trkpt>
      <trkpt lat="43.50317" lon="6.9372">
        <ele>19</ele>
        <time>2011-01-09T07:36:09Z</time>
      </trkpt>
      <trkpt lat="43.50316" lon="6.93718">
        <ele>19</ele>
        <time>2011-01-09T07:36:10Z</time>
      </trkpt>
      <trkpt lat="43.50315" lon="6.93715">
        <ele>19</ele>
        <time>2011-01-09T07:36:11Z</time>
      </trkpt>
      <trkpt lat="43.50313" lon="6.93712">
        <ele>20</ele>
        <time>2011-01-09T07:36:12Z</time>
      </trkpt>
      <trkpt lat="43.50312" lon="6.93709">
        <ele>20</ele>
        <time>2011-01-09T07:36:13Z</time>
      </trkpt>
      <trkpt lat="43.5031" lon="6.93708">
        <ele>20</ele>
        <time>2011-01-09T07:36:14Z</time>
      </trkpt>
      <trkpt lat="43.50307" lon="6.93705">
        <ele>21</ele>
        <time>2011-01-09T07:36:16Z</time>
      </trkpt>
      <trkpt lat="43.50303" lon="6.93702">
        <ele>21</ele>
        <time>2011-01-09T07:36:18Z</time>
      </trkpt>
      <trkpt lat="43.50297" lon="6.93699">
        <ele>23</ele>
        <time>2011-01-09T07:36:21Z</time>
      </trkpt>
      <trkpt lat="43.50295" lon="6.93698">
        <ele>23</ele>
        <time>2011-01-09T07:36:22Z</time>
      </trkpt>
      <trkpt lat="43.50291" lon="6.93696">
        <ele>24</ele>
        <time>2011-01-09T07:36:24Z</time>
      </trkpt>
      <trkpt lat="43.5029" lon="6.93695">
        <ele>25</ele>
        <time>2011-01-09T07:36:25Z</time>
      </trkpt>
      <trkpt lat="43.50288" lon="6.93694">
        <ele>25</ele>
        <time>2011-01-09T07:36:26Z</time>
      </trkpt>
      <trkpt lat="43.50287" lon="6.93693">
        <ele>26</ele>
        <time>2011-01-09T07:36:27Z</time>
      </trkpt>
      <trkpt lat="43.5028" lon="6.93692">
        <ele>27</ele>
        <time>2011-01-09T07:36:30Z</time>
      </trkpt>
      <trkpt lat="43.50277" lon="6.93692">
        <ele>27</ele>
        <time>2011-01-09T07:36:31Z</time>
      </trkpt>
      <trkpt lat="43.50274" lon="6.93694">
        <ele>26</ele>
        <time>2011-01-09T07:36:32Z</time>
      </trkpt>
      <trkpt lat="43.5027" lon="6.93694">
        <ele>26</ele>
        <time>2011-01-09T07:36:33Z</time>
      </trkpt>
      <trkpt lat="43.50266" lon="6.93695">
        <ele>27</ele>
        <time>2011-01-09T07:36:34Z</time>
      </trkpt>
      <trkpt lat="43.50261" lon="6.93696">
        <ele>28</ele>
        <time>2011-01-09T07:36:35Z</time>
      </trkpt>
      <trkpt lat="43.50258" lon="6.93699">
        <ele>28</ele>
        <time>2011-01-09T07:36:36Z</time>
      </trkpt>
      <trkpt lat="43.50254" lon="6.93702">
        <ele>28</ele>
        <time>2011-01-09T07:36:37Z</time>
      </trkpt>
      <trkpt lat="43.5025" lon="6.93704">
        <ele>28</ele>
        <time>2011-01-09T07:36:38Z</time>
      </trkpt>
      <trkpt lat="43.50228" lon="6.93712">
        <ele>30</ele>
        <time>2011-01-09T07:36:44Z</time>
      </trkpt>
      <trkpt lat="43.50225" lon="6.93712">
        <ele>31</ele>
        <time>2011-01-09T07:36:45Z</time>
      </trkpt>
      <trkpt lat="43.50222" lon="6.93713">
        <ele>31</ele>
        <time>2011-01-09T07:36:46Z</time>
      </trkpt>
      <trkpt lat="43.5022" lon="6.93714">
        <ele>31</ele>
        <time>2011-01-09T07:36:47Z</time>
      </trkpt>
      <trkpt lat="43.50216" lon="6.93715">
        <ele>32</ele>
        <time>2011-01-09T07:36:49Z</time>
      </trkpt>
      <trkpt lat="43.50213" lon="6.93715">
        <ele>32</ele>
        <time>2011-01-09T07:36:50Z</time>
      </trkpt>
      <trkpt lat="43.5021" lon="6.93716">
        <ele>30</ele>
        <time>2011-01-09T07:36:51Z</time>
      </trkpt>
      <trkpt lat="43.50207" lon="6.93716">
        <ele>30</ele>
        <time>2011-01-09T07:36:52Z</time>
      </trkpt>
      <trkpt lat="43.50204" lon="6.93716">
        <ele>29</ele>
        <time>2011-01-09T07:36:53Z</time>
      </trkpt>
      <trkpt lat="43.50201" lon="6.93715">
        <ele>30</ele>
        <time>2011-01-09T07:36:54Z</time>
      </trkpt>
      <trkpt lat="43.50199" lon="6.93715">
        <ele>30</ele>
        <time>2011-01-09T07:36:55Z</time>
      </trkpt>
      <trkpt lat="43.50196" lon="6.93713">
        <ele>30</ele>
        <time>2011-01-09T07:36:56Z</time>
      </trkpt>
      <trkpt lat="43.50194" lon="6.93713">
        <ele>30</ele>
        <time>2011-01-09T07:36:57Z</time>
      </trkpt>
      <trkpt lat="43.50191" lon="6.93712">
        <ele>30</ele>
        <time>2011-01-09T07:36:58Z</time>
      </trkpt>
      <trkpt lat="43.50184" lon="6.93711">
        <ele>30</ele>
        <time>2011-01-09T07:37:01Z</time>
      </trkpt>
      <trkpt lat="43.50183" lon="6.93709">
        <ele>31</ele>
        <time>2011-01-09T07:37:02Z</time>
      </trkpt>
      <trkpt lat="43.5018" lon="6.93711">
        <ele>31</ele>
        <time>2011-01-09T07:37:03Z</time>
      </trkpt>
      <trkpt lat="43.50177" lon="6.93711">
        <ele>31</ele>
        <time>2011-01-09T07:37:04Z</time>
      </trkpt>
      <trkpt lat="43.50175" lon="6.93712">
        <ele>32</ele>
        <time>2011-01-09T07:37:05Z</time>
      </trkpt>
      <trkpt lat="43.5017" lon="6.93713">
        <ele>32</ele>
        <time>2011-01-09T07:37:07Z</time>
      </trkpt>
      <trkpt lat="43.50164" lon="6.93715">
        <ele>32</ele>
        <time>2011-01-09T07:37:09Z</time>
      </trkpt>
      <trkpt lat="43.50161" lon="6.93716">
        <ele>32</ele>
        <time>2011-01-09T07:37:10Z</time>
      </trkpt>
      <trkpt lat="43.50158" lon="6.93717">
        <ele>32</ele>
        <time>2011-01-09T07:37:11Z</time>
      </trkpt>
      <trkpt lat="43.50155" lon="6.93718">
        <ele>32</ele>
        <time>2011-01-09T07:37:12Z</time>
      </trkpt>
      <trkpt lat="43.5015" lon="6.9372">
        <ele>32</ele>
        <time>2011-01-09T07:37:14Z</time>
      </trkpt>
      <trkpt lat="43.50148" lon="6.9372">
        <ele>33</ele>
        <time>2011-01-09T07:37:15Z</time>
      </trkpt>
      <trkpt lat="43.50144" lon="6.9372">
        <ele>33</ele>
        <time>2011-01-09T07:37:16Z</time>
      </trkpt>
      <trkpt lat="43.50142" lon="6.93719">
        <ele>33</ele>
        <time>2011-01-09T07:37:17Z</time>
      </trkpt>
      <trkpt lat="43.50139" lon="6.93718">
        <ele>33</ele>
        <time>2011-01-09T07:37:18Z</time>
      </trkpt>
      <trkpt lat="43.50136" lon="6.93718">
        <ele>33</ele>
        <time>2011-01-09T07:37:19Z</time>
      </trkpt>
      <trkpt lat="43.50132" lon="6.93718">
        <ele>33</ele>
        <time>2011-01-09T07:37:20Z</time>
      </trkpt>
      <trkpt lat="43.5013" lon="6.93717">
        <ele>34</ele>
        <time>2011-01-09T07:37:21Z</time>
      </trkpt>
      <trkpt lat="43.50127" lon="6.93716">
        <ele>34</ele>
        <time>2011-01-09T07:37:22Z</time>
      </trkpt>
      <trkpt lat="43.50124" lon="6.93717">
        <ele>34</ele>
        <time>2011-01-09T07:37:23Z</time>
      </trkpt>
      <trkpt lat="43.50121" lon="6.93716">
        <ele>34</ele>
        <time>2011-01-09T07:37:24Z</time>
      </trkpt>
      <trkpt lat="43.50118" lon="6.93716">
        <ele>34</ele>
        <time>2011-01-09T07:37:25Z</time>
      </trkpt>
      <trkpt lat="43.50114" lon="6.93714">
        <ele>35</ele>
        <time>2011-01-09T07:37:27Z</time>
      </trkpt>
      <trkpt lat="43.50111" lon="6.93713">
        <ele>35</ele>
        <time>2011-01-09T07:37:28Z</time>
      </trkpt>
      <trkpt lat="43.50102" lon="6.93709">
        <ele>35</ele>
        <time>2011-01-09T07:37:32Z</time>
      </trkpt>
      <trkpt lat="43.50094" lon="6.93704">
        <ele>36</ele>
        <time>2011-01-09T07:37:35Z</time>
      </trkpt>
      <trkpt lat="43.50092" lon="6.93703">
        <ele>36</ele>
        <time>2011-01-09T07:37:36Z</time>
      </trkpt>
      <trkpt lat="43.50089" lon="6.93701">
        <ele>36</ele>
        <time>2011-01-09T07:37:37Z</time>
      </trkpt>
      <trkpt lat="43.50086" lon="6.937">
        <ele>36</ele>
        <time>2011-01-09T07:37:38Z</time>
      </trkpt>
      <trkpt lat="43.50083" lon="6.93699">
        <ele>36</ele>
        <time>2011-01-09T07:37:39Z</time>
      </trkpt>
      <trkpt lat="43.5008" lon="6.93698">
        <ele>36</ele>
        <time>2011-01-09T07:37:40Z</time>
      </trkpt>
      <trkpt lat="43.50078" lon="6.93698">
        <ele>36</ele>
        <time>2011-01-09T07:37:41Z</time>
      </trkpt>
      <trkpt lat="43.50069" lon="6.937">
        <ele>36</ele>
        <time>2011-01-09T07:37:44Z</time>
      </trkpt>
      <trkpt lat="43.50063" lon="6.93701">
        <ele>35</ele>
        <time>2011-01-09T07:37:46Z</time>
      </trkpt>
      <trkpt lat="43.5006" lon="6.93702">
        <ele>35</ele>
        <time>2011-01-09T07:37:47Z</time>
      </trkpt>
      <trkpt lat="43.50058" lon="6.93704">
        <ele>35</ele>
        <time>2011-01-09T07:37:48Z</time>
      </trkpt>
      <trkpt lat="43.50053" lon="6.93707">
        <ele>34</ele>
        <time>2011-01-09T07:37:50Z</time>
      </trkpt>
      <trkpt lat="43.50048" lon="6.93709">
        <ele>34</ele>
        <time>2011-01-09T07:37:52Z</time>
      </trkpt>
      <trkpt lat="43.50045" lon="6.9371">
        <ele>34</ele>
        <time>2011-01-09T07:37:53Z</time>
      </trkpt>
      <trkpt lat="43.50043" lon="6.9371">
        <ele>34</ele>
        <time>2011-01-09T07:37:54Z</time>
      </trkpt>
      <trkpt lat="43.50038" lon="6.93711">
        <ele>34</ele>
        <time>2011-01-09T07:37:56Z</time>
      </trkpt>
      <trkpt lat="43.50028" lon="6.93711">
        <ele>35</ele>
        <time>2011-01-09T07:38:00Z</time>
      </trkpt>
      <trkpt lat="43.50021" lon="6.9371">
        <ele>36</ele>
        <time>2011-01-09T07:38:03Z</time>
      </trkpt>
      <trkpt lat="43.50019" lon="6.93709">
        <ele>36</ele>
        <time>2011-01-09T07:38:04Z</time>
      </trkpt>
      <trkpt lat="43.50015" lon="6.93708">
        <ele>36</ele>
        <time>2011-01-09T07:38:06Z</time>
      </trkpt>
      <trkpt lat="43.50011" lon="6.93707">
        <ele>37</ele>
        <time>2011-01-09T07:38:08Z</time>
      </trkpt>
      <trkpt lat="43.50007" lon="6.93705">
        <ele>37</ele>
        <time>2011-01-09T07:38:10Z</time>
      </trkpt>
      <trkpt lat="43.50003" lon="6.93703">
        <ele>37</ele>
        <time>2011-01-09T07:38:12Z</time>
      </trkpt>
      <trkpt lat="43.49993" lon="6.93697">
        <ele>39</ele>
        <time>2011-01-09T07:38:17Z</time>
      </trkpt>
      <trkpt lat="43.4999" lon="6.93694">
        <ele>39</ele>
        <time>2011-01-09T07:38:19Z</time>
      </trkpt>
      <trkpt lat="43.49987" lon="6.93692">
        <ele>40</ele>
        <time>2011-01-09T07:38:21Z</time>
      </trkpt>
      <trkpt lat="43.49984" lon="6.93689">
        <ele>40</ele>
        <time>2011-01-09T07:38:23Z</time>
      </trkpt>
      <trkpt lat="43.49981" lon="6.93687">
        <ele>41</ele>
        <time>2011-01-09T07:38:25Z</time>
      </trkpt>
      <trkpt lat="43.49979" lon="6.93685">
        <ele>41</ele>
        <time>2011-01-09T07:38:26Z</time>
      </trkpt>
      <trkpt lat="43.49978" lon="6.93684">
        <ele>42</ele>
        <time>2011-01-09T07:38:27Z</time>
      </trkpt>
      <trkpt lat="43.49976" lon="6.93683">
        <ele>42</ele>
        <time>2011-01-09T07:38:28Z</time>
      </trkpt>
      <trkpt lat="43.4997" lon="6.9368">
        <ele>44</ele>
        <time>2011-01-09T07:38:32Z</time>
      </trkpt>
      <trkpt lat="43.49968" lon="6.93679">
        <ele>44</ele>
        <time>2011-01-09T07:38:33Z</time>
      </trkpt>
      <trkpt lat="43.49967" lon="6.93679">
        <ele>44</ele>
        <time>2011-01-09T07:38:34Z</time>
      </trkpt>
      <trkpt lat="43.49965" lon="6.93678">
        <ele>44</ele>
        <time>2011-01-09T07:38:35Z</time>
      </trkpt>
      <trkpt lat="43.49959" lon="6.93676">
        <ele>44</ele>
        <time>2011-01-09T07:38:38Z</time>
      </trkpt>
      <trkpt lat="43.49956" lon="6.93674">
        <ele>45</ele>
        <time>2011-01-09T07:38:40Z</time>
      </trkpt>
      <trkpt lat="43.4995" lon="6.93672">
        <ele>45</ele>
        <time>2011-01-09T07:38:43Z</time>
      </trkpt>
      <trkpt lat="43.49946" lon="6.9367">
        <ele>45</ele>
        <time>2011-01-09T07:38:45Z</time>
      </trkpt>
      <trkpt lat="43.49942" lon="6.93668">
        <ele>45</ele>
        <time>2011-01-09T07:38:47Z</time>
      </trkpt>
      <trkpt lat="43.4994" lon="6.93667">
        <ele>45</ele>
        <time>2011-01-09T07:38:48Z</time>
      </trkpt>
      <trkpt lat="43.49938" lon="6.93666">
        <ele>45</ele>
        <time>2011-01-09T07:38:49Z</time>
      </trkpt>
      <trkpt lat="43.49934" lon="6.93664">
        <ele>45</ele>
        <time>2011-01-09T07:38:51Z</time>
      </trkpt>
      <trkpt lat="43.49928" lon="6.93661">
        <ele>45</ele>
        <time>2011-01-09T07:38:54Z</time>
      </trkpt>
      <trkpt lat="43.49924" lon="6.93659">
        <ele>45</ele>
        <time>2011-01-09T07:38:41Z</time>
      </trkpt>
      <trkpt lat="43.49922" lon="6.93659">
        <ele>46</ele>
        <time>2011-01-09T07:38:42Z</time>
      </trkpt>
      <trkpt lat="43.49918" lon="6.93659">
        <ele>46</ele>
        <time>2011-01-09T07:38:44Z</time>
      </trkpt>
      <trkpt lat="43.49914" lon="6.9366">
        <ele>46</ele>
        <time>2011-01-09T07:38:46Z</time>
      </trkpt>
      <trkpt lat="43.4991" lon="6.93661">
        <ele>47</ele>
        <time>2011-01-09T07:38:48Z</time>
      </trkpt>
      <trkpt lat="43.49907" lon="6.93662">
        <ele>47</ele>
        <time>2011-01-09T07:38:50Z</time>
      </trkpt>
      <trkpt lat="43.49905" lon="6.93663">
        <ele>47</ele>
        <time>2011-01-09T07:38:51Z</time>
      </trkpt>
      <trkpt lat="43.49902" lon="6.93666">
        <ele>48</ele>
        <time>2011-01-09T07:38:53Z</time>
      </trkpt>
      <trkpt lat="43.49899" lon="6.93668">
        <ele>48</ele>
        <time>2011-01-09T07:38:55Z</time>
      </trkpt>
      <trkpt lat="43.49895" lon="6.9367">
        <ele>48</ele>
        <time>2011-01-09T07:38:57Z</time>
      </trkpt>
      <trkpt lat="43.49887" lon="6.93676">
        <ele>49</ele>
        <time>2011-01-09T07:39:02Z</time>
      </trkpt>
      <trkpt lat="43.49885" lon="6.93677">
        <ele>49</ele>
        <time>2011-01-09T07:39:03Z</time>
      </trkpt>
      <trkpt lat="43.49883" lon="6.93676">
        <ele>49</ele>
        <time>2011-01-09T07:39:04Z</time>
      </trkpt>
      <trkpt lat="43.49881" lon="6.93675">
        <ele>49</ele>
        <time>2011-01-09T07:39:05Z</time>
      </trkpt>
      <trkpt lat="43.49879" lon="6.93673">
        <ele>49</ele>
        <time>2011-01-09T07:39:06Z</time>
      </trkpt>
      <trkpt lat="43.49878" lon="6.93671">
        <ele>49</ele>
        <time>2011-01-09T07:39:07Z</time>
      </trkpt>
      <trkpt lat="43.49877" lon="6.93669">
        <ele>49</ele>
        <time>2011-01-09T07:39:08Z</time>
      </trkpt>
      <trkpt lat="43.49876" lon="6.93667">
        <ele>49</ele>
        <time>2011-01-09T07:39:09Z</time>
      </trkpt>
      <trkpt lat="43.49875" lon="6.93665">
        <ele>50</ele>
        <time>2011-01-09T07:39:10Z</time>
      </trkpt>
      <trkpt lat="43.49873" lon="6.93663">
        <ele>50</ele>
        <time>2011-01-09T07:39:11Z</time>
      </trkpt>
      <trkpt lat="43.49872" lon="6.93662">
        <ele>50</ele>
        <time>2011-01-09T07:39:12Z</time>
      </trkpt>
      <trkpt lat="43.4987" lon="6.93661">
        <ele>50</ele>
        <time>2011-01-09T07:39:13Z</time>
      </trkpt>
      <trkpt lat="43.49866" lon="6.93661">
        <ele>51</ele>
        <time>2011-01-09T07:39:15Z</time>
      </trkpt>
      <trkpt lat="43.49863" lon="6.93662">
        <ele>51</ele>
        <time>2011-01-09T07:39:17Z</time>
      </trkpt>
      <trkpt lat="43.49859" lon="6.93662">
        <ele>51</ele>
        <time>2011-01-09T07:39:19Z</time>
      </trkpt>
      <trkpt lat="43.49853" lon="6.93662">
        <ele>52</ele>
        <time>2011-01-09T07:39:22Z</time>
      </trkpt>
      <trkpt lat="43.4985" lon="6.93661">
        <ele>52</ele>
        <time>2011-01-09T07:39:24Z</time>
      </trkpt>
      <trkpt lat="43.49846" lon="6.9366">
        <ele>53</ele>
        <time>2011-01-09T07:39:26Z</time>
      </trkpt>
      <trkpt lat="43.49842" lon="6.93658">
        <ele>53</ele>
        <time>2011-01-09T07:39:28Z</time>
      </trkpt>
      <trkpt lat="43.49841" lon="6.93657">
        <ele>53</ele>
        <time>2011-01-09T07:39:29Z</time>
      </trkpt>
      <trkpt lat="43.49837" lon="6.93655">
        <ele>53</ele>
        <time>2011-01-09T07:39:31Z</time>
      </trkpt>
      <trkpt lat="43.49831" lon="6.9365">
        <ele>55</ele>
        <time>2011-01-09T07:39:35Z</time>
      </trkpt>
      <trkpt lat="43.49829" lon="6.93649">
        <ele>55</ele>
        <time>2011-01-09T07:39:36Z</time>
      </trkpt>
      <trkpt lat="43.49828" lon="6.93648">
        <ele>55</ele>
        <time>2011-01-09T07:39:37Z</time>
      </trkpt>
      <trkpt lat="43.49826" lon="6.93646">
        <ele>55</ele>
        <time>2011-01-09T07:39:38Z</time>
      </trkpt>
      <trkpt lat="43.49823" lon="6.93645">
        <ele>56</ele>
        <time>2011-01-09T07:39:40Z</time>
      </trkpt>
      <trkpt lat="43.49818" lon="6.93641">
        <ele>57</ele>
        <time>2011-01-09T07:39:43Z</time>
      </trkpt>
      <trkpt lat="43.49814" lon="6.93638">
        <ele>57</ele>
        <time>2011-01-09T07:39:45Z</time>
      </trkpt>
      <trkpt lat="43.49812" lon="6.93636">
        <ele>58</ele>
        <time>2011-01-09T07:39:47Z</time>
      </trkpt>
      <trkpt lat="43.49808" lon="6.93634">
        <ele>58</ele>
        <time>2011-01-09T07:39:49Z</time>
      </trkpt>
      <trkpt lat="43.49807" lon="6.93632">
        <ele>59</ele>
        <time>2011-01-09T07:39:50Z</time>
      </trkpt>
      <trkpt lat="43.49804" lon="6.9363">
        <ele>59</ele>
        <time>2011-01-09T07:39:52Z</time>
      </trkpt>
      <trkpt lat="43.498" lon="6.93628">
        <ele>59</ele>
        <time>2011-01-09T07:39:54Z</time>
      </trkpt>
      <trkpt lat="43.49798" lon="6.93628">
        <ele>60</ele>
        <time>2011-01-09T07:39:55Z</time>
      </trkpt>
      <trkpt lat="43.49797" lon="6.93629">
        <ele>60</ele>
        <time>2011-01-09T07:39:56Z</time>
      </trkpt>
      <trkpt lat="43.49793" lon="6.93631">
        <ele>60</ele>
        <time>2011-01-09T07:39:58Z</time>
      </trkpt>
      <trkpt lat="43.4979" lon="6.93631">
        <ele>61</ele>
        <time>2011-01-09T07:40:00Z</time>
      </trkpt>
      <trkpt lat="43.49788" lon="6.93631">
        <ele>61</ele>
        <time>2011-01-09T07:40:01Z</time>
      </trkpt>
      <trkpt lat="43.49786" lon="6.93631">
        <ele>61</ele>
        <time>2011-01-09T07:40:02Z</time>
      </trkpt>
      <trkpt lat="43.49784" lon="6.93629">
        <ele>61</ele>
        <time>2011-01-09T07:40:03Z</time>
      </trkpt>
      <trkpt lat="43.49783" lon="6.93628">
        <ele>61</ele>
        <time>2011-01-09T07:40:04Z</time>
      </trkpt>
      <trkpt lat="43.49781" lon="6.93626">
        <ele>61</ele>
        <time>2011-01-09T07:40:05Z</time>
      </trkpt>
      <trkpt lat="43.49779" lon="6.93622">
        <ele>62</ele>
        <time>2011-01-09T07:40:07Z</time>
      </trkpt>
      <trkpt lat="43.49776" lon="6.93618">
        <ele>62</ele>
        <time>2011-01-09T07:40:09Z</time>
      </trkpt>
      <trkpt lat="43.49775" lon="6.93617">
        <ele>62</ele>
        <time>2011-01-09T07:40:10Z</time>
      </trkpt>
      <trkpt lat="43.49772" lon="6.93613">
        <ele>62</ele>
        <time>2011-01-09T07:40:12Z</time>
      </trkpt>
      <trkpt lat="43.49771" lon="6.93612">
        <ele>62</ele>
        <time>2011-01-09T07:40:13Z</time>
      </trkpt>
      <trkpt lat="43.49768" lon="6.93608">
        <ele>63</ele>
        <time>2011-01-09T07:40:15Z</time>
      </trkpt>
      <trkpt lat="43.49766" lon="6.93606">
        <ele>63</ele>
        <time>2011-01-09T07:40:16Z</time>
      </trkpt>
      <trkpt lat="43.49765" lon="6.93604">
        <ele>63</ele>
        <time>2011-01-09T07:40:17Z</time>
      </trkpt>
      <trkpt lat="43.49763" lon="6.93601">
        <ele>63</ele>
        <time>2011-01-09T07:40:18Z</time>
      </trkpt>
      <trkpt lat="43.49761" lon="6.93596">
        <ele>63</ele>
        <time>2011-01-09T07:40:20Z</time>
      </trkpt>
      <trkpt lat="43.49759" lon="6.93594">
        <ele>63</ele>
        <time>2011-01-09T07:40:21Z</time>
      </trkpt>
      <trkpt lat="43.49756" lon="6.93589">
        <ele>63</ele>
        <time>2011-01-09T07:40:23Z</time>
      </trkpt>
      <trkpt lat="43.49753" lon="6.93583">
        <ele>63</ele>
        <time>2011-01-09T07:40:25Z</time>
      </trkpt>
      <trkpt lat="43.49751" lon="6.9358">
        <ele>63</ele>
        <time>2011-01-09T07:40:26Z</time>
      </trkpt>
      <trkpt lat="43.49744" lon="6.93574">
        <ele>63</ele>
        <time>2011-01-09T07:40:29Z</time>
      </trkpt>
      <trkpt lat="43.49741" lon="6.93572">
        <ele>63</ele>
        <time>2011-01-09T07:40:30Z</time>
      </trkpt>
      <trkpt lat="43.49739" lon="6.9357">
        <ele>63</ele>
        <time>2011-01-09T07:40:31Z</time>
      </trkpt>
      <trkpt lat="43.49731" lon="6.93568">
        <ele>64</ele>
        <time>2011-01-09T07:40:34Z</time>
      </trkpt>
      <trkpt lat="43.49722" lon="6.93566">
        <ele>64</ele>
        <time>2011-01-09T07:40:38Z</time>
      </trkpt>
      <trkpt lat="43.49717" lon="6.93565">
        <ele>64</ele>
        <time>2011-01-09T07:40:40Z</time>
      </trkpt>
      <trkpt lat="43.49712" lon="6.93565">
        <ele>64</ele>
        <time>2011-01-09T07:40:42Z</time>
      </trkpt>
      <trkpt lat="43.49709" lon="6.93565">
        <ele>64</ele>
        <time>2011-01-09T07:40:43Z</time>
      </trkpt>
      <trkpt lat="43.49706" lon="6.93566">
        <ele>64</ele>
        <time>2011-01-09T07:40:44Z</time>
      </trkpt>
      <trkpt lat="43.49701" lon="6.93568">
        <ele>64</ele>
        <time>2011-01-09T07:40:46Z</time>
      </trkpt>
      <trkpt lat="43.49699" lon="6.93569">
        <ele>64</ele>
        <time>2011-01-09T07:40:47Z</time>
      </trkpt>
      <trkpt lat="43.49694" lon="6.93573">
        <ele>64</ele>
        <time>2011-01-09T07:40:49Z</time>
      </trkpt>
      <trkpt lat="43.49692" lon="6.93575">
        <ele>64</ele>
        <time>2011-01-09T07:40:50Z</time>
      </trkpt>
      <trkpt lat="43.49687" lon="6.9358">
        <ele>64</ele>
        <time>2011-01-09T07:40:52Z</time>
      </trkpt>
      <trkpt lat="43.49683" lon="6.93586">
        <ele>64</ele>
        <time>2011-01-09T07:40:54Z</time>
      </trkpt>
      <trkpt lat="43.49679" lon="6.93592">
        <ele>64</ele>
        <time>2011-01-09T07:40:56Z</time>
      </trkpt>
      <trkpt lat="43.49675" lon="6.93598">
        <ele>64</ele>
        <time>2011-01-09T07:40:58Z</time>
      </trkpt>
      <trkpt lat="43.49671" lon="6.93605">
        <ele>64</ele>
        <time>2011-01-09T07:41:00Z</time>
      </trkpt>
      <trkpt lat="43.49669" lon="6.93609">
        <ele>63</ele>
        <time>2011-01-09T07:41:01Z</time>
      </trkpt>
      <trkpt lat="43.49667" lon="6.93613">
        <ele>63</ele>
        <time>2011-01-09T07:41:02Z</time>
      </trkpt>
      <trkpt lat="43.49665" lon="6.93617">
        <ele>63</ele>
        <time>2011-01-09T07:41:03Z</time>
      </trkpt>
      <trkpt lat="43.49655" lon="6.93634">
        <ele>63</ele>
        <time>2011-01-09T07:41:08Z</time>
      </trkpt>
      <trkpt lat="43.49653" lon="6.93637">
        <ele>63</ele>
        <time>2011-01-09T07:41:09Z</time>
      </trkpt>
      <trkpt lat="43.49648" lon="6.93644">
        <ele>63</ele>
        <time>2011-01-09T07:41:11Z</time>
      </trkpt>
      <trkpt lat="43.49643" lon="6.9365">
        <ele>63</ele>
        <time>2011-01-09T07:41:13Z</time>
      </trkpt>
      <trkpt lat="43.49641" lon="6.93653">
        <ele>64</ele>
        <time>2011-01-09T07:41:14Z</time>
      </trkpt>
      <trkpt lat="43.49636" lon="6.93658">
        <ele>64</ele>
        <time>2011-01-09T07:41:16Z</time>
      </trkpt>
      <trkpt lat="43.49624" lon="6.9367">
        <ele>64</ele>
        <time>2011-01-09T07:41:21Z</time>
      </trkpt>
      <trkpt lat="43.49622" lon="6.93672">
        <ele>64</ele>
        <time>2011-01-09T07:41:22Z</time>
      </trkpt>
      <trkpt lat="43.49619" lon="6.93673">
        <ele>64</ele>
        <time>2011-01-09T07:41:23Z</time>
      </trkpt>
      <trkpt lat="43.49617" lon="6.93673">
        <ele>64</ele>
        <time>2011-01-09T07:41:24Z</time>
      </trkpt>
      <trkpt lat="43.49615" lon="6.93672">
        <ele>64</ele>
        <time>2011-01-09T07:41:25Z</time>
      </trkpt>
      <trkpt lat="43.49613" lon="6.93671">
        <ele>64</ele>
        <time>2011-01-09T07:41:26Z</time>
      </trkpt>
      <trkpt lat="43.49613" lon="6.93669">
        <ele>64</ele>
        <time>2011-01-09T07:41:27Z</time>
      </trkpt>
      <trkpt lat="43.49612" lon="6.93666">
        <ele>64</ele>
        <time>2011-01-09T07:41:28Z</time>
      </trkpt>
      <trkpt lat="43.49611" lon="6.93664">
        <ele>64</ele>
        <time>2011-01-09T07:41:29Z</time>
      </trkpt>
      <trkpt lat="43.49612" lon="6.9366">
        <ele>64</ele>
        <time>2011-01-09T07:41:30Z</time>
      </trkpt>
      <trkpt lat="43.49613" lon="6.93657">
        <ele>65</ele>
        <time>2011-01-09T07:41:31Z</time>
      </trkpt>
      <trkpt lat="43.49621" lon="6.93639">
        <ele>66</ele>
        <time>2011-01-09T07:41:37Z</time>
      </trkpt>
      <trkpt lat="43.49624" lon="6.93631">
        <ele>67</ele>
        <time>2011-01-09T07:41:40Z</time>
      </trkpt>
      <trkpt lat="43.49625" lon="6.93628">
        <ele>67</ele>
        <time>2011-01-09T07:41:41Z</time>
      </trkpt>
      <trkpt lat="43.49629" lon="6.93614">
        <ele>68</ele>
        <time>2011-01-09T07:41:46Z</time>
      </trkpt>
      <trkpt lat="43.49629" lon="6.93612">
        <ele>68</ele>
        <time>2011-01-09T07:41:47Z</time>
      </trkpt>
      <trkpt lat="43.4963" lon="6.93607">
        <ele>69</ele>
        <time>2011-01-09T07:41:49Z</time>
      </trkpt>
      <trkpt lat="43.49631" lon="6.93601">
        <ele>69</ele>
        <time>2011-01-09T07:41:51Z</time>
      </trkpt>
      <trkpt lat="43.49633" lon="6.93596">
        <ele>70</ele>
        <time>2011-01-09T07:41:53Z</time>
      </trkpt>
      <trkpt lat="43.49635" lon="6.93587">
        <ele>70</ele>
        <time>2011-01-09T07:41:56Z</time>
      </trkpt>
      <trkpt lat="43.49638" lon="6.93576">
        <ele>71</ele>
        <time>2011-01-09T07:42:00Z</time>
      </trkpt>
      <trkpt lat="43.49639" lon="6.93574">
        <ele>71</ele>
        <time>2011-01-09T07:42:01Z</time>
      </trkpt>
      <trkpt lat="43.4964" lon="6.93571">
        <ele>72</ele>
        <time>2011-01-09T07:42:02Z</time>
      </trkpt>
      <trkpt lat="43.49641" lon="6.93566">
        <ele>72</ele>
        <time>2011-01-09T07:42:04Z</time>
      </trkpt>
      <trkpt lat="43.49645" lon="6.93555">
        <ele>72</ele>
        <time>2011-01-09T07:42:08Z</time>
      </trkpt>
      <trkpt lat="43.49646" lon="6.93553">
        <ele>73</ele>
        <time>2011-01-09T07:42:09Z</time>
      </trkpt>
      <trkpt lat="43.49648" lon="6.93548">
        <ele>73</ele>
        <time>2011-01-09T07:42:11Z</time>
      </trkpt>
      <trkpt lat="43.4965" lon="6.93543">
        <ele>73</ele>
        <time>2011-01-09T07:42:13Z</time>
      </trkpt>
      <trkpt lat="43.49652" lon="6.93538">
        <ele>73</ele>
        <time>2011-01-09T07:42:15Z</time>
      </trkpt>
      <trkpt lat="43.49656" lon="6.9353">
        <ele>74</ele>
        <time>2011-01-09T07:42:18Z</time>
      </trkpt>
      <trkpt lat="43.49657" lon="6.93528">
        <ele>74</ele>
        <time>2011-01-09T07:42:19Z</time>
      </trkpt>
      <trkpt lat="43.49658" lon="6.93525">
        <ele>74</ele>
        <time>2011-01-09T07:42:20Z</time>
      </trkpt>
      <trkpt lat="43.49661" lon="6.93518">
        <ele>75</ele>
        <time>2011-01-09T07:42:23Z</time>
      </trkpt>
      <trkpt lat="43.49662" lon="6.93515">
        <ele>75</ele>
        <time>2011-01-09T07:42:24Z</time>
      </trkpt>
      <trkpt lat="43.49663" lon="6.93512">
        <ele>75</ele>
        <time>2011-01-09T07:42:25Z</time>
      </trkpt>
      <trkpt lat="43.49666" lon="6.93505">
        <ele>76</ele>
        <time>2011-01-09T07:42:28Z</time>
      </trkpt>
      <trkpt lat="43.49668" lon="6.93501">
        <ele>77</ele>
        <time>2011-01-09T07:42:30Z</time>
      </trkpt>
      <trkpt lat="43.49669" lon="6.93498">
        <ele>77</ele>
        <time>2011-01-09T07:42:31Z</time>
      </trkpt>
      <trkpt lat="43.4967" lon="6.93495">
        <ele>77</ele>
        <time>2011-01-09T07:42:32Z</time>
      </trkpt>
      <trkpt lat="43.49671" lon="6.9349">
        <ele>77</ele>
        <time>2011-01-09T07:42:34Z</time>
      </trkpt>
      <trkpt lat="43.49671" lon="6.93485">
        <ele>78</ele>
        <time>2011-01-09T07:42:36Z</time>
      </trkpt>
      <trkpt lat="43.49671" lon="6.93482">
        <ele>78</ele>
        <time>2011-01-09T07:42:37Z</time>
      </trkpt>
      <trkpt lat="43.49671" lon="6.93477">
        <ele>78</ele>
        <time>2011-01-09T07:42:39Z</time>
      </trkpt>
      <trkpt lat="43.49669" lon="6.93472">
        <ele>79</ele>
        <time>2011-01-09T07:42:41Z</time>
      </trkpt>
      <trkpt lat="43.49669" lon="6.9347">
        <ele>79</ele>
        <time>2011-01-09T07:42:42Z</time>
      </trkpt>
      <trkpt lat="43.49666" lon="6.93459">
        <ele>80</ele>
        <time>2011-01-09T07:42:46Z</time>
      </trkpt>
      <trkpt lat="43.49665" lon="6.93456">
        <ele>80</ele>
        <time>2011-01-09T07:42:47Z</time>
      </trkpt>
      <trkpt lat="43.49664" lon="6.93454">
        <ele>81</ele>
        <time>2011-01-09T07:42:48Z</time>
      </trkpt>
      <trkpt lat="43.49664" lon="6.93451">
        <ele>81</ele>
        <time>2011-01-09T07:42:49Z</time>
      </trkpt>
      <trkpt lat="43.49662" lon="6.93446">
        <ele>81</ele>
        <time>2011-01-09T07:42:51Z</time>
      </trkpt>
      <trkpt lat="43.49659" lon="6.93439">
        <ele>82</ele>
        <time>2011-01-09T07:42:54Z</time>
      </trkpt>
      <trkpt lat="43.49658" lon="6.93437">
        <ele>82</ele>
        <time>2011-01-09T07:42:55Z</time>
      </trkpt>
      <trkpt lat="43.49655" lon="6.9343">
        <ele>83</ele>
        <time>2011-01-09T07:42:58Z</time>
      </trkpt>
      <trkpt lat="43.49652" lon="6.93423">
        <ele>83</ele>
        <time>2011-01-09T07:43:01Z</time>
      </trkpt>
      <trkpt lat="43.49648" lon="6.93417">
        <ele>84</ele>
        <time>2011-01-09T07:43:04Z</time>
      </trkpt>
      <trkpt lat="43.49644" lon="6.93411">
        <ele>85</ele>
        <time>2011-01-09T07:43:07Z</time>
      </trkpt>
      <trkpt lat="43.4964" lon="6.93404">
        <ele>85</ele>
        <time>2011-01-09T07:43:10Z</time>
      </trkpt>
      <trkpt lat="43.49634" lon="6.93397">
        <ele>86</ele>
        <time>2011-01-09T07:43:14Z</time>
      </trkpt>
      <trkpt lat="43.49631" lon="6.93394">
        <ele>87</ele>
        <time>2011-01-09T07:43:16Z</time>
      </trkpt>
      <trkpt lat="43.49627" lon="6.9339">
        <ele>87</ele>
        <time>2011-01-09T07:43:18Z</time>
      </trkpt>
      <trkpt lat="43.49624" lon="6.93387">
        <ele>88</ele>
        <time>2011-01-09T07:43:20Z</time>
      </trkpt>
      <trkpt lat="43.49622" lon="6.93386">
        <ele>88</ele>
        <time>2011-01-09T07:43:21Z</time>
      </trkpt>
      <trkpt lat="43.49621" lon="6.93385">
        <ele>88</ele>
        <time>2011-01-09T07:43:22Z</time>
      </trkpt>
      <trkpt lat="43.49612" lon="6.93381">
        <ele>89</ele>
        <time>2011-01-09T07:43:27Z</time>
      </trkpt>
      <trkpt lat="43.49601" lon="6.93375">
        <ele>90</ele>
        <time>2011-01-09T07:43:33Z</time>
      </trkpt>
      <trkpt lat="43.49598" lon="6.93373">
        <ele>91</ele>
        <time>2011-01-09T07:43:35Z</time>
      </trkpt>
      <trkpt lat="43.49592" lon="6.93372">
        <ele>91</ele>
        <time>2011-01-09T07:43:38Z</time>
      </trkpt>
      <trkpt lat="43.49589" lon="6.93371">
        <ele>91</ele>
        <time>2011-01-09T07:43:39Z</time>
      </trkpt>
      <trkpt lat="43.49584" lon="6.93368">
        <ele>92</ele>
        <time>2011-01-09T07:43:42Z</time>
      </trkpt>
      <trkpt lat="43.49577" lon="6.93365">
        <ele>92</ele>
        <time>2011-01-09T07:43:45Z</time>
      </trkpt>
      <trkpt lat="43.49576" lon="6.93363">
        <ele>92</ele>
        <time>2011-01-09T07:43:46Z</time>
      </trkpt>
      <trkpt lat="43.49574" lon="6.93362">
        <ele>92</ele>
        <time>2011-01-09T07:43:47Z</time>
      </trkpt>
      <trkpt lat="43.49573" lon="6.9336">
        <ele>92</ele>
        <time>2011-01-09T07:43:48Z</time>
      </trkpt>
      <trkpt lat="43.49571" lon="6.93357">
        <ele>92</ele>
        <time>2011-01-09T07:43:49Z</time>
      </trkpt>
      <trkpt lat="43.49571" lon="6.93354">
        <ele>92</ele>
        <time>2011-01-09T07:43:50Z</time>
      </trkpt>
      <trkpt lat="43.49571" lon="6.93351">
        <ele>93</ele>
        <time>2011-01-09T07:43:51Z</time>
      </trkpt>
      <trkpt lat="43.49572" lon="6.93348">
        <ele>93</ele>
        <time>2011-01-09T07:43:52Z</time>
      </trkpt>
      <trkpt lat="43.49573" lon="6.93345">
        <ele>93</ele>
        <time>2011-01-09T07:43:53Z</time>
      </trkpt>
      <trkpt lat="43.49575" lon="6.93342">
        <ele>93</ele>
        <time>2011-01-09T07:43:54Z</time>
      </trkpt>
      <trkpt lat="43.49576" lon="6.9334">
        <ele>93</ele>
        <time>2011-01-09T07:43:55Z</time>
      </trkpt>
      <trkpt lat="43.49585" lon="6.93331">
        <ele>94</ele>
        <time>2011-01-09T07:44:00Z</time>
      </trkpt>
      <trkpt lat="43.49594" lon="6.93325">
        <ele>94</ele>
        <time>2011-01-09T07:44:04Z</time>
      </trkpt>
      <trkpt lat="43.49599" lon="6.93323">
        <ele>94</ele>
        <time>2011-01-09T07:44:06Z</time>
      </trkpt>
      <trkpt lat="43.49601" lon="6.93321">
        <ele>94</ele>
        <time>2011-01-09T07:44:07Z</time>
      </trkpt>
      <trkpt lat="43.49605" lon="6.93319">
        <ele>94</ele>
        <time>2011-01-09T07:44:09Z</time>
      </trkpt>
      <trkpt lat="43.4961" lon="6.93317">
        <ele>95</ele>
        <time>2011-01-09T07:44:11Z</time>
      </trkpt>
      <trkpt lat="43.49614" lon="6.93314">
        <ele>95</ele>
        <time>2011-01-09T07:44:13Z</time>
      </trkpt>
      <trkpt lat="43.49618" lon="6.9331">
        <ele>95</ele>
        <time>2011-01-09T07:44:15Z</time>
      </trkpt>
      <trkpt lat="43.49619" lon="6.93308">
        <ele>95</ele>
        <time>2011-01-09T07:44:16Z</time>
      </trkpt>
      <trkpt lat="43.4962" lon="6.93305">
        <ele>95</ele>
        <time>2011-01-09T07:44:17Z</time>
      </trkpt>
      <trkpt lat="43.49621" lon="6.93302">
        <ele>95</ele>
        <time>2011-01-09T07:44:18Z</time>
      </trkpt>
      <trkpt lat="43.49622" lon="6.93296">
        <ele>95</ele>
        <time>2011-01-09T07:44:20Z</time>
      </trkpt>
      <trkpt lat="43.49623" lon="6.93293">
        <ele>96</ele>
        <time>2011-01-09T07:44:21Z</time>
      </trkpt>
      <trkpt lat="43.49624" lon="6.93289">
        <ele>96</ele>
        <time>2011-01-09T07:44:22Z</time>
      </trkpt>
      <trkpt lat="43.49624" lon="6.9328">
        <ele>96</ele>
        <time>2011-01-09T07:44:25Z</time>
      </trkpt>
      <trkpt lat="43.49625" lon="6.93277">
        <ele>96</ele>
        <time>2011-01-09T07:44:26Z</time>
      </trkpt>
      <trkpt lat="43.49624" lon="6.93269">
        <ele>97</ele>
        <time>2011-01-09T07:44:29Z</time>
      </trkpt>
      <trkpt lat="43.49624" lon="6.93263">
        <ele>97</ele>
        <time>2011-01-09T07:44:31Z</time>
      </trkpt>
      <trkpt lat="43.49622" lon="6.93258">
        <ele>98</ele>
        <time>2011-01-09T07:44:33Z</time>
      </trkpt>
      <trkpt lat="43.4962" lon="6.93253">
        <ele>98</ele>
        <time>2011-01-09T07:44:35Z</time>
      </trkpt>
      <trkpt lat="43.49619" lon="6.9325">
        <ele>98</ele>
        <time>2011-01-09T07:44:36Z</time>
      </trkpt>
      <trkpt lat="43.49618" lon="6.93248">
        <ele>98</ele>
        <time>2011-01-09T07:44:37Z</time>
      </trkpt>
      <trkpt lat="43.49616" lon="6.93246">
        <ele>98</ele>
        <time>2011-01-09T07:44:38Z</time>
      </trkpt>
      <trkpt lat="43.49614" lon="6.93244">
        <ele>98</ele>
        <time>2011-01-09T07:44:39Z</time>
      </trkpt>
      <trkpt lat="43.49602" lon="6.93233">
        <ele>99</ele>
        <time>2011-01-09T07:44:45Z</time>
      </trkpt>
      <trkpt lat="43.49599" lon="6.9323">
        <ele>99</ele>
        <time>2011-01-09T07:44:47Z</time>
      </trkpt>
      <trkpt lat="43.49597" lon="6.93227">
        <ele>99</ele>
        <time>2011-01-09T07:44:48Z</time>
      </trkpt>
      <trkpt lat="43.49588" lon="6.93218">
        <ele>98</ele>
        <time>2011-01-09T07:44:52Z</time>
      </trkpt>
      <trkpt lat="43.49585" lon="6.93215">
        <ele>98</ele>
        <time>2011-01-09T07:44:53Z</time>
      </trkpt>
      <trkpt lat="43.49582" lon="6.93213">
        <ele>98</ele>
        <time>2011-01-09T07:44:54Z</time>
      </trkpt>
      <trkpt lat="43.4958" lon="6.93209">
        <ele>98</ele>
        <time>2011-01-09T07:44:55Z</time>
      </trkpt>
      <trkpt lat="43.49579" lon="6.93205">
        <ele>98</ele>
        <time>2011-01-09T07:44:56Z</time>
      </trkpt>
      <trkpt lat="43.49579" lon="6.93201">
        <ele>98</ele>
        <time>2011-01-09T07:44:57Z</time>
      </trkpt>
      <trkpt lat="43.49579" lon="6.93198">
        <ele>98</ele>
        <time>2011-01-09T07:44:58Z</time>
      </trkpt>
      <trkpt lat="43.4958" lon="6.93194">
        <ele>98</ele>
        <time>2011-01-09T07:44:59Z</time>
      </trkpt>
      <trkpt lat="43.49582" lon="6.93191">
        <ele>98</ele>
        <time>2011-01-09T07:45:00Z</time>
      </trkpt>
      <trkpt lat="43.49584" lon="6.93188">
        <ele>98</ele>
        <time>2011-01-09T07:45:01Z</time>
      </trkpt>
      <trkpt lat="43.49589" lon="6.9318">
        <ele>99</ele>
        <time>2011-01-09T07:45:04Z</time>
      </trkpt>
      <trkpt lat="43.49593" lon="6.93176">
        <ele>99</ele>
        <time>2011-01-09T07:45:06Z</time>
      </trkpt>
      <trkpt lat="43.49599" lon="6.9317">
        <ele>100</ele>
        <time>2011-01-09T07:45:09Z</time>
      </trkpt>
      <trkpt lat="43.49609" lon="6.9316">
        <ele>100</ele>
        <time>2011-01-09T07:45:14Z</time>
      </trkpt>
      <trkpt lat="43.49615" lon="6.93154">
        <ele>101</ele>
        <time>2011-01-09T07:45:17Z</time>
      </trkpt>
      <trkpt lat="43.49616" lon="6.93152">
        <ele>101</ele>
        <time>2011-01-09T07:45:18Z</time>
      </trkpt>
      <trkpt lat="43.49617" lon="6.93149">
        <ele>101</ele>
        <time>2011-01-09T07:45:19Z</time>
      </trkpt>
      <trkpt lat="43.49622" lon="6.93142">
        <ele>102</ele>
        <time>2011-01-09T07:45:22Z</time>
      </trkpt>
      <trkpt lat="43.49624" lon="6.93137">
        <ele>102</ele>
        <time>2011-01-09T07:45:24Z</time>
      </trkpt>
      <trkpt lat="43.49628" lon="6.93129">
        <ele>103</ele>
        <time>2011-01-09T07:45:27Z</time>
      </trkpt>
      <trkpt lat="43.49629" lon="6.93126">
        <ele>103</ele>
        <time>2011-01-09T07:45:28Z</time>
      </trkpt>
      <trkpt lat="43.4963" lon="6.93124">
        <ele>103</ele>
        <time>2011-01-09T07:45:29Z</time>
      </trkpt>
      <trkpt lat="43.49632" lon="6.93115">
        <ele>103</ele>
        <time>2011-01-09T07:45:32Z</time>
      </trkpt>
      <trkpt lat="43.49633" lon="6.93106">
        <ele>104</ele>
        <time>2011-01-09T07:45:35Z</time>
      </trkpt>
      <trkpt lat="43.49634" lon="6.93103">
        <ele>104</ele>
        <time>2011-01-09T07:45:36Z</time>
      </trkpt>
      <trkpt lat="43.49634" lon="6.931">
        <ele>104</ele>
        <time>2011-01-09T07:45:37Z</time>
      </trkpt>
      <trkpt lat="43.49636" lon="6.93087">
        <ele>105</ele>
        <time>2011-01-09T07:45:41Z</time>
      </trkpt>
      <trkpt lat="43.49637" lon="6.93075">
        <ele>106</ele>
        <time>2011-01-09T07:45:45Z</time>
      </trkpt>
      <trkpt lat="43.49637" lon="6.93072">
        <ele>106</ele>
        <time>2011-01-09T07:45:46Z</time>
      </trkpt>
      <trkpt lat="43.49637" lon="6.93069">
        <ele>106</ele>
        <time>2011-01-09T07:45:47Z</time>
      </trkpt>
      <trkpt lat="43.49637" lon="6.93066">
        <ele>106</ele>
        <time>2011-01-09T07:45:48Z</time>
      </trkpt>
      <trkpt lat="43.49636" lon="6.93061">
        <ele>107</ele>
        <time>2011-01-09T07:45:50Z</time>
      </trkpt>
      <trkpt lat="43.49634" lon="6.93056">
        <ele>107</ele>
        <time>2011-01-09T07:45:52Z</time>
      </trkpt>
      <trkpt lat="43.49633" lon="6.93053">
        <ele>107</ele>
        <time>2011-01-09T07:45:53Z</time>
      </trkpt>
      <trkpt lat="43.49632" lon="6.93051">
        <ele>108</ele>
        <time>2011-01-09T07:45:54Z</time>
      </trkpt>
      <trkpt lat="43.49628" lon="6.93048">
        <ele>108</ele>
        <time>2011-01-09T07:45:56Z</time>
      </trkpt>
      <trkpt lat="43.49624" lon="6.93045">
        <ele>108</ele>
        <time>2011-01-09T07:45:58Z</time>
      </trkpt>
      <trkpt lat="43.49619" lon="6.93041">
        <ele>109</ele>
        <time>2011-01-09T07:46:01Z</time>
      </trkpt>
      <trkpt lat="43.4961" lon="6.93037">
        <ele>109</ele>
        <time>2011-01-09T07:46:05Z</time>
      </trkpt>
      <trkpt lat="43.49601" lon="6.93031">
        <ele>110</ele>
        <time>2011-01-09T07:46:09Z</time>
      </trkpt>
      <trkpt lat="43.49599" lon="6.93029">
        <ele>110</ele>
        <time>2011-01-09T07:46:10Z</time>
      </trkpt>
      <trkpt lat="43.49597" lon="6.93027">
        <ele>110</ele>
        <time>2011-01-09T07:46:11Z</time>
      </trkpt>
      <trkpt lat="43.49595" lon="6.93024">
        <ele>110</ele>
        <time>2011-01-09T07:46:12Z</time>
      </trkpt>
      <trkpt lat="43.49594" lon="6.93021">
        <ele>110</ele>
        <time>2011-01-09T07:46:13Z</time>
      </trkpt>
      <trkpt lat="43.49592" lon="6.93017">
        <ele>110</ele>
        <time>2011-01-09T07:46:14Z</time>
      </trkpt>
      <trkpt lat="43.49592" lon="6.93014">
        <ele>110</ele>
        <time>2011-01-09T07:46:15Z</time>
      </trkpt>
      <trkpt lat="43.49592" lon="6.9301">
        <ele>111</ele>
        <time>2011-01-09T07:46:16Z</time>
      </trkpt>
      <trkpt lat="43.49592" lon="6.93007">
        <ele>111</ele>
        <time>2011-01-09T07:46:17Z</time>
      </trkpt>
      <trkpt lat="43.49593" lon="6.93003">
        <ele>111</ele>
        <time>2011-01-09T07:46:18Z</time>
      </trkpt>
      <trkpt lat="43.49595" lon="6.92997">
        <ele>111</ele>
        <time>2011-01-09T07:46:20Z</time>
      </trkpt>
      <trkpt lat="43.49597" lon="6.92991">
        <ele>112</ele>
        <time>2011-01-09T07:46:22Z</time>
      </trkpt>
      <trkpt lat="43.49597" lon="6.92988">
        <ele>112</ele>
        <time>2011-01-09T07:46:23Z</time>
      </trkpt>
      <trkpt lat="43.49597" lon="6.92985">
        <ele>112</ele>
        <time>2011-01-09T07:46:24Z</time>
      </trkpt>
      <trkpt lat="43.49596" lon="6.92982">
        <ele>112</ele>
        <time>2011-01-09T07:46:25Z</time>
      </trkpt>
      <trkpt lat="43.49595" lon="6.9298">
        <ele>113</ele>
        <time>2011-01-09T07:46:26Z</time>
      </trkpt>
      <trkpt lat="43.4959" lon="6.92969">
        <ele>113</ele>
        <time>2011-01-09T07:46:30Z</time>
      </trkpt>
      <trkpt lat="43.49588" lon="6.92964">
        <ele>113</ele>
        <time>2011-01-09T07:46:32Z</time>
      </trkpt>
      <trkpt lat="43.49587" lon="6.92961">
        <ele>113</ele>
        <time>2011-01-09T07:46:33Z</time>
      </trkpt>
      <trkpt lat="43.49582" lon="6.9295">
        <ele>114</ele>
        <time>2011-01-09T07:46:37Z</time>
      </trkpt>
      <trkpt lat="43.49577" lon="6.9294">
        <ele>115</ele>
        <time>2011-01-09T07:46:41Z</time>
      </trkpt>
      <trkpt lat="43.49569" lon="6.92918">
        <ele>117</ele>
        <time>2011-01-09T07:46:49Z</time>
      </trkpt>
      <trkpt lat="43.49567" lon="6.92913">
        <ele>117</ele>
        <time>2011-01-09T07:46:51Z</time>
      </trkpt>
      <trkpt lat="43.49559" lon="6.92902">
        <ele>118</ele>
        <time>2011-01-09T07:46:56Z</time>
      </trkpt>
      <trkpt lat="43.49556" lon="6.92898">
        <ele>119</ele>
        <time>2011-01-09T07:46:58Z</time>
      </trkpt>
      <trkpt lat="43.49553" lon="6.92894">
        <ele>119</ele>
        <time>2011-01-09T07:47:00Z</time>
      </trkpt>
      <trkpt lat="43.49552" lon="6.92892">
        <ele>119</ele>
        <time>2011-01-09T07:47:01Z</time>
      </trkpt>
      <trkpt lat="43.49548" lon="6.92888">
        <ele>119</ele>
        <time>2011-01-09T07:47:03Z</time>
      </trkpt>
      <trkpt lat="43.49547" lon="6.92886">
        <ele>119</ele>
        <time>2011-01-09T07:47:04Z</time>
      </trkpt>
      <trkpt lat="43.49545" lon="6.92884">
        <ele>119</ele>
        <time>2011-01-09T07:47:05Z</time>
      </trkpt>
      <trkpt lat="43.49544" lon="6.92882">
        <ele>120</ele>
        <time>2011-01-09T07:47:06Z</time>
      </trkpt>
      <trkpt lat="43.49541" lon="6.92877">
        <ele>120</ele>
        <time>2011-01-09T07:47:08Z</time>
      </trkpt>
      <trkpt lat="43.49537" lon="6.92871">
        <ele>121</ele>
        <time>2011-01-09T07:47:11Z</time>
      </trkpt>
      <trkpt lat="43.49534" lon="6.92866">
        <ele>121</ele>
        <time>2011-01-09T07:47:13Z</time>
      </trkpt>
      <trkpt lat="43.49531" lon="6.92862">
        <ele>121</ele>
        <time>2011-01-09T07:47:15Z</time>
      </trkpt>
      <trkpt lat="43.49528" lon="6.92859">
        <ele>122</ele>
        <time>2011-01-09T07:47:17Z</time>
      </trkpt>
      <trkpt lat="43.49525" lon="6.92855">
        <ele>122</ele>
        <time>2011-01-09T07:47:19Z</time>
      </trkpt>
      <trkpt lat="43.49518" lon="6.92848">
        <ele>123</ele>
        <time>2011-01-09T07:47:23Z</time>
      </trkpt>
      <trkpt lat="43.49514" lon="6.92845">
        <ele>123</ele>
        <time>2011-01-09T07:47:25Z</time>
      </trkpt>
      <trkpt lat="43.49511" lon="6.92841">
        <ele>123</ele>
        <time>2011-01-09T07:47:27Z</time>
      </trkpt>
      <trkpt lat="43.49509" lon="6.92839">
        <ele>123</ele>
        <time>2011-01-09T07:47:28Z</time>
      </trkpt>
      <trkpt lat="43.49508" lon="6.92836">
        <ele>123</ele>
        <time>2011-01-09T07:47:29Z</time>
      </trkpt>
      <trkpt lat="43.49507" lon="6.92834">
        <ele>124</ele>
        <time>2011-01-09T07:47:30Z</time>
      </trkpt>
      <trkpt lat="43.49506" lon="6.92831">
        <ele>124</ele>
        <time>2011-01-09T07:47:31Z</time>
      </trkpt>
      <trkpt lat="43.49505" lon="6.92827">
        <ele>124</ele>
        <time>2011-01-09T07:47:32Z</time>
      </trkpt>
      <trkpt lat="43.49505" lon="6.92824">
        <ele>124</ele>
        <time>2011-01-09T07:47:33Z</time>
      </trkpt>
      <trkpt lat="43.49505" lon="6.9282">
        <ele>124</ele>
        <time>2011-01-09T07:47:34Z</time>
      </trkpt>
      <trkpt lat="43.49505" lon="6.92817">
        <ele>124</ele>
        <time>2011-01-09T07:47:35Z</time>
      </trkpt>
      <trkpt lat="43.49504" lon="6.92814">
        <ele>124</ele>
        <time>2011-01-09T07:47:36Z</time>
      </trkpt>
      <trkpt lat="43.49503" lon="6.92805">
        <ele>125</ele>
        <time>2011-01-09T07:47:39Z</time>
      </trkpt>
      <trkpt lat="43.49501" lon="6.92799">
        <ele>125</ele>
        <time>2011-01-09T07:47:41Z</time>
      </trkpt>
      <trkpt lat="43.49499" lon="6.92794">
        <ele>125</ele>
        <time>2011-01-09T07:47:43Z</time>
      </trkpt>
      <trkpt lat="43.49498" lon="6.92792">
        <ele>125</ele>
        <time>2011-01-09T07:47:44Z</time>
      </trkpt>
      <trkpt lat="43.49496" lon="6.9279">
        <ele>125</ele>
        <time>2011-01-09T07:47:45Z</time>
      </trkpt>
      <trkpt lat="43.49493" lon="6.92783">
        <ele>126</ele>
        <time>2011-01-09T07:47:48Z</time>
      </trkpt>
      <trkpt lat="43.49491" lon="6.9278">
        <ele>126</ele>
        <time>2011-01-09T07:47:50Z</time>
      </trkpt>
      <trkpt lat="43.49489" lon="6.92776">
        <ele>126</ele>
        <time>2011-01-09T07:47:52Z</time>
      </trkpt>
      <trkpt lat="43.49488" lon="6.9277">
        <ele>126</ele>
        <time>2011-01-09T07:47:54Z</time>
      </trkpt>
      <trkpt lat="43.49487" lon="6.92765">
        <ele>126</ele>
        <time>2011-01-09T07:47:56Z</time>
      </trkpt>
      <trkpt lat="43.49486" lon="6.92759">
        <ele>126</ele>
        <time>2011-01-09T07:47:58Z</time>
      </trkpt>
      <trkpt lat="43.49485" lon="6.92757">
        <ele>126</ele>
        <time>2011-01-09T07:47:59Z</time>
      </trkpt>
      <trkpt lat="43.49484" lon="6.92755">
        <ele>127</ele>
        <time>2011-01-09T07:48:00Z</time>
      </trkpt>
      <trkpt lat="43.49481" lon="6.92748">
        <ele>127</ele>
        <time>2011-01-09T07:48:03Z</time>
      </trkpt>
      <trkpt lat="43.49476" lon="6.92739">
        <ele>127</ele>
        <time>2011-01-09T07:48:07Z</time>
      </trkpt>
      <trkpt lat="43.49475" lon="6.92737">
        <ele>128</ele>
        <time>2011-01-09T07:48:08Z</time>
      </trkpt>
      <trkpt lat="43.49475" lon="6.92734">
        <ele>128</ele>
        <time>2011-01-09T07:48:09Z</time>
      </trkpt>
      <trkpt lat="43.49473" lon="6.92727">
        <ele>128</ele>
        <time>2011-01-09T07:48:12Z</time>
      </trkpt>
      <trkpt lat="43.49471" lon="6.92716">
        <ele>129</ele>
        <time>2011-01-09T07:48:16Z</time>
      </trkpt>
      <trkpt lat="43.4947" lon="6.92708">
        <ele>129</ele>
        <time>2011-01-09T07:48:19Z</time>
      </trkpt>
      <trkpt lat="43.4947" lon="6.92699">
        <ele>129</ele>
        <time>2011-01-09T07:48:22Z</time>
      </trkpt>
      <trkpt lat="43.4947" lon="6.92694">
        <ele>130</ele>
        <time>2011-01-09T07:48:24Z</time>
      </trkpt>
      <trkpt lat="43.4947" lon="6.92691">
        <ele>130</ele>
        <time>2011-01-09T07:48:25Z</time>
      </trkpt>
      <trkpt lat="43.4947" lon="6.92688">
        <ele>130</ele>
        <time>2011-01-09T07:48:26Z</time>
      </trkpt>
      <trkpt lat="43.49471" lon="6.92683">
        <ele>130</ele>
        <time>2011-01-09T07:48:28Z</time>
      </trkpt>
      <trkpt lat="43.49471" lon="6.9268">
        <ele>130</ele>
        <time>2011-01-09T07:48:29Z</time>
      </trkpt>
      <trkpt lat="43.49473" lon="6.92673">
        <ele>131</ele>
        <time>2011-01-09T07:48:32Z</time>
      </trkpt>
      <trkpt lat="43.49474" lon="6.9267">
        <ele>131</ele>
        <time>2011-01-09T07:48:33Z</time>
      </trkpt>
      <trkpt lat="43.49475" lon="6.92665">
        <ele>131</ele>
        <time>2011-01-09T07:48:35Z</time>
      </trkpt>
      <trkpt lat="43.49475" lon="6.92663">
        <ele>131</ele>
        <time>2011-01-09T07:48:36Z</time>
      </trkpt>
      <trkpt lat="43.49476" lon="6.9266">
        <ele>131</ele>
        <time>2011-01-09T07:48:37Z</time>
      </trkpt>
      <trkpt lat="43.49476" lon="6.92655">
        <ele>132</ele>
        <time>2011-01-09T07:48:39Z</time>
      </trkpt>
      <trkpt lat="43.49476" lon="6.92646">
        <ele>132</ele>
        <time>2011-01-09T07:48:42Z</time>
      </trkpt>
      <trkpt lat="43.49476" lon="6.92641">
        <ele>132</ele>
        <time>2011-01-09T07:48:44Z</time>
      </trkpt>
      <trkpt lat="43.49475" lon="6.92635">
        <ele>133</ele>
        <time>2011-01-09T07:48:46Z</time>
      </trkpt>
      <trkpt lat="43.49474" lon="6.92633">
        <ele>133</ele>
        <time>2011-01-09T07:48:47Z</time>
      </trkpt>
      <trkpt lat="43.49473" lon="6.92627">
        <ele>133</ele>
        <time>2011-01-09T07:48:49Z</time>
      </trkpt>
      <trkpt lat="43.49472" lon="6.92624">
        <ele>133</ele>
        <time>2011-01-09T07:48:50Z</time>
      </trkpt>
      <trkpt lat="43.4947" lon="6.92617">
        <ele>134</ele>
        <time>2011-01-09T07:48:53Z</time>
      </trkpt>
      <trkpt lat="43.49468" lon="6.92609">
        <ele>134</ele>
        <time>2011-01-09T07:48:56Z</time>
      </trkpt>
      <trkpt lat="43.49466" lon="6.92603">
        <ele>134</ele>
        <time>2011-01-09T07:48:58Z</time>
      </trkpt>
      <trkpt lat="43.49463" lon="6.92593">
        <ele>135</ele>
        <time>2011-01-09T07:49:02Z</time>
      </trkpt>
      <trkpt lat="43.49462" lon="6.9259">
        <ele>135</ele>
        <time>2011-01-09T07:49:03Z</time>
      </trkpt>
      <trkpt lat="43.4946" lon="6.92585">
        <ele>136</ele>
        <time>2011-01-09T07:49:05Z</time>
      </trkpt>
      <trkpt lat="43.49457" lon="6.92581">
        <ele>136</ele>
        <time>2011-01-09T07:49:07Z</time>
      </trkpt>
      <trkpt lat="43.49452" lon="6.92574">
        <ele>137</ele>
        <time>2011-01-09T07:49:10Z</time>
      </trkpt>
      <trkpt lat="43.49448" lon="6.92567">
        <ele>137</ele>
        <time>2011-01-09T07:49:13Z</time>
      </trkpt>
      <trkpt lat="43.49447" lon="6.92565">
        <ele>138</ele>
        <time>2011-01-09T07:49:14Z</time>
      </trkpt>
      <trkpt lat="43.49444" lon="6.9256">
        <ele>138</ele>
        <time>2011-01-09T07:49:16Z</time>
      </trkpt>
      <trkpt lat="43.49441" lon="6.92552">
        <ele>139</ele>
        <time>2011-01-09T07:49:19Z</time>
      </trkpt>
      <trkpt lat="43.4944" lon="6.92547">
        <ele>139</ele>
        <time>2011-01-09T07:49:21Z</time>
      </trkpt>
      <trkpt lat="43.49439" lon="6.92544">
        <ele>139</ele>
        <time>2011-01-09T07:49:22Z</time>
      </trkpt>
      <trkpt lat="43.49437" lon="6.92535">
        <ele>140</ele>
        <time>2011-01-09T07:49:25Z</time>
      </trkpt>
      <trkpt lat="43.49436" lon="6.92532">
        <ele>140</ele>
        <time>2011-01-09T07:49:26Z</time>
      </trkpt>
      <trkpt lat="43.49433" lon="6.92515">
        <ele>141</ele>
        <time>2011-01-09T07:49:32Z</time>
      </trkpt>
      <trkpt lat="43.49432" lon="6.92506">
        <ele>141</ele>
        <time>2011-01-09T07:49:35Z</time>
      </trkpt>
      <trkpt lat="43.49432" lon="6.925">
        <ele>141</ele>
        <time>2011-01-09T07:49:37Z</time>
      </trkpt>
      <trkpt lat="43.49431" lon="6.92495">
        <ele>141</ele>
        <time>2011-01-09T07:49:39Z</time>
      </trkpt>
      <trkpt lat="43.49431" lon="6.92492">
        <ele>141</ele>
        <time>2011-01-09T07:49:40Z</time>
      </trkpt>
      <trkpt lat="43.4943" lon="6.92482">
        <ele>142</ele>
        <time>2011-01-09T07:49:43Z</time>
      </trkpt>
      <trkpt lat="43.49429" lon="6.92479">
        <ele>142</ele>
        <time>2011-01-09T07:49:44Z</time>
      </trkpt>
      <trkpt lat="43.49427" lon="6.92461">
        <ele>143</ele>
        <time>2011-01-09T07:49:50Z</time>
      </trkpt>
      <trkpt lat="43.49427" lon="6.92458">
        <ele>143</ele>
        <time>2011-01-09T07:49:51Z</time>
      </trkpt>
      <trkpt lat="43.49425" lon="6.92447">
        <ele>144</ele>
        <time>2011-01-09T07:49:55Z</time>
      </trkpt>
      <trkpt lat="43.49425" lon="6.92444">
        <ele>144</ele>
        <time>2011-01-09T07:49:56Z</time>
      </trkpt>
      <trkpt lat="43.49425" lon="6.92441">
        <ele>144</ele>
        <time>2011-01-09T07:49:57Z</time>
      </trkpt>
      <trkpt lat="43.49426" lon="6.92439">
        <ele>144</ele>
        <time>2011-01-09T07:49:58Z</time>
      </trkpt>
      <trkpt lat="43.49428" lon="6.92437">
        <ele>145</ele>
        <time>2011-01-09T07:49:59Z</time>
      </trkpt>
      <trkpt lat="43.4943" lon="6.92437">
        <ele>145</ele>
        <time>2011-01-09T07:50:00Z</time>
      </trkpt>
      <trkpt lat="43.49432" lon="6.92438">
        <ele>145</ele>
        <time>2011-01-09T07:50:01Z</time>
      </trkpt>
      <trkpt lat="43.49433" lon="6.9244">
        <ele>145</ele>
        <time>2011-01-09T07:50:02Z</time>
      </trkpt>
      <trkpt lat="43.49433" lon="6.92444">
        <ele>145</ele>
        <time>2011-01-09T07:50:03Z</time>
      </trkpt>
      <trkpt lat="43.49433" lon="6.92447">
        <ele>145</ele>
        <time>2011-01-09T07:50:04Z</time>
      </trkpt>
      <trkpt lat="43.49433" lon="6.92454">
        <ele>145</ele>
        <time>2011-01-09T07:50:06Z</time>
      </trkpt>
      <trkpt lat="43.49434" lon="6.92461">
        <ele>145</ele>
        <time>2011-01-09T07:50:08Z</time>
      </trkpt>
      <trkpt lat="43.49435" lon="6.92468">
        <ele>146</ele>
        <time>2011-01-09T07:50:10Z</time>
      </trkpt>
      <trkpt lat="43.49437" lon="6.92478">
        <ele>146</ele>
        <time>2011-01-09T07:50:13Z</time>
      </trkpt>
      <trkpt lat="43.4944" lon="6.92489">
        <ele>146</ele>
        <time>2011-01-09T07:50:16Z</time>
      </trkpt>
      <trkpt lat="43.49442" lon="6.925">
        <ele>146</ele>
        <time>2011-01-09T07:50:19Z</time>
      </trkpt>
      <trkpt lat="43.49442" lon="6.92503">
        <ele>146</ele>
        <time>2011-01-09T07:50:20Z</time>
      </trkpt>
      <trkpt lat="43.49444" lon="6.92511">
        <ele>146</ele>
        <time>2011-01-09T07:50:22Z</time>
      </trkpt>
      <trkpt lat="43.49445" lon="6.92514">
        <ele>146</ele>
        <time>2011-01-09T07:50:23Z</time>
      </trkpt>
      <trkpt lat="43.49446" lon="6.92518">
        <ele>146</ele>
        <time>2011-01-09T07:50:24Z</time>
      </trkpt>
      <trkpt lat="43.49447" lon="6.92522">
        <ele>146</ele>
        <time>2011-01-09T07:50:25Z</time>
      </trkpt>
      <trkpt lat="43.49451" lon="6.92528">
        <ele>147</ele>
        <time>2011-01-09T07:50:27Z</time>
      </trkpt>
      <trkpt lat="43.49452" lon="6.92531">
        <ele>147</ele>
        <time>2011-01-09T07:50:28Z</time>
      </trkpt>
      <trkpt lat="43.49454" lon="6.92534">
        <ele>147</ele>
        <time>2011-01-09T07:50:29Z</time>
      </trkpt>
      <trkpt lat="43.49458" lon="6.9254">
        <ele>147</ele>
        <time>2011-01-09T07:50:31Z</time>
      </trkpt>
      <trkpt lat="43.49467" lon="6.92552">
        <ele>148</ele>
        <time>2011-01-09T07:50:36Z</time>
      </trkpt>
      <trkpt lat="43.49473" lon="6.92559">
        <ele>149</ele>
        <time>2011-01-09T07:50:39Z</time>
      </trkpt>
      <trkpt lat="43.49479" lon="6.92564">
        <ele>150</ele>
        <time>2011-01-09T07:50:42Z</time>
      </trkpt>
      <trkpt lat="43.49486" lon="6.92568">
        <ele>150</ele>
        <time>2011-01-09T07:50:45Z</time>
      </trkpt>
      <trkpt lat="43.49491" lon="6.92573">
        <ele>151</ele>
        <time>2011-01-09T07:50:48Z</time>
      </trkpt>
      <trkpt lat="43.49493" lon="6.92574">
        <ele>151</ele>
        <time>2011-01-09T07:50:49Z</time>
      </trkpt>
      <trkpt lat="43.495" lon="6.92578">
        <ele>152</ele>
        <time>2011-01-09T07:50:52Z</time>
      </trkpt>
      <trkpt lat="43.49504" lon="6.92579">
        <ele>152</ele>
        <time>2011-01-09T07:50:54Z</time>
      </trkpt>
      <trkpt lat="43.49509" lon="6.9258">
        <ele>153</ele>
        <time>2011-01-09T07:50:56Z</time>
      </trkpt>
      <trkpt lat="43.49511" lon="6.92579">
        <ele>153</ele>
        <time>2011-01-09T07:50:57Z</time>
      </trkpt>
      <trkpt lat="43.49513" lon="6.92578">
        <ele>153</ele>
        <time>2011-01-09T07:50:58Z</time>
      </trkpt>
      <trkpt lat="43.49515" lon="6.92577">
        <ele>153</ele>
        <time>2011-01-09T07:50:59Z</time>
      </trkpt>
      <trkpt lat="43.49517" lon="6.92576">
        <ele>153</ele>
        <time>2011-01-09T07:51:00Z</time>
      </trkpt>
      <trkpt lat="43.49519" lon="6.92571">
        <ele>154</ele>
        <time>2011-01-09T07:51:02Z</time>
      </trkpt>
      <trkpt lat="43.49521" lon="6.92569">
        <ele>154</ele>
        <time>2011-01-09T07:51:03Z</time>
      </trkpt>
      <trkpt lat="43.49522" lon="6.92566">
        <ele>154</ele>
        <time>2011-01-09T07:51:04Z</time>
      </trkpt>
      <trkpt lat="43.49524" lon="6.92561">
        <ele>154</ele>
        <time>2011-01-09T07:51:06Z</time>
      </trkpt>
      <trkpt lat="43.49525" lon="6.92556">
        <ele>155</ele>
        <time>2011-01-09T07:51:08Z</time>
      </trkpt>
      <trkpt lat="43.49527" lon="6.92547">
        <ele>155</ele>
        <time>2011-01-09T07:51:11Z</time>
      </trkpt>
      <trkpt lat="43.49527" lon="6.92538">
        <ele>155</ele>
        <time>2011-01-09T07:51:14Z</time>
      </trkpt>
      <trkpt lat="43.49528" lon="6.92535">
        <ele>155</ele>
        <time>2011-01-09T07:51:15Z</time>
      </trkpt>
      <trkpt lat="43.49528" lon="6.92523">
        <ele>156</ele>
        <time>2011-01-09T07:51:19Z</time>
      </trkpt>
      <trkpt lat="43.49527" lon="6.9251">
        <ele>157</ele>
        <time>2011-01-09T07:51:23Z</time>
      </trkpt>
      <trkpt lat="43.49527" lon="6.92507">
        <ele>157</ele>
        <time>2011-01-09T07:51:24Z</time>
      </trkpt>
      <trkpt lat="43.49527" lon="6.92501">
        <ele>157</ele>
        <time>2011-01-09T07:51:26Z</time>
      </trkpt>
      <trkpt lat="43.49525" lon="6.92492">
        <ele>158</ele>
        <time>2011-01-09T07:51:29Z</time>
      </trkpt>
      <trkpt lat="43.49525" lon="6.92489">
        <ele>158</ele>
        <time>2011-01-09T07:51:30Z</time>
      </trkpt>
      <trkpt lat="43.49525" lon="6.92483">
        <ele>158</ele>
        <time>2011-01-09T07:51:32Z</time>
      </trkpt>
      <trkpt lat="43.49524" lon="6.92474">
        <ele>158</ele>
        <time>2011-01-09T07:51:35Z</time>
      </trkpt>
      <trkpt lat="43.49524" lon="6.92471">
        <ele>159</ele>
        <time>2011-01-09T07:51:36Z</time>
      </trkpt>
      <trkpt lat="43.49524" lon="6.92465">
        <ele>159</ele>
        <time>2011-01-09T07:51:38Z</time>
      </trkpt>
      <trkpt lat="43.49524" lon="6.92458">
        <ele>159</ele>
        <time>2011-01-09T07:51:40Z</time>
      </trkpt>
      <trkpt lat="43.49524" lon="6.92455">
        <ele>159</ele>
        <time>2011-01-09T07:51:41Z</time>
      </trkpt>
      <trkpt lat="43.49523" lon="6.92446">
        <ele>160</ele>
        <time>2011-01-09T07:51:44Z</time>
      </trkpt>
      <trkpt lat="43.49523" lon="6.92443">
        <ele>160</ele>
        <time>2011-01-09T07:51:45Z</time>
      </trkpt>
      <trkpt lat="43.49521" lon="6.92437">
        <ele>161</ele>
        <time>2011-01-09T07:51:47Z</time>
      </trkpt>
      <trkpt lat="43.4952" lon="6.92432">
        <ele>162</ele>
        <time>2011-01-09T07:51:49Z</time>
      </trkpt>
      <trkpt lat="43.49518" lon="6.92427">
        <ele>162</ele>
        <time>2011-01-09T07:51:51Z</time>
      </trkpt>
      <trkpt lat="43.49518" lon="6.92424">
        <ele>162</ele>
        <time>2011-01-09T07:51:52Z</time>
      </trkpt>
      <trkpt lat="43.49517" lon="6.92421">
        <ele>162</ele>
        <time>2011-01-09T07:51:53Z</time>
      </trkpt>
      <trkpt lat="43.49518" lon="6.92415">
        <ele>163</ele>
        <time>2011-01-09T07:51:55Z</time>
      </trkpt>
      <trkpt lat="43.49521" lon="6.92404">
        <ele>163</ele>
        <time>2011-01-09T07:51:59Z</time>
      </trkpt>
      <trkpt lat="43.49522" lon="6.92401">
        <ele>163</ele>
        <time>2011-01-09T07:52:00Z</time>
      </trkpt>
      <trkpt lat="43.49525" lon="6.92396">
        <ele>163</ele>
        <time>2011-01-09T07:52:02Z</time>
      </trkpt>
      <trkpt lat="43.49529" lon="6.92391">
        <ele>163</ele>
        <time>2011-01-09T07:52:04Z</time>
      </trkpt>
      <trkpt lat="43.49532" lon="6.92386">
        <ele>164</ele>
        <time>2011-01-09T07:52:06Z</time>
      </trkpt>
      <trkpt lat="43.49536" lon="6.92381">
        <ele>164</ele>
        <time>2011-01-09T07:52:08Z</time>
      </trkpt>
      <trkpt lat="43.49538" lon="6.92378">
        <ele>164</ele>
        <time>2011-01-09T07:52:09Z</time>
      </trkpt>
      <trkpt lat="43.49546" lon="6.92368">
        <ele>164</ele>
        <time>2011-01-09T07:52:13Z</time>
      </trkpt>
      <trkpt lat="43.49548" lon="6.92365">
        <ele>164</ele>
        <time>2011-01-09T07:52:14Z</time>
      </trkpt>
      <trkpt lat="43.49549" lon="6.92363">
        <ele>164</ele>
        <time>2011-01-09T07:52:15Z</time>
      </trkpt>
      <trkpt lat="43.4955" lon="6.92356">
        <ele>165</ele>
        <time>2011-01-09T07:52:17Z</time>
      </trkpt>
      <trkpt lat="43.49551" lon="6.92353">
        <ele>165</ele>
        <time>2011-01-09T07:52:18Z</time>
      </trkpt>
      <trkpt lat="43.49551" lon="6.9235">
        <ele>165</ele>
        <time>2011-01-09T07:52:19Z</time>
      </trkpt>
      <trkpt lat="43.49552" lon="6.92343">
        <ele>166</ele>
        <time>2011-01-09T07:52:21Z</time>
      </trkpt>
      <trkpt lat="43.49551" lon="6.92336">
        <ele>166</ele>
        <time>2011-01-09T07:52:23Z</time>
      </trkpt>
      <trkpt lat="43.4955" lon="6.92327">
        <ele>167</ele>
        <time>2011-01-09T07:52:26Z</time>
      </trkpt>
      <trkpt lat="43.4955" lon="6.92324">
        <ele>167</ele>
        <time>2011-01-09T07:52:27Z</time>
      </trkpt>
      <trkpt lat="43.49551" lon="6.92317">
        <ele>167</ele>
        <time>2011-01-09T07:52:29Z</time>
      </trkpt>
      <trkpt lat="43.49551" lon="6.92314">
        <ele>167</ele>
        <time>2011-01-09T07:52:30Z</time>
      </trkpt>
      <trkpt lat="43.49552" lon="6.92311">
        <ele>168</ele>
        <time>2011-01-09T07:52:31Z</time>
      </trkpt>
      <trkpt lat="43.49552" lon="6.92308">
        <ele>168</ele>
        <time>2011-01-09T07:52:32Z</time>
      </trkpt>
      <trkpt lat="43.49552" lon="6.92304">
        <ele>168</ele>
        <time>2011-01-09T07:52:33Z</time>
      </trkpt>
      <trkpt lat="43.49553" lon="6.92298">
        <ele>168</ele>
        <time>2011-01-09T07:52:35Z</time>
      </trkpt>
      <trkpt lat="43.49553" lon="6.92291">
        <ele>169</ele>
        <time>2011-01-09T07:52:37Z</time>
      </trkpt>
      <trkpt lat="43.49553" lon="6.92288">
        <ele>169</ele>
        <time>2011-01-09T07:52:38Z</time>
      </trkpt>
      <trkpt lat="43.49553" lon="6.92285">
        <ele>169</ele>
        <time>2011-01-09T07:52:39Z</time>
      </trkpt>
      <trkpt lat="43.49553" lon="6.92281">
        <ele>169</ele>
        <time>2011-01-09T07:52:40Z</time>
      </trkpt>
      <trkpt lat="43.49554" lon="6.92278">
        <ele>169</ele>
        <time>2011-01-09T07:52:41Z</time>
      </trkpt>
      <trkpt lat="43.49554" lon="6.92269">
        <ele>170</ele>
        <time>2011-01-09T07:52:44Z</time>
      </trkpt>
      <trkpt lat="43.49554" lon="6.92262">
        <ele>170</ele>
        <time>2011-01-09T07:52:46Z</time>
      </trkpt>
      <trkpt lat="43.49554" lon="6.92256">
        <ele>171</ele>
        <time>2011-01-09T07:52:48Z</time>
      </trkpt>
      <trkpt lat="43.49554" lon="6.9225">
        <ele>171</ele>
        <time>2011-01-09T07:52:50Z</time>
      </trkpt>
      <trkpt lat="43.49554" lon="6.92244">
        <ele>171</ele>
        <time>2011-01-09T07:52:52Z</time>
      </trkpt>
      <trkpt lat="43.49555" lon="6.92238">
        <ele>172</ele>
        <time>2011-01-09T07:52:54Z</time>
      </trkpt>
      <trkpt lat="43.49555" lon="6.92231">
        <ele>172</ele>
        <time>2011-01-09T07:52:56Z</time>
      </trkpt>
      <trkpt lat="43.49554" lon="6.92225">
        <ele>173</ele>
        <time>2011-01-09T07:52:58Z</time>
      </trkpt>
      <trkpt lat="43.49553" lon="6.92223">
        <ele>173</ele>
        <time>2011-01-09T07:52:59Z</time>
      </trkpt>
      <trkpt lat="43.4955" lon="6.92214">
        <ele>174</ele>
        <time>2011-01-09T07:53:02Z</time>
      </trkpt>
      <trkpt lat="43.49549" lon="6.92209">
        <ele>174</ele>
        <time>2011-01-09T07:53:04Z</time>
      </trkpt>
      <trkpt lat="43.49548" lon="6.92206">
        <ele>174</ele>
        <time>2011-01-09T07:53:05Z</time>
      </trkpt>
      <trkpt lat="43.49546" lon="6.92204">
        <ele>174</ele>
        <time>2011-01-09T07:53:06Z</time>
      </trkpt>
      <trkpt lat="43.49544" lon="6.922">
        <ele>175</ele>
        <time>2011-01-09T07:53:08Z</time>
      </trkpt>
      <trkpt lat="43.4954" lon="6.92192">
        <ele>175</ele>
        <time>2011-01-09T07:53:11Z</time>
      </trkpt>
      <trkpt lat="43.49539" lon="6.92189">
        <ele>176</ele>
        <time>2011-01-09T07:53:12Z</time>
      </trkpt>
      <trkpt lat="43.49537" lon="6.92184">
        <ele>176</ele>
        <time>2011-01-09T07:53:14Z</time>
      </trkpt>
      <trkpt lat="43.49535" lon="6.92179">
        <ele>176</ele>
        <time>2011-01-09T07:53:16Z</time>
      </trkpt>
      <trkpt lat="43.49533" lon="6.92176">
        <ele>176</ele>
        <time>2011-01-09T07:53:17Z</time>
      </trkpt>
      <trkpt lat="43.49531" lon="6.92172">
        <ele>177</ele>
        <time>2011-01-09T07:53:19Z</time>
      </trkpt>
      <trkpt lat="43.49529" lon="6.9217">
        <ele>177</ele>
        <time>2011-01-09T07:53:20Z</time>
      </trkpt>
      <trkpt lat="43.49527" lon="6.92169">
        <ele>177</ele>
        <time>2011-01-09T07:53:21Z</time>
      </trkpt>
      <trkpt lat="43.49524" lon="6.92168">
        <ele>177</ele>
        <time>2011-01-09T07:53:22Z</time>
      </trkpt>
      <trkpt lat="43.49522" lon="6.92168">
        <ele>177</ele>
        <time>2011-01-09T07:53:23Z</time>
      </trkpt>
      <trkpt lat="43.49518" lon="6.92168">
        <ele>178</ele>
        <time>2011-01-09T07:53:25Z</time>
      </trkpt>
      <trkpt lat="43.49516" lon="6.92169">
        <ele>178</ele>
        <time>2011-01-09T07:53:26Z</time>
      </trkpt>
      <trkpt lat="43.49514" lon="6.92171">
        <ele>178</ele>
        <time>2011-01-09T07:53:27Z</time>
      </trkpt>
      <trkpt lat="43.49512" lon="6.92173">
        <ele>178</ele>
        <time>2011-01-09T07:53:28Z</time>
      </trkpt>
      <trkpt lat="43.49509" lon="6.92177">
        <ele>179</ele>
        <time>2011-01-09T07:53:30Z</time>
      </trkpt>
      <trkpt lat="43.49506" lon="6.92181">
        <ele>179</ele>
        <time>2011-01-09T07:53:32Z</time>
      </trkpt>
      <trkpt lat="43.49504" lon="6.92184">
        <ele>179</ele>
        <time>2011-01-09T07:53:33Z</time>
      </trkpt>
      <trkpt lat="43.49501" lon="6.92188">
        <ele>179</ele>
        <time>2011-01-09T07:53:35Z</time>
      </trkpt>
      <trkpt lat="43.495" lon="6.9219">
        <ele>180</ele>
        <time>2011-01-09T07:53:36Z</time>
      </trkpt>
      <trkpt lat="43.49498" lon="6.92191">
        <ele>179</ele>
        <time>2011-01-09T07:53:37Z</time>
      </trkpt>
      <trkpt lat="43.49495" lon="6.92192">
        <ele>180</ele>
        <time>2011-01-09T07:53:38Z</time>
      </trkpt>
      <trkpt lat="43.49493" lon="6.92191">
        <ele>180</ele>
        <time>2011-01-09T07:53:39Z</time>
      </trkpt>
      <trkpt lat="43.49491" lon="6.9219">
        <ele>180</ele>
        <time>2011-01-09T07:53:40Z</time>
      </trkpt>
      <trkpt lat="43.4949" lon="6.92188">
        <ele>180</ele>
        <time>2011-01-09T07:53:41Z</time>
      </trkpt>
      <trkpt lat="43.49489" lon="6.92185">
        <ele>180</ele>
        <time>2011-01-09T07:53:42Z</time>
      </trkpt>
      <trkpt lat="43.49489" lon="6.92182">
        <ele>181</ele>
        <time>2011-01-09T07:53:43Z</time>
      </trkpt>
      <trkpt lat="43.49488" lon="6.92179">
        <ele>181</ele>
        <time>2011-01-09T07:53:44Z</time>
      </trkpt>
      <trkpt lat="43.49488" lon="6.92176">
        <ele>181</ele>
        <time>2011-01-09T07:53:45Z</time>
      </trkpt>
      <trkpt lat="43.49489" lon="6.9217">
        <ele>182</ele>
        <time>2011-01-09T07:53:47Z</time>
      </trkpt>
      <trkpt lat="43.49488" lon="6.92164">
        <ele>182</ele>
        <time>2011-01-09T07:53:49Z</time>
      </trkpt>
      <trkpt lat="43.49486" lon="6.92153">
        <ele>183</ele>
        <time>2011-01-09T07:53:53Z</time>
      </trkpt>
      <trkpt lat="43.49486" lon="6.9215">
        <ele>183</ele>
        <time>2011-01-09T07:53:54Z</time>
      </trkpt>
      <trkpt lat="43.49483" lon="6.92142">
        <ele>184</ele>
        <time>2011-01-09T07:53:57Z</time>
      </trkpt>
      <trkpt lat="43.49482" lon="6.92137">
        <ele>184</ele>
        <time>2011-01-09T07:53:59Z</time>
      </trkpt>
      <trkpt lat="43.49482" lon="6.92134">
        <ele>184</ele>
        <time>2011-01-09T07:54:00Z</time>
      </trkpt>
      <trkpt lat="43.49481" lon="6.92131">
        <ele>184</ele>
        <time>2011-01-09T07:54:01Z</time>
      </trkpt>
      <trkpt lat="43.49479" lon="6.92126">
        <ele>185</ele>
        <time>2011-01-09T07:54:03Z</time>
      </trkpt>
      <trkpt lat="43.49478" lon="6.92123">
        <ele>185</ele>
        <time>2011-01-09T07:54:04Z</time>
      </trkpt>
      <trkpt lat="43.49477" lon="6.92121">
        <ele>185</ele>
        <time>2011-01-09T07:54:05Z</time>
      </trkpt>
      <trkpt lat="43.49473" lon="6.92117">
        <ele>185</ele>
        <time>2011-01-09T07:54:07Z</time>
      </trkpt>
      <trkpt lat="43.4947" lon="6.92114">
        <ele>185</ele>
        <time>2011-01-09T07:54:09Z</time>
      </trkpt>
      <trkpt lat="43.49468" lon="6.92113">
        <ele>186</ele>
        <time>2011-01-09T07:54:10Z</time>
      </trkpt>
      <trkpt lat="43.49465" lon="6.92112">
        <ele>186</ele>
        <time>2011-01-09T07:54:11Z</time>
      </trkpt>
      <trkpt lat="43.49461" lon="6.92111">
        <ele>186</ele>
        <time>2011-01-09T07:54:13Z</time>
      </trkpt>
      <trkpt lat="43.49457" lon="6.9211">
        <ele>187</ele>
        <time>2011-01-09T07:54:15Z</time>
      </trkpt>
      <trkpt lat="43.49451" lon="6.92109">
        <ele>187</ele>
        <time>2011-01-09T07:54:18Z</time>
      </trkpt>
      <trkpt lat="43.49446" lon="6.92108">
        <ele>187</ele>
        <time>2011-01-09T07:54:20Z</time>
      </trkpt>
      <trkpt lat="43.49444" lon="6.92107">
        <ele>187</ele>
        <time>2011-01-09T07:54:21Z</time>
      </trkpt>
      <trkpt lat="43.49443" lon="6.92105">
        <ele>188</ele>
        <time>2011-01-09T07:54:22Z</time>
      </trkpt>
      <trkpt lat="43.49441" lon="6.92103">
        <ele>188</ele>
        <time>2011-01-09T07:54:23Z</time>
      </trkpt>
      <trkpt lat="43.49438" lon="6.92099">
        <ele>188</ele>
        <time>2011-01-09T07:54:25Z</time>
      </trkpt>
      <trkpt lat="43.49437" lon="6.92097">
        <ele>189</ele>
        <time>2011-01-09T07:54:26Z</time>
      </trkpt>
      <trkpt lat="43.49436" lon="6.92094">
        <ele>189</ele>
        <time>2011-01-09T07:54:27Z</time>
      </trkpt>
      <trkpt lat="43.49435" lon="6.92092">
        <ele>189</ele>
        <time>2011-01-09T07:54:28Z</time>
      </trkpt>
      <trkpt lat="43.49432" lon="6.92087">
        <ele>189</ele>
        <time>2011-01-09T07:54:30Z</time>
      </trkpt>
      <trkpt lat="43.49429" lon="6.92082">
        <ele>189</ele>
        <time>2011-01-09T07:54:32Z</time>
      </trkpt>
      <trkpt lat="43.49425" lon="6.92075">
        <ele>189</ele>
        <time>2011-01-09T07:54:35Z</time>
      </trkpt>
      <trkpt lat="43.49423" lon="6.9207">
        <ele>190</ele>
        <time>2011-01-09T07:54:37Z</time>
      </trkpt>
      <trkpt lat="43.49421" lon="6.92062">
        <ele>190</ele>
        <time>2011-01-09T07:54:40Z</time>
      </trkpt>
      <trkpt lat="43.4942" lon="6.92057">
        <ele>190</ele>
        <time>2011-01-09T07:54:42Z</time>
      </trkpt>
      <trkpt lat="43.49419" lon="6.92047">
        <ele>190</ele>
        <time>2011-01-09T07:54:45Z</time>
      </trkpt>
      <trkpt lat="43.49419" lon="6.92044">
        <ele>190</ele>
        <time>2011-01-09T07:54:46Z</time>
      </trkpt>
      <trkpt lat="43.49419" lon="6.92041">
        <ele>190</ele>
        <time>2011-01-09T07:54:47Z</time>
      </trkpt>
      <trkpt lat="43.4942" lon="6.92038">
        <ele>190</ele>
        <time>2011-01-09T07:54:48Z</time>
      </trkpt>
      <trkpt lat="43.49425" lon="6.92028">
        <ele>191</ele>
        <time>2011-01-09T07:54:52Z</time>
      </trkpt>
      <trkpt lat="43.49429" lon="6.92024">
        <ele>191</ele>
        <time>2011-01-09T07:54:54Z</time>
      </trkpt>
      <trkpt lat="43.4943" lon="6.92021">
        <ele>191</ele>
        <time>2011-01-09T07:54:55Z</time>
      </trkpt>
      <trkpt lat="43.49436" lon="6.92016">
        <ele>192</ele>
        <time>2011-01-09T07:54:58Z</time>
      </trkpt>
      <trkpt lat="43.49439" lon="6.92012">
        <ele>192</ele>
        <time>2011-01-09T07:55:00Z</time>
      </trkpt>
      <trkpt lat="43.49443" lon="6.92009">
        <ele>193</ele>
        <time>2011-01-09T07:55:02Z</time>
      </trkpt>
      <trkpt lat="43.49447" lon="6.92006">
        <ele>193</ele>
        <time>2011-01-09T07:55:04Z</time>
      </trkpt>
      <trkpt lat="43.49453" lon="6.92003">
        <ele>193</ele>
        <time>2011-01-09T07:55:07Z</time>
      </trkpt>
      <trkpt lat="43.49457" lon="6.92">
        <ele>194</ele>
        <time>2011-01-09T07:55:09Z</time>
      </trkpt>
      <trkpt lat="43.49459" lon="6.91998">
        <ele>194</ele>
        <time>2011-01-09T07:55:10Z</time>
      </trkpt>
      <trkpt lat="43.49465" lon="6.91994">
        <ele>194</ele>
        <time>2011-01-09T07:55:13Z</time>
      </trkpt>
      <trkpt lat="43.49468" lon="6.9199">
        <ele>195</ele>
        <time>2011-01-09T07:55:15Z</time>
      </trkpt>
      <trkpt lat="43.49472" lon="6.91986">
        <ele>195</ele>
        <time>2011-01-09T07:55:17Z</time>
      </trkpt>
      <trkpt lat="43.49475" lon="6.91982">
        <ele>195</ele>
        <time>2011-01-09T07:55:19Z</time>
      </trkpt>
      <trkpt lat="43.4948" lon="6.91972">
        <ele>196</ele>
        <time>2011-01-09T07:55:23Z</time>
      </trkpt>
      <trkpt lat="43.49486" lon="6.91959">
        <ele>197</ele>
        <time>2011-01-09T07:55:28Z</time>
      </trkpt>
      <trkpt lat="43.49487" lon="6.91956">
        <ele>197</ele>
        <time>2011-01-09T07:55:29Z</time>
      </trkpt>
      <trkpt lat="43.4949" lon="6.91952">
        <ele>197</ele>
        <time>2011-01-09T07:55:31Z</time>
      </trkpt>
      <trkpt lat="43.49492" lon="6.9195">
        <ele>197</ele>
        <time>2011-01-09T07:55:32Z</time>
      </trkpt>
      <trkpt lat="43.49494" lon="6.91948">
        <ele>198</ele>
        <time>2011-01-09T07:55:33Z</time>
      </trkpt>
      <trkpt lat="43.49496" lon="6.91947">
        <ele>198</ele>
        <time>2011-01-09T07:55:34Z</time>
      </trkpt>
      <trkpt lat="43.49498" lon="6.91947">
        <ele>198</ele>
        <time>2011-01-09T07:55:35Z</time>
      </trkpt>
      <trkpt lat="43.49501" lon="6.91947">
        <ele>198</ele>
        <time>2011-01-09T07:55:36Z</time>
      </trkpt>
      <trkpt lat="43.49503" lon="6.91948">
        <ele>198</ele>
        <time>2011-01-09T07:55:37Z</time>
      </trkpt>
      <trkpt lat="43.49513" lon="6.91955">
        <ele>200</ele>
        <time>2011-01-09T07:55:42Z</time>
      </trkpt>
      <trkpt lat="43.49515" lon="6.91956">
        <ele>200</ele>
        <time>2011-01-09T07:55:43Z</time>
      </trkpt>
      <trkpt lat="43.49519" lon="6.91958">
        <ele>200</ele>
        <time>2011-01-09T07:55:45Z</time>
      </trkpt>
      <trkpt lat="43.49521" lon="6.91958">
        <ele>200</ele>
        <time>2011-01-09T07:55:46Z</time>
      </trkpt>
      <trkpt lat="43.49525" lon="6.91957">
        <ele>200</ele>
        <time>2011-01-09T07:55:48Z</time>
      </trkpt>
      <trkpt lat="43.49527" lon="6.91956">
        <ele>201</ele>
        <time>2011-01-09T07:55:49Z</time>
      </trkpt>
      <trkpt lat="43.49529" lon="6.91955">
        <ele>201</ele>
        <time>2011-01-09T07:55:50Z</time>
      </trkpt>
      <trkpt lat="43.49531" lon="6.91953">
        <ele>201</ele>
        <time>2011-01-09T07:55:51Z</time>
      </trkpt>
      <trkpt lat="43.49534" lon="6.91949">
        <ele>201</ele>
        <time>2011-01-09T07:55:53Z</time>
      </trkpt>
      <trkpt lat="43.49536" lon="6.91944">
        <ele>202</ele>
        <time>2011-01-09T07:55:55Z</time>
      </trkpt>
      <trkpt lat="43.49538" lon="6.91941">
        <ele>202</ele>
        <time>2011-01-09T07:55:56Z</time>
      </trkpt>
      <trkpt lat="43.4954" lon="6.91933">
        <ele>202</ele>
        <time>2011-01-09T07:55:59Z</time>
      </trkpt>
      <trkpt lat="43.49541" lon="6.91931">
        <ele>203</ele>
        <time>2011-01-09T07:56:00Z</time>
      </trkpt>
      <trkpt lat="43.49543" lon="6.91925">
        <ele>203</ele>
        <time>2011-01-09T07:56:02Z</time>
      </trkpt>
      <trkpt lat="43.49544" lon="6.91923">
        <ele>203</ele>
        <time>2011-01-09T07:56:03Z</time>
      </trkpt>
      <trkpt lat="43.49545" lon="6.9192">
        <ele>203</ele>
        <time>2011-01-09T07:56:04Z</time>
      </trkpt>
      <trkpt lat="43.49548" lon="6.91913">
        <ele>204</ele>
        <time>2011-01-09T07:56:07Z</time>
      </trkpt>
      <trkpt lat="43.49552" lon="6.91902">
        <ele>204</ele>
        <time>2011-01-09T07:56:11Z</time>
      </trkpt>
      <trkpt lat="43.49553" lon="6.919">
        <ele>205</ele>
        <time>2011-01-09T07:56:12Z</time>
      </trkpt>
      <trkpt lat="43.49554" lon="6.91897">
        <ele>205</ele>
        <time>2011-01-09T07:56:13Z</time>
      </trkpt>
      <trkpt lat="43.49558" lon="6.91888">
        <ele>205</ele>
        <time>2011-01-09T07:56:17Z</time>
      </trkpt>
      <trkpt lat="43.49562" lon="6.91881">
        <ele>206</ele>
        <time>2011-01-09T07:56:20Z</time>
      </trkpt>
      <trkpt lat="43.49564" lon="6.91877">
        <ele>206</ele>
        <time>2011-01-09T07:56:22Z</time>
      </trkpt>
      <trkpt lat="43.49567" lon="6.91873">
        <ele>206</ele>
        <time>2011-01-09T07:56:24Z</time>
      </trkpt>
      <trkpt lat="43.49569" lon="6.91871">
        <ele>206</ele>
        <time>2011-01-09T07:56:25Z</time>
      </trkpt>
      <trkpt lat="43.49571" lon="6.91871">
        <ele>207</ele>
        <time>2011-01-09T07:56:26Z</time>
      </trkpt>
      <trkpt lat="43.49573" lon="6.91871">
        <ele>207</ele>
        <time>2011-01-09T07:56:27Z</time>
      </trkpt>
      <trkpt lat="43.49575" lon="6.91872">
        <ele>207</ele>
        <time>2011-01-09T07:56:28Z</time>
      </trkpt>
      <trkpt lat="43.4958" lon="6.91876">
        <ele>207</ele>
        <time>2011-01-09T07:56:31Z</time>
      </trkpt>
      <trkpt lat="43.49583" lon="6.9188">
        <ele>208</ele>
        <time>2011-01-09T07:56:33Z</time>
      </trkpt>
      <trkpt lat="43.49588" lon="6.91885">
        <ele>208</ele>
        <time>2011-01-09T07:56:36Z</time>
      </trkpt>
      <trkpt lat="43.49594" lon="6.91889">
        <ele>209</ele>
        <time>2011-01-09T07:56:39Z</time>
      </trkpt>
      <trkpt lat="43.49597" lon="6.91892">
        <ele>209</ele>
        <time>2011-01-09T07:56:41Z</time>
      </trkpt>
      <trkpt lat="43.49601" lon="6.91895">
        <ele>209</ele>
        <time>2011-01-09T07:56:43Z</time>
      </trkpt>
      <trkpt lat="43.49611" lon="6.919">
        <ele>210</ele>
        <time>2011-01-09T07:56:48Z</time>
      </trkpt>
      <trkpt lat="43.49615" lon="6.91902">
        <ele>211</ele>
        <time>2011-01-09T07:56:50Z</time>
      </trkpt>
      <trkpt lat="43.49617" lon="6.91903">
        <ele>211</ele>
        <time>2011-01-09T07:56:51Z</time>
      </trkpt>
      <trkpt lat="43.4962" lon="6.91907">
        <ele>211</ele>
        <time>2011-01-09T07:56:53Z</time>
      </trkpt>
      <trkpt lat="43.49622" lon="6.91911">
        <ele>212</ele>
        <time>2011-01-09T07:56:55Z</time>
      </trkpt>
      <trkpt lat="43.49625" lon="6.91916">
        <ele>212</ele>
        <time>2011-01-09T07:56:57Z</time>
      </trkpt>
      <trkpt lat="43.49629" lon="6.91923">
        <ele>213</ele>
        <time>2011-01-09T07:57:00Z</time>
      </trkpt>
      <trkpt lat="43.49631" lon="6.91927">
        <ele>213</ele>
        <time>2011-01-09T07:57:02Z</time>
      </trkpt>
      <trkpt lat="43.49637" lon="6.91936">
        <ele>213</ele>
        <time>2011-01-09T07:57:06Z</time>
      </trkpt>
      <trkpt lat="43.49645" lon="6.9195">
        <ele>214</ele>
        <time>2011-01-09T07:57:12Z</time>
      </trkpt>
      <trkpt lat="43.49651" lon="6.91958">
        <ele>215</ele>
        <time>2011-01-09T07:57:16Z</time>
      </trkpt>
      <trkpt lat="43.49654" lon="6.91963">
        <ele>216</ele>
        <time>2011-01-09T07:57:18Z</time>
      </trkpt>
      <trkpt lat="43.49658" lon="6.9197">
        <ele>216</ele>
        <time>2011-01-09T07:57:21Z</time>
      </trkpt>
      <trkpt lat="43.49661" lon="6.91973">
        <ele>217</ele>
        <time>2011-01-09T07:57:23Z</time>
      </trkpt>
      <trkpt lat="43.49664" lon="6.91978">
        <ele>217</ele>
        <time>2011-01-09T07:57:25Z</time>
      </trkpt>
      <trkpt lat="43.49668" lon="6.91985">
        <ele>218</ele>
        <time>2011-01-09T07:57:28Z</time>
      </trkpt>
      <trkpt lat="43.49671" lon="6.91989">
        <ele>218</ele>
        <time>2011-01-09T07:57:30Z</time>
      </trkpt>
      <trkpt lat="43.49674" lon="6.91994">
        <ele>218</ele>
        <time>2011-01-09T07:57:32Z</time>
      </trkpt>
      <trkpt lat="43.49679" lon="6.92001">
        <ele>219</ele>
        <time>2011-01-09T07:57:35Z</time>
      </trkpt>
      <trkpt lat="43.49681" lon="6.92004">
        <ele>219</ele>
        <time>2011-01-09T07:57:36Z</time>
      </trkpt>
      <trkpt lat="43.49684" lon="6.92008">
        <ele>219</ele>
        <time>2011-01-09T07:57:38Z</time>
      </trkpt>
      <trkpt lat="43.49687" lon="6.92013">
        <ele>220</ele>
        <time>2011-01-09T07:57:40Z</time>
      </trkpt>
      <trkpt lat="43.49692" lon="6.92018">
        <ele>220</ele>
        <time>2011-01-09T07:57:43Z</time>
      </trkpt>
      <trkpt lat="43.49695" lon="6.92022">
        <ele>221</ele>
        <time>2011-01-09T07:57:45Z</time>
      </trkpt>
      <trkpt lat="43.49699" lon="6.92025">
        <ele>221</ele>
        <time>2011-01-09T07:57:47Z</time>
      </trkpt>
      <trkpt lat="43.49702" lon="6.9203">
        <ele>221</ele>
        <time>2011-01-09T07:57:49Z</time>
      </trkpt>
      <trkpt lat="43.49705" lon="6.92034">
        <ele>221</ele>
        <time>2011-01-09T07:57:51Z</time>
      </trkpt>
      <trkpt lat="43.49707" lon="6.92036">
        <ele>221</ele>
        <time>2011-01-09T07:57:52Z</time>
      </trkpt>
      <trkpt lat="43.49709" lon="6.92042">
        <ele>222</ele>
        <time>2011-01-09T07:57:54Z</time>
      </trkpt>
      <trkpt lat="43.49711" lon="6.92047">
        <ele>222</ele>
        <time>2011-01-09T07:57:56Z</time>
      </trkpt>
      <trkpt lat="43.49713" lon="6.92052">
        <ele>223</ele>
        <time>2011-01-09T07:57:58Z</time>
      </trkpt>
      <trkpt lat="43.49714" lon="6.9206">
        <ele>223</ele>
        <time>2011-01-09T07:58:01Z</time>
      </trkpt>
      <trkpt lat="43.49715" lon="6.92068">
        <ele>224</ele>
        <time>2011-01-09T07:58:04Z</time>
      </trkpt>
      <trkpt lat="43.49716" lon="6.9208">
        <ele>224</ele>
        <time>2011-01-09T07:58:08Z</time>
      </trkpt>
      <trkpt lat="43.49716" lon="6.92082">
        <ele>224</ele>
        <time>2011-01-09T07:58:09Z</time>
      </trkpt>
      <trkpt lat="43.49716" lon="6.92085">
        <ele>225</ele>
        <time>2011-01-09T07:58:10Z</time>
      </trkpt>
      <trkpt lat="43.49717" lon="6.92088">
        <ele>225</ele>
        <time>2011-01-09T07:58:11Z</time>
      </trkpt>
      <trkpt lat="43.49717" lon="6.92091">
        <ele>225</ele>
        <time>2011-01-09T07:58:12Z</time>
      </trkpt>
      <trkpt lat="43.49718" lon="6.92094">
        <ele>225</ele>
        <time>2011-01-09T07:58:13Z</time>
      </trkpt>
      <trkpt lat="43.49718" lon="6.92103">
        <ele>225</ele>
        <time>2011-01-09T07:58:16Z</time>
      </trkpt>
      <trkpt lat="43.49719" lon="6.92109">
        <ele>226</ele>
        <time>2011-01-09T07:58:18Z</time>
      </trkpt>
      <trkpt lat="43.4972" lon="6.92117">
        <ele>226</ele>
        <time>2011-01-09T07:58:21Z</time>
      </trkpt>
      <trkpt lat="43.49721" lon="6.92123">
        <ele>226</ele>
        <time>2011-01-09T07:58:23Z</time>
      </trkpt>
      <trkpt lat="43.49723" lon="6.92129">
        <ele>226</ele>
        <time>2011-01-09T07:58:25Z</time>
      </trkpt>
      <trkpt lat="43.49723" lon="6.92132">
        <ele>227</ele>
        <time>2011-01-09T07:58:26Z</time>
      </trkpt>
      <trkpt lat="43.49725" lon="6.92144">
        <ele>227</ele>
        <time>2011-01-09T07:58:30Z</time>
      </trkpt>
      <trkpt lat="43.49725" lon="6.92147">
        <ele>227</ele>
        <time>2011-01-09T07:58:31Z</time>
      </trkpt>
      <trkpt lat="43.49727" lon="6.92152">
        <ele>227</ele>
        <time>2011-01-09T07:58:33Z</time>
      </trkpt>
      <trkpt lat="43.4973" lon="6.92161">
        <ele>228</ele>
        <time>2011-01-09T07:58:36Z</time>
      </trkpt>
      <trkpt lat="43.49731" lon="6.92164">
        <ele>228</ele>
        <time>2011-01-09T07:58:37Z</time>
      </trkpt>
      <trkpt lat="43.49733" lon="6.92169">
        <ele>228</ele>
        <time>2011-01-09T07:58:39Z</time>
      </trkpt>
      <trkpt lat="43.49736" lon="6.92177">
        <ele>229</ele>
        <time>2011-01-09T07:58:42Z</time>
      </trkpt>
      <trkpt lat="43.49741" lon="6.92188">
        <ele>229</ele>
        <time>2011-01-09T07:58:46Z</time>
      </trkpt>
      <trkpt lat="43.49751" lon="6.92204">
        <ele>230</ele>
        <time>2011-01-09T07:58:53Z</time>
      </trkpt>
      <trkpt lat="43.49754" lon="6.92208">
        <ele>231</ele>
        <time>2011-01-09T07:58:55Z</time>
      </trkpt>
      <trkpt lat="43.49756" lon="6.9221">
        <ele>231</ele>
        <time>2011-01-09T07:58:56Z</time>
      </trkpt>
      <trkpt lat="43.49762" lon="6.92215">
        <ele>231</ele>
        <time>2011-01-09T07:58:59Z</time>
      </trkpt>
      <trkpt lat="43.49769" lon="6.9222">
        <ele>232</ele>
        <time>2011-01-09T07:59:03Z</time>
      </trkpt>
      <trkpt lat="43.49774" lon="6.92222">
        <ele>232</ele>
        <time>2011-01-09T07:59:05Z</time>
      </trkpt>
      <trkpt lat="43.49778" lon="6.92224">
        <ele>232</ele>
        <time>2011-01-09T07:59:07Z</time>
      </trkpt>
      <trkpt lat="43.49782" lon="6.92226">
        <ele>233</ele>
        <time>2011-01-09T07:59:09Z</time>
      </trkpt>
      <trkpt lat="43.49784" lon="6.92227">
        <ele>233</ele>
        <time>2011-01-09T07:59:10Z</time>
      </trkpt>
      <trkpt lat="43.49786" lon="6.92227">
        <ele>233</ele>
        <time>2011-01-09T07:59:11Z</time>
      </trkpt>
      <trkpt lat="43.49788" lon="6.92227">
        <ele>233</ele>
        <time>2011-01-09T07:59:12Z</time>
      </trkpt>
      <trkpt lat="43.49793" lon="6.92227">
        <ele>233</ele>
        <time>2011-01-09T07:59:14Z</time>
      </trkpt>
      <trkpt lat="43.49797" lon="6.92227">
        <ele>234</ele>
        <time>2011-01-09T07:59:16Z</time>
      </trkpt>
      <trkpt lat="43.49803" lon="6.92226">
        <ele>234</ele>
        <time>2011-01-09T07:59:19Z</time>
      </trkpt>
      <trkpt lat="43.49809" lon="6.92224">
        <ele>234</ele>
        <time>2011-01-09T07:59:22Z</time>
      </trkpt>
      <trkpt lat="43.49814" lon="6.92224">
        <ele>234</ele>
        <time>2011-01-09T07:59:25Z</time>
      </trkpt>
      <trkpt lat="43.49818" lon="6.92222">
        <ele>235</ele>
        <time>2011-01-09T07:59:28Z</time>
      </trkpt>
      <trkpt lat="43.49819" lon="6.92221">
        <ele>235</ele>
        <time>2011-01-09T07:59:29Z</time>
      </trkpt>
      <trkpt lat="43.4982" lon="6.9222">
        <ele>235</ele>
        <time>2011-01-09T07:59:30Z</time>
      </trkpt>
      <trkpt lat="43.49821" lon="6.92218">
        <ele>235</ele>
        <time>2011-01-09T07:59:31Z</time>
      </trkpt>
      <trkpt lat="43.49821" lon="6.92216">
        <ele>235</ele>
        <time>2011-01-09T07:59:32Z</time>
      </trkpt>
      <trkpt lat="43.4982" lon="6.92213">
        <ele>235</ele>
        <time>2011-01-09T07:59:33Z</time>
      </trkpt>
      <trkpt lat="43.49818" lon="6.92208">
        <ele>236</ele>
        <time>2011-01-09T07:59:35Z</time>
      </trkpt>
      <trkpt lat="43.49816" lon="6.92206">
        <ele>236</ele>
        <time>2011-01-09T07:59:36Z</time>
      </trkpt>
      <trkpt lat="43.49811" lon="6.92194">
        <ele>236</ele>
        <time>2011-01-09T07:59:40Z</time>
      </trkpt>
      <trkpt lat="43.49808" lon="6.92189">
        <ele>236</ele>
        <time>2011-01-09T07:59:42Z</time>
      </trkpt>
      <trkpt lat="43.49805" lon="6.92184">
        <ele>236</ele>
        <time>2011-01-09T07:59:44Z</time>
      </trkpt>
      <trkpt lat="43.49802" lon="6.92179">
        <ele>236</ele>
        <time>2011-01-09T07:59:46Z</time>
      </trkpt>
      <trkpt lat="43.49801" lon="6.92176">
        <ele>236</ele>
        <time>2011-01-09T07:59:47Z</time>
      </trkpt>
      <trkpt lat="43.49798" lon="6.92171">
        <ele>236</ele>
        <time>2011-01-09T07:59:49Z</time>
      </trkpt>
      <trkpt lat="43.49794" lon="6.92163">
        <ele>236</ele>
        <time>2011-01-09T07:59:52Z</time>
      </trkpt>
      <trkpt lat="43.49791" lon="6.92158">
        <ele>237</ele>
        <time>2011-01-09T07:59:54Z</time>
      </trkpt>
      <trkpt lat="43.49787" lon="6.92148">
        <ele>237</ele>
        <time>2011-01-09T07:59:57Z</time>
      </trkpt>
      <trkpt lat="43.49784" lon="6.92142">
        <ele>237</ele>
        <time>2011-01-09T07:59:59Z</time>
      </trkpt>
      <trkpt lat="43.49782" lon="6.92135">
        <ele>237</ele>
        <time>2011-01-09T08:00:01Z</time>
      </trkpt>
      <trkpt lat="43.49779" lon="6.92125">
        <ele>237</ele>
        <time>2011-01-09T08:00:04Z</time>
      </trkpt>
      <trkpt lat="43.49772" lon="6.92099">
        <ele>238</ele>
        <time>2011-01-09T08:00:11Z</time>
      </trkpt>
      <trkpt lat="43.49771" lon="6.92096">
        <ele>238</ele>
        <time>2011-01-09T08:00:12Z</time>
      </trkpt>
      <trkpt lat="43.49769" lon="6.92089">
        <ele>238</ele>
        <time>2011-01-09T08:00:14Z</time>
      </trkpt>
      <trkpt lat="43.49767" lon="6.92086">
        <ele>238</ele>
        <time>2011-01-09T08:00:15Z</time>
      </trkpt>
      <trkpt lat="43.49763" lon="6.92077">
        <ele>238</ele>
        <time>2011-01-09T08:00:18Z</time>
      </trkpt>
      <trkpt lat="43.49761" lon="6.92074">
        <ele>238</ele>
        <time>2011-01-09T08:00:19Z</time>
      </trkpt>
      <trkpt lat="43.49759" lon="6.92067">
        <ele>239</ele>
        <time>2011-01-09T08:00:21Z</time>
      </trkpt>
      <trkpt lat="43.49753" lon="6.92043">
        <ele>239</ele>
        <time>2011-01-09T08:00:27Z</time>
      </trkpt>
      <trkpt lat="43.49751" lon="6.92036">
        <ele>239</ele>
        <time>2011-01-09T08:00:29Z</time>
      </trkpt>
      <trkpt lat="43.4975" lon="6.92032">
        <ele>239</ele>
        <time>2011-01-09T08:00:30Z</time>
      </trkpt>
      <trkpt lat="43.49749" lon="6.92028">
        <ele>239</ele>
        <time>2011-01-09T08:00:31Z</time>
      </trkpt>
      <trkpt lat="43.49745" lon="6.92017">
        <ele>239</ele>
        <time>2011-01-09T08:00:34Z</time>
      </trkpt>
      <trkpt lat="43.49742" lon="6.92011">
        <ele>239</ele>
        <time>2011-01-09T08:00:36Z</time>
      </trkpt>
      <trkpt lat="43.49734" lon="6.91991">
        <ele>239</ele>
        <time>2011-01-09T08:00:42Z</time>
      </trkpt>
      <trkpt lat="43.49732" lon="6.91987">
        <ele>239</ele>
        <time>2011-01-09T08:00:43Z</time>
      </trkpt>
      <trkpt lat="43.4973" lon="6.9198">
        <ele>239</ele>
        <time>2011-01-09T08:00:45Z</time>
      </trkpt>
      <trkpt lat="43.49727" lon="6.91973">
        <ele>239</ele>
        <time>2011-01-09T08:00:47Z</time>
      </trkpt>
      <trkpt lat="43.4972" lon="6.91958">
        <ele>239</ele>
        <time>2011-01-09T08:00:51Z</time>
      </trkpt>
      <trkpt lat="43.49716" lon="6.91951">
        <ele>240</ele>
        <time>2011-01-09T08:00:53Z</time>
      </trkpt>
      <trkpt lat="43.4971" lon="6.91937">
        <ele>240</ele>
        <time>2011-01-09T08:00:57Z</time>
      </trkpt>
      <trkpt lat="43.49706" lon="6.91926">
        <ele>241</ele>
        <time>2011-01-09T08:01:00Z</time>
      </trkpt>
      <trkpt lat="43.49704" lon="6.91923">
        <ele>241</ele>
        <time>2011-01-09T08:01:01Z</time>
      </trkpt>
      <trkpt lat="43.49698" lon="6.9191">
        <ele>241</ele>
        <time>2011-01-09T08:01:05Z</time>
      </trkpt>
      <trkpt lat="43.49695" lon="6.91903">
        <ele>242</ele>
        <time>2011-01-09T08:01:07Z</time>
      </trkpt>
      <trkpt lat="43.49694" lon="6.919">
        <ele>242</ele>
        <time>2011-01-09T08:01:08Z</time>
      </trkpt>
      <trkpt lat="43.49692" lon="6.91895">
        <ele>242</ele>
        <time>2011-01-09T08:01:10Z</time>
      </trkpt>
      <trkpt lat="43.49687" lon="6.91883">
        <ele>243</ele>
        <time>2011-01-09T08:01:14Z</time>
      </trkpt>
      <trkpt lat="43.49684" lon="6.91877">
        <ele>243</ele>
        <time>2011-01-09T08:01:16Z</time>
      </trkpt>
      <trkpt lat="43.49681" lon="6.91868">
        <ele>243</ele>
        <time>2011-01-09T08:01:19Z</time>
      </trkpt>
      <trkpt lat="43.49678" lon="6.91856">
        <ele>244</ele>
        <time>2011-01-09T08:01:23Z</time>
      </trkpt>
      <trkpt lat="43.49676" lon="6.9185">
        <ele>245</ele>
        <time>2011-01-09T08:01:25Z</time>
      </trkpt>
      <trkpt lat="43.4967" lon="6.91832">
        <ele>247</ele>
        <time>2011-01-09T08:01:31Z</time>
      </trkpt>
      <trkpt lat="43.49669" lon="6.91829">
        <ele>247</ele>
        <time>2011-01-09T08:01:32Z</time>
      </trkpt>
      <trkpt lat="43.49664" lon="6.91819">
        <ele>248</ele>
        <time>2011-01-09T08:01:36Z</time>
      </trkpt>
      <trkpt lat="43.49661" lon="6.91811">
        <ele>248</ele>
        <time>2011-01-09T08:01:39Z</time>
      </trkpt>
      <trkpt lat="43.49657" lon="6.91799">
        <ele>248</ele>
        <time>2011-01-09T08:01:43Z</time>
      </trkpt>
      <trkpt lat="43.49654" lon="6.91791">
        <ele>249</ele>
        <time>2011-01-09T08:01:46Z</time>
      </trkpt>
      <trkpt lat="43.49651" lon="6.91783">
        <ele>249</ele>
        <time>2011-01-09T08:01:49Z</time>
      </trkpt>
      <trkpt lat="43.4965" lon="6.91777">
        <ele>249</ele>
        <time>2011-01-09T08:01:51Z</time>
      </trkpt>
      <trkpt lat="43.4965" lon="6.91774">
        <ele>249</ele>
        <time>2011-01-09T08:01:52Z</time>
      </trkpt>
      <trkpt lat="43.49648" lon="6.91768">
        <ele>249</ele>
        <time>2011-01-09T08:01:54Z</time>
      </trkpt>
      <trkpt lat="43.49647" lon="6.91765">
        <ele>249</ele>
        <time>2011-01-09T08:01:55Z</time>
      </trkpt>
      <trkpt lat="43.49645" lon="6.91762">
        <ele>249</ele>
        <time>2011-01-09T08:01:56Z</time>
      </trkpt>
      <trkpt lat="43.49644" lon="6.9176">
        <ele>249</ele>
        <time>2011-01-09T08:01:57Z</time>
      </trkpt>
      <trkpt lat="43.49641" lon="6.91758">
        <ele>249</ele>
        <time>2011-01-09T08:01:58Z</time>
      </trkpt>
      <trkpt lat="43.49639" lon="6.91757">
        <ele>249</ele>
        <time>2011-01-09T08:01:59Z</time>
      </trkpt>
      <trkpt lat="43.49634" lon="6.91757">
        <ele>249</ele>
        <time>2011-01-09T08:02:01Z</time>
      </trkpt>
      <trkpt lat="43.49632" lon="6.91756">
        <ele>248</ele>
        <time>2011-01-09T08:02:02Z</time>
      </trkpt>
      <trkpt lat="43.49629" lon="6.91756">
        <ele>248</ele>
        <time>2011-01-09T08:02:03Z</time>
      </trkpt>
      <trkpt lat="43.49626" lon="6.91755">
        <ele>248</ele>
        <time>2011-01-09T08:02:04Z</time>
      </trkpt>
      <trkpt lat="43.49623" lon="6.91755">
        <ele>248</ele>
        <time>2011-01-09T08:02:05Z</time>
      </trkpt>
      <trkpt lat="43.49619" lon="6.91754">
        <ele>248</ele>
        <time>2011-01-09T08:02:06Z</time>
      </trkpt>
      <trkpt lat="43.49612" lon="6.91752">
        <ele>247</ele>
        <time>2011-01-09T08:02:08Z</time>
      </trkpt>
      <trkpt lat="43.49607" lon="6.91751">
        <ele>246</ele>
        <time>2011-01-09T08:02:09Z</time>
      </trkpt>
      <trkpt lat="43.49601" lon="6.91751">
        <ele>246</ele>
        <time>2011-01-09T08:02:10Z</time>
      </trkpt>
      <trkpt lat="43.49545" lon="6.91766">
        <ele>244</ele>
        <time>2011-01-09T08:02:20Z</time>
      </trkpt>
      <trkpt lat="43.49538" lon="6.91769">
        <ele>244</ele>
        <time>2011-01-09T08:02:22Z</time>
      </trkpt>
      <trkpt lat="43.49536" lon="6.91772">
        <ele>244</ele>
        <time>2011-01-09T08:02:23Z</time>
      </trkpt>
      <trkpt lat="43.49533" lon="6.91777">
        <ele>245</ele>
        <time>2011-01-09T08:02:24Z</time>
      </trkpt>
      <trkpt lat="43.49531" lon="6.91781">
        <ele>244</ele>
        <time>2011-01-09T08:02:25Z</time>
      </trkpt>
      <trkpt lat="43.49529" lon="6.91787">
        <ele>244</ele>
        <time>2011-01-09T08:02:26Z</time>
      </trkpt>
      <trkpt lat="43.49527" lon="6.91792">
        <ele>244</ele>
        <time>2011-01-09T08:02:27Z</time>
      </trkpt>
      <trkpt lat="43.49522" lon="6.91803">
        <ele>243</ele>
        <time>2011-01-09T08:02:29Z</time>
      </trkpt>
      <trkpt lat="43.49519" lon="6.91808">
        <ele>243</ele>
        <time>2011-01-09T08:02:30Z</time>
      </trkpt>
      <trkpt lat="43.49515" lon="6.91813">
        <ele>242</ele>
        <time>2011-01-09T08:02:31Z</time>
      </trkpt>
      <trkpt lat="43.49459" lon="6.91836">
        <ele>238</ele>
        <time>2011-01-09T08:02:41Z</time>
      </trkpt>
      <trkpt lat="43.49409" lon="6.91833">
        <ele>240</ele>
        <time>2011-01-09T08:02:51Z</time>
      </trkpt>
      <trkpt lat="43.49404" lon="6.91829">
        <ele>240</ele>
        <time>2011-01-09T08:02:53Z</time>
      </trkpt>
      <trkpt lat="43.49402" lon="6.91828">
        <ele>240</ele>
        <time>2011-01-09T08:02:54Z</time>
      </trkpt>
      <trkpt lat="43.49394" lon="6.91823">
        <ele>241</ele>
        <time>2011-01-09T08:02:58Z</time>
      </trkpt>
      <trkpt lat="43.49392" lon="6.91821">
        <ele>241</ele>
        <time>2011-01-09T08:02:59Z</time>
      </trkpt>
      <trkpt lat="43.49386" lon="6.91818">
        <ele>241</ele>
        <time>2011-01-09T08:03:02Z</time>
      </trkpt>
      <trkpt lat="43.49383" lon="6.91816">
        <ele>241</ele>
        <time>2011-01-09T08:03:03Z</time>
      </trkpt>
      <trkpt lat="43.49377" lon="6.91813">
        <ele>242</ele>
        <time>2011-01-09T08:03:06Z</time>
      </trkpt>
      <trkpt lat="43.49375" lon="6.91812">
        <ele>242</ele>
        <time>2011-01-09T08:03:07Z</time>
      </trkpt>
      <trkpt lat="43.49372" lon="6.91811">
        <ele>242</ele>
        <time>2011-01-09T08:03:08Z</time>
      </trkpt>
      <trkpt lat="43.49368" lon="6.91808">
        <ele>242</ele>
        <time>2011-01-09T08:03:10Z</time>
      </trkpt>
      <trkpt lat="43.4936" lon="6.91803">
        <ele>243</ele>
        <time>2011-01-09T08:03:14Z</time>
      </trkpt>
      <trkpt lat="43.49355" lon="6.91801">
        <ele>243</ele>
        <time>2011-01-09T08:03:16Z</time>
      </trkpt>
      <trkpt lat="43.49351" lon="6.91798">
        <ele>244</ele>
        <time>2011-01-09T08:03:18Z</time>
      </trkpt>
      <trkpt lat="43.49347" lon="6.91797">
        <ele>244</ele>
        <time>2011-01-09T08:03:20Z</time>
      </trkpt>
      <trkpt lat="43.4934" lon="6.91793">
        <ele>245</ele>
        <time>2011-01-09T08:03:23Z</time>
      </trkpt>
      <trkpt lat="43.49327" lon="6.91787">
        <ele>246</ele>
        <time>2011-01-09T08:03:29Z</time>
      </trkpt>
      <trkpt lat="43.4932" lon="6.91784">
        <ele>246</ele>
        <time>2011-01-09T08:03:32Z</time>
      </trkpt>
      <trkpt lat="43.49313" lon="6.91782">
        <ele>246</ele>
        <time>2011-01-09T08:03:35Z</time>
      </trkpt>
      <trkpt lat="43.49302" lon="6.91778">
        <ele>247</ele>
        <time>2011-01-09T08:03:39Z</time>
      </trkpt>
      <trkpt lat="43.49297" lon="6.91776">
        <ele>247</ele>
        <time>2011-01-09T08:03:41Z</time>
      </trkpt>
      <trkpt lat="43.49295" lon="6.91775">
        <ele>247</ele>
        <time>2011-01-09T08:03:42Z</time>
      </trkpt>
      <trkpt lat="43.49281" lon="6.91771">
        <ele>248</ele>
        <time>2011-01-09T08:03:47Z</time>
      </trkpt>
      <trkpt lat="43.49273" lon="6.91768">
        <ele>248</ele>
        <time>2011-01-09T08:03:50Z</time>
      </trkpt>
      <trkpt lat="43.49263" lon="6.91763">
        <ele>248</ele>
        <time>2011-01-09T08:03:54Z</time>
      </trkpt>
      <trkpt lat="43.4926" lon="6.91763">
        <ele>248</ele>
        <time>2011-01-09T08:03:55Z</time>
      </trkpt>
      <trkpt lat="43.49257" lon="6.91761">
        <ele>248</ele>
        <time>2011-01-09T08:03:56Z</time>
      </trkpt>
      <trkpt lat="43.4925" lon="6.91757">
        <ele>248</ele>
        <time>2011-01-09T08:03:59Z</time>
      </trkpt>
      <trkpt lat="43.49247" lon="6.91755">
        <ele>248</ele>
        <time>2011-01-09T08:04:00Z</time>
      </trkpt>
      <trkpt lat="43.49245" lon="6.91753">
        <ele>248</ele>
        <time>2011-01-09T08:04:01Z</time>
      </trkpt>
      <trkpt lat="43.4924" lon="6.91748">
        <ele>248</ele>
        <time>2011-01-09T08:04:03Z</time>
      </trkpt>
      <trkpt lat="43.49235" lon="6.91742">
        <ele>248</ele>
        <time>2011-01-09T08:04:05Z</time>
      </trkpt>
      <trkpt lat="43.49233" lon="6.91739">
        <ele>248</ele>
        <time>2011-01-09T08:04:06Z</time>
      </trkpt>
      <trkpt lat="43.49227" lon="6.91729">
        <ele>248</ele>
        <time>2011-01-09T08:04:09Z</time>
      </trkpt>
      <trkpt lat="43.49226" lon="6.91725">
        <ele>248</ele>
        <time>2011-01-09T08:04:10Z</time>
      </trkpt>
      <trkpt lat="43.4922" lon="6.91705">
        <ele>248</ele>
        <time>2011-01-09T08:04:15Z</time>
      </trkpt>
      <trkpt lat="43.49219" lon="6.91701">
        <ele>248</ele>
        <time>2011-01-09T08:04:16Z</time>
      </trkpt>
      <trkpt lat="43.49218" lon="6.91697">
        <ele>248</ele>
        <time>2011-01-09T08:04:17Z</time>
      </trkpt>
      <trkpt lat="43.49217" lon="6.91693">
        <ele>249</ele>
        <time>2011-01-09T08:04:18Z</time>
      </trkpt>
      <trkpt lat="43.49215" lon="6.91684">
        <ele>249</ele>
        <time>2011-01-09T08:04:20Z</time>
      </trkpt>
      <trkpt lat="43.49215" lon="6.9168">
        <ele>249</ele>
        <time>2011-01-09T08:04:21Z</time>
      </trkpt>
      <trkpt lat="43.49213" lon="6.91672">
        <ele>249</ele>
        <time>2011-01-09T08:04:23Z</time>
      </trkpt>
      <trkpt lat="43.49211" lon="6.91664">
        <ele>249</ele>
        <time>2011-01-09T08:04:25Z</time>
      </trkpt>
      <trkpt lat="43.49207" lon="6.91652">
        <ele>249</ele>
        <time>2011-01-09T08:04:28Z</time>
      </trkpt>
      <trkpt lat="43.49205" lon="6.91648">
        <ele>249</ele>
        <time>2011-01-09T08:04:29Z</time>
      </trkpt>
      <trkpt lat="43.49199" lon="6.91631">
        <ele>249</ele>
        <time>2011-01-09T08:04:33Z</time>
      </trkpt>
      <trkpt lat="43.49195" lon="6.91618">
        <ele>249</ele>
        <time>2011-01-09T08:04:36Z</time>
      </trkpt>
      <trkpt lat="43.49192" lon="6.91609">
        <ele>249</ele>
        <time>2011-01-09T08:04:38Z</time>
      </trkpt>
      <trkpt lat="43.49184" lon="6.9159">
        <ele>249</ele>
        <time>2011-01-09T08:04:43Z</time>
      </trkpt>
      <trkpt lat="43.49178" lon="6.91575">
        <ele>249</ele>
        <time>2011-01-09T08:04:47Z</time>
      </trkpt>
      <trkpt lat="43.49169" lon="6.91555">
        <ele>249</ele>
        <time>2011-01-09T08:04:52Z</time>
      </trkpt>
      <trkpt lat="43.49165" lon="6.91547">
        <ele>249</ele>
        <time>2011-01-09T08:04:54Z</time>
      </trkpt>
      <trkpt lat="43.49164" lon="6.91543">
        <ele>249</ele>
        <time>2011-01-09T08:04:55Z</time>
      </trkpt>
      <trkpt lat="43.49161" lon="6.91534">
        <ele>249</ele>
        <time>2011-01-09T08:04:57Z</time>
      </trkpt>
      <trkpt lat="43.4916" lon="6.9153">
        <ele>250</ele>
        <time>2011-01-09T08:04:58Z</time>
      </trkpt>
      <trkpt lat="43.49159" lon="6.91522">
        <ele>250</ele>
        <time>2011-01-09T08:05:00Z</time>
      </trkpt>
      <trkpt lat="43.49159" lon="6.91514">
        <ele>250</ele>
        <time>2011-01-09T08:05:02Z</time>
      </trkpt>
      <trkpt lat="43.49158" lon="6.91506">
        <ele>250</ele>
        <time>2011-01-09T08:05:04Z</time>
      </trkpt>
      <trkpt lat="43.49158" lon="6.91502">
        <ele>251</ele>
        <time>2011-01-09T08:05:05Z</time>
      </trkpt>
      <trkpt lat="43.49158" lon="6.91494">
        <ele>251</ele>
        <time>2011-01-09T08:05:07Z</time>
      </trkpt>
      <trkpt lat="43.49157" lon="6.91491">
        <ele>251</ele>
        <time>2011-01-09T08:05:08Z</time>
      </trkpt>
      <trkpt lat="43.49154" lon="6.9148">
        <ele>251</ele>
        <time>2011-01-09T08:05:11Z</time>
      </trkpt>
      <trkpt lat="43.49153" lon="6.91477">
        <ele>251</ele>
        <time>2011-01-09T08:05:12Z</time>
      </trkpt>
      <trkpt lat="43.49151" lon="6.91473">
        <ele>250</ele>
        <time>2011-01-09T08:05:13Z</time>
      </trkpt>
      <trkpt lat="43.49148" lon="6.9147">
        <ele>250</ele>
        <time>2011-01-09T08:05:14Z</time>
      </trkpt>
      <trkpt lat="43.49145" lon="6.91468">
        <ele>250</ele>
        <time>2011-01-09T08:05:15Z</time>
      </trkpt>
      <trkpt lat="43.49142" lon="6.91466">
        <ele>250</ele>
        <time>2011-01-09T08:05:16Z</time>
      </trkpt>
      <trkpt lat="43.49133" lon="6.91467">
        <ele>249</ele>
        <time>2011-01-09T08:05:18Z</time>
      </trkpt>
      <trkpt lat="43.49129" lon="6.91466">
        <ele>249</ele>
        <time>2011-01-09T08:05:19Z</time>
      </trkpt>
      <trkpt lat="43.49124" lon="6.91465">
        <ele>248</ele>
        <time>2011-01-09T08:05:20Z</time>
      </trkpt>
      <trkpt lat="43.4912" lon="6.91464">
        <ele>248</ele>
        <time>2011-01-09T08:05:21Z</time>
      </trkpt>
      <trkpt lat="43.49115" lon="6.91461">
        <ele>247</ele>
        <time>2011-01-09T08:05:22Z</time>
      </trkpt>
      <trkpt lat="43.49106" lon="6.91455">
        <ele>246</ele>
        <time>2011-01-09T08:05:24Z</time>
      </trkpt>
      <trkpt lat="43.49061" lon="6.91418">
        <ele>241</ele>
        <time>2011-01-09T08:05:34Z</time>
      </trkpt>
      <trkpt lat="43.49056" lon="6.91415">
        <ele>240</ele>
        <time>2011-01-09T08:05:35Z</time>
      </trkpt>
      <trkpt lat="43.49052" lon="6.91414">
        <ele>240</ele>
        <time>2011-01-09T08:05:36Z</time>
      </trkpt>
      <trkpt lat="43.49048" lon="6.91416">
        <ele>240</ele>
        <time>2011-01-09T08:05:37Z</time>
      </trkpt>
      <trkpt lat="43.49045" lon="6.9142">
        <ele>239</ele>
        <time>2011-01-09T08:05:38Z</time>
      </trkpt>
      <trkpt lat="43.49038" lon="6.91429">
        <ele>238</ele>
        <time>2011-01-09T08:05:40Z</time>
      </trkpt>
      <trkpt lat="43.49034" lon="6.91433">
        <ele>238</ele>
        <time>2011-01-09T08:05:41Z</time>
      </trkpt>
      <trkpt lat="43.48988" lon="6.91445">
        <ele>233</ele>
        <time>2011-01-09T08:05:51Z</time>
      </trkpt>
      <trkpt lat="43.48987" lon="6.9145">
        <ele>233</ele>
        <time>2011-01-09T08:05:52Z</time>
      </trkpt>
      <trkpt lat="43.48984" lon="6.91466">
        <ele>232</ele>
        <time>2011-01-09T08:05:55Z</time>
      </trkpt>
      <trkpt lat="43.48982" lon="6.91472">
        <ele>232</ele>
        <time>2011-01-09T08:05:56Z</time>
      </trkpt>
      <trkpt lat="43.4898" lon="6.91477">
        <ele>231</ele>
        <time>2011-01-09T08:05:57Z</time>
      </trkpt>
      <trkpt lat="43.48978" lon="6.91482">
        <ele>231</ele>
        <time>2011-01-09T08:05:58Z</time>
      </trkpt>
      <trkpt lat="43.48975" lon="6.91487">
        <ele>230</ele>
        <time>2011-01-09T08:05:59Z</time>
      </trkpt>
      <trkpt lat="43.48973" lon="6.91494">
        <ele>230</ele>
        <time>2011-01-09T08:06:00Z</time>
      </trkpt>
      <trkpt lat="43.48973" lon="6.915">
        <ele>230</ele>
        <time>2011-01-09T08:06:01Z</time>
      </trkpt>
      <trkpt lat="43.48974" lon="6.91506">
        <ele>230</ele>
        <time>2011-01-09T08:06:02Z</time>
      </trkpt>
      <trkpt lat="43.48976" lon="6.91513">
        <ele>229</ele>
        <time>2011-01-09T08:06:03Z</time>
      </trkpt>
      <trkpt lat="43.48966" lon="6.91587">
        <ele>227</ele>
        <time>2011-01-09T08:06:13Z</time>
      </trkpt>
      <trkpt lat="43.4896" lon="6.91606">
        <ele>226</ele>
        <time>2011-01-09T08:06:16Z</time>
      </trkpt>
      <trkpt lat="43.48957" lon="6.91618">
        <ele>226</ele>
        <time>2011-01-09T08:06:18Z</time>
      </trkpt>
      <trkpt lat="43.48953" lon="6.9163">
        <ele>225</ele>
        <time>2011-01-09T08:06:20Z</time>
      </trkpt>
      <trkpt lat="43.48948" lon="6.91643">
        <ele>225</ele>
        <time>2011-01-09T08:06:22Z</time>
      </trkpt>
      <trkpt lat="43.48914" lon="6.91709">
        <ele>221</ele>
        <time>2011-01-09T08:06:32Z</time>
      </trkpt>
      <trkpt lat="43.48891" lon="6.9181">
        <ele>217</ele>
        <time>2011-01-09T08:06:42Z</time>
      </trkpt>
      <trkpt lat="43.48841" lon="6.91855">
        <ele>212</ele>
        <time>2011-01-09T08:06:52Z</time>
      </trkpt>
      <trkpt lat="43.48838" lon="6.91852">
        <ele>213</ele>
        <time>2011-01-09T08:06:53Z</time>
      </trkpt>
      <trkpt lat="43.48835" lon="6.91848">
        <ele>213</ele>
        <time>2011-01-09T08:06:54Z</time>
      </trkpt>
      <trkpt lat="43.48822" lon="6.91831">
        <ele>214</ele>
        <time>2011-01-09T08:07:00Z</time>
      </trkpt>
      <trkpt lat="43.48821" lon="6.91829">
        <ele>214</ele>
        <time>2011-01-09T08:07:01Z</time>
      </trkpt>
      <trkpt lat="43.48815" lon="6.91822">
        <ele>214</ele>
        <time>2011-01-09T08:07:04Z</time>
      </trkpt>
      <trkpt lat="43.48812" lon="6.91817">
        <ele>214</ele>
        <time>2011-01-09T08:07:06Z</time>
      </trkpt>
      <trkpt lat="43.48809" lon="6.91813">
        <ele>214</ele>
        <time>2011-01-09T08:07:08Z</time>
      </trkpt>
      <trkpt lat="43.48805" lon="6.91808">
        <ele>214</ele>
        <time>2011-01-09T08:07:10Z</time>
      </trkpt>
      <trkpt lat="43.48795" lon="6.91795">
        <ele>215</ele>
        <time>2011-01-09T08:07:15Z</time>
      </trkpt>
      <trkpt lat="43.48787" lon="6.91786">
        <ele>215</ele>
        <time>2011-01-09T08:07:18Z</time>
      </trkpt>
      <trkpt lat="43.48784" lon="6.91784">
        <ele>215</ele>
        <time>2011-01-09T08:07:19Z</time>
      </trkpt>
      <trkpt lat="43.48779" lon="6.91779">
        <ele>215</ele>
        <time>2011-01-09T08:07:21Z</time>
      </trkpt>
      <trkpt lat="43.48777" lon="6.91777">
        <ele>215</ele>
        <time>2011-01-09T08:07:22Z</time>
      </trkpt>
      <trkpt lat="43.48774" lon="6.91775">
        <ele>215</ele>
        <time>2011-01-09T08:07:23Z</time>
      </trkpt>
      <trkpt lat="43.48772" lon="6.91774">
        <ele>216</ele>
        <time>2011-01-09T08:07:24Z</time>
      </trkpt>
      <trkpt lat="43.48756" lon="6.91765">
        <ele>217</ele>
        <time>2011-01-09T08:07:32Z</time>
      </trkpt>
      <trkpt lat="43.48753" lon="6.91763">
        <ele>217</ele>
        <time>2011-01-09T08:07:34Z</time>
      </trkpt>
      <trkpt lat="43.48751" lon="6.91761">
        <ele>217</ele>
        <time>2011-01-09T08:07:35Z</time>
      </trkpt>
      <trkpt lat="43.48748" lon="6.91759">
        <ele>218</ele>
        <time>2011-01-09T08:07:37Z</time>
      </trkpt>
      <trkpt lat="43.48744" lon="6.91757">
        <ele>218</ele>
        <time>2011-01-09T08:07:39Z</time>
      </trkpt>
      <trkpt lat="43.48742" lon="6.91756">
        <ele>219</ele>
        <time>2011-01-09T08:07:40Z</time>
      </trkpt>
      <trkpt lat="43.4874" lon="6.91755">
        <ele>219</ele>
        <time>2011-01-09T08:07:41Z</time>
      </trkpt>
      <trkpt lat="43.48735" lon="6.91753">
        <ele>219</ele>
        <time>2011-01-09T08:07:44Z</time>
      </trkpt>
      <trkpt lat="43.48731" lon="6.91751">
        <ele>220</ele>
        <time>2011-01-09T08:07:46Z</time>
      </trkpt>
      <trkpt lat="43.48721" lon="6.91746">
        <ele>221</ele>
        <time>2011-01-09T08:07:51Z</time>
      </trkpt>
      <trkpt lat="43.48713" lon="6.91743">
        <ele>222</ele>
        <time>2011-01-09T08:07:55Z</time>
      </trkpt>
      <trkpt lat="43.48711" lon="6.91742">
        <ele>222</ele>
        <time>2011-01-09T08:07:56Z</time>
      </trkpt>
      <trkpt lat="43.48707" lon="6.9174">
        <ele>222</ele>
        <time>2011-01-09T08:07:58Z</time>
      </trkpt>
      <trkpt lat="43.48705" lon="6.91738">
        <ele>222</ele>
        <time>2011-01-09T08:07:59Z</time>
      </trkpt>
      <trkpt lat="43.48698" lon="6.91732">
        <ele>223</ele>
        <time>2011-01-09T08:08:03Z</time>
      </trkpt>
      <trkpt lat="43.48696" lon="6.91731">
        <ele>223</ele>
        <time>2011-01-09T08:08:04Z</time>
      </trkpt>
      <trkpt lat="43.48693" lon="6.91728">
        <ele>223</ele>
        <time>2011-01-09T08:08:06Z</time>
      </trkpt>
      <trkpt lat="43.48685" lon="6.91719">
        <ele>224</ele>
        <time>2011-01-09T08:08:11Z</time>
      </trkpt>
      <trkpt lat="43.48677" lon="6.91712">
        <ele>225</ele>
        <time>2011-01-09T08:08:16Z</time>
      </trkpt>
      <trkpt lat="43.48674" lon="6.91709">
        <ele>225</ele>
        <time>2011-01-09T08:08:18Z</time>
      </trkpt>
      <trkpt lat="43.48667" lon="6.91702">
        <ele>225</ele>
        <time>2011-01-09T08:08:22Z</time>
      </trkpt>
      <trkpt lat="43.48665" lon="6.91701">
        <ele>225</ele>
        <time>2011-01-09T08:08:23Z</time>
      </trkpt>
      <trkpt lat="43.48658" lon="6.91692">
        <ele>226</ele>
        <time>2011-01-09T08:08:28Z</time>
      </trkpt>
      <trkpt lat="43.48656" lon="6.9169">
        <ele>226</ele>
        <time>2011-01-09T08:08:29Z</time>
      </trkpt>
      <trkpt lat="43.48652" lon="6.91685">
        <ele>227</ele>
        <time>2011-01-09T08:08:32Z</time>
      </trkpt>
      <trkpt lat="43.48646" lon="6.91678">
        <ele>227</ele>
        <time>2011-01-09T08:08:36Z</time>
      </trkpt>
      <trkpt lat="43.48641" lon="6.91668">
        <ele>228</ele>
        <time>2011-01-09T08:08:41Z</time>
      </trkpt>
      <trkpt lat="43.48639" lon="6.91664">
        <ele>229</ele>
        <time>2011-01-09T08:08:43Z</time>
      </trkpt>
      <trkpt lat="43.48636" lon="6.9166">
        <ele>229</ele>
        <time>2011-01-09T08:08:45Z</time>
      </trkpt>
      <trkpt lat="43.48634" lon="6.91656">
        <ele>229</ele>
        <time>2011-01-09T08:08:47Z</time>
      </trkpt>
      <trkpt lat="43.48628" lon="6.91644">
        <ele>230</ele>
        <time>2011-01-09T08:08:53Z</time>
      </trkpt>
      <trkpt lat="43.48627" lon="6.91642">
        <ele>231</ele>
        <time>2011-01-09T08:08:54Z</time>
      </trkpt>
      <trkpt lat="43.48626" lon="6.91641">
        <ele>231</ele>
        <time>2011-01-09T08:08:55Z</time>
      </trkpt>
      <trkpt lat="43.48624" lon="6.91637">
        <ele>231</ele>
        <time>2011-01-09T08:08:57Z</time>
      </trkpt>
      <trkpt lat="43.48623" lon="6.91635">
        <ele>231</ele>
        <time>2011-01-09T08:08:58Z</time>
      </trkpt>
      <trkpt lat="43.48622" lon="6.91633">
        <ele>231</ele>
        <time>2011-01-09T08:08:59Z</time>
      </trkpt>
      <trkpt lat="43.48621" lon="6.91631">
        <ele>232</ele>
        <time>2011-01-09T08:09:00Z</time>
      </trkpt>
      <trkpt lat="43.4862" lon="6.91629">
        <ele>232</ele>
        <time>2011-01-09T08:09:01Z</time>
      </trkpt>
      <trkpt lat="43.48618" lon="6.91625">
        <ele>232</ele>
        <time>2011-01-09T08:09:03Z</time>
      </trkpt>
      <trkpt lat="43.48614" lon="6.91619">
        <ele>232</ele>
        <time>2011-01-09T08:09:06Z</time>
      </trkpt>
      <trkpt lat="43.4861" lon="6.91612">
        <ele>233</ele>
        <time>2011-01-09T08:09:10Z</time>
      </trkpt>
      <trkpt lat="43.48608" lon="6.91607">
        <ele>234</ele>
        <time>2011-01-09T08:09:12Z</time>
      </trkpt>
      <trkpt lat="43.48604" lon="6.91602">
        <ele>234</ele>
        <time>2011-01-09T08:09:15Z</time>
      </trkpt>
      <trkpt lat="43.48601" lon="6.91595">
        <ele>235</ele>
        <time>2011-01-09T08:09:18Z</time>
      </trkpt>
      <trkpt lat="43.486" lon="6.91593">
        <ele>235</ele>
        <time>2011-01-09T08:09:19Z</time>
      </trkpt>
      <trkpt lat="43.48599" lon="6.91586">
        <ele>236</ele>
        <time>2011-01-09T08:09:22Z</time>
      </trkpt>
      <trkpt lat="43.48598" lon="6.91583">
        <ele>236</ele>
        <time>2011-01-09T08:09:23Z</time>
      </trkpt>
      <trkpt lat="43.48598" lon="6.91578">
        <ele>236</ele>
        <time>2011-01-09T08:09:25Z</time>
      </trkpt>
      <trkpt lat="43.48597" lon="6.91575">
        <ele>237</ele>
        <time>2011-01-09T08:09:26Z</time>
      </trkpt>
      <trkpt lat="43.48597" lon="6.91573">
        <ele>237</ele>
        <time>2011-01-09T08:09:27Z</time>
      </trkpt>
      <trkpt lat="43.48596" lon="6.91568">
        <ele>237</ele>
        <time>2011-01-09T08:09:29Z</time>
      </trkpt>
      <trkpt lat="43.48596" lon="6.91565">
        <ele>237</ele>
        <time>2011-01-09T08:09:30Z</time>
      </trkpt>
      <trkpt lat="43.48593" lon="6.9156">
        <ele>237</ele>
        <time>2011-01-09T08:09:32Z</time>
      </trkpt>
      <trkpt lat="43.48592" lon="6.91557">
        <ele>237</ele>
        <time>2011-01-09T08:09:33Z</time>
      </trkpt>
      <trkpt lat="43.4859" lon="6.91554">
        <ele>237</ele>
        <time>2011-01-09T08:09:34Z</time>
      </trkpt>
      <trkpt lat="43.48588" lon="6.91552">
        <ele>237</ele>
        <time>2011-01-09T08:09:35Z</time>
      </trkpt>
      <trkpt lat="43.48585" lon="6.9155">
        <ele>237</ele>
        <time>2011-01-09T08:09:36Z</time>
      </trkpt>
      <trkpt lat="43.48583" lon="6.91549">
        <ele>237</ele>
        <time>2011-01-09T08:09:37Z</time>
      </trkpt>
      <trkpt lat="43.48581" lon="6.91547">
        <ele>237</ele>
        <time>2011-01-09T08:09:38Z</time>
      </trkpt>
      <trkpt lat="43.48578" lon="6.91547">
        <ele>237</ele>
        <time>2011-01-09T08:09:39Z</time>
      </trkpt>
      <trkpt lat="43.48573" lon="6.91546">
        <ele>237</ele>
        <time>2011-01-09T08:09:41Z</time>
      </trkpt>
      <trkpt lat="43.48564" lon="6.91546">
        <ele>237</ele>
        <time>2011-01-09T08:09:45Z</time>
      </trkpt>
      <trkpt lat="43.4856" lon="6.91546">
        <ele>238</ele>
        <time>2011-01-09T08:09:47Z</time>
      </trkpt>
      <trkpt lat="43.48557" lon="6.91546">
        <ele>238</ele>
        <time>2011-01-09T08:09:48Z</time>
      </trkpt>
      <trkpt lat="43.48554" lon="6.91545">
        <ele>238</ele>
        <time>2011-01-09T08:09:50Z</time>
      </trkpt>
      <trkpt lat="43.4855" lon="6.91544">
        <ele>239</ele>
        <time>2011-01-09T08:09:52Z</time>
      </trkpt>
      <trkpt lat="43.48544" lon="6.91543">
        <ele>239</ele>
        <time>2011-01-09T08:09:55Z</time>
      </trkpt>
      <trkpt lat="43.48534" lon="6.91542">
        <ele>241</ele>
        <time>2011-01-09T08:10:00Z</time>
      </trkpt>
      <trkpt lat="43.48532" lon="6.91541">
        <ele>241</ele>
        <time>2011-01-09T08:10:01Z</time>
      </trkpt>
      <trkpt lat="43.48527" lon="6.9154">
        <ele>242</ele>
        <time>2011-01-09T08:10:04Z</time>
      </trkpt>
      <trkpt lat="43.48525" lon="6.9154">
        <ele>242</ele>
        <time>2011-01-09T08:10:05Z</time>
      </trkpt>
      <trkpt lat="43.48521" lon="6.9154">
        <ele>242</ele>
        <time>2011-01-09T08:10:07Z</time>
      </trkpt>
      <trkpt lat="43.48519" lon="6.9154">
        <ele>242</ele>
        <time>2011-01-09T08:10:08Z</time>
      </trkpt>
      <trkpt lat="43.48515" lon="6.91542">
        <ele>243</ele>
        <time>2011-01-09T08:10:10Z</time>
      </trkpt>
      <trkpt lat="43.48513" lon="6.91543">
        <ele>243</ele>
        <time>2011-01-09T08:10:11Z</time>
      </trkpt>
      <trkpt lat="43.4851" lon="6.91546">
        <ele>243</ele>
        <time>2011-01-09T08:10:13Z</time>
      </trkpt>
      <trkpt lat="43.48507" lon="6.9155">
        <ele>244</ele>
        <time>2011-01-09T08:10:15Z</time>
      </trkpt>
      <trkpt lat="43.48505" lon="6.91551">
        <ele>244</ele>
        <time>2011-01-09T08:10:16Z</time>
      </trkpt>
      <trkpt lat="43.48495" lon="6.91556">
        <ele>245</ele>
        <time>2011-01-09T08:10:22Z</time>
      </trkpt>
      <trkpt lat="43.48493" lon="6.91557">
        <ele>246</ele>
        <time>2011-01-09T08:10:23Z</time>
      </trkpt>
      <trkpt lat="43.48487" lon="6.91558">
        <ele>246</ele>
        <time>2011-01-09T08:10:26Z</time>
      </trkpt>
      <trkpt lat="43.48482" lon="6.9156">
        <ele>246</ele>
        <time>2011-01-09T08:10:29Z</time>
      </trkpt>
      <trkpt lat="43.48477" lon="6.91562">
        <ele>247</ele>
        <time>2011-01-09T08:10:32Z</time>
      </trkpt>
      <trkpt lat="43.48473" lon="6.91563">
        <ele>247</ele>
        <time>2011-01-09T08:10:34Z</time>
      </trkpt>
      <trkpt lat="43.48466" lon="6.91565">
        <ele>248</ele>
        <time>2011-01-09T08:10:38Z</time>
      </trkpt>
      <trkpt lat="43.48463" lon="6.91566">
        <ele>248</ele>
        <time>2011-01-09T08:10:40Z</time>
      </trkpt>
      <trkpt lat="43.48457" lon="6.91568">
        <ele>248</ele>
        <time>2011-01-09T08:10:43Z</time>
      </trkpt>
      <trkpt lat="43.4845" lon="6.9157">
        <ele>249</ele>
        <time>2011-01-09T08:10:47Z</time>
      </trkpt>
      <trkpt lat="43.48443" lon="6.91572">
        <ele>250</ele>
        <time>2011-01-09T08:10:51Z</time>
      </trkpt>
      <trkpt lat="43.48441" lon="6.91573">
        <ele>250</ele>
        <time>2011-01-09T08:10:52Z</time>
      </trkpt>
      <trkpt lat="43.48438" lon="6.91574">
        <ele>250</ele>
        <time>2011-01-09T08:10:54Z</time>
      </trkpt>
      <trkpt lat="43.4843" lon="6.91576">
        <ele>251</ele>
        <time>2011-01-09T08:10:58Z</time>
      </trkpt>
      <trkpt lat="43.48429" lon="6.91576">
        <ele>251</ele>
        <time>2011-01-09T08:10:59Z</time>
      </trkpt>
      <trkpt lat="43.48425" lon="6.91578">
        <ele>251</ele>
        <time>2011-01-09T08:11:01Z</time>
      </trkpt>
      <trkpt lat="43.48422" lon="6.91578">
        <ele>252</ele>
        <time>2011-01-09T08:11:03Z</time>
      </trkpt>
      <trkpt lat="43.4842" lon="6.91578">
        <ele>252</ele>
        <time>2011-01-09T08:11:04Z</time>
      </trkpt>
      <trkpt lat="43.4841" lon="6.91581">
        <ele>253</ele>
        <time>2011-01-09T08:11:09Z</time>
      </trkpt>
      <trkpt lat="43.48408" lon="6.91581">
        <ele>253</ele>
        <time>2011-01-09T08:11:10Z</time>
      </trkpt>
      <trkpt lat="43.48403" lon="6.91581">
        <ele>254</ele>
        <time>2011-01-09T08:11:13Z</time>
      </trkpt>
      <trkpt lat="43.48399" lon="6.9158">
        <ele>254</ele>
        <time>2011-01-09T08:11:15Z</time>
      </trkpt>
      <trkpt lat="43.4839" lon="6.91577">
        <ele>255</ele>
        <time>2011-01-09T08:11:20Z</time>
      </trkpt>
      <trkpt lat="43.48386" lon="6.91576">
        <ele>255</ele>
        <time>2011-01-09T08:11:22Z</time>
      </trkpt>
      <trkpt lat="43.48383" lon="6.91573">
        <ele>256</ele>
        <time>2011-01-09T08:11:24Z</time>
      </trkpt>
      <trkpt lat="43.4838" lon="6.91571">
        <ele>256</ele>
        <time>2011-01-09T08:11:26Z</time>
      </trkpt>
      <trkpt lat="43.48374" lon="6.91568">
        <ele>257</ele>
        <time>2011-01-09T08:11:29Z</time>
      </trkpt>
      <trkpt lat="43.48359" lon="6.9156">
        <ele>258</ele>
        <time>2011-01-09T08:11:38Z</time>
      </trkpt>
      <trkpt lat="43.48354" lon="6.91559">
        <ele>259</ele>
        <time>2011-01-09T08:11:41Z</time>
      </trkpt>
      <trkpt lat="43.48351" lon="6.91557">
        <ele>259</ele>
        <time>2011-01-09T08:11:43Z</time>
      </trkpt>
      <trkpt lat="43.48342" lon="6.91557">
        <ele>260</ele>
        <time>2011-01-09T08:11:48Z</time>
      </trkpt>
      <trkpt lat="43.48336" lon="6.91557">
        <ele>260</ele>
        <time>2011-01-09T08:11:51Z</time>
      </trkpt>
      <trkpt lat="43.48329" lon="6.91557">
        <ele>260</ele>
        <time>2011-01-09T08:11:55Z</time>
      </trkpt>
      <trkpt lat="43.48323" lon="6.91558">
        <ele>261</ele>
        <time>2011-01-09T08:11:58Z</time>
      </trkpt>
      <trkpt lat="43.48317" lon="6.91559">
        <ele>261</ele>
        <time>2011-01-09T08:12:01Z</time>
      </trkpt>
      <trkpt lat="43.4831" lon="6.91562">
        <ele>262</ele>
        <time>2011-01-09T08:12:05Z</time>
      </trkpt>
      <trkpt lat="43.48303" lon="6.91566">
        <ele>263</ele>
        <time>2011-01-09T08:12:09Z</time>
      </trkpt>
      <trkpt lat="43.48298" lon="6.91569">
        <ele>263</ele>
        <time>2011-01-09T08:12:12Z</time>
      </trkpt>
      <trkpt lat="43.48291" lon="6.91574">
        <ele>264</ele>
        <time>2011-01-09T08:12:16Z</time>
      </trkpt>
      <trkpt lat="43.48287" lon="6.91578">
        <ele>265</ele>
        <time>2011-01-09T08:12:19Z</time>
      </trkpt>
      <trkpt lat="43.48285" lon="6.9158">
        <ele>265</ele>
        <time>2011-01-09T08:12:20Z</time>
      </trkpt>
      <trkpt lat="43.48281" lon="6.91585">
        <ele>265</ele>
        <time>2011-01-09T08:12:23Z</time>
      </trkpt>
      <trkpt lat="43.4828" lon="6.91587">
        <ele>265</ele>
        <time>2011-01-09T08:12:24Z</time>
      </trkpt>
      <trkpt lat="43.48278" lon="6.91589">
        <ele>265</ele>
        <time>2011-01-09T08:12:25Z</time>
      </trkpt>
      <trkpt lat="43.48272" lon="6.91598">
        <ele>266</ele>
        <time>2011-01-09T08:12:30Z</time>
      </trkpt>
      <trkpt lat="43.48269" lon="6.91602">
        <ele>267</ele>
        <time>2011-01-09T08:12:32Z</time>
      </trkpt>
      <trkpt lat="43.48266" lon="6.91607">
        <ele>267</ele>
        <time>2011-01-09T08:12:35Z</time>
      </trkpt>
      <trkpt lat="43.48263" lon="6.91611">
        <ele>267</ele>
        <time>2011-01-09T08:12:37Z</time>
      </trkpt>
      <trkpt lat="43.48262" lon="6.91613">
        <ele>268</ele>
        <time>2011-01-09T08:12:38Z</time>
      </trkpt>
      <trkpt lat="43.48261" lon="6.91615">
        <ele>268</ele>
        <time>2011-01-09T08:12:39Z</time>
      </trkpt>
      <trkpt lat="43.4826" lon="6.91617">
        <ele>268</ele>
        <time>2011-01-09T08:12:40Z</time>
      </trkpt>
      <trkpt lat="43.48253" lon="6.91626">
        <ele>269</ele>
        <time>2011-01-09T08:12:45Z</time>
      </trkpt>
      <trkpt lat="43.48251" lon="6.91628">
        <ele>269</ele>
        <time>2011-01-09T08:12:46Z</time>
      </trkpt>
      <trkpt lat="43.48249" lon="6.91632">
        <ele>269</ele>
        <time>2011-01-09T08:12:48Z</time>
      </trkpt>
      <trkpt lat="43.48245" lon="6.91638">
        <ele>270</ele>
        <time>2011-01-09T08:12:51Z</time>
      </trkpt>
      <trkpt lat="43.4824" lon="6.91645">
        <ele>270</ele>
        <time>2011-01-09T08:12:55Z</time>
      </trkpt>
      <trkpt lat="43.48239" lon="6.91646">
        <ele>271</ele>
        <time>2011-01-09T08:12:56Z</time>
      </trkpt>
      <trkpt lat="43.48238" lon="6.91647">
        <ele>271</ele>
        <time>2011-01-09T08:12:57Z</time>
      </trkpt>
      <trkpt lat="43.48236" lon="6.91648">
        <ele>271</ele>
        <time>2011-01-09T08:12:58Z</time>
      </trkpt>
      <trkpt lat="43.48234" lon="6.91648">
        <ele>271</ele>
        <time>2011-01-09T08:12:59Z</time>
      </trkpt>
      <trkpt lat="43.48232" lon="6.91648">
        <ele>271</ele>
        <time>2011-01-09T08:13:00Z</time>
      </trkpt>
      <trkpt lat="43.48231" lon="6.91646">
        <ele>271</ele>
        <time>2011-01-09T08:13:01Z</time>
      </trkpt>
      <trkpt lat="43.4823" lon="6.91644">
        <ele>271</ele>
        <time>2011-01-09T08:13:02Z</time>
      </trkpt>
      <trkpt lat="43.48229" lon="6.91642">
        <ele>271</ele>
        <time>2011-01-09T08:13:03Z</time>
      </trkpt>
      <trkpt lat="43.48229" lon="6.9164">
        <ele>272</ele>
        <time>2011-01-09T08:13:04Z</time>
      </trkpt>
      <trkpt lat="43.4823" lon="6.91634">
        <ele>272</ele>
        <time>2011-01-09T08:13:06Z</time>
      </trkpt>
      <trkpt lat="43.48229" lon="6.91632">
        <ele>272</ele>
        <time>2011-01-09T08:13:07Z</time>
      </trkpt>
      <trkpt lat="43.48229" lon="6.9163">
        <ele>272</ele>
        <time>2011-01-09T08:13:08Z</time>
      </trkpt>
      <trkpt lat="43.48228" lon="6.91626">
        <ele>273</ele>
        <time>2011-01-09T08:13:10Z</time>
      </trkpt>
      <trkpt lat="43.48228" lon="6.91621">
        <ele>273</ele>
        <time>2011-01-09T08:13:12Z</time>
      </trkpt>
      <trkpt lat="43.48227" lon="6.91616">
        <ele>274</ele>
        <time>2011-01-09T08:13:14Z</time>
      </trkpt>
      <trkpt lat="43.48227" lon="6.91614">
        <ele>274</ele>
        <time>2011-01-09T08:13:15Z</time>
      </trkpt>
      <trkpt lat="43.48227" lon="6.91612">
        <ele>274</ele>
        <time>2011-01-09T08:13:16Z</time>
      </trkpt>
      <trkpt lat="43.48226" lon="6.91604">
        <ele>275</ele>
        <time>2011-01-09T08:13:19Z</time>
      </trkpt>
      <trkpt lat="43.48226" lon="6.91599">
        <ele>275</ele>
        <time>2011-01-09T08:13:21Z</time>
      </trkpt>
      <trkpt lat="43.48225" lon="6.91594">
        <ele>276</ele>
        <time>2011-01-09T08:13:23Z</time>
      </trkpt>
      <trkpt lat="43.48225" lon="6.91592">
        <ele>276</ele>
        <time>2011-01-09T08:13:24Z</time>
      </trkpt>
      <trkpt lat="43.48225" lon="6.91582">
        <ele>277</ele>
        <time>2011-01-09T08:13:28Z</time>
      </trkpt>
      <trkpt lat="43.48224" lon="6.91578">
        <ele>278</ele>
        <time>2011-01-09T08:13:30Z</time>
      </trkpt>
      <trkpt lat="43.48224" lon="6.91573">
        <ele>278</ele>
        <time>2011-01-09T08:13:32Z</time>
      </trkpt>
      <trkpt lat="43.48225" lon="6.91565">
        <ele>279</ele>
        <time>2011-01-09T08:13:37Z</time>
      </trkpt>
      <trkpt lat="43.48225" lon="6.91563">
        <ele>280</ele>
        <time>2011-01-09T08:13:38Z</time>
      </trkpt>
      <trkpt lat="43.48225" lon="6.91561">
        <ele>280</ele>
        <time>2011-01-09T08:13:39Z</time>
      </trkpt>
      <trkpt lat="43.48225" lon="6.9156">
        <ele>280</ele>
        <time>2011-01-09T08:13:40Z</time>
      </trkpt>
      <trkpt lat="43.48224" lon="6.9156">
        <ele>280</ele>
        <time>2011-01-09T08:15:02Z</time>
      </trkpt>
      <trkpt lat="43.48225" lon="6.91557">
        <ele>280</ele>
        <time>2011-01-09T08:15:04Z</time>
      </trkpt>
      <trkpt lat="43.48225" lon="6.91551">
        <ele>281</ele>
        <time>2011-01-09T08:15:07Z</time>
      </trkpt>
      <trkpt lat="43.48225" lon="6.91547">
        <ele>281</ele>
        <time>2011-01-09T08:15:09Z</time>
      </trkpt>
      <trkpt lat="43.48225" lon="6.91545">
        <ele>281</ele>
        <time>2011-01-09T08:15:10Z</time>
      </trkpt>
      <trkpt lat="43.48225" lon="6.91543">
        <ele>282</ele>
        <time>2011-01-09T08:15:11Z</time>
      </trkpt>
      <trkpt lat="43.48225" lon="6.91536">
        <ele>283</ele>
        <time>2011-01-09T08:15:14Z</time>
      </trkpt>
      <trkpt lat="43.48225" lon="6.91531">
        <ele>284</ele>
        <time>2011-01-09T08:15:16Z</time>
      </trkpt>
      <trkpt lat="43.48224" lon="6.91527">
        <ele>284</ele>
        <time>2011-01-09T08:15:18Z</time>
      </trkpt>
      <trkpt lat="43.48224" lon="6.91517">
        <ele>285</ele>
        <time>2011-01-09T08:15:22Z</time>
      </trkpt>
      <trkpt lat="43.48223" lon="6.91513">
        <ele>286</ele>
        <time>2011-01-09T08:15:24Z</time>
      </trkpt>
      <trkpt lat="43.48221" lon="6.91504">
        <ele>287</ele>
        <time>2011-01-09T08:15:28Z</time>
      </trkpt>
      <trkpt lat="43.4822" lon="6.91499">
        <ele>288</ele>
        <time>2011-01-09T08:15:31Z</time>
      </trkpt>
      <trkpt lat="43.48218" lon="6.91493">
        <ele>288</ele>
        <time>2011-01-09T08:15:34Z</time>
      </trkpt>
      <trkpt lat="43.48218" lon="6.91489">
        <ele>289</ele>
        <time>2011-01-09T08:15:36Z</time>
      </trkpt>
      <trkpt lat="43.48218" lon="6.91484">
        <ele>289</ele>
        <time>2011-01-09T08:15:38Z</time>
      </trkpt>
      <trkpt lat="43.48218" lon="6.91483">
        <ele>289</ele>
        <time>2011-01-09T08:15:39Z</time>
      </trkpt>
      <trkpt lat="43.48217" lon="6.9148">
        <ele>290</ele>
        <time>2011-01-09T08:15:40Z</time>
      </trkpt>
      <trkpt lat="43.48216" lon="6.91476">
        <ele>290</ele>
        <time>2011-01-09T08:15:42Z</time>
      </trkpt>
      <trkpt lat="43.48215" lon="6.91472">
        <ele>290</ele>
        <time>2011-01-09T08:15:44Z</time>
      </trkpt>
      <trkpt lat="43.48215" lon="6.9147">
        <ele>291</ele>
        <time>2011-01-09T08:15:45Z</time>
      </trkpt>
      <trkpt lat="43.48214" lon="6.91465">
        <ele>291</ele>
        <time>2011-01-09T08:15:47Z</time>
      </trkpt>
      <trkpt lat="43.48213" lon="6.91463">
        <ele>291</ele>
        <time>2011-01-09T08:15:48Z</time>
      </trkpt>
      <trkpt lat="43.48213" lon="6.91459">
        <ele>292</ele>
        <time>2011-01-09T08:15:50Z</time>
      </trkpt>
      <trkpt lat="43.48212" lon="6.91457">
        <ele>292</ele>
        <time>2011-01-09T08:15:51Z</time>
      </trkpt>
      <trkpt lat="43.48209" lon="6.91451">
        <ele>292</ele>
        <time>2011-01-09T08:15:55Z</time>
      </trkpt>
      <trkpt lat="43.48203" lon="6.91441">
        <ele>294</ele>
        <time>2011-01-09T08:16:01Z</time>
      </trkpt>
      <trkpt lat="43.48198" lon="6.91435">
        <ele>294</ele>
        <time>2011-01-09T08:16:05Z</time>
      </trkpt>
      <trkpt lat="43.48197" lon="6.91433">
        <ele>295</ele>
        <time>2011-01-09T08:16:06Z</time>
      </trkpt>
      <trkpt lat="43.48193" lon="6.91429">
        <ele>295</ele>
        <time>2011-01-09T08:16:09Z</time>
      </trkpt>
      <trkpt lat="43.48189" lon="6.91425">
        <ele>296</ele>
        <time>2011-01-09T08:16:12Z</time>
      </trkpt>
      <trkpt lat="43.48187" lon="6.91422">
        <ele>297</ele>
        <time>2011-01-09T08:16:14Z</time>
      </trkpt>
      <trkpt lat="43.48184" lon="6.9142">
        <ele>297</ele>
        <time>2011-01-09T08:16:16Z</time>
      </trkpt>
      <trkpt lat="43.48183" lon="6.91419">
        <ele>297</ele>
        <time>2011-01-09T08:16:17Z</time>
      </trkpt>
      <trkpt lat="43.4818" lon="6.91417">
        <ele>298</ele>
        <time>2011-01-09T08:16:19Z</time>
      </trkpt>
      <trkpt lat="43.48178" lon="6.91415">
        <ele>298</ele>
        <time>2011-01-09T08:16:20Z</time>
      </trkpt>
      <trkpt lat="43.48175" lon="6.91413">
        <ele>298</ele>
        <time>2011-01-09T08:16:22Z</time>
      </trkpt>
      <trkpt lat="43.48173" lon="6.91411">
        <ele>299</ele>
        <time>2011-01-09T08:16:24Z</time>
      </trkpt>
      <trkpt lat="43.48171" lon="6.9141">
        <ele>299</ele>
        <time>2011-01-09T08:16:25Z</time>
      </trkpt>
      <trkpt lat="43.4817" lon="6.91409">
        <ele>299</ele>
        <time>2011-01-09T08:16:26Z</time>
      </trkpt>
      <trkpt lat="43.48168" lon="6.91409">
        <ele>300</ele>
        <time>2011-01-09T08:16:27Z</time>
      </trkpt>
      <trkpt lat="43.48167" lon="6.91408">
        <ele>300</ele>
        <time>2011-01-09T08:16:28Z</time>
      </trkpt>
      <trkpt lat="43.48161" lon="6.91405">
        <ele>301</ele>
        <time>2011-01-09T08:16:32Z</time>
      </trkpt>
      <trkpt lat="43.48159" lon="6.91404">
        <ele>301</ele>
        <time>2011-01-09T08:16:34Z</time>
      </trkpt>
      <trkpt lat="43.48157" lon="6.91403">
        <ele>301</ele>
        <time>2011-01-09T08:16:35Z</time>
      </trkpt>
      <trkpt lat="43.48154" lon="6.91402">
        <ele>301</ele>
        <time>2011-01-09T08:16:37Z</time>
      </trkpt>
      <trkpt lat="43.48152" lon="6.91401">
        <ele>302</ele>
        <time>2011-01-09T08:16:38Z</time>
      </trkpt>
      <trkpt lat="43.48146" lon="6.91399">
        <ele>303</ele>
        <time>2011-01-09T08:16:42Z</time>
      </trkpt>
      <trkpt lat="43.48142" lon="6.91396">
        <ele>303</ele>
        <time>2011-01-09T08:16:45Z</time>
      </trkpt>
      <trkpt lat="43.4814" lon="6.91394">
        <ele>304</ele>
        <time>2011-01-09T08:16:47Z</time>
      </trkpt>
      <trkpt lat="43.48132" lon="6.91386">
        <ele>305</ele>
        <time>2011-01-09T08:16:53Z</time>
      </trkpt>
      <trkpt lat="43.48128" lon="6.91382">
        <ele>305</ele>
        <time>2011-01-09T08:16:56Z</time>
      </trkpt>
      <trkpt lat="43.48123" lon="6.91375">
        <ele>306</ele>
        <time>2011-01-09T08:17:00Z</time>
      </trkpt>
      <trkpt lat="43.48122" lon="6.91372">
        <ele>306</ele>
        <time>2011-01-09T08:17:01Z</time>
      </trkpt>
      <trkpt lat="43.48121" lon="6.91369">
        <ele>306</ele>
        <time>2011-01-09T08:17:03Z</time>
      </trkpt>
      <trkpt lat="43.48119" lon="6.91364">
        <ele>307</ele>
        <time>2011-01-09T08:17:05Z</time>
      </trkpt>
      <trkpt lat="43.48116" lon="6.91354">
        <ele>308</ele>
        <time>2011-01-09T08:17:10Z</time>
      </trkpt>
      <trkpt lat="43.48115" lon="6.91349">
        <ele>308</ele>
        <time>2011-01-09T08:17:12Z</time>
      </trkpt>
      <trkpt lat="43.48115" lon="6.91347">
        <ele>309</ele>
        <time>2011-01-09T08:17:13Z</time>
      </trkpt>
      <trkpt lat="43.48113" lon="6.91341">
        <ele>309</ele>
        <time>2011-01-09T08:17:16Z</time>
      </trkpt>
      <trkpt lat="43.48113" lon="6.91336">
        <ele>309</ele>
        <time>2011-01-09T08:17:18Z</time>
      </trkpt>
      <trkpt lat="43.48113" lon="6.91334">
        <ele>309</ele>
        <time>2011-01-09T08:17:19Z</time>
      </trkpt>
      <trkpt lat="43.48112" lon="6.91329">
        <ele>310</ele>
        <time>2011-01-09T08:17:21Z</time>
      </trkpt>
      <trkpt lat="43.48111" lon="6.91323">
        <ele>311</ele>
        <time>2011-01-09T08:17:24Z</time>
      </trkpt>
      <trkpt lat="43.4811" lon="6.9132">
        <ele>311</ele>
        <time>2011-01-09T08:17:25Z</time>
      </trkpt>
      <trkpt lat="43.4811" lon="6.91318">
        <ele>311</ele>
        <time>2011-01-09T08:17:26Z</time>
      </trkpt>
      <trkpt lat="43.48108" lon="6.9131">
        <ele>312</ele>
        <time>2011-01-09T08:17:30Z</time>
      </trkpt>
      <trkpt lat="43.48106" lon="6.91304">
        <ele>313</ele>
        <time>2011-01-09T08:17:33Z</time>
      </trkpt>
      <trkpt lat="43.48105" lon="6.91298">
        <ele>313</ele>
        <time>2011-01-09T08:17:36Z</time>
      </trkpt>
      <trkpt lat="43.48103" lon="6.91291">
        <ele>314</ele>
        <time>2011-01-09T08:17:39Z</time>
      </trkpt>
      <trkpt lat="43.48103" lon="6.91289">
        <ele>314</ele>
        <time>2011-01-09T08:17:40Z</time>
      </trkpt>
      <trkpt lat="43.48102" lon="6.91287">
        <ele>314</ele>
        <time>2011-01-09T08:17:41Z</time>
      </trkpt>
      <trkpt lat="43.48101" lon="6.91281">
        <ele>315</ele>
        <time>2011-01-09T08:17:44Z</time>
      </trkpt>
      <trkpt lat="43.48099" lon="6.91277">
        <ele>315</ele>
        <time>2011-01-09T08:17:46Z</time>
      </trkpt>
      <trkpt lat="43.48097" lon="6.91271">
        <ele>316</ele>
        <time>2011-01-09T08:17:49Z</time>
      </trkpt>
      <trkpt lat="43.48097" lon="6.91268">
        <ele>316</ele>
        <time>2011-01-09T08:17:50Z</time>
      </trkpt>
      <trkpt lat="43.48094" lon="6.9126">
        <ele>317</ele>
        <time>2011-01-09T08:17:54Z</time>
      </trkpt>
      <trkpt lat="43.48093" lon="6.91258">
        <ele>317</ele>
        <time>2011-01-09T08:17:55Z</time>
      </trkpt>
      <trkpt lat="43.48091" lon="6.9125">
        <ele>318</ele>
        <time>2011-01-09T08:17:59Z</time>
      </trkpt>
      <trkpt lat="43.48089" lon="6.91247">
        <ele>318</ele>
        <time>2011-01-09T08:18:01Z</time>
      </trkpt>
      <trkpt lat="43.48087" lon="6.91243">
        <ele>318</ele>
        <time>2011-01-09T08:18:03Z</time>
      </trkpt>
      <trkpt lat="43.48083" lon="6.91231">
        <ele>320</ele>
        <time>2011-01-09T08:18:09Z</time>
      </trkpt>
      <trkpt lat="43.48081" lon="6.91229">
        <ele>320</ele>
        <time>2011-01-09T08:18:11Z</time>
      </trkpt>
      <trkpt lat="43.48078" lon="6.91227">
        <ele>321</ele>
        <time>2011-01-09T08:18:14Z</time>
      </trkpt>
      <trkpt lat="43.48077" lon="6.91226">
        <ele>321</ele>
        <time>2011-01-09T08:18:15Z</time>
      </trkpt>
      <trkpt lat="43.48075" lon="6.91223">
        <ele>320</ele>
        <time>2011-01-09T08:18:18Z</time>
      </trkpt>
      <trkpt lat="43.48073" lon="6.91219">
        <ele>321</ele>
        <time>2011-01-09T08:18:22Z</time>
      </trkpt>
      <trkpt lat="43.48069" lon="6.9121">
        <ele>322</ele>
        <time>2011-01-09T08:18:29Z</time>
      </trkpt>
      <trkpt lat="43.48068" lon="6.91209">
        <ele>323</ele>
        <time>2011-01-09T08:18:30Z</time>
      </trkpt>
      <trkpt lat="43.48063" lon="6.912">
        <ele>324</ele>
        <time>2011-01-09T08:18:36Z</time>
      </trkpt>
      <trkpt lat="43.48061" lon="6.91197">
        <ele>324</ele>
        <time>2011-01-09T08:18:38Z</time>
      </trkpt>
      <trkpt lat="43.48061" lon="6.91195">
        <ele>324</ele>
        <time>2011-01-09T08:18:39Z</time>
      </trkpt>
      <trkpt lat="43.48059" lon="6.91193">
        <ele>324</ele>
        <time>2011-01-09T08:18:41Z</time>
      </trkpt>
      <trkpt lat="43.48057" lon="6.9119">
        <ele>324</ele>
        <time>2011-01-09T08:18:43Z</time>
      </trkpt>
      <trkpt lat="43.48055" lon="6.91187">
        <ele>323</ele>
        <time>2011-01-09T08:18:46Z</time>
      </trkpt>
      <trkpt lat="43.48054" lon="6.91186">
        <ele>323</ele>
        <time>2011-01-09T08:18:47Z</time>
      </trkpt>
      <trkpt lat="43.48054" lon="6.91184">
        <ele>323</ele>
        <time>2011-01-09T08:18:48Z</time>
      </trkpt>
      <trkpt lat="43.48055" lon="6.91182">
        <ele>323</ele>
        <time>2011-01-09T08:18:49Z</time>
      </trkpt>
      <trkpt lat="43.48056" lon="6.91181">
        <ele>323</ele>
        <time>2011-01-09T08:18:50Z</time>
      </trkpt>
      <trkpt lat="43.48058" lon="6.91178">
        <ele>323</ele>
        <time>2011-01-09T08:18:52Z</time>
      </trkpt>
      <trkpt lat="43.48059" lon="6.91175">
        <ele>323</ele>
        <time>2011-01-09T08:18:54Z</time>
      </trkpt>
      <trkpt lat="43.48059" lon="6.91173">
        <ele>323</ele>
        <time>2011-01-09T08:18:55Z</time>
      </trkpt>
      <trkpt lat="43.48059" lon="6.91171">
        <ele>323</ele>
        <time>2011-01-09T08:18:57Z</time>
      </trkpt>
      <trkpt lat="43.48058" lon="6.9117">
        <ele>323</ele>
        <time>2011-01-09T08:18:58Z</time>
      </trkpt>
      <trkpt lat="43.48058" lon="6.91166">
        <ele>323</ele>
        <time>2011-01-09T08:19:01Z</time>
      </trkpt>
      <trkpt lat="43.48058" lon="6.91164">
        <ele>323</ele>
        <time>2011-01-09T08:19:03Z</time>
      </trkpt>
      <trkpt lat="43.48057" lon="6.91163">
        <ele>323</ele>
        <time>2011-01-09T08:19:04Z</time>
      </trkpt>
      <trkpt lat="43.48053" lon="6.9116">
        <ele>323</ele>
        <time>2011-01-09T08:19:07Z</time>
      </trkpt>
      <trkpt lat="43.4805" lon="6.91157">
        <ele>323</ele>
        <time>2011-01-09T08:19:11Z</time>
      </trkpt>
      <trkpt lat="43.4805" lon="6.91156">
        <ele>323</ele>
        <time>2011-01-09T08:19:12Z</time>
      </trkpt>
      <trkpt lat="43.48049" lon="6.91155">
        <ele>323</ele>
        <time>2011-01-09T08:19:13Z</time>
      </trkpt>
      <trkpt lat="43.48047" lon="6.91155">
        <ele>323</ele>
        <time>2011-01-09T08:19:14Z</time>
      </trkpt>
      <trkpt lat="43.48046" lon="6.91155">
        <ele>323</ele>
        <time>2011-01-09T08:19:16Z</time>
      </trkpt>
      <trkpt lat="43.48044" lon="6.91155">
        <ele>323</ele>
        <time>2011-01-09T08:19:18Z</time>
      </trkpt>
      <trkpt lat="43.48043" lon="6.91155">
        <ele>323</ele>
        <time>2011-01-09T08:19:19Z</time>
      </trkpt>
      <trkpt lat="43.48043" lon="6.91155">
        <ele>324</ele>
        <time>2011-01-09T08:21:16Z</time>
      </trkpt>
      <trkpt lat="43.48043" lon="6.91156">
        <ele>324</ele>
        <time>2011-01-09T08:21:51Z</time>
      </trkpt>
      <trkpt lat="43.48042" lon="6.91156">
        <ele>324</ele>
        <time>2011-01-09T08:21:57Z</time>
      </trkpt>
      <trkpt lat="43.48042" lon="6.91156">
        <ele>324</ele>
        <time>2011-01-09T08:21:59Z</time>
      </trkpt>
      <trkpt lat="43.48042" lon="6.91156">
        <ele>324</ele>
        <time>2011-01-09T08:22:04Z</time>
      </trkpt>
      <trkpt lat="43.48042" lon="6.91156">
        <ele>324</ele>
        <time>2011-01-09T08:22:17Z</time>
      </trkpt>
      <trkpt lat="43.48042" lon="6.91157">
        <ele>324</ele>
        <time>2011-01-09T08:22:28Z</time>
      </trkpt>
      <trkpt lat="43.48043" lon="6.91157">
        <ele>324</ele>
        <time>2011-01-09T08:22:50Z</time>
      </trkpt>
      <trkpt lat="43.48042" lon="6.91155">
        <ele>324</ele>
        <time>2011-01-09T08:22:51Z</time>
      </trkpt>
      <trkpt lat="43.48036" lon="6.91145">
        <ele>323</ele>
        <time>2011-01-09T08:22:55Z</time>
      </trkpt>
      <trkpt lat="43.48032" lon="6.91138">
        <ele>321</ele>
        <time>2011-01-09T08:22:57Z</time>
      </trkpt>
      <trkpt lat="43.48028" lon="6.91133">
        <ele>321</ele>
        <time>2011-01-09T08:22:59Z</time>
      </trkpt>
      <trkpt lat="43.48019" lon="6.9112">
        <ele>319</ele>
        <time>2011-01-09T08:23:04Z</time>
      </trkpt>
      <trkpt lat="43.48012" lon="6.91109">
        <ele>317</ele>
        <time>2011-01-09T08:23:07Z</time>
      </trkpt>
      <trkpt lat="43.48007" lon="6.91098">
        <ele>315</ele>
        <time>2011-01-09T08:23:09Z</time>
      </trkpt>
      <trkpt lat="43.47971" lon="6.91018">
        <ele>307</ele>
        <time>2011-01-09T08:23:20Z</time>
      </trkpt>
      <trkpt lat="43.47929" lon="6.90961">
        <ele>299</ele>
        <time>2011-01-09T08:23:30Z</time>
      </trkpt>
      <trkpt lat="43.47925" lon="6.90957">
        <ele>298</ele>
        <time>2011-01-09T08:23:31Z</time>
      </trkpt>
      <trkpt lat="43.47922" lon="6.90952">
        <ele>297</ele>
        <time>2011-01-09T08:23:32Z</time>
      </trkpt>
      <trkpt lat="43.47919" lon="6.90947">
        <ele>297</ele>
        <time>2011-01-09T08:23:33Z</time>
      </trkpt>
      <trkpt lat="43.47916" lon="6.90942">
        <ele>296</ele>
        <time>2011-01-09T08:23:34Z</time>
      </trkpt>
      <trkpt lat="43.47913" lon="6.90936">
        <ele>295</ele>
        <time>2011-01-09T08:23:35Z</time>
      </trkpt>
      <trkpt lat="43.47911" lon="6.9093">
        <ele>294</ele>
        <time>2011-01-09T08:23:36Z</time>
      </trkpt>
      <trkpt lat="43.47909" lon="6.90924">
        <ele>293</ele>
        <time>2011-01-09T08:23:37Z</time>
      </trkpt>
      <trkpt lat="43.47904" lon="6.90913">
        <ele>292</ele>
        <time>2011-01-09T08:23:39Z</time>
      </trkpt>
      <trkpt lat="43.47901" lon="6.90908">
        <ele>291</ele>
        <time>2011-01-09T08:23:40Z</time>
      </trkpt>
      <trkpt lat="43.47897" lon="6.90903">
        <ele>290</ele>
        <time>2011-01-09T08:23:41Z</time>
      </trkpt>
      <trkpt lat="43.47893" lon="6.909">
        <ele>289</ele>
        <time>2011-01-09T08:23:42Z</time>
      </trkpt>
      <trkpt lat="43.47888" lon="6.90897">
        <ele>289</ele>
        <time>2011-01-09T08:23:43Z</time>
      </trkpt>
      <trkpt lat="43.47874" lon="6.90874">
        <ele>285</ele>
        <time>2011-01-09T08:23:53Z</time>
      </trkpt>
      <trkpt lat="43.47875" lon="6.90872">
        <ele>285</ele>
        <time>2011-01-09T08:23:54Z</time>
      </trkpt>
      <trkpt lat="43.47878" lon="6.90866">
        <ele>285</ele>
        <time>2011-01-09T08:23:56Z</time>
      </trkpt>
      <trkpt lat="43.47879" lon="6.90865">
        <ele>285</ele>
        <time>2011-01-09T08:23:57Z</time>
      </trkpt>
      <trkpt lat="43.4788" lon="6.90863">
        <ele>285</ele>
        <time>2011-01-09T08:23:58Z</time>
      </trkpt>
      <trkpt lat="43.4788" lon="6.90862">
        <ele>286</ele>
        <time>2011-01-09T08:23:59Z</time>
      </trkpt>
      <trkpt lat="43.4788" lon="6.90862">
        <ele>286</ele>
        <time>2011-01-09T08:24:03Z</time>
      </trkpt>
      <trkpt lat="43.4788" lon="6.9086">
        <ele>286</ele>
        <time>2011-01-09T08:24:05Z</time>
      </trkpt>
      <trkpt lat="43.47881" lon="6.9086">
        <ele>286</ele>
        <time>2011-01-09T08:24:06Z</time>
      </trkpt>
      <trkpt lat="43.47883" lon="6.90859">
        <ele>286</ele>
        <time>2011-01-09T08:24:07Z</time>
      </trkpt>
      <trkpt lat="43.47885" lon="6.90857">
        <ele>286</ele>
        <time>2011-01-09T08:24:08Z</time>
      </trkpt>
      <trkpt lat="43.47885" lon="6.90857">
        <ele>286</ele>
        <time>2011-01-09T08:24:18Z</time>
      </trkpt>
      <trkpt lat="43.47886" lon="6.90856">
        <ele>285</ele>
        <time>2011-01-09T08:24:20Z</time>
      </trkpt>
      <trkpt lat="43.47887" lon="6.90855">
        <ele>285</ele>
        <time>2011-01-09T08:24:21Z</time>
      </trkpt>
      <trkpt lat="43.4789" lon="6.90849">
        <ele>285</ele>
        <time>2011-01-09T08:24:23Z</time>
      </trkpt>
      <trkpt lat="43.47891" lon="6.90845">
        <ele>284</ele>
        <time>2011-01-09T08:24:24Z</time>
      </trkpt>
      <trkpt lat="43.47892" lon="6.90841">
        <ele>284</ele>
        <time>2011-01-09T08:24:25Z</time>
      </trkpt>
      <trkpt lat="43.47891" lon="6.90836">
        <ele>284</ele>
        <time>2011-01-09T08:24:26Z</time>
      </trkpt>
      <trkpt lat="43.4789" lon="6.90832">
        <ele>283</ele>
        <time>2011-01-09T08:24:27Z</time>
      </trkpt>
      <trkpt lat="43.47888" lon="6.90828">
        <ele>283</ele>
        <time>2011-01-09T08:24:28Z</time>
      </trkpt>
      <trkpt lat="43.47884" lon="6.9082">
        <ele>284</ele>
        <time>2011-01-09T08:24:31Z</time>
      </trkpt>
      <trkpt lat="43.4788" lon="6.90815">
        <ele>284</ele>
        <time>2011-01-09T08:24:33Z</time>
      </trkpt>
      <trkpt lat="43.4788" lon="6.90813">
        <ele>284</ele>
        <time>2011-01-09T08:24:34Z</time>
      </trkpt>
      <trkpt lat="43.4788" lon="6.90812">
        <ele>284</ele>
        <time>2011-01-09T08:24:35Z</time>
      </trkpt>
      <trkpt lat="43.4788" lon="6.90811">
        <ele>284</ele>
        <time>2011-01-09T08:24:36Z</time>
      </trkpt>
      <trkpt lat="43.47879" lon="6.90809">
        <ele>284</ele>
        <time>2011-01-09T08:24:38Z</time>
      </trkpt>
      <trkpt lat="43.47879" lon="6.90809">
        <ele>284</ele>
        <time>2011-01-09T08:24:39Z</time>
      </trkpt>
      <trkpt lat="43.47879" lon="6.90808">
        <ele>285</ele>
        <time>2011-01-09T08:24:41Z</time>
      </trkpt>
      <trkpt lat="43.47878" lon="6.90806">
        <ele>285</ele>
        <time>2011-01-09T08:24:43Z</time>
      </trkpt>
      <trkpt lat="43.47875" lon="6.90803">
        <ele>285</ele>
        <time>2011-01-09T08:24:46Z</time>
      </trkpt>
      <trkpt lat="43.47873" lon="6.90799">
        <ele>286</ele>
        <time>2011-01-09T08:24:49Z</time>
      </trkpt>
      <trkpt lat="43.47873" lon="6.90798">
        <ele>286</ele>
        <time>2011-01-09T08:24:50Z</time>
      </trkpt>
      <trkpt lat="43.47872" lon="6.90795">
        <ele>286</ele>
        <time>2011-01-09T08:24:52Z</time>
      </trkpt>
      <trkpt lat="43.47871" lon="6.90793">
        <ele>286</ele>
        <time>2011-01-09T08:24:53Z</time>
      </trkpt>
      <trkpt lat="43.47872" lon="6.90792">
        <ele>286</ele>
        <time>2011-01-09T08:24:54Z</time>
      </trkpt>
      <trkpt lat="43.47872" lon="6.90791">
        <ele>286</ele>
        <time>2011-01-09T08:24:55Z</time>
      </trkpt>
      <trkpt lat="43.47872" lon="6.90789">
        <ele>286</ele>
        <time>2011-01-09T08:24:56Z</time>
      </trkpt>
      <trkpt lat="43.47873" lon="6.90788">
        <ele>286</ele>
        <time>2011-01-09T08:24:58Z</time>
      </trkpt>
      <trkpt lat="43.47873" lon="6.90787">
        <ele>286</ele>
        <time>2011-01-09T08:24:59Z</time>
      </trkpt>
      <trkpt lat="43.47875" lon="6.90785">
        <ele>286</ele>
        <time>2011-01-09T08:25:01Z</time>
      </trkpt>
      <trkpt lat="43.47876" lon="6.90785">
        <ele>287</ele>
        <time>2011-01-09T08:25:02Z</time>
      </trkpt>
      <trkpt lat="43.47878" lon="6.90785">
        <ele>286</ele>
        <time>2011-01-09T08:25:04Z</time>
      </trkpt>
      <trkpt lat="43.47879" lon="6.90785">
        <ele>286</ele>
        <time>2011-01-09T08:25:05Z</time>
      </trkpt>
      <trkpt lat="43.47879" lon="6.90785">
        <ele>286</ele>
        <time>2011-01-09T08:25:09Z</time>
      </trkpt>
      <trkpt lat="43.4788" lon="6.90786">
        <ele>286</ele>
        <time>2011-01-09T08:25:11Z</time>
      </trkpt>
      <trkpt lat="43.47882" lon="6.90787">
        <ele>286</ele>
        <time>2011-01-09T08:25:12Z</time>
      </trkpt>
      <trkpt lat="43.47888" lon="6.9079">
        <ele>285</ele>
        <time>2011-01-09T08:25:15Z</time>
      </trkpt>
      <trkpt lat="43.4789" lon="6.90791">
        <ele>285</ele>
        <time>2011-01-09T08:25:16Z</time>
      </trkpt>
      <trkpt lat="43.47894" lon="6.90793">
        <ele>284</ele>
        <time>2011-01-09T08:25:19Z</time>
      </trkpt>
      <trkpt lat="43.47896" lon="6.90793">
        <ele>284</ele>
        <time>2011-01-09T08:25:20Z</time>
      </trkpt>
      <trkpt lat="43.47898" lon="6.90793">
        <ele>284</ele>
        <time>2011-01-09T08:25:21Z</time>
      </trkpt>
      <trkpt lat="43.47903" lon="6.90792">
        <ele>283</ele>
        <time>2011-01-09T08:25:23Z</time>
      </trkpt>
      <trkpt lat="43.47906" lon="6.90792">
        <ele>283</ele>
        <time>2011-01-09T08:25:24Z</time>
      </trkpt>
      <trkpt lat="43.4791" lon="6.90793">
        <ele>282</ele>
        <time>2011-01-09T08:25:26Z</time>
      </trkpt>
      <trkpt lat="43.47915" lon="6.90793">
        <ele>282</ele>
        <time>2011-01-09T08:25:29Z</time>
      </trkpt>
      <trkpt lat="43.47918" lon="6.90794">
        <ele>282</ele>
        <time>2011-01-09T08:25:31Z</time>
      </trkpt>
      <trkpt lat="43.47921" lon="6.90796">
        <ele>281</ele>
        <time>2011-01-09T08:25:33Z</time>
      </trkpt>
      <trkpt lat="43.47923" lon="6.90796">
        <ele>281</ele>
        <time>2011-01-09T08:25:34Z</time>
      </trkpt>
      <trkpt lat="43.47926" lon="6.90796">
        <ele>281</ele>
        <time>2011-01-09T08:25:35Z</time>
      </trkpt>
      <trkpt lat="43.47932" lon="6.90796">
        <ele>281</ele>
        <time>2011-01-09T08:25:37Z</time>
      </trkpt>
      <trkpt lat="43.47935" lon="6.90796">
        <ele>280</ele>
        <time>2011-01-09T08:25:38Z</time>
      </trkpt>
      <trkpt lat="43.47945" lon="6.90791">
        <ele>280</ele>
        <time>2011-01-09T08:25:41Z</time>
      </trkpt>
      <trkpt lat="43.47948" lon="6.9079">
        <ele>280</ele>
        <time>2011-01-09T08:25:42Z</time>
      </trkpt>
      <trkpt lat="43.47952" lon="6.90788">
        <ele>280</ele>
        <time>2011-01-09T08:25:43Z</time>
      </trkpt>
      <trkpt lat="43.47955" lon="6.90785">
        <ele>279</ele>
        <time>2011-01-09T08:25:44Z</time>
      </trkpt>
      <trkpt lat="43.47962" lon="6.90775">
        <ele>277</ele>
        <time>2011-01-09T08:25:47Z</time>
      </trkpt>
      <trkpt lat="43.47965" lon="6.90771">
        <ele>277</ele>
        <time>2011-01-09T08:25:48Z</time>
      </trkpt>
      <trkpt lat="43.47971" lon="6.90757">
        <ele>276</ele>
        <time>2011-01-09T08:25:51Z</time>
      </trkpt>
      <trkpt lat="43.47973" lon="6.90753">
        <ele>276</ele>
        <time>2011-01-09T08:25:52Z</time>
      </trkpt>
      <trkpt lat="43.47974" lon="6.9075">
        <ele>276</ele>
        <time>2011-01-09T08:25:53Z</time>
      </trkpt>
      <trkpt lat="43.47976" lon="6.90748">
        <ele>275</ele>
        <time>2011-01-09T08:25:54Z</time>
      </trkpt>
      <trkpt lat="43.47981" lon="6.90743">
        <ele>275</ele>
        <time>2011-01-09T08:25:56Z</time>
      </trkpt>
      <trkpt lat="43.47983" lon="6.90739">
        <ele>275</ele>
        <time>2011-01-09T08:25:57Z</time>
      </trkpt>
      <trkpt lat="43.47987" lon="6.90735">
        <ele>275</ele>
        <time>2011-01-09T08:25:59Z</time>
      </trkpt>
      <trkpt lat="43.47988" lon="6.90733">
        <ele>274</ele>
        <time>2011-01-09T08:26:00Z</time>
      </trkpt>
      <trkpt lat="43.47991" lon="6.90728">
        <ele>274</ele>
        <time>2011-01-09T08:26:02Z</time>
      </trkpt>
      <trkpt lat="43.47997" lon="6.9072">
        <ele>271</ele>
        <time>2011-01-09T08:26:05Z</time>
      </trkpt>
      <trkpt lat="43.48001" lon="6.90715">
        <ele>270</ele>
        <time>2011-01-09T08:26:07Z</time>
      </trkpt>
      <trkpt lat="43.48008" lon="6.90701">
        <ele>269</ele>
        <time>2011-01-09T08:26:11Z</time>
      </trkpt>
      <trkpt lat="43.48014" lon="6.90685">
        <ele>266</ele>
        <time>2011-01-09T08:26:15Z</time>
      </trkpt>
      <trkpt lat="43.48018" lon="6.90675">
        <ele>265</ele>
        <time>2011-01-09T08:26:19Z</time>
      </trkpt>
      <trkpt lat="43.48021" lon="6.90671">
        <ele>264</ele>
        <time>2011-01-09T08:26:21Z</time>
      </trkpt>
      <trkpt lat="43.48024" lon="6.90667">
        <ele>264</ele>
        <time>2011-01-09T08:26:23Z</time>
      </trkpt>
      <trkpt lat="43.48026" lon="6.90664">
        <ele>263</ele>
        <time>2011-01-09T08:26:24Z</time>
      </trkpt>
      <trkpt lat="43.48028" lon="6.9066">
        <ele>263</ele>
        <time>2011-01-09T08:26:26Z</time>
      </trkpt>
      <trkpt lat="43.48032" lon="6.90655">
        <ele>262</ele>
        <time>2011-01-09T08:26:28Z</time>
      </trkpt>
      <trkpt lat="43.48039" lon="6.90646">
        <ele>262</ele>
        <time>2011-01-09T08:26:31Z</time>
      </trkpt>
      <trkpt lat="43.48041" lon="6.90644">
        <ele>262</ele>
        <time>2011-01-09T08:26:32Z</time>
      </trkpt>
      <trkpt lat="43.48044" lon="6.90642">
        <ele>262</ele>
        <time>2011-01-09T08:26:33Z</time>
      </trkpt>
      <trkpt lat="43.48047" lon="6.90638">
        <ele>262</ele>
        <time>2011-01-09T08:26:34Z</time>
      </trkpt>
      <trkpt lat="43.4805" lon="6.90634">
        <ele>262</ele>
        <time>2011-01-09T08:26:35Z</time>
      </trkpt>
      <trkpt lat="43.48053" lon="6.9063">
        <ele>261</ele>
        <time>2011-01-09T08:26:36Z</time>
      </trkpt>
      <trkpt lat="43.48058" lon="6.90621">
        <ele>260</ele>
        <time>2011-01-09T08:26:38Z</time>
      </trkpt>
      <trkpt lat="43.4806" lon="6.90617">
        <ele>260</ele>
        <time>2011-01-09T08:26:39Z</time>
      </trkpt>
      <trkpt lat="43.48062" lon="6.90612">
        <ele>260</ele>
        <time>2011-01-09T08:26:40Z</time>
      </trkpt>
      <trkpt lat="43.48063" lon="6.90607">
        <ele>259</ele>
        <time>2011-01-09T08:26:41Z</time>
      </trkpt>
      <trkpt lat="43.48063" lon="6.90603">
        <ele>259</ele>
        <time>2011-01-09T08:26:42Z</time>
      </trkpt>
      <trkpt lat="43.48064" lon="6.90599">
        <ele>259</ele>
        <time>2011-01-09T08:26:43Z</time>
      </trkpt>
      <trkpt lat="43.48064" lon="6.90591">
        <ele>258</ele>
        <time>2011-01-09T08:26:45Z</time>
      </trkpt>
      <trkpt lat="43.48065" lon="6.90587">
        <ele>258</ele>
        <time>2011-01-09T08:26:46Z</time>
      </trkpt>
      <trkpt lat="43.48065" lon="6.90583">
        <ele>258</ele>
        <time>2011-01-09T08:26:47Z</time>
      </trkpt>
      <trkpt lat="43.48065" lon="6.90579">
        <ele>257</ele>
        <time>2011-01-09T08:26:48Z</time>
      </trkpt>
      <trkpt lat="43.48065" lon="6.90574">
        <ele>257</ele>
        <time>2011-01-09T08:26:49Z</time>
      </trkpt>
      <trkpt lat="43.48065" lon="6.9057">
        <ele>257</ele>
        <time>2011-01-09T08:26:50Z</time>
      </trkpt>
      <trkpt lat="43.48064" lon="6.90565">
        <ele>257</ele>
        <time>2011-01-09T08:26:51Z</time>
      </trkpt>
      <trkpt lat="43.48063" lon="6.90562">
        <ele>257</ele>
        <time>2011-01-09T08:26:52Z</time>
      </trkpt>
      <trkpt lat="43.48061" lon="6.90558">
        <ele>257</ele>
        <time>2011-01-09T08:26:53Z</time>
      </trkpt>
      <trkpt lat="43.48059" lon="6.90556">
        <ele>257</ele>
        <time>2011-01-09T08:26:54Z</time>
      </trkpt>
      <trkpt lat="43.48058" lon="6.90554">
        <ele>257</ele>
        <time>2011-01-09T08:26:55Z</time>
      </trkpt>
      <trkpt lat="43.48058" lon="6.90553">
        <ele>257</ele>
        <time>2011-01-09T08:26:56Z</time>
      </trkpt>
      <trkpt lat="43.48058" lon="6.9055">
        <ele>257</ele>
        <time>2011-01-09T08:26:57Z</time>
      </trkpt>
      <trkpt lat="43.48059" lon="6.90548">
        <ele>257</ele>
        <time>2011-01-09T08:26:59Z</time>
      </trkpt>
      <trkpt lat="43.48064" lon="6.90546">
        <ele>257</ele>
        <time>2011-01-09T08:27:01Z</time>
      </trkpt>
      <trkpt lat="43.48067" lon="6.90545">
        <ele>257</ele>
        <time>2011-01-09T08:27:02Z</time>
      </trkpt>
      <trkpt lat="43.48069" lon="6.90546">
        <ele>257</ele>
        <time>2011-01-09T08:27:03Z</time>
      </trkpt>
      <trkpt lat="43.48072" lon="6.90546">
        <ele>257</ele>
        <time>2011-01-09T08:27:04Z</time>
      </trkpt>
      <trkpt lat="43.48081" lon="6.9055">
        <ele>256</ele>
        <time>2011-01-09T08:27:07Z</time>
      </trkpt>
      <trkpt lat="43.48087" lon="6.90551">
        <ele>256</ele>
        <time>2011-01-09T08:27:09Z</time>
      </trkpt>
      <trkpt lat="43.48089" lon="6.90551">
        <ele>256</ele>
        <time>2011-01-09T08:27:10Z</time>
      </trkpt>
      <trkpt lat="43.48095" lon="6.90549">
        <ele>255</ele>
        <time>2011-01-09T08:27:12Z</time>
      </trkpt>
      <trkpt lat="43.48102" lon="6.90546">
        <ele>255</ele>
        <time>2011-01-09T08:27:14Z</time>
      </trkpt>
      <trkpt lat="43.48105" lon="6.90545">
        <ele>255</ele>
        <time>2011-01-09T08:27:15Z</time>
      </trkpt>
      <trkpt lat="43.48109" lon="6.90544">
        <ele>255</ele>
        <time>2011-01-09T08:27:16Z</time>
      </trkpt>
      <trkpt lat="43.48113" lon="6.90542">
        <ele>255</ele>
        <time>2011-01-09T08:27:17Z</time>
      </trkpt>
      <trkpt lat="43.48116" lon="6.9054">
        <ele>255</ele>
        <time>2011-01-09T08:27:18Z</time>
      </trkpt>
      <trkpt lat="43.48119" lon="6.90538">
        <ele>255</ele>
        <time>2011-01-09T08:27:19Z</time>
      </trkpt>
      <trkpt lat="43.48122" lon="6.90538">
        <ele>255</ele>
        <time>2011-01-09T08:27:20Z</time>
      </trkpt>
      <trkpt lat="43.48126" lon="6.90536">
        <ele>255</ele>
        <time>2011-01-09T08:27:21Z</time>
      </trkpt>
      <trkpt lat="43.48129" lon="6.90534">
        <ele>255</ele>
        <time>2011-01-09T08:27:22Z</time>
      </trkpt>
      <trkpt lat="43.48133" lon="6.90533">
        <ele>255</ele>
        <time>2011-01-09T08:27:23Z</time>
      </trkpt>
      <trkpt lat="43.48142" lon="6.9053">
        <ele>254</ele>
        <time>2011-01-09T08:27:25Z</time>
      </trkpt>
      <trkpt lat="43.48145" lon="6.90529">
        <ele>254</ele>
        <time>2011-01-09T08:27:26Z</time>
      </trkpt>
      <trkpt lat="43.48149" lon="6.90527">
        <ele>254</ele>
        <time>2011-01-09T08:27:27Z</time>
      </trkpt>
      <trkpt lat="43.48152" lon="6.90523">
        <ele>253</ele>
        <time>2011-01-09T08:27:28Z</time>
      </trkpt>
      <trkpt lat="43.48155" lon="6.90519">
        <ele>253</ele>
        <time>2011-01-09T08:27:29Z</time>
      </trkpt>
      <trkpt lat="43.48157" lon="6.90515">
        <ele>253</ele>
        <time>2011-01-09T08:27:30Z</time>
      </trkpt>
      <trkpt lat="43.48159" lon="6.9051">
        <ele>253</ele>
        <time>2011-01-09T08:27:31Z</time>
      </trkpt>
      <trkpt lat="43.48164" lon="6.90494">
        <ele>252</ele>
        <time>2011-01-09T08:27:34Z</time>
      </trkpt>
      <trkpt lat="43.48165" lon="6.90488">
        <ele>252</ele>
        <time>2011-01-09T08:27:35Z</time>
      </trkpt>
      <trkpt lat="43.48172" lon="6.90475">
        <ele>251</ele>
        <time>2011-01-09T08:27:38Z</time>
      </trkpt>
      <trkpt lat="43.48174" lon="6.90472">
        <ele>250</ele>
        <time>2011-01-09T08:27:39Z</time>
      </trkpt>
      <trkpt lat="43.48176" lon="6.90466">
        <ele>250</ele>
        <time>2011-01-09T08:27:41Z</time>
      </trkpt>
      <trkpt lat="43.48178" lon="6.90464">
        <ele>250</ele>
        <time>2011-01-09T08:27:42Z</time>
      </trkpt>
      <trkpt lat="43.48181" lon="6.90461">
        <ele>250</ele>
        <time>2011-01-09T08:27:43Z</time>
      </trkpt>
      <trkpt lat="43.48186" lon="6.90455">
        <ele>250</ele>
        <time>2011-01-09T08:27:45Z</time>
      </trkpt>
      <trkpt lat="43.48189" lon="6.90452">
        <ele>250</ele>
        <time>2011-01-09T08:27:46Z</time>
      </trkpt>
      <trkpt lat="43.48192" lon="6.90449">
        <ele>249</ele>
        <time>2011-01-09T08:27:47Z</time>
      </trkpt>
      <trkpt lat="43.48199" lon="6.90445">
        <ele>249</ele>
        <time>2011-01-09T08:27:49Z</time>
      </trkpt>
      <trkpt lat="43.48204" lon="6.9044">
        <ele>249</ele>
        <time>2011-01-09T08:27:51Z</time>
      </trkpt>
      <trkpt lat="43.48207" lon="6.90436">
        <ele>249</ele>
        <time>2011-01-09T08:27:52Z</time>
      </trkpt>
      <trkpt lat="43.4821" lon="6.90432">
        <ele>249</ele>
        <time>2011-01-09T08:27:53Z</time>
      </trkpt>
      <trkpt lat="43.48213" lon="6.90429">
        <ele>248</ele>
        <time>2011-01-09T08:27:54Z</time>
      </trkpt>
      <trkpt lat="43.48216" lon="6.90425">
        <ele>248</ele>
        <time>2011-01-09T08:27:55Z</time>
      </trkpt>
      <trkpt lat="43.4822" lon="6.90422">
        <ele>248</ele>
        <time>2011-01-09T08:27:56Z</time>
      </trkpt>
      <trkpt lat="43.48226" lon="6.90414">
        <ele>247</ele>
        <time>2011-01-09T08:27:58Z</time>
      </trkpt>
      <trkpt lat="43.48229" lon="6.90409">
        <ele>247</ele>
        <time>2011-01-09T08:27:59Z</time>
      </trkpt>
      <trkpt lat="43.4823" lon="6.90404">
        <ele>247</ele>
        <time>2011-01-09T08:28:00Z</time>
      </trkpt>
      <trkpt lat="43.48234" lon="6.90399">
        <ele>247</ele>
        <time>2011-01-09T08:28:01Z</time>
      </trkpt>
      <trkpt lat="43.48236" lon="6.90393">
        <ele>246</ele>
        <time>2011-01-09T08:28:02Z</time>
      </trkpt>
      <trkpt lat="43.48238" lon="6.90387">
        <ele>245</ele>
        <time>2011-01-09T08:28:03Z</time>
      </trkpt>
      <trkpt lat="43.48239" lon="6.90382">
        <ele>245</ele>
        <time>2011-01-09T08:28:04Z</time>
      </trkpt>
      <trkpt lat="43.48241" lon="6.90377">
        <ele>244</ele>
        <time>2011-01-09T08:28:05Z</time>
      </trkpt>
      <trkpt lat="43.48243" lon="6.90372">
        <ele>244</ele>
        <time>2011-01-09T08:28:06Z</time>
      </trkpt>
      <trkpt lat="43.48243" lon="6.90366">
        <ele>243</ele>
        <time>2011-01-09T08:28:07Z</time>
      </trkpt>
      <trkpt lat="43.48245" lon="6.90362">
        <ele>243</ele>
        <time>2011-01-09T08:28:08Z</time>
      </trkpt>
      <trkpt lat="43.48245" lon="6.90356">
        <ele>242</ele>
        <time>2011-01-09T08:28:09Z</time>
      </trkpt>
      <trkpt lat="43.48246" lon="6.90351">
        <ele>242</ele>
        <time>2011-01-09T08:28:10Z</time>
      </trkpt>
      <trkpt lat="43.48248" lon="6.90343">
        <ele>241</ele>
        <time>2011-01-09T08:28:12Z</time>
      </trkpt>
      <trkpt lat="43.48248" lon="6.9034">
        <ele>240</ele>
        <time>2011-01-09T08:28:13Z</time>
      </trkpt>
      <trkpt lat="43.4825" lon="6.9033">
        <ele>239</ele>
        <time>2011-01-09T08:28:16Z</time>
      </trkpt>
      <trkpt lat="43.4825" lon="6.90328">
        <ele>239</ele>
        <time>2011-01-09T08:28:17Z</time>
      </trkpt>
      <trkpt lat="43.4825" lon="6.90328">
        <ele>237</ele>
        <time>2011-01-09T08:28:21Z</time>
      </trkpt>
      <trkpt lat="43.4825" lon="6.90324">
        <ele>236</ele>
        <time>2011-01-09T08:28:23Z</time>
      </trkpt>
      <trkpt lat="43.48251" lon="6.90321">
        <ele>235</ele>
        <time>2011-01-09T08:28:24Z</time>
      </trkpt>
      <trkpt lat="43.48253" lon="6.90308">
        <ele>233</ele>
        <time>2011-01-09T08:28:28Z</time>
      </trkpt>
      <trkpt lat="43.48255" lon="6.90295">
        <ele>233</ele>
        <time>2011-01-09T08:28:31Z</time>
      </trkpt>
      <trkpt lat="43.48256" lon="6.90291">
        <ele>232</ele>
        <time>2011-01-09T08:28:32Z</time>
      </trkpt>
      <trkpt lat="43.48259" lon="6.90283">
        <ele>232</ele>
        <time>2011-01-09T08:28:34Z</time>
      </trkpt>
      <trkpt lat="43.48262" lon="6.90276">
        <ele>232</ele>
        <time>2011-01-09T08:28:36Z</time>
      </trkpt>
      <trkpt lat="43.48267" lon="6.90265">
        <ele>232</ele>
        <time>2011-01-09T08:28:39Z</time>
      </trkpt>
      <trkpt lat="43.48269" lon="6.90262">
        <ele>232</ele>
        <time>2011-01-09T08:28:40Z</time>
      </trkpt>
      <trkpt lat="43.4827" lon="6.9026">
        <ele>232</ele>
        <time>2011-01-09T08:28:41Z</time>
      </trkpt>
      <trkpt lat="43.48273" lon="6.90254">
        <ele>231</ele>
        <time>2011-01-09T08:28:43Z</time>
      </trkpt>
      <trkpt lat="43.48276" lon="6.90251">
        <ele>231</ele>
        <time>2011-01-09T08:28:44Z</time>
      </trkpt>
      <trkpt lat="43.48279" lon="6.90248">
        <ele>231</ele>
        <time>2011-01-09T08:28:45Z</time>
      </trkpt>
      <trkpt lat="43.4829" lon="6.90239">
        <ele>231</ele>
        <time>2011-01-09T08:28:48Z</time>
      </trkpt>
      <trkpt lat="43.48293" lon="6.90235">
        <ele>231</ele>
        <time>2011-01-09T08:28:49Z</time>
      </trkpt>
      <trkpt lat="43.483" lon="6.90228">
        <ele>230</ele>
        <time>2011-01-09T08:28:51Z</time>
      </trkpt>
      <trkpt lat="43.48305" lon="6.90224">
        <ele>229</ele>
        <time>2011-01-09T08:28:52Z</time>
      </trkpt>
      <trkpt lat="43.48309" lon="6.9022">
        <ele>229</ele>
        <time>2011-01-09T08:28:53Z</time>
      </trkpt>
      <trkpt lat="43.48313" lon="6.90216">
        <ele>228</ele>
        <time>2011-01-09T08:28:54Z</time>
      </trkpt>
      <trkpt lat="43.48318" lon="6.90209">
        <ele>228</ele>
        <time>2011-01-09T08:28:56Z</time>
      </trkpt>
      <trkpt lat="43.48319" lon="6.90206">
        <ele>227</ele>
        <time>2011-01-09T08:28:57Z</time>
      </trkpt>
      <trkpt lat="43.48322" lon="6.902">
        <ele>226</ele>
        <time>2011-01-09T08:28:59Z</time>
      </trkpt>
      <trkpt lat="43.48324" lon="6.90196">
        <ele>226</ele>
        <time>2011-01-09T08:29:00Z</time>
      </trkpt>
      <trkpt lat="43.48325" lon="6.90191">
        <ele>225</ele>
        <time>2011-01-09T08:29:01Z</time>
      </trkpt>
      <trkpt lat="43.48326" lon="6.90187">
        <ele>225</ele>
        <time>2011-01-09T08:29:02Z</time>
      </trkpt>
      <trkpt lat="43.48325" lon="6.90184">
        <ele>224</ele>
        <time>2011-01-09T08:29:03Z</time>
      </trkpt>
      <trkpt lat="43.48324" lon="6.9018">
        <ele>224</ele>
        <time>2011-01-09T08:29:04Z</time>
      </trkpt>
      <trkpt lat="43.48322" lon="6.90177">
        <ele>223</ele>
        <time>2011-01-09T08:29:05Z</time>
      </trkpt>
      <trkpt lat="43.4832" lon="6.90174">
        <ele>223</ele>
        <time>2011-01-09T08:29:06Z</time>
      </trkpt>
      <trkpt lat="43.48319" lon="6.90171">
        <ele>223</ele>
        <time>2011-01-09T08:29:07Z</time>
      </trkpt>
      <trkpt lat="43.48316" lon="6.90164">
        <ele>223</ele>
        <time>2011-01-09T08:29:09Z</time>
      </trkpt>
      <trkpt lat="43.48315" lon="6.9016">
        <ele>222</ele>
        <time>2011-01-09T08:29:10Z</time>
      </trkpt>
      <trkpt lat="43.48314" lon="6.90157">
        <ele>222</ele>
        <time>2011-01-09T08:29:11Z</time>
      </trkpt>
      <trkpt lat="43.48309" lon="6.90148">
        <ele>223</ele>
        <time>2011-01-09T08:29:14Z</time>
      </trkpt>
      <trkpt lat="43.48307" lon="6.90145">
        <ele>223</ele>
        <time>2011-01-09T08:29:15Z</time>
      </trkpt>
      <trkpt lat="43.48306" lon="6.90142">
        <ele>223</ele>
        <time>2011-01-09T08:29:16Z</time>
      </trkpt>
      <trkpt lat="43.48304" lon="6.90139">
        <ele>223</ele>
        <time>2011-01-09T08:29:17Z</time>
      </trkpt>
      <trkpt lat="43.48301" lon="6.90136">
        <ele>223</ele>
        <time>2011-01-09T08:29:18Z</time>
      </trkpt>
      <trkpt lat="43.483" lon="6.90133">
        <ele>222</ele>
        <time>2011-01-09T08:29:19Z</time>
      </trkpt>
      <trkpt lat="43.48299" lon="6.9013">
        <ele>222</ele>
        <time>2011-01-09T08:29:20Z</time>
      </trkpt>
      <trkpt lat="43.48297" lon="6.90128">
        <ele>223</ele>
        <time>2011-01-09T08:29:21Z</time>
      </trkpt>
      <trkpt lat="43.48296" lon="6.90124">
        <ele>223</ele>
        <time>2011-01-09T08:29:22Z</time>
      </trkpt>
      <trkpt lat="43.48295" lon="6.9012">
        <ele>223</ele>
        <time>2011-01-09T08:29:23Z</time>
      </trkpt>
      <trkpt lat="43.48291" lon="6.90108">
        <ele>223</ele>
        <time>2011-01-09T08:29:26Z</time>
      </trkpt>
      <trkpt lat="43.4829" lon="6.90104">
        <ele>223</ele>
        <time>2011-01-09T08:29:27Z</time>
      </trkpt>
      <trkpt lat="43.48288" lon="6.90098">
        <ele>223</ele>
        <time>2011-01-09T08:29:29Z</time>
      </trkpt>
      <trkpt lat="43.48286" lon="6.90095">
        <ele>223</ele>
        <time>2011-01-09T08:29:30Z</time>
      </trkpt>
      <trkpt lat="43.48284" lon="6.9009">
        <ele>223</ele>
        <time>2011-01-09T08:29:32Z</time>
      </trkpt>
      <trkpt lat="43.48282" lon="6.90084">
        <ele>222</ele>
        <time>2011-01-09T08:29:34Z</time>
      </trkpt>
      <trkpt lat="43.48278" lon="6.90075">
        <ele>221</ele>
        <time>2011-01-09T08:29:38Z</time>
      </trkpt>
      <trkpt lat="43.48276" lon="6.90072">
        <ele>221</ele>
        <time>2011-01-09T08:29:39Z</time>
      </trkpt>
      <trkpt lat="43.48274" lon="6.9007">
        <ele>221</ele>
        <time>2011-01-09T08:29:40Z</time>
      </trkpt>
      <trkpt lat="43.48271" lon="6.90064">
        <ele>221</ele>
        <time>2011-01-09T08:29:42Z</time>
      </trkpt>
      <trkpt lat="43.48267" lon="6.90059">
        <ele>220</ele>
        <time>2011-01-09T08:29:44Z</time>
      </trkpt>
      <trkpt lat="43.48265" lon="6.90057">
        <ele>220</ele>
        <time>2011-01-09T08:29:45Z</time>
      </trkpt>
      <trkpt lat="43.48265" lon="6.90057">
        <ele>220</ele>
        <time>2011-01-09T08:29:46Z</time>
      </trkpt>
      <trkpt lat="43.48265" lon="6.90057">
        <ele>220</ele>
        <time>2011-01-09T08:30:04Z</time>
      </trkpt>
      <trkpt lat="43.48264" lon="6.90055">
        <ele>219</ele>
        <time>2011-01-09T08:30:05Z</time>
      </trkpt>
      <trkpt lat="43.48264" lon="6.90053">
        <ele>219</ele>
        <time>2011-01-09T08:30:06Z</time>
      </trkpt>
      <trkpt lat="43.48262" lon="6.90048">
        <ele>219</ele>
        <time>2011-01-09T08:30:08Z</time>
      </trkpt>
      <trkpt lat="43.48261" lon="6.90045">
        <ele>219</ele>
        <time>2011-01-09T08:30:09Z</time>
      </trkpt>
      <trkpt lat="43.4826" lon="6.90042">
        <ele>219</ele>
        <time>2011-01-09T08:30:10Z</time>
      </trkpt>
      <trkpt lat="43.48259" lon="6.9004">
        <ele>219</ele>
        <time>2011-01-09T08:30:11Z</time>
      </trkpt>
      <trkpt lat="43.48256" lon="6.90036">
        <ele>219</ele>
        <time>2011-01-09T08:30:13Z</time>
      </trkpt>
      <trkpt lat="43.48255" lon="6.90034">
        <ele>219</ele>
        <time>2011-01-09T08:30:14Z</time>
      </trkpt>
      <trkpt lat="43.48255" lon="6.90031">
        <ele>219</ele>
        <time>2011-01-09T08:30:15Z</time>
      </trkpt>
      <trkpt lat="43.48255" lon="6.90028">
        <ele>218</ele>
        <time>2011-01-09T08:30:16Z</time>
      </trkpt>
      <trkpt lat="43.48255" lon="6.90026">
        <ele>218</ele>
        <time>2011-01-09T08:30:17Z</time>
      </trkpt>
      <trkpt lat="43.48254" lon="6.90023">
        <ele>218</ele>
        <time>2011-01-09T08:30:18Z</time>
      </trkpt>
      <trkpt lat="43.48253" lon="6.90019">
        <ele>218</ele>
        <time>2011-01-09T08:30:20Z</time>
      </trkpt>
      <trkpt lat="43.48252" lon="6.90017">
        <ele>218</ele>
        <time>2011-01-09T08:30:21Z</time>
      </trkpt>
      <trkpt lat="43.48252" lon="6.90014">
        <ele>218</ele>
        <time>2011-01-09T08:30:22Z</time>
      </trkpt>
      <trkpt lat="43.48251" lon="6.90009">
        <ele>218</ele>
        <time>2011-01-09T08:30:24Z</time>
      </trkpt>
      <trkpt lat="43.4825" lon="6.90006">
        <ele>218</ele>
        <time>2011-01-09T08:30:25Z</time>
      </trkpt>
      <trkpt lat="43.48249" lon="6.90003">
        <ele>218</ele>
        <time>2011-01-09T08:30:26Z</time>
      </trkpt>
      <trkpt lat="43.4825" lon="6.9">
        <ele>218</ele>
        <time>2011-01-09T08:30:27Z</time>
      </trkpt>
      <trkpt lat="43.4825" lon="6.89995">
        <ele>218</ele>
        <time>2011-01-09T08:30:28Z</time>
      </trkpt>
      <trkpt lat="43.48249" lon="6.89986">
        <ele>217</ele>
        <time>2011-01-09T08:30:30Z</time>
      </trkpt>
      <trkpt lat="43.48249" lon="6.89982">
        <ele>217</ele>
        <time>2011-01-09T08:30:31Z</time>
      </trkpt>
      <trkpt lat="43.48251" lon="6.89971">
        <ele>217</ele>
        <time>2011-01-09T08:30:34Z</time>
      </trkpt>
      <trkpt lat="43.48253" lon="6.89963">
        <ele>217</ele>
        <time>2011-01-09T08:30:36Z</time>
      </trkpt>
      <trkpt lat="43.48255" lon="6.8996">
        <ele>217</ele>
        <time>2011-01-09T08:30:37Z</time>
      </trkpt>
      <trkpt lat="43.48258" lon="6.89954">
        <ele>217</ele>
        <time>2011-01-09T08:30:39Z</time>
      </trkpt>
      <trkpt lat="43.48259" lon="6.8995">
        <ele>217</ele>
        <time>2011-01-09T08:30:40Z</time>
      </trkpt>
      <trkpt lat="43.4826" lon="6.89947">
        <ele>218</ele>
        <time>2011-01-09T08:30:41Z</time>
      </trkpt>
      <trkpt lat="43.48261" lon="6.89943">
        <ele>218</ele>
        <time>2011-01-09T08:30:42Z</time>
      </trkpt>
      <trkpt lat="43.48262" lon="6.8994">
        <ele>218</ele>
        <time>2011-01-09T08:30:43Z</time>
      </trkpt>
      <trkpt lat="43.48262" lon="6.89936">
        <ele>218</ele>
        <time>2011-01-09T08:30:44Z</time>
      </trkpt>
      <trkpt lat="43.48262" lon="6.89932">
        <ele>218</ele>
        <time>2011-01-09T08:30:45Z</time>
      </trkpt>
      <trkpt lat="43.48264" lon="6.89928">
        <ele>218</ele>
        <time>2011-01-09T08:30:46Z</time>
      </trkpt>
      <trkpt lat="43.48265" lon="6.89924">
        <ele>218</ele>
        <time>2011-01-09T08:30:47Z</time>
      </trkpt>
      <trkpt lat="43.48267" lon="6.89921">
        <ele>218</ele>
        <time>2011-01-09T08:30:48Z</time>
      </trkpt>
      <trkpt lat="43.48269" lon="6.89918">
        <ele>218</ele>
        <time>2011-01-09T08:30:49Z</time>
      </trkpt>
      <trkpt lat="43.48271" lon="6.89915">
        <ele>218</ele>
        <time>2011-01-09T08:30:50Z</time>
      </trkpt>
      <trkpt lat="43.48273" lon="6.89911">
        <ele>218</ele>
        <time>2011-01-09T08:30:51Z</time>
      </trkpt>
      <trkpt lat="43.48275" lon="6.89907">
        <ele>218</ele>
        <time>2011-01-09T08:30:52Z</time>
      </trkpt>
      <trkpt lat="43.48278" lon="6.89899">
        <ele>218</ele>
        <time>2011-01-09T08:30:54Z</time>
      </trkpt>
      <trkpt lat="43.4828" lon="6.89894">
        <ele>218</ele>
        <time>2011-01-09T08:30:55Z</time>
      </trkpt>
      <trkpt lat="43.48283" lon="6.89887">
        <ele>219</ele>
        <time>2011-01-09T08:30:57Z</time>
      </trkpt>
      <trkpt lat="43.48289" lon="6.89878">
        <ele>218</ele>
        <time>2011-01-09T08:31:00Z</time>
      </trkpt>
      <trkpt lat="43.4829" lon="6.89874">
        <ele>218</ele>
        <time>2011-01-09T08:31:01Z</time>
      </trkpt>
      <trkpt lat="43.48291" lon="6.89871">
        <ele>218</ele>
        <time>2011-01-09T08:31:02Z</time>
      </trkpt>
      <trkpt lat="43.48293" lon="6.89869">
        <ele>218</ele>
        <time>2011-01-09T08:31:03Z</time>
      </trkpt>
      <trkpt lat="43.48295" lon="6.89866">
        <ele>218</ele>
        <time>2011-01-09T08:31:04Z</time>
      </trkpt>
      <trkpt lat="43.48297" lon="6.89863">
        <ele>218</ele>
        <time>2011-01-09T08:31:05Z</time>
      </trkpt>
      <trkpt lat="43.48299" lon="6.8986">
        <ele>218</ele>
        <time>2011-01-09T08:31:06Z</time>
      </trkpt>
      <trkpt lat="43.48301" lon="6.89857">
        <ele>218</ele>
        <time>2011-01-09T08:31:07Z</time>
      </trkpt>
      <trkpt lat="43.48302" lon="6.89854">
        <ele>218</ele>
        <time>2011-01-09T08:31:08Z</time>
      </trkpt>
      <trkpt lat="43.48304" lon="6.89851">
        <ele>218</ele>
        <time>2011-01-09T08:31:09Z</time>
      </trkpt>
      <trkpt lat="43.48306" lon="6.89849">
        <ele>218</ele>
        <time>2011-01-09T08:31:10Z</time>
      </trkpt>
      <trkpt lat="43.48309" lon="6.89847">
        <ele>218</ele>
        <time>2011-01-09T08:31:11Z</time>
      </trkpt>
      <trkpt lat="43.48313" lon="6.89841">
        <ele>218</ele>
        <time>2011-01-09T08:31:13Z</time>
      </trkpt>
      <trkpt lat="43.48316" lon="6.8984">
        <ele>218</ele>
        <time>2011-01-09T08:31:14Z</time>
      </trkpt>
      <trkpt lat="43.48318" lon="6.89838">
        <ele>218</ele>
        <time>2011-01-09T08:31:15Z</time>
      </trkpt>
      <trkpt lat="43.48321" lon="6.89837">
        <ele>218</ele>
        <time>2011-01-09T08:31:16Z</time>
      </trkpt>
      <trkpt lat="43.48324" lon="6.89835">
        <ele>218</ele>
        <time>2011-01-09T08:31:17Z</time>
      </trkpt>
      <trkpt lat="43.48326" lon="6.89832">
        <ele>218</ele>
        <time>2011-01-09T08:31:18Z</time>
      </trkpt>
      <trkpt lat="43.48328" lon="6.89828">
        <ele>218</ele>
        <time>2011-01-09T08:31:19Z</time>
      </trkpt>
      <trkpt lat="43.4833" lon="6.89825">
        <ele>217</ele>
        <time>2011-01-09T08:31:20Z</time>
      </trkpt>
      <trkpt lat="43.48332" lon="6.89822">
        <ele>217</ele>
        <time>2011-01-09T08:31:21Z</time>
      </trkpt>
      <trkpt lat="43.48335" lon="6.89818">
        <ele>217</ele>
        <time>2011-01-09T08:31:22Z</time>
      </trkpt>
      <trkpt lat="43.48337" lon="6.89815">
        <ele>217</ele>
        <time>2011-01-09T08:31:23Z</time>
      </trkpt>
      <trkpt lat="43.48341" lon="6.89808">
        <ele>217</ele>
        <time>2011-01-09T08:31:25Z</time>
      </trkpt>
      <trkpt lat="43.48344" lon="6.89804">
        <ele>217</ele>
        <time>2011-01-09T08:31:26Z</time>
      </trkpt>
      <trkpt lat="43.48347" lon="6.89802">
        <ele>217</ele>
        <time>2011-01-09T08:31:27Z</time>
      </trkpt>
      <trkpt lat="43.48349" lon="6.89799">
        <ele>217</ele>
        <time>2011-01-09T08:31:28Z</time>
      </trkpt>
      <trkpt lat="43.48351" lon="6.89797">
        <ele>217</ele>
        <time>2011-01-09T08:31:29Z</time>
      </trkpt>
      <trkpt lat="43.48353" lon="6.89793">
        <ele>217</ele>
        <time>2011-01-09T08:31:30Z</time>
      </trkpt>
      <trkpt lat="43.48356" lon="6.89785">
        <ele>216</ele>
        <time>2011-01-09T08:31:32Z</time>
      </trkpt>
      <trkpt lat="43.48361" lon="6.89777">
        <ele>217</ele>
        <time>2011-01-09T08:31:34Z</time>
      </trkpt>
      <trkpt lat="43.48363" lon="6.89773">
        <ele>217</ele>
        <time>2011-01-09T08:31:35Z</time>
      </trkpt>
      <trkpt lat="43.48369" lon="6.89763">
        <ele>216</ele>
        <time>2011-01-09T08:31:37Z</time>
      </trkpt>
      <trkpt lat="43.48371" lon="6.89758">
        <ele>216</ele>
        <time>2011-01-09T08:31:38Z</time>
      </trkpt>
      <trkpt lat="43.48374" lon="6.89753">
        <ele>216</ele>
        <time>2011-01-09T08:31:39Z</time>
      </trkpt>
      <trkpt lat="43.48377" lon="6.8975">
        <ele>216</ele>
        <time>2011-01-09T08:31:40Z</time>
      </trkpt>
      <trkpt lat="43.48379" lon="6.89745">
        <ele>216</ele>
        <time>2011-01-09T08:31:41Z</time>
      </trkpt>
      <trkpt lat="43.48381" lon="6.8974">
        <ele>216</ele>
        <time>2011-01-09T08:31:42Z</time>
      </trkpt>
      <trkpt lat="43.48383" lon="6.89735">
        <ele>216</ele>
        <time>2011-01-09T08:31:43Z</time>
      </trkpt>
      <trkpt lat="43.48385" lon="6.89723">
        <ele>215</ele>
        <time>2011-01-09T08:31:45Z</time>
      </trkpt>
      <trkpt lat="43.48386" lon="6.89717">
        <ele>215</ele>
        <time>2011-01-09T08:31:46Z</time>
      </trkpt>
      <trkpt lat="43.48386" lon="6.89711">
        <ele>215</ele>
        <time>2011-01-09T08:31:47Z</time>
      </trkpt>
      <trkpt lat="43.48386" lon="6.89698">
        <ele>214</ele>
        <time>2011-01-09T08:31:49Z</time>
      </trkpt>
      <trkpt lat="43.48386" lon="6.89692">
        <ele>214</ele>
        <time>2011-01-09T08:31:50Z</time>
      </trkpt>
      <trkpt lat="43.48385" lon="6.89687">
        <ele>214</ele>
        <time>2011-01-09T08:31:51Z</time>
      </trkpt>
      <trkpt lat="43.48384" lon="6.89682">
        <ele>214</ele>
        <time>2011-01-09T08:31:52Z</time>
      </trkpt>
      <trkpt lat="43.48383" lon="6.89677">
        <ele>214</ele>
        <time>2011-01-09T08:31:53Z</time>
      </trkpt>
      <trkpt lat="43.4838" lon="6.89668">
        <ele>214</ele>
        <time>2011-01-09T08:31:55Z</time>
      </trkpt>
      <trkpt lat="43.48376" lon="6.89659">
        <ele>213</ele>
        <time>2011-01-09T08:31:57Z</time>
      </trkpt>
      <trkpt lat="43.48371" lon="6.8965">
        <ele>212</ele>
        <time>2011-01-09T08:31:59Z</time>
      </trkpt>
      <trkpt lat="43.48369" lon="6.89645">
        <ele>211</ele>
        <time>2011-01-09T08:32:00Z</time>
      </trkpt>
      <trkpt lat="43.48366" lon="6.89641">
        <ele>211</ele>
        <time>2011-01-09T08:32:01Z</time>
      </trkpt>
      <trkpt lat="43.48357" lon="6.89631">
        <ele>209</ele>
        <time>2011-01-09T08:32:04Z</time>
      </trkpt>
      <trkpt lat="43.48351" lon="6.89625">
        <ele>209</ele>
        <time>2011-01-09T08:32:06Z</time>
      </trkpt>
      <trkpt lat="43.48345" lon="6.8962">
        <ele>208</ele>
        <time>2011-01-09T08:32:08Z</time>
      </trkpt>
      <trkpt lat="43.48342" lon="6.89618">
        <ele>208</ele>
        <time>2011-01-09T08:32:09Z</time>
      </trkpt>
      <trkpt lat="43.48335" lon="6.89615">
        <ele>207</ele>
        <time>2011-01-09T08:32:11Z</time>
      </trkpt>
      <trkpt lat="43.48334" lon="6.89613">
        <ele>207</ele>
        <time>2011-01-09T08:32:12Z</time>
      </trkpt>
      <trkpt lat="43.4833" lon="6.89611">
        <ele>207</ele>
        <time>2011-01-09T08:32:14Z</time>
      </trkpt>
      <trkpt lat="43.48318" lon="6.89601">
        <ele>206</ele>
        <time>2011-01-09T08:32:18Z</time>
      </trkpt>
      <trkpt lat="43.48312" lon="6.89595">
        <ele>205</ele>
        <time>2011-01-09T08:32:20Z</time>
      </trkpt>
      <trkpt lat="43.48308" lon="6.89592">
        <ele>205</ele>
        <time>2011-01-09T08:32:21Z</time>
      </trkpt>
      <trkpt lat="43.48304" lon="6.8959">
        <ele>205</ele>
        <time>2011-01-09T08:32:22Z</time>
      </trkpt>
      <trkpt lat="43.48301" lon="6.89588">
        <ele>205</ele>
        <time>2011-01-09T08:32:23Z</time>
      </trkpt>
      <trkpt lat="43.48297" lon="6.89586">
        <ele>205</ele>
        <time>2011-01-09T08:32:24Z</time>
      </trkpt>
      <trkpt lat="43.48293" lon="6.89583">
        <ele>205</ele>
        <time>2011-01-09T08:32:25Z</time>
      </trkpt>
      <trkpt lat="43.48292" lon="6.89579">
        <ele>205</ele>
        <time>2011-01-09T08:32:26Z</time>
      </trkpt>
      <trkpt lat="43.4829" lon="6.89575">
        <ele>205</ele>
        <time>2011-01-09T08:32:27Z</time>
      </trkpt>
      <trkpt lat="43.4829" lon="6.89571">
        <ele>205</ele>
        <time>2011-01-09T08:32:28Z</time>
      </trkpt>
      <trkpt lat="43.48288" lon="6.89567">
        <ele>205</ele>
        <time>2011-01-09T08:32:29Z</time>
      </trkpt>
      <trkpt lat="43.48278" lon="6.89557">
        <ele>206</ele>
        <time>2011-01-09T08:32:32Z</time>
      </trkpt>
      <trkpt lat="43.4827" lon="6.8955">
        <ele>206</ele>
        <time>2011-01-09T08:32:34Z</time>
      </trkpt>
      <trkpt lat="43.48266" lon="6.89546">
        <ele>206</ele>
        <time>2011-01-09T08:32:35Z</time>
      </trkpt>
      <trkpt lat="43.48263" lon="6.89542">
        <ele>206</ele>
        <time>2011-01-09T08:32:36Z</time>
      </trkpt>
      <trkpt lat="43.4826" lon="6.89538">
        <ele>206</ele>
        <time>2011-01-09T08:32:37Z</time>
      </trkpt>
      <trkpt lat="43.48258" lon="6.89534">
        <ele>206</ele>
        <time>2011-01-09T08:32:38Z</time>
      </trkpt>
      <trkpt lat="43.48257" lon="6.8953">
        <ele>206</ele>
        <time>2011-01-09T08:32:39Z</time>
      </trkpt>
      <trkpt lat="43.48257" lon="6.89526">
        <ele>206</ele>
        <time>2011-01-09T08:32:40Z</time>
      </trkpt>
      <trkpt lat="43.48257" lon="6.89521">
        <ele>206</ele>
        <time>2011-01-09T08:32:41Z</time>
      </trkpt>
      <trkpt lat="43.48257" lon="6.89511">
        <ele>206</ele>
        <time>2011-01-09T08:32:43Z</time>
      </trkpt>
      <trkpt lat="43.48258" lon="6.89493">
        <ele>206</ele>
        <time>2011-01-09T08:32:46Z</time>
      </trkpt>
      <trkpt lat="43.48259" lon="6.89487">
        <ele>205</ele>
        <time>2011-01-09T08:32:47Z</time>
      </trkpt>
      <trkpt lat="43.4826" lon="6.89483">
        <ele>205</ele>
        <time>2011-01-09T08:32:48Z</time>
      </trkpt>
      <trkpt lat="43.48261" lon="6.89481">
        <ele>204</ele>
        <time>2011-01-09T08:32:49Z</time>
      </trkpt>
      <trkpt lat="43.48261" lon="6.89478">
        <ele>204</ele>
        <time>2011-01-09T08:32:50Z</time>
      </trkpt>
      <trkpt lat="43.4826" lon="6.89466">
        <ele>204</ele>
        <time>2011-01-09T08:32:53Z</time>
      </trkpt>
      <trkpt lat="43.48259" lon="6.89462">
        <ele>203</ele>
        <time>2011-01-09T08:32:54Z</time>
      </trkpt>
      <trkpt lat="43.48254" lon="6.89449">
        <ele>201</ele>
        <time>2011-01-09T08:32:58Z</time>
      </trkpt>
      <trkpt lat="43.48254" lon="6.89447">
        <ele>200</ele>
        <time>2011-01-09T08:32:59Z</time>
      </trkpt>
      <trkpt lat="43.48253" lon="6.89445">
        <ele>200</ele>
        <time>2011-01-09T08:33:00Z</time>
      </trkpt>
      <trkpt lat="43.4825" lon="6.89435">
        <ele>198</ele>
        <time>2011-01-09T08:33:04Z</time>
      </trkpt>
      <trkpt lat="43.48248" lon="6.89432">
        <ele>197</ele>
        <time>2011-01-09T08:33:05Z</time>
      </trkpt>
      <trkpt lat="43.48247" lon="6.89429">
        <ele>197</ele>
        <time>2011-01-09T08:33:06Z</time>
      </trkpt>
      <trkpt lat="43.48246" lon="6.89424">
        <ele>196</ele>
        <time>2011-01-09T08:33:08Z</time>
      </trkpt>
      <trkpt lat="43.48243" lon="6.89417">
        <ele>194</ele>
        <time>2011-01-09T08:33:10Z</time>
      </trkpt>
      <trkpt lat="43.48241" lon="6.89414">
        <ele>194</ele>
        <time>2011-01-09T08:33:11Z</time>
      </trkpt>
      <trkpt lat="43.4824" lon="6.89412">
        <ele>193</ele>
        <time>2011-01-09T08:33:12Z</time>
      </trkpt>
      <trkpt lat="43.48236" lon="6.89407">
        <ele>193</ele>
        <time>2011-01-09T08:33:14Z</time>
      </trkpt>
      <trkpt lat="43.48232" lon="6.89398">
        <ele>192</ele>
        <time>2011-01-09T08:33:17Z</time>
      </trkpt>
      <trkpt lat="43.4823" lon="6.89396">
        <ele>192</ele>
        <time>2011-01-09T08:33:18Z</time>
      </trkpt>
      <trkpt lat="43.48225" lon="6.89384">
        <ele>191</ele>
        <time>2011-01-09T08:33:22Z</time>
      </trkpt>
      <trkpt lat="43.48223" lon="6.89382">
        <ele>191</ele>
        <time>2011-01-09T08:33:23Z</time>
      </trkpt>
      <trkpt lat="43.48221" lon="6.89379">
        <ele>191</ele>
        <time>2011-01-09T08:33:24Z</time>
      </trkpt>
      <trkpt lat="43.48217" lon="6.89373">
        <ele>191</ele>
        <time>2011-01-09T08:33:26Z</time>
      </trkpt>
      <trkpt lat="43.48214" lon="6.89367">
        <ele>190</ele>
        <time>2011-01-09T08:33:28Z</time>
      </trkpt>
      <trkpt lat="43.48213" lon="6.89364">
        <ele>190</ele>
        <time>2011-01-09T08:33:29Z</time>
      </trkpt>
      <trkpt lat="43.48211" lon="6.89361">
        <ele>190</ele>
        <time>2011-01-09T08:33:30Z</time>
      </trkpt>
      <trkpt lat="43.4821" lon="6.89358">
        <ele>189</ele>
        <time>2011-01-09T08:33:31Z</time>
      </trkpt>
      <trkpt lat="43.48206" lon="6.89352">
        <ele>189</ele>
        <time>2011-01-09T08:33:33Z</time>
      </trkpt>
      <trkpt lat="43.48204" lon="6.89347">
        <ele>188</ele>
        <time>2011-01-09T08:33:35Z</time>
      </trkpt>
      <trkpt lat="43.48201" lon="6.8934">
        <ele>188</ele>
        <time>2011-01-09T08:33:37Z</time>
      </trkpt>
      <trkpt lat="43.482" lon="6.89337">
        <ele>187</ele>
        <time>2011-01-09T08:33:38Z</time>
      </trkpt>
      <trkpt lat="43.48198" lon="6.89335">
        <ele>186</ele>
        <time>2011-01-09T08:33:39Z</time>
      </trkpt>
      <trkpt lat="43.48197" lon="6.89333">
        <ele>186</ele>
        <time>2011-01-09T08:33:40Z</time>
      </trkpt>
      <trkpt lat="43.48195" lon="6.89326">
        <ele>183</ele>
        <time>2011-01-09T08:33:43Z</time>
      </trkpt>
      <trkpt lat="43.48193" lon="6.89324">
        <ele>182</ele>
        <time>2011-01-09T08:33:45Z</time>
      </trkpt>
      <trkpt lat="43.48192" lon="6.89319">
        <ele>181</ele>
        <time>2011-01-09T08:33:47Z</time>
      </trkpt>
      <trkpt lat="43.48192" lon="6.89314">
        <ele>179</ele>
        <time>2011-01-09T08:33:50Z</time>
      </trkpt>
      <trkpt lat="43.48192" lon="6.89313">
        <ele>179</ele>
        <time>2011-01-09T08:33:51Z</time>
      </trkpt>
      <trkpt lat="43.48192" lon="6.89313">
        <ele>178</ele>
        <time>2011-01-09T08:33:55Z</time>
      </trkpt>
      <trkpt lat="43.48192" lon="6.89313">
        <ele>178</ele>
        <time>2011-01-09T08:33:56Z</time>
      </trkpt>
      <trkpt lat="43.48192" lon="6.89311">
        <ele>178</ele>
        <time>2011-01-09T08:33:58Z</time>
      </trkpt>
      <trkpt lat="43.48192" lon="6.89308">
        <ele>177</ele>
        <time>2011-01-09T08:34:05Z</time>
      </trkpt>
      <trkpt lat="43.48191" lon="6.89303">
        <ele>176</ele>
        <time>2011-01-09T08:34:08Z</time>
      </trkpt>
      <trkpt lat="43.48191" lon="6.89301">
        <ele>176</ele>
        <time>2011-01-09T08:34:10Z</time>
      </trkpt>
      <trkpt lat="43.48191" lon="6.89299">
        <ele>176</ele>
        <time>2011-01-09T08:34:12Z</time>
      </trkpt>
      <trkpt lat="43.4819" lon="6.89299">
        <ele>176</ele>
        <time>2011-01-09T08:34:18Z</time>
      </trkpt>
      <trkpt lat="43.4819" lon="6.89297">
        <ele>175</ele>
        <time>2011-01-09T08:34:20Z</time>
      </trkpt>
      <trkpt lat="43.4819" lon="6.89293">
        <ele>175</ele>
        <time>2011-01-09T08:34:27Z</time>
      </trkpt>
      <trkpt lat="43.4819" lon="6.89292">
        <ele>174</ele>
        <time>2011-01-09T08:34:28Z</time>
      </trkpt>
      <trkpt lat="43.48189" lon="6.89287">
        <ele>174</ele>
        <time>2011-01-09T08:34:31Z</time>
      </trkpt>
      <trkpt lat="43.48189" lon="6.89283">
        <ele>173</ele>
        <time>2011-01-09T08:34:33Z</time>
      </trkpt>
      <trkpt lat="43.48187" lon="6.89276">
        <ele>172</ele>
        <time>2011-01-09T08:34:36Z</time>
      </trkpt>
      <trkpt lat="43.48185" lon="6.89274">
        <ele>172</ele>
        <time>2011-01-09T08:34:37Z</time>
      </trkpt>
      <trkpt lat="43.48184" lon="6.8927">
        <ele>171</ele>
        <time>2011-01-09T08:34:39Z</time>
      </trkpt>
      <trkpt lat="43.48182" lon="6.89264">
        <ele>170</ele>
        <time>2011-01-09T08:34:41Z</time>
      </trkpt>
      <trkpt lat="43.48181" lon="6.89259">
        <ele>170</ele>
        <time>2011-01-09T08:34:43Z</time>
      </trkpt>
      <trkpt lat="43.4818" lon="6.89251">
        <ele>169</ele>
        <time>2011-01-09T08:34:46Z</time>
      </trkpt>
      <trkpt lat="43.4818" lon="6.89248">
        <ele>168</ele>
        <time>2011-01-09T08:34:47Z</time>
      </trkpt>
      <trkpt lat="43.48181" lon="6.89244">
        <ele>168</ele>
        <time>2011-01-09T08:34:49Z</time>
      </trkpt>
      <trkpt lat="43.48182" lon="6.89238">
        <ele>167</ele>
        <time>2011-01-09T08:34:51Z</time>
      </trkpt>
      <trkpt lat="43.48182" lon="6.89235">
        <ele>166</ele>
        <time>2011-01-09T08:34:52Z</time>
      </trkpt>
      <trkpt lat="43.48183" lon="6.89232">
        <ele>166</ele>
        <time>2011-01-09T08:34:53Z</time>
      </trkpt>
      <trkpt lat="43.48185" lon="6.89229">
        <ele>165</ele>
        <time>2011-01-09T08:34:54Z</time>
      </trkpt>
      <trkpt lat="43.48186" lon="6.89227">
        <ele>165</ele>
        <time>2011-01-09T08:34:55Z</time>
      </trkpt>
      <trkpt lat="43.48187" lon="6.89223">
        <ele>164</ele>
        <time>2011-01-09T08:34:57Z</time>
      </trkpt>
      <trkpt lat="43.48188" lon="6.89221">
        <ele>164</ele>
        <time>2011-01-09T08:34:59Z</time>
      </trkpt>
      <trkpt lat="43.48188" lon="6.89218">
        <ele>163</ele>
        <time>2011-01-09T08:35:01Z</time>
      </trkpt>
      <trkpt lat="43.48189" lon="6.89212">
        <ele>162</ele>
        <time>2011-01-09T08:35:04Z</time>
      </trkpt>
      <trkpt lat="43.48191" lon="6.89208">
        <ele>162</ele>
        <time>2011-01-09T08:35:06Z</time>
      </trkpt>
      <trkpt lat="43.48191" lon="6.89208">
        <ele>162</ele>
        <time>2011-01-09T08:35:07Z</time>
      </trkpt>
      <trkpt lat="43.48191" lon="6.89207">
        <ele>162</ele>
        <time>2011-01-09T08:35:09Z</time>
      </trkpt>
      <trkpt lat="43.48192" lon="6.89207">
        <ele>161</ele>
        <time>2011-01-09T08:35:11Z</time>
      </trkpt>
      <trkpt lat="43.48192" lon="6.89206">
        <ele>161</ele>
        <time>2011-01-09T08:35:12Z</time>
      </trkpt>
      <trkpt lat="43.48191" lon="6.89206">
        <ele>161</ele>
        <time>2011-01-09T08:35:13Z</time>
      </trkpt>
      <trkpt lat="43.48191" lon="6.89204">
        <ele>160</ele>
        <time>2011-01-09T08:35:16Z</time>
      </trkpt>
      <trkpt lat="43.48192" lon="6.89203">
        <ele>160</ele>
        <time>2011-01-09T08:35:17Z</time>
      </trkpt>
      <trkpt lat="43.48191" lon="6.892">
        <ele>160</ele>
        <time>2011-01-09T08:35:23Z</time>
      </trkpt>
      <trkpt lat="43.48191" lon="6.89199">
        <ele>159</ele>
        <time>2011-01-09T08:35:46Z</time>
      </trkpt>
      <trkpt lat="43.48192" lon="6.89197">
        <ele>159</ele>
        <time>2011-01-09T08:35:50Z</time>
      </trkpt>
      <trkpt lat="43.48192" lon="6.89194">
        <ele>159</ele>
        <time>2011-01-09T08:35:52Z</time>
      </trkpt>
      <trkpt lat="43.48193" lon="6.89193">
        <ele>158</ele>
        <time>2011-01-09T08:36:00Z</time>
      </trkpt>
      <trkpt lat="43.48194" lon="6.89193">
        <ele>158</ele>
        <time>2011-01-09T08:36:02Z</time>
      </trkpt>
      <trkpt lat="43.48196" lon="6.89189">
        <ele>158</ele>
        <time>2011-01-09T08:36:05Z</time>
      </trkpt>
      <trkpt lat="43.48196" lon="6.89188">
        <ele>158</ele>
        <time>2011-01-09T08:36:06Z</time>
      </trkpt>
      <trkpt lat="43.48196" lon="6.89188">
        <ele>158</ele>
        <time>2011-01-09T08:36:13Z</time>
      </trkpt>
      <trkpt lat="43.48196" lon="6.89186">
        <ele>158</ele>
        <time>2011-01-09T08:36:14Z</time>
      </trkpt>
      <trkpt lat="43.48199" lon="6.89182">
        <ele>158</ele>
        <time>2011-01-09T08:36:16Z</time>
      </trkpt>
      <trkpt lat="43.48199" lon="6.89178">
        <ele>158</ele>
        <time>2011-01-09T08:36:17Z</time>
      </trkpt>
      <trkpt lat="43.48201" lon="6.89175">
        <ele>158</ele>
        <time>2011-01-09T08:36:18Z</time>
      </trkpt>
      <trkpt lat="43.48203" lon="6.89173">
        <ele>158</ele>
        <time>2011-01-09T08:36:19Z</time>
      </trkpt>
      <trkpt lat="43.48206" lon="6.89172">
        <ele>158</ele>
        <time>2011-01-09T08:36:20Z</time>
      </trkpt>
      <trkpt lat="43.48211" lon="6.8917">
        <ele>157</ele>
        <time>2011-01-09T08:36:22Z</time>
      </trkpt>
      <trkpt lat="43.48213" lon="6.89169">
        <ele>157</ele>
        <time>2011-01-09T08:36:23Z</time>
      </trkpt>
      <trkpt lat="43.48215" lon="6.89167">
        <ele>157</ele>
        <time>2011-01-09T08:36:24Z</time>
      </trkpt>
      <trkpt lat="43.48217" lon="6.89165">
        <ele>156</ele>
        <time>2011-01-09T08:36:25Z</time>
      </trkpt>
      <trkpt lat="43.48219" lon="6.89162">
        <ele>156</ele>
        <time>2011-01-09T08:36:26Z</time>
      </trkpt>
      <trkpt lat="43.48219" lon="6.89159">
        <ele>156</ele>
        <time>2011-01-09T08:36:27Z</time>
      </trkpt>
      <trkpt lat="43.4822" lon="6.89156">
        <ele>155</ele>
        <time>2011-01-09T08:36:28Z</time>
      </trkpt>
      <trkpt lat="43.48219" lon="6.89148">
        <ele>154</ele>
        <time>2011-01-09T08:36:30Z</time>
      </trkpt>
      <trkpt lat="43.48218" lon="6.89141">
        <ele>153</ele>
        <time>2011-01-09T08:36:32Z</time>
      </trkpt>
      <trkpt lat="43.48218" lon="6.89137">
        <ele>152</ele>
        <time>2011-01-09T08:36:33Z</time>
      </trkpt>
      <trkpt lat="43.48218" lon="6.89123">
        <ele>150</ele>
        <time>2011-01-09T08:36:37Z</time>
      </trkpt>
      <trkpt lat="43.48217" lon="6.89103">
        <ele>147</ele>
        <time>2011-01-09T08:36:43Z</time>
      </trkpt>
      <trkpt lat="43.48216" lon="6.89099">
        <ele>147</ele>
        <time>2011-01-09T08:36:44Z</time>
      </trkpt>
      <trkpt lat="43.48216" lon="6.89091">
        <ele>146</ele>
        <time>2011-01-09T08:36:46Z</time>
      </trkpt>
      <trkpt lat="43.48216" lon="6.89087">
        <ele>145</ele>
        <time>2011-01-09T08:36:47Z</time>
      </trkpt>
      <trkpt lat="43.48216" lon="6.89083">
        <ele>145</ele>
        <time>2011-01-09T08:36:48Z</time>
      </trkpt>
      <trkpt lat="43.48216" lon="6.89076">
        <ele>144</ele>
        <time>2011-01-09T08:36:50Z</time>
      </trkpt>
      <trkpt lat="43.48216" lon="6.89073">
        <ele>143</ele>
        <time>2011-01-09T08:36:51Z</time>
      </trkpt>
      <trkpt lat="43.48215" lon="6.89069">
        <ele>143</ele>
        <time>2011-01-09T08:36:52Z</time>
      </trkpt>
      <trkpt lat="43.48213" lon="6.89066">
        <ele>143</ele>
        <time>2011-01-09T08:36:53Z</time>
      </trkpt>
      <trkpt lat="43.48213" lon="6.89063">
        <ele>143</ele>
        <time>2011-01-09T08:36:54Z</time>
      </trkpt>
      <trkpt lat="43.48213" lon="6.89059">
        <ele>142</ele>
        <time>2011-01-09T08:36:55Z</time>
      </trkpt>
      <trkpt lat="43.48212" lon="6.89056">
        <ele>142</ele>
        <time>2011-01-09T08:36:56Z</time>
      </trkpt>
      <trkpt lat="43.48212" lon="6.89053">
        <ele>141</ele>
        <time>2011-01-09T08:36:57Z</time>
      </trkpt>
      <trkpt lat="43.48212" lon="6.89049">
        <ele>140</ele>
        <time>2011-01-09T08:36:58Z</time>
      </trkpt>
      <trkpt lat="43.48212" lon="6.89045">
        <ele>140</ele>
        <time>2011-01-09T08:36:59Z</time>
      </trkpt>
      <trkpt lat="43.48211" lon="6.8904">
        <ele>139</ele>
        <time>2011-01-09T08:37:00Z</time>
      </trkpt>
      <trkpt lat="43.48211" lon="6.89035">
        <ele>138</ele>
        <time>2011-01-09T08:37:01Z</time>
      </trkpt>
      <trkpt lat="43.48211" lon="6.89031">
        <ele>138</ele>
        <time>2011-01-09T08:37:02Z</time>
      </trkpt>
      <trkpt lat="43.48211" lon="6.89027">
        <ele>137</ele>
        <time>2011-01-09T08:37:03Z</time>
      </trkpt>
      <trkpt lat="43.48213" lon="6.89024">
        <ele>136</ele>
        <time>2011-01-09T08:37:04Z</time>
      </trkpt>
      <trkpt lat="43.48214" lon="6.89019">
        <ele>135</ele>
        <time>2011-01-09T08:37:05Z</time>
      </trkpt>
      <trkpt lat="43.48218" lon="6.89013">
        <ele>134</ele>
        <time>2011-01-09T08:37:07Z</time>
      </trkpt>
      <trkpt lat="43.4822" lon="6.8901">
        <ele>133</ele>
        <time>2011-01-09T08:37:08Z</time>
      </trkpt>
      <trkpt lat="43.48222" lon="6.89001">
        <ele>132</ele>
        <time>2011-01-09T08:37:11Z</time>
      </trkpt>
      <trkpt lat="43.48223" lon="6.88998">
        <ele>131</ele>
        <time>2011-01-09T08:37:12Z</time>
      </trkpt>
      <trkpt lat="43.48223" lon="6.88991">
        <ele>130</ele>
        <time>2011-01-09T08:37:14Z</time>
      </trkpt>
      <trkpt lat="43.48223" lon="6.88988">
        <ele>130</ele>
        <time>2011-01-09T08:37:15Z</time>
      </trkpt>
      <trkpt lat="43.48222" lon="6.88982">
        <ele>129</ele>
        <time>2011-01-09T08:37:17Z</time>
      </trkpt>
      <trkpt lat="43.48222" lon="6.88978">
        <ele>128</ele>
        <time>2011-01-09T08:37:18Z</time>
      </trkpt>
      <trkpt lat="43.48221" lon="6.88975">
        <ele>128</ele>
        <time>2011-01-09T08:37:19Z</time>
      </trkpt>
      <trkpt lat="43.48219" lon="6.88971">
        <ele>127</ele>
        <time>2011-01-09T08:37:20Z</time>
      </trkpt>
      <trkpt lat="43.48218" lon="6.88968">
        <ele>127</ele>
        <time>2011-01-09T08:37:21Z</time>
      </trkpt>
      <trkpt lat="43.48216" lon="6.88966">
        <ele>126</ele>
        <time>2011-01-09T08:37:22Z</time>
      </trkpt>
      <trkpt lat="43.48214" lon="6.88963">
        <ele>126</ele>
        <time>2011-01-09T08:37:23Z</time>
      </trkpt>
      <trkpt lat="43.48212" lon="6.88961">
        <ele>125</ele>
        <time>2011-01-09T08:37:24Z</time>
      </trkpt>
      <trkpt lat="43.48209" lon="6.88955">
        <ele>124</ele>
        <time>2011-01-09T08:37:26Z</time>
      </trkpt>
      <trkpt lat="43.48207" lon="6.88952">
        <ele>124</ele>
        <time>2011-01-09T08:37:27Z</time>
      </trkpt>
      <trkpt lat="43.48205" lon="6.8895">
        <ele>123</ele>
        <time>2011-01-09T08:37:28Z</time>
      </trkpt>
      <trkpt lat="43.48203" lon="6.88948">
        <ele>122</ele>
        <time>2011-01-09T08:37:29Z</time>
      </trkpt>
      <trkpt lat="43.48201" lon="6.88945">
        <ele>122</ele>
        <time>2011-01-09T08:37:30Z</time>
      </trkpt>
      <trkpt lat="43.482" lon="6.88943">
        <ele>121</ele>
        <time>2011-01-09T08:37:31Z</time>
      </trkpt>
      <trkpt lat="43.48198" lon="6.88942">
        <ele>121</ele>
        <time>2011-01-09T08:37:32Z</time>
      </trkpt>
      <trkpt lat="43.48194" lon="6.88936">
        <ele>120</ele>
        <time>2011-01-09T08:37:34Z</time>
      </trkpt>
      <trkpt lat="43.48192" lon="6.88933">
        <ele>119</ele>
        <time>2011-01-09T08:37:35Z</time>
      </trkpt>
      <trkpt lat="43.48189" lon="6.88931">
        <ele>118</ele>
        <time>2011-01-09T08:37:36Z</time>
      </trkpt>
      <trkpt lat="43.48186" lon="6.88928">
        <ele>118</ele>
        <time>2011-01-09T08:37:37Z</time>
      </trkpt>
      <trkpt lat="43.48184" lon="6.88924">
        <ele>118</ele>
        <time>2011-01-09T08:37:38Z</time>
      </trkpt>
      <trkpt lat="43.48183" lon="6.88922">
        <ele>117</ele>
        <time>2011-01-09T08:37:39Z</time>
      </trkpt>
      <trkpt lat="43.4818" lon="6.88918">
        <ele>117</ele>
        <time>2011-01-09T08:37:40Z</time>
      </trkpt>
      <trkpt lat="43.48178" lon="6.88915">
        <ele>117</ele>
        <time>2011-01-09T08:37:41Z</time>
      </trkpt>
      <trkpt lat="43.48173" lon="6.88909">
        <ele>116</ele>
        <time>2011-01-09T08:37:43Z</time>
      </trkpt>
      <trkpt lat="43.48169" lon="6.88907">
        <ele>115</ele>
        <time>2011-01-09T08:37:44Z</time>
      </trkpt>
      <trkpt lat="43.48166" lon="6.88905">
        <ele>114</ele>
        <time>2011-01-09T08:37:45Z</time>
      </trkpt>
      <trkpt lat="43.48162" lon="6.889">
        <ele>113</ele>
        <time>2011-01-09T08:37:47Z</time>
      </trkpt>
      <trkpt lat="43.4816" lon="6.88899">
        <ele>112</ele>
        <time>2011-01-09T08:37:48Z</time>
      </trkpt>
      <trkpt lat="43.48153" lon="6.88895">
        <ele>110</ele>
        <time>2011-01-09T08:37:50Z</time>
      </trkpt>
      <trkpt lat="43.4815" lon="6.88893">
        <ele>110</ele>
        <time>2011-01-09T08:37:51Z</time>
      </trkpt>
      <trkpt lat="43.48145" lon="6.88887">
        <ele>108</ele>
        <time>2011-01-09T08:37:53Z</time>
      </trkpt>
      <trkpt lat="43.48142" lon="6.88885">
        <ele>107</ele>
        <time>2011-01-09T08:37:54Z</time>
      </trkpt>
      <trkpt lat="43.48136" lon="6.88882">
        <ele>106</ele>
        <time>2011-01-09T08:37:56Z</time>
      </trkpt>
      <trkpt lat="43.48134" lon="6.88879">
        <ele>105</ele>
        <time>2011-01-09T08:37:57Z</time>
      </trkpt>
      <trkpt lat="43.48131" lon="6.88877">
        <ele>104</ele>
        <time>2011-01-09T08:37:58Z</time>
      </trkpt>
      <trkpt lat="43.48129" lon="6.88874">
        <ele>103</ele>
        <time>2011-01-09T08:37:59Z</time>
      </trkpt>
      <trkpt lat="43.48124" lon="6.88868">
        <ele>101</ele>
        <time>2011-01-09T08:38:02Z</time>
      </trkpt>
      <trkpt lat="43.48122" lon="6.88865">
        <ele>100</ele>
        <time>2011-01-09T08:38:03Z</time>
      </trkpt>
      <trkpt lat="43.48121" lon="6.88864">
        <ele>101</ele>
        <time>2011-01-09T08:38:04Z</time>
      </trkpt>
      <trkpt lat="43.48121" lon="6.88864">
        <ele>100</ele>
        <time>2011-01-09T08:38:05Z</time>
      </trkpt>
      <trkpt lat="43.48121" lon="6.88864">
        <ele>100</ele>
        <time>2011-01-09T08:38:23Z</time>
      </trkpt>
      <trkpt lat="43.4812" lon="6.88862">
        <ele>100</ele>
        <time>2011-01-09T08:38:25Z</time>
      </trkpt>
      <trkpt lat="43.4812" lon="6.88862">
        <ele>100</ele>
        <time>2011-01-09T08:38:26Z</time>
      </trkpt>
      <trkpt lat="43.4812" lon="6.88861">
        <ele>100</ele>
        <time>2011-01-09T08:38:27Z</time>
      </trkpt>
      <trkpt lat="43.4812" lon="6.8886">
        <ele>100</ele>
        <time>2011-01-09T08:38:28Z</time>
      </trkpt>
      <trkpt lat="43.48118" lon="6.88858">
        <ele>99</ele>
        <time>2011-01-09T08:38:31Z</time>
      </trkpt>
      <trkpt lat="43.48118" lon="6.88857">
        <ele>99</ele>
        <time>2011-01-09T08:38:32Z</time>
      </trkpt>
      <trkpt lat="43.48117" lon="6.88857">
        <ele>99</ele>
        <time>2011-01-09T08:38:35Z</time>
      </trkpt>
      <trkpt lat="43.48117" lon="6.88858">
        <ele>99</ele>
        <time>2011-01-09T08:38:37Z</time>
      </trkpt>
      <trkpt lat="43.48117" lon="6.88858">
        <ele>99</ele>
        <time>2011-01-09T08:38:39Z</time>
      </trkpt>
      <trkpt lat="43.48118" lon="6.88858">
        <ele>99</ele>
        <time>2011-01-09T08:38:40Z</time>
      </trkpt>
      <trkpt lat="43.48118" lon="6.88859">
        <ele>99</ele>
        <time>2011-01-09T08:39:00Z</time>
      </trkpt>
      <trkpt lat="43.48118" lon="6.88858">
        <ele>99</ele>
        <time>2011-01-09T08:39:17Z</time>
      </trkpt>
      <trkpt lat="43.48118" lon="6.88858">
        <ele>99</ele>
        <time>2011-01-09T08:39:24Z</time>
      </trkpt>
      <trkpt lat="43.48119" lon="6.88858">
        <ele>99</ele>
        <time>2011-01-09T08:39:37Z</time>
      </trkpt>
      <trkpt lat="43.48119" lon="6.88858">
        <ele>99</ele>
        <time>2011-01-09T08:39:38Z</time>
      </trkpt>
      <trkpt lat="43.48119" lon="6.88858">
        <ele>99</ele>
        <time>2011-01-09T08:40:01Z</time>
      </trkpt>
      <trkpt lat="43.48119" lon="6.88858">
        <ele>99</ele>
        <time>2011-01-09T08:40:02Z</time>
      </trkpt>
      <trkpt lat="43.48119" lon="6.88858">
        <ele>99</ele>
        <time>2011-01-09T08:40:03Z</time>
      </trkpt>
      <trkpt lat="43.48119" lon="6.88858">
        <ele>99</ele>
        <time>2011-01-09T08:40:45Z</time>
      </trkpt>
      <trkpt lat="43.48118" lon="6.88858">
        <ele>99</ele>
        <time>2011-01-09T08:41:05Z</time>
      </trkpt>
      <trkpt lat="43.48118" lon="6.88857">
        <ele>99</ele>
        <time>2011-01-09T08:41:54Z</time>
      </trkpt>
      <trkpt lat="43.48118" lon="6.88858">
        <ele>100</ele>
        <time>2011-01-09T08:47:52Z</time>
      </trkpt>
      <trkpt lat="43.48118" lon="6.88858">
        <ele>99</ele>
        <time>2011-01-09T08:48:44Z</time>
      </trkpt>
      <trkpt lat="43.48118" lon="6.88858">
        <ele>99</ele>
        <time>2011-01-09T08:48:45Z</time>
      </trkpt>
      <trkpt lat="43.48119" lon="6.88858">
        <ele>100</ele>
        <time>2011-01-09T08:48:47Z</time>
      </trkpt>
      <trkpt lat="43.48119" lon="6.88858">
        <ele>99</ele>
        <time>2011-01-09T08:49:01Z</time>
      </trkpt>
      <trkpt lat="43.48119" lon="6.88858">
        <ele>99</ele>
        <time>2011-01-09T08:49:32Z</time>
      </trkpt>
      <trkpt lat="43.48119" lon="6.88857">
        <ele>99</ele>
        <time>2011-01-09T08:49:34Z</time>
      </trkpt>
      <trkpt lat="43.48118" lon="6.88858">
        <ele>99</ele>
        <time>2011-01-09T08:49:38Z</time>
      </trkpt>
      <trkpt lat="43.48117" lon="6.88855">
        <ele>99</ele>
        <time>2011-01-09T08:49:40Z</time>
      </trkpt>
      <trkpt lat="43.48114" lon="6.88853">
        <ele>98</ele>
        <time>2011-01-09T08:49:43Z</time>
      </trkpt>
      <trkpt lat="43.48112" lon="6.88852">
        <ele>98</ele>
        <time>2011-01-09T08:49:44Z</time>
      </trkpt>
      <trkpt lat="43.48109" lon="6.88847">
        <ele>97</ele>
        <time>2011-01-09T08:49:47Z</time>
      </trkpt>
      <trkpt lat="43.48106" lon="6.88841">
        <ele>96</ele>
        <time>2011-01-09T08:49:49Z</time>
      </trkpt>
      <trkpt lat="43.48104" lon="6.88838">
        <ele>96</ele>
        <time>2011-01-09T08:49:50Z</time>
      </trkpt>
      <trkpt lat="43.48103" lon="6.88836">
        <ele>95</ele>
        <time>2011-01-09T08:49:51Z</time>
      </trkpt>
      <trkpt lat="43.48101" lon="6.88835">
        <ele>95</ele>
        <time>2011-01-09T08:49:52Z</time>
      </trkpt>
      <trkpt lat="43.481" lon="6.88834">
        <ele>95</ele>
        <time>2011-01-09T08:49:53Z</time>
      </trkpt>
      <trkpt lat="43.48099" lon="6.88832">
        <ele>94</ele>
        <time>2011-01-09T08:49:54Z</time>
      </trkpt>
      <trkpt lat="43.48097" lon="6.88827">
        <ele>93</ele>
        <time>2011-01-09T08:49:56Z</time>
      </trkpt>
      <trkpt lat="43.48096" lon="6.88824">
        <ele>93</ele>
        <time>2011-01-09T08:49:57Z</time>
      </trkpt>
      <trkpt lat="43.48091" lon="6.88818">
        <ele>92</ele>
        <time>2011-01-09T08:50:00Z</time>
      </trkpt>
      <trkpt lat="43.48089" lon="6.88816">
        <ele>92</ele>
        <time>2011-01-09T08:50:01Z</time>
      </trkpt>
      <trkpt lat="43.48084" lon="6.88813">
        <ele>91</ele>
        <time>2011-01-09T08:50:03Z</time>
      </trkpt>
      <trkpt lat="43.48081" lon="6.88811">
        <ele>90</ele>
        <time>2011-01-09T08:50:04Z</time>
      </trkpt>
      <trkpt lat="43.48072" lon="6.88809">
        <ele>89</ele>
        <time>2011-01-09T08:50:07Z</time>
      </trkpt>
      <trkpt lat="43.4807" lon="6.88809">
        <ele>89</ele>
        <time>2011-01-09T08:50:08Z</time>
      </trkpt>
      <trkpt lat="43.48065" lon="6.88805">
        <ele>87</ele>
        <time>2011-01-09T08:50:11Z</time>
      </trkpt>
      <trkpt lat="43.48058" lon="6.88803">
        <ele>87</ele>
        <time>2011-01-09T08:50:14Z</time>
      </trkpt>
      <trkpt lat="43.48058" lon="6.88803">
        <ele>86</ele>
        <time>2011-01-09T08:50:15Z</time>
      </trkpt>
      <trkpt lat="43.48058" lon="6.88804">
        <ele>86</ele>
        <time>2011-01-09T08:50:20Z</time>
      </trkpt>
      <trkpt lat="43.48057" lon="6.88804">
        <ele>86</ele>
        <time>2011-01-09T08:50:21Z</time>
      </trkpt>
      <trkpt lat="43.48057" lon="6.88804">
        <ele>86</ele>
        <time>2011-01-09T08:50:22Z</time>
      </trkpt>
      <trkpt lat="43.48057" lon="6.88804">
        <ele>86</ele>
        <time>2011-01-09T08:50:35Z</time>
      </trkpt>
      <trkpt lat="43.48056" lon="6.88804">
        <ele>86</ele>
        <time>2011-01-09T08:50:38Z</time>
      </trkpt>
      <trkpt lat="43.48056" lon="6.88804">
        <ele>86</ele>
        <time>2011-01-09T08:50:39Z</time>
      </trkpt>
      <trkpt lat="43.48054" lon="6.88803">
        <ele>86</ele>
        <time>2011-01-09T08:50:40Z</time>
      </trkpt>
      <trkpt lat="43.48046" lon="6.88803">
        <ele>84</ele>
        <time>2011-01-09T08:50:44Z</time>
      </trkpt>
      <trkpt lat="43.48041" lon="6.88803">
        <ele>84</ele>
        <time>2011-01-09T08:50:46Z</time>
      </trkpt>
      <trkpt lat="43.48038" lon="6.88803">
        <ele>83</ele>
        <time>2011-01-09T08:50:47Z</time>
      </trkpt>
      <trkpt lat="43.48035" lon="6.88802">
        <ele>83</ele>
        <time>2011-01-09T08:50:48Z</time>
      </trkpt>
      <trkpt lat="43.48029" lon="6.88799">
        <ele>81</ele>
        <time>2011-01-09T08:50:50Z</time>
      </trkpt>
      <trkpt lat="43.48026" lon="6.88798">
        <ele>81</ele>
        <time>2011-01-09T08:50:51Z</time>
      </trkpt>
      <trkpt lat="43.48023" lon="6.88798">
        <ele>80</ele>
        <time>2011-01-09T08:50:52Z</time>
      </trkpt>
      <trkpt lat="43.48017" lon="6.88797">
        <ele>79</ele>
        <time>2011-01-09T08:50:54Z</time>
      </trkpt>
      <trkpt lat="43.48014" lon="6.88796">
        <ele>79</ele>
        <time>2011-01-09T08:50:55Z</time>
      </trkpt>
      <trkpt lat="43.48012" lon="6.88793">
        <ele>78</ele>
        <time>2011-01-09T08:50:56Z</time>
      </trkpt>
      <trkpt lat="43.4801" lon="6.8879">
        <ele>78</ele>
        <time>2011-01-09T08:50:57Z</time>
      </trkpt>
      <trkpt lat="43.48008" lon="6.88782">
        <ele>76</ele>
        <time>2011-01-09T08:50:59Z</time>
      </trkpt>
      <trkpt lat="43.48007" lon="6.88778">
        <ele>76</ele>
        <time>2011-01-09T08:51:00Z</time>
      </trkpt>
      <trkpt lat="43.48006" lon="6.88774">
        <ele>75</ele>
        <time>2011-01-09T08:51:01Z</time>
      </trkpt>
      <trkpt lat="43.48006" lon="6.88769">
        <ele>75</ele>
        <time>2011-01-09T08:51:02Z</time>
      </trkpt>
      <trkpt lat="43.48004" lon="6.8876">
        <ele>73</ele>
        <time>2011-01-09T08:51:04Z</time>
      </trkpt>
      <trkpt lat="43.48003" lon="6.88752">
        <ele>73</ele>
        <time>2011-01-09T08:51:06Z</time>
      </trkpt>
      <trkpt lat="43.48002" lon="6.8875">
        <ele>72</ele>
        <time>2011-01-09T08:51:07Z</time>
      </trkpt>
      <trkpt lat="43.48002" lon="6.88749">
        <ele>72</ele>
        <time>2011-01-09T08:51:08Z</time>
      </trkpt>
      <trkpt lat="43.48" lon="6.88748">
        <ele>72</ele>
        <time>2011-01-09T08:51:09Z</time>
      </trkpt>
      <trkpt lat="43.47993" lon="6.88747">
        <ele>72</ele>
        <time>2011-01-09T08:51:13Z</time>
      </trkpt>
      <trkpt lat="43.47991" lon="6.88748">
        <ele>72</ele>
        <time>2011-01-09T08:51:14Z</time>
      </trkpt>
      <trkpt lat="43.47991" lon="6.88748">
        <ele>71</ele>
        <time>2011-01-09T08:51:15Z</time>
      </trkpt>
      <trkpt lat="43.47991" lon="6.88748">
        <ele>71</ele>
        <time>2011-01-09T08:51:17Z</time>
      </trkpt>
      <trkpt lat="43.47991" lon="6.88748">
        <ele>71</ele>
        <time>2011-01-09T08:51:29Z</time>
      </trkpt>
      <trkpt lat="43.47988" lon="6.88747">
        <ele>71</ele>
        <time>2011-01-09T08:51:32Z</time>
      </trkpt>
      <trkpt lat="43.47981" lon="6.88745">
        <ele>71</ele>
        <time>2011-01-09T08:51:35Z</time>
      </trkpt>
      <trkpt lat="43.47978" lon="6.88744">
        <ele>71</ele>
        <time>2011-01-09T08:51:36Z</time>
      </trkpt>
      <trkpt lat="43.47976" lon="6.88744">
        <ele>71</ele>
        <time>2011-01-09T08:51:37Z</time>
      </trkpt>
      <trkpt lat="43.47968" lon="6.88746">
        <ele>71</ele>
        <time>2011-01-09T08:51:40Z</time>
      </trkpt>
      <trkpt lat="43.47955" lon="6.88747">
        <ele>70</ele>
        <time>2011-01-09T08:51:44Z</time>
      </trkpt>
      <trkpt lat="43.47943" lon="6.88748">
        <ele>70</ele>
        <time>2011-01-09T08:51:47Z</time>
      </trkpt>
      <trkpt lat="43.47932" lon="6.88748">
        <ele>70</ele>
        <time>2011-01-09T08:51:50Z</time>
      </trkpt>
      <trkpt lat="43.47926" lon="6.88748">
        <ele>70</ele>
        <time>2011-01-09T08:51:52Z</time>
      </trkpt>
      <trkpt lat="43.4792" lon="6.88748">
        <ele>69</ele>
        <time>2011-01-09T08:51:54Z</time>
      </trkpt>
      <trkpt lat="43.47915" lon="6.88748">
        <ele>69</ele>
        <time>2011-01-09T08:51:56Z</time>
      </trkpt>
      <trkpt lat="43.47912" lon="6.88747">
        <ele>69</ele>
        <time>2011-01-09T08:51:57Z</time>
      </trkpt>
      <trkpt lat="43.47908" lon="6.88746">
        <ele>69</ele>
        <time>2011-01-09T08:51:58Z</time>
      </trkpt>
      <trkpt lat="43.47902" lon="6.88743">
        <ele>69</ele>
        <time>2011-01-09T08:52:00Z</time>
      </trkpt>
      <trkpt lat="43.47899" lon="6.88742">
        <ele>69</ele>
        <time>2011-01-09T08:52:01Z</time>
      </trkpt>
      <trkpt lat="43.47893" lon="6.88739">
        <ele>68</ele>
        <time>2011-01-09T08:52:04Z</time>
      </trkpt>
      <trkpt lat="43.47892" lon="6.88739">
        <ele>68</ele>
        <time>2011-01-09T08:52:05Z</time>
      </trkpt>
      <trkpt lat="43.47892" lon="6.88739">
        <ele>68</ele>
        <time>2011-01-09T08:52:09Z</time>
      </trkpt>
      <trkpt lat="43.47892" lon="6.88739">
        <ele>68</ele>
        <time>2011-01-09T08:52:10Z</time>
      </trkpt>
      <trkpt lat="43.47892" lon="6.88739">
        <ele>68</ele>
        <time>2011-01-09T08:52:11Z</time>
      </trkpt>
      <trkpt lat="43.47894" lon="6.88741">
        <ele>68</ele>
        <time>2011-01-09T08:52:13Z</time>
      </trkpt>
      <trkpt lat="43.47894" lon="6.88742">
        <ele>68</ele>
        <time>2011-01-09T08:52:14Z</time>
      </trkpt>
      <trkpt lat="43.47895" lon="6.88743">
        <ele>68</ele>
        <time>2011-01-09T08:52:15Z</time>
      </trkpt>
      <trkpt lat="43.47894" lon="6.88744">
        <ele>68</ele>
        <time>2011-01-09T08:52:21Z</time>
      </trkpt>
      <trkpt lat="43.47892" lon="6.88745">
        <ele>68</ele>
        <time>2011-01-09T08:52:23Z</time>
      </trkpt>
      <trkpt lat="43.4789" lon="6.88745">
        <ele>68</ele>
        <time>2011-01-09T08:52:24Z</time>
      </trkpt>
      <trkpt lat="43.47887" lon="6.88745">
        <ele>68</ele>
        <time>2011-01-09T08:52:25Z</time>
      </trkpt>
      <trkpt lat="43.4788" lon="6.88744">
        <ele>68</ele>
        <time>2011-01-09T08:52:28Z</time>
      </trkpt>
      <trkpt lat="43.47878" lon="6.88743">
        <ele>68</ele>
        <time>2011-01-09T08:52:29Z</time>
      </trkpt>
      <trkpt lat="43.47877" lon="6.88741">
        <ele>68</ele>
        <time>2011-01-09T08:52:30Z</time>
      </trkpt>
      <trkpt lat="43.47876" lon="6.88735">
        <ele>68</ele>
        <time>2011-01-09T08:52:32Z</time>
      </trkpt>
      <trkpt lat="43.47876" lon="6.88731">
        <ele>68</ele>
        <time>2011-01-09T08:52:33Z</time>
      </trkpt>
      <trkpt lat="43.47877" lon="6.88728">
        <ele>68</ele>
        <time>2011-01-09T08:52:34Z</time>
      </trkpt>
      <trkpt lat="43.47878" lon="6.88724">
        <ele>67</ele>
        <time>2011-01-09T08:52:35Z</time>
      </trkpt>
      <trkpt lat="43.4788" lon="6.88721">
        <ele>67</ele>
        <time>2011-01-09T08:52:36Z</time>
      </trkpt>
      <trkpt lat="43.47885" lon="6.88717">
        <ele>68</ele>
        <time>2011-01-09T08:52:38Z</time>
      </trkpt>
      <trkpt lat="43.47886" lon="6.88715">
        <ele>68</ele>
        <time>2011-01-09T08:52:39Z</time>
      </trkpt>
      <trkpt lat="43.47887" lon="6.88713">
        <ele>68</ele>
        <time>2011-01-09T08:52:40Z</time>
      </trkpt>
      <trkpt lat="43.47887" lon="6.88712">
        <ele>68</ele>
        <time>2011-01-09T08:52:41Z</time>
      </trkpt>
      <trkpt lat="43.47885" lon="6.88709">
        <ele>68</ele>
        <time>2011-01-09T08:52:43Z</time>
      </trkpt>
      <trkpt lat="43.47884" lon="6.88708">
        <ele>68</ele>
        <time>2011-01-09T08:52:45Z</time>
      </trkpt>
      <trkpt lat="43.47883" lon="6.88708">
        <ele>68</ele>
        <time>2011-01-09T08:52:55Z</time>
      </trkpt>
      <trkpt lat="43.47884" lon="6.88709">
        <ele>68</ele>
        <time>2011-01-09T08:52:57Z</time>
      </trkpt>
      <trkpt lat="43.47885" lon="6.88709">
        <ele>68</ele>
        <time>2011-01-09T08:52:58Z</time>
      </trkpt>
      <trkpt lat="43.47885" lon="6.8871">
        <ele>68</ele>
        <time>2011-01-09T08:52:59Z</time>
      </trkpt>
      <trkpt lat="43.47885" lon="6.88711">
        <ele>68</ele>
        <time>2011-01-09T08:53:01Z</time>
      </trkpt>
      <trkpt lat="43.47886" lon="6.88714">
        <ele>68</ele>
        <time>2011-01-09T08:53:03Z</time>
      </trkpt>
      <trkpt lat="43.47885" lon="6.88716">
        <ele>68</ele>
        <time>2011-01-09T08:53:04Z</time>
      </trkpt>
      <trkpt lat="43.47885" lon="6.88718">
        <ele>68</ele>
        <time>2011-01-09T08:53:05Z</time>
      </trkpt>
      <trkpt lat="43.47885" lon="6.88719">
        <ele>67</ele>
        <time>2011-01-09T08:53:06Z</time>
      </trkpt>
      <trkpt lat="43.47884" lon="6.88719">
        <ele>67</ele>
        <time>2011-01-09T08:53:07Z</time>
      </trkpt>
      <trkpt lat="43.47882" lon="6.8872">
        <ele>67</ele>
        <time>2011-01-09T08:53:08Z</time>
      </trkpt>
      <trkpt lat="43.4788" lon="6.88721">
        <ele>67</ele>
        <time>2011-01-09T08:53:09Z</time>
      </trkpt>
      <trkpt lat="43.47879" lon="6.88722">
        <ele>67</ele>
        <time>2011-01-09T08:53:10Z</time>
      </trkpt>
      <trkpt lat="43.47877" lon="6.88725">
        <ele>67</ele>
        <time>2011-01-09T08:53:11Z</time>
      </trkpt>
      <trkpt lat="43.47876" lon="6.88728">
        <ele>67</ele>
        <time>2011-01-09T08:53:12Z</time>
      </trkpt>
      <trkpt lat="43.47875" lon="6.88731">
        <ele>67</ele>
        <time>2011-01-09T08:53:13Z</time>
      </trkpt>
      <trkpt lat="43.47876" lon="6.88739">
        <ele>67</ele>
        <time>2011-01-09T08:53:15Z</time>
      </trkpt>
      <trkpt lat="43.47876" lon="6.88742">
        <ele>68</ele>
        <time>2011-01-09T08:53:16Z</time>
      </trkpt>
      <trkpt lat="43.47877" lon="6.88744">
        <ele>68</ele>
        <time>2011-01-09T08:53:17Z</time>
      </trkpt>
      <trkpt lat="43.47879" lon="6.88745">
        <ele>68</ele>
        <time>2011-01-09T08:53:18Z</time>
      </trkpt>
      <trkpt lat="43.47881" lon="6.88746">
        <ele>67</ele>
        <time>2011-01-09T08:53:19Z</time>
      </trkpt>
      <trkpt lat="43.47886" lon="6.88746">
        <ele>67</ele>
        <time>2011-01-09T08:53:21Z</time>
      </trkpt>
      <trkpt lat="43.47889" lon="6.88746">
        <ele>67</ele>
        <time>2011-01-09T08:53:22Z</time>
      </trkpt>
      <trkpt lat="43.47892" lon="6.88746">
        <ele>67</ele>
        <time>2011-01-09T08:53:23Z</time>
      </trkpt>
      <trkpt lat="43.47895" lon="6.88745">
        <ele>67</ele>
        <time>2011-01-09T08:53:24Z</time>
      </trkpt>
      <trkpt lat="43.47897" lon="6.88744">
        <ele>67</ele>
        <time>2011-01-09T08:53:25Z</time>
      </trkpt>
      <trkpt lat="43.479" lon="6.88745">
        <ele>67</ele>
        <time>2011-01-09T08:53:26Z</time>
      </trkpt>
      <trkpt lat="43.47906" lon="6.88746">
        <ele>68</ele>
        <time>2011-01-09T08:53:28Z</time>
      </trkpt>
      <trkpt lat="43.47911" lon="6.88749">
        <ele>68</ele>
        <time>2011-01-09T08:53:30Z</time>
      </trkpt>
      <trkpt lat="43.47913" lon="6.88749">
        <ele>68</ele>
        <time>2011-01-09T08:53:31Z</time>
      </trkpt>
      <trkpt lat="43.47918" lon="6.8875">
        <ele>68</ele>
        <time>2011-01-09T08:53:33Z</time>
      </trkpt>
      <trkpt lat="43.47927" lon="6.88751">
        <ele>68</ele>
        <time>2011-01-09T08:53:37Z</time>
      </trkpt>
      <trkpt lat="43.47928" lon="6.8875">
        <ele>68</ele>
        <time>2011-01-09T08:53:38Z</time>
      </trkpt>
      <trkpt lat="43.47929" lon="6.88749">
        <ele>68</ele>
        <time>2011-01-09T08:53:39Z</time>
      </trkpt>
      <trkpt lat="43.47929" lon="6.88748">
        <ele>68</ele>
        <time>2011-01-09T08:53:40Z</time>
      </trkpt>
      <trkpt lat="43.47929" lon="6.88747">
        <ele>68</ele>
        <time>2011-01-09T08:53:41Z</time>
      </trkpt>
      <trkpt lat="43.47928" lon="6.88746">
        <ele>68</ele>
        <time>2011-01-09T08:53:42Z</time>
      </trkpt>
      <trkpt lat="43.47926" lon="6.88745">
        <ele>67</ele>
        <time>2011-01-09T08:53:43Z</time>
      </trkpt>
      <trkpt lat="43.47922" lon="6.88743">
        <ele>67</ele>
        <time>2011-01-09T08:53:45Z</time>
      </trkpt>
      <trkpt lat="43.4792" lon="6.88743">
        <ele>67</ele>
        <time>2011-01-09T08:53:46Z</time>
      </trkpt>
      <trkpt lat="43.47914" lon="6.88741">
        <ele>66</ele>
        <time>2011-01-09T08:53:51Z</time>
      </trkpt>
      <trkpt lat="43.47914" lon="6.88739">
        <ele>66</ele>
        <time>2011-01-09T08:53:54Z</time>
      </trkpt>
      <trkpt lat="43.47914" lon="6.88738">
        <ele>66</ele>
        <time>2011-01-09T08:53:55Z</time>
      </trkpt>
      <trkpt lat="43.47914" lon="6.88737">
        <ele>66</ele>
        <time>2011-01-09T08:53:56Z</time>
      </trkpt>
      <trkpt lat="43.47914" lon="6.88736">
        <ele>66</ele>
        <time>2011-01-09T08:53:58Z</time>
      </trkpt>
      <trkpt lat="43.47915" lon="6.88733">
        <ele>66</ele>
        <time>2011-01-09T08:54:00Z</time>
      </trkpt>
      <trkpt lat="43.47916" lon="6.88731">
        <ele>67</ele>
        <time>2011-01-09T08:54:03Z</time>
      </trkpt>
      <trkpt lat="43.47916" lon="6.8873">
        <ele>67</ele>
        <time>2011-01-09T08:54:04Z</time>
      </trkpt>
      <trkpt lat="43.47916" lon="6.88729">
        <ele>67</ele>
        <time>2011-01-09T08:54:05Z</time>
      </trkpt>
      <trkpt lat="43.47918" lon="6.88728">
        <ele>68</ele>
        <time>2011-01-09T08:54:07Z</time>
      </trkpt>
      <trkpt lat="43.47919" lon="6.88726">
        <ele>69</ele>
        <time>2011-01-09T08:54:10Z</time>
      </trkpt>
      <trkpt lat="43.4792" lon="6.88724">
        <ele>69</ele>
        <time>2011-01-09T08:54:12Z</time>
      </trkpt>
      <trkpt lat="43.47919" lon="6.88724">
        <ele>69</ele>
        <time>2011-01-09T08:54:13Z</time>
      </trkpt>
      <trkpt lat="43.47918" lon="6.8872">
        <ele>70</ele>
        <time>2011-01-09T08:54:17Z</time>
      </trkpt>
      <trkpt lat="43.47918" lon="6.88719">
        <ele>70</ele>
        <time>2011-01-09T08:54:18Z</time>
      </trkpt>
      <trkpt lat="43.47915" lon="6.88717">
        <ele>70</ele>
        <time>2011-01-09T08:54:20Z</time>
      </trkpt>
      <trkpt lat="43.47913" lon="6.88715">
        <ele>70</ele>
        <time>2011-01-09T08:54:21Z</time>
      </trkpt>
      <trkpt lat="43.47912" lon="6.88713">
        <ele>70</ele>
        <time>2011-01-09T08:54:22Z</time>
      </trkpt>
      <trkpt lat="43.4791" lon="6.88708">
        <ele>70</ele>
        <time>2011-01-09T08:54:24Z</time>
      </trkpt>
      <trkpt lat="43.47909" lon="6.88706">
        <ele>70</ele>
        <time>2011-01-09T08:54:25Z</time>
      </trkpt>
      <trkpt lat="43.47908" lon="6.88704">
        <ele>70</ele>
        <time>2011-01-09T08:54:26Z</time>
      </trkpt>
      <trkpt lat="43.47905" lon="6.88691">
        <ele>70</ele>
        <time>2011-01-09T08:54:30Z</time>
      </trkpt>
      <trkpt lat="43.47904" lon="6.88687">
        <ele>70</ele>
        <time>2011-01-09T08:54:31Z</time>
      </trkpt>
      <trkpt lat="43.47901" lon="6.8868">
        <ele>70</ele>
        <time>2011-01-09T08:54:33Z</time>
      </trkpt>
      <trkpt lat="43.47897" lon="6.88669">
        <ele>70</ele>
        <time>2011-01-09T08:54:36Z</time>
      </trkpt>
      <trkpt lat="43.47895" lon="6.88665">
        <ele>70</ele>
        <time>2011-01-09T08:54:37Z</time>
      </trkpt>
      <trkpt lat="43.47892" lon="6.88658">
        <ele>70</ele>
        <time>2011-01-09T08:54:39Z</time>
      </trkpt>
      <trkpt lat="43.47891" lon="6.88654">
        <ele>70</ele>
        <time>2011-01-09T08:54:40Z</time>
      </trkpt>
      <trkpt lat="43.4789" lon="6.8865">
        <ele>70</ele>
        <time>2011-01-09T08:54:41Z</time>
      </trkpt>
      <trkpt lat="43.47889" lon="6.88646">
        <ele>70</ele>
        <time>2011-01-09T08:54:42Z</time>
      </trkpt>
      <trkpt lat="43.47889" lon="6.88642">
        <ele>70</ele>
        <time>2011-01-09T08:54:43Z</time>
      </trkpt>
      <trkpt lat="43.4789" lon="6.88638">
        <ele>70</ele>
        <time>2011-01-09T08:54:44Z</time>
      </trkpt>
      <trkpt lat="43.4789" lon="6.88634">
        <ele>70</ele>
        <time>2011-01-09T08:54:45Z</time>
      </trkpt>
      <trkpt lat="43.47891" lon="6.88631">
        <ele>70</ele>
        <time>2011-01-09T08:54:46Z</time>
      </trkpt>
      <trkpt lat="43.47893" lon="6.88627">
        <ele>70</ele>
        <time>2011-01-09T08:54:47Z</time>
      </trkpt>
      <trkpt lat="43.47896" lon="6.88621">
        <ele>70</ele>
        <time>2011-01-09T08:54:49Z</time>
      </trkpt>
      <trkpt lat="43.47899" lon="6.88615">
        <ele>70</ele>
        <time>2011-01-09T08:54:51Z</time>
      </trkpt>
      <trkpt lat="43.47901" lon="6.88612">
        <ele>69</ele>
        <time>2011-01-09T08:54:53Z</time>
      </trkpt>
      <trkpt lat="43.47901" lon="6.88611">
        <ele>69</ele>
        <time>2011-01-09T08:55:02Z</time>
      </trkpt>
      <trkpt lat="43.47902" lon="6.8861">
        <ele>69</ele>
        <time>2011-01-09T08:55:09Z</time>
      </trkpt>
      <trkpt lat="43.47901" lon="6.88611">
        <ele>69</ele>
        <time>2011-01-09T08:55:12Z</time>
      </trkpt>
      <trkpt lat="43.47901" lon="6.88613">
        <ele>69</ele>
        <time>2011-01-09T08:55:15Z</time>
      </trkpt>
      <trkpt lat="43.479" lon="6.88615">
        <ele>69</ele>
        <time>2011-01-09T08:55:17Z</time>
      </trkpt>
      <trkpt lat="43.47897" lon="6.88618">
        <ele>69</ele>
        <time>2011-01-09T08:55:22Z</time>
      </trkpt>
      <trkpt lat="43.47895" lon="6.88621">
        <ele>69</ele>
        <time>2011-01-09T08:55:24Z</time>
      </trkpt>
      <trkpt lat="43.47892" lon="6.88626">
        <ele>69</ele>
        <time>2011-01-09T08:55:27Z</time>
      </trkpt>
      <trkpt lat="43.47891" lon="6.88627">
        <ele>69</ele>
        <time>2011-01-09T08:55:28Z</time>
      </trkpt>
      <trkpt lat="43.4789" lon="6.88628">
        <ele>69</ele>
        <time>2011-01-09T08:55:29Z</time>
      </trkpt>
      <trkpt lat="43.47889" lon="6.88628">
        <ele>69</ele>
        <time>2011-01-09T08:55:30Z</time>
      </trkpt>
      <trkpt lat="43.47888" lon="6.88627">
        <ele>69</ele>
        <time>2011-01-09T08:55:31Z</time>
      </trkpt>
      <trkpt lat="43.47887" lon="6.88627">
        <ele>69</ele>
        <time>2011-01-09T08:55:32Z</time>
      </trkpt>
      <trkpt lat="43.47884" lon="6.88627">
        <ele>68</ele>
        <time>2011-01-09T08:55:34Z</time>
      </trkpt>
      <trkpt lat="43.47883" lon="6.88627">
        <ele>68</ele>
        <time>2011-01-09T08:55:35Z</time>
      </trkpt>
      <trkpt lat="43.47881" lon="6.88626">
        <ele>67</ele>
        <time>2011-01-09T08:55:36Z</time>
      </trkpt>
      <trkpt lat="43.47878" lon="6.88623">
        <ele>67</ele>
        <time>2011-01-09T08:55:38Z</time>
      </trkpt>
      <trkpt lat="43.47876" lon="6.88622">
        <ele>67</ele>
        <time>2011-01-09T08:55:39Z</time>
      </trkpt>
      <trkpt lat="43.47873" lon="6.88619">
        <ele>66</ele>
        <time>2011-01-09T08:55:41Z</time>
      </trkpt>
      <trkpt lat="43.47871" lon="6.88618">
        <ele>65</ele>
        <time>2011-01-09T08:55:42Z</time>
      </trkpt>
      <trkpt lat="43.47871" lon="6.88617">
        <ele>65</ele>
        <time>2011-01-09T08:55:43Z</time>
      </trkpt>
      <trkpt lat="43.4787" lon="6.88614">
        <ele>64</ele>
        <time>2011-01-09T08:55:44Z</time>
      </trkpt>
      <trkpt lat="43.47868" lon="6.88609">
        <ele>64</ele>
        <time>2011-01-09T08:55:47Z</time>
      </trkpt>
      <trkpt lat="43.47868" lon="6.88609">
        <ele>64</ele>
        <time>2011-01-09T08:55:48Z</time>
      </trkpt>
      <trkpt lat="43.47868" lon="6.88609">
        <ele>64</ele>
        <time>2011-01-09T08:55:52Z</time>
      </trkpt>
      <trkpt lat="43.47869" lon="6.88609">
        <ele>64</ele>
        <time>2011-01-09T08:56:00Z</time>
      </trkpt>
      <trkpt lat="43.47869" lon="6.88608">
        <ele>64</ele>
        <time>2011-01-09T08:56:01Z</time>
      </trkpt>
      <trkpt lat="43.47868" lon="6.88606">
        <ele>64</ele>
        <time>2011-01-09T08:56:04Z</time>
      </trkpt>
      <trkpt lat="43.47869" lon="6.88604">
        <ele>64</ele>
        <time>2011-01-09T08:56:06Z</time>
      </trkpt>
      <trkpt lat="43.47869" lon="6.88601">
        <ele>64</ele>
        <time>2011-01-09T08:56:17Z</time>
      </trkpt>
      <trkpt lat="43.47868" lon="6.88599">
        <ele>65</ele>
        <time>2011-01-09T08:56:19Z</time>
      </trkpt>
      <trkpt lat="43.47868" lon="6.88599">
        <ele>66</ele>
        <time>2011-01-09T08:56:20Z</time>
      </trkpt>
      <trkpt lat="43.47869" lon="6.88597">
        <ele>66</ele>
        <time>2011-01-09T08:56:22Z</time>
      </trkpt>
      <trkpt lat="43.47869" lon="6.88597">
        <ele>67</ele>
        <time>2011-01-09T08:56:23Z</time>
      </trkpt>
      <trkpt lat="43.47869" lon="6.88596">
        <ele>67</ele>
        <time>2011-01-09T08:56:24Z</time>
      </trkpt>
      <trkpt lat="43.47867" lon="6.88595">
        <ele>67</ele>
        <time>2011-01-09T08:56:28Z</time>
      </trkpt>
      <trkpt lat="43.47866" lon="6.88594">
        <ele>68</ele>
        <time>2011-01-09T08:56:30Z</time>
      </trkpt>
      <trkpt lat="43.47867" lon="6.88593">
        <ele>68</ele>
        <time>2011-01-09T08:56:33Z</time>
      </trkpt>
      <trkpt lat="43.47867" lon="6.88592">
        <ele>68</ele>
        <time>2011-01-09T08:56:34Z</time>
      </trkpt>
      <trkpt lat="43.47868" lon="6.88592">
        <ele>69</ele>
        <time>2011-01-09T08:56:37Z</time>
      </trkpt>
      <trkpt lat="43.47868" lon="6.88591">
        <ele>70</ele>
        <time>2011-01-09T08:56:47Z</time>
      </trkpt>
      <trkpt lat="43.47869" lon="6.8859">
        <ele>70</ele>
        <time>2011-01-09T08:56:49Z</time>
      </trkpt>
      <trkpt lat="43.47873" lon="6.88587">
        <ele>71</ele>
        <time>2011-01-09T08:56:54Z</time>
      </trkpt>
      <trkpt lat="43.47875" lon="6.88586">
        <ele>71</ele>
        <time>2011-01-09T08:56:57Z</time>
      </trkpt>
      <trkpt lat="43.47876" lon="6.88586">
        <ele>71</ele>
        <time>2011-01-09T08:56:58Z</time>
      </trkpt>
      <trkpt lat="43.47878" lon="6.88586">
        <ele>72</ele>
        <time>2011-01-09T08:57:00Z</time>
      </trkpt>
      <trkpt lat="43.47879" lon="6.88586">
        <ele>72</ele>
        <time>2011-01-09T08:57:01Z</time>
      </trkpt>
      <trkpt lat="43.4788" lon="6.88585">
        <ele>72</ele>
        <time>2011-01-09T08:57:03Z</time>
      </trkpt>
      <trkpt lat="43.47881" lon="6.88585">
        <ele>72</ele>
        <time>2011-01-09T08:57:06Z</time>
      </trkpt>
      <trkpt lat="43.47881" lon="6.88585">
        <ele>72</ele>
        <time>2011-01-09T08:57:10Z</time>
      </trkpt>
      <trkpt lat="43.47883" lon="6.88583">
        <ele>72</ele>
        <time>2011-01-09T08:57:12Z</time>
      </trkpt>
      <trkpt lat="43.47884" lon="6.88583">
        <ele>72</ele>
        <time>2011-01-09T08:57:13Z</time>
      </trkpt>
      <trkpt lat="43.4789" lon="6.88583">
        <ele>72</ele>
        <time>2011-01-09T08:57:16Z</time>
      </trkpt>
      <trkpt lat="43.47894" lon="6.88583">
        <ele>72</ele>
        <time>2011-01-09T08:57:18Z</time>
      </trkpt>
      <trkpt lat="43.47901" lon="6.88582">
        <ele>73</ele>
        <time>2011-01-09T08:57:21Z</time>
      </trkpt>
      <trkpt lat="43.47906" lon="6.88582">
        <ele>73</ele>
        <time>2011-01-09T08:57:23Z</time>
      </trkpt>
      <trkpt lat="43.47911" lon="6.88583">
        <ele>72</ele>
        <time>2011-01-09T08:57:25Z</time>
      </trkpt>
      <trkpt lat="43.47914" lon="6.88583">
        <ele>72</ele>
        <time>2011-01-09T08:57:26Z</time>
      </trkpt>
      <trkpt lat="43.47917" lon="6.88583">
        <ele>73</ele>
        <time>2011-01-09T08:57:28Z</time>
      </trkpt>
      <trkpt lat="43.47923" lon="6.88584">
        <ele>73</ele>
        <time>2011-01-09T08:57:31Z</time>
      </trkpt>
      <trkpt lat="43.47926" lon="6.88584">
        <ele>73</ele>
        <time>2011-01-09T08:57:33Z</time>
      </trkpt>
      <trkpt lat="43.47928" lon="6.88583">
        <ele>73</ele>
        <time>2011-01-09T08:57:34Z</time>
      </trkpt>
      <trkpt lat="43.47929" lon="6.88582">
        <ele>73</ele>
        <time>2011-01-09T08:57:35Z</time>
      </trkpt>
      <trkpt lat="43.4793" lon="6.8858">
        <ele>74</ele>
        <time>2011-01-09T08:57:36Z</time>
      </trkpt>
      <trkpt lat="43.47932" lon="6.88579">
        <ele>74</ele>
        <time>2011-01-09T08:57:37Z</time>
      </trkpt>
      <trkpt lat="43.47932" lon="6.88576">
        <ele>74</ele>
        <time>2011-01-09T08:57:38Z</time>
      </trkpt>
      <trkpt lat="43.47932" lon="6.88574">
        <ele>74</ele>
        <time>2011-01-09T08:57:39Z</time>
      </trkpt>
      <trkpt lat="43.47932" lon="6.88572">
        <ele>74</ele>
        <time>2011-01-09T08:57:40Z</time>
      </trkpt>
      <trkpt lat="43.4793" lon="6.8857">
        <ele>74</ele>
        <time>2011-01-09T08:57:41Z</time>
      </trkpt>
      <trkpt lat="43.47929" lon="6.88569">
        <ele>74</ele>
        <time>2011-01-09T08:57:42Z</time>
      </trkpt>
      <trkpt lat="43.47927" lon="6.88568">
        <ele>74</ele>
        <time>2011-01-09T08:57:43Z</time>
      </trkpt>
      <trkpt lat="43.47925" lon="6.88568">
        <ele>74</ele>
        <time>2011-01-09T08:57:44Z</time>
      </trkpt>
      <trkpt lat="43.4792" lon="6.88566">
        <ele>74</ele>
        <time>2011-01-09T08:57:46Z</time>
      </trkpt>
      <trkpt lat="43.47918" lon="6.88565">
        <ele>74</ele>
        <time>2011-01-09T08:57:47Z</time>
      </trkpt>
      <trkpt lat="43.47915" lon="6.88564">
        <ele>74</ele>
        <time>2011-01-09T08:57:48Z</time>
      </trkpt>
      <trkpt lat="43.47912" lon="6.88563">
        <ele>74</ele>
        <time>2011-01-09T08:57:49Z</time>
      </trkpt>
      <trkpt lat="43.47908" lon="6.88561">
        <ele>74</ele>
        <time>2011-01-09T08:57:51Z</time>
      </trkpt>
      <trkpt lat="43.47906" lon="6.88561">
        <ele>74</ele>
        <time>2011-01-09T08:57:52Z</time>
      </trkpt>
      <trkpt lat="43.47897" lon="6.88562">
        <ele>75</ele>
        <time>2011-01-09T08:57:56Z</time>
      </trkpt>
      <trkpt lat="43.47893" lon="6.88564">
        <ele>75</ele>
        <time>2011-01-09T08:57:58Z</time>
      </trkpt>
      <trkpt lat="43.47888" lon="6.88565">
        <ele>75</ele>
        <time>2011-01-09T08:58:00Z</time>
      </trkpt>
      <trkpt lat="43.47883" lon="6.88568">
        <ele>76</ele>
        <time>2011-01-09T08:58:02Z</time>
      </trkpt>
      <trkpt lat="43.47878" lon="6.88569">
        <ele>76</ele>
        <time>2011-01-09T08:58:04Z</time>
      </trkpt>
      <trkpt lat="43.47876" lon="6.88571">
        <ele>76</ele>
        <time>2011-01-09T08:58:05Z</time>
      </trkpt>
      <trkpt lat="43.47873" lon="6.88571">
        <ele>76</ele>
        <time>2011-01-09T08:58:06Z</time>
      </trkpt>
      <trkpt lat="43.47871" lon="6.88572">
        <ele>76</ele>
        <time>2011-01-09T08:58:07Z</time>
      </trkpt>
      <trkpt lat="43.47868" lon="6.88573">
        <ele>76</ele>
        <time>2011-01-09T08:58:08Z</time>
      </trkpt>
      <trkpt lat="43.47863" lon="6.88576">
        <ele>77</ele>
        <time>2011-01-09T08:58:10Z</time>
      </trkpt>
      <trkpt lat="43.47859" lon="6.8858">
        <ele>77</ele>
        <time>2011-01-09T08:58:12Z</time>
      </trkpt>
      <trkpt lat="43.47854" lon="6.88584">
        <ele>77</ele>
        <time>2011-01-09T08:58:14Z</time>
      </trkpt>
      <trkpt lat="43.47848" lon="6.88589">
        <ele>78</ele>
        <time>2011-01-09T08:58:17Z</time>
      </trkpt>
      <trkpt lat="43.47845" lon="6.88591">
        <ele>79</ele>
        <time>2011-01-09T08:58:18Z</time>
      </trkpt>
      <trkpt lat="43.47843" lon="6.88592">
        <ele>79</ele>
        <time>2011-01-09T08:58:19Z</time>
      </trkpt>
      <trkpt lat="43.4784" lon="6.88593">
        <ele>79</ele>
        <time>2011-01-09T08:58:20Z</time>
      </trkpt>
      <trkpt lat="43.47837" lon="6.88594">
        <ele>80</ele>
        <time>2011-01-09T08:58:21Z</time>
      </trkpt>
      <trkpt lat="43.47835" lon="6.88594">
        <ele>80</ele>
        <time>2011-01-09T08:58:22Z</time>
      </trkpt>
      <trkpt lat="43.47832" lon="6.88594">
        <ele>80</ele>
        <time>2011-01-09T08:58:23Z</time>
      </trkpt>
      <trkpt lat="43.47829" lon="6.88593">
        <ele>80</ele>
        <time>2011-01-09T08:58:24Z</time>
      </trkpt>
      <trkpt lat="43.47826" lon="6.88592">
        <ele>80</ele>
        <time>2011-01-09T08:58:25Z</time>
      </trkpt>
      <trkpt lat="43.47817" lon="6.88591">
        <ele>81</ele>
        <time>2011-01-09T08:58:28Z</time>
      </trkpt>
      <trkpt lat="43.47809" lon="6.8859">
        <ele>82</ele>
        <time>2011-01-09T08:58:31Z</time>
      </trkpt>
      <trkpt lat="43.47807" lon="6.88589">
        <ele>82</ele>
        <time>2011-01-09T08:58:32Z</time>
      </trkpt>
      <trkpt lat="43.47804" lon="6.88588">
        <ele>81</ele>
        <time>2011-01-09T08:58:33Z</time>
      </trkpt>
      <trkpt lat="43.47799" lon="6.88584">
        <ele>81</ele>
        <time>2011-01-09T08:58:35Z</time>
      </trkpt>
      <trkpt lat="43.47795" lon="6.88579">
        <ele>81</ele>
        <time>2011-01-09T08:58:37Z</time>
      </trkpt>
      <trkpt lat="43.47775" lon="6.88555">
        <ele>81</ele>
        <time>2011-01-09T08:58:46Z</time>
      </trkpt>
      <trkpt lat="43.47771" lon="6.88551">
        <ele>82</ele>
        <time>2011-01-09T08:58:48Z</time>
      </trkpt>
      <trkpt lat="43.47769" lon="6.88549">
        <ele>82</ele>
        <time>2011-01-09T08:58:49Z</time>
      </trkpt>
      <trkpt lat="43.47767" lon="6.88547">
        <ele>82</ele>
        <time>2011-01-09T08:58:50Z</time>
      </trkpt>
      <trkpt lat="43.47765" lon="6.88545">
        <ele>82</ele>
        <time>2011-01-09T08:58:51Z</time>
      </trkpt>
      <trkpt lat="43.47763" lon="6.88541">
        <ele>82</ele>
        <time>2011-01-09T08:58:53Z</time>
      </trkpt>
      <trkpt lat="43.47759" lon="6.88537">
        <ele>83</ele>
        <time>2011-01-09T08:58:55Z</time>
      </trkpt>
      <trkpt lat="43.47758" lon="6.88535">
        <ele>83</ele>
        <time>2011-01-09T08:58:56Z</time>
      </trkpt>
      <trkpt lat="43.47756" lon="6.88529">
        <ele>83</ele>
        <time>2011-01-09T08:58:58Z</time>
      </trkpt>
      <trkpt lat="43.47754" lon="6.88522">
        <ele>83</ele>
        <time>2011-01-09T08:59:00Z</time>
      </trkpt>
      <trkpt lat="43.47754" lon="6.88519">
        <ele>83</ele>
        <time>2011-01-09T08:59:01Z</time>
      </trkpt>
      <trkpt lat="43.47754" lon="6.88515">
        <ele>83</ele>
        <time>2011-01-09T08:59:02Z</time>
      </trkpt>
      <trkpt lat="43.47754" lon="6.88507">
        <ele>83</ele>
        <time>2011-01-09T08:59:04Z</time>
      </trkpt>
      <trkpt lat="43.47754" lon="6.88504">
        <ele>84</ele>
        <time>2011-01-09T08:59:05Z</time>
      </trkpt>
      <trkpt lat="43.47755" lon="6.88498">
        <ele>84</ele>
        <time>2011-01-09T08:59:07Z</time>
      </trkpt>
      <trkpt lat="43.47756" lon="6.88495">
        <ele>83</ele>
        <time>2011-01-09T08:59:08Z</time>
      </trkpt>
      <trkpt lat="43.47756" lon="6.88491">
        <ele>84</ele>
        <time>2011-01-09T08:59:10Z</time>
      </trkpt>
      <trkpt lat="43.47757" lon="6.88489">
        <ele>84</ele>
        <time>2011-01-09T08:59:11Z</time>
      </trkpt>
      <trkpt lat="43.47759" lon="6.88489">
        <ele>84</ele>
        <time>2011-01-09T08:59:12Z</time>
      </trkpt>
      <trkpt lat="43.4776" lon="6.88489">
        <ele>85</ele>
        <time>2011-01-09T08:59:13Z</time>
      </trkpt>
      <trkpt lat="43.47761" lon="6.88491">
        <ele>85</ele>
        <time>2011-01-09T08:59:14Z</time>
      </trkpt>
      <trkpt lat="43.47762" lon="6.88492">
        <ele>85</ele>
        <time>2011-01-09T08:59:15Z</time>
      </trkpt>
      <trkpt lat="43.47763" lon="6.88495">
        <ele>85</ele>
        <time>2011-01-09T08:59:16Z</time>
      </trkpt>
      <trkpt lat="43.47763" lon="6.88498">
        <ele>86</ele>
        <time>2011-01-09T08:59:17Z</time>
      </trkpt>
      <trkpt lat="43.47763" lon="6.88503">
        <ele>86</ele>
        <time>2011-01-09T08:59:19Z</time>
      </trkpt>
      <trkpt lat="43.47763" lon="6.88509">
        <ele>87</ele>
        <time>2011-01-09T08:59:21Z</time>
      </trkpt>
      <trkpt lat="43.47764" lon="6.88515">
        <ele>87</ele>
        <time>2011-01-09T08:59:23Z</time>
      </trkpt>
      <trkpt lat="43.47765" lon="6.8852">
        <ele>87</ele>
        <time>2011-01-09T08:59:25Z</time>
      </trkpt>
      <trkpt lat="43.47766" lon="6.88523">
        <ele>88</ele>
        <time>2011-01-09T08:59:26Z</time>
      </trkpt>
      <trkpt lat="43.47768" lon="6.88529">
        <ele>88</ele>
        <time>2011-01-09T08:59:28Z</time>
      </trkpt>
      <trkpt lat="43.4777" lon="6.88533">
        <ele>88</ele>
        <time>2011-01-09T08:59:30Z</time>
      </trkpt>
      <trkpt lat="43.47772" lon="6.88535">
        <ele>89</ele>
        <time>2011-01-09T08:59:31Z</time>
      </trkpt>
      <trkpt lat="43.47774" lon="6.88537">
        <ele>89</ele>
        <time>2011-01-09T08:59:32Z</time>
      </trkpt>
      <trkpt lat="43.47776" lon="6.88539">
        <ele>89</ele>
        <time>2011-01-09T08:59:33Z</time>
      </trkpt>
      <trkpt lat="43.4778" lon="6.88541">
        <ele>89</ele>
        <time>2011-01-09T08:59:35Z</time>
      </trkpt>
      <trkpt lat="43.47784" lon="6.88544">
        <ele>90</ele>
        <time>2011-01-09T08:59:37Z</time>
      </trkpt>
      <trkpt lat="43.47791" lon="6.88548">
        <ele>90</ele>
        <time>2011-01-09T08:59:40Z</time>
      </trkpt>
      <trkpt lat="43.47792" lon="6.8855">
        <ele>91</ele>
        <time>2011-01-09T08:59:41Z</time>
      </trkpt>
      <trkpt lat="43.47794" lon="6.88552">
        <ele>91</ele>
        <time>2011-01-09T08:59:42Z</time>
      </trkpt>
      <trkpt lat="43.47801" lon="6.88556">
        <ele>91</ele>
        <time>2011-01-09T08:59:45Z</time>
      </trkpt>
      <trkpt lat="43.47805" lon="6.8856">
        <ele>90</ele>
        <time>2011-01-09T08:59:47Z</time>
      </trkpt>
      <trkpt lat="43.4781" lon="6.88562">
        <ele>91</ele>
        <time>2011-01-09T08:59:49Z</time>
      </trkpt>
      <trkpt lat="43.47816" lon="6.88564">
        <ele>91</ele>
        <time>2011-01-09T08:59:51Z</time>
      </trkpt>
      <trkpt lat="43.47825" lon="6.88565">
        <ele>92</ele>
        <time>2011-01-09T08:59:55Z</time>
      </trkpt>
      <trkpt lat="43.47827" lon="6.88564">
        <ele>93</ele>
        <time>2011-01-09T08:59:56Z</time>
      </trkpt>
      <trkpt lat="43.47832" lon="6.88564">
        <ele>93</ele>
        <time>2011-01-09T08:59:58Z</time>
      </trkpt>
      <trkpt lat="43.47837" lon="6.88562">
        <ele>93</ele>
        <time>2011-01-09T09:00:00Z</time>
      </trkpt>
      <trkpt lat="43.47839" lon="6.8856">
        <ele>93</ele>
        <time>2011-01-09T09:00:01Z</time>
      </trkpt>
      <trkpt lat="43.47846" lon="6.88554">
        <ele>94</ele>
        <time>2011-01-09T09:00:04Z</time>
      </trkpt>
      <trkpt lat="43.47848" lon="6.88553">
        <ele>94</ele>
        <time>2011-01-09T09:00:05Z</time>
      </trkpt>
      <trkpt lat="43.47852" lon="6.88548">
        <ele>94</ele>
        <time>2011-01-09T09:00:07Z</time>
      </trkpt>
      <trkpt lat="43.47859" lon="6.88541">
        <ele>95</ele>
        <time>2011-01-09T09:00:10Z</time>
      </trkpt>
      <trkpt lat="43.47865" lon="6.88535">
        <ele>95</ele>
        <time>2011-01-09T09:00:13Z</time>
      </trkpt>
      <trkpt lat="43.47871" lon="6.88529">
        <ele>95</ele>
        <time>2011-01-09T09:00:16Z</time>
      </trkpt>
      <trkpt lat="43.47876" lon="6.88526">
        <ele>95</ele>
        <time>2011-01-09T09:00:18Z</time>
      </trkpt>
      <trkpt lat="43.4788" lon="6.88523">
        <ele>96</ele>
        <time>2011-01-09T09:00:20Z</time>
      </trkpt>
      <trkpt lat="43.47885" lon="6.88521">
        <ele>96</ele>
        <time>2011-01-09T09:00:22Z</time>
      </trkpt>
      <trkpt lat="43.47891" lon="6.88518">
        <ele>97</ele>
        <time>2011-01-09T09:00:25Z</time>
      </trkpt>
      <trkpt lat="43.47898" lon="6.88516">
        <ele>98</ele>
        <time>2011-01-09T09:00:28Z</time>
      </trkpt>
      <trkpt lat="43.47907" lon="6.8851">
        <ele>99</ele>
        <time>2011-01-09T09:00:32Z</time>
      </trkpt>
      <trkpt lat="43.47913" lon="6.88505">
        <ele>99</ele>
        <time>2011-01-09T09:00:35Z</time>
      </trkpt>
      <trkpt lat="43.47916" lon="6.88501">
        <ele>99</ele>
        <time>2011-01-09T09:00:37Z</time>
      </trkpt>
      <trkpt lat="43.47927" lon="6.88491">
        <ele>100</ele>
        <time>2011-01-09T09:00:42Z</time>
      </trkpt>
      <trkpt lat="43.47929" lon="6.88489">
        <ele>100</ele>
        <time>2011-01-09T09:00:43Z</time>
      </trkpt>
      <trkpt lat="43.47933" lon="6.88485">
        <ele>100</ele>
        <time>2011-01-09T09:00:45Z</time>
      </trkpt>
      <trkpt lat="43.47934" lon="6.88483">
        <ele>100</ele>
        <time>2011-01-09T09:00:46Z</time>
      </trkpt>
      <trkpt lat="43.47941" lon="6.88478">
        <ele>100</ele>
        <time>2011-01-09T09:00:49Z</time>
      </trkpt>
      <trkpt lat="43.47946" lon="6.88475">
        <ele>101</ele>
        <time>2011-01-09T09:00:51Z</time>
      </trkpt>
      <trkpt lat="43.47952" lon="6.8847">
        <ele>101</ele>
        <time>2011-01-09T09:00:54Z</time>
      </trkpt>
      <trkpt lat="43.47954" lon="6.88468">
        <ele>101</ele>
        <time>2011-01-09T09:00:55Z</time>
      </trkpt>
      <trkpt lat="43.47958" lon="6.88464">
        <ele>102</ele>
        <time>2011-01-09T09:00:57Z</time>
      </trkpt>
      <trkpt lat="43.47965" lon="6.8846">
        <ele>102</ele>
        <time>2011-01-09T09:01:00Z</time>
      </trkpt>
      <trkpt lat="43.47967" lon="6.88459">
        <ele>103</ele>
        <time>2011-01-09T09:01:01Z</time>
      </trkpt>
      <trkpt lat="43.47974" lon="6.88455">
        <ele>104</ele>
        <time>2011-01-09T09:01:04Z</time>
      </trkpt>
      <trkpt lat="43.47985" lon="6.88445">
        <ele>105</ele>
        <time>2011-01-09T09:01:10Z</time>
      </trkpt>
      <trkpt lat="43.47988" lon="6.88441">
        <ele>105</ele>
        <time>2011-01-09T09:01:12Z</time>
      </trkpt>
      <trkpt lat="43.47991" lon="6.88437">
        <ele>105</ele>
        <time>2011-01-09T09:01:14Z</time>
      </trkpt>
      <trkpt lat="43.47995" lon="6.88434">
        <ele>105</ele>
        <time>2011-01-09T09:01:16Z</time>
      </trkpt>
      <trkpt lat="43.47996" lon="6.88432">
        <ele>105</ele>
        <time>2011-01-09T09:01:17Z</time>
      </trkpt>
      <trkpt lat="43.47999" lon="6.88429">
        <ele>105</ele>
        <time>2011-01-09T09:01:19Z</time>
      </trkpt>
      <trkpt lat="43.48002" lon="6.88425">
        <ele>105</ele>
        <time>2011-01-09T09:01:21Z</time>
      </trkpt>
      <trkpt lat="43.48004" lon="6.88421">
        <ele>106</ele>
        <time>2011-01-09T09:01:23Z</time>
      </trkpt>
      <trkpt lat="43.48007" lon="6.88418">
        <ele>106</ele>
        <time>2011-01-09T09:01:25Z</time>
      </trkpt>
      <trkpt lat="43.48009" lon="6.88417">
        <ele>106</ele>
        <time>2011-01-09T09:01:26Z</time>
      </trkpt>
      <trkpt lat="43.48011" lon="6.88414">
        <ele>107</ele>
        <time>2011-01-09T09:01:28Z</time>
      </trkpt>
      <trkpt lat="43.48014" lon="6.8841">
        <ele>107</ele>
        <time>2011-01-09T09:01:30Z</time>
      </trkpt>
      <trkpt lat="43.48017" lon="6.88407">
        <ele>108</ele>
        <time>2011-01-09T09:01:32Z</time>
      </trkpt>
      <trkpt lat="43.48021" lon="6.88403">
        <ele>108</ele>
        <time>2011-01-09T09:01:35Z</time>
      </trkpt>
      <trkpt lat="43.48026" lon="6.88399">
        <ele>109</ele>
        <time>2011-01-09T09:01:38Z</time>
      </trkpt>
      <trkpt lat="43.48028" lon="6.88398">
        <ele>110</ele>
        <time>2011-01-09T09:01:39Z</time>
      </trkpt>
      <trkpt lat="43.48035" lon="6.88392">
        <ele>111</ele>
        <time>2011-01-09T09:01:44Z</time>
      </trkpt>
      <trkpt lat="43.48043" lon="6.88385">
        <ele>112</ele>
        <time>2011-01-09T09:01:49Z</time>
      </trkpt>
      <trkpt lat="43.48045" lon="6.88383">
        <ele>113</ele>
        <time>2011-01-09T09:01:50Z</time>
      </trkpt>
      <trkpt lat="43.48051" lon="6.88377">
        <ele>113</ele>
        <time>2011-01-09T09:01:54Z</time>
      </trkpt>
      <trkpt lat="43.48053" lon="6.88376">
        <ele>114</ele>
        <time>2011-01-09T09:01:55Z</time>
      </trkpt>
      <trkpt lat="43.4806" lon="6.88369">
        <ele>114</ele>
        <time>2011-01-09T09:01:59Z</time>
      </trkpt>
      <trkpt lat="43.48061" lon="6.88368">
        <ele>114</ele>
        <time>2011-01-09T09:02:00Z</time>
      </trkpt>
      <trkpt lat="43.48064" lon="6.88365">
        <ele>115</ele>
        <time>2011-01-09T09:02:02Z</time>
      </trkpt>
      <trkpt lat="43.48068" lon="6.88363">
        <ele>115</ele>
        <time>2011-01-09T09:02:04Z</time>
      </trkpt>
      <trkpt lat="43.48071" lon="6.8836">
        <ele>116</ele>
        <time>2011-01-09T09:02:06Z</time>
      </trkpt>
      <trkpt lat="43.48077" lon="6.88353">
        <ele>117</ele>
        <time>2011-01-09T09:02:10Z</time>
      </trkpt>
      <trkpt lat="43.48079" lon="6.88349">
        <ele>117</ele>
        <time>2011-01-09T09:02:12Z</time>
      </trkpt>
      <trkpt lat="43.48081" lon="6.88348">
        <ele>117</ele>
        <time>2011-01-09T09:02:13Z</time>
      </trkpt>
      <trkpt lat="43.48089" lon="6.88335">
        <ele>117</ele>
        <time>2011-01-09T09:02:19Z</time>
      </trkpt>
      <trkpt lat="43.4809" lon="6.88333">
        <ele>117</ele>
        <time>2011-01-09T09:02:20Z</time>
      </trkpt>
      <trkpt lat="43.48091" lon="6.88331">
        <ele>117</ele>
        <time>2011-01-09T09:02:21Z</time>
      </trkpt>
      <trkpt lat="43.48096" lon="6.88324">
        <ele>118</ele>
        <time>2011-01-09T09:02:24Z</time>
      </trkpt>
      <trkpt lat="43.48097" lon="6.88322">
        <ele>118</ele>
        <time>2011-01-09T09:02:25Z</time>
      </trkpt>
      <trkpt lat="43.48101" lon="6.88316">
        <ele>119</ele>
        <time>2011-01-09T09:02:28Z</time>
      </trkpt>
      <trkpt lat="43.48102" lon="6.88314">
        <ele>119</ele>
        <time>2011-01-09T09:02:29Z</time>
      </trkpt>
      <trkpt lat="43.48105" lon="6.8831">
        <ele>120</ele>
        <time>2011-01-09T09:02:31Z</time>
      </trkpt>
      <trkpt lat="43.48108" lon="6.88303">
        <ele>121</ele>
        <time>2011-01-09T09:02:34Z</time>
      </trkpt>
      <trkpt lat="43.48111" lon="6.88298">
        <ele>122</ele>
        <time>2011-01-09T09:02:36Z</time>
      </trkpt>
      <trkpt lat="43.48115" lon="6.88289">
        <ele>123</ele>
        <time>2011-01-09T09:02:40Z</time>
      </trkpt>
      <trkpt lat="43.48116" lon="6.88286">
        <ele>124</ele>
        <time>2011-01-09T09:02:41Z</time>
      </trkpt>
      <trkpt lat="43.48118" lon="6.88282">
        <ele>124</ele>
        <time>2011-01-09T09:02:43Z</time>
      </trkpt>
      <trkpt lat="43.48119" lon="6.88277">
        <ele>125</ele>
        <time>2011-01-09T09:02:45Z</time>
      </trkpt>
      <trkpt lat="43.4812" lon="6.88275">
        <ele>125</ele>
        <time>2011-01-09T09:02:46Z</time>
      </trkpt>
      <trkpt lat="43.48121" lon="6.8827">
        <ele>125</ele>
        <time>2011-01-09T09:02:48Z</time>
      </trkpt>
      <trkpt lat="43.48122" lon="6.88264">
        <ele>126</ele>
        <time>2011-01-09T09:02:50Z</time>
      </trkpt>
      <trkpt lat="43.48122" lon="6.88261">
        <ele>126</ele>
        <time>2011-01-09T09:02:51Z</time>
      </trkpt>
      <trkpt lat="43.48122" lon="6.88259">
        <ele>126</ele>
        <time>2011-01-09T09:02:52Z</time>
      </trkpt>
      <trkpt lat="43.48123" lon="6.88256">
        <ele>126</ele>
        <time>2011-01-09T09:02:53Z</time>
      </trkpt>
      <trkpt lat="43.48123" lon="6.88248">
        <ele>127</ele>
        <time>2011-01-09T09:02:56Z</time>
      </trkpt>
      <trkpt lat="43.48123" lon="6.88244">
        <ele>127</ele>
        <time>2011-01-09T09:02:57Z</time>
      </trkpt>
      <trkpt lat="43.48125" lon="6.88241">
        <ele>128</ele>
        <time>2011-01-09T09:02:59Z</time>
      </trkpt>
      <trkpt lat="43.48124" lon="6.88236">
        <ele>128</ele>
        <time>2011-01-09T09:03:01Z</time>
      </trkpt>
      <trkpt lat="43.48124" lon="6.88233">
        <ele>128</ele>
        <time>2011-01-09T09:03:02Z</time>
      </trkpt>
      <trkpt lat="43.48123" lon="6.88227">
        <ele>128</ele>
        <time>2011-01-09T09:03:04Z</time>
      </trkpt>
      <trkpt lat="43.48123" lon="6.88223">
        <ele>128</ele>
        <time>2011-01-09T09:03:05Z</time>
      </trkpt>
      <trkpt lat="43.48123" lon="6.88221">
        <ele>128</ele>
        <time>2011-01-09T09:03:06Z</time>
      </trkpt>
      <trkpt lat="43.48123" lon="6.88219">
        <ele>128</ele>
        <time>2011-01-09T09:03:07Z</time>
      </trkpt>
      <trkpt lat="43.48122" lon="6.88216">
        <ele>129</ele>
        <time>2011-01-09T09:03:08Z</time>
      </trkpt>
      <trkpt lat="43.48121" lon="6.88207">
        <ele>129</ele>
        <time>2011-01-09T09:03:11Z</time>
      </trkpt>
      <trkpt lat="43.4812" lon="6.88204">
        <ele>129</ele>
        <time>2011-01-09T09:03:12Z</time>
      </trkpt>
      <trkpt lat="43.4812" lon="6.88199">
        <ele>130</ele>
        <time>2011-01-09T09:03:14Z</time>
      </trkpt>
      <trkpt lat="43.48121" lon="6.88197">
        <ele>130</ele>
        <time>2011-01-09T09:03:15Z</time>
      </trkpt>
      <trkpt lat="43.4812" lon="6.88187">
        <ele>132</ele>
        <time>2011-01-09T09:03:19Z</time>
      </trkpt>
      <trkpt lat="43.4812" lon="6.88184">
        <ele>132</ele>
        <time>2011-01-09T09:03:20Z</time>
      </trkpt>
      <trkpt lat="43.4812" lon="6.88181">
        <ele>131</ele>
        <time>2011-01-09T09:03:21Z</time>
      </trkpt>
      <trkpt lat="43.48121" lon="6.88173">
        <ele>132</ele>
        <time>2011-01-09T09:03:24Z</time>
      </trkpt>
      <trkpt lat="43.48121" lon="6.88167">
        <ele>132</ele>
        <time>2011-01-09T09:03:26Z</time>
      </trkpt>
      <trkpt lat="43.48121" lon="6.88165">
        <ele>133</ele>
        <time>2011-01-09T09:03:27Z</time>
      </trkpt>
      <trkpt lat="43.48121" lon="6.8816">
        <ele>135</ele>
        <time>2011-01-09T09:03:29Z</time>
      </trkpt>
      <trkpt lat="43.48121" lon="6.88157">
        <ele>135</ele>
        <time>2011-01-09T09:03:30Z</time>
      </trkpt>
      <trkpt lat="43.48122" lon="6.88143">
        <ele>136</ele>
        <time>2011-01-09T09:03:35Z</time>
      </trkpt>
      <trkpt lat="43.48122" lon="6.8814">
        <ele>136</ele>
        <time>2011-01-09T09:03:36Z</time>
      </trkpt>
      <trkpt lat="43.48122" lon="6.88138">
        <ele>136</ele>
        <time>2011-01-09T09:03:37Z</time>
      </trkpt>
      <trkpt lat="43.48122" lon="6.88136">
        <ele>137</ele>
        <time>2011-01-09T09:03:38Z</time>
      </trkpt>
      <trkpt lat="43.48122" lon="6.88133">
        <ele>137</ele>
        <time>2011-01-09T09:03:39Z</time>
      </trkpt>
      <trkpt lat="43.48123" lon="6.88127">
        <ele>137</ele>
        <time>2011-01-09T09:03:41Z</time>
      </trkpt>
      <trkpt lat="43.48124" lon="6.88125">
        <ele>137</ele>
        <time>2011-01-09T09:03:42Z</time>
      </trkpt>
      <trkpt lat="43.48124" lon="6.88122">
        <ele>138</ele>
        <time>2011-01-09T09:03:43Z</time>
      </trkpt>
      <trkpt lat="43.48125" lon="6.88119">
        <ele>138</ele>
        <time>2011-01-09T09:03:44Z</time>
      </trkpt>
      <trkpt lat="43.48125" lon="6.88116">
        <ele>138</ele>
        <time>2011-01-09T09:03:45Z</time>
      </trkpt>
      <trkpt lat="43.48126" lon="6.88111">
        <ele>138</ele>
        <time>2011-01-09T09:03:47Z</time>
      </trkpt>
      <trkpt lat="43.48126" lon="6.88108">
        <ele>138</ele>
        <time>2011-01-09T09:03:48Z</time>
      </trkpt>
      <trkpt lat="43.48126" lon="6.88103">
        <ele>139</ele>
        <time>2011-01-09T09:03:50Z</time>
      </trkpt>
      <trkpt lat="43.48129" lon="6.88095">
        <ele>139</ele>
        <time>2011-01-09T09:03:53Z</time>
      </trkpt>
      <trkpt lat="43.48129" lon="6.88092">
        <ele>139</ele>
        <time>2011-01-09T09:03:54Z</time>
      </trkpt>
      <trkpt lat="43.48131" lon="6.88089">
        <ele>140</ele>
        <time>2011-01-09T09:03:55Z</time>
      </trkpt>
      <trkpt lat="43.48132" lon="6.88086">
        <ele>140</ele>
        <time>2011-01-09T09:03:56Z</time>
      </trkpt>
      <trkpt lat="43.48135" lon="6.88081">
        <ele>141</ele>
        <time>2011-01-09T09:03:58Z</time>
      </trkpt>
      <trkpt lat="43.48138" lon="6.88074">
        <ele>142</ele>
        <time>2011-01-09T09:04:01Z</time>
      </trkpt>
      <trkpt lat="43.4814" lon="6.88069">
        <ele>143</ele>
        <time>2011-01-09T09:04:03Z</time>
      </trkpt>
      <trkpt lat="43.48142" lon="6.88064">
        <ele>143</ele>
        <time>2011-01-09T09:04:05Z</time>
      </trkpt>
      <trkpt lat="43.48143" lon="6.88061">
        <ele>143</ele>
        <time>2011-01-09T09:04:06Z</time>
      </trkpt>
      <trkpt lat="43.48145" lon="6.88056">
        <ele>144</ele>
        <time>2011-01-09T09:04:08Z</time>
      </trkpt>
      <trkpt lat="43.48146" lon="6.88051">
        <ele>144</ele>
        <time>2011-01-09T09:04:10Z</time>
      </trkpt>
      <trkpt lat="43.48147" lon="6.88048">
        <ele>144</ele>
        <time>2011-01-09T09:04:11Z</time>
      </trkpt>
      <trkpt lat="43.48151" lon="6.88037">
        <ele>145</ele>
        <time>2011-01-09T09:04:15Z</time>
      </trkpt>
      <trkpt lat="43.48153" lon="6.88031">
        <ele>145</ele>
        <time>2011-01-09T09:04:17Z</time>
      </trkpt>
      <trkpt lat="43.48154" lon="6.88028">
        <ele>145</ele>
        <time>2011-01-09T09:04:18Z</time>
      </trkpt>
      <trkpt lat="43.48155" lon="6.88022">
        <ele>145</ele>
        <time>2011-01-09T09:04:20Z</time>
      </trkpt>
      <trkpt lat="43.48157" lon="6.88016">
        <ele>145</ele>
        <time>2011-01-09T09:04:22Z</time>
      </trkpt>
      <trkpt lat="43.48158" lon="6.88013">
        <ele>145</ele>
        <time>2011-01-09T09:04:23Z</time>
      </trkpt>
      <trkpt lat="43.48159" lon="6.8801">
        <ele>145</ele>
        <time>2011-01-09T09:04:24Z</time>
      </trkpt>
      <trkpt lat="43.48161" lon="6.88004">
        <ele>146</ele>
        <time>2011-01-09T09:04:26Z</time>
      </trkpt>
      <trkpt lat="43.48161" lon="6.88001">
        <ele>145</ele>
        <time>2011-01-09T09:04:27Z</time>
      </trkpt>
      <trkpt lat="43.48165" lon="6.87992">
        <ele>145</ele>
        <time>2011-01-09T09:04:31Z</time>
      </trkpt>
      <trkpt lat="43.48166" lon="6.8799">
        <ele>145</ele>
        <time>2011-01-09T09:04:32Z</time>
      </trkpt>
      <trkpt lat="43.48166" lon="6.8799">
        <ele>145</ele>
        <time>2011-01-09T09:04:34Z</time>
      </trkpt>
      <trkpt lat="43.48166" lon="6.8799">
        <ele>145</ele>
        <time>2011-01-09T09:04:47Z</time>
      </trkpt>
      <trkpt lat="43.48166" lon="6.87991">
        <ele>144</ele>
        <time>2011-01-09T09:06:28Z</time>
      </trkpt>
      <trkpt lat="43.48168" lon="6.87988">
        <ele>144</ele>
        <time>2011-01-09T09:06:30Z</time>
      </trkpt>
      <trkpt lat="43.48168" lon="6.87985">
        <ele>144</ele>
        <time>2011-01-09T09:06:31Z</time>
      </trkpt>
      <trkpt lat="43.48172" lon="6.87978">
        <ele>144</ele>
        <time>2011-01-09T09:06:34Z</time>
      </trkpt>
      <trkpt lat="43.48173" lon="6.87976">
        <ele>144</ele>
        <time>2011-01-09T09:06:35Z</time>
      </trkpt>
      <trkpt lat="43.48176" lon="6.8797">
        <ele>144</ele>
        <time>2011-01-09T09:06:37Z</time>
      </trkpt>
      <trkpt lat="43.48179" lon="6.87962">
        <ele>144</ele>
        <time>2011-01-09T09:06:40Z</time>
      </trkpt>
      <trkpt lat="43.48183" lon="6.87953">
        <ele>144</ele>
        <time>2011-01-09T09:06:43Z</time>
      </trkpt>
      <trkpt lat="43.48184" lon="6.8795">
        <ele>144</ele>
        <time>2011-01-09T09:06:44Z</time>
      </trkpt>
      <trkpt lat="43.48186" lon="6.87947">
        <ele>144</ele>
        <time>2011-01-09T09:06:45Z</time>
      </trkpt>
      <trkpt lat="43.48191" lon="6.87935">
        <ele>144</ele>
        <time>2011-01-09T09:06:49Z</time>
      </trkpt>
      <trkpt lat="43.48195" lon="6.87927">
        <ele>144</ele>
        <time>2011-01-09T09:06:52Z</time>
      </trkpt>
      <trkpt lat="43.48201" lon="6.87915">
        <ele>144</ele>
        <time>2011-01-09T09:06:56Z</time>
      </trkpt>
      <trkpt lat="43.48203" lon="6.87913">
        <ele>144</ele>
        <time>2011-01-09T09:06:57Z</time>
      </trkpt>
      <trkpt lat="43.48206" lon="6.87907">
        <ele>144</ele>
        <time>2011-01-09T09:06:59Z</time>
      </trkpt>
      <trkpt lat="43.48207" lon="6.87904">
        <ele>144</ele>
        <time>2011-01-09T09:07:00Z</time>
      </trkpt>
      <trkpt lat="43.48212" lon="6.87895">
        <ele>144</ele>
        <time>2011-01-09T09:07:03Z</time>
      </trkpt>
      <trkpt lat="43.48214" lon="6.87892">
        <ele>144</ele>
        <time>2011-01-09T09:07:04Z</time>
      </trkpt>
      <trkpt lat="43.48216" lon="6.87889">
        <ele>144</ele>
        <time>2011-01-09T09:07:05Z</time>
      </trkpt>
      <trkpt lat="43.48219" lon="6.87883">
        <ele>144</ele>
        <time>2011-01-09T09:07:07Z</time>
      </trkpt>
      <trkpt lat="43.4822" lon="6.8788">
        <ele>144</ele>
        <time>2011-01-09T09:07:08Z</time>
      </trkpt>
      <trkpt lat="43.48227" lon="6.87867">
        <ele>144</ele>
        <time>2011-01-09T09:07:12Z</time>
      </trkpt>
      <trkpt lat="43.48234" lon="6.87858">
        <ele>144</ele>
        <time>2011-01-09T09:07:15Z</time>
      </trkpt>
      <trkpt lat="43.48238" lon="6.87852">
        <ele>144</ele>
        <time>2011-01-09T09:07:17Z</time>
      </trkpt>
      <trkpt lat="43.48242" lon="6.87845">
        <ele>144</ele>
        <time>2011-01-09T09:07:19Z</time>
      </trkpt>
      <trkpt lat="43.48251" lon="6.87832">
        <ele>143</ele>
        <time>2011-01-09T09:07:23Z</time>
      </trkpt>
      <trkpt lat="43.48256" lon="6.87826">
        <ele>143</ele>
        <time>2011-01-09T09:07:25Z</time>
      </trkpt>
      <trkpt lat="43.48259" lon="6.87824">
        <ele>143</ele>
        <time>2011-01-09T09:07:26Z</time>
      </trkpt>
      <trkpt lat="43.48267" lon="6.87816">
        <ele>143</ele>
        <time>2011-01-09T09:07:29Z</time>
      </trkpt>
      <trkpt lat="43.48271" lon="6.87813">
        <ele>143</ele>
        <time>2011-01-09T09:07:30Z</time>
      </trkpt>
      <trkpt lat="43.48274" lon="6.87811">
        <ele>143</ele>
        <time>2011-01-09T09:07:31Z</time>
      </trkpt>
      <trkpt lat="43.48281" lon="6.87808">
        <ele>143</ele>
        <time>2011-01-09T09:07:33Z</time>
      </trkpt>
      <trkpt lat="43.48288" lon="6.87806">
        <ele>143</ele>
        <time>2011-01-09T09:07:35Z</time>
      </trkpt>
      <trkpt lat="43.48295" lon="6.87806">
        <ele>143</ele>
        <time>2011-01-09T09:07:37Z</time>
      </trkpt>
      <trkpt lat="43.4831" lon="6.87806">
        <ele>143</ele>
        <time>2011-01-09T09:07:41Z</time>
      </trkpt>
      <trkpt lat="43.48322" lon="6.87806">
        <ele>144</ele>
        <time>2011-01-09T09:07:44Z</time>
      </trkpt>
      <trkpt lat="43.48333" lon="6.87807">
        <ele>144</ele>
        <time>2011-01-09T09:07:47Z</time>
      </trkpt>
      <trkpt lat="43.48357" lon="6.87808">
        <ele>144</ele>
        <time>2011-01-09T09:07:53Z</time>
      </trkpt>
      <trkpt lat="43.48365" lon="6.87809">
        <ele>144</ele>
        <time>2011-01-09T09:07:55Z</time>
      </trkpt>
      <trkpt lat="43.48369" lon="6.8781">
        <ele>144</ele>
        <time>2011-01-09T09:07:56Z</time>
      </trkpt>
      <trkpt lat="43.48377" lon="6.87811">
        <ele>144</ele>
        <time>2011-01-09T09:07:58Z</time>
      </trkpt>
      <trkpt lat="43.48393" lon="6.87814">
        <ele>144</ele>
        <time>2011-01-09T09:08:02Z</time>
      </trkpt>
      <trkpt lat="43.48405" lon="6.87817">
        <ele>144</ele>
        <time>2011-01-09T09:08:05Z</time>
      </trkpt>
      <trkpt lat="43.48413" lon="6.87819">
        <ele>145</ele>
        <time>2011-01-09T09:08:07Z</time>
      </trkpt>
      <trkpt lat="43.48416" lon="6.87821">
        <ele>145</ele>
        <time>2011-01-09T09:08:08Z</time>
      </trkpt>
      <trkpt lat="43.48424" lon="6.87823">
        <ele>145</ele>
        <time>2011-01-09T09:08:10Z</time>
      </trkpt>
      <trkpt lat="43.48428" lon="6.87824">
        <ele>146</ele>
        <time>2011-01-09T09:08:11Z</time>
      </trkpt>
      <trkpt lat="43.48433" lon="6.87825">
        <ele>146</ele>
        <time>2011-01-09T09:08:12Z</time>
      </trkpt>
      <trkpt lat="43.48436" lon="6.87826">
        <ele>146</ele>
        <time>2011-01-09T09:08:13Z</time>
      </trkpt>
      <trkpt lat="43.48448" lon="6.8783">
        <ele>147</ele>
        <time>2011-01-09T09:08:16Z</time>
      </trkpt>
      <trkpt lat="43.48452" lon="6.87831">
        <ele>147</ele>
        <time>2011-01-09T09:08:17Z</time>
      </trkpt>
      <trkpt lat="43.48456" lon="6.87832">
        <ele>147</ele>
        <time>2011-01-09T09:08:18Z</time>
      </trkpt>
      <trkpt lat="43.48459" lon="6.87834">
        <ele>147</ele>
        <time>2011-01-09T09:08:19Z</time>
      </trkpt>
      <trkpt lat="43.4847" lon="6.87839">
        <ele>148</ele>
        <time>2011-01-09T09:08:22Z</time>
      </trkpt>
      <trkpt lat="43.48474" lon="6.87841">
        <ele>148</ele>
        <time>2011-01-09T09:08:23Z</time>
      </trkpt>
      <trkpt lat="43.48478" lon="6.87842">
        <ele>149</ele>
        <time>2011-01-09T09:08:24Z</time>
      </trkpt>
      <trkpt lat="43.48485" lon="6.87845">
        <ele>149</ele>
        <time>2011-01-09T09:08:26Z</time>
      </trkpt>
      <trkpt lat="43.48492" lon="6.87846">
        <ele>149</ele>
        <time>2011-01-09T09:08:28Z</time>
      </trkpt>
      <trkpt lat="43.48508" lon="6.87847">
        <ele>150</ele>
        <time>2011-01-09T09:08:32Z</time>
      </trkpt>
      <trkpt lat="43.48522" lon="6.87848">
        <ele>150</ele>
        <time>2011-01-09T09:08:36Z</time>
      </trkpt>
      <trkpt lat="43.48526" lon="6.87849">
        <ele>150</ele>
        <time>2011-01-09T09:08:37Z</time>
      </trkpt>
      <trkpt lat="43.48529" lon="6.87849">
        <ele>150</ele>
        <time>2011-01-09T09:08:38Z</time>
      </trkpt>
      <trkpt lat="43.48533" lon="6.87851">
        <ele>150</ele>
        <time>2011-01-09T09:08:39Z</time>
      </trkpt>
      <trkpt lat="43.48546" lon="6.87855">
        <ele>151</ele>
        <time>2011-01-09T09:08:43Z</time>
      </trkpt>
      <trkpt lat="43.48559" lon="6.87862">
        <ele>151</ele>
        <time>2011-01-09T09:08:47Z</time>
      </trkpt>
      <trkpt lat="43.48566" lon="6.87865">
        <ele>151</ele>
        <time>2011-01-09T09:08:49Z</time>
      </trkpt>
      <trkpt lat="43.48576" lon="6.87871">
        <ele>152</ele>
        <time>2011-01-09T09:08:52Z</time>
      </trkpt>
      <trkpt lat="43.48578" lon="6.87873">
        <ele>152</ele>
        <time>2011-01-09T09:08:53Z</time>
      </trkpt>
      <trkpt lat="43.48581" lon="6.87876">
        <ele>152</ele>
        <time>2011-01-09T09:08:54Z</time>
      </trkpt>
      <trkpt lat="43.48584" lon="6.87879">
        <ele>152</ele>
        <time>2011-01-09T09:08:55Z</time>
      </trkpt>
      <trkpt lat="43.48594" lon="6.87891">
        <ele>153</ele>
        <time>2011-01-09T09:08:59Z</time>
      </trkpt>
      <trkpt lat="43.48597" lon="6.87894">
        <ele>153</ele>
        <time>2011-01-09T09:09:00Z</time>
      </trkpt>
      <trkpt lat="43.486" lon="6.87897">
        <ele>153</ele>
        <time>2011-01-09T09:09:01Z</time>
      </trkpt>
      <trkpt lat="43.48603" lon="6.87898">
        <ele>154</ele>
        <time>2011-01-09T09:09:02Z</time>
      </trkpt>
      <trkpt lat="43.48607" lon="6.87899">
        <ele>154</ele>
        <time>2011-01-09T09:09:03Z</time>
      </trkpt>
      <trkpt lat="43.48611" lon="6.87898">
        <ele>154</ele>
        <time>2011-01-09T09:09:04Z</time>
      </trkpt>
      <trkpt lat="43.48614" lon="6.87897">
        <ele>154</ele>
        <time>2011-01-09T09:09:05Z</time>
      </trkpt>
      <trkpt lat="43.48617" lon="6.87895">
        <ele>154</ele>
        <time>2011-01-09T09:09:06Z</time>
      </trkpt>
      <trkpt lat="43.4862" lon="6.87891">
        <ele>154</ele>
        <time>2011-01-09T09:09:07Z</time>
      </trkpt>
      <trkpt lat="43.48623" lon="6.87887">
        <ele>154</ele>
        <time>2011-01-09T09:09:08Z</time>
      </trkpt>
      <trkpt lat="43.48626" lon="6.87883">
        <ele>153</ele>
        <time>2011-01-09T09:09:09Z</time>
      </trkpt>
      <trkpt lat="43.48628" lon="6.87878">
        <ele>153</ele>
        <time>2011-01-09T09:09:10Z</time>
      </trkpt>
      <trkpt lat="43.4863" lon="6.87872">
        <ele>153</ele>
        <time>2011-01-09T09:09:11Z</time>
      </trkpt>
      <trkpt lat="43.48632" lon="6.87866">
        <ele>152</ele>
        <time>2011-01-09T09:09:12Z</time>
      </trkpt>
      <trkpt lat="43.48633" lon="6.87859">
        <ele>152</ele>
        <time>2011-01-09T09:09:13Z</time>
      </trkpt>
      <trkpt lat="43.48634" lon="6.87852">
        <ele>152</ele>
        <time>2011-01-09T09:09:14Z</time>
      </trkpt>
      <trkpt lat="43.48634" lon="6.87846">
        <ele>151</ele>
        <time>2011-01-09T09:09:15Z</time>
      </trkpt>
      <trkpt lat="43.48634" lon="6.87834">
        <ele>151</ele>
        <time>2011-01-09T09:09:17Z</time>
      </trkpt>
      <trkpt lat="43.48634" lon="6.87809">
        <ele>151</ele>
        <time>2011-01-09T09:09:21Z</time>
      </trkpt>
      <trkpt lat="43.48634" lon="6.87802">
        <ele>151</ele>
        <time>2011-01-09T09:09:22Z</time>
      </trkpt>
      <trkpt lat="43.48634" lon="6.8779">
        <ele>151</ele>
        <time>2011-01-09T09:09:24Z</time>
      </trkpt>
      <trkpt lat="43.48634" lon="6.87783">
        <ele>150</ele>
        <time>2011-01-09T09:09:25Z</time>
      </trkpt>
      <trkpt lat="43.48634" lon="6.87777">
        <ele>150</ele>
        <time>2011-01-09T09:09:26Z</time>
      </trkpt>
      <trkpt lat="43.48634" lon="6.87757">
        <ele>150</ele>
        <time>2011-01-09T09:09:29Z</time>
      </trkpt>
      <trkpt lat="43.48634" lon="6.87751">
        <ele>150</ele>
        <time>2011-01-09T09:09:30Z</time>
      </trkpt>
      <trkpt lat="43.48634" lon="6.87738">
        <ele>150</ele>
        <time>2011-01-09T09:09:32Z</time>
      </trkpt>
      <trkpt lat="43.48634" lon="6.87732">
        <ele>150</ele>
        <time>2011-01-09T09:09:33Z</time>
      </trkpt>
      <trkpt lat="43.48633" lon="6.87719">
        <ele>149</ele>
        <time>2011-01-09T09:09:35Z</time>
      </trkpt>
      <trkpt lat="43.48632" lon="6.87712">
        <ele>149</ele>
        <time>2011-01-09T09:09:36Z</time>
      </trkpt>
      <trkpt lat="43.48633" lon="6.87698">
        <ele>149</ele>
        <time>2011-01-09T09:09:38Z</time>
      </trkpt>
      <trkpt lat="43.48625" lon="6.87622">
        <ele>145</ele>
        <time>2011-01-09T09:09:48Z</time>
      </trkpt>
      <trkpt lat="43.48623" lon="6.87615">
        <ele>144</ele>
        <time>2011-01-09T09:09:49Z</time>
      </trkpt>
      <trkpt lat="43.48623" lon="6.87608">
        <ele>144</ele>
        <time>2011-01-09T09:09:50Z</time>
      </trkpt>
      <trkpt lat="43.48623" lon="6.87601">
        <ele>143</ele>
        <time>2011-01-09T09:09:51Z</time>
      </trkpt>
      <trkpt lat="43.48625" lon="6.87594">
        <ele>142</ele>
        <time>2011-01-09T09:09:52Z</time>
      </trkpt>
      <trkpt lat="43.48627" lon="6.87588">
        <ele>142</ele>
        <time>2011-01-09T09:09:53Z</time>
      </trkpt>
      <trkpt lat="43.4863" lon="6.87582">
        <ele>141</ele>
        <time>2011-01-09T09:09:54Z</time>
      </trkpt>
      <trkpt lat="43.48633" lon="6.87577">
        <ele>140</ele>
        <time>2011-01-09T09:09:55Z</time>
      </trkpt>
      <trkpt lat="43.48637" lon="6.87573">
        <ele>139</ele>
        <time>2011-01-09T09:09:56Z</time>
      </trkpt>
      <trkpt lat="43.48667" lon="6.87506">
        <ele>137</ele>
        <time>2011-01-09T09:10:06Z</time>
      </trkpt>
      <trkpt lat="43.48665" lon="6.875">
        <ele>137</ele>
        <time>2011-01-09T09:10:07Z</time>
      </trkpt>
      <trkpt lat="43.48662" lon="6.87495">
        <ele>137</ele>
        <time>2011-01-09T09:10:08Z</time>
      </trkpt>
      <trkpt lat="43.48652" lon="6.87489">
        <ele>137</ele>
        <time>2011-01-09T09:10:10Z</time>
      </trkpt>
      <trkpt lat="43.48647" lon="6.87481">
        <ele>137</ele>
        <time>2011-01-09T09:10:12Z</time>
      </trkpt>
      <trkpt lat="43.48641" lon="6.87438">
        <ele>140</ele>
        <time>2011-01-09T09:10:22Z</time>
      </trkpt>
      <trkpt lat="43.48642" lon="6.8743">
        <ele>141</ele>
        <time>2011-01-09T09:10:24Z</time>
      </trkpt>
      <trkpt lat="43.48641" lon="6.87427">
        <ele>141</ele>
        <time>2011-01-09T09:10:25Z</time>
      </trkpt>
      <trkpt lat="43.48639" lon="6.87416">
        <ele>142</ele>
        <time>2011-01-09T09:10:28Z</time>
      </trkpt>
      <trkpt lat="43.48636" lon="6.87405">
        <ele>143</ele>
        <time>2011-01-09T09:10:31Z</time>
      </trkpt>
      <trkpt lat="43.48635" lon="6.87402">
        <ele>143</ele>
        <time>2011-01-09T09:10:32Z</time>
      </trkpt>
      <trkpt lat="43.48633" lon="6.87395">
        <ele>144</ele>
        <time>2011-01-09T09:10:34Z</time>
      </trkpt>
      <trkpt lat="43.48633" lon="6.87392">
        <ele>144</ele>
        <time>2011-01-09T09:10:35Z</time>
      </trkpt>
      <trkpt lat="43.4863" lon="6.87386">
        <ele>145</ele>
        <time>2011-01-09T09:10:37Z</time>
      </trkpt>
      <trkpt lat="43.48629" lon="6.87383">
        <ele>145</ele>
        <time>2011-01-09T09:10:38Z</time>
      </trkpt>
      <trkpt lat="43.48626" lon="6.87381">
        <ele>145</ele>
        <time>2011-01-09T09:10:39Z</time>
      </trkpt>
      <trkpt lat="43.48624" lon="6.87381">
        <ele>145</ele>
        <time>2011-01-09T09:10:40Z</time>
      </trkpt>
      <trkpt lat="43.48622" lon="6.87382">
        <ele>145</ele>
        <time>2011-01-09T09:10:41Z</time>
      </trkpt>
      <trkpt lat="43.48621" lon="6.87385">
        <ele>145</ele>
        <time>2011-01-09T09:10:42Z</time>
      </trkpt>
      <trkpt lat="43.48621" lon="6.87389">
        <ele>146</ele>
        <time>2011-01-09T09:10:43Z</time>
      </trkpt>
      <trkpt lat="43.48621" lon="6.87392">
        <ele>146</ele>
        <time>2011-01-09T09:10:44Z</time>
      </trkpt>
      <trkpt lat="43.48624" lon="6.87402">
        <ele>146</ele>
        <time>2011-01-09T09:10:47Z</time>
      </trkpt>
      <trkpt lat="43.48625" lon="6.87409">
        <ele>146</ele>
        <time>2011-01-09T09:10:49Z</time>
      </trkpt>
      <trkpt lat="43.48626" lon="6.87412">
        <ele>146</ele>
        <time>2011-01-09T09:10:50Z</time>
      </trkpt>
      <trkpt lat="43.48627" lon="6.87418">
        <ele>146</ele>
        <time>2011-01-09T09:10:52Z</time>
      </trkpt>
      <trkpt lat="43.48629" lon="6.87431">
        <ele>146</ele>
        <time>2011-01-09T09:10:56Z</time>
      </trkpt>
      <trkpt lat="43.48628" lon="6.87438">
        <ele>146</ele>
        <time>2011-01-09T09:10:58Z</time>
      </trkpt>
      <trkpt lat="43.48626" lon="6.87448">
        <ele>146</ele>
        <time>2011-01-09T09:11:01Z</time>
      </trkpt>
      <trkpt lat="43.48625" lon="6.87458">
        <ele>147</ele>
        <time>2011-01-09T09:11:04Z</time>
      </trkpt>
      <trkpt lat="43.48625" lon="6.87461">
        <ele>147</ele>
        <time>2011-01-09T09:11:05Z</time>
      </trkpt>
      <trkpt lat="43.48623" lon="6.87467">
        <ele>148</ele>
        <time>2011-01-09T09:11:07Z</time>
      </trkpt>
      <trkpt lat="43.48622" lon="6.8747">
        <ele>148</ele>
        <time>2011-01-09T09:11:08Z</time>
      </trkpt>
      <trkpt lat="43.48621" lon="6.87472">
        <ele>149</ele>
        <time>2011-01-09T09:11:09Z</time>
      </trkpt>
      <trkpt lat="43.48619" lon="6.87474">
        <ele>149</ele>
        <time>2011-01-09T09:11:10Z</time>
      </trkpt>
      <trkpt lat="43.48617" lon="6.87474">
        <ele>150</ele>
        <time>2011-01-09T09:11:11Z</time>
      </trkpt>
      <trkpt lat="43.48614" lon="6.87474">
        <ele>150</ele>
        <time>2011-01-09T09:11:12Z</time>
      </trkpt>
      <trkpt lat="43.48613" lon="6.87472">
        <ele>150</ele>
        <time>2011-01-09T09:11:13Z</time>
      </trkpt>
      <trkpt lat="43.48611" lon="6.87468">
        <ele>150</ele>
        <time>2011-01-09T09:11:14Z</time>
      </trkpt>
      <trkpt lat="43.48611" lon="6.87465">
        <ele>150</ele>
        <time>2011-01-09T09:11:15Z</time>
      </trkpt>
      <trkpt lat="43.48611" lon="6.87462">
        <ele>150</ele>
        <time>2011-01-09T09:11:16Z</time>
      </trkpt>
      <trkpt lat="43.48611" lon="6.87458">
        <ele>150</ele>
        <time>2011-01-09T09:11:17Z</time>
      </trkpt>
      <trkpt lat="43.48611" lon="6.87454">
        <ele>151</ele>
        <time>2011-01-09T09:11:18Z</time>
      </trkpt>
      <trkpt lat="43.48612" lon="6.87451">
        <ele>151</ele>
        <time>2011-01-09T09:11:19Z</time>
      </trkpt>
      <trkpt lat="43.48613" lon="6.87444">
        <ele>151</ele>
        <time>2011-01-09T09:11:21Z</time>
      </trkpt>
      <trkpt lat="43.48614" lon="6.8744">
        <ele>151</ele>
        <time>2011-01-09T09:11:22Z</time>
      </trkpt>
      <trkpt lat="43.48614" lon="6.87437">
        <ele>151</ele>
        <time>2011-01-09T09:11:23Z</time>
      </trkpt>
      <trkpt lat="43.48615" lon="6.87433">
        <ele>151</ele>
        <time>2011-01-09T09:11:24Z</time>
      </trkpt>
      <trkpt lat="43.48615" lon="6.8743">
        <ele>151</ele>
        <time>2011-01-09T09:11:25Z</time>
      </trkpt>
      <trkpt lat="43.48615" lon="6.87426">
        <ele>152</ele>
        <time>2011-01-09T09:11:26Z</time>
      </trkpt>
      <trkpt lat="43.48615" lon="6.87423">
        <ele>152</ele>
        <time>2011-01-09T09:11:27Z</time>
      </trkpt>
      <trkpt lat="43.48614" lon="6.8742">
        <ele>152</ele>
        <time>2011-01-09T09:11:28Z</time>
      </trkpt>
      <trkpt lat="43.48613" lon="6.87416">
        <ele>152</ele>
        <time>2011-01-09T09:11:29Z</time>
      </trkpt>
      <trkpt lat="43.48612" lon="6.87413">
        <ele>152</ele>
        <time>2011-01-09T09:11:30Z</time>
      </trkpt>
      <trkpt lat="43.48609" lon="6.87404">
        <ele>153</ele>
        <time>2011-01-09T09:11:33Z</time>
      </trkpt>
      <trkpt lat="43.48608" lon="6.87402">
        <ele>153</ele>
        <time>2011-01-09T09:11:34Z</time>
      </trkpt>
      <trkpt lat="43.48606" lon="6.87395">
        <ele>153</ele>
        <time>2011-01-09T09:11:36Z</time>
      </trkpt>
      <trkpt lat="43.48602" lon="6.87387">
        <ele>154</ele>
        <time>2011-01-09T09:11:39Z</time>
      </trkpt>
      <trkpt lat="43.48601" lon="6.87384">
        <ele>154</ele>
        <time>2011-01-09T09:11:40Z</time>
      </trkpt>
      <trkpt lat="43.48599" lon="6.87378">
        <ele>154</ele>
        <time>2011-01-09T09:11:42Z</time>
      </trkpt>
      <trkpt lat="43.48596" lon="6.87369">
        <ele>155</ele>
        <time>2011-01-09T09:11:45Z</time>
      </trkpt>
      <trkpt lat="43.48594" lon="6.87367">
        <ele>155</ele>
        <time>2011-01-09T09:11:46Z</time>
      </trkpt>
      <trkpt lat="43.48594" lon="6.87364">
        <ele>155</ele>
        <time>2011-01-09T09:11:47Z</time>
      </trkpt>
      <trkpt lat="43.4859" lon="6.87355">
        <ele>156</ele>
        <time>2011-01-09T09:11:50Z</time>
      </trkpt>
      <trkpt lat="43.48587" lon="6.87347">
        <ele>157</ele>
        <time>2011-01-09T09:11:53Z</time>
      </trkpt>
      <trkpt lat="43.48586" lon="6.87344">
        <ele>157</ele>
        <time>2011-01-09T09:11:54Z</time>
      </trkpt>
      <trkpt lat="43.48585" lon="6.87342">
        <ele>157</ele>
        <time>2011-01-09T09:11:55Z</time>
      </trkpt>
      <trkpt lat="43.48583" lon="6.87336">
        <ele>158</ele>
        <time>2011-01-09T09:11:57Z</time>
      </trkpt>
      <trkpt lat="43.4858" lon="6.87331">
        <ele>158</ele>
        <time>2011-01-09T09:11:59Z</time>
      </trkpt>
      <trkpt lat="43.48576" lon="6.8732">
        <ele>160</ele>
        <time>2011-01-09T09:12:03Z</time>
      </trkpt>
      <trkpt lat="43.48575" lon="6.87318">
        <ele>160</ele>
        <time>2011-01-09T09:12:04Z</time>
      </trkpt>
      <trkpt lat="43.48573" lon="6.87312">
        <ele>160</ele>
        <time>2011-01-09T09:12:06Z</time>
      </trkpt>
      <trkpt lat="43.48572" lon="6.87309">
        <ele>161</ele>
        <time>2011-01-09T09:12:07Z</time>
      </trkpt>
      <trkpt lat="43.48567" lon="6.87301">
        <ele>161</ele>
        <time>2011-01-09T09:12:10Z</time>
      </trkpt>
      <trkpt lat="43.48564" lon="6.87297">
        <ele>162</ele>
        <time>2011-01-09T09:12:12Z</time>
      </trkpt>
      <trkpt lat="43.48562" lon="6.87295">
        <ele>162</ele>
        <time>2011-01-09T09:12:13Z</time>
      </trkpt>
      <trkpt lat="43.48562" lon="6.87292">
        <ele>162</ele>
        <time>2011-01-09T09:12:14Z</time>
      </trkpt>
      <trkpt lat="43.48559" lon="6.87289">
        <ele>162</ele>
        <time>2011-01-09T09:12:15Z</time>
      </trkpt>
      <trkpt lat="43.48555" lon="6.87283">
        <ele>162</ele>
        <time>2011-01-09T09:12:17Z</time>
      </trkpt>
      <trkpt lat="43.48548" lon="6.87274">
        <ele>162</ele>
        <time>2011-01-09T09:12:21Z</time>
      </trkpt>
      <trkpt lat="43.48547" lon="6.87272">
        <ele>162</ele>
        <time>2011-01-09T09:12:22Z</time>
      </trkpt>
      <trkpt lat="43.48545" lon="6.8727">
        <ele>163</ele>
        <time>2011-01-09T09:12:23Z</time>
      </trkpt>
      <trkpt lat="43.4854" lon="6.87264">
        <ele>163</ele>
        <time>2011-01-09T09:12:26Z</time>
      </trkpt>
      <trkpt lat="43.48538" lon="6.87262">
        <ele>163</ele>
        <time>2011-01-09T09:12:27Z</time>
      </trkpt>
      <trkpt lat="43.48536" lon="6.8726">
        <ele>164</ele>
        <time>2011-01-09T09:12:28Z</time>
      </trkpt>
      <trkpt lat="43.4853" lon="6.87255">
        <ele>164</ele>
        <time>2011-01-09T09:12:31Z</time>
      </trkpt>
      <trkpt lat="43.48528" lon="6.87254">
        <ele>165</ele>
        <time>2011-01-09T09:12:32Z</time>
      </trkpt>
      <trkpt lat="43.48526" lon="6.87253">
        <ele>166</ele>
        <time>2011-01-09T09:12:33Z</time>
      </trkpt>
      <trkpt lat="43.48516" lon="6.87248">
        <ele>167</ele>
        <time>2011-01-09T09:12:38Z</time>
      </trkpt>
      <trkpt lat="43.48512" lon="6.87246">
        <ele>168</ele>
        <time>2011-01-09T09:12:40Z</time>
      </trkpt>
      <trkpt lat="43.48507" lon="6.87244">
        <ele>168</ele>
        <time>2011-01-09T09:12:42Z</time>
      </trkpt>
      <trkpt lat="43.48503" lon="6.87242">
        <ele>169</ele>
        <time>2011-01-09T09:12:44Z</time>
      </trkpt>
      <trkpt lat="43.48498" lon="6.8724">
        <ele>169</ele>
        <time>2011-01-09T09:12:46Z</time>
      </trkpt>
      <trkpt lat="43.48496" lon="6.87238">
        <ele>169</ele>
        <time>2011-01-09T09:12:47Z</time>
      </trkpt>
      <trkpt lat="43.48491" lon="6.87234">
        <ele>170</ele>
        <time>2011-01-09T09:12:50Z</time>
      </trkpt>
      <trkpt lat="43.48478" lon="6.87222">
        <ele>172</ele>
        <time>2011-01-09T09:12:57Z</time>
      </trkpt>
      <trkpt lat="43.48474" lon="6.87218">
        <ele>172</ele>
        <time>2011-01-09T09:12:59Z</time>
      </trkpt>
      <trkpt lat="43.48472" lon="6.87217">
        <ele>172</ele>
        <time>2011-01-09T09:13:00Z</time>
      </trkpt>
      <trkpt lat="43.48468" lon="6.87213">
        <ele>173</ele>
        <time>2011-01-09T09:13:02Z</time>
      </trkpt>
      <trkpt lat="43.48466" lon="6.87212">
        <ele>173</ele>
        <time>2011-01-09T09:13:03Z</time>
      </trkpt>
      <trkpt lat="43.48462" lon="6.87209">
        <ele>173</ele>
        <time>2011-01-09T09:13:05Z</time>
      </trkpt>
      <trkpt lat="43.4846" lon="6.87207">
        <ele>173</ele>
        <time>2011-01-09T09:13:06Z</time>
      </trkpt>
      <trkpt lat="43.48454" lon="6.87202">
        <ele>174</ele>
        <time>2011-01-09T09:13:09Z</time>
      </trkpt>
      <trkpt lat="43.48446" lon="6.87196">
        <ele>175</ele>
        <time>2011-01-09T09:13:13Z</time>
      </trkpt>
      <trkpt lat="43.48435" lon="6.87186">
        <ele>176</ele>
        <time>2011-01-09T09:13:19Z</time>
      </trkpt>
      <trkpt lat="43.48433" lon="6.87185">
        <ele>177</ele>
        <time>2011-01-09T09:13:20Z</time>
      </trkpt>
      <trkpt lat="43.4843" lon="6.87181">
        <ele>177</ele>
        <time>2011-01-09T09:13:22Z</time>
      </trkpt>
      <trkpt lat="43.48419" lon="6.8717">
        <ele>178</ele>
        <time>2011-01-09T09:13:28Z</time>
      </trkpt>
      <trkpt lat="43.48416" lon="6.87166">
        <ele>179</ele>
        <time>2011-01-09T09:13:30Z</time>
      </trkpt>
      <trkpt lat="43.48414" lon="6.87164">
        <ele>179</ele>
        <time>2011-01-09T09:13:31Z</time>
      </trkpt>
      <trkpt lat="43.48412" lon="6.87162">
        <ele>179</ele>
        <time>2011-01-09T09:13:32Z</time>
      </trkpt>
      <trkpt lat="43.48407" lon="6.87157">
        <ele>180</ele>
        <time>2011-01-09T09:13:35Z</time>
      </trkpt>
      <trkpt lat="43.48399" lon="6.87148">
        <ele>181</ele>
        <time>2011-01-09T09:13:40Z</time>
      </trkpt>
      <trkpt lat="43.48389" lon="6.87137">
        <ele>182</ele>
        <time>2011-01-09T09:13:46Z</time>
      </trkpt>
      <trkpt lat="43.48388" lon="6.87136">
        <ele>182</ele>
        <time>2011-01-09T09:13:47Z</time>
      </trkpt>
      <trkpt lat="43.48385" lon="6.87133">
        <ele>182</ele>
        <time>2011-01-09T09:13:49Z</time>
      </trkpt>
      <trkpt lat="43.48383" lon="6.87131">
        <ele>182</ele>
        <time>2011-01-09T09:13:50Z</time>
      </trkpt>
      <trkpt lat="43.4838" lon="6.87128">
        <ele>182</ele>
        <time>2011-01-09T09:13:52Z</time>
      </trkpt>
      <trkpt lat="43.48379" lon="6.87126">
        <ele>182</ele>
        <time>2011-01-09T09:13:53Z</time>
      </trkpt>
      <trkpt lat="43.48377" lon="6.87124">
        <ele>183</ele>
        <time>2011-01-09T09:13:54Z</time>
      </trkpt>
      <trkpt lat="43.48375" lon="6.87123">
        <ele>183</ele>
        <time>2011-01-09T09:13:55Z</time>
      </trkpt>
      <trkpt lat="43.48369" lon="6.87116">
        <ele>183</ele>
        <time>2011-01-09T09:13:59Z</time>
      </trkpt>
      <trkpt lat="43.48367" lon="6.87115">
        <ele>183</ele>
        <time>2011-01-09T09:14:00Z</time>
      </trkpt>
      <trkpt lat="43.48366" lon="6.87113">
        <ele>183</ele>
        <time>2011-01-09T09:14:01Z</time>
      </trkpt>
      <trkpt lat="43.48364" lon="6.87111">
        <ele>183</ele>
        <time>2011-01-09T09:14:02Z</time>
      </trkpt>
      <trkpt lat="43.48359" lon="6.87106">
        <ele>184</ele>
        <time>2011-01-09T09:14:05Z</time>
      </trkpt>
      <trkpt lat="43.48356" lon="6.87102">
        <ele>184</ele>
        <time>2011-01-09T09:14:07Z</time>
      </trkpt>
      <trkpt lat="43.48353" lon="6.87098">
        <ele>184</ele>
        <time>2011-01-09T09:14:09Z</time>
      </trkpt>
      <trkpt lat="43.48349" lon="6.87091">
        <ele>185</ele>
        <time>2011-01-09T09:14:12Z</time>
      </trkpt>
      <trkpt lat="43.48346" lon="6.87087">
        <ele>185</ele>
        <time>2011-01-09T09:14:14Z</time>
      </trkpt>
      <trkpt lat="43.48344" lon="6.87082">
        <ele>186</ele>
        <time>2011-01-09T09:14:16Z</time>
      </trkpt>
      <trkpt lat="43.4834" lon="6.87074">
        <ele>187</ele>
        <time>2011-01-09T09:14:19Z</time>
      </trkpt>
      <trkpt lat="43.48337" lon="6.8707">
        <ele>187</ele>
        <time>2011-01-09T09:14:21Z</time>
      </trkpt>
      <trkpt lat="43.48335" lon="6.87065">
        <ele>188</ele>
        <time>2011-01-09T09:14:23Z</time>
      </trkpt>
      <trkpt lat="43.48334" lon="6.87063">
        <ele>188</ele>
        <time>2011-01-09T09:14:24Z</time>
      </trkpt>
      <trkpt lat="43.48332" lon="6.87057">
        <ele>188</ele>
        <time>2011-01-09T09:14:26Z</time>
      </trkpt>
      <trkpt lat="43.48332" lon="6.87054">
        <ele>189</ele>
        <time>2011-01-09T09:14:27Z</time>
      </trkpt>
      <trkpt lat="43.48332" lon="6.87048">
        <ele>189</ele>
        <time>2011-01-09T09:14:29Z</time>
      </trkpt>
      <trkpt lat="43.48332" lon="6.87045">
        <ele>189</ele>
        <time>2011-01-09T09:14:30Z</time>
      </trkpt>
      <trkpt lat="43.48333" lon="6.87042">
        <ele>190</ele>
        <time>2011-01-09T09:14:31Z</time>
      </trkpt>
      <trkpt lat="43.48334" lon="6.87039">
        <ele>190</ele>
        <time>2011-01-09T09:14:32Z</time>
      </trkpt>
      <trkpt lat="43.48335" lon="6.87036">
        <ele>190</ele>
        <time>2011-01-09T09:14:33Z</time>
      </trkpt>
      <trkpt lat="43.48339" lon="6.87028">
        <ele>190</ele>
        <time>2011-01-09T09:14:36Z</time>
      </trkpt>
      <trkpt lat="43.48344" lon="6.87018">
        <ele>191</ele>
        <time>2011-01-09T09:14:40Z</time>
      </trkpt>
      <trkpt lat="43.48347" lon="6.87012">
        <ele>191</ele>
        <time>2011-01-09T09:14:42Z</time>
      </trkpt>
      <trkpt lat="43.48348" lon="6.8701">
        <ele>192</ele>
        <time>2011-01-09T09:14:43Z</time>
      </trkpt>
      <trkpt lat="43.4835" lon="6.87004">
        <ele>192</ele>
        <time>2011-01-09T09:14:45Z</time>
      </trkpt>
      <trkpt lat="43.48353" lon="6.87">
        <ele>192</ele>
        <time>2011-01-09T09:14:47Z</time>
      </trkpt>
      <trkpt lat="43.48354" lon="6.86997">
        <ele>192</ele>
        <time>2011-01-09T09:14:48Z</time>
      </trkpt>
      <trkpt lat="43.48358" lon="6.86989">
        <ele>193</ele>
        <time>2011-01-09T09:14:51Z</time>
      </trkpt>
      <trkpt lat="43.48359" lon="6.86987">
        <ele>192</ele>
        <time>2011-01-09T09:14:52Z</time>
      </trkpt>
      <trkpt lat="43.48362" lon="6.86982">
        <ele>193</ele>
        <time>2011-01-09T09:14:54Z</time>
      </trkpt>
      <trkpt lat="43.48367" lon="6.86975">
        <ele>193</ele>
        <time>2011-01-09T09:14:57Z</time>
      </trkpt>
      <trkpt lat="43.48368" lon="6.86973">
        <ele>193</ele>
        <time>2011-01-09T09:14:58Z</time>
      </trkpt>
      <trkpt lat="43.48373" lon="6.86966">
        <ele>194</ele>
        <time>2011-01-09T09:15:01Z</time>
      </trkpt>
      <trkpt lat="43.48376" lon="6.86962">
        <ele>194</ele>
        <time>2011-01-09T09:15:03Z</time>
      </trkpt>
      <trkpt lat="43.48378" lon="6.86959">
        <ele>195</ele>
        <time>2011-01-09T09:15:04Z</time>
      </trkpt>
      <trkpt lat="43.4838" lon="6.86957">
        <ele>195</ele>
        <time>2011-01-09T09:15:05Z</time>
      </trkpt>
      <trkpt lat="43.48384" lon="6.86954">
        <ele>196</ele>
        <time>2011-01-09T09:15:07Z</time>
      </trkpt>
      <trkpt lat="43.48386" lon="6.86952">
        <ele>196</ele>
        <time>2011-01-09T09:15:08Z</time>
      </trkpt>
      <trkpt lat="43.48388" lon="6.86951">
        <ele>196</ele>
        <time>2011-01-09T09:15:09Z</time>
      </trkpt>
      <trkpt lat="43.48393" lon="6.8695">
        <ele>196</ele>
        <time>2011-01-09T09:15:11Z</time>
      </trkpt>
      <trkpt lat="43.48398" lon="6.86949">
        <ele>196</ele>
        <time>2011-01-09T09:15:13Z</time>
      </trkpt>
      <trkpt lat="43.48405" lon="6.86949">
        <ele>197</ele>
        <time>2011-01-09T09:15:16Z</time>
      </trkpt>
      <trkpt lat="43.48407" lon="6.86948">
        <ele>198</ele>
        <time>2011-01-09T09:15:17Z</time>
      </trkpt>
      <trkpt lat="43.48409" lon="6.86948">
        <ele>198</ele>
        <time>2011-01-09T09:15:18Z</time>
      </trkpt>
      <trkpt lat="43.48411" lon="6.86946">
        <ele>198</ele>
        <time>2011-01-09T09:15:19Z</time>
      </trkpt>
      <trkpt lat="43.48413" lon="6.86944">
        <ele>199</ele>
        <time>2011-01-09T09:15:20Z</time>
      </trkpt>
      <trkpt lat="43.48414" lon="6.86941">
        <ele>199</ele>
        <time>2011-01-09T09:15:21Z</time>
      </trkpt>
      <trkpt lat="43.48415" lon="6.86939">
        <ele>199</ele>
        <time>2011-01-09T09:15:22Z</time>
      </trkpt>
      <trkpt lat="43.48414" lon="6.86935">
        <ele>200</ele>
        <time>2011-01-09T09:15:23Z</time>
      </trkpt>
      <trkpt lat="43.48414" lon="6.86932">
        <ele>200</ele>
        <time>2011-01-09T09:15:24Z</time>
      </trkpt>
      <trkpt lat="43.48412" lon="6.8693">
        <ele>200</ele>
        <time>2011-01-09T09:15:25Z</time>
      </trkpt>
      <trkpt lat="43.4841" lon="6.86928">
        <ele>200</ele>
        <time>2011-01-09T09:15:26Z</time>
      </trkpt>
      <trkpt lat="43.48408" lon="6.86926">
        <ele>200</ele>
        <time>2011-01-09T09:15:27Z</time>
      </trkpt>
      <trkpt lat="43.48402" lon="6.86921">
        <ele>201</ele>
        <time>2011-01-09T09:15:30Z</time>
      </trkpt>
      <trkpt lat="43.48398" lon="6.86918">
        <ele>201</ele>
        <time>2011-01-09T09:15:32Z</time>
      </trkpt>
      <trkpt lat="43.48395" lon="6.86915">
        <ele>201</ele>
        <time>2011-01-09T09:15:34Z</time>
      </trkpt>
      <trkpt lat="43.48392" lon="6.86912">
        <ele>201</ele>
        <time>2011-01-09T09:15:36Z</time>
      </trkpt>
      <trkpt lat="43.4839" lon="6.8691">
        <ele>201</ele>
        <time>2011-01-09T09:15:38Z</time>
      </trkpt>
      <trkpt lat="43.48389" lon="6.86908">
        <ele>201</ele>
        <time>2011-01-09T09:15:39Z</time>
      </trkpt>
      <trkpt lat="43.48388" lon="6.86907">
        <ele>201</ele>
        <time>2011-01-09T09:15:40Z</time>
      </trkpt>
      <trkpt lat="43.48387" lon="6.86906">
        <ele>201</ele>
        <time>2011-01-09T09:15:41Z</time>
      </trkpt>
      <trkpt lat="43.48386" lon="6.86906">
        <ele>201</ele>
        <time>2011-01-09T09:15:42Z</time>
      </trkpt>
      <trkpt lat="43.48386" lon="6.86906">
        <ele>201</ele>
        <time>2011-01-09T09:15:52Z</time>
      </trkpt>
      <trkpt lat="43.48382" lon="6.86902">
        <ele>201</ele>
        <time>2011-01-09T09:15:55Z</time>
      </trkpt>
      <trkpt lat="43.48375" lon="6.86896">
        <ele>201</ele>
        <time>2011-01-09T09:15:59Z</time>
      </trkpt>
      <trkpt lat="43.48372" lon="6.86891">
        <ele>201</ele>
        <time>2011-01-09T09:16:01Z</time>
      </trkpt>
      <trkpt lat="43.48366" lon="6.8688">
        <ele>201</ele>
        <time>2011-01-09T09:16:05Z</time>
      </trkpt>
      <trkpt lat="43.48364" lon="6.86878">
        <ele>201</ele>
        <time>2011-01-09T09:16:06Z</time>
      </trkpt>
      <trkpt lat="43.48362" lon="6.86875">
        <ele>201</ele>
        <time>2011-01-09T09:16:07Z</time>
      </trkpt>
      <trkpt lat="43.48359" lon="6.86871">
        <ele>201</ele>
        <time>2011-01-09T09:16:09Z</time>
      </trkpt>
      <trkpt lat="43.48356" lon="6.86865">
        <ele>201</ele>
        <time>2011-01-09T09:16:11Z</time>
      </trkpt>
      <trkpt lat="43.48353" lon="6.86859">
        <ele>201</ele>
        <time>2011-01-09T09:16:13Z</time>
      </trkpt>
      <trkpt lat="43.48352" lon="6.86855">
        <ele>200</ele>
        <time>2011-01-09T09:16:14Z</time>
      </trkpt>
      <trkpt lat="43.48351" lon="6.86851">
        <ele>200</ele>
        <time>2011-01-09T09:16:15Z</time>
      </trkpt>
      <trkpt lat="43.48348" lon="6.86843">
        <ele>200</ele>
        <time>2011-01-09T09:16:17Z</time>
      </trkpt>
      <trkpt lat="43.48343" lon="6.86831">
        <ele>200</ele>
        <time>2011-01-09T09:16:20Z</time>
      </trkpt>
      <trkpt lat="43.48338" lon="6.86815">
        <ele>200</ele>
        <time>2011-01-09T09:16:24Z</time>
      </trkpt>
      <trkpt lat="43.48337" lon="6.8681">
        <ele>200</ele>
        <time>2011-01-09T09:16:25Z</time>
      </trkpt>
      <trkpt lat="43.48333" lon="6.86795">
        <ele>200</ele>
        <time>2011-01-09T09:16:28Z</time>
      </trkpt>
      <trkpt lat="43.48331" lon="6.86779">
        <ele>199</ele>
        <time>2011-01-09T09:16:31Z</time>
      </trkpt>
      <trkpt lat="43.4833" lon="6.86768">
        <ele>199</ele>
        <time>2011-01-09T09:16:33Z</time>
      </trkpt>
      <trkpt lat="43.4833" lon="6.86763">
        <ele>199</ele>
        <time>2011-01-09T09:16:34Z</time>
      </trkpt>
      <trkpt lat="43.48329" lon="6.86753">
        <ele>198</ele>
        <time>2011-01-09T09:16:36Z</time>
      </trkpt>
      <trkpt lat="43.48329" lon="6.86748">
        <ele>198</ele>
        <time>2011-01-09T09:16:37Z</time>
      </trkpt>
      <trkpt lat="43.48329" lon="6.86737">
        <ele>198</ele>
        <time>2011-01-09T09:16:39Z</time>
      </trkpt>
      <trkpt lat="43.48328" lon="6.86732">
        <ele>198</ele>
        <time>2011-01-09T09:16:40Z</time>
      </trkpt>
      <trkpt lat="43.48328" lon="6.86726">
        <ele>198</ele>
        <time>2011-01-09T09:16:41Z</time>
      </trkpt>
      <trkpt lat="43.48328" lon="6.86721">
        <ele>197</ele>
        <time>2011-01-09T09:16:42Z</time>
      </trkpt>
      <trkpt lat="43.48327" lon="6.86715">
        <ele>197</ele>
        <time>2011-01-09T09:16:43Z</time>
      </trkpt>
      <trkpt lat="43.48327" lon="6.86709">
        <ele>197</ele>
        <time>2011-01-09T09:16:44Z</time>
      </trkpt>
      <trkpt lat="43.48326" lon="6.86697">
        <ele>197</ele>
        <time>2011-01-09T09:16:46Z</time>
      </trkpt>
      <trkpt lat="43.48325" lon="6.86686">
        <ele>196</ele>
        <time>2011-01-09T09:16:48Z</time>
      </trkpt>
      <trkpt lat="43.48324" lon="6.86673">
        <ele>196</ele>
        <time>2011-01-09T09:16:50Z</time>
      </trkpt>
      <trkpt lat="43.48322" lon="6.86655">
        <ele>196</ele>
        <time>2011-01-09T09:16:53Z</time>
      </trkpt>
      <trkpt lat="43.48321" lon="6.86649">
        <ele>196</ele>
        <time>2011-01-09T09:16:54Z</time>
      </trkpt>
      <trkpt lat="43.48318" lon="6.8663">
        <ele>195</ele>
        <time>2011-01-09T09:16:57Z</time>
      </trkpt>
      <trkpt lat="43.48315" lon="6.86618">
        <ele>196</ele>
        <time>2011-01-09T09:16:59Z</time>
      </trkpt>
      <trkpt lat="43.48313" lon="6.86613">
        <ele>196</ele>
        <time>2011-01-09T09:17:00Z</time>
      </trkpt>
      <trkpt lat="43.48308" lon="6.86603">
        <ele>196</ele>
        <time>2011-01-09T09:17:02Z</time>
      </trkpt>
      <trkpt lat="43.48305" lon="6.86598">
        <ele>196</ele>
        <time>2011-01-09T09:17:03Z</time>
      </trkpt>
      <trkpt lat="43.48302" lon="6.86594">
        <ele>196</ele>
        <time>2011-01-09T09:17:04Z</time>
      </trkpt>
      <trkpt lat="43.48299" lon="6.86591">
        <ele>196</ele>
        <time>2011-01-09T09:17:05Z</time>
      </trkpt>
      <trkpt lat="43.48295" lon="6.86588">
        <ele>196</ele>
        <time>2011-01-09T09:17:06Z</time>
      </trkpt>
      <trkpt lat="43.48291" lon="6.86587">
        <ele>195</ele>
        <time>2011-01-09T09:17:07Z</time>
      </trkpt>
      <trkpt lat="43.48287" lon="6.86587">
        <ele>195</ele>
        <time>2011-01-09T09:17:08Z</time>
      </trkpt>
      <trkpt lat="43.48283" lon="6.86587">
        <ele>195</ele>
        <time>2011-01-09T09:17:09Z</time>
      </trkpt>
      <trkpt lat="43.48279" lon="6.86588">
        <ele>195</ele>
        <time>2011-01-09T09:17:10Z</time>
      </trkpt>
      <trkpt lat="43.48275" lon="6.86589">
        <ele>195</ele>
        <time>2011-01-09T09:17:11Z</time>
      </trkpt>
      <trkpt lat="43.48267" lon="6.86592">
        <ele>194</ele>
        <time>2011-01-09T09:17:13Z</time>
      </trkpt>
      <trkpt lat="43.48262" lon="6.86594">
        <ele>194</ele>
        <time>2011-01-09T09:17:14Z</time>
      </trkpt>
      <trkpt lat="43.48254" lon="6.86599">
        <ele>193</ele>
        <time>2011-01-09T09:17:16Z</time>
      </trkpt>
      <trkpt lat="43.48249" lon="6.86601">
        <ele>192</ele>
        <time>2011-01-09T09:17:17Z</time>
      </trkpt>
      <trkpt lat="43.48244" lon="6.86602">
        <ele>192</ele>
        <time>2011-01-09T09:17:18Z</time>
      </trkpt>
      <trkpt lat="43.48194" lon="6.86624">
        <ele>186</ele>
        <time>2011-01-09T09:17:28Z</time>
      </trkpt>
      <trkpt lat="43.4819" lon="6.86627">
        <ele>186</ele>
        <time>2011-01-09T09:17:29Z</time>
      </trkpt>
      <trkpt lat="43.48182" lon="6.86633">
        <ele>185</ele>
        <time>2011-01-09T09:17:31Z</time>
      </trkpt>
      <trkpt lat="43.48177" lon="6.86636">
        <ele>184</ele>
        <time>2011-01-09T09:17:32Z</time>
      </trkpt>
      <trkpt lat="43.48142" lon="6.86679">
        <ele>180</ele>
        <time>2011-01-09T09:17:42Z</time>
      </trkpt>
      <trkpt lat="43.48139" lon="6.86681">
        <ele>180</ele>
        <time>2011-01-09T09:17:43Z</time>
      </trkpt>
      <trkpt lat="43.48137" lon="6.86681">
        <ele>180</ele>
        <time>2011-01-09T09:17:44Z</time>
      </trkpt>
      <trkpt lat="43.48135" lon="6.8668">
        <ele>180</ele>
        <time>2011-01-09T09:17:45Z</time>
      </trkpt>
      <trkpt lat="43.48134" lon="6.86679">
        <ele>180</ele>
        <time>2011-01-09T09:17:46Z</time>
      </trkpt>
      <trkpt lat="43.48134" lon="6.86678">
        <ele>179</ele>
        <time>2011-01-09T09:17:47Z</time>
      </trkpt>
      <trkpt lat="43.48134" lon="6.86676">
        <ele>179</ele>
        <time>2011-01-09T09:17:48Z</time>
      </trkpt>
      <trkpt lat="43.48135" lon="6.86673">
        <ele>179</ele>
        <time>2011-01-09T09:17:49Z</time>
      </trkpt>
      <trkpt lat="43.48136" lon="6.8667">
        <ele>179</ele>
        <time>2011-01-09T09:17:50Z</time>
      </trkpt>
      <trkpt lat="43.48142" lon="6.86663">
        <ele>179</ele>
        <time>2011-01-09T09:17:53Z</time>
      </trkpt>
      <trkpt lat="43.48145" lon="6.8666">
        <ele>178</ele>
        <time>2011-01-09T09:17:54Z</time>
      </trkpt>
      <trkpt lat="43.48147" lon="6.86657">
        <ele>178</ele>
        <time>2011-01-09T09:17:55Z</time>
      </trkpt>
      <trkpt lat="43.48149" lon="6.86653">
        <ele>177</ele>
        <time>2011-01-09T09:17:56Z</time>
      </trkpt>
      <trkpt lat="43.48152" lon="6.86645">
        <ele>177</ele>
        <time>2011-01-09T09:17:58Z</time>
      </trkpt>
      <trkpt lat="43.48154" lon="6.86641">
        <ele>176</ele>
        <time>2011-01-09T09:17:59Z</time>
      </trkpt>
      <trkpt lat="43.48157" lon="6.86637">
        <ele>176</ele>
        <time>2011-01-09T09:18:00Z</time>
      </trkpt>
      <trkpt lat="43.48164" lon="6.86624">
        <ele>175</ele>
        <time>2011-01-09T09:18:03Z</time>
      </trkpt>
      <trkpt lat="43.48169" lon="6.86615">
        <ele>174</ele>
        <time>2011-01-09T09:18:05Z</time>
      </trkpt>
      <trkpt lat="43.48177" lon="6.86602">
        <ele>173</ele>
        <time>2011-01-09T09:18:08Z</time>
      </trkpt>
      <trkpt lat="43.48188" lon="6.86588">
        <ele>172</ele>
        <time>2011-01-09T09:18:12Z</time>
      </trkpt>
      <trkpt lat="43.48201" lon="6.86573">
        <ele>170</ele>
        <time>2011-01-09T09:18:16Z</time>
      </trkpt>
      <trkpt lat="43.48205" lon="6.86569">
        <ele>170</ele>
        <time>2011-01-09T09:18:17Z</time>
      </trkpt>
      <trkpt lat="43.48209" lon="6.86565">
        <ele>170</ele>
        <time>2011-01-09T09:18:18Z</time>
      </trkpt>
      <trkpt lat="43.4822" lon="6.86554">
        <ele>169</ele>
        <time>2011-01-09T09:18:21Z</time>
      </trkpt>
      <trkpt lat="43.48228" lon="6.86546">
        <ele>169</ele>
        <time>2011-01-09T09:18:23Z</time>
      </trkpt>
      <trkpt lat="43.48232" lon="6.86543">
        <ele>169</ele>
        <time>2011-01-09T09:18:24Z</time>
      </trkpt>
      <trkpt lat="43.48235" lon="6.86539">
        <ele>169</ele>
        <time>2011-01-09T09:18:25Z</time>
      </trkpt>
      <trkpt lat="43.48242" lon="6.86531">
        <ele>168</ele>
        <time>2011-01-09T09:18:27Z</time>
      </trkpt>
      <trkpt lat="43.48246" lon="6.86527">
        <ele>168</ele>
        <time>2011-01-09T09:18:28Z</time>
      </trkpt>
      <trkpt lat="43.4825" lon="6.86523">
        <ele>168</ele>
        <time>2011-01-09T09:18:29Z</time>
      </trkpt>
      <trkpt lat="43.48254" lon="6.86519">
        <ele>167</ele>
        <time>2011-01-09T09:18:30Z</time>
      </trkpt>
      <trkpt lat="43.48262" lon="6.86513">
        <ele>167</ele>
        <time>2011-01-09T09:18:32Z</time>
      </trkpt>
      <trkpt lat="43.48266" lon="6.8651">
        <ele>166</ele>
        <time>2011-01-09T09:18:33Z</time>
      </trkpt>
      <trkpt lat="43.4827" lon="6.86508">
        <ele>166</ele>
        <time>2011-01-09T09:18:34Z</time>
      </trkpt>
      <trkpt lat="43.48278" lon="6.86502">
        <ele>165</ele>
        <time>2011-01-09T09:18:36Z</time>
      </trkpt>
      <trkpt lat="43.48287" lon="6.86496">
        <ele>164</ele>
        <time>2011-01-09T09:18:38Z</time>
      </trkpt>
      <trkpt lat="43.48296" lon="6.86489">
        <ele>164</ele>
        <time>2011-01-09T09:18:40Z</time>
      </trkpt>
      <trkpt lat="43.483" lon="6.86487">
        <ele>163</ele>
        <time>2011-01-09T09:18:41Z</time>
      </trkpt>
      <trkpt lat="43.48309" lon="6.86484">
        <ele>163</ele>
        <time>2011-01-09T09:18:43Z</time>
      </trkpt>
      <trkpt lat="43.48316" lon="6.8648">
        <ele>162</ele>
        <time>2011-01-09T09:18:45Z</time>
      </trkpt>
      <trkpt lat="43.4832" lon="6.86478">
        <ele>161</ele>
        <time>2011-01-09T09:18:46Z</time>
      </trkpt>
      <trkpt lat="43.48334" lon="6.86475">
        <ele>160</ele>
        <time>2011-01-09T09:18:49Z</time>
      </trkpt>
      <trkpt lat="43.48338" lon="6.86474">
        <ele>160</ele>
        <time>2011-01-09T09:18:50Z</time>
      </trkpt>
      <trkpt lat="43.48342" lon="6.86474">
        <ele>160</ele>
        <time>2011-01-09T09:18:51Z</time>
      </trkpt>
      <trkpt lat="43.48347" lon="6.86474">
        <ele>159</ele>
        <time>2011-01-09T09:18:52Z</time>
      </trkpt>
      <trkpt lat="43.48351" lon="6.86474">
        <ele>159</ele>
        <time>2011-01-09T09:18:53Z</time>
      </trkpt>
      <trkpt lat="43.48355" lon="6.86476">
        <ele>159</ele>
        <time>2011-01-09T09:18:54Z</time>
      </trkpt>
      <trkpt lat="43.48359" lon="6.86477">
        <ele>159</ele>
        <time>2011-01-09T09:18:55Z</time>
      </trkpt>
      <trkpt lat="43.48362" lon="6.86479">
        <ele>158</ele>
        <time>2011-01-09T09:18:56Z</time>
      </trkpt>
      <trkpt lat="43.48368" lon="6.86484">
        <ele>158</ele>
        <time>2011-01-09T09:18:58Z</time>
      </trkpt>
      <trkpt lat="43.48375" lon="6.8649">
        <ele>157</ele>
        <time>2011-01-09T09:19:00Z</time>
      </trkpt>
      <trkpt lat="43.48379" lon="6.86492">
        <ele>157</ele>
        <time>2011-01-09T09:19:01Z</time>
      </trkpt>
      <trkpt lat="43.48382" lon="6.86495">
        <ele>157</ele>
        <time>2011-01-09T09:19:02Z</time>
      </trkpt>
      <trkpt lat="43.48388" lon="6.86501">
        <ele>157</ele>
        <time>2011-01-09T09:19:04Z</time>
      </trkpt>
      <trkpt lat="43.48391" lon="6.86503">
        <ele>157</ele>
        <time>2011-01-09T09:19:05Z</time>
      </trkpt>
      <trkpt lat="43.48393" lon="6.86506">
        <ele>157</ele>
        <time>2011-01-09T09:19:06Z</time>
      </trkpt>
      <trkpt lat="43.48397" lon="6.86511">
        <ele>156</ele>
        <time>2011-01-09T09:19:08Z</time>
      </trkpt>
      <trkpt lat="43.48399" lon="6.86514">
        <ele>156</ele>
        <time>2011-01-09T09:19:09Z</time>
      </trkpt>
      <trkpt lat="43.48401" lon="6.86518">
        <ele>156</ele>
        <time>2011-01-09T09:19:10Z</time>
      </trkpt>
      <trkpt lat="43.48402" lon="6.86523">
        <ele>156</ele>
        <time>2011-01-09T09:19:11Z</time>
      </trkpt>
      <trkpt lat="43.48403" lon="6.86529">
        <ele>156</ele>
        <time>2011-01-09T09:19:12Z</time>
      </trkpt>
      <trkpt lat="43.48404" lon="6.86534">
        <ele>156</ele>
        <time>2011-01-09T09:19:13Z</time>
      </trkpt>
      <trkpt lat="43.48404" lon="6.8654">
        <ele>155</ele>
        <time>2011-01-09T09:19:14Z</time>
      </trkpt>
      <trkpt lat="43.48404" lon="6.86547">
        <ele>155</ele>
        <time>2011-01-09T09:19:15Z</time>
      </trkpt>
      <trkpt lat="43.48404" lon="6.86553">
        <ele>155</ele>
        <time>2011-01-09T09:19:16Z</time>
      </trkpt>
      <trkpt lat="43.48405" lon="6.86566">
        <ele>154</ele>
        <time>2011-01-09T09:19:18Z</time>
      </trkpt>
      <trkpt lat="43.48405" lon="6.86573">
        <ele>154</ele>
        <time>2011-01-09T09:19:19Z</time>
      </trkpt>
      <trkpt lat="43.48405" lon="6.86587">
        <ele>153</ele>
        <time>2011-01-09T09:19:21Z</time>
      </trkpt>
      <trkpt lat="43.48405" lon="6.86593">
        <ele>152</ele>
        <time>2011-01-09T09:19:22Z</time>
      </trkpt>
      <trkpt lat="43.48407" lon="6.86599">
        <ele>152</ele>
        <time>2011-01-09T09:19:23Z</time>
      </trkpt>
      <trkpt lat="43.48409" lon="6.86603">
        <ele>152</ele>
        <time>2011-01-09T09:19:24Z</time>
      </trkpt>
      <trkpt lat="43.48412" lon="6.86606">
        <ele>151</ele>
        <time>2011-01-09T09:19:25Z</time>
      </trkpt>
      <trkpt lat="43.48416" lon="6.86607">
        <ele>151</ele>
        <time>2011-01-09T09:19:26Z</time>
      </trkpt>
      <trkpt lat="43.48421" lon="6.86606">
        <ele>151</ele>
        <time>2011-01-09T09:19:27Z</time>
      </trkpt>
      <trkpt lat="43.48424" lon="6.86604">
        <ele>151</ele>
        <time>2011-01-09T09:19:28Z</time>
      </trkpt>
      <trkpt lat="43.48433" lon="6.86597">
        <ele>150</ele>
        <time>2011-01-09T09:19:30Z</time>
      </trkpt>
      <trkpt lat="43.48437" lon="6.86593">
        <ele>149</ele>
        <time>2011-01-09T09:19:31Z</time>
      </trkpt>
      <trkpt lat="43.48441" lon="6.86589">
        <ele>149</ele>
        <time>2011-01-09T09:19:32Z</time>
      </trkpt>
      <trkpt lat="43.48445" lon="6.86585">
        <ele>148</ele>
        <time>2011-01-09T09:19:33Z</time>
      </trkpt>
      <trkpt lat="43.4845" lon="6.86582">
        <ele>148</ele>
        <time>2011-01-09T09:19:34Z</time>
      </trkpt>
      <trkpt lat="43.4846" lon="6.86578">
        <ele>147</ele>
        <time>2011-01-09T09:19:36Z</time>
      </trkpt>
      <trkpt lat="43.48518" lon="6.86548">
        <ele>144</ele>
        <time>2011-01-09T09:19:46Z</time>
      </trkpt>
      <trkpt lat="43.48562" lon="6.8649">
        <ele>140</ele>
        <time>2011-01-09T09:19:56Z</time>
      </trkpt>
      <trkpt lat="43.48599" lon="6.86454">
        <ele>137</ele>
        <time>2011-01-09T09:20:06Z</time>
      </trkpt>
      <trkpt lat="43.48603" lon="6.86451">
        <ele>136</ele>
        <time>2011-01-09T09:20:07Z</time>
      </trkpt>
      <trkpt lat="43.48616" lon="6.86441">
        <ele>135</ele>
        <time>2011-01-09T09:20:10Z</time>
      </trkpt>
      <trkpt lat="43.48621" lon="6.86438">
        <ele>135</ele>
        <time>2011-01-09T09:20:11Z</time>
      </trkpt>
      <trkpt lat="43.4867" lon="6.86398">
        <ele>130</ele>
        <time>2011-01-09T09:20:21Z</time>
      </trkpt>
      <trkpt lat="43.48671" lon="6.86321">
        <ele>127</ele>
        <time>2011-01-09T09:20:31Z</time>
      </trkpt>
      <trkpt lat="43.48676" lon="6.86253">
        <ele>124</ele>
        <time>2011-01-09T09:20:41Z</time>
      </trkpt>
      <trkpt lat="43.48705" lon="6.86205">
        <ele>120</ele>
        <time>2011-01-09T09:20:51Z</time>
      </trkpt>
      <trkpt lat="43.4876" lon="6.86171">
        <ele>116</ele>
        <time>2011-01-09T09:21:02Z</time>
      </trkpt>
      <trkpt lat="43.48766" lon="6.86165">
        <ele>115</ele>
        <time>2011-01-09T09:21:04Z</time>
      </trkpt>
      <trkpt lat="43.48772" lon="6.8616">
        <ele>115</ele>
        <time>2011-01-09T09:21:06Z</time>
      </trkpt>
      <trkpt lat="43.48774" lon="6.86158">
        <ele>115</ele>
        <time>2011-01-09T09:21:07Z</time>
      </trkpt>
      <trkpt lat="43.48775" lon="6.86155">
        <ele>115</ele>
        <time>2011-01-09T09:21:08Z</time>
      </trkpt>
      <trkpt lat="43.48774" lon="6.8615">
        <ele>115</ele>
        <time>2011-01-09T09:21:10Z</time>
      </trkpt>
      <trkpt lat="43.48772" lon="6.86145">
        <ele>115</ele>
        <time>2011-01-09T09:21:12Z</time>
      </trkpt>
      <trkpt lat="43.4877" lon="6.86144">
        <ele>115</ele>
        <time>2011-01-09T09:21:13Z</time>
      </trkpt>
      <trkpt lat="43.48769" lon="6.86143">
        <ele>115</ele>
        <time>2011-01-09T09:21:14Z</time>
      </trkpt>
      <trkpt lat="43.48767" lon="6.86142">
        <ele>115</ele>
        <time>2011-01-09T09:21:15Z</time>
      </trkpt>
      <trkpt lat="43.48764" lon="6.86142">
        <ele>115</ele>
        <time>2011-01-09T09:21:16Z</time>
      </trkpt>
      <trkpt lat="43.48758" lon="6.86143">
        <ele>115</ele>
        <time>2011-01-09T09:21:18Z</time>
      </trkpt>
      <trkpt lat="43.48746" lon="6.86145">
        <ele>115</ele>
        <time>2011-01-09T09:21:22Z</time>
      </trkpt>
      <trkpt lat="43.48742" lon="6.86145">
        <ele>115</ele>
        <time>2011-01-09T09:21:23Z</time>
      </trkpt>
      <trkpt lat="43.48739" lon="6.86145">
        <ele>115</ele>
        <time>2011-01-09T09:21:24Z</time>
      </trkpt>
      <trkpt lat="43.48727" lon="6.86144">
        <ele>115</ele>
        <time>2011-01-09T09:21:28Z</time>
      </trkpt>
      <trkpt lat="43.48726" lon="6.86144">
        <ele>115</ele>
        <time>2011-01-09T09:21:29Z</time>
      </trkpt>
      <trkpt lat="43.48723" lon="6.86144">
        <ele>114</ele>
        <time>2011-01-09T09:21:31Z</time>
      </trkpt>
      <trkpt lat="43.48721" lon="6.86145">
        <ele>114</ele>
        <time>2011-01-09T09:21:32Z</time>
      </trkpt>
      <trkpt lat="43.4872" lon="6.86145">
        <ele>114</ele>
        <time>2011-01-09T09:21:33Z</time>
      </trkpt>
      <trkpt lat="43.48719" lon="6.86144">
        <ele>114</ele>
        <time>2011-01-09T09:21:35Z</time>
      </trkpt>
      <trkpt lat="43.48718" lon="6.86144">
        <ele>114</ele>
        <time>2011-01-09T09:21:36Z</time>
      </trkpt>
      <trkpt lat="43.48718" lon="6.86144">
        <ele>114</ele>
        <time>2011-01-09T09:21:37Z</time>
      </trkpt>
      <trkpt lat="43.48718" lon="6.86144">
        <ele>114</ele>
        <time>2011-01-09T09:21:39Z</time>
      </trkpt>
      <trkpt lat="43.48718" lon="6.86143">
        <ele>114</ele>
        <time>2011-01-09T09:21:41Z</time>
      </trkpt>
      <trkpt lat="43.48719" lon="6.86142">
        <ele>115</ele>
        <time>2011-01-09T09:21:42Z</time>
      </trkpt>
      <trkpt lat="43.48719" lon="6.86142">
        <ele>115</ele>
        <time>2011-01-09T09:21:43Z</time>
      </trkpt>
      <trkpt lat="43.48723" lon="6.8614">
        <ele>115</ele>
        <time>2011-01-09T09:21:46Z</time>
      </trkpt>
      <trkpt lat="43.48725" lon="6.86139">
        <ele>115</ele>
        <time>2011-01-09T09:21:47Z</time>
      </trkpt>
      <trkpt lat="43.48727" lon="6.86139">
        <ele>115</ele>
        <time>2011-01-09T09:21:48Z</time>
      </trkpt>
      <trkpt lat="43.48729" lon="6.86138">
        <ele>115</ele>
        <time>2011-01-09T09:21:49Z</time>
      </trkpt>
      <trkpt lat="43.48731" lon="6.86137">
        <ele>115</ele>
        <time>2011-01-09T09:21:50Z</time>
      </trkpt>
      <trkpt lat="43.48733" lon="6.86135">
        <ele>116</ele>
        <time>2011-01-09T09:21:51Z</time>
      </trkpt>
      <trkpt lat="43.48734" lon="6.86133">
        <ele>116</ele>
        <time>2011-01-09T09:21:52Z</time>
      </trkpt>
      <trkpt lat="43.48736" lon="6.86131">
        <ele>116</ele>
        <time>2011-01-09T09:21:53Z</time>
      </trkpt>
      <trkpt lat="43.48738" lon="6.8613">
        <ele>116</ele>
        <time>2011-01-09T09:21:54Z</time>
      </trkpt>
      <trkpt lat="43.4874" lon="6.86128">
        <ele>115</ele>
        <time>2011-01-09T09:21:55Z</time>
      </trkpt>
      <trkpt lat="43.48742" lon="6.86128">
        <ele>115</ele>
        <time>2011-01-09T09:21:56Z</time>
      </trkpt>
      <trkpt lat="43.48747" lon="6.86126">
        <ele>115</ele>
        <time>2011-01-09T09:21:58Z</time>
      </trkpt>
      <trkpt lat="43.48752" lon="6.86125">
        <ele>116</ele>
        <time>2011-01-09T09:22:00Z</time>
      </trkpt>
      <trkpt lat="43.48756" lon="6.86124">
        <ele>116</ele>
        <time>2011-01-09T09:22:02Z</time>
      </trkpt>
      <trkpt lat="43.4876" lon="6.86121">
        <ele>116</ele>
        <time>2011-01-09T09:22:04Z</time>
      </trkpt>
      <trkpt lat="43.48764" lon="6.86118">
        <ele>116</ele>
        <time>2011-01-09T09:22:06Z</time>
      </trkpt>
      <trkpt lat="43.48768" lon="6.86116">
        <ele>116</ele>
        <time>2011-01-09T09:22:08Z</time>
      </trkpt>
      <trkpt lat="43.4877" lon="6.86114">
        <ele>116</ele>
        <time>2011-01-09T09:22:09Z</time>
      </trkpt>
      <trkpt lat="43.48774" lon="6.8611">
        <ele>116</ele>
        <time>2011-01-09T09:22:11Z</time>
      </trkpt>
      <trkpt lat="43.48778" lon="6.86108">
        <ele>116</ele>
        <time>2011-01-09T09:22:13Z</time>
      </trkpt>
      <trkpt lat="43.48783" lon="6.86107">
        <ele>116</ele>
        <time>2011-01-09T09:22:15Z</time>
      </trkpt>
      <trkpt lat="43.48785" lon="6.86105">
        <ele>117</ele>
        <time>2011-01-09T09:22:16Z</time>
      </trkpt>
      <trkpt lat="43.48787" lon="6.86104">
        <ele>117</ele>
        <time>2011-01-09T09:22:17Z</time>
      </trkpt>
      <trkpt lat="43.48789" lon="6.86103">
        <ele>117</ele>
        <time>2011-01-09T09:22:18Z</time>
      </trkpt>
      <trkpt lat="43.48793" lon="6.861">
        <ele>117</ele>
        <time>2011-01-09T09:22:20Z</time>
      </trkpt>
      <trkpt lat="43.48798" lon="6.86097">
        <ele>117</ele>
        <time>2011-01-09T09:22:22Z</time>
      </trkpt>
      <trkpt lat="43.48802" lon="6.86093">
        <ele>117</ele>
        <time>2011-01-09T09:22:24Z</time>
      </trkpt>
      <trkpt lat="43.48806" lon="6.86091">
        <ele>117</ele>
        <time>2011-01-09T09:22:26Z</time>
      </trkpt>
      <trkpt lat="43.4881" lon="6.86089">
        <ele>117</ele>
        <time>2011-01-09T09:22:28Z</time>
      </trkpt>
      <trkpt lat="43.48813" lon="6.86088">
        <ele>117</ele>
        <time>2011-01-09T09:22:29Z</time>
      </trkpt>
      <trkpt lat="43.48821" lon="6.86082">
        <ele>117</ele>
        <time>2011-01-09T09:22:33Z</time>
      </trkpt>
      <trkpt lat="43.48823" lon="6.86082">
        <ele>117</ele>
        <time>2011-01-09T09:22:34Z</time>
      </trkpt>
      <trkpt lat="43.48825" lon="6.86081">
        <ele>117</ele>
        <time>2011-01-09T09:22:35Z</time>
      </trkpt>
      <trkpt lat="43.48829" lon="6.86079">
        <ele>118</ele>
        <time>2011-01-09T09:22:37Z</time>
      </trkpt>
      <trkpt lat="43.48831" lon="6.86078">
        <ele>118</ele>
        <time>2011-01-09T09:22:38Z</time>
      </trkpt>
      <trkpt lat="43.48836" lon="6.86078">
        <ele>118</ele>
        <time>2011-01-09T09:22:40Z</time>
      </trkpt>
      <trkpt lat="43.48842" lon="6.86075">
        <ele>118</ele>
        <time>2011-01-09T09:22:43Z</time>
      </trkpt>
      <trkpt lat="43.48845" lon="6.86074">
        <ele>118</ele>
        <time>2011-01-09T09:22:45Z</time>
      </trkpt>
      <trkpt lat="43.48845" lon="6.86074">
        <ele>118</ele>
        <time>2011-01-09T09:22:47Z</time>
      </trkpt>
      <trkpt lat="43.48845" lon="6.86075">
        <ele>118</ele>
        <time>2011-01-09T09:22:51Z</time>
      </trkpt>
      <trkpt lat="43.48846" lon="6.86075">
        <ele>118</ele>
        <time>2011-01-09T09:22:52Z</time>
      </trkpt>
      <trkpt lat="43.48847" lon="6.86075">
        <ele>118</ele>
        <time>2011-01-09T09:22:53Z</time>
      </trkpt>
      <trkpt lat="43.48849" lon="6.86073">
        <ele>118</ele>
        <time>2011-01-09T09:22:55Z</time>
      </trkpt>
      <trkpt lat="43.48851" lon="6.86069">
        <ele>119</ele>
        <time>2011-01-09T09:23:03Z</time>
      </trkpt>
      <trkpt lat="43.48853" lon="6.86062">
        <ele>120</ele>
        <time>2011-01-09T09:23:09Z</time>
      </trkpt>
      <trkpt lat="43.48853" lon="6.86061">
        <ele>120</ele>
        <time>2011-01-09T09:23:10Z</time>
      </trkpt>
      <trkpt lat="43.48856" lon="6.86059">
        <ele>121</ele>
        <time>2011-01-09T09:23:14Z</time>
      </trkpt>
      <trkpt lat="43.48857" lon="6.86056">
        <ele>121</ele>
        <time>2011-01-09T09:23:16Z</time>
      </trkpt>
      <trkpt lat="43.48859" lon="6.86049">
        <ele>122</ele>
        <time>2011-01-09T09:23:23Z</time>
      </trkpt>
      <trkpt lat="43.48859" lon="6.86048">
        <ele>122</ele>
        <time>2011-01-09T09:23:25Z</time>
      </trkpt>
      <trkpt lat="43.4886" lon="6.86048">
        <ele>122</ele>
        <time>2011-01-09T09:23:33Z</time>
      </trkpt>
      <trkpt lat="43.4886" lon="6.86047">
        <ele>122</ele>
        <time>2011-01-09T09:23:34Z</time>
      </trkpt>
      <trkpt lat="43.4886" lon="6.86046">
        <ele>122</ele>
        <time>2011-01-09T09:23:35Z</time>
      </trkpt>
      <trkpt lat="43.48861" lon="6.86044">
        <ele>123</ele>
        <time>2011-01-09T09:23:37Z</time>
      </trkpt>
      <trkpt lat="43.48862" lon="6.86044">
        <ele>123</ele>
        <time>2011-01-09T09:23:38Z</time>
      </trkpt>
      <trkpt lat="43.48864" lon="6.86044">
        <ele>123</ele>
        <time>2011-01-09T09:23:40Z</time>
      </trkpt>
      <trkpt lat="43.48866" lon="6.86043">
        <ele>124</ele>
        <time>2011-01-09T09:23:42Z</time>
      </trkpt>
      <trkpt lat="43.48869" lon="6.8604">
        <ele>124</ele>
        <time>2011-01-09T09:23:46Z</time>
      </trkpt>
      <trkpt lat="43.48873" lon="6.86038">
        <ele>124</ele>
        <time>2011-01-09T09:23:49Z</time>
      </trkpt>
      <trkpt lat="43.48876" lon="6.86039">
        <ele>125</ele>
        <time>2011-01-09T09:23:52Z</time>
      </trkpt>
      <trkpt lat="43.48879" lon="6.86039">
        <ele>125</ele>
        <time>2011-01-09T09:23:55Z</time>
      </trkpt>
      <trkpt lat="43.48881" lon="6.86038">
        <ele>125</ele>
        <time>2011-01-09T09:23:57Z</time>
      </trkpt>
      <trkpt lat="43.48882" lon="6.86037">
        <ele>126</ele>
        <time>2011-01-09T09:23:58Z</time>
      </trkpt>
      <trkpt lat="43.48883" lon="6.86036">
        <ele>126</ele>
        <time>2011-01-09T09:24:00Z</time>
      </trkpt>
      <trkpt lat="43.48885" lon="6.86035">
        <ele>127</ele>
        <time>2011-01-09T09:24:02Z</time>
      </trkpt>
      <trkpt lat="43.48888" lon="6.86029">
        <ele>127</ele>
        <time>2011-01-09T09:24:10Z</time>
      </trkpt>
      <trkpt lat="43.48892" lon="6.86025">
        <ele>127</ele>
        <time>2011-01-09T09:24:14Z</time>
      </trkpt>
      <trkpt lat="43.48894" lon="6.86022">
        <ele>128</ele>
        <time>2011-01-09T09:24:17Z</time>
      </trkpt>
      <trkpt lat="43.48895" lon="6.86021">
        <ele>128</ele>
        <time>2011-01-09T09:24:18Z</time>
      </trkpt>
      <trkpt lat="43.489" lon="6.86019">
        <ele>128</ele>
        <time>2011-01-09T09:24:23Z</time>
      </trkpt>
      <trkpt lat="43.48902" lon="6.86018">
        <ele>129</ele>
        <time>2011-01-09T09:24:33Z</time>
      </trkpt>
      <trkpt lat="43.48899" lon="6.86019">
        <ele>128</ele>
        <time>2011-01-09T09:24:36Z</time>
      </trkpt>
      <trkpt lat="43.48895" lon="6.86022">
        <ele>128</ele>
        <time>2011-01-09T09:24:39Z</time>
      </trkpt>
      <trkpt lat="43.48894" lon="6.86023">
        <ele>128</ele>
        <time>2011-01-09T09:24:40Z</time>
      </trkpt>
      <trkpt lat="43.48892" lon="6.86025">
        <ele>128</ele>
        <time>2011-01-09T09:24:42Z</time>
      </trkpt>
      <trkpt lat="43.48889" lon="6.86029">
        <ele>128</ele>
        <time>2011-01-09T09:24:45Z</time>
      </trkpt>
      <trkpt lat="43.48887" lon="6.8603">
        <ele>128</ele>
        <time>2011-01-09T09:24:46Z</time>
      </trkpt>
      <trkpt lat="43.48885" lon="6.86031">
        <ele>128</ele>
        <time>2011-01-09T09:24:48Z</time>
      </trkpt>
      <trkpt lat="43.48883" lon="6.86035">
        <ele>128</ele>
        <time>2011-01-09T09:24:51Z</time>
      </trkpt>
      <trkpt lat="43.48882" lon="6.86036">
        <ele>128</ele>
        <time>2011-01-09T09:24:52Z</time>
      </trkpt>
      <trkpt lat="43.48881" lon="6.86037">
        <ele>128</ele>
        <time>2011-01-09T09:24:53Z</time>
      </trkpt>
      <trkpt lat="43.48878" lon="6.86037">
        <ele>127</ele>
        <time>2011-01-09T09:24:55Z</time>
      </trkpt>
      <trkpt lat="43.48875" lon="6.86037">
        <ele>127</ele>
        <time>2011-01-09T09:24:57Z</time>
      </trkpt>
      <trkpt lat="43.48874" lon="6.86037">
        <ele>127</ele>
        <time>2011-01-09T09:24:58Z</time>
      </trkpt>
      <trkpt lat="43.48873" lon="6.86037">
        <ele>127</ele>
        <time>2011-01-09T09:24:59Z</time>
      </trkpt>
      <trkpt lat="43.48873" lon="6.86038">
        <ele>127</ele>
        <time>2011-01-09T09:25:00Z</time>
      </trkpt>
      <trkpt lat="43.48871" lon="6.86039">
        <ele>127</ele>
        <time>2011-01-09T09:25:01Z</time>
      </trkpt>
      <trkpt lat="43.48869" lon="6.86041">
        <ele>127</ele>
        <time>2011-01-09T09:25:04Z</time>
      </trkpt>
      <trkpt lat="43.48866" lon="6.86043">
        <ele>127</ele>
        <time>2011-01-09T09:25:09Z</time>
      </trkpt>
      <trkpt lat="43.48864" lon="6.86041">
        <ele>127</ele>
        <time>2011-01-09T09:25:11Z</time>
      </trkpt>
      <trkpt lat="43.48863" lon="6.86041">
        <ele>127</ele>
        <time>2011-01-09T09:25:12Z</time>
      </trkpt>
      <trkpt lat="43.48861" lon="6.86043">
        <ele>127</ele>
        <time>2011-01-09T09:25:15Z</time>
      </trkpt>
      <trkpt lat="43.48861" lon="6.86043">
        <ele>127</ele>
        <time>2011-01-09T09:25:17Z</time>
      </trkpt>
      <trkpt lat="43.48861" lon="6.86043">
        <ele>127</ele>
        <time>2011-01-09T09:25:18Z</time>
      </trkpt>
      <trkpt lat="43.4886" lon="6.86044">
        <ele>127</ele>
        <time>2011-01-09T09:25:19Z</time>
      </trkpt>
      <trkpt lat="43.48859" lon="6.86045">
        <ele>127</ele>
        <time>2011-01-09T09:25:20Z</time>
      </trkpt>
      <trkpt lat="43.48859" lon="6.86047">
        <ele>127</ele>
        <time>2011-01-09T09:25:21Z</time>
      </trkpt>
      <trkpt lat="43.48858" lon="6.86051">
        <ele>126</ele>
        <time>2011-01-09T09:25:25Z</time>
      </trkpt>
      <trkpt lat="43.48857" lon="6.86054">
        <ele>126</ele>
        <time>2011-01-09T09:25:28Z</time>
      </trkpt>
      <trkpt lat="43.48856" lon="6.86059">
        <ele>126</ele>
        <time>2011-01-09T09:25:32Z</time>
      </trkpt>
      <trkpt lat="43.48855" lon="6.86059">
        <ele>126</ele>
        <time>2011-01-09T09:25:33Z</time>
      </trkpt>
      <trkpt lat="43.48855" lon="6.8606">
        <ele>126</ele>
        <time>2011-01-09T09:25:34Z</time>
      </trkpt>
      <trkpt lat="43.48852" lon="6.86061">
        <ele>126</ele>
        <time>2011-01-09T09:25:36Z</time>
      </trkpt>
      <trkpt lat="43.48852" lon="6.86062">
        <ele>126</ele>
        <time>2011-01-09T09:25:37Z</time>
      </trkpt>
      <trkpt lat="43.48851" lon="6.86063">
        <ele>126</ele>
        <time>2011-01-09T09:25:38Z</time>
      </trkpt>
      <trkpt lat="43.48849" lon="6.86064">
        <ele>125</ele>
        <time>2011-01-09T09:25:40Z</time>
      </trkpt>
      <trkpt lat="43.48849" lon="6.86065">
        <ele>125</ele>
        <time>2011-01-09T09:25:41Z</time>
      </trkpt>
      <trkpt lat="43.48848" lon="6.86068">
        <ele>124</ele>
        <time>2011-01-09T09:25:44Z</time>
      </trkpt>
      <trkpt lat="43.48847" lon="6.86072">
        <ele>124</ele>
        <time>2011-01-09T09:25:47Z</time>
      </trkpt>
      <trkpt lat="43.48847" lon="6.86072">
        <ele>123</ele>
        <time>2011-01-09T09:25:50Z</time>
      </trkpt>
      <trkpt lat="43.48848" lon="6.86073">
        <ele>123</ele>
        <time>2011-01-09T09:25:52Z</time>
      </trkpt>
      <trkpt lat="43.48848" lon="6.86074">
        <ele>122</ele>
        <time>2011-01-09T09:25:54Z</time>
      </trkpt>
      <trkpt lat="43.48847" lon="6.86074">
        <ele>122</ele>
        <time>2011-01-09T09:25:57Z</time>
      </trkpt>
      <trkpt lat="43.48847" lon="6.86075">
        <ele>122</ele>
        <time>2011-01-09T09:26:03Z</time>
      </trkpt>
      <trkpt lat="43.48844" lon="6.86076">
        <ele>122</ele>
        <time>2011-01-09T09:26:06Z</time>
      </trkpt>
      <trkpt lat="43.48839" lon="6.86077">
        <ele>122</ele>
        <time>2011-01-09T09:26:09Z</time>
      </trkpt>
      <trkpt lat="43.48835" lon="6.86079">
        <ele>121</ele>
        <time>2011-01-09T09:26:11Z</time>
      </trkpt>
      <trkpt lat="43.48831" lon="6.8608">
        <ele>121</ele>
        <time>2011-01-09T09:26:13Z</time>
      </trkpt>
      <trkpt lat="43.48826" lon="6.8608">
        <ele>121</ele>
        <time>2011-01-09T09:26:16Z</time>
      </trkpt>
      <trkpt lat="43.48822" lon="6.86082">
        <ele>121</ele>
        <time>2011-01-09T09:26:18Z</time>
      </trkpt>
      <trkpt lat="43.48819" lon="6.86084">
        <ele>121</ele>
        <time>2011-01-09T09:26:20Z</time>
      </trkpt>
      <trkpt lat="43.48818" lon="6.86085">
        <ele>121</ele>
        <time>2011-01-09T09:26:21Z</time>
      </trkpt>
      <trkpt lat="43.48814" lon="6.86087">
        <ele>121</ele>
        <time>2011-01-09T09:26:23Z</time>
      </trkpt>
      <trkpt lat="43.48812" lon="6.86088">
        <ele>121</ele>
        <time>2011-01-09T09:26:24Z</time>
      </trkpt>
      <trkpt lat="43.48809" lon="6.8609">
        <ele>121</ele>
        <time>2011-01-09T09:26:26Z</time>
      </trkpt>
      <trkpt lat="43.48805" lon="6.86092">
        <ele>120</ele>
        <time>2011-01-09T09:26:28Z</time>
      </trkpt>
      <trkpt lat="43.48801" lon="6.86094">
        <ele>120</ele>
        <time>2011-01-09T09:26:30Z</time>
      </trkpt>
      <trkpt lat="43.48799" lon="6.86096">
        <ele>120</ele>
        <time>2011-01-09T09:26:31Z</time>
      </trkpt>
      <trkpt lat="43.48797" lon="6.86098">
        <ele>120</ele>
        <time>2011-01-09T09:26:32Z</time>
      </trkpt>
      <trkpt lat="43.48795" lon="6.861">
        <ele>120</ele>
        <time>2011-01-09T09:26:33Z</time>
      </trkpt>
      <trkpt lat="43.48791" lon="6.86103">
        <ele>120</ele>
        <time>2011-01-09T09:26:35Z</time>
      </trkpt>
      <trkpt lat="43.48788" lon="6.86105">
        <ele>120</ele>
        <time>2011-01-09T09:26:36Z</time>
      </trkpt>
      <trkpt lat="43.48775" lon="6.86111">
        <ele>119</ele>
        <time>2011-01-09T09:26:41Z</time>
      </trkpt>
      <trkpt lat="43.48772" lon="6.86113">
        <ele>119</ele>
        <time>2011-01-09T09:26:42Z</time>
      </trkpt>
      <trkpt lat="43.48768" lon="6.86117">
        <ele>119</ele>
        <time>2011-01-09T09:26:44Z</time>
      </trkpt>
      <trkpt lat="43.48765" lon="6.86118">
        <ele>119</ele>
        <time>2011-01-09T09:26:45Z</time>
      </trkpt>
      <trkpt lat="43.48759" lon="6.8612">
        <ele>119</ele>
        <time>2011-01-09T09:26:47Z</time>
      </trkpt>
      <trkpt lat="43.48754" lon="6.86123">
        <ele>119</ele>
        <time>2011-01-09T09:26:49Z</time>
      </trkpt>
      <trkpt lat="43.48751" lon="6.86125">
        <ele>119</ele>
        <time>2011-01-09T09:26:50Z</time>
      </trkpt>
      <trkpt lat="43.48748" lon="6.86126">
        <ele>119</ele>
        <time>2011-01-09T09:26:51Z</time>
      </trkpt>
      <trkpt lat="43.48742" lon="6.86128">
        <ele>119</ele>
        <time>2011-01-09T09:26:53Z</time>
      </trkpt>
      <trkpt lat="43.4874" lon="6.8613">
        <ele>119</ele>
        <time>2011-01-09T09:26:54Z</time>
      </trkpt>
      <trkpt lat="43.48738" lon="6.86131">
        <ele>119</ele>
        <time>2011-01-09T09:26:55Z</time>
      </trkpt>
      <trkpt lat="43.48737" lon="6.86134">
        <ele>119</ele>
        <time>2011-01-09T09:26:56Z</time>
      </trkpt>
      <trkpt lat="43.48735" lon="6.86135">
        <ele>119</ele>
        <time>2011-01-09T09:26:57Z</time>
      </trkpt>
      <trkpt lat="43.48733" lon="6.86136">
        <ele>119</ele>
        <time>2011-01-09T09:26:58Z</time>
      </trkpt>
      <trkpt lat="43.4873" lon="6.86138">
        <ele>119</ele>
        <time>2011-01-09T09:26:59Z</time>
      </trkpt>
      <trkpt lat="43.48719" lon="6.86143">
        <ele>118</ele>
        <time>2011-01-09T09:27:03Z</time>
      </trkpt>
      <trkpt lat="43.48716" lon="6.86144">
        <ele>118</ele>
        <time>2011-01-09T09:27:04Z</time>
      </trkpt>
      <trkpt lat="43.48713" lon="6.86144">
        <ele>117</ele>
        <time>2011-01-09T09:27:05Z</time>
      </trkpt>
      <trkpt lat="43.4871" lon="6.86144">
        <ele>117</ele>
        <time>2011-01-09T09:27:06Z</time>
      </trkpt>
      <trkpt lat="43.48704" lon="6.86143">
        <ele>117</ele>
        <time>2011-01-09T09:27:08Z</time>
      </trkpt>
      <trkpt lat="43.48701" lon="6.86143">
        <ele>117</ele>
        <time>2011-01-09T09:27:09Z</time>
      </trkpt>
      <trkpt lat="43.48695" lon="6.86141">
        <ele>117</ele>
        <time>2011-01-09T09:27:11Z</time>
      </trkpt>
      <trkpt lat="43.4869" lon="6.8614">
        <ele>117</ele>
        <time>2011-01-09T09:27:13Z</time>
      </trkpt>
      <trkpt lat="43.48684" lon="6.86139">
        <ele>117</ele>
        <time>2011-01-09T09:27:15Z</time>
      </trkpt>
      <trkpt lat="43.48682" lon="6.86138">
        <ele>117</ele>
        <time>2011-01-09T09:27:16Z</time>
      </trkpt>
      <trkpt lat="43.48679" lon="6.86137">
        <ele>117</ele>
        <time>2011-01-09T09:27:17Z</time>
      </trkpt>
      <trkpt lat="43.48677" lon="6.86136">
        <ele>117</ele>
        <time>2011-01-09T09:27:18Z</time>
      </trkpt>
      <trkpt lat="43.48675" lon="6.86135">
        <ele>117</ele>
        <time>2011-01-09T09:27:19Z</time>
      </trkpt>
      <trkpt lat="43.48673" lon="6.86132">
        <ele>117</ele>
        <time>2011-01-09T09:27:20Z</time>
      </trkpt>
      <trkpt lat="43.48672" lon="6.8613">
        <ele>118</ele>
        <time>2011-01-09T09:27:21Z</time>
      </trkpt>
      <trkpt lat="43.48672" lon="6.86128">
        <ele>118</ele>
        <time>2011-01-09T09:27:22Z</time>
      </trkpt>
      <trkpt lat="43.48671" lon="6.86125">
        <ele>118</ele>
        <time>2011-01-09T09:27:23Z</time>
      </trkpt>
      <trkpt lat="43.48672" lon="6.86122">
        <ele>118</ele>
        <time>2011-01-09T09:27:24Z</time>
      </trkpt>
      <trkpt lat="43.48673" lon="6.8612">
        <ele>118</ele>
        <time>2011-01-09T09:27:25Z</time>
      </trkpt>
      <trkpt lat="43.48678" lon="6.86113">
        <ele>119</ele>
        <time>2011-01-09T09:27:28Z</time>
      </trkpt>
      <trkpt lat="43.48683" lon="6.86108">
        <ele>120</ele>
        <time>2011-01-09T09:27:31Z</time>
      </trkpt>
      <trkpt lat="43.48688" lon="6.86101">
        <ele>121</ele>
        <time>2011-01-09T09:27:34Z</time>
      </trkpt>
      <trkpt lat="43.48691" lon="6.86097">
        <ele>121</ele>
        <time>2011-01-09T09:27:36Z</time>
      </trkpt>
      <trkpt lat="43.48692" lon="6.86094">
        <ele>121</ele>
        <time>2011-01-09T09:27:37Z</time>
      </trkpt>
      <trkpt lat="43.48696" lon="6.86088">
        <ele>122</ele>
        <time>2011-01-09T09:27:40Z</time>
      </trkpt>
      <trkpt lat="43.48698" lon="6.86083">
        <ele>122</ele>
        <time>2011-01-09T09:27:42Z</time>
      </trkpt>
      <trkpt lat="43.487" lon="6.86081">
        <ele>122</ele>
        <time>2011-01-09T09:27:43Z</time>
      </trkpt>
      <trkpt lat="43.48703" lon="6.86077">
        <ele>123</ele>
        <time>2011-01-09T09:27:45Z</time>
      </trkpt>
      <trkpt lat="43.48705" lon="6.86076">
        <ele>123</ele>
        <time>2011-01-09T09:27:46Z</time>
      </trkpt>
      <trkpt lat="43.48711" lon="6.86072">
        <ele>124</ele>
        <time>2011-01-09T09:27:49Z</time>
      </trkpt>
      <trkpt lat="43.48715" lon="6.86069">
        <ele>124</ele>
        <time>2011-01-09T09:27:51Z</time>
      </trkpt>
      <trkpt lat="43.48721" lon="6.86066">
        <ele>125</ele>
        <time>2011-01-09T09:27:54Z</time>
      </trkpt>
      <trkpt lat="43.48727" lon="6.86064">
        <ele>126</ele>
        <time>2011-01-09T09:27:57Z</time>
      </trkpt>
      <trkpt lat="43.48729" lon="6.86062">
        <ele>126</ele>
        <time>2011-01-09T09:27:58Z</time>
      </trkpt>
      <trkpt lat="43.48734" lon="6.86059">
        <ele>127</ele>
        <time>2011-01-09T09:28:01Z</time>
      </trkpt>
      <trkpt lat="43.48736" lon="6.86058">
        <ele>127</ele>
        <time>2011-01-09T09:28:02Z</time>
      </trkpt>
      <trkpt lat="43.48738" lon="6.86057">
        <ele>127</ele>
        <time>2011-01-09T09:28:03Z</time>
      </trkpt>
      <trkpt lat="43.48741" lon="6.86054">
        <ele>127</ele>
        <time>2011-01-09T09:28:05Z</time>
      </trkpt>
      <trkpt lat="43.48743" lon="6.86053">
        <ele>128</ele>
        <time>2011-01-09T09:28:06Z</time>
      </trkpt>
      <trkpt lat="43.48747" lon="6.86047">
        <ele>128</ele>
        <time>2011-01-09T09:28:09Z</time>
      </trkpt>
      <trkpt lat="43.48748" lon="6.86045">
        <ele>128</ele>
        <time>2011-01-09T09:28:10Z</time>
      </trkpt>
      <trkpt lat="43.4875" lon="6.86043">
        <ele>128</ele>
        <time>2011-01-09T09:28:11Z</time>
      </trkpt>
      <trkpt lat="43.48751" lon="6.86041">
        <ele>129</ele>
        <time>2011-01-09T09:28:12Z</time>
      </trkpt>
      <trkpt lat="43.48753" lon="6.86036">
        <ele>129</ele>
        <time>2011-01-09T09:28:14Z</time>
      </trkpt>
      <trkpt lat="43.48753" lon="6.86034">
        <ele>129</ele>
        <time>2011-01-09T09:28:15Z</time>
      </trkpt>
      <trkpt lat="43.48754" lon="6.86029">
        <ele>129</ele>
        <time>2011-01-09T09:28:17Z</time>
      </trkpt>
      <trkpt lat="43.48753" lon="6.86021">
        <ele>129</ele>
        <time>2011-01-09T09:28:20Z</time>
      </trkpt>
      <trkpt lat="43.48753" lon="6.86016">
        <ele>130</ele>
        <time>2011-01-09T09:28:22Z</time>
      </trkpt>
      <trkpt lat="43.48753" lon="6.86011">
        <ele>130</ele>
        <time>2011-01-09T09:28:24Z</time>
      </trkpt>
      <trkpt lat="43.48753" lon="6.86008">
        <ele>130</ele>
        <time>2011-01-09T09:28:25Z</time>
      </trkpt>
      <trkpt lat="43.48753" lon="6.86006">
        <ele>130</ele>
        <time>2011-01-09T09:28:26Z</time>
      </trkpt>
      <trkpt lat="43.48754" lon="6.86003">
        <ele>130</ele>
        <time>2011-01-09T09:28:27Z</time>
      </trkpt>
      <trkpt lat="43.48756" lon="6.86">
        <ele>130</ele>
        <time>2011-01-09T09:28:29Z</time>
      </trkpt>
      <trkpt lat="43.48758" lon="6.85998">
        <ele>131</ele>
        <time>2011-01-09T09:28:30Z</time>
      </trkpt>
      <trkpt lat="43.48763" lon="6.85994">
        <ele>131</ele>
        <time>2011-01-09T09:28:33Z</time>
      </trkpt>
      <trkpt lat="43.48765" lon="6.85993">
        <ele>131</ele>
        <time>2011-01-09T09:28:34Z</time>
      </trkpt>
      <trkpt lat="43.48768" lon="6.85992">
        <ele>132</ele>
        <time>2011-01-09T09:28:36Z</time>
      </trkpt>
      <trkpt lat="43.48774" lon="6.8599">
        <ele>132</ele>
        <time>2011-01-09T09:28:39Z</time>
      </trkpt>
      <trkpt lat="43.48782" lon="6.85989">
        <ele>133</ele>
        <time>2011-01-09T09:28:43Z</time>
      </trkpt>
      <trkpt lat="43.48786" lon="6.85987">
        <ele>133</ele>
        <time>2011-01-09T09:28:45Z</time>
      </trkpt>
      <trkpt lat="43.48791" lon="6.85986">
        <ele>134</ele>
        <time>2011-01-09T09:28:48Z</time>
      </trkpt>
      <trkpt lat="43.48797" lon="6.85986">
        <ele>134</ele>
        <time>2011-01-09T09:28:51Z</time>
      </trkpt>
      <trkpt lat="43.48799" lon="6.85985">
        <ele>134</ele>
        <time>2011-01-09T09:28:52Z</time>
      </trkpt>
      <trkpt lat="43.48803" lon="6.85984">
        <ele>135</ele>
        <time>2011-01-09T09:28:54Z</time>
      </trkpt>
      <trkpt lat="43.48806" lon="6.85982">
        <ele>135</ele>
        <time>2011-01-09T09:28:56Z</time>
      </trkpt>
      <trkpt lat="43.48808" lon="6.85981">
        <ele>135</ele>
        <time>2011-01-09T09:28:57Z</time>
      </trkpt>
      <trkpt lat="43.4881" lon="6.8598">
        <ele>135</ele>
        <time>2011-01-09T09:28:58Z</time>
      </trkpt>
      <trkpt lat="43.48811" lon="6.85978">
        <ele>136</ele>
        <time>2011-01-09T09:28:59Z</time>
      </trkpt>
      <trkpt lat="43.48814" lon="6.85975">
        <ele>136</ele>
        <time>2011-01-09T09:29:01Z</time>
      </trkpt>
      <trkpt lat="43.48816" lon="6.85971">
        <ele>136</ele>
        <time>2011-01-09T09:29:03Z</time>
      </trkpt>
      <trkpt lat="43.48817" lon="6.85968">
        <ele>136</ele>
        <time>2011-01-09T09:29:04Z</time>
      </trkpt>
      <trkpt lat="43.48819" lon="6.85964">
        <ele>137</ele>
        <time>2011-01-09T09:29:06Z</time>
      </trkpt>
      <trkpt lat="43.4882" lon="6.85961">
        <ele>137</ele>
        <time>2011-01-09T09:29:07Z</time>
      </trkpt>
      <trkpt lat="43.48821" lon="6.85959">
        <ele>137</ele>
        <time>2011-01-09T09:29:08Z</time>
      </trkpt>
      <trkpt lat="43.48821" lon="6.85953">
        <ele>137</ele>
        <time>2011-01-09T09:29:10Z</time>
      </trkpt>
      <trkpt lat="43.48822" lon="6.85948">
        <ele>138</ele>
        <time>2011-01-09T09:29:12Z</time>
      </trkpt>
      <trkpt lat="43.48823" lon="6.85943">
        <ele>138</ele>
        <time>2011-01-09T09:29:14Z</time>
      </trkpt>
      <trkpt lat="43.48823" lon="6.8594">
        <ele>138</ele>
        <time>2011-01-09T09:29:15Z</time>
      </trkpt>
      <trkpt lat="43.48823" lon="6.85938">
        <ele>138</ele>
        <time>2011-01-09T09:29:16Z</time>
      </trkpt>
      <trkpt lat="43.48822" lon="6.85935">
        <ele>139</ele>
        <time>2011-01-09T09:29:17Z</time>
      </trkpt>
      <trkpt lat="43.48821" lon="6.8593">
        <ele>139</ele>
        <time>2011-01-09T09:29:19Z</time>
      </trkpt>
      <trkpt lat="43.48821" lon="6.85922">
        <ele>140</ele>
        <time>2011-01-09T09:29:22Z</time>
      </trkpt>
      <trkpt lat="43.48821" lon="6.85917">
        <ele>140</ele>
        <time>2011-01-09T09:29:24Z</time>
      </trkpt>
      <trkpt lat="43.48821" lon="6.85904">
        <ele>141</ele>
        <time>2011-01-09T09:29:29Z</time>
      </trkpt>
      <trkpt lat="43.48821" lon="6.85902">
        <ele>141</ele>
        <time>2011-01-09T09:29:30Z</time>
      </trkpt>
      <trkpt lat="43.48819" lon="6.85892">
        <ele>142</ele>
        <time>2011-01-09T09:29:34Z</time>
      </trkpt>
      <trkpt lat="43.48816" lon="6.85883">
        <ele>143</ele>
        <time>2011-01-09T09:29:38Z</time>
      </trkpt>
      <trkpt lat="43.48816" lon="6.8588">
        <ele>143</ele>
        <time>2011-01-09T09:29:39Z</time>
      </trkpt>
      <trkpt lat="43.48814" lon="6.85873">
        <ele>143</ele>
        <time>2011-01-09T09:29:42Z</time>
      </trkpt>
      <trkpt lat="43.48813" lon="6.85863">
        <ele>144</ele>
        <time>2011-01-09T09:29:46Z</time>
      </trkpt>
      <trkpt lat="43.48814" lon="6.85858">
        <ele>144</ele>
        <time>2011-01-09T09:29:48Z</time>
      </trkpt>
      <trkpt lat="43.48815" lon="6.85853">
        <ele>145</ele>
        <time>2011-01-09T09:29:50Z</time>
      </trkpt>
      <trkpt lat="43.48816" lon="6.85851">
        <ele>145</ele>
        <time>2011-01-09T09:29:51Z</time>
      </trkpt>
      <trkpt lat="43.4882" lon="6.85844">
        <ele>145</ele>
        <time>2011-01-09T09:29:54Z</time>
      </trkpt>
      <trkpt lat="43.48822" lon="6.85839">
        <ele>145</ele>
        <time>2011-01-09T09:29:56Z</time>
      </trkpt>
      <trkpt lat="43.48828" lon="6.85825">
        <ele>146</ele>
        <time>2011-01-09T09:30:02Z</time>
      </trkpt>
      <trkpt lat="43.48829" lon="6.8582">
        <ele>147</ele>
        <time>2011-01-09T09:30:04Z</time>
      </trkpt>
      <trkpt lat="43.4883" lon="6.85815">
        <ele>147</ele>
        <time>2011-01-09T09:30:06Z</time>
      </trkpt>
      <trkpt lat="43.4883" lon="6.8581">
        <ele>148</ele>
        <time>2011-01-09T09:30:08Z</time>
      </trkpt>
      <trkpt lat="43.48829" lon="6.85807">
        <ele>148</ele>
        <time>2011-01-09T09:30:09Z</time>
      </trkpt>
      <trkpt lat="43.48827" lon="6.85799">
        <ele>148</ele>
        <time>2011-01-09T09:30:12Z</time>
      </trkpt>
      <trkpt lat="43.48825" lon="6.85792">
        <ele>149</ele>
        <time>2011-01-09T09:30:15Z</time>
      </trkpt>
      <trkpt lat="43.48822" lon="6.85788">
        <ele>149</ele>
        <time>2011-01-09T09:30:17Z</time>
      </trkpt>
      <trkpt lat="43.48821" lon="6.85785">
        <ele>149</ele>
        <time>2011-01-09T09:30:18Z</time>
      </trkpt>
      <trkpt lat="43.4882" lon="6.85781">
        <ele>150</ele>
        <time>2011-01-09T09:30:20Z</time>
      </trkpt>
      <trkpt lat="43.48817" lon="6.85774">
        <ele>151</ele>
        <time>2011-01-09T09:30:23Z</time>
      </trkpt>
      <trkpt lat="43.48815" lon="6.85772">
        <ele>151</ele>
        <time>2011-01-09T09:30:24Z</time>
      </trkpt>
      <trkpt lat="43.48814" lon="6.85771">
        <ele>151</ele>
        <time>2011-01-09T09:30:25Z</time>
      </trkpt>
      <trkpt lat="43.48811" lon="6.85766">
        <ele>151</ele>
        <time>2011-01-09T09:30:27Z</time>
      </trkpt>
      <trkpt lat="43.4881" lon="6.85763">
        <ele>151</ele>
        <time>2011-01-09T09:30:29Z</time>
      </trkpt>
      <trkpt lat="43.48808" lon="6.8576">
        <ele>151</ele>
        <time>2011-01-09T09:30:31Z</time>
      </trkpt>
      <trkpt lat="43.48807" lon="6.85759">
        <ele>151</ele>
        <time>2011-01-09T09:30:32Z</time>
      </trkpt>
      <trkpt lat="43.48806" lon="6.85756">
        <ele>151</ele>
        <time>2011-01-09T09:30:34Z</time>
      </trkpt>
      <trkpt lat="43.48805" lon="6.85755">
        <ele>151</ele>
        <time>2011-01-09T09:30:35Z</time>
      </trkpt>
      <trkpt lat="43.48805" lon="6.8575">
        <ele>151</ele>
        <time>2011-01-09T09:30:38Z</time>
      </trkpt>
      <trkpt lat="43.48805" lon="6.8575">
        <ele>151</ele>
        <time>2011-01-09T09:30:39Z</time>
      </trkpt>
      <trkpt lat="43.48805" lon="6.8575">
        <ele>151</ele>
        <time>2011-01-09T09:30:49Z</time>
      </trkpt>
      <trkpt lat="43.48805" lon="6.8575">
        <ele>151</ele>
        <time>2011-01-09T09:30:50Z</time>
      </trkpt>
      <trkpt lat="43.48805" lon="6.85751">
        <ele>151</ele>
        <time>2011-01-09T09:30:54Z</time>
      </trkpt>
      <trkpt lat="43.48805" lon="6.85752">
        <ele>151</ele>
        <time>2011-01-09T09:30:58Z</time>
      </trkpt>
      <trkpt lat="43.48805" lon="6.85752">
        <ele>151</ele>
        <time>2011-01-09T09:34:55Z</time>
      </trkpt>
      <trkpt lat="43.48805" lon="6.85752">
        <ele>151</ele>
        <time>2011-01-09T09:34:57Z</time>
      </trkpt>
      <trkpt lat="43.48804" lon="6.85751">
        <ele>151</ele>
        <time>2011-01-09T09:35:07Z</time>
      </trkpt>
      <trkpt lat="43.48804" lon="6.8575">
        <ele>151</ele>
        <time>2011-01-09T09:35:08Z</time>
      </trkpt>
      <trkpt lat="43.48805" lon="6.85751">
        <ele>151</ele>
        <time>2011-01-09T09:35:16Z</time>
      </trkpt>
      <trkpt lat="43.48806" lon="6.8575">
        <ele>151</ele>
        <time>2011-01-09T09:35:17Z</time>
      </trkpt>
      <trkpt lat="43.48805" lon="6.85749">
        <ele>151</ele>
        <time>2011-01-09T09:35:33Z</time>
      </trkpt>
      <trkpt lat="43.48804" lon="6.8575">
        <ele>151</ele>
        <time>2011-01-09T09:35:34Z</time>
      </trkpt>
      <trkpt lat="43.48802" lon="6.8575">
        <ele>151</ele>
        <time>2011-01-09T09:35:35Z</time>
      </trkpt>
      <trkpt lat="43.488" lon="6.85749">
        <ele>151</ele>
        <time>2011-01-09T09:35:36Z</time>
      </trkpt>
      <trkpt lat="43.48798" lon="6.85747">
        <ele>151</ele>
        <time>2011-01-09T09:35:37Z</time>
      </trkpt>
      <trkpt lat="43.48796" lon="6.85745">
        <ele>150</ele>
        <time>2011-01-09T09:35:38Z</time>
      </trkpt>
      <trkpt lat="43.4879" lon="6.85739">
        <ele>150</ele>
        <time>2011-01-09T09:35:40Z</time>
      </trkpt>
      <trkpt lat="43.48783" lon="6.85731">
        <ele>149</ele>
        <time>2011-01-09T09:35:42Z</time>
      </trkpt>
      <trkpt lat="43.48779" lon="6.85727">
        <ele>148</ele>
        <time>2011-01-09T09:35:43Z</time>
      </trkpt>
      <trkpt lat="43.48772" lon="6.85719">
        <ele>148</ele>
        <time>2011-01-09T09:35:45Z</time>
      </trkpt>
      <trkpt lat="43.48769" lon="6.85715">
        <ele>147</ele>
        <time>2011-01-09T09:35:46Z</time>
      </trkpt>
      <trkpt lat="43.4876" lon="6.85707">
        <ele>146</ele>
        <time>2011-01-09T09:35:48Z</time>
      </trkpt>
      <trkpt lat="43.48755" lon="6.85703">
        <ele>145</ele>
        <time>2011-01-09T09:35:49Z</time>
      </trkpt>
      <trkpt lat="43.48714" lon="6.85651">
        <ele>141</ele>
        <time>2011-01-09T09:35:59Z</time>
      </trkpt>
      <trkpt lat="43.48698" lon="6.85573">
        <ele>135</ele>
        <time>2011-01-09T09:36:09Z</time>
      </trkpt>
      <trkpt lat="43.48649" lon="6.8553">
        <ele>130</ele>
        <time>2011-01-09T09:36:19Z</time>
      </trkpt>
      <trkpt lat="43.48644" lon="6.85528">
        <ele>129</ele>
        <time>2011-01-09T09:36:20Z</time>
      </trkpt>
      <trkpt lat="43.4864" lon="6.85528">
        <ele>129</ele>
        <time>2011-01-09T09:36:21Z</time>
      </trkpt>
      <trkpt lat="43.48635" lon="6.85528">
        <ele>128</ele>
        <time>2011-01-09T09:36:22Z</time>
      </trkpt>
      <trkpt lat="43.4863" lon="6.85529">
        <ele>128</ele>
        <time>2011-01-09T09:36:23Z</time>
      </trkpt>
      <trkpt lat="43.48622" lon="6.85532">
        <ele>127</ele>
        <time>2011-01-09T09:36:25Z</time>
      </trkpt>
      <trkpt lat="43.48617" lon="6.85533">
        <ele>126</ele>
        <time>2011-01-09T09:36:26Z</time>
      </trkpt>
      <trkpt lat="43.48612" lon="6.85534">
        <ele>126</ele>
        <time>2011-01-09T09:36:27Z</time>
      </trkpt>
      <trkpt lat="43.48608" lon="6.85535">
        <ele>125</ele>
        <time>2011-01-09T09:36:28Z</time>
      </trkpt>
      <trkpt lat="43.48603" lon="6.85537">
        <ele>125</ele>
        <time>2011-01-09T09:36:29Z</time>
      </trkpt>
      <trkpt lat="43.48598" lon="6.8554">
        <ele>124</ele>
        <time>2011-01-09T09:36:30Z</time>
      </trkpt>
      <trkpt lat="43.48593" lon="6.85542">
        <ele>123</ele>
        <time>2011-01-09T09:36:31Z</time>
      </trkpt>
      <trkpt lat="43.4853" lon="6.85543">
        <ele>116</ele>
        <time>2011-01-09T09:36:41Z</time>
      </trkpt>
      <trkpt lat="43.48474" lon="6.85569">
        <ele>110</ele>
        <time>2011-01-09T09:36:51Z</time>
      </trkpt>
      <trkpt lat="43.4847" lon="6.85573">
        <ele>110</ele>
        <time>2011-01-09T09:36:52Z</time>
      </trkpt>
      <trkpt lat="43.48465" lon="6.85576">
        <ele>109</ele>
        <time>2011-01-09T09:36:53Z</time>
      </trkpt>
      <trkpt lat="43.48432" lon="6.85584">
        <ele>106</ele>
        <time>2011-01-09T09:37:29Z</time>
      </trkpt>
      <trkpt lat="43.48431" lon="6.85585">
        <ele>106</ele>
        <time>2011-01-09T09:37:30Z</time>
      </trkpt>
      <trkpt lat="43.48428" lon="6.85589">
        <ele>106</ele>
        <time>2011-01-09T09:37:33Z</time>
      </trkpt>
      <trkpt lat="43.48427" lon="6.85591">
        <ele>106</ele>
        <time>2011-01-09T09:37:34Z</time>
      </trkpt>
      <trkpt lat="43.48427" lon="6.85594">
        <ele>106</ele>
        <time>2011-01-09T09:37:35Z</time>
      </trkpt>
      <trkpt lat="43.48426" lon="6.85596">
        <ele>106</ele>
        <time>2011-01-09T09:37:36Z</time>
      </trkpt>
      <trkpt lat="43.48421" lon="6.85599">
        <ele>106</ele>
        <time>2011-01-09T09:37:38Z</time>
      </trkpt>
      <trkpt lat="43.48416" lon="6.85601">
        <ele>106</ele>
        <time>2011-01-09T09:37:40Z</time>
      </trkpt>
      <trkpt lat="43.48406" lon="6.85605">
        <ele>106</ele>
        <time>2011-01-09T09:37:43Z</time>
      </trkpt>
      <trkpt lat="43.484" lon="6.85607">
        <ele>106</ele>
        <time>2011-01-09T09:37:45Z</time>
      </trkpt>
      <trkpt lat="43.48382" lon="6.85609">
        <ele>106</ele>
        <time>2011-01-09T09:37:50Z</time>
      </trkpt>
      <trkpt lat="43.48379" lon="6.8561">
        <ele>106</ele>
        <time>2011-01-09T09:37:51Z</time>
      </trkpt>
      <trkpt lat="43.48371" lon="6.85612">
        <ele>105</ele>
        <time>2011-01-09T09:37:53Z</time>
      </trkpt>
      <trkpt lat="43.48364" lon="6.85615">
        <ele>105</ele>
        <time>2011-01-09T09:37:55Z</time>
      </trkpt>
      <trkpt lat="43.48361" lon="6.85617">
        <ele>105</ele>
        <time>2011-01-09T09:37:56Z</time>
      </trkpt>
      <trkpt lat="43.48354" lon="6.85621">
        <ele>105</ele>
        <time>2011-01-09T09:37:58Z</time>
      </trkpt>
      <trkpt lat="43.48347" lon="6.85624">
        <ele>104</ele>
        <time>2011-01-09T09:38:00Z</time>
      </trkpt>
      <trkpt lat="43.4834" lon="6.85626">
        <ele>104</ele>
        <time>2011-01-09T09:38:02Z</time>
      </trkpt>
      <trkpt lat="43.48337" lon="6.85628">
        <ele>104</ele>
        <time>2011-01-09T09:38:03Z</time>
      </trkpt>
      <trkpt lat="43.48329" lon="6.8563">
        <ele>103</ele>
        <time>2011-01-09T09:38:05Z</time>
      </trkpt>
      <trkpt lat="43.48317" lon="6.85631">
        <ele>103</ele>
        <time>2011-01-09T09:38:08Z</time>
      </trkpt>
      <trkpt lat="43.48313" lon="6.85632">
        <ele>103</ele>
        <time>2011-01-09T09:38:09Z</time>
      </trkpt>
      <trkpt lat="43.48299" lon="6.85635">
        <ele>103</ele>
        <time>2011-01-09T09:38:13Z</time>
      </trkpt>
      <trkpt lat="43.48292" lon="6.85636">
        <ele>103</ele>
        <time>2011-01-09T09:38:15Z</time>
      </trkpt>
      <trkpt lat="43.48288" lon="6.85636">
        <ele>103</ele>
        <time>2011-01-09T09:38:16Z</time>
      </trkpt>
      <trkpt lat="43.48269" lon="6.85636">
        <ele>102</ele>
        <time>2011-01-09T09:38:21Z</time>
      </trkpt>
      <trkpt lat="43.48266" lon="6.85636">
        <ele>102</ele>
        <time>2011-01-09T09:38:22Z</time>
      </trkpt>
      <trkpt lat="43.48262" lon="6.85635">
        <ele>102</ele>
        <time>2011-01-09T09:38:23Z</time>
      </trkpt>
      <trkpt lat="43.48259" lon="6.85634">
        <ele>102</ele>
        <time>2011-01-09T09:38:24Z</time>
      </trkpt>
      <trkpt lat="43.48255" lon="6.85633">
        <ele>101</ele>
        <time>2011-01-09T09:38:25Z</time>
      </trkpt>
      <trkpt lat="43.48248" lon="6.85629">
        <ele>101</ele>
        <time>2011-01-09T09:38:27Z</time>
      </trkpt>
      <trkpt lat="43.4824" lon="6.85627">
        <ele>100</ele>
        <time>2011-01-09T09:38:29Z</time>
      </trkpt>
      <trkpt lat="43.48236" lon="6.85626">
        <ele>100</ele>
        <time>2011-01-09T09:38:30Z</time>
      </trkpt>
      <trkpt lat="43.48228" lon="6.85626">
        <ele>100</ele>
        <time>2011-01-09T09:38:32Z</time>
      </trkpt>
      <trkpt lat="43.48224" lon="6.85626">
        <ele>99</ele>
        <time>2011-01-09T09:38:33Z</time>
      </trkpt>
      <trkpt lat="43.4822" lon="6.85627">
        <ele>99</ele>
        <time>2011-01-09T09:38:34Z</time>
      </trkpt>
      <trkpt lat="43.48215" lon="6.85628">
        <ele>99</ele>
        <time>2011-01-09T09:38:35Z</time>
      </trkpt>
      <trkpt lat="43.48206" lon="6.8563">
        <ele>98</ele>
        <time>2011-01-09T09:38:37Z</time>
      </trkpt>
      <trkpt lat="43.48194" lon="6.85635">
        <ele>98</ele>
        <time>2011-01-09T09:38:40Z</time>
      </trkpt>
      <trkpt lat="43.48185" lon="6.85638">
        <ele>97</ele>
        <time>2011-01-09T09:38:42Z</time>
      </trkpt>
      <trkpt lat="43.48181" lon="6.8564">
        <ele>97</ele>
        <time>2011-01-09T09:38:43Z</time>
      </trkpt>
      <trkpt lat="43.48177" lon="6.85643">
        <ele>97</ele>
        <time>2011-01-09T09:38:44Z</time>
      </trkpt>
      <trkpt lat="43.48168" lon="6.85647">
        <ele>97</ele>
        <time>2011-01-09T09:38:46Z</time>
      </trkpt>
      <trkpt lat="43.48163" lon="6.85649">
        <ele>96</ele>
        <time>2011-01-09T09:38:47Z</time>
      </trkpt>
      <trkpt lat="43.4815" lon="6.85657">
        <ele>96</ele>
        <time>2011-01-09T09:38:50Z</time>
      </trkpt>
      <trkpt lat="43.48146" lon="6.85661">
        <ele>96</ele>
        <time>2011-01-09T09:38:51Z</time>
      </trkpt>
      <trkpt lat="43.48142" lon="6.85664">
        <ele>96</ele>
        <time>2011-01-09T09:38:52Z</time>
      </trkpt>
      <trkpt lat="43.48139" lon="6.85668">
        <ele>96</ele>
        <time>2011-01-09T09:38:53Z</time>
      </trkpt>
      <trkpt lat="43.48135" lon="6.85672">
        <ele>96</ele>
        <time>2011-01-09T09:38:54Z</time>
      </trkpt>
      <trkpt lat="43.48131" lon="6.85675">
        <ele>96</ele>
        <time>2011-01-09T09:38:55Z</time>
      </trkpt>
      <trkpt lat="43.48117" lon="6.85684">
        <ele>95</ele>
        <time>2011-01-09T09:38:58Z</time>
      </trkpt>
      <trkpt lat="43.48105" lon="6.85694">
        <ele>95</ele>
        <time>2011-01-09T09:39:01Z</time>
      </trkpt>
      <trkpt lat="43.48101" lon="6.85697">
        <ele>94</ele>
        <time>2011-01-09T09:39:02Z</time>
      </trkpt>
      <trkpt lat="43.48094" lon="6.85706">
        <ele>94</ele>
        <time>2011-01-09T09:39:04Z</time>
      </trkpt>
      <trkpt lat="43.48087" lon="6.85715">
        <ele>94</ele>
        <time>2011-01-09T09:39:06Z</time>
      </trkpt>
      <trkpt lat="43.48084" lon="6.8572">
        <ele>94</ele>
        <time>2011-01-09T09:39:07Z</time>
      </trkpt>
      <trkpt lat="43.4808" lon="6.85725">
        <ele>94</ele>
        <time>2011-01-09T09:39:08Z</time>
      </trkpt>
      <trkpt lat="43.48063" lon="6.85748">
        <ele>92</ele>
        <time>2011-01-09T09:39:13Z</time>
      </trkpt>
      <trkpt lat="43.4806" lon="6.85753">
        <ele>92</ele>
        <time>2011-01-09T09:39:14Z</time>
      </trkpt>
      <trkpt lat="43.48058" lon="6.85757">
        <ele>93</ele>
        <time>2011-01-09T09:39:15Z</time>
      </trkpt>
      <trkpt lat="43.48056" lon="6.85761">
        <ele>93</ele>
        <time>2011-01-09T09:39:16Z</time>
      </trkpt>
      <trkpt lat="43.4805" lon="6.85772">
        <ele>93</ele>
        <time>2011-01-09T09:39:19Z</time>
      </trkpt>
      <trkpt lat="43.48048" lon="6.85776">
        <ele>93</ele>
        <time>2011-01-09T09:39:20Z</time>
      </trkpt>
      <trkpt lat="43.48046" lon="6.85781">
        <ele>93</ele>
        <time>2011-01-09T09:39:21Z</time>
      </trkpt>
      <trkpt lat="43.48044" lon="6.85786">
        <ele>93</ele>
        <time>2011-01-09T09:39:22Z</time>
      </trkpt>
      <trkpt lat="43.48043" lon="6.85792">
        <ele>93</ele>
        <time>2011-01-09T09:39:23Z</time>
      </trkpt>
      <trkpt lat="43.48041" lon="6.85797">
        <ele>92</ele>
        <time>2011-01-09T09:39:24Z</time>
      </trkpt>
      <trkpt lat="43.48035" lon="6.85813">
        <ele>92</ele>
        <time>2011-01-09T09:39:27Z</time>
      </trkpt>
      <trkpt lat="43.4803" lon="6.85824">
        <ele>91</ele>
        <time>2011-01-09T09:39:29Z</time>
      </trkpt>
      <trkpt lat="43.48027" lon="6.85829">
        <ele>91</ele>
        <time>2011-01-09T09:39:30Z</time>
      </trkpt>
      <trkpt lat="43.48024" lon="6.85833">
        <ele>91</ele>
        <time>2011-01-09T09:39:31Z</time>
      </trkpt>
      <trkpt lat="43.48021" lon="6.85837">
        <ele>91</ele>
        <time>2011-01-09T09:39:32Z</time>
      </trkpt>
      <trkpt lat="43.48019" lon="6.85842">
        <ele>91</ele>
        <time>2011-01-09T09:39:33Z</time>
      </trkpt>
      <trkpt lat="43.48017" lon="6.85847">
        <ele>91</ele>
        <time>2011-01-09T09:39:34Z</time>
      </trkpt>
      <trkpt lat="43.48016" lon="6.85852">
        <ele>91</ele>
        <time>2011-01-09T09:39:35Z</time>
      </trkpt>
      <trkpt lat="43.48014" lon="6.85857">
        <ele>90</ele>
        <time>2011-01-09T09:39:36Z</time>
      </trkpt>
      <trkpt lat="43.48009" lon="6.85866">
        <ele>90</ele>
        <time>2011-01-09T09:39:38Z</time>
      </trkpt>
      <trkpt lat="43.48007" lon="6.85876">
        <ele>90</ele>
        <time>2011-01-09T09:39:40Z</time>
      </trkpt>
      <trkpt lat="43.48005" lon="6.85882">
        <ele>90</ele>
        <time>2011-01-09T09:39:41Z</time>
      </trkpt>
      <trkpt lat="43.48004" lon="6.85887">
        <ele>90</ele>
        <time>2011-01-09T09:39:42Z</time>
      </trkpt>
      <trkpt lat="43.48003" lon="6.85898">
        <ele>90</ele>
        <time>2011-01-09T09:39:44Z</time>
      </trkpt>
      <trkpt lat="43.48002" lon="6.85904">
        <ele>91</ele>
        <time>2011-01-09T09:39:45Z</time>
      </trkpt>
      <trkpt lat="43.48002" lon="6.85914">
        <ele>90</ele>
        <time>2011-01-09T09:39:47Z</time>
      </trkpt>
      <trkpt lat="43.48002" lon="6.85919">
        <ele>91</ele>
        <time>2011-01-09T09:39:48Z</time>
      </trkpt>
      <trkpt lat="43.48002" lon="6.85935">
        <ele>91</ele>
        <time>2011-01-09T09:39:51Z</time>
      </trkpt>
      <trkpt lat="43.48002" lon="6.85941">
        <ele>90</ele>
        <time>2011-01-09T09:39:52Z</time>
      </trkpt>
      <trkpt lat="43.48002" lon="6.85946">
        <ele>90</ele>
        <time>2011-01-09T09:39:53Z</time>
      </trkpt>
      <trkpt lat="43.48002" lon="6.85952">
        <ele>90</ele>
        <time>2011-01-09T09:39:54Z</time>
      </trkpt>
      <trkpt lat="43.48004" lon="6.85963">
        <ele>90</ele>
        <time>2011-01-09T09:39:56Z</time>
      </trkpt>
      <trkpt lat="43.48006" lon="6.85975">
        <ele>90</ele>
        <time>2011-01-09T09:39:58Z</time>
      </trkpt>
      <trkpt lat="43.48007" lon="6.85981">
        <ele>90</ele>
        <time>2011-01-09T09:39:59Z</time>
      </trkpt>
      <trkpt lat="43.48009" lon="6.85987">
        <ele>90</ele>
        <time>2011-01-09T09:40:00Z</time>
      </trkpt>
      <trkpt lat="43.48013" lon="6.86007">
        <ele>89</ele>
        <time>2011-01-09T09:40:03Z</time>
      </trkpt>
      <trkpt lat="43.48014" lon="6.86015">
        <ele>89</ele>
        <time>2011-01-09T09:40:04Z</time>
      </trkpt>
      <trkpt lat="43.48009" lon="6.8609">
        <ele>88</ele>
        <time>2011-01-09T09:40:14Z</time>
      </trkpt>
      <trkpt lat="43.47982" lon="6.86156">
        <ele>86</ele>
        <time>2011-01-09T09:40:24Z</time>
      </trkpt>
      <trkpt lat="43.47929" lon="6.86179">
        <ele>84</ele>
        <time>2011-01-09T09:40:34Z</time>
      </trkpt>
      <trkpt lat="43.47891" lon="6.86233">
        <ele>82</ele>
        <time>2011-01-09T09:40:44Z</time>
      </trkpt>
      <trkpt lat="43.47888" lon="6.86238">
        <ele>82</ele>
        <time>2011-01-09T09:40:45Z</time>
      </trkpt>
      <trkpt lat="43.47885" lon="6.86242">
        <ele>82</ele>
        <time>2011-01-09T09:40:46Z</time>
      </trkpt>
      <trkpt lat="43.4788" lon="6.86245">
        <ele>82</ele>
        <time>2011-01-09T09:40:47Z</time>
      </trkpt>
      <trkpt lat="43.47876" lon="6.86247">
        <ele>82</ele>
        <time>2011-01-09T09:40:48Z</time>
      </trkpt>
      <trkpt lat="43.47867" lon="6.8625">
        <ele>82</ele>
        <time>2011-01-09T09:40:50Z</time>
      </trkpt>
      <trkpt lat="43.47862" lon="6.86253">
        <ele>82</ele>
        <time>2011-01-09T09:40:51Z</time>
      </trkpt>
      <trkpt lat="43.47858" lon="6.86256">
        <ele>82</ele>
        <time>2011-01-09T09:40:52Z</time>
      </trkpt>
      <trkpt lat="43.47854" lon="6.8626">
        <ele>82</ele>
        <time>2011-01-09T09:40:53Z</time>
      </trkpt>
      <trkpt lat="43.4785" lon="6.86265">
        <ele>82</ele>
        <time>2011-01-09T09:40:54Z</time>
      </trkpt>
      <trkpt lat="43.47846" lon="6.8627">
        <ele>82</ele>
        <time>2011-01-09T09:40:55Z</time>
      </trkpt>
      <trkpt lat="43.47843" lon="6.86275">
        <ele>82</ele>
        <time>2011-01-09T09:40:56Z</time>
      </trkpt>
      <trkpt lat="43.47806" lon="6.86307">
        <ele>81</ele>
        <time>2011-01-09T09:41:06Z</time>
      </trkpt>
      <trkpt lat="43.478" lon="6.86312">
        <ele>80</ele>
        <time>2011-01-09T09:41:08Z</time>
      </trkpt>
      <trkpt lat="43.47796" lon="6.86314">
        <ele>80</ele>
        <time>2011-01-09T09:41:09Z</time>
      </trkpt>
      <trkpt lat="43.47792" lon="6.86316">
        <ele>80</ele>
        <time>2011-01-09T09:41:10Z</time>
      </trkpt>
      <trkpt lat="43.47783" lon="6.8632">
        <ele>80</ele>
        <time>2011-01-09T09:41:12Z</time>
      </trkpt>
      <trkpt lat="43.47775" lon="6.86325">
        <ele>80</ele>
        <time>2011-01-09T09:41:14Z</time>
      </trkpt>
      <trkpt lat="43.47761" lon="6.86333">
        <ele>80</ele>
        <time>2011-01-09T09:41:17Z</time>
      </trkpt>
      <trkpt lat="43.47752" lon="6.86337">
        <ele>80</ele>
        <time>2011-01-09T09:41:19Z</time>
      </trkpt>
      <trkpt lat="43.47747" lon="6.8634">
        <ele>80</ele>
        <time>2011-01-09T09:41:20Z</time>
      </trkpt>
      <trkpt lat="43.47742" lon="6.86343">
        <ele>80</ele>
        <time>2011-01-09T09:41:21Z</time>
      </trkpt>
      <trkpt lat="43.47688" lon="6.86365">
        <ele>79</ele>
        <time>2011-01-09T09:41:31Z</time>
      </trkpt>
      <trkpt lat="43.47636" lon="6.86392">
        <ele>78</ele>
        <time>2011-01-09T09:41:41Z</time>
      </trkpt>
      <trkpt lat="43.47576" lon="6.86393">
        <ele>76</ele>
        <time>2011-01-09T09:41:51Z</time>
      </trkpt>
      <trkpt lat="43.47518" lon="6.86372">
        <ele>73</ele>
        <time>2011-01-09T09:42:01Z</time>
      </trkpt>
      <trkpt lat="43.47473" lon="6.86333">
        <ele>73</ele>
        <time>2011-01-09T09:42:11Z</time>
      </trkpt>
      <trkpt lat="43.47469" lon="6.86329">
        <ele>73</ele>
        <time>2011-01-09T09:42:12Z</time>
      </trkpt>
      <trkpt lat="43.47465" lon="6.86325">
        <ele>73</ele>
        <time>2011-01-09T09:42:13Z</time>
      </trkpt>
      <trkpt lat="43.47462" lon="6.8632">
        <ele>73</ele>
        <time>2011-01-09T09:42:14Z</time>
      </trkpt>
      <trkpt lat="43.47459" lon="6.86315">
        <ele>73</ele>
        <time>2011-01-09T09:42:15Z</time>
      </trkpt>
      <trkpt lat="43.47457" lon="6.86309">
        <ele>72</ele>
        <time>2011-01-09T09:42:16Z</time>
      </trkpt>
      <trkpt lat="43.47454" lon="6.86303">
        <ele>72</ele>
        <time>2011-01-09T09:42:17Z</time>
      </trkpt>
      <trkpt lat="43.47448" lon="6.86285">
        <ele>72</ele>
        <time>2011-01-09T09:42:20Z</time>
      </trkpt>
      <trkpt lat="43.47445" lon="6.86273">
        <ele>72</ele>
        <time>2011-01-09T09:42:22Z</time>
      </trkpt>
      <trkpt lat="43.47445" lon="6.86266">
        <ele>72</ele>
        <time>2011-01-09T09:42:23Z</time>
      </trkpt>
      <trkpt lat="43.47445" lon="6.86259">
        <ele>72</ele>
        <time>2011-01-09T09:42:24Z</time>
      </trkpt>
      <trkpt lat="43.47447" lon="6.86246">
        <ele>72</ele>
        <time>2011-01-09T09:42:26Z</time>
      </trkpt>
      <trkpt lat="43.47451" lon="6.86225">
        <ele>72</ele>
        <time>2011-01-09T09:42:29Z</time>
      </trkpt>
      <trkpt lat="43.47453" lon="6.86211">
        <ele>72</ele>
        <time>2011-01-09T09:42:31Z</time>
      </trkpt>
      <trkpt lat="43.47454" lon="6.86204">
        <ele>71</ele>
        <time>2011-01-09T09:42:32Z</time>
      </trkpt>
      <trkpt lat="43.47454" lon="6.86197">
        <ele>71</ele>
        <time>2011-01-09T09:42:33Z</time>
      </trkpt>
      <trkpt lat="43.47456" lon="6.86183">
        <ele>71</ele>
        <time>2011-01-09T09:42:35Z</time>
      </trkpt>
      <trkpt lat="43.47463" lon="6.86109">
        <ele>69</ele>
        <time>2011-01-09T09:42:45Z</time>
      </trkpt>
      <trkpt lat="43.47451" lon="6.86044">
        <ele>68</ele>
        <time>2011-01-09T09:42:55Z</time>
      </trkpt>
      <trkpt lat="43.47448" lon="6.86038">
        <ele>68</ele>
        <time>2011-01-09T09:42:56Z</time>
      </trkpt>
      <trkpt lat="43.47444" lon="6.86033">
        <ele>68</ele>
        <time>2011-01-09T09:42:57Z</time>
      </trkpt>
      <trkpt lat="43.47436" lon="6.86025">
        <ele>68</ele>
        <time>2011-01-09T09:42:59Z</time>
      </trkpt>
      <trkpt lat="43.47433" lon="6.86022">
        <ele>68</ele>
        <time>2011-01-09T09:43:00Z</time>
      </trkpt>
      <trkpt lat="43.47428" lon="6.86018">
        <ele>68</ele>
        <time>2011-01-09T09:43:01Z</time>
      </trkpt>
      <trkpt lat="43.47423" lon="6.86014">
        <ele>67</ele>
        <time>2011-01-09T09:43:02Z</time>
      </trkpt>
      <trkpt lat="43.47419" lon="6.8601">
        <ele>67</ele>
        <time>2011-01-09T09:43:03Z</time>
      </trkpt>
      <trkpt lat="43.47414" lon="6.86006">
        <ele>67</ele>
        <time>2011-01-09T09:43:04Z</time>
      </trkpt>
      <trkpt lat="43.4741" lon="6.86002">
        <ele>67</ele>
        <time>2011-01-09T09:43:05Z</time>
      </trkpt>
      <trkpt lat="43.47407" lon="6.85996">
        <ele>67</ele>
        <time>2011-01-09T09:43:06Z</time>
      </trkpt>
      <trkpt lat="43.47405" lon="6.8599">
        <ele>67</ele>
        <time>2011-01-09T09:43:07Z</time>
      </trkpt>
      <trkpt lat="43.47405" lon="6.85983">
        <ele>67</ele>
        <time>2011-01-09T09:43:08Z</time>
      </trkpt>
      <trkpt lat="43.47406" lon="6.85976">
        <ele>67</ele>
        <time>2011-01-09T09:43:09Z</time>
      </trkpt>
      <trkpt lat="43.47408" lon="6.8597">
        <ele>67</ele>
        <time>2011-01-09T09:43:10Z</time>
      </trkpt>
      <trkpt lat="43.47411" lon="6.85964">
        <ele>67</ele>
        <time>2011-01-09T09:43:11Z</time>
      </trkpt>
      <trkpt lat="43.47415" lon="6.85959">
        <ele>67</ele>
        <time>2011-01-09T09:43:12Z</time>
      </trkpt>
      <trkpt lat="43.47419" lon="6.85954">
        <ele>67</ele>
        <time>2011-01-09T09:43:13Z</time>
      </trkpt>
      <trkpt lat="43.47423" lon="6.8595">
        <ele>67</ele>
        <time>2011-01-09T09:43:14Z</time>
      </trkpt>
      <trkpt lat="43.47454" lon="6.85885">
        <ele>65</ele>
        <time>2011-01-09T09:43:24Z</time>
      </trkpt>
      <trkpt lat="43.47452" lon="6.85797">
        <ele>63</ele>
        <time>2011-01-09T09:43:34Z</time>
      </trkpt>
      <trkpt lat="43.47408" lon="6.85761">
        <ele>61</ele>
        <time>2011-01-09T09:43:44Z</time>
      </trkpt>
      <trkpt lat="43.47357" lon="6.85789">
        <ele>61</ele>
        <time>2011-01-09T09:43:54Z</time>
      </trkpt>
      <trkpt lat="43.47323" lon="6.85734">
        <ele>60</ele>
        <time>2011-01-09T09:44:04Z</time>
      </trkpt>
      <trkpt lat="43.47284" lon="6.85678">
        <ele>60</ele>
        <time>2011-01-09T09:44:14Z</time>
      </trkpt>
      <trkpt lat="43.47238" lon="6.85682">
        <ele>58</ele>
        <time>2011-01-09T09:44:24Z</time>
      </trkpt>
      <trkpt lat="43.47234" lon="6.85683">
        <ele>58</ele>
        <time>2011-01-09T09:44:25Z</time>
      </trkpt>
      <trkpt lat="43.47229" lon="6.85684">
        <ele>58</ele>
        <time>2011-01-09T09:44:26Z</time>
      </trkpt>
      <trkpt lat="43.47223" lon="6.85684">
        <ele>58</ele>
        <time>2011-01-09T09:44:27Z</time>
      </trkpt>
      <trkpt lat="43.4717" lon="6.85694">
        <ele>56</ele>
        <time>2011-01-09T09:44:37Z</time>
      </trkpt>
      <trkpt lat="43.47114" lon="6.85686">
        <ele>54</ele>
        <time>2011-01-09T09:44:47Z</time>
      </trkpt>
      <trkpt lat="43.47062" lon="6.85641">
        <ele>51</ele>
        <time>2011-01-09T09:44:57Z</time>
      </trkpt>
      <trkpt lat="43.47016" lon="6.85604">
        <ele>52</ele>
        <time>2011-01-09T09:45:07Z</time>
      </trkpt>
      <trkpt lat="43.47009" lon="6.85601">
        <ele>52</ele>
        <time>2011-01-09T09:45:09Z</time>
      </trkpt>
      <trkpt lat="43.47002" lon="6.85597">
        <ele>52</ele>
        <time>2011-01-09T09:45:11Z</time>
      </trkpt>
      <trkpt lat="43.46995" lon="6.85594">
        <ele>52</ele>
        <time>2011-01-09T09:45:13Z</time>
      </trkpt>
      <trkpt lat="43.46988" lon="6.85591">
        <ele>53</ele>
        <time>2011-01-09T09:45:15Z</time>
      </trkpt>
      <trkpt lat="43.46982" lon="6.85588">
        <ele>53</ele>
        <time>2011-01-09T09:45:17Z</time>
      </trkpt>
      <trkpt lat="43.46976" lon="6.85586">
        <ele>53</ele>
        <time>2011-01-09T09:45:19Z</time>
      </trkpt>
      <trkpt lat="43.46974" lon="6.85585">
        <ele>53</ele>
        <time>2011-01-09T09:45:20Z</time>
      </trkpt>
      <trkpt lat="43.46971" lon="6.85584">
        <ele>54</ele>
        <time>2011-01-09T09:45:21Z</time>
      </trkpt>
      <trkpt lat="43.46965" lon="6.85585">
        <ele>54</ele>
        <time>2011-01-09T09:45:23Z</time>
      </trkpt>
      <trkpt lat="43.46957" lon="6.85585">
        <ele>54</ele>
        <time>2011-01-09T09:45:25Z</time>
      </trkpt>
      <trkpt lat="43.46953" lon="6.85585">
        <ele>54</ele>
        <time>2011-01-09T09:45:26Z</time>
      </trkpt>
      <trkpt lat="43.46942" lon="6.85582">
        <ele>54</ele>
        <time>2011-01-09T09:45:29Z</time>
      </trkpt>
      <trkpt lat="43.46934" lon="6.85579">
        <ele>54</ele>
        <time>2011-01-09T09:45:31Z</time>
      </trkpt>
      <trkpt lat="43.46931" lon="6.85578">
        <ele>54</ele>
        <time>2011-01-09T09:45:32Z</time>
      </trkpt>
      <trkpt lat="43.46927" lon="6.85576">
        <ele>54</ele>
        <time>2011-01-09T09:45:33Z</time>
      </trkpt>
      <trkpt lat="43.46917" lon="6.85568">
        <ele>55</ele>
        <time>2011-01-09T09:45:36Z</time>
      </trkpt>
      <trkpt lat="43.46914" lon="6.85566">
        <ele>55</ele>
        <time>2011-01-09T09:45:37Z</time>
      </trkpt>
      <trkpt lat="43.46907" lon="6.85562">
        <ele>55</ele>
        <time>2011-01-09T09:45:39Z</time>
      </trkpt>
      <trkpt lat="43.46899" lon="6.85559">
        <ele>56</ele>
        <time>2011-01-09T09:45:41Z</time>
      </trkpt>
      <trkpt lat="43.46888" lon="6.85555">
        <ele>56</ele>
        <time>2011-01-09T09:45:44Z</time>
      </trkpt>
      <trkpt lat="43.46872" lon="6.85552">
        <ele>57</ele>
        <time>2011-01-09T09:45:48Z</time>
      </trkpt>
      <trkpt lat="43.46852" lon="6.85546">
        <ele>57</ele>
        <time>2011-01-09T09:45:53Z</time>
      </trkpt>
      <trkpt lat="43.46836" lon="6.8554">
        <ele>58</ele>
        <time>2011-01-09T09:45:57Z</time>
      </trkpt>
      <trkpt lat="43.46832" lon="6.85538">
        <ele>58</ele>
        <time>2011-01-09T09:45:58Z</time>
      </trkpt>
      <trkpt lat="43.46825" lon="6.85535">
        <ele>58</ele>
        <time>2011-01-09T09:46:00Z</time>
      </trkpt>
      <trkpt lat="43.46814" lon="6.85528">
        <ele>59</ele>
        <time>2011-01-09T09:46:03Z</time>
      </trkpt>
      <trkpt lat="43.46807" lon="6.85522">
        <ele>59</ele>
        <time>2011-01-09T09:46:05Z</time>
      </trkpt>
      <trkpt lat="43.468" lon="6.85515">
        <ele>59</ele>
        <time>2011-01-09T09:46:07Z</time>
      </trkpt>
      <trkpt lat="43.46797" lon="6.85512">
        <ele>59</ele>
        <time>2011-01-09T09:46:08Z</time>
      </trkpt>
      <trkpt lat="43.46794" lon="6.85508">
        <ele>59</ele>
        <time>2011-01-09T09:46:09Z</time>
      </trkpt>
      <trkpt lat="43.46791" lon="6.85504">
        <ele>60</ele>
        <time>2011-01-09T09:46:10Z</time>
      </trkpt>
      <trkpt lat="43.46788" lon="6.855">
        <ele>60</ele>
        <time>2011-01-09T09:46:11Z</time>
      </trkpt>
      <trkpt lat="43.46783" lon="6.85492">
        <ele>60</ele>
        <time>2011-01-09T09:46:13Z</time>
      </trkpt>
      <trkpt lat="43.46781" lon="6.85487">
        <ele>61</ele>
        <time>2011-01-09T09:46:14Z</time>
      </trkpt>
      <trkpt lat="43.4678" lon="6.85482">
        <ele>61</ele>
        <time>2011-01-09T09:46:15Z</time>
      </trkpt>
      <trkpt lat="43.46777" lon="6.85478">
        <ele>61</ele>
        <time>2011-01-09T09:46:16Z</time>
      </trkpt>
      <trkpt lat="43.46774" lon="6.85468">
        <ele>61</ele>
        <time>2011-01-09T09:46:18Z</time>
      </trkpt>
      <trkpt lat="43.46773" lon="6.85463">
        <ele>61</ele>
        <time>2011-01-09T09:46:19Z</time>
      </trkpt>
      <trkpt lat="43.46771" lon="6.85458">
        <ele>62</ele>
        <time>2011-01-09T09:46:20Z</time>
      </trkpt>
      <trkpt lat="43.4677" lon="6.85453">
        <ele>62</ele>
        <time>2011-01-09T09:46:21Z</time>
      </trkpt>
      <trkpt lat="43.46769" lon="6.85447">
        <ele>62</ele>
        <time>2011-01-09T09:46:22Z</time>
      </trkpt>
      <trkpt lat="43.46769" lon="6.85442">
        <ele>62</ele>
        <time>2011-01-09T09:46:23Z</time>
      </trkpt>
      <trkpt lat="43.46768" lon="6.85436">
        <ele>62</ele>
        <time>2011-01-09T09:46:24Z</time>
      </trkpt>
      <trkpt lat="43.46768" lon="6.8543">
        <ele>62</ele>
        <time>2011-01-09T09:46:25Z</time>
      </trkpt>
      <trkpt lat="43.46767" lon="6.85419">
        <ele>63</ele>
        <time>2011-01-09T09:46:27Z</time>
      </trkpt>
      <trkpt lat="43.46767" lon="6.85396">
        <ele>64</ele>
        <time>2011-01-09T09:46:31Z</time>
      </trkpt>
      <trkpt lat="43.46768" lon="6.85385">
        <ele>64</ele>
        <time>2011-01-09T09:46:33Z</time>
      </trkpt>
      <trkpt lat="43.46768" lon="6.85379">
        <ele>64</ele>
        <time>2011-01-09T09:46:34Z</time>
      </trkpt>
      <trkpt lat="43.46767" lon="6.85369">
        <ele>64</ele>
        <time>2011-01-09T09:46:36Z</time>
      </trkpt>
      <trkpt lat="43.46765" lon="6.85358">
        <ele>65</ele>
        <time>2011-01-09T09:46:38Z</time>
      </trkpt>
      <trkpt lat="43.46762" lon="6.85342">
        <ele>65</ele>
        <time>2011-01-09T09:46:41Z</time>
      </trkpt>
      <trkpt lat="43.4676" lon="6.85332">
        <ele>65</ele>
        <time>2011-01-09T09:46:43Z</time>
      </trkpt>
      <trkpt lat="43.46759" lon="6.85327">
        <ele>66</ele>
        <time>2011-01-09T09:46:44Z</time>
      </trkpt>
      <trkpt lat="43.46758" lon="6.85321">
        <ele>66</ele>
        <time>2011-01-09T09:46:45Z</time>
      </trkpt>
      <trkpt lat="43.46758" lon="6.85316">
        <ele>66</ele>
        <time>2011-01-09T09:46:46Z</time>
      </trkpt>
      <trkpt lat="43.46757" lon="6.85294">
        <ele>67</ele>
        <time>2011-01-09T09:46:50Z</time>
      </trkpt>
      <trkpt lat="43.46757" lon="6.85289">
        <ele>67</ele>
        <time>2011-01-09T09:46:51Z</time>
      </trkpt>
      <trkpt lat="43.46757" lon="6.85284">
        <ele>67</ele>
        <time>2011-01-09T09:46:52Z</time>
      </trkpt>
      <trkpt lat="43.46757" lon="6.85278">
        <ele>67</ele>
        <time>2011-01-09T09:46:53Z</time>
      </trkpt>
      <trkpt lat="43.46756" lon="6.85267">
        <ele>68</ele>
        <time>2011-01-09T09:46:55Z</time>
      </trkpt>
      <trkpt lat="43.46755" lon="6.85262">
        <ele>68</ele>
        <time>2011-01-09T09:46:56Z</time>
      </trkpt>
      <trkpt lat="43.46754" lon="6.85251">
        <ele>68</ele>
        <time>2011-01-09T09:46:58Z</time>
      </trkpt>
      <trkpt lat="43.46752" lon="6.8524">
        <ele>68</ele>
        <time>2011-01-09T09:47:00Z</time>
      </trkpt>
      <trkpt lat="43.46749" lon="6.8523">
        <ele>69</ele>
        <time>2011-01-09T09:47:02Z</time>
      </trkpt>
      <trkpt lat="43.46748" lon="6.85225">
        <ele>69</ele>
        <time>2011-01-09T09:47:03Z</time>
      </trkpt>
      <trkpt lat="43.46745" lon="6.85209">
        <ele>69</ele>
        <time>2011-01-09T09:47:06Z</time>
      </trkpt>
      <trkpt lat="43.46745" lon="6.85204">
        <ele>69</ele>
        <time>2011-01-09T09:47:07Z</time>
      </trkpt>
      <trkpt lat="43.46743" lon="6.85193">
        <ele>69</ele>
        <time>2011-01-09T09:47:09Z</time>
      </trkpt>
      <trkpt lat="43.46741" lon="6.85178">
        <ele>70</ele>
        <time>2011-01-09T09:47:12Z</time>
      </trkpt>
      <trkpt lat="43.4674" lon="6.85168">
        <ele>71</ele>
        <time>2011-01-09T09:47:14Z</time>
      </trkpt>
      <trkpt lat="43.4674" lon="6.85163">
        <ele>71</ele>
        <time>2011-01-09T09:47:15Z</time>
      </trkpt>
      <trkpt lat="43.4674" lon="6.85157">
        <ele>71</ele>
        <time>2011-01-09T09:47:16Z</time>
      </trkpt>
      <trkpt lat="43.4674" lon="6.85152">
        <ele>71</ele>
        <time>2011-01-09T09:47:17Z</time>
      </trkpt>
      <trkpt lat="43.4674" lon="6.85147">
        <ele>72</ele>
        <time>2011-01-09T09:47:18Z</time>
      </trkpt>
      <trkpt lat="43.46741" lon="6.85142">
        <ele>72</ele>
        <time>2011-01-09T09:47:19Z</time>
      </trkpt>
      <trkpt lat="43.46742" lon="6.85137">
        <ele>72</ele>
        <time>2011-01-09T09:47:20Z</time>
      </trkpt>
      <trkpt lat="43.46743" lon="6.85132">
        <ele>73</ele>
        <time>2011-01-09T09:47:21Z</time>
      </trkpt>
      <trkpt lat="43.46747" lon="6.85123">
        <ele>73</ele>
        <time>2011-01-09T09:47:23Z</time>
      </trkpt>
      <trkpt lat="43.46753" lon="6.8511">
        <ele>74</ele>
        <time>2011-01-09T09:47:26Z</time>
      </trkpt>
      <trkpt lat="43.46757" lon="6.85101">
        <ele>74</ele>
        <time>2011-01-09T09:47:28Z</time>
      </trkpt>
      <trkpt lat="43.46761" lon="6.85092">
        <ele>75</ele>
        <time>2011-01-09T09:47:30Z</time>
      </trkpt>
      <trkpt lat="43.46763" lon="6.85088">
        <ele>75</ele>
        <time>2011-01-09T09:47:31Z</time>
      </trkpt>
      <trkpt lat="43.46765" lon="6.85083">
        <ele>75</ele>
        <time>2011-01-09T09:47:32Z</time>
      </trkpt>
      <trkpt lat="43.46768" lon="6.85074">
        <ele>76</ele>
        <time>2011-01-09T09:47:34Z</time>
      </trkpt>
      <trkpt lat="43.46771" lon="6.85065">
        <ele>76</ele>
        <time>2011-01-09T09:47:36Z</time>
      </trkpt>
      <trkpt lat="43.46773" lon="6.85061">
        <ele>76</ele>
        <time>2011-01-09T09:47:37Z</time>
      </trkpt>
      <trkpt lat="43.46776" lon="6.85052">
        <ele>77</ele>
        <time>2011-01-09T09:47:39Z</time>
      </trkpt>
      <trkpt lat="43.46778" lon="6.85047">
        <ele>77</ele>
        <time>2011-01-09T09:47:40Z</time>
      </trkpt>
      <trkpt lat="43.4678" lon="6.85042">
        <ele>77</ele>
        <time>2011-01-09T09:47:41Z</time>
      </trkpt>
      <trkpt lat="43.4678" lon="6.85038">
        <ele>77</ele>
        <time>2011-01-09T09:47:42Z</time>
      </trkpt>
      <trkpt lat="43.46779" lon="6.85032">
        <ele>77</ele>
        <time>2011-01-09T09:47:43Z</time>
      </trkpt>
      <trkpt lat="43.46777" lon="6.85026">
        <ele>77</ele>
        <time>2011-01-09T09:47:44Z</time>
      </trkpt>
      <trkpt lat="43.46773" lon="6.85016">
        <ele>77</ele>
        <time>2011-01-09T09:47:46Z</time>
      </trkpt>
      <trkpt lat="43.46769" lon="6.85005">
        <ele>77</ele>
        <time>2011-01-09T09:47:48Z</time>
      </trkpt>
      <trkpt lat="43.46766" lon="6.84994">
        <ele>78</ele>
        <time>2011-01-09T09:47:50Z</time>
      </trkpt>
      <trkpt lat="43.46765" lon="6.84989">
        <ele>78</ele>
        <time>2011-01-09T09:47:51Z</time>
      </trkpt>
      <trkpt lat="43.46764" lon="6.84983">
        <ele>78</ele>
        <time>2011-01-09T09:47:52Z</time>
      </trkpt>
      <trkpt lat="43.46764" lon="6.84977">
        <ele>78</ele>
        <time>2011-01-09T09:47:53Z</time>
      </trkpt>
      <trkpt lat="43.46764" lon="6.84965">
        <ele>78</ele>
        <time>2011-01-09T09:47:55Z</time>
      </trkpt>
      <trkpt lat="43.46765" lon="6.84959">
        <ele>78</ele>
        <time>2011-01-09T09:47:56Z</time>
      </trkpt>
      <trkpt lat="43.46765" lon="6.84954">
        <ele>78</ele>
        <time>2011-01-09T09:47:57Z</time>
      </trkpt>
      <trkpt lat="43.46765" lon="6.84948">
        <ele>78</ele>
        <time>2011-01-09T09:47:58Z</time>
      </trkpt>
      <trkpt lat="43.46765" lon="6.84942">
        <ele>78</ele>
        <time>2011-01-09T09:47:59Z</time>
      </trkpt>
      <trkpt lat="43.46764" lon="6.84937">
        <ele>79</ele>
        <time>2011-01-09T09:48:00Z</time>
      </trkpt>
      <trkpt lat="43.46762" lon="6.84931">
        <ele>79</ele>
        <time>2011-01-09T09:48:01Z</time>
      </trkpt>
      <trkpt lat="43.4676" lon="6.84926">
        <ele>79</ele>
        <time>2011-01-09T09:48:02Z</time>
      </trkpt>
      <trkpt lat="43.46756" lon="6.84923">
        <ele>79</ele>
        <time>2011-01-09T09:48:03Z</time>
      </trkpt>
      <trkpt lat="43.46752" lon="6.84919">
        <ele>79</ele>
        <time>2011-01-09T09:48:04Z</time>
      </trkpt>
      <trkpt lat="43.46748" lon="6.84916">
        <ele>79</ele>
        <time>2011-01-09T09:48:05Z</time>
      </trkpt>
      <trkpt lat="43.4674" lon="6.84911">
        <ele>79</ele>
        <time>2011-01-09T09:48:07Z</time>
      </trkpt>
      <trkpt lat="43.46736" lon="6.84908">
        <ele>79</ele>
        <time>2011-01-09T09:48:08Z</time>
      </trkpt>
      <trkpt lat="43.46728" lon="6.84901">
        <ele>79</ele>
        <time>2011-01-09T09:48:10Z</time>
      </trkpt>
      <trkpt lat="43.46724" lon="6.84898">
        <ele>80</ele>
        <time>2011-01-09T09:48:11Z</time>
      </trkpt>
      <trkpt lat="43.46717" lon="6.84889">
        <ele>80</ele>
        <time>2011-01-09T09:48:13Z</time>
      </trkpt>
      <trkpt lat="43.46704" lon="6.84873">
        <ele>80</ele>
        <time>2011-01-09T09:48:17Z</time>
      </trkpt>
      <trkpt lat="43.46698" lon="6.84864">
        <ele>80</ele>
        <time>2011-01-09T09:48:19Z</time>
      </trkpt>
      <trkpt lat="43.46694" lon="6.8486">
        <ele>80</ele>
        <time>2011-01-09T09:48:20Z</time>
      </trkpt>
      <trkpt lat="43.46685" lon="6.84848">
        <ele>81</ele>
        <time>2011-01-09T09:48:23Z</time>
      </trkpt>
      <trkpt lat="43.46679" lon="6.8484">
        <ele>81</ele>
        <time>2011-01-09T09:48:25Z</time>
      </trkpt>
      <trkpt lat="43.46676" lon="6.84835">
        <ele>81</ele>
        <time>2011-01-09T09:48:26Z</time>
      </trkpt>
      <trkpt lat="43.46674" lon="6.8483">
        <ele>81</ele>
        <time>2011-01-09T09:48:27Z</time>
      </trkpt>
      <trkpt lat="43.46672" lon="6.84825">
        <ele>81</ele>
        <time>2011-01-09T09:48:28Z</time>
      </trkpt>
      <trkpt lat="43.46671" lon="6.84819">
        <ele>81</ele>
        <time>2011-01-09T09:48:29Z</time>
      </trkpt>
      <trkpt lat="43.4667" lon="6.84813">
        <ele>81</ele>
        <time>2011-01-09T09:48:30Z</time>
      </trkpt>
      <trkpt lat="43.46671" lon="6.84807">
        <ele>82</ele>
        <time>2011-01-09T09:48:31Z</time>
      </trkpt>
      <trkpt lat="43.46672" lon="6.84802">
        <ele>82</ele>
        <time>2011-01-09T09:48:32Z</time>
      </trkpt>
      <trkpt lat="43.46674" lon="6.84796">
        <ele>82</ele>
        <time>2011-01-09T09:48:33Z</time>
      </trkpt>
      <trkpt lat="43.46676" lon="6.84791">
        <ele>82</ele>
        <time>2011-01-09T09:48:34Z</time>
      </trkpt>
      <trkpt lat="43.46678" lon="6.84787">
        <ele>82</ele>
        <time>2011-01-09T09:48:35Z</time>
      </trkpt>
      <trkpt lat="43.46681" lon="6.84783">
        <ele>82</ele>
        <time>2011-01-09T09:48:36Z</time>
      </trkpt>
      <trkpt lat="43.46685" lon="6.84779">
        <ele>82</ele>
        <time>2011-01-09T09:48:37Z</time>
      </trkpt>
      <trkpt lat="43.46688" lon="6.84776">
        <ele>82</ele>
        <time>2011-01-09T09:48:38Z</time>
      </trkpt>
      <trkpt lat="43.46692" lon="6.84773">
        <ele>82</ele>
        <time>2011-01-09T09:48:39Z</time>
      </trkpt>
      <trkpt lat="43.46695" lon="6.8477">
        <ele>82</ele>
        <time>2011-01-09T09:48:40Z</time>
      </trkpt>
      <trkpt lat="43.46699" lon="6.84767">
        <ele>83</ele>
        <time>2011-01-09T09:48:41Z</time>
      </trkpt>
      <trkpt lat="43.46703" lon="6.84765">
        <ele>83</ele>
        <time>2011-01-09T09:48:42Z</time>
      </trkpt>
      <trkpt lat="43.46707" lon="6.84764">
        <ele>83</ele>
        <time>2011-01-09T09:48:43Z</time>
      </trkpt>
      <trkpt lat="43.46711" lon="6.84763">
        <ele>83</ele>
        <time>2011-01-09T09:48:44Z</time>
      </trkpt>
      <trkpt lat="43.46715" lon="6.84763">
        <ele>83</ele>
        <time>2011-01-09T09:48:45Z</time>
      </trkpt>
      <trkpt lat="43.46719" lon="6.84763">
        <ele>83</ele>
        <time>2011-01-09T09:48:46Z</time>
      </trkpt>
      <trkpt lat="43.46724" lon="6.84765">
        <ele>84</ele>
        <time>2011-01-09T09:48:47Z</time>
      </trkpt>
      <trkpt lat="43.46728" lon="6.84766">
        <ele>84</ele>
        <time>2011-01-09T09:48:48Z</time>
      </trkpt>
      <trkpt lat="43.46744" lon="6.84774">
        <ele>84</ele>
        <time>2011-01-09T09:48:52Z</time>
      </trkpt>
      <trkpt lat="43.46749" lon="6.84775">
        <ele>84</ele>
        <time>2011-01-09T09:48:53Z</time>
      </trkpt>
      <trkpt lat="43.46758" lon="6.84777">
        <ele>84</ele>
        <time>2011-01-09T09:48:55Z</time>
      </trkpt>
      <trkpt lat="43.46767" lon="6.84778">
        <ele>84</ele>
        <time>2011-01-09T09:48:57Z</time>
      </trkpt>
      <trkpt lat="43.46776" lon="6.84778">
        <ele>84</ele>
        <time>2011-01-09T09:48:59Z</time>
      </trkpt>
      <trkpt lat="43.46781" lon="6.84779">
        <ele>83</ele>
        <time>2011-01-09T09:49:00Z</time>
      </trkpt>
      <trkpt lat="43.46794" lon="6.8478">
        <ele>83</ele>
        <time>2011-01-09T09:49:03Z</time>
      </trkpt>
      <trkpt lat="43.46799" lon="6.8478">
        <ele>83</ele>
        <time>2011-01-09T09:49:04Z</time>
      </trkpt>
      <trkpt lat="43.46808" lon="6.8478">
        <ele>84</ele>
        <time>2011-01-09T09:49:06Z</time>
      </trkpt>
      <trkpt lat="43.46812" lon="6.84781">
        <ele>84</ele>
        <time>2011-01-09T09:49:07Z</time>
      </trkpt>
      <trkpt lat="43.46821" lon="6.84783">
        <ele>84</ele>
        <time>2011-01-09T09:49:09Z</time>
      </trkpt>
      <trkpt lat="43.46829" lon="6.84783">
        <ele>84</ele>
        <time>2011-01-09T09:49:11Z</time>
      </trkpt>
      <trkpt lat="43.46842" lon="6.84784">
        <ele>84</ele>
        <time>2011-01-09T09:49:14Z</time>
      </trkpt>
      <trkpt lat="43.46851" lon="6.84786">
        <ele>84</ele>
        <time>2011-01-09T09:49:16Z</time>
      </trkpt>
      <trkpt lat="43.46864" lon="6.8479">
        <ele>84</ele>
        <time>2011-01-09T09:49:19Z</time>
      </trkpt>
      <trkpt lat="43.46869" lon="6.8479">
        <ele>84</ele>
        <time>2011-01-09T09:49:20Z</time>
      </trkpt>
      <trkpt lat="43.46874" lon="6.8479">
        <ele>84</ele>
        <time>2011-01-09T09:49:21Z</time>
      </trkpt>
      <trkpt lat="43.46878" lon="6.84788">
        <ele>85</ele>
        <time>2011-01-09T09:49:22Z</time>
      </trkpt>
      <trkpt lat="43.46883" lon="6.84786">
        <ele>85</ele>
        <time>2011-01-09T09:49:23Z</time>
      </trkpt>
      <trkpt lat="43.46887" lon="6.84783">
        <ele>85</ele>
        <time>2011-01-09T09:49:24Z</time>
      </trkpt>
      <trkpt lat="43.4689" lon="6.84779">
        <ele>85</ele>
        <time>2011-01-09T09:49:25Z</time>
      </trkpt>
      <trkpt lat="43.46905" lon="6.84765">
        <ele>85</ele>
        <time>2011-01-09T09:49:29Z</time>
      </trkpt>
      <trkpt lat="43.46912" lon="6.84757">
        <ele>86</ele>
        <time>2011-01-09T09:49:31Z</time>
      </trkpt>
      <trkpt lat="43.46919" lon="6.84748">
        <ele>86</ele>
        <time>2011-01-09T09:49:33Z</time>
      </trkpt>
      <trkpt lat="43.46925" lon="6.84739">
        <ele>86</ele>
        <time>2011-01-09T09:49:35Z</time>
      </trkpt>
      <trkpt lat="43.4693" lon="6.8473">
        <ele>87</ele>
        <time>2011-01-09T09:49:37Z</time>
      </trkpt>
      <trkpt lat="43.46936" lon="6.84721">
        <ele>87</ele>
        <time>2011-01-09T09:49:39Z</time>
      </trkpt>
      <trkpt lat="43.46942" lon="6.84712">
        <ele>87</ele>
        <time>2011-01-09T09:49:41Z</time>
      </trkpt>
      <trkpt lat="43.46947" lon="6.84703">
        <ele>87</ele>
        <time>2011-01-09T09:49:43Z</time>
      </trkpt>
      <trkpt lat="43.46953" lon="6.84695">
        <ele>88</ele>
        <time>2011-01-09T09:49:45Z</time>
      </trkpt>
      <trkpt lat="43.4696" lon="6.84687">
        <ele>88</ele>
        <time>2011-01-09T09:49:47Z</time>
      </trkpt>
      <trkpt lat="43.46963" lon="6.84683">
        <ele>88</ele>
        <time>2011-01-09T09:49:48Z</time>
      </trkpt>
      <trkpt lat="43.4697" lon="6.84676">
        <ele>88</ele>
        <time>2011-01-09T09:49:50Z</time>
      </trkpt>
      <trkpt lat="43.46978" lon="6.8467">
        <ele>88</ele>
        <time>2011-01-09T09:49:52Z</time>
      </trkpt>
      <trkpt lat="43.46994" lon="6.84659">
        <ele>89</ele>
        <time>2011-01-09T09:49:56Z</time>
      </trkpt>
      <trkpt lat="43.47017" lon="6.84644">
        <ele>90</ele>
        <time>2011-01-09T09:50:02Z</time>
      </trkpt>
      <trkpt lat="43.47024" lon="6.8464">
        <ele>90</ele>
        <time>2011-01-09T09:50:04Z</time>
      </trkpt>
      <trkpt lat="43.47028" lon="6.84638">
        <ele>90</ele>
        <time>2011-01-09T09:50:05Z</time>
      </trkpt>
      <trkpt lat="43.47036" lon="6.84635">
        <ele>90</ele>
        <time>2011-01-09T09:50:07Z</time>
      </trkpt>
      <trkpt lat="43.47041" lon="6.84634">
        <ele>90</ele>
        <time>2011-01-09T09:50:08Z</time>
      </trkpt>
      <trkpt lat="43.47049" lon="6.84634">
        <ele>91</ele>
        <time>2011-01-09T09:50:10Z</time>
      </trkpt>
      <trkpt lat="43.47053" lon="6.84634">
        <ele>91</ele>
        <time>2011-01-09T09:50:11Z</time>
      </trkpt>
      <trkpt lat="43.47062" lon="6.84635">
        <ele>91</ele>
        <time>2011-01-09T09:50:13Z</time>
      </trkpt>
      <trkpt lat="43.47066" lon="6.84635">
        <ele>91</ele>
        <time>2011-01-09T09:50:14Z</time>
      </trkpt>
      <trkpt lat="43.47071" lon="6.84633">
        <ele>91</ele>
        <time>2011-01-09T09:50:15Z</time>
      </trkpt>
      <trkpt lat="43.47075" lon="6.8463">
        <ele>91</ele>
        <time>2011-01-09T09:50:16Z</time>
      </trkpt>
      <trkpt lat="43.47077" lon="6.84625">
        <ele>91</ele>
        <time>2011-01-09T09:50:17Z</time>
      </trkpt>
      <trkpt lat="43.47079" lon="6.84619">
        <ele>91</ele>
        <time>2011-01-09T09:50:18Z</time>
      </trkpt>
      <trkpt lat="43.4708" lon="6.84613">
        <ele>92</ele>
        <time>2011-01-09T09:50:19Z</time>
      </trkpt>
      <trkpt lat="43.47078" lon="6.84606">
        <ele>92</ele>
        <time>2011-01-09T09:50:20Z</time>
      </trkpt>
      <trkpt lat="43.47077" lon="6.846">
        <ele>92</ele>
        <time>2011-01-09T09:50:21Z</time>
      </trkpt>
      <trkpt lat="43.47075" lon="6.84594">
        <ele>92</ele>
        <time>2011-01-09T09:50:22Z</time>
      </trkpt>
      <trkpt lat="43.47073" lon="6.84588">
        <ele>92</ele>
        <time>2011-01-09T09:50:23Z</time>
      </trkpt>
      <trkpt lat="43.47071" lon="6.84582">
        <ele>92</ele>
        <time>2011-01-09T09:50:24Z</time>
      </trkpt>
      <trkpt lat="43.4707" lon="6.84576">
        <ele>92</ele>
        <time>2011-01-09T09:50:25Z</time>
      </trkpt>
      <trkpt lat="43.47066" lon="6.84565">
        <ele>92</ele>
        <time>2011-01-09T09:50:27Z</time>
      </trkpt>
      <trkpt lat="43.47062" lon="6.84554">
        <ele>92</ele>
        <time>2011-01-09T09:50:29Z</time>
      </trkpt>
      <trkpt lat="43.47053" lon="6.84532">
        <ele>93</ele>
        <time>2011-01-09T09:50:33Z</time>
      </trkpt>
      <trkpt lat="43.47051" lon="6.84527">
        <ele>93</ele>
        <time>2011-01-09T09:50:34Z</time>
      </trkpt>
      <trkpt lat="43.47045" lon="6.84517">
        <ele>93</ele>
        <time>2011-01-09T09:50:36Z</time>
      </trkpt>
      <trkpt lat="43.47039" lon="6.84507">
        <ele>93</ele>
        <time>2011-01-09T09:50:38Z</time>
      </trkpt>
      <trkpt lat="43.4703" lon="6.84493">
        <ele>94</ele>
        <time>2011-01-09T09:50:41Z</time>
      </trkpt>
      <trkpt lat="43.47025" lon="6.84484">
        <ele>94</ele>
        <time>2011-01-09T09:50:43Z</time>
      </trkpt>
      <trkpt lat="43.47014" lon="6.84464">
        <ele>94</ele>
        <time>2011-01-09T09:50:47Z</time>
      </trkpt>
      <trkpt lat="43.47009" lon="6.84454">
        <ele>94</ele>
        <time>2011-01-09T09:50:49Z</time>
      </trkpt>
      <trkpt lat="43.47005" lon="6.84444">
        <ele>94</ele>
        <time>2011-01-09T09:50:51Z</time>
      </trkpt>
      <trkpt lat="43.47" lon="6.84433">
        <ele>95</ele>
        <time>2011-01-09T09:50:53Z</time>
      </trkpt>
      <trkpt lat="43.46998" lon="6.84428">
        <ele>95</ele>
        <time>2011-01-09T09:50:54Z</time>
      </trkpt>
      <trkpt lat="43.46993" lon="6.84406">
        <ele>95</ele>
        <time>2011-01-09T09:50:58Z</time>
      </trkpt>
      <trkpt lat="43.46991" lon="6.84401">
        <ele>95</ele>
        <time>2011-01-09T09:50:59Z</time>
      </trkpt>
      <trkpt lat="43.46988" lon="6.84396">
        <ele>95</ele>
        <time>2011-01-09T09:51:00Z</time>
      </trkpt>
      <trkpt lat="43.46984" lon="6.84393">
        <ele>96</ele>
        <time>2011-01-09T09:51:01Z</time>
      </trkpt>
      <trkpt lat="43.4698" lon="6.84391">
        <ele>96</ele>
        <time>2011-01-09T09:51:02Z</time>
      </trkpt>
      <trkpt lat="43.46976" lon="6.8439">
        <ele>96</ele>
        <time>2011-01-09T09:51:03Z</time>
      </trkpt>
      <trkpt lat="43.46972" lon="6.8439">
        <ele>96</ele>
        <time>2011-01-09T09:51:04Z</time>
      </trkpt>
      <trkpt lat="43.46968" lon="6.8439">
        <ele>97</ele>
        <time>2011-01-09T09:51:05Z</time>
      </trkpt>
      <trkpt lat="43.46959" lon="6.8439">
        <ele>97</ele>
        <time>2011-01-09T09:51:07Z</time>
      </trkpt>
      <trkpt lat="43.46956" lon="6.84389">
        <ele>97</ele>
        <time>2011-01-09T09:51:08Z</time>
      </trkpt>
      <trkpt lat="43.46952" lon="6.84388">
        <ele>97</ele>
        <time>2011-01-09T09:51:09Z</time>
      </trkpt>
      <trkpt lat="43.46948" lon="6.84386">
        <ele>98</ele>
        <time>2011-01-09T09:51:10Z</time>
      </trkpt>
      <trkpt lat="43.46944" lon="6.84382">
        <ele>98</ele>
        <time>2011-01-09T09:51:11Z</time>
      </trkpt>
      <trkpt lat="43.46942" lon="6.84378">
        <ele>98</ele>
        <time>2011-01-09T09:51:12Z</time>
      </trkpt>
      <trkpt lat="43.46939" lon="6.84372">
        <ele>98</ele>
        <time>2011-01-09T09:51:13Z</time>
      </trkpt>
      <trkpt lat="43.46938" lon="6.84367">
        <ele>98</ele>
        <time>2011-01-09T09:51:14Z</time>
      </trkpt>
      <trkpt lat="43.46939" lon="6.84361">
        <ele>98</ele>
        <time>2011-01-09T09:51:15Z</time>
      </trkpt>
      <trkpt lat="43.4694" lon="6.84355">
        <ele>98</ele>
        <time>2011-01-09T09:51:16Z</time>
      </trkpt>
      <trkpt lat="43.46943" lon="6.8435">
        <ele>98</ele>
        <time>2011-01-09T09:51:17Z</time>
      </trkpt>
      <trkpt lat="43.46946" lon="6.84345">
        <ele>97</ele>
        <time>2011-01-09T09:51:18Z</time>
      </trkpt>
      <trkpt lat="43.46953" lon="6.84336">
        <ele>97</ele>
        <time>2011-01-09T09:51:20Z</time>
      </trkpt>
      <trkpt lat="43.46957" lon="6.84331">
        <ele>97</ele>
        <time>2011-01-09T09:51:21Z</time>
      </trkpt>
      <trkpt lat="43.46961" lon="6.84327">
        <ele>97</ele>
        <time>2011-01-09T09:51:22Z</time>
      </trkpt>
      <trkpt lat="43.46965" lon="6.84323">
        <ele>96</ele>
        <time>2011-01-09T09:51:23Z</time>
      </trkpt>
      <trkpt lat="43.46994" lon="6.8425">
        <ele>96</ele>
        <time>2011-01-09T09:51:33Z</time>
      </trkpt>
      <trkpt lat="43.46978" lon="6.84164">
        <ele>93</ele>
        <time>2011-01-09T09:51:43Z</time>
      </trkpt>
      <trkpt lat="43.46943" lon="6.84092">
        <ele>89</ele>
        <time>2011-01-09T09:51:53Z</time>
      </trkpt>
      <trkpt lat="43.46941" lon="6.84088">
        <ele>89</ele>
        <time>2011-01-09T09:51:54Z</time>
      </trkpt>
      <trkpt lat="43.46939" lon="6.84084">
        <ele>89</ele>
        <time>2011-01-09T09:51:55Z</time>
      </trkpt>
      <trkpt lat="43.46939" lon="6.84079">
        <ele>89</ele>
        <time>2011-01-09T09:51:56Z</time>
      </trkpt>
      <trkpt lat="43.46938" lon="6.84074">
        <ele>88</ele>
        <time>2011-01-09T09:51:57Z</time>
      </trkpt>
      <trkpt lat="43.46939" lon="6.84069">
        <ele>88</ele>
        <time>2011-01-09T09:51:58Z</time>
      </trkpt>
      <trkpt lat="43.46939" lon="6.84064">
        <ele>88</ele>
        <time>2011-01-09T09:51:59Z</time>
      </trkpt>
      <trkpt lat="43.4694" lon="6.8406">
        <ele>88</ele>
        <time>2011-01-09T09:52:00Z</time>
      </trkpt>
      <trkpt lat="43.46941" lon="6.84057">
        <ele>87</ele>
        <time>2011-01-09T09:52:01Z</time>
      </trkpt>
      <trkpt lat="43.46942" lon="6.84055">
        <ele>87</ele>
        <time>2011-01-09T09:52:06Z</time>
      </trkpt>
      <trkpt lat="43.46942" lon="6.84055">
        <ele>87</ele>
        <time>2011-01-09T09:52:11Z</time>
      </trkpt>
      <trkpt lat="43.46944" lon="6.84052">
        <ele>87</ele>
        <time>2011-01-09T09:52:13Z</time>
      </trkpt>
      <trkpt lat="43.46948" lon="6.84048">
        <ele>86</ele>
        <time>2011-01-09T09:52:15Z</time>
      </trkpt>
      <trkpt lat="43.4696" lon="6.8404">
        <ele>86</ele>
        <time>2011-01-09T09:52:19Z</time>
      </trkpt>
      <trkpt lat="43.46966" lon="6.84034">
        <ele>86</ele>
        <time>2011-01-09T09:52:21Z</time>
      </trkpt>
      <trkpt lat="43.46969" lon="6.84032">
        <ele>86</ele>
        <time>2011-01-09T09:52:22Z</time>
      </trkpt>
      <trkpt lat="43.46973" lon="6.84031">
        <ele>85</ele>
        <time>2011-01-09T09:52:23Z</time>
      </trkpt>
      <trkpt lat="43.46977" lon="6.8403">
        <ele>85</ele>
        <time>2011-01-09T09:52:24Z</time>
      </trkpt>
      <trkpt lat="43.4698" lon="6.84031">
        <ele>85</ele>
        <time>2011-01-09T09:52:25Z</time>
      </trkpt>
      <trkpt lat="43.46983" lon="6.84033">
        <ele>85</ele>
        <time>2011-01-09T09:52:26Z</time>
      </trkpt>
      <trkpt lat="43.46986" lon="6.84035">
        <ele>85</ele>
        <time>2011-01-09T09:52:27Z</time>
      </trkpt>
      <trkpt lat="43.46992" lon="6.8404">
        <ele>85</ele>
        <time>2011-01-09T09:52:29Z</time>
      </trkpt>
      <trkpt lat="43.46995" lon="6.84043">
        <ele>85</ele>
        <time>2011-01-09T09:52:30Z</time>
      </trkpt>
      <trkpt lat="43.47006" lon="6.8405">
        <ele>84</ele>
        <time>2011-01-09T09:52:33Z</time>
      </trkpt>
      <trkpt lat="43.4701" lon="6.84053">
        <ele>84</ele>
        <time>2011-01-09T09:52:34Z</time>
      </trkpt>
      <trkpt lat="43.47014" lon="6.84055">
        <ele>84</ele>
        <time>2011-01-09T09:52:35Z</time>
      </trkpt>
      <trkpt lat="43.47018" lon="6.84056">
        <ele>84</ele>
        <time>2011-01-09T09:52:36Z</time>
      </trkpt>
      <trkpt lat="43.47022" lon="6.84056">
        <ele>84</ele>
        <time>2011-01-09T09:52:37Z</time>
      </trkpt>
      <trkpt lat="43.47027" lon="6.84056">
        <ele>83</ele>
        <time>2011-01-09T09:52:38Z</time>
      </trkpt>
      <trkpt lat="43.47031" lon="6.84055">
        <ele>83</ele>
        <time>2011-01-09T09:52:39Z</time>
      </trkpt>
      <trkpt lat="43.47035" lon="6.84053">
        <ele>83</ele>
        <time>2011-01-09T09:52:40Z</time>
      </trkpt>
      <trkpt lat="43.47042" lon="6.84047">
        <ele>83</ele>
        <time>2011-01-09T09:52:42Z</time>
      </trkpt>
      <trkpt lat="43.47049" lon="6.84042">
        <ele>83</ele>
        <time>2011-01-09T09:52:44Z</time>
      </trkpt>
      <trkpt lat="43.47053" lon="6.84039">
        <ele>83</ele>
        <time>2011-01-09T09:52:45Z</time>
      </trkpt>
      <trkpt lat="43.4706" lon="6.84034">
        <ele>83</ele>
        <time>2011-01-09T09:52:47Z</time>
      </trkpt>
      <trkpt lat="43.47067" lon="6.8403">
        <ele>83</ele>
        <time>2011-01-09T09:52:49Z</time>
      </trkpt>
      <trkpt lat="43.47074" lon="6.84025">
        <ele>82</ele>
        <time>2011-01-09T09:52:51Z</time>
      </trkpt>
      <trkpt lat="43.47077" lon="6.84022">
        <ele>82</ele>
        <time>2011-01-09T09:52:52Z</time>
      </trkpt>
      <trkpt lat="43.47084" lon="6.84016">
        <ele>82</ele>
        <time>2011-01-09T09:52:54Z</time>
      </trkpt>
      <trkpt lat="43.47088" lon="6.84014">
        <ele>82</ele>
        <time>2011-01-09T09:52:55Z</time>
      </trkpt>
      <trkpt lat="43.47091" lon="6.84012">
        <ele>82</ele>
        <time>2011-01-09T09:52:56Z</time>
      </trkpt>
      <trkpt lat="43.47094" lon="6.84009">
        <ele>82</ele>
        <time>2011-01-09T09:52:57Z</time>
      </trkpt>
      <trkpt lat="43.47102" lon="6.84004">
        <ele>82</ele>
        <time>2011-01-09T09:52:59Z</time>
      </trkpt>
      <trkpt lat="43.4711" lon="6.83998">
        <ele>81</ele>
        <time>2011-01-09T09:53:01Z</time>
      </trkpt>
      <trkpt lat="43.47117" lon="6.83992">
        <ele>81</ele>
        <time>2011-01-09T09:53:03Z</time>
      </trkpt>
      <trkpt lat="43.47125" lon="6.83987">
        <ele>81</ele>
        <time>2011-01-09T09:53:05Z</time>
      </trkpt>
      <trkpt lat="43.47134" lon="6.83981">
        <ele>81</ele>
        <time>2011-01-09T09:53:07Z</time>
      </trkpt>
      <trkpt lat="43.47138" lon="6.83979">
        <ele>81</ele>
        <time>2011-01-09T09:53:08Z</time>
      </trkpt>
      <trkpt lat="43.47143" lon="6.83977">
        <ele>81</ele>
        <time>2011-01-09T09:53:09Z</time>
      </trkpt>
      <trkpt lat="43.47148" lon="6.83977">
        <ele>81</ele>
        <time>2011-01-09T09:53:10Z</time>
      </trkpt>
      <trkpt lat="43.47153" lon="6.83976">
        <ele>80</ele>
        <time>2011-01-09T09:53:11Z</time>
      </trkpt>
      <trkpt lat="43.47158" lon="6.83975">
        <ele>80</ele>
        <time>2011-01-09T09:53:12Z</time>
      </trkpt>
      <trkpt lat="43.47162" lon="6.83974">
        <ele>80</ele>
        <time>2011-01-09T09:53:13Z</time>
      </trkpt>
      <trkpt lat="43.47167" lon="6.83972">
        <ele>80</ele>
        <time>2011-01-09T09:53:14Z</time>
      </trkpt>
      <trkpt lat="43.47171" lon="6.83969">
        <ele>80</ele>
        <time>2011-01-09T09:53:15Z</time>
      </trkpt>
      <trkpt lat="43.47177" lon="6.83961">
        <ele>80</ele>
        <time>2011-01-09T09:53:17Z</time>
      </trkpt>
      <trkpt lat="43.47183" lon="6.83955">
        <ele>79</ele>
        <time>2011-01-09T09:53:19Z</time>
      </trkpt>
      <trkpt lat="43.47192" lon="6.83946">
        <ele>79</ele>
        <time>2011-01-09T09:53:22Z</time>
      </trkpt>
      <trkpt lat="43.47198" lon="6.83938">
        <ele>78</ele>
        <time>2011-01-09T09:53:24Z</time>
      </trkpt>
      <trkpt lat="43.47206" lon="6.83931">
        <ele>78</ele>
        <time>2011-01-09T09:53:26Z</time>
      </trkpt>
      <trkpt lat="43.47209" lon="6.83927">
        <ele>78</ele>
        <time>2011-01-09T09:53:27Z</time>
      </trkpt>
      <trkpt lat="43.47213" lon="6.83922">
        <ele>78</ele>
        <time>2011-01-09T09:53:28Z</time>
      </trkpt>
      <trkpt lat="43.4722" lon="6.83912">
        <ele>77</ele>
        <time>2011-01-09T09:53:30Z</time>
      </trkpt>
      <trkpt lat="43.4727" lon="6.8388">
        <ele>75</ele>
        <time>2011-01-09T09:53:40Z</time>
      </trkpt>
      <trkpt lat="43.47251" lon="6.8383">
        <ele>76</ele>
        <time>2011-01-09T09:53:50Z</time>
      </trkpt>
      <trkpt lat="43.47248" lon="6.83826">
        <ele>77</ele>
        <time>2011-01-09T09:53:51Z</time>
      </trkpt>
      <trkpt lat="43.47245" lon="6.8382">
        <ele>77</ele>
        <time>2011-01-09T09:53:52Z</time>
      </trkpt>
      <trkpt lat="43.47243" lon="6.83814">
        <ele>77</ele>
        <time>2011-01-09T09:53:53Z</time>
      </trkpt>
      <trkpt lat="43.47242" lon="6.83807">
        <ele>77</ele>
        <time>2011-01-09T09:53:54Z</time>
      </trkpt>
      <trkpt lat="43.47242" lon="6.83801">
        <ele>77</ele>
        <time>2011-01-09T09:53:55Z</time>
      </trkpt>
      <trkpt lat="43.47242" lon="6.83795">
        <ele>77</ele>
        <time>2011-01-09T09:53:56Z</time>
      </trkpt>
      <trkpt lat="43.47243" lon="6.83788">
        <ele>78</ele>
        <time>2011-01-09T09:53:57Z</time>
      </trkpt>
      <trkpt lat="43.47245" lon="6.83783">
        <ele>78</ele>
        <time>2011-01-09T09:53:58Z</time>
      </trkpt>
      <trkpt lat="43.47248" lon="6.83778">
        <ele>78</ele>
        <time>2011-01-09T09:53:59Z</time>
      </trkpt>
      <trkpt lat="43.47251" lon="6.83775">
        <ele>78</ele>
        <time>2011-01-09T09:54:00Z</time>
      </trkpt>
      <trkpt lat="43.47255" lon="6.83773">
        <ele>78</ele>
        <time>2011-01-09T09:54:01Z</time>
      </trkpt>
      <trkpt lat="43.4726" lon="6.83772">
        <ele>79</ele>
        <time>2011-01-09T09:54:02Z</time>
      </trkpt>
      <trkpt lat="43.47273" lon="6.83771">
        <ele>79</ele>
        <time>2011-01-09T09:54:05Z</time>
      </trkpt>
      <trkpt lat="43.47277" lon="6.8377">
        <ele>79</ele>
        <time>2011-01-09T09:54:06Z</time>
      </trkpt>
      <trkpt lat="43.47286" lon="6.83768">
        <ele>79</ele>
        <time>2011-01-09T09:54:08Z</time>
      </trkpt>
      <trkpt lat="43.47294" lon="6.83764">
        <ele>79</ele>
        <time>2011-01-09T09:54:10Z</time>
      </trkpt>
      <trkpt lat="43.47297" lon="6.83762">
        <ele>79</ele>
        <time>2011-01-09T09:54:11Z</time>
      </trkpt>
      <trkpt lat="43.47305" lon="6.83759">
        <ele>80</ele>
        <time>2011-01-09T09:54:13Z</time>
      </trkpt>
      <trkpt lat="43.47308" lon="6.83756">
        <ele>80</ele>
        <time>2011-01-09T09:54:14Z</time>
      </trkpt>
      <trkpt lat="43.47311" lon="6.83753">
        <ele>80</ele>
        <time>2011-01-09T09:54:15Z</time>
      </trkpt>
      <trkpt lat="43.47316" lon="6.83746">
        <ele>80</ele>
        <time>2011-01-09T09:54:17Z</time>
      </trkpt>
      <trkpt lat="43.47318" lon="6.83742">
        <ele>80</ele>
        <time>2011-01-09T09:54:18Z</time>
      </trkpt>
      <trkpt lat="43.47319" lon="6.83737">
        <ele>80</ele>
        <time>2011-01-09T09:54:19Z</time>
      </trkpt>
      <trkpt lat="43.47322" lon="6.83727">
        <ele>80</ele>
        <time>2011-01-09T09:54:21Z</time>
      </trkpt>
      <trkpt lat="43.47323" lon="6.83721">
        <ele>80</ele>
        <time>2011-01-09T09:54:22Z</time>
      </trkpt>
      <trkpt lat="43.47325" lon="6.83705">
        <ele>81</ele>
        <time>2011-01-09T09:54:25Z</time>
      </trkpt>
      <trkpt lat="43.47326" lon="6.83694">
        <ele>81</ele>
        <time>2011-01-09T09:54:27Z</time>
      </trkpt>
      <trkpt lat="43.47326" lon="6.83688">
        <ele>81</ele>
        <time>2011-01-09T09:54:28Z</time>
      </trkpt>
      <trkpt lat="43.47327" lon="6.83671">
        <ele>81</ele>
        <time>2011-01-09T09:54:31Z</time>
      </trkpt>
      <trkpt lat="43.47328" lon="6.83659">
        <ele>81</ele>
        <time>2011-01-09T09:54:33Z</time>
      </trkpt>
      <trkpt lat="43.47328" lon="6.83653">
        <ele>81</ele>
        <time>2011-01-09T09:54:34Z</time>
      </trkpt>
      <trkpt lat="43.4733" lon="6.83647">
        <ele>81</ele>
        <time>2011-01-09T09:54:35Z</time>
      </trkpt>
      <trkpt lat="43.47331" lon="6.83641">
        <ele>81</ele>
        <time>2011-01-09T09:54:36Z</time>
      </trkpt>
      <trkpt lat="43.47335" lon="6.83631">
        <ele>81</ele>
        <time>2011-01-09T09:54:38Z</time>
      </trkpt>
      <trkpt lat="43.47337" lon="6.83626">
        <ele>81</ele>
        <time>2011-01-09T09:54:39Z</time>
      </trkpt>
      <trkpt lat="43.47344" lon="6.83611">
        <ele>81</ele>
        <time>2011-01-09T09:54:42Z</time>
      </trkpt>
      <trkpt lat="43.47356" lon="6.83587">
        <ele>81</ele>
        <time>2011-01-09T09:54:47Z</time>
      </trkpt>
      <trkpt lat="43.47366" lon="6.83567">
        <ele>82</ele>
        <time>2011-01-09T09:54:51Z</time>
      </trkpt>
      <trkpt lat="43.47373" lon="6.83553">
        <ele>82</ele>
        <time>2011-01-09T09:54:54Z</time>
      </trkpt>
      <trkpt lat="43.47378" lon="6.83543">
        <ele>82</ele>
        <time>2011-01-09T09:54:56Z</time>
      </trkpt>
      <trkpt lat="43.47387" lon="6.83531">
        <ele>82</ele>
        <time>2011-01-09T09:54:59Z</time>
      </trkpt>
      <trkpt lat="43.4739" lon="6.83527">
        <ele>83</ele>
        <time>2011-01-09T09:55:00Z</time>
      </trkpt>
      <trkpt lat="43.47393" lon="6.83523">
        <ele>83</ele>
        <time>2011-01-09T09:55:01Z</time>
      </trkpt>
      <trkpt lat="43.47397" lon="6.83521">
        <ele>83</ele>
        <time>2011-01-09T09:55:02Z</time>
      </trkpt>
      <trkpt lat="43.47401" lon="6.83519">
        <ele>83</ele>
        <time>2011-01-09T09:55:03Z</time>
      </trkpt>
      <trkpt lat="43.47405" lon="6.83516">
        <ele>83</ele>
        <time>2011-01-09T09:55:04Z</time>
      </trkpt>
      <trkpt lat="43.4741" lon="6.83515">
        <ele>83</ele>
        <time>2011-01-09T09:55:05Z</time>
      </trkpt>
      <trkpt lat="43.47422" lon="6.83509">
        <ele>82</ele>
        <time>2011-01-09T09:55:08Z</time>
      </trkpt>
      <trkpt lat="43.47427" lon="6.83508">
        <ele>82</ele>
        <time>2011-01-09T09:55:09Z</time>
      </trkpt>
      <trkpt lat="43.47431" lon="6.83506">
        <ele>82</ele>
        <time>2011-01-09T09:55:10Z</time>
      </trkpt>
      <trkpt lat="43.47436" lon="6.83506">
        <ele>82</ele>
        <time>2011-01-09T09:55:11Z</time>
      </trkpt>
      <trkpt lat="43.47441" lon="6.83506">
        <ele>82</ele>
        <time>2011-01-09T09:55:12Z</time>
      </trkpt>
      <trkpt lat="43.47455" lon="6.83511">
        <ele>82</ele>
        <time>2011-01-09T09:55:15Z</time>
      </trkpt>
      <trkpt lat="43.4746" lon="6.83512">
        <ele>82</ele>
        <time>2011-01-09T09:55:16Z</time>
      </trkpt>
      <trkpt lat="43.47465" lon="6.83512">
        <ele>82</ele>
        <time>2011-01-09T09:55:17Z</time>
      </trkpt>
      <trkpt lat="43.4747" lon="6.83511">
        <ele>82</ele>
        <time>2011-01-09T09:55:18Z</time>
      </trkpt>
      <trkpt lat="43.47475" lon="6.83508">
        <ele>82</ele>
        <time>2011-01-09T09:55:19Z</time>
      </trkpt>
      <trkpt lat="43.47479" lon="6.83504">
        <ele>82</ele>
        <time>2011-01-09T09:55:20Z</time>
      </trkpt>
      <trkpt lat="43.47483" lon="6.835">
        <ele>82</ele>
        <time>2011-01-09T09:55:21Z</time>
      </trkpt>
      <trkpt lat="43.47495" lon="6.83487">
        <ele>82</ele>
        <time>2011-01-09T09:55:24Z</time>
      </trkpt>
      <trkpt lat="43.47502" lon="6.83478">
        <ele>82</ele>
        <time>2011-01-09T09:55:26Z</time>
      </trkpt>
      <trkpt lat="43.4751" lon="6.8347">
        <ele>82</ele>
        <time>2011-01-09T09:55:28Z</time>
      </trkpt>
      <trkpt lat="43.47517" lon="6.8346">
        <ele>82</ele>
        <time>2011-01-09T09:55:30Z</time>
      </trkpt>
      <trkpt lat="43.4752" lon="6.83455">
        <ele>82</ele>
        <time>2011-01-09T09:55:31Z</time>
      </trkpt>
      <trkpt lat="43.47523" lon="6.83449">
        <ele>81</ele>
        <time>2011-01-09T09:55:32Z</time>
      </trkpt>
      <trkpt lat="43.47525" lon="6.83443">
        <ele>81</ele>
        <time>2011-01-09T09:55:33Z</time>
      </trkpt>
      <trkpt lat="43.47527" lon="6.83436">
        <ele>81</ele>
        <time>2011-01-09T09:55:34Z</time>
      </trkpt>
      <trkpt lat="43.47501" lon="6.83389">
        <ele>83</ele>
        <time>2011-01-09T09:55:44Z</time>
      </trkpt>
      <trkpt lat="43.47493" lon="6.83385">
        <ele>83</ele>
        <time>2011-01-09T09:55:46Z</time>
      </trkpt>
      <trkpt lat="43.4749" lon="6.83383">
        <ele>83</ele>
        <time>2011-01-09T09:55:47Z</time>
      </trkpt>
      <trkpt lat="43.47487" lon="6.8338">
        <ele>84</ele>
        <time>2011-01-09T09:55:48Z</time>
      </trkpt>
      <trkpt lat="43.47484" lon="6.83377">
        <ele>84</ele>
        <time>2011-01-09T09:55:49Z</time>
      </trkpt>
      <trkpt lat="43.47481" lon="6.83375">
        <ele>84</ele>
        <time>2011-01-09T09:55:50Z</time>
      </trkpt>
      <trkpt lat="43.47479" lon="6.83372">
        <ele>84</ele>
        <time>2011-01-09T09:55:51Z</time>
      </trkpt>
      <trkpt lat="43.47475" lon="6.83365">
        <ele>84</ele>
        <time>2011-01-09T09:55:53Z</time>
      </trkpt>
      <trkpt lat="43.47474" lon="6.83361">
        <ele>84</ele>
        <time>2011-01-09T09:55:54Z</time>
      </trkpt>
      <trkpt lat="43.47473" lon="6.83357">
        <ele>85</ele>
        <time>2011-01-09T09:55:55Z</time>
      </trkpt>
      <trkpt lat="43.47473" lon="6.83353">
        <ele>85</ele>
        <time>2011-01-09T09:55:56Z</time>
      </trkpt>
      <trkpt lat="43.47473" lon="6.83348">
        <ele>85</ele>
        <time>2011-01-09T09:55:57Z</time>
      </trkpt>
      <trkpt lat="43.47473" lon="6.83344">
        <ele>85</ele>
        <time>2011-01-09T09:55:58Z</time>
      </trkpt>
      <trkpt lat="43.47474" lon="6.8334">
        <ele>86</ele>
        <time>2011-01-09T09:55:59Z</time>
      </trkpt>
      <trkpt lat="43.47477" lon="6.83329">
        <ele>86</ele>
        <time>2011-01-09T09:56:02Z</time>
      </trkpt>
      <trkpt lat="43.4748" lon="6.83321">
        <ele>87</ele>
        <time>2011-01-09T09:56:04Z</time>
      </trkpt>
      <trkpt lat="43.47483" lon="6.83314">
        <ele>87</ele>
        <time>2011-01-09T09:56:06Z</time>
      </trkpt>
      <trkpt lat="43.47485" lon="6.8331">
        <ele>87</ele>
        <time>2011-01-09T09:56:07Z</time>
      </trkpt>
      <trkpt lat="43.47489" lon="6.83299">
        <ele>88</ele>
        <time>2011-01-09T09:56:10Z</time>
      </trkpt>
      <trkpt lat="43.4749" lon="6.83294">
        <ele>88</ele>
        <time>2011-01-09T09:56:11Z</time>
      </trkpt>
      <trkpt lat="43.47491" lon="6.83286">
        <ele>88</ele>
        <time>2011-01-09T09:56:13Z</time>
      </trkpt>
      <trkpt lat="43.47492" lon="6.83277">
        <ele>89</ele>
        <time>2011-01-09T09:56:15Z</time>
      </trkpt>
      <trkpt lat="43.47493" lon="6.83273">
        <ele>89</ele>
        <time>2011-01-09T09:56:16Z</time>
      </trkpt>
      <trkpt lat="43.47492" lon="6.83264">
        <ele>89</ele>
        <time>2011-01-09T09:56:18Z</time>
      </trkpt>
      <trkpt lat="43.47492" lon="6.8326">
        <ele>89</ele>
        <time>2011-01-09T09:56:19Z</time>
      </trkpt>
      <trkpt lat="43.47491" lon="6.83256">
        <ele>90</ele>
        <time>2011-01-09T09:56:20Z</time>
      </trkpt>
      <trkpt lat="43.4749" lon="6.83252">
        <ele>90</ele>
        <time>2011-01-09T09:56:21Z</time>
      </trkpt>
      <trkpt lat="43.47489" lon="6.83248">
        <ele>90</ele>
        <time>2011-01-09T09:56:22Z</time>
      </trkpt>
      <trkpt lat="43.47488" lon="6.83243">
        <ele>90</ele>
        <time>2011-01-09T09:56:23Z</time>
      </trkpt>
      <trkpt lat="43.47487" lon="6.83235">
        <ele>90</ele>
        <time>2011-01-09T09:56:25Z</time>
      </trkpt>
      <trkpt lat="43.47487" lon="6.83231">
        <ele>91</ele>
        <time>2011-01-09T09:56:26Z</time>
      </trkpt>
      <trkpt lat="43.47487" lon="6.83222">
        <ele>91</ele>
        <time>2011-01-09T09:56:28Z</time>
      </trkpt>
      <trkpt lat="43.47487" lon="6.83214">
        <ele>91</ele>
        <time>2011-01-09T09:56:30Z</time>
      </trkpt>
      <trkpt lat="43.47487" lon="6.83206">
        <ele>92</ele>
        <time>2011-01-09T09:56:32Z</time>
      </trkpt>
      <trkpt lat="43.47488" lon="6.83193">
        <ele>93</ele>
        <time>2011-01-09T09:56:35Z</time>
      </trkpt>
      <trkpt lat="43.47492" lon="6.83163">
        <ele>94</ele>
        <time>2011-01-09T09:56:42Z</time>
      </trkpt>
      <trkpt lat="43.47494" lon="6.83148">
        <ele>93</ele>
        <time>2011-01-09T09:56:45Z</time>
      </trkpt>
      <trkpt lat="43.47494" lon="6.83137">
        <ele>93</ele>
        <time>2011-01-09T09:56:47Z</time>
      </trkpt>
      <trkpt lat="43.47494" lon="6.83132">
        <ele>93</ele>
        <time>2011-01-09T09:56:48Z</time>
      </trkpt>
      <trkpt lat="43.47494" lon="6.83121">
        <ele>93</ele>
        <time>2011-01-09T09:56:50Z</time>
      </trkpt>
      <trkpt lat="43.47492" lon="6.8311">
        <ele>93</ele>
        <time>2011-01-09T09:56:52Z</time>
      </trkpt>
      <trkpt lat="43.47491" lon="6.83098">
        <ele>92</ele>
        <time>2011-01-09T09:56:54Z</time>
      </trkpt>
      <trkpt lat="43.4749" lon="6.83093">
        <ele>92</ele>
        <time>2011-01-09T09:56:55Z</time>
      </trkpt>
      <trkpt lat="43.4749" lon="6.83086">
        <ele>92</ele>
        <time>2011-01-09T09:56:56Z</time>
      </trkpt>
      <trkpt lat="43.4749" lon="6.8308">
        <ele>92</ele>
        <time>2011-01-09T09:56:57Z</time>
      </trkpt>
      <trkpt lat="43.47489" lon="6.83063">
        <ele>92</ele>
        <time>2011-01-09T09:57:00Z</time>
      </trkpt>
      <trkpt lat="43.47488" lon="6.83052">
        <ele>92</ele>
        <time>2011-01-09T09:57:02Z</time>
      </trkpt>
      <trkpt lat="43.47487" lon="6.83047">
        <ele>92</ele>
        <time>2011-01-09T09:57:03Z</time>
      </trkpt>
      <trkpt lat="43.47486" lon="6.83041">
        <ele>92</ele>
        <time>2011-01-09T09:57:04Z</time>
      </trkpt>
      <trkpt lat="43.47484" lon="6.83036">
        <ele>92</ele>
        <time>2011-01-09T09:57:05Z</time>
      </trkpt>
      <trkpt lat="43.47482" lon="6.83031">
        <ele>92</ele>
        <time>2011-01-09T09:57:06Z</time>
      </trkpt>
      <trkpt lat="43.4748" lon="6.83026">
        <ele>92</ele>
        <time>2011-01-09T09:57:07Z</time>
      </trkpt>
      <trkpt lat="43.47478" lon="6.83021">
        <ele>91</ele>
        <time>2011-01-09T09:57:08Z</time>
      </trkpt>
      <trkpt lat="43.47475" lon="6.83017">
        <ele>91</ele>
        <time>2011-01-09T09:57:09Z</time>
      </trkpt>
      <trkpt lat="43.47469" lon="6.83008">
        <ele>91</ele>
        <time>2011-01-09T09:57:11Z</time>
      </trkpt>
      <trkpt lat="43.47466" lon="6.83004">
        <ele>91</ele>
        <time>2011-01-09T09:57:12Z</time>
      </trkpt>
      <trkpt lat="43.47463" lon="6.83001">
        <ele>91</ele>
        <time>2011-01-09T09:57:13Z</time>
      </trkpt>
      <trkpt lat="43.47457" lon="6.82992">
        <ele>90</ele>
        <time>2011-01-09T09:57:15Z</time>
      </trkpt>
      <trkpt lat="43.4745" lon="6.82983">
        <ele>90</ele>
        <time>2011-01-09T09:57:17Z</time>
      </trkpt>
      <trkpt lat="43.47447" lon="6.82978">
        <ele>90</ele>
        <time>2011-01-09T09:57:18Z</time>
      </trkpt>
      <trkpt lat="43.47443" lon="6.82974">
        <ele>90</ele>
        <time>2011-01-09T09:57:19Z</time>
      </trkpt>
      <trkpt lat="43.47439" lon="6.82969">
        <ele>90</ele>
        <time>2011-01-09T09:57:20Z</time>
      </trkpt>
      <trkpt lat="43.47435" lon="6.82966">
        <ele>89</ele>
        <time>2011-01-09T09:57:21Z</time>
      </trkpt>
      <trkpt lat="43.4743" lon="6.82965">
        <ele>89</ele>
        <time>2011-01-09T09:57:22Z</time>
      </trkpt>
      <trkpt lat="43.47425" lon="6.82966">
        <ele>89</ele>
        <time>2011-01-09T09:57:23Z</time>
      </trkpt>
      <trkpt lat="43.47421" lon="6.82969">
        <ele>89</ele>
        <time>2011-01-09T09:57:24Z</time>
      </trkpt>
      <trkpt lat="43.47417" lon="6.82973">
        <ele>89</ele>
        <time>2011-01-09T09:57:25Z</time>
      </trkpt>
      <trkpt lat="43.47414" lon="6.82977">
        <ele>89</ele>
        <time>2011-01-09T09:57:26Z</time>
      </trkpt>
      <trkpt lat="43.47407" lon="6.82986">
        <ele>90</ele>
        <time>2011-01-09T09:57:28Z</time>
      </trkpt>
      <trkpt lat="43.47404" lon="6.8299">
        <ele>90</ele>
        <time>2011-01-09T09:57:29Z</time>
      </trkpt>
      <trkpt lat="43.47398" lon="6.82999">
        <ele>90</ele>
        <time>2011-01-09T09:57:31Z</time>
      </trkpt>
      <trkpt lat="43.47394" lon="6.83003">
        <ele>91</ele>
        <time>2011-01-09T09:57:32Z</time>
      </trkpt>
      <trkpt lat="43.47391" lon="6.83007">
        <ele>91</ele>
        <time>2011-01-09T09:57:33Z</time>
      </trkpt>
      <trkpt lat="43.47382" lon="6.83014">
        <ele>91</ele>
        <time>2011-01-09T09:57:35Z</time>
      </trkpt>
      <trkpt lat="43.47378" lon="6.83016">
        <ele>91</ele>
        <time>2011-01-09T09:57:36Z</time>
      </trkpt>
      <trkpt lat="43.47373" lon="6.83018">
        <ele>91</ele>
        <time>2011-01-09T09:57:37Z</time>
      </trkpt>
      <trkpt lat="43.47368" lon="6.83018">
        <ele>91</ele>
        <time>2011-01-09T09:57:38Z</time>
      </trkpt>
      <trkpt lat="43.47363" lon="6.83018">
        <ele>91</ele>
        <time>2011-01-09T09:57:39Z</time>
      </trkpt>
      <trkpt lat="43.47333" lon="6.82963">
        <ele>88</ele>
        <time>2011-01-09T09:57:49Z</time>
      </trkpt>
      <trkpt lat="43.47305" lon="6.82898">
        <ele>87</ele>
        <time>2011-01-09T09:57:59Z</time>
      </trkpt>
      <trkpt lat="43.47264" lon="6.82844">
        <ele>86</ele>
        <time>2011-01-09T09:58:09Z</time>
      </trkpt>
      <trkpt lat="43.4724" lon="6.82771">
        <ele>85</ele>
        <time>2011-01-09T09:58:19Z</time>
      </trkpt>
      <trkpt lat="43.47239" lon="6.82693">
        <ele>83</ele>
        <time>2011-01-09T09:58:29Z</time>
      </trkpt>
      <trkpt lat="43.47248" lon="6.82609">
        <ele>82</ele>
        <time>2011-01-09T09:58:39Z</time>
      </trkpt>
      <trkpt lat="43.47287" lon="6.82461">
        <ele>78</ele>
        <time>2011-01-09T09:58:59Z</time>
      </trkpt>
      <trkpt lat="43.47306" lon="6.82374">
        <ele>75</ele>
        <time>2011-01-09T09:59:09Z</time>
      </trkpt>
      <trkpt lat="43.47314" lon="6.82283">
        <ele>75</ele>
        <time>2011-01-09T09:59:19Z</time>
      </trkpt>
      <trkpt lat="43.47332" lon="6.82199">
        <ele>73</ele>
        <time>2011-01-09T09:59:29Z</time>
      </trkpt>
      <trkpt lat="43.47371" lon="6.82136">
        <ele>73</ele>
        <time>2011-01-09T09:59:39Z</time>
      </trkpt>
      <trkpt lat="43.47392" lon="6.82072">
        <ele>75</ele>
        <time>2011-01-09T09:59:49Z</time>
      </trkpt>
      <trkpt lat="43.47393" lon="6.82067">
        <ele>75</ele>
        <time>2011-01-09T09:59:50Z</time>
      </trkpt>
      <trkpt lat="43.47396" lon="6.82059">
        <ele>75</ele>
        <time>2011-01-09T09:59:52Z</time>
      </trkpt>
      <trkpt lat="43.47397" lon="6.82054">
        <ele>76</ele>
        <time>2011-01-09T09:59:53Z</time>
      </trkpt>
      <trkpt lat="43.47399" lon="6.82039">
        <ele>76</ele>
        <time>2011-01-09T09:59:56Z</time>
      </trkpt>
      <trkpt lat="43.474" lon="6.8202">
        <ele>76</ele>
        <time>2011-01-09T10:00:00Z</time>
      </trkpt>
      <trkpt lat="43.474" lon="6.82015">
        <ele>76</ele>
        <time>2011-01-09T10:00:01Z</time>
      </trkpt>
      <trkpt lat="43.474" lon="6.8201">
        <ele>77</ele>
        <time>2011-01-09T10:00:02Z</time>
      </trkpt>
      <trkpt lat="43.47401" lon="6.82">
        <ele>77</ele>
        <time>2011-01-09T10:00:04Z</time>
      </trkpt>
      <trkpt lat="43.47401" lon="6.8199">
        <ele>77</ele>
        <time>2011-01-09T10:00:06Z</time>
      </trkpt>
      <trkpt lat="43.47401" lon="6.81979">
        <ele>77</ele>
        <time>2011-01-09T10:00:08Z</time>
      </trkpt>
      <trkpt lat="43.474" lon="6.81969">
        <ele>77</ele>
        <time>2011-01-09T10:00:10Z</time>
      </trkpt>
      <trkpt lat="43.474" lon="6.81964">
        <ele>77</ele>
        <time>2011-01-09T10:00:11Z</time>
      </trkpt>
      <trkpt lat="43.474" lon="6.81959">
        <ele>77</ele>
        <time>2011-01-09T10:00:12Z</time>
      </trkpt>
      <trkpt lat="43.47399" lon="6.81954">
        <ele>77</ele>
        <time>2011-01-09T10:00:13Z</time>
      </trkpt>
      <trkpt lat="43.47399" lon="6.81949">
        <ele>78</ele>
        <time>2011-01-09T10:00:14Z</time>
      </trkpt>
      <trkpt lat="43.47399" lon="6.81944">
        <ele>78</ele>
        <time>2011-01-09T10:00:15Z</time>
      </trkpt>
      <trkpt lat="43.47398" lon="6.81939">
        <ele>78</ele>
        <time>2011-01-09T10:00:16Z</time>
      </trkpt>
      <trkpt lat="43.47398" lon="6.81934">
        <ele>78</ele>
        <time>2011-01-09T10:00:17Z</time>
      </trkpt>
      <trkpt lat="43.47399" lon="6.81919">
        <ele>78</ele>
        <time>2011-01-09T10:00:20Z</time>
      </trkpt>
      <trkpt lat="43.47399" lon="6.81909">
        <ele>78</ele>
        <time>2011-01-09T10:00:22Z</time>
      </trkpt>
      <trkpt lat="43.47398" lon="6.81893">
        <ele>79</ele>
        <time>2011-01-09T10:00:25Z</time>
      </trkpt>
      <trkpt lat="43.47398" lon="6.81883">
        <ele>79</ele>
        <time>2011-01-09T10:00:27Z</time>
      </trkpt>
      <trkpt lat="43.47396" lon="6.81873">
        <ele>79</ele>
        <time>2011-01-09T10:00:29Z</time>
      </trkpt>
      <trkpt lat="43.47396" lon="6.81868">
        <ele>79</ele>
        <time>2011-01-09T10:00:30Z</time>
      </trkpt>
      <trkpt lat="43.47395" lon="6.81857">
        <ele>79</ele>
        <time>2011-01-09T10:00:32Z</time>
      </trkpt>
      <trkpt lat="43.47396" lon="6.81852">
        <ele>79</ele>
        <time>2011-01-09T10:00:33Z</time>
      </trkpt>
      <trkpt lat="43.47396" lon="6.81846">
        <ele>79</ele>
        <time>2011-01-09T10:00:34Z</time>
      </trkpt>
      <trkpt lat="43.47396" lon="6.81835">
        <ele>79</ele>
        <time>2011-01-09T10:00:36Z</time>
      </trkpt>
      <trkpt lat="43.47395" lon="6.81829">
        <ele>78</ele>
        <time>2011-01-09T10:00:37Z</time>
      </trkpt>
      <trkpt lat="43.47393" lon="6.81824">
        <ele>78</ele>
        <time>2011-01-09T10:00:38Z</time>
      </trkpt>
      <trkpt lat="43.4739" lon="6.81821">
        <ele>78</ele>
        <time>2011-01-09T10:00:39Z</time>
      </trkpt>
      <trkpt lat="43.47386" lon="6.81819">
        <ele>78</ele>
        <time>2011-01-09T10:00:40Z</time>
      </trkpt>
      <trkpt lat="43.47383" lon="6.81819">
        <ele>78</ele>
        <time>2011-01-09T10:00:41Z</time>
      </trkpt>
      <trkpt lat="43.47379" lon="6.81822">
        <ele>78</ele>
        <time>2011-01-09T10:00:42Z</time>
      </trkpt>
      <trkpt lat="43.47376" lon="6.81825">
        <ele>78</ele>
        <time>2011-01-09T10:00:43Z</time>
      </trkpt>
      <trkpt lat="43.47374" lon="6.81829">
        <ele>78</ele>
        <time>2011-01-09T10:00:44Z</time>
      </trkpt>
      <trkpt lat="43.47372" lon="6.81833">
        <ele>79</ele>
        <time>2011-01-09T10:00:45Z</time>
      </trkpt>
      <trkpt lat="43.47367" lon="6.81853">
        <ele>80</ele>
        <time>2011-01-09T10:00:49Z</time>
      </trkpt>
      <trkpt lat="43.47365" lon="6.81863">
        <ele>80</ele>
        <time>2011-01-09T10:00:51Z</time>
      </trkpt>
      <trkpt lat="43.47365" lon="6.81868">
        <ele>81</ele>
        <time>2011-01-09T10:00:52Z</time>
      </trkpt>
      <trkpt lat="43.47363" lon="6.81878">
        <ele>81</ele>
        <time>2011-01-09T10:00:54Z</time>
      </trkpt>
      <trkpt lat="43.47363" lon="6.81893">
        <ele>81</ele>
        <time>2011-01-09T10:00:57Z</time>
      </trkpt>
      <trkpt lat="43.47363" lon="6.81898">
        <ele>81</ele>
        <time>2011-01-09T10:00:58Z</time>
      </trkpt>
      <trkpt lat="43.47363" lon="6.81903">
        <ele>81</ele>
        <time>2011-01-09T10:00:59Z</time>
      </trkpt>
      <trkpt lat="43.47361" lon="6.81913">
        <ele>82</ele>
        <time>2011-01-09T10:01:01Z</time>
      </trkpt>
      <trkpt lat="43.47361" lon="6.81918">
        <ele>82</ele>
        <time>2011-01-09T10:01:02Z</time>
      </trkpt>
      <trkpt lat="43.47359" lon="6.81928">
        <ele>83</ele>
        <time>2011-01-09T10:01:04Z</time>
      </trkpt>
      <trkpt lat="43.47359" lon="6.81938">
        <ele>83</ele>
        <time>2011-01-09T10:01:06Z</time>
      </trkpt>
      <trkpt lat="43.47359" lon="6.81942">
        <ele>83</ele>
        <time>2011-01-09T10:01:07Z</time>
      </trkpt>
      <trkpt lat="43.47359" lon="6.81947">
        <ele>83</ele>
        <time>2011-01-09T10:01:08Z</time>
      </trkpt>
      <trkpt lat="43.47361" lon="6.81957">
        <ele>83</ele>
        <time>2011-01-09T10:01:10Z</time>
      </trkpt>
      <trkpt lat="43.47361" lon="6.81962">
        <ele>83</ele>
        <time>2011-01-09T10:01:11Z</time>
      </trkpt>
      <trkpt lat="43.47361" lon="6.81971">
        <ele>84</ele>
        <time>2011-01-09T10:01:13Z</time>
      </trkpt>
      <trkpt lat="43.47361" lon="6.81976">
        <ele>84</ele>
        <time>2011-01-09T10:01:14Z</time>
      </trkpt>
      <trkpt lat="43.4736" lon="6.81981">
        <ele>84</ele>
        <time>2011-01-09T10:01:15Z</time>
      </trkpt>
      <trkpt lat="43.47359" lon="6.81986">
        <ele>84</ele>
        <time>2011-01-09T10:01:16Z</time>
      </trkpt>
      <trkpt lat="43.47358" lon="6.8199">
        <ele>85</ele>
        <time>2011-01-09T10:01:17Z</time>
      </trkpt>
      <trkpt lat="43.47357" lon="6.81995">
        <ele>85</ele>
        <time>2011-01-09T10:01:18Z</time>
      </trkpt>
      <trkpt lat="43.47356" lon="6.82">
        <ele>85</ele>
        <time>2011-01-09T10:01:19Z</time>
      </trkpt>
      <trkpt lat="43.47354" lon="6.82004">
        <ele>85</ele>
        <time>2011-01-09T10:01:20Z</time>
      </trkpt>
      <trkpt lat="43.47352" lon="6.82008">
        <ele>85</ele>
        <time>2011-01-09T10:01:21Z</time>
      </trkpt>
      <trkpt lat="43.47351" lon="6.82013">
        <ele>86</ele>
        <time>2011-01-09T10:01:22Z</time>
      </trkpt>
      <trkpt lat="43.47349" lon="6.82017">
        <ele>86</ele>
        <time>2011-01-09T10:01:23Z</time>
      </trkpt>
      <trkpt lat="43.47339" lon="6.82032">
        <ele>86</ele>
        <time>2011-01-09T10:01:27Z</time>
      </trkpt>
      <trkpt lat="43.47334" lon="6.82039">
        <ele>87</ele>
        <time>2011-01-09T10:01:29Z</time>
      </trkpt>
      <trkpt lat="43.47331" lon="6.82042">
        <ele>87</ele>
        <time>2011-01-09T10:01:30Z</time>
      </trkpt>
      <trkpt lat="43.47326" lon="6.8205">
        <ele>87</ele>
        <time>2011-01-09T10:01:32Z</time>
      </trkpt>
      <trkpt lat="43.47324" lon="6.82054">
        <ele>87</ele>
        <time>2011-01-09T10:01:33Z</time>
      </trkpt>
      <trkpt lat="43.47322" lon="6.82058">
        <ele>87</ele>
        <time>2011-01-09T10:01:34Z</time>
      </trkpt>
      <trkpt lat="43.47317" lon="6.82071">
        <ele>87</ele>
        <time>2011-01-09T10:01:37Z</time>
      </trkpt>
      <trkpt lat="43.47315" lon="6.82076">
        <ele>87</ele>
        <time>2011-01-09T10:01:38Z</time>
      </trkpt>
      <trkpt lat="43.4731" lon="6.82084">
        <ele>87</ele>
        <time>2011-01-09T10:01:40Z</time>
      </trkpt>
      <trkpt lat="43.47302" lon="6.82094">
        <ele>88</ele>
        <time>2011-01-09T10:01:43Z</time>
      </trkpt>
      <trkpt lat="43.47292" lon="6.82109">
        <ele>88</ele>
        <time>2011-01-09T10:01:47Z</time>
      </trkpt>
      <trkpt lat="43.4729" lon="6.82113">
        <ele>88</ele>
        <time>2011-01-09T10:01:48Z</time>
      </trkpt>
      <trkpt lat="43.47284" lon="6.82126">
        <ele>89</ele>
        <time>2011-01-09T10:01:51Z</time>
      </trkpt>
      <trkpt lat="43.47281" lon="6.82135">
        <ele>89</ele>
        <time>2011-01-09T10:01:53Z</time>
      </trkpt>
      <trkpt lat="43.47277" lon="6.82144">
        <ele>89</ele>
        <time>2011-01-09T10:01:55Z</time>
      </trkpt>
      <trkpt lat="43.47269" lon="6.8216">
        <ele>90</ele>
        <time>2011-01-09T10:01:59Z</time>
      </trkpt>
      <trkpt lat="43.47264" lon="6.82168">
        <ele>91</ele>
        <time>2011-01-09T10:02:01Z</time>
      </trkpt>
      <trkpt lat="43.4726" lon="6.82176">
        <ele>91</ele>
        <time>2011-01-09T10:02:03Z</time>
      </trkpt>
      <trkpt lat="43.47258" lon="6.82181">
        <ele>91</ele>
        <time>2011-01-09T10:02:04Z</time>
      </trkpt>
      <trkpt lat="43.47255" lon="6.8219">
        <ele>91</ele>
        <time>2011-01-09T10:02:06Z</time>
      </trkpt>
      <trkpt lat="43.4725" lon="6.82203">
        <ele>92</ele>
        <time>2011-01-09T10:02:09Z</time>
      </trkpt>
      <trkpt lat="43.47248" lon="6.82207">
        <ele>92</ele>
        <time>2011-01-09T10:02:10Z</time>
      </trkpt>
      <trkpt lat="43.47247" lon="6.82211">
        <ele>92</ele>
        <time>2011-01-09T10:02:11Z</time>
      </trkpt>
      <trkpt lat="43.47243" lon="6.82219">
        <ele>93</ele>
        <time>2011-01-09T10:02:13Z</time>
      </trkpt>
      <trkpt lat="43.4724" lon="6.82223">
        <ele>93</ele>
        <time>2011-01-09T10:02:14Z</time>
      </trkpt>
      <trkpt lat="43.47238" lon="6.82226">
        <ele>93</ele>
        <time>2011-01-09T10:02:15Z</time>
      </trkpt>
      <trkpt lat="43.47232" lon="6.82231">
        <ele>93</ele>
        <time>2011-01-09T10:02:17Z</time>
      </trkpt>
      <trkpt lat="43.47226" lon="6.82238">
        <ele>93</ele>
        <time>2011-01-09T10:02:19Z</time>
      </trkpt>
      <trkpt lat="43.47224" lon="6.82241">
        <ele>94</ele>
        <time>2011-01-09T10:02:20Z</time>
      </trkpt>
      <trkpt lat="43.47215" lon="6.82249">
        <ele>94</ele>
        <time>2011-01-09T10:02:23Z</time>
      </trkpt>
      <trkpt lat="43.4721" lon="6.82255">
        <ele>95</ele>
        <time>2011-01-09T10:02:25Z</time>
      </trkpt>
      <trkpt lat="43.47202" lon="6.82262">
        <ele>96</ele>
        <time>2011-01-09T10:02:28Z</time>
      </trkpt>
      <trkpt lat="43.47196" lon="6.82268">
        <ele>96</ele>
        <time>2011-01-09T10:02:30Z</time>
      </trkpt>
      <trkpt lat="43.47193" lon="6.8227">
        <ele>97</ele>
        <time>2011-01-09T10:02:31Z</time>
      </trkpt>
      <trkpt lat="43.47184" lon="6.82277">
        <ele>97</ele>
        <time>2011-01-09T10:02:34Z</time>
      </trkpt>
      <trkpt lat="43.47178" lon="6.82282">
        <ele>98</ele>
        <time>2011-01-09T10:02:36Z</time>
      </trkpt>
      <trkpt lat="43.47173" lon="6.82286">
        <ele>98</ele>
        <time>2011-01-09T10:02:38Z</time>
      </trkpt>
      <trkpt lat="43.4717" lon="6.82288">
        <ele>98</ele>
        <time>2011-01-09T10:02:39Z</time>
      </trkpt>
      <trkpt lat="43.47167" lon="6.82289">
        <ele>98</ele>
        <time>2011-01-09T10:02:40Z</time>
      </trkpt>
      <trkpt lat="43.47163" lon="6.8229">
        <ele>98</ele>
        <time>2011-01-09T10:02:41Z</time>
      </trkpt>
      <trkpt lat="43.4716" lon="6.8229">
        <ele>99</ele>
        <time>2011-01-09T10:02:42Z</time>
      </trkpt>
      <trkpt lat="43.47157" lon="6.82289">
        <ele>99</ele>
        <time>2011-01-09T10:02:43Z</time>
      </trkpt>
      <trkpt lat="43.47154" lon="6.82287">
        <ele>99</ele>
        <time>2011-01-09T10:02:44Z</time>
      </trkpt>
      <trkpt lat="43.47151" lon="6.82286">
        <ele>99</ele>
        <time>2011-01-09T10:02:45Z</time>
      </trkpt>
      <trkpt lat="43.47145" lon="6.82281">
        <ele>100</ele>
        <time>2011-01-09T10:02:47Z</time>
      </trkpt>
      <trkpt lat="43.47139" lon="6.82276">
        <ele>100</ele>
        <time>2011-01-09T10:02:49Z</time>
      </trkpt>
      <trkpt lat="43.47131" lon="6.8227">
        <ele>101</ele>
        <time>2011-01-09T10:02:52Z</time>
      </trkpt>
      <trkpt lat="43.47128" lon="6.82268">
        <ele>101</ele>
        <time>2011-01-09T10:02:53Z</time>
      </trkpt>
      <trkpt lat="43.47125" lon="6.82266">
        <ele>102</ele>
        <time>2011-01-09T10:02:54Z</time>
      </trkpt>
      <trkpt lat="43.47122" lon="6.82263">
        <ele>102</ele>
        <time>2011-01-09T10:02:55Z</time>
      </trkpt>
      <trkpt lat="43.4712" lon="6.8226">
        <ele>102</ele>
        <time>2011-01-09T10:02:56Z</time>
      </trkpt>
      <trkpt lat="43.47115" lon="6.82255">
        <ele>102</ele>
        <time>2011-01-09T10:02:58Z</time>
      </trkpt>
      <trkpt lat="43.47111" lon="6.82249">
        <ele>102</ele>
        <time>2011-01-09T10:03:00Z</time>
      </trkpt>
      <trkpt lat="43.47109" lon="6.82246">
        <ele>103</ele>
        <time>2011-01-09T10:03:01Z</time>
      </trkpt>
      <trkpt lat="43.47108" lon="6.82242">
        <ele>103</ele>
        <time>2011-01-09T10:03:02Z</time>
      </trkpt>
      <trkpt lat="43.47108" lon="6.82239">
        <ele>103</ele>
        <time>2011-01-09T10:03:03Z</time>
      </trkpt>
      <trkpt lat="43.47108" lon="6.82236">
        <ele>103</ele>
        <time>2011-01-09T10:03:04Z</time>
      </trkpt>
      <trkpt lat="43.47108" lon="6.82234">
        <ele>103</ele>
        <time>2011-01-09T10:03:05Z</time>
      </trkpt>
      <trkpt lat="43.47109" lon="6.82231">
        <ele>103</ele>
        <time>2011-01-09T10:03:06Z</time>
      </trkpt>
      <trkpt lat="43.4711" lon="6.82229">
        <ele>103</ele>
        <time>2011-01-09T10:03:07Z</time>
      </trkpt>
      <trkpt lat="43.47112" lon="6.82227">
        <ele>103</ele>
        <time>2011-01-09T10:03:08Z</time>
      </trkpt>
      <trkpt lat="43.47114" lon="6.82226">
        <ele>103</ele>
        <time>2011-01-09T10:03:09Z</time>
      </trkpt>
      <trkpt lat="43.47118" lon="6.82225">
        <ele>104</ele>
        <time>2011-01-09T10:03:11Z</time>
      </trkpt>
      <trkpt lat="43.47123" lon="6.82223">
        <ele>105</ele>
        <time>2011-01-09T10:03:14Z</time>
      </trkpt>
      <trkpt lat="43.47127" lon="6.82221">
        <ele>105</ele>
        <time>2011-01-09T10:03:16Z</time>
      </trkpt>
      <trkpt lat="43.47132" lon="6.8222">
        <ele>106</ele>
        <time>2011-01-09T10:03:18Z</time>
      </trkpt>
      <trkpt lat="43.47136" lon="6.82219">
        <ele>106</ele>
        <time>2011-01-09T10:03:20Z</time>
      </trkpt>
      <trkpt lat="43.47148" lon="6.82213">
        <ele>108</ele>
        <time>2011-01-09T10:03:26Z</time>
      </trkpt>
      <trkpt lat="43.47152" lon="6.82211">
        <ele>108</ele>
        <time>2011-01-09T10:03:28Z</time>
      </trkpt>
      <trkpt lat="43.47154" lon="6.82209">
        <ele>108</ele>
        <time>2011-01-09T10:03:29Z</time>
      </trkpt>
      <trkpt lat="43.47155" lon="6.82207">
        <ele>109</ele>
        <time>2011-01-09T10:03:30Z</time>
      </trkpt>
      <trkpt lat="43.47157" lon="6.82206">
        <ele>109</ele>
        <time>2011-01-09T10:03:31Z</time>
      </trkpt>
      <trkpt lat="43.47158" lon="6.82203">
        <ele>109</ele>
        <time>2011-01-09T10:03:32Z</time>
      </trkpt>
      <trkpt lat="43.47159" lon="6.822">
        <ele>109</ele>
        <time>2011-01-09T10:03:33Z</time>
      </trkpt>
      <trkpt lat="43.47159" lon="6.82197">
        <ele>109</ele>
        <time>2011-01-09T10:03:34Z</time>
      </trkpt>
      <trkpt lat="43.47159" lon="6.82194">
        <ele>110</ele>
        <time>2011-01-09T10:03:35Z</time>
      </trkpt>
      <trkpt lat="43.47159" lon="6.82192">
        <ele>110</ele>
        <time>2011-01-09T10:03:36Z</time>
      </trkpt>
      <trkpt lat="43.47158" lon="6.82186">
        <ele>111</ele>
        <time>2011-01-09T10:03:38Z</time>
      </trkpt>
      <trkpt lat="43.47157" lon="6.82184">
        <ele>111</ele>
        <time>2011-01-09T10:03:39Z</time>
      </trkpt>
      <trkpt lat="43.47156" lon="6.82182">
        <ele>111</ele>
        <time>2011-01-09T10:03:40Z</time>
      </trkpt>
      <trkpt lat="43.47151" lon="6.82172">
        <ele>112</ele>
        <time>2011-01-09T10:03:44Z</time>
      </trkpt>
      <trkpt lat="43.4715" lon="6.82169">
        <ele>113</ele>
        <time>2011-01-09T10:03:45Z</time>
      </trkpt>
      <trkpt lat="43.47147" lon="6.82156">
        <ele>114</ele>
        <time>2011-01-09T10:03:50Z</time>
      </trkpt>
      <trkpt lat="43.47146" lon="6.8215">
        <ele>114</ele>
        <time>2011-01-09T10:03:52Z</time>
      </trkpt>
      <trkpt lat="43.47146" lon="6.82147">
        <ele>114</ele>
        <time>2011-01-09T10:03:53Z</time>
      </trkpt>
      <trkpt lat="43.47148" lon="6.82139">
        <ele>115</ele>
        <time>2011-01-09T10:03:56Z</time>
      </trkpt>
      <trkpt lat="43.47149" lon="6.82137">
        <ele>115</ele>
        <time>2011-01-09T10:03:57Z</time>
      </trkpt>
      <trkpt lat="43.4715" lon="6.82135">
        <ele>115</ele>
        <time>2011-01-09T10:03:58Z</time>
      </trkpt>
      <trkpt lat="43.47152" lon="6.82133">
        <ele>115</ele>
        <time>2011-01-09T10:03:59Z</time>
      </trkpt>
      <trkpt lat="43.47153" lon="6.82131">
        <ele>115</ele>
        <time>2011-01-09T10:04:00Z</time>
      </trkpt>
      <trkpt lat="43.47155" lon="6.8213">
        <ele>116</ele>
        <time>2011-01-09T10:04:01Z</time>
      </trkpt>
      <trkpt lat="43.47156" lon="6.82128">
        <ele>116</ele>
        <time>2011-01-09T10:04:02Z</time>
      </trkpt>
      <trkpt lat="43.47158" lon="6.82127">
        <ele>116</ele>
        <time>2011-01-09T10:04:03Z</time>
      </trkpt>
      <trkpt lat="43.47164" lon="6.82123">
        <ele>117</ele>
        <time>2011-01-09T10:04:06Z</time>
      </trkpt>
      <trkpt lat="43.47165" lon="6.82122">
        <ele>117</ele>
        <time>2011-01-09T10:04:07Z</time>
      </trkpt>
      <trkpt lat="43.47167" lon="6.82119">
        <ele>117</ele>
        <time>2011-01-09T10:04:08Z</time>
      </trkpt>
      <trkpt lat="43.47167" lon="6.82117">
        <ele>117</ele>
        <time>2011-01-09T10:04:09Z</time>
      </trkpt>
      <trkpt lat="43.47168" lon="6.82114">
        <ele>118</ele>
        <time>2011-01-09T10:04:10Z</time>
      </trkpt>
      <trkpt lat="43.47169" lon="6.82105">
        <ele>118</ele>
        <time>2011-01-09T10:04:13Z</time>
      </trkpt>
      <trkpt lat="43.47169" lon="6.821">
        <ele>118</ele>
        <time>2011-01-09T10:04:15Z</time>
      </trkpt>
      <trkpt lat="43.47169" lon="6.82097">
        <ele>119</ele>
        <time>2011-01-09T10:04:16Z</time>
      </trkpt>
      <trkpt lat="43.47169" lon="6.82092">
        <ele>119</ele>
        <time>2011-01-09T10:04:18Z</time>
      </trkpt>
      <trkpt lat="43.47169" lon="6.82086">
        <ele>119</ele>
        <time>2011-01-09T10:04:20Z</time>
      </trkpt>
      <trkpt lat="43.47169" lon="6.82084">
        <ele>120</ele>
        <time>2011-01-09T10:04:21Z</time>
      </trkpt>
      <trkpt lat="43.47169" lon="6.82078">
        <ele>120</ele>
        <time>2011-01-09T10:04:23Z</time>
      </trkpt>
      <trkpt lat="43.4717" lon="6.82075">
        <ele>120</ele>
        <time>2011-01-09T10:04:24Z</time>
      </trkpt>
      <trkpt lat="43.47171" lon="6.82073">
        <ele>120</ele>
        <time>2011-01-09T10:04:25Z</time>
      </trkpt>
      <trkpt lat="43.47171" lon="6.8207">
        <ele>120</ele>
        <time>2011-01-09T10:04:26Z</time>
      </trkpt>
      <trkpt lat="43.47173" lon="6.82066">
        <ele>121</ele>
        <time>2011-01-09T10:04:28Z</time>
      </trkpt>
      <trkpt lat="43.47176" lon="6.82062">
        <ele>121</ele>
        <time>2011-01-09T10:04:30Z</time>
      </trkpt>
      <trkpt lat="43.47178" lon="6.8206">
        <ele>121</ele>
        <time>2011-01-09T10:04:31Z</time>
      </trkpt>
      <trkpt lat="43.47179" lon="6.82059">
        <ele>122</ele>
        <time>2011-01-09T10:04:32Z</time>
      </trkpt>
      <trkpt lat="43.47182" lon="6.82056">
        <ele>122</ele>
        <time>2011-01-09T10:04:34Z</time>
      </trkpt>
      <trkpt lat="43.47183" lon="6.82054">
        <ele>122</ele>
        <time>2011-01-09T10:04:35Z</time>
      </trkpt>
      <trkpt lat="43.47185" lon="6.82052">
        <ele>123</ele>
        <time>2011-01-09T10:04:36Z</time>
      </trkpt>
      <trkpt lat="43.47189" lon="6.82046">
        <ele>123</ele>
        <time>2011-01-09T10:04:39Z</time>
      </trkpt>
      <trkpt lat="43.4719" lon="6.82045">
        <ele>123</ele>
        <time>2011-01-09T10:04:40Z</time>
      </trkpt>
      <trkpt lat="43.47193" lon="6.82042">
        <ele>124</ele>
        <time>2011-01-09T10:04:42Z</time>
      </trkpt>
      <trkpt lat="43.47198" lon="6.82033">
        <ele>125</ele>
        <time>2011-01-09T10:04:46Z</time>
      </trkpt>
      <trkpt lat="43.47199" lon="6.82032">
        <ele>125</ele>
        <time>2011-01-09T10:04:47Z</time>
      </trkpt>
      <trkpt lat="43.47203" lon="6.82025">
        <ele>126</ele>
        <time>2011-01-09T10:04:50Z</time>
      </trkpt>
      <trkpt lat="43.47204" lon="6.82023">
        <ele>126</ele>
        <time>2011-01-09T10:04:51Z</time>
      </trkpt>
      <trkpt lat="43.47206" lon="6.82019">
        <ele>126</ele>
        <time>2011-01-09T10:04:53Z</time>
      </trkpt>
      <trkpt lat="43.47209" lon="6.82015">
        <ele>127</ele>
        <time>2011-01-09T10:04:55Z</time>
      </trkpt>
      <trkpt lat="43.4721" lon="6.82013">
        <ele>127</ele>
        <time>2011-01-09T10:04:56Z</time>
      </trkpt>
      <trkpt lat="43.47212" lon="6.82009">
        <ele>128</ele>
        <time>2011-01-09T10:04:58Z</time>
      </trkpt>
      <trkpt lat="43.47214" lon="6.82005">
        <ele>128</ele>
        <time>2011-01-09T10:05:00Z</time>
      </trkpt>
      <trkpt lat="43.47217" lon="6.81996">
        <ele>129</ele>
        <time>2011-01-09T10:05:04Z</time>
      </trkpt>
      <trkpt lat="43.47219" lon="6.81989">
        <ele>130</ele>
        <time>2011-01-09T10:05:07Z</time>
      </trkpt>
      <trkpt lat="43.4722" lon="6.81986">
        <ele>130</ele>
        <time>2011-01-09T10:05:08Z</time>
      </trkpt>
      <trkpt lat="43.47222" lon="6.81983">
        <ele>130</ele>
        <time>2011-01-09T10:05:10Z</time>
      </trkpt>
      <trkpt lat="43.47226" lon="6.81978">
        <ele>131</ele>
        <time>2011-01-09T10:05:13Z</time>
      </trkpt>
      <trkpt lat="43.47227" lon="6.81976">
        <ele>131</ele>
        <time>2011-01-09T10:05:14Z</time>
      </trkpt>
      <trkpt lat="43.47229" lon="6.81972">
        <ele>131</ele>
        <time>2011-01-09T10:05:17Z</time>
      </trkpt>
      <trkpt lat="43.47231" lon="6.8197">
        <ele>130</ele>
        <time>2011-01-09T10:05:19Z</time>
      </trkpt>
      <trkpt lat="43.47232" lon="6.81968">
        <ele>130</ele>
        <time>2011-01-09T10:05:20Z</time>
      </trkpt>
      <trkpt lat="43.47234" lon="6.81966">
        <ele>130</ele>
        <time>2011-01-09T10:05:21Z</time>
      </trkpt>
      <trkpt lat="43.47235" lon="6.81962">
        <ele>130</ele>
        <time>2011-01-09T10:05:22Z</time>
      </trkpt>
      <trkpt lat="43.47237" lon="6.81955">
        <ele>129</ele>
        <time>2011-01-09T10:05:24Z</time>
      </trkpt>
      <trkpt lat="43.47243" lon="6.81942">
        <ele>128</ele>
        <time>2011-01-09T10:05:28Z</time>
      </trkpt>
      <trkpt lat="43.47246" lon="6.81935">
        <ele>127</ele>
        <time>2011-01-09T10:05:30Z</time>
      </trkpt>
      <trkpt lat="43.47249" lon="6.81928">
        <ele>126</ele>
        <time>2011-01-09T10:05:32Z</time>
      </trkpt>
      <trkpt lat="43.47251" lon="6.81924">
        <ele>126</ele>
        <time>2011-01-09T10:05:33Z</time>
      </trkpt>
      <trkpt lat="43.47252" lon="6.81919">
        <ele>125</ele>
        <time>2011-01-09T10:05:34Z</time>
      </trkpt>
      <trkpt lat="43.47253" lon="6.81914">
        <ele>125</ele>
        <time>2011-01-09T10:05:35Z</time>
      </trkpt>
      <trkpt lat="43.47254" lon="6.81909">
        <ele>125</ele>
        <time>2011-01-09T10:05:36Z</time>
      </trkpt>
      <trkpt lat="43.47255" lon="6.81904">
        <ele>124</ele>
        <time>2011-01-09T10:05:37Z</time>
      </trkpt>
      <trkpt lat="43.4726" lon="6.81883">
        <ele>122</ele>
        <time>2011-01-09T10:05:41Z</time>
      </trkpt>
      <trkpt lat="43.47262" lon="6.81878">
        <ele>122</ele>
        <time>2011-01-09T10:05:42Z</time>
      </trkpt>
      <trkpt lat="43.47264" lon="6.81874">
        <ele>121</ele>
        <time>2011-01-09T10:05:43Z</time>
      </trkpt>
      <trkpt lat="43.47269" lon="6.81857">
        <ele>120</ele>
        <time>2011-01-09T10:05:46Z</time>
      </trkpt>
      <trkpt lat="43.47272" lon="6.81852">
        <ele>120</ele>
        <time>2011-01-09T10:05:47Z</time>
      </trkpt>
      <trkpt lat="43.47282" lon="6.81837">
        <ele>118</ele>
        <time>2011-01-09T10:05:50Z</time>
      </trkpt>
      <trkpt lat="43.47309" lon="6.81775">
        <ele>116</ele>
        <time>2011-01-09T10:06:00Z</time>
      </trkpt>
      <trkpt lat="43.47312" lon="6.81764">
        <ele>116</ele>
        <time>2011-01-09T10:06:02Z</time>
      </trkpt>
      <trkpt lat="43.47318" lon="6.8175">
        <ele>117</ele>
        <time>2011-01-09T10:06:05Z</time>
      </trkpt>
      <trkpt lat="43.47319" lon="6.81746">
        <ele>117</ele>
        <time>2011-01-09T10:06:06Z</time>
      </trkpt>
      <trkpt lat="43.47321" lon="6.81738">
        <ele>117</ele>
        <time>2011-01-09T10:06:08Z</time>
      </trkpt>
      <trkpt lat="43.47323" lon="6.81731">
        <ele>117</ele>
        <time>2011-01-09T10:06:10Z</time>
      </trkpt>
      <trkpt lat="43.47326" lon="6.81723">
        <ele>117</ele>
        <time>2011-01-09T10:06:12Z</time>
      </trkpt>
      <trkpt lat="43.47328" lon="6.81715">
        <ele>117</ele>
        <time>2011-01-09T10:06:14Z</time>
      </trkpt>
      <trkpt lat="43.4733" lon="6.81707">
        <ele>117</ele>
        <time>2011-01-09T10:06:16Z</time>
      </trkpt>
      <trkpt lat="43.47332" lon="6.817">
        <ele>117</ele>
        <time>2011-01-09T10:06:18Z</time>
      </trkpt>
      <trkpt lat="43.47333" lon="6.81696">
        <ele>117</ele>
        <time>2011-01-09T10:06:19Z</time>
      </trkpt>
      <trkpt lat="43.47335" lon="6.81692">
        <ele>117</ele>
        <time>2011-01-09T10:06:20Z</time>
      </trkpt>
      <trkpt lat="43.47338" lon="6.81685">
        <ele>117</ele>
        <time>2011-01-09T10:06:22Z</time>
      </trkpt>
      <trkpt lat="43.47347" lon="6.81659">
        <ele>118</ele>
        <time>2011-01-09T10:06:30Z</time>
      </trkpt>
      <trkpt lat="43.47348" lon="6.81656">
        <ele>118</ele>
        <time>2011-01-09T10:06:31Z</time>
      </trkpt>
      <trkpt lat="43.47349" lon="6.8165">
        <ele>119</ele>
        <time>2011-01-09T10:06:33Z</time>
      </trkpt>
      <trkpt lat="43.4735" lon="6.81647">
        <ele>119</ele>
        <time>2011-01-09T10:06:34Z</time>
      </trkpt>
      <trkpt lat="43.47352" lon="6.81641">
        <ele>119</ele>
        <time>2011-01-09T10:06:36Z</time>
      </trkpt>
      <trkpt lat="43.47354" lon="6.81636">
        <ele>120</ele>
        <time>2011-01-09T10:06:38Z</time>
      </trkpt>
      <trkpt lat="43.47356" lon="6.8163">
        <ele>120</ele>
        <time>2011-01-09T10:06:40Z</time>
      </trkpt>
      <trkpt lat="43.4736" lon="6.81623">
        <ele>121</ele>
        <time>2011-01-09T10:06:43Z</time>
      </trkpt>
      <trkpt lat="43.47364" lon="6.81611">
        <ele>121</ele>
        <time>2011-01-09T10:06:47Z</time>
      </trkpt>
      <trkpt lat="43.47368" lon="6.81599">
        <ele>122</ele>
        <time>2011-01-09T10:06:51Z</time>
      </trkpt>
      <trkpt lat="43.47369" lon="6.81594">
        <ele>122</ele>
        <time>2011-01-09T10:06:53Z</time>
      </trkpt>
      <trkpt lat="43.4737" lon="6.81591">
        <ele>122</ele>
        <time>2011-01-09T10:06:54Z</time>
      </trkpt>
      <trkpt lat="43.47371" lon="6.81588">
        <ele>122</ele>
        <time>2011-01-09T10:06:55Z</time>
      </trkpt>
      <trkpt lat="43.47372" lon="6.81586">
        <ele>122</ele>
        <time>2011-01-09T10:06:56Z</time>
      </trkpt>
      <trkpt lat="43.47373" lon="6.81584">
        <ele>122</ele>
        <time>2011-01-09T10:06:57Z</time>
      </trkpt>
      <trkpt lat="43.47377" lon="6.8158">
        <ele>123</ele>
        <time>2011-01-09T10:06:59Z</time>
      </trkpt>
      <trkpt lat="43.47379" lon="6.81578">
        <ele>123</ele>
        <time>2011-01-09T10:07:00Z</time>
      </trkpt>
      <trkpt lat="43.47381" lon="6.81577">
        <ele>123</ele>
        <time>2011-01-09T10:07:01Z</time>
      </trkpt>
      <trkpt lat="43.47386" lon="6.81576">
        <ele>123</ele>
        <time>2011-01-09T10:07:03Z</time>
      </trkpt>
      <trkpt lat="43.47391" lon="6.81577">
        <ele>123</ele>
        <time>2011-01-09T10:07:05Z</time>
      </trkpt>
      <trkpt lat="43.47398" lon="6.81578">
        <ele>124</ele>
        <time>2011-01-09T10:07:08Z</time>
      </trkpt>
      <trkpt lat="43.47407" lon="6.81578">
        <ele>124</ele>
        <time>2011-01-09T10:07:12Z</time>
      </trkpt>
      <trkpt lat="43.4741" lon="6.81578">
        <ele>124</ele>
        <time>2011-01-09T10:07:13Z</time>
      </trkpt>
      <trkpt lat="43.47412" lon="6.81577">
        <ele>125</ele>
        <time>2011-01-09T10:07:14Z</time>
      </trkpt>
      <trkpt lat="43.47414" lon="6.81576">
        <ele>125</ele>
        <time>2011-01-09T10:07:15Z</time>
      </trkpt>
      <trkpt lat="43.47419" lon="6.81574">
        <ele>125</ele>
        <time>2011-01-09T10:07:17Z</time>
      </trkpt>
      <trkpt lat="43.47425" lon="6.81569">
        <ele>125</ele>
        <time>2011-01-09T10:07:20Z</time>
      </trkpt>
      <trkpt lat="43.47427" lon="6.81568">
        <ele>125</ele>
        <time>2011-01-09T10:07:21Z</time>
      </trkpt>
      <trkpt lat="43.47435" lon="6.81563">
        <ele>126</ele>
        <time>2011-01-09T10:07:25Z</time>
      </trkpt>
      <trkpt lat="43.47439" lon="6.8156">
        <ele>126</ele>
        <time>2011-01-09T10:07:27Z</time>
      </trkpt>
      <trkpt lat="43.4744" lon="6.81558">
        <ele>126</ele>
        <time>2011-01-09T10:07:28Z</time>
      </trkpt>
      <trkpt lat="43.47443" lon="6.81557">
        <ele>126</ele>
        <time>2011-01-09T10:07:29Z</time>
      </trkpt>
      <trkpt lat="43.47444" lon="6.81556">
        <ele>126</ele>
        <time>2011-01-09T10:07:30Z</time>
      </trkpt>
      <trkpt lat="43.47446" lon="6.81555">
        <ele>126</ele>
        <time>2011-01-09T10:07:31Z</time>
      </trkpt>
      <trkpt lat="43.47449" lon="6.81551">
        <ele>127</ele>
        <time>2011-01-09T10:07:33Z</time>
      </trkpt>
      <trkpt lat="43.47452" lon="6.81548">
        <ele>127</ele>
        <time>2011-01-09T10:07:35Z</time>
      </trkpt>
      <trkpt lat="43.47456" lon="6.81544">
        <ele>127</ele>
        <time>2011-01-09T10:07:37Z</time>
      </trkpt>
      <trkpt lat="43.47459" lon="6.8154">
        <ele>128</ele>
        <time>2011-01-09T10:07:39Z</time>
      </trkpt>
      <trkpt lat="43.47461" lon="6.81538">
        <ele>128</ele>
        <time>2011-01-09T10:07:40Z</time>
      </trkpt>
      <trkpt lat="43.47464" lon="6.81535">
        <ele>128</ele>
        <time>2011-01-09T10:07:42Z</time>
      </trkpt>
      <trkpt lat="43.47467" lon="6.8153">
        <ele>128</ele>
        <time>2011-01-09T10:07:44Z</time>
      </trkpt>
      <trkpt lat="43.47471" lon="6.81526">
        <ele>128</ele>
        <time>2011-01-09T10:07:46Z</time>
      </trkpt>
      <trkpt lat="43.47474" lon="6.81523">
        <ele>128</ele>
        <time>2011-01-09T10:07:48Z</time>
      </trkpt>
      <trkpt lat="43.47475" lon="6.81521">
        <ele>129</ele>
        <time>2011-01-09T10:07:49Z</time>
      </trkpt>
      <trkpt lat="43.47476" lon="6.81519">
        <ele>129</ele>
        <time>2011-01-09T10:07:50Z</time>
      </trkpt>
      <trkpt lat="43.47478" lon="6.81514">
        <ele>129</ele>
        <time>2011-01-09T10:07:52Z</time>
      </trkpt>
      <trkpt lat="43.47481" lon="6.81506">
        <ele>129</ele>
        <time>2011-01-09T10:07:55Z</time>
      </trkpt>
      <trkpt lat="43.47482" lon="6.81503">
        <ele>129</ele>
        <time>2011-01-09T10:07:56Z</time>
      </trkpt>
      <trkpt lat="43.47483" lon="6.815">
        <ele>129</ele>
        <time>2011-01-09T10:07:57Z</time>
      </trkpt>
      <trkpt lat="43.47485" lon="6.81495">
        <ele>130</ele>
        <time>2011-01-09T10:07:59Z</time>
      </trkpt>
      <trkpt lat="43.47489" lon="6.81487">
        <ele>130</ele>
        <time>2011-01-09T10:08:02Z</time>
      </trkpt>
      <trkpt lat="43.47491" lon="6.81482">
        <ele>130</ele>
        <time>2011-01-09T10:08:04Z</time>
      </trkpt>
      <trkpt lat="43.47494" lon="6.81477">
        <ele>130</ele>
        <time>2011-01-09T10:08:06Z</time>
      </trkpt>
      <trkpt lat="43.47496" lon="6.81475">
        <ele>130</ele>
        <time>2011-01-09T10:08:07Z</time>
      </trkpt>
      <trkpt lat="43.475" lon="6.81468">
        <ele>131</ele>
        <time>2011-01-09T10:08:10Z</time>
      </trkpt>
      <trkpt lat="43.47503" lon="6.81463">
        <ele>131</ele>
        <time>2011-01-09T10:08:12Z</time>
      </trkpt>
      <trkpt lat="43.47504" lon="6.81461">
        <ele>131</ele>
        <time>2011-01-09T10:08:13Z</time>
      </trkpt>
      <trkpt lat="43.47506" lon="6.81459">
        <ele>131</ele>
        <time>2011-01-09T10:08:14Z</time>
      </trkpt>
      <trkpt lat="43.47516" lon="6.81437">
        <ele>132</ele>
        <time>2011-01-09T10:08:22Z</time>
      </trkpt>
      <trkpt lat="43.47518" lon="6.81431">
        <ele>132</ele>
        <time>2011-01-09T10:08:24Z</time>
      </trkpt>
      <trkpt lat="43.4752" lon="6.81426">
        <ele>133</ele>
        <time>2011-01-09T10:08:26Z</time>
      </trkpt>
      <trkpt lat="43.47525" lon="6.81415">
        <ele>133</ele>
        <time>2011-01-09T10:08:30Z</time>
      </trkpt>
      <trkpt lat="43.47529" lon="6.81407">
        <ele>134</ele>
        <time>2011-01-09T10:08:33Z</time>
      </trkpt>
      <trkpt lat="43.47531" lon="6.81401">
        <ele>134</ele>
        <time>2011-01-09T10:08:35Z</time>
      </trkpt>
      <trkpt lat="43.47538" lon="6.81385">
        <ele>135</ele>
        <time>2011-01-09T10:08:41Z</time>
      </trkpt>
      <trkpt lat="43.47539" lon="6.81382">
        <ele>135</ele>
        <time>2011-01-09T10:08:42Z</time>
      </trkpt>
      <trkpt lat="43.47542" lon="6.81374">
        <ele>136</ele>
        <time>2011-01-09T10:08:45Z</time>
      </trkpt>
      <trkpt lat="43.47543" lon="6.81371">
        <ele>136</ele>
        <time>2011-01-09T10:08:46Z</time>
      </trkpt>
      <trkpt lat="43.47548" lon="6.81346">
        <ele>137</ele>
        <time>2011-01-09T10:08:54Z</time>
      </trkpt>
      <trkpt lat="43.47549" lon="6.81343">
        <ele>137</ele>
        <time>2011-01-09T10:08:55Z</time>
      </trkpt>
      <trkpt lat="43.47551" lon="6.81337">
        <ele>138</ele>
        <time>2011-01-09T10:08:57Z</time>
      </trkpt>
      <trkpt lat="43.47552" lon="6.81334">
        <ele>138</ele>
        <time>2011-01-09T10:08:58Z</time>
      </trkpt>
      <trkpt lat="43.47554" lon="6.81328">
        <ele>138</ele>
        <time>2011-01-09T10:09:00Z</time>
      </trkpt>
      <trkpt lat="43.47562" lon="6.81315">
        <ele>138</ele>
        <time>2011-01-09T10:09:05Z</time>
      </trkpt>
      <trkpt lat="43.47569" lon="6.81303">
        <ele>139</ele>
        <time>2011-01-09T10:09:10Z</time>
      </trkpt>
      <trkpt lat="43.47571" lon="6.813">
        <ele>139</ele>
        <time>2011-01-09T10:09:11Z</time>
      </trkpt>
      <trkpt lat="43.47574" lon="6.81292">
        <ele>140</ele>
        <time>2011-01-09T10:09:14Z</time>
      </trkpt>
      <trkpt lat="43.47576" lon="6.81287">
        <ele>140</ele>
        <time>2011-01-09T10:09:16Z</time>
      </trkpt>
      <trkpt lat="43.47577" lon="6.81284">
        <ele>141</ele>
        <time>2011-01-09T10:09:17Z</time>
      </trkpt>
      <trkpt lat="43.47578" lon="6.81281">
        <ele>141</ele>
        <time>2011-01-09T10:09:18Z</time>
      </trkpt>
      <trkpt lat="43.47581" lon="6.81272">
        <ele>141</ele>
        <time>2011-01-09T10:09:21Z</time>
      </trkpt>
      <trkpt lat="43.47582" lon="6.81269">
        <ele>141</ele>
        <time>2011-01-09T10:09:22Z</time>
      </trkpt>
      <trkpt lat="43.47584" lon="6.81264">
        <ele>142</ele>
        <time>2011-01-09T10:09:24Z</time>
      </trkpt>
      <trkpt lat="43.47586" lon="6.81257">
        <ele>142</ele>
        <time>2011-01-09T10:09:26Z</time>
      </trkpt>
      <trkpt lat="43.47588" lon="6.81255">
        <ele>142</ele>
        <time>2011-01-09T10:09:27Z</time>
      </trkpt>
      <trkpt lat="43.47589" lon="6.81252">
        <ele>142</ele>
        <time>2011-01-09T10:09:28Z</time>
      </trkpt>
      <trkpt lat="43.4759" lon="6.81249">
        <ele>142</ele>
        <time>2011-01-09T10:09:29Z</time>
      </trkpt>
      <trkpt lat="43.47594" lon="6.8124">
        <ele>142</ele>
        <time>2011-01-09T10:09:32Z</time>
      </trkpt>
      <trkpt lat="43.47599" lon="6.81228">
        <ele>143</ele>
        <time>2011-01-09T10:09:36Z</time>
      </trkpt>
      <trkpt lat="43.476" lon="6.81225">
        <ele>143</ele>
        <time>2011-01-09T10:09:37Z</time>
      </trkpt>
      <trkpt lat="43.47605" lon="6.81209">
        <ele>143</ele>
        <time>2011-01-09T10:09:42Z</time>
      </trkpt>
      <trkpt lat="43.47606" lon="6.81206">
        <ele>143</ele>
        <time>2011-01-09T10:09:43Z</time>
      </trkpt>
      <trkpt lat="43.47609" lon="6.81193">
        <ele>144</ele>
        <time>2011-01-09T10:09:47Z</time>
      </trkpt>
      <trkpt lat="43.47609" lon="6.81189">
        <ele>144</ele>
        <time>2011-01-09T10:09:48Z</time>
      </trkpt>
      <trkpt lat="43.47609" lon="6.81186">
        <ele>144</ele>
        <time>2011-01-09T10:09:49Z</time>
      </trkpt>
      <trkpt lat="43.4761" lon="6.81182">
        <ele>144</ele>
        <time>2011-01-09T10:09:50Z</time>
      </trkpt>
      <trkpt lat="43.47611" lon="6.8118">
        <ele>144</ele>
        <time>2011-01-09T10:09:51Z</time>
      </trkpt>
      <trkpt lat="43.47613" lon="6.81178">
        <ele>144</ele>
        <time>2011-01-09T10:09:52Z</time>
      </trkpt>
      <trkpt lat="43.47614" lon="6.81177">
        <ele>144</ele>
        <time>2011-01-09T10:09:53Z</time>
      </trkpt>
      <trkpt lat="43.47616" lon="6.81173">
        <ele>144</ele>
        <time>2011-01-09T10:09:55Z</time>
      </trkpt>
      <trkpt lat="43.47619" lon="6.8117">
        <ele>144</ele>
        <time>2011-01-09T10:09:57Z</time>
      </trkpt>
      <trkpt lat="43.47621" lon="6.81166">
        <ele>144</ele>
        <time>2011-01-09T10:09:59Z</time>
      </trkpt>
      <trkpt lat="43.47623" lon="6.81164">
        <ele>144</ele>
        <time>2011-01-09T10:10:00Z</time>
      </trkpt>
      <trkpt lat="43.47628" lon="6.81162">
        <ele>144</ele>
        <time>2011-01-09T10:10:02Z</time>
      </trkpt>
      <trkpt lat="43.4763" lon="6.8116">
        <ele>144</ele>
        <time>2011-01-09T10:10:03Z</time>
      </trkpt>
      <trkpt lat="43.47632" lon="6.81159">
        <ele>144</ele>
        <time>2011-01-09T10:10:04Z</time>
      </trkpt>
      <trkpt lat="43.47637" lon="6.81156">
        <ele>145</ele>
        <time>2011-01-09T10:10:06Z</time>
      </trkpt>
      <trkpt lat="43.47642" lon="6.81152">
        <ele>146</ele>
        <time>2011-01-09T10:10:09Z</time>
      </trkpt>
      <trkpt lat="43.47646" lon="6.81148">
        <ele>146</ele>
        <time>2011-01-09T10:10:11Z</time>
      </trkpt>
      <trkpt lat="43.47655" lon="6.81138">
        <ele>147</ele>
        <time>2011-01-09T10:10:16Z</time>
      </trkpt>
      <trkpt lat="43.47659" lon="6.81134">
        <ele>148</ele>
        <time>2011-01-09T10:10:18Z</time>
      </trkpt>
      <trkpt lat="43.47664" lon="6.81127">
        <ele>149</ele>
        <time>2011-01-09T10:10:21Z</time>
      </trkpt>
      <trkpt lat="43.47668" lon="6.81123">
        <ele>149</ele>
        <time>2011-01-09T10:10:23Z</time>
      </trkpt>
      <trkpt lat="43.47672" lon="6.81119">
        <ele>150</ele>
        <time>2011-01-09T10:10:25Z</time>
      </trkpt>
      <trkpt lat="43.47676" lon="6.81115">
        <ele>150</ele>
        <time>2011-01-09T10:10:27Z</time>
      </trkpt>
      <trkpt lat="43.47686" lon="6.81101">
        <ele>151</ele>
        <time>2011-01-09T10:10:33Z</time>
      </trkpt>
      <trkpt lat="43.47688" lon="6.81099">
        <ele>151</ele>
        <time>2011-01-09T10:10:34Z</time>
      </trkpt>
      <trkpt lat="43.47689" lon="6.81096">
        <ele>151</ele>
        <time>2011-01-09T10:10:35Z</time>
      </trkpt>
      <trkpt lat="43.47693" lon="6.81092">
        <ele>151</ele>
        <time>2011-01-09T10:10:37Z</time>
      </trkpt>
      <trkpt lat="43.47699" lon="6.81081">
        <ele>152</ele>
        <time>2011-01-09T10:10:41Z</time>
      </trkpt>
      <trkpt lat="43.47704" lon="6.81069">
        <ele>152</ele>
        <time>2011-01-09T10:10:45Z</time>
      </trkpt>
      <trkpt lat="43.47706" lon="6.81066">
        <ele>152</ele>
        <time>2011-01-09T10:10:46Z</time>
      </trkpt>
      <trkpt lat="43.47711" lon="6.81058">
        <ele>153</ele>
        <time>2011-01-09T10:10:49Z</time>
      </trkpt>
      <trkpt lat="43.47714" lon="6.81053">
        <ele>153</ele>
        <time>2011-01-09T10:10:51Z</time>
      </trkpt>
      <trkpt lat="43.47717" lon="6.81051">
        <ele>153</ele>
        <time>2011-01-09T10:10:52Z</time>
      </trkpt>
      <trkpt lat="43.47721" lon="6.81047">
        <ele>153</ele>
        <time>2011-01-09T10:10:54Z</time>
      </trkpt>
      <trkpt lat="43.47724" lon="6.81045">
        <ele>154</ele>
        <time>2011-01-09T10:10:55Z</time>
      </trkpt>
      <trkpt lat="43.47726" lon="6.81044">
        <ele>154</ele>
        <time>2011-01-09T10:10:56Z</time>
      </trkpt>
      <trkpt lat="43.47731" lon="6.81042">
        <ele>154</ele>
        <time>2011-01-09T10:10:58Z</time>
      </trkpt>
      <trkpt lat="43.47733" lon="6.81041">
        <ele>154</ele>
        <time>2011-01-09T10:10:59Z</time>
      </trkpt>
      <trkpt lat="43.47736" lon="6.8104">
        <ele>154</ele>
        <time>2011-01-09T10:11:00Z</time>
      </trkpt>
      <trkpt lat="43.47738" lon="6.81037">
        <ele>154</ele>
        <time>2011-01-09T10:11:01Z</time>
      </trkpt>
      <trkpt lat="43.4774" lon="6.81035">
        <ele>155</ele>
        <time>2011-01-09T10:11:02Z</time>
      </trkpt>
      <trkpt lat="43.47742" lon="6.8103">
        <ele>155</ele>
        <time>2011-01-09T10:11:04Z</time>
      </trkpt>
      <trkpt lat="43.47746" lon="6.81025">
        <ele>155</ele>
        <time>2011-01-09T10:11:06Z</time>
      </trkpt>
      <trkpt lat="43.47747" lon="6.81022">
        <ele>156</ele>
        <time>2011-01-09T10:11:07Z</time>
      </trkpt>
      <trkpt lat="43.47748" lon="6.81019">
        <ele>156</ele>
        <time>2011-01-09T10:11:08Z</time>
      </trkpt>
      <trkpt lat="43.47749" lon="6.81016">
        <ele>156</ele>
        <time>2011-01-09T10:11:09Z</time>
      </trkpt>
      <trkpt lat="43.47749" lon="6.81012">
        <ele>156</ele>
        <time>2011-01-09T10:11:10Z</time>
      </trkpt>
      <trkpt lat="43.4775" lon="6.81009">
        <ele>156</ele>
        <time>2011-01-09T10:11:11Z</time>
      </trkpt>
      <trkpt lat="43.4775" lon="6.80999">
        <ele>156</ele>
        <time>2011-01-09T10:11:14Z</time>
      </trkpt>
      <trkpt lat="43.47751" lon="6.80995">
        <ele>157</ele>
        <time>2011-01-09T10:11:15Z</time>
      </trkpt>
      <trkpt lat="43.47751" lon="6.80992">
        <ele>157</ele>
        <time>2011-01-09T10:11:16Z</time>
      </trkpt>
      <trkpt lat="43.47752" lon="6.80989">
        <ele>157</ele>
        <time>2011-01-09T10:11:17Z</time>
      </trkpt>
      <trkpt lat="43.47753" lon="6.80986">
        <ele>157</ele>
        <time>2011-01-09T10:11:18Z</time>
      </trkpt>
      <trkpt lat="43.47754" lon="6.80983">
        <ele>157</ele>
        <time>2011-01-09T10:11:19Z</time>
      </trkpt>
      <trkpt lat="43.47755" lon="6.8098">
        <ele>157</ele>
        <time>2011-01-09T10:11:20Z</time>
      </trkpt>
      <trkpt lat="43.47757" lon="6.80975">
        <ele>158</ele>
        <time>2011-01-09T10:11:22Z</time>
      </trkpt>
      <trkpt lat="43.4776" lon="6.80966">
        <ele>158</ele>
        <time>2011-01-09T10:11:25Z</time>
      </trkpt>
      <trkpt lat="43.47763" lon="6.80954">
        <ele>158</ele>
        <time>2011-01-09T10:11:29Z</time>
      </trkpt>
      <trkpt lat="43.47764" lon="6.80948">
        <ele>158</ele>
        <time>2011-01-09T10:11:31Z</time>
      </trkpt>
      <trkpt lat="43.47764" lon="6.80936">
        <ele>159</ele>
        <time>2011-01-09T10:11:35Z</time>
      </trkpt>
      <trkpt lat="43.47764" lon="6.80929">
        <ele>159</ele>
        <time>2011-01-09T10:11:37Z</time>
      </trkpt>
      <trkpt lat="43.47763" lon="6.80926">
        <ele>159</ele>
        <time>2011-01-09T10:11:38Z</time>
      </trkpt>
      <trkpt lat="43.47763" lon="6.80923">
        <ele>159</ele>
        <time>2011-01-09T10:11:39Z</time>
      </trkpt>
      <trkpt lat="43.47762" lon="6.80917">
        <ele>160</ele>
        <time>2011-01-09T10:11:41Z</time>
      </trkpt>
      <trkpt lat="43.4776" lon="6.80912">
        <ele>160</ele>
        <time>2011-01-09T10:11:43Z</time>
      </trkpt>
      <trkpt lat="43.4776" lon="6.80909">
        <ele>160</ele>
        <time>2011-01-09T10:11:44Z</time>
      </trkpt>
      <trkpt lat="43.47759" lon="6.80907">
        <ele>160</ele>
        <time>2011-01-09T10:11:45Z</time>
      </trkpt>
      <trkpt lat="43.47759" lon="6.80905">
        <ele>160</ele>
        <time>2011-01-09T10:11:46Z</time>
      </trkpt>
      <trkpt lat="43.47759" lon="6.80903">
        <ele>160</ele>
        <time>2011-01-09T10:11:47Z</time>
      </trkpt>
      <trkpt lat="43.47761" lon="6.80899">
        <ele>160</ele>
        <time>2011-01-09T10:11:49Z</time>
      </trkpt>
      <trkpt lat="43.47762" lon="6.80897">
        <ele>160</ele>
        <time>2011-01-09T10:11:50Z</time>
      </trkpt>
      <trkpt lat="43.47765" lon="6.80893">
        <ele>160</ele>
        <time>2011-01-09T10:11:52Z</time>
      </trkpt>
      <trkpt lat="43.47767" lon="6.80892">
        <ele>160</ele>
        <time>2011-01-09T10:11:53Z</time>
      </trkpt>
      <trkpt lat="43.47769" lon="6.80891">
        <ele>160</ele>
        <time>2011-01-09T10:11:54Z</time>
      </trkpt>
      <trkpt lat="43.47772" lon="6.8089">
        <ele>160</ele>
        <time>2011-01-09T10:11:55Z</time>
      </trkpt>
      <trkpt lat="43.47774" lon="6.80891">
        <ele>160</ele>
        <time>2011-01-09T10:11:56Z</time>
      </trkpt>
      <trkpt lat="43.47779" lon="6.80893">
        <ele>160</ele>
        <time>2011-01-09T10:11:58Z</time>
      </trkpt>
      <trkpt lat="43.47784" lon="6.80895">
        <ele>160</ele>
        <time>2011-01-09T10:12:00Z</time>
      </trkpt>
      <trkpt lat="43.4779" lon="6.80895">
        <ele>160</ele>
        <time>2011-01-09T10:12:02Z</time>
      </trkpt>
      <trkpt lat="43.47792" lon="6.80896">
        <ele>160</ele>
        <time>2011-01-09T10:12:03Z</time>
      </trkpt>
      <trkpt lat="43.47798" lon="6.80896">
        <ele>160</ele>
        <time>2011-01-09T10:12:05Z</time>
      </trkpt>
      <trkpt lat="43.47803" lon="6.80896">
        <ele>160</ele>
        <time>2011-01-09T10:12:07Z</time>
      </trkpt>
      <trkpt lat="43.4781" lon="6.80894">
        <ele>161</ele>
        <time>2011-01-09T10:12:10Z</time>
      </trkpt>
      <trkpt lat="43.47815" lon="6.80894">
        <ele>160</ele>
        <time>2011-01-09T10:12:12Z</time>
      </trkpt>
      <trkpt lat="43.47821" lon="6.80892">
        <ele>161</ele>
        <time>2011-01-09T10:12:14Z</time>
      </trkpt>
      <trkpt lat="43.47824" lon="6.8089">
        <ele>161</ele>
        <time>2011-01-09T10:12:15Z</time>
      </trkpt>
      <trkpt lat="43.47826" lon="6.80889">
        <ele>160</ele>
        <time>2011-01-09T10:12:16Z</time>
      </trkpt>
      <trkpt lat="43.47829" lon="6.80887">
        <ele>160</ele>
        <time>2011-01-09T10:12:17Z</time>
      </trkpt>
      <trkpt lat="43.47833" lon="6.80882">
        <ele>161</ele>
        <time>2011-01-09T10:12:19Z</time>
      </trkpt>
      <trkpt lat="43.47835" lon="6.80879">
        <ele>160</ele>
        <time>2011-01-09T10:12:20Z</time>
      </trkpt>
      <trkpt lat="43.47839" lon="6.80873">
        <ele>161</ele>
        <time>2011-01-09T10:12:22Z</time>
      </trkpt>
      <trkpt lat="43.47844" lon="6.80863">
        <ele>161</ele>
        <time>2011-01-09T10:12:25Z</time>
      </trkpt>
      <trkpt lat="43.4785" lon="6.80849">
        <ele>161</ele>
        <time>2011-01-09T10:12:29Z</time>
      </trkpt>
      <trkpt lat="43.47855" lon="6.80844">
        <ele>161</ele>
        <time>2011-01-09T10:12:31Z</time>
      </trkpt>
      <trkpt lat="43.47857" lon="6.80841">
        <ele>161</ele>
        <time>2011-01-09T10:12:32Z</time>
      </trkpt>
      <trkpt lat="43.47863" lon="6.80832">
        <ele>161</ele>
        <time>2011-01-09T10:12:35Z</time>
      </trkpt>
      <trkpt lat="43.47866" lon="6.80829">
        <ele>161</ele>
        <time>2011-01-09T10:12:36Z</time>
      </trkpt>
      <trkpt lat="43.47871" lon="6.80824">
        <ele>161</ele>
        <time>2011-01-09T10:12:38Z</time>
      </trkpt>
      <trkpt lat="43.47879" lon="6.80818">
        <ele>162</ele>
        <time>2011-01-09T10:12:41Z</time>
      </trkpt>
      <trkpt lat="43.47881" lon="6.80816">
        <ele>162</ele>
        <time>2011-01-09T10:12:42Z</time>
      </trkpt>
      <trkpt lat="43.47883" lon="6.80814">
        <ele>162</ele>
        <time>2011-01-09T10:12:43Z</time>
      </trkpt>
      <trkpt lat="43.47886" lon="6.80811">
        <ele>162</ele>
        <time>2011-01-09T10:12:44Z</time>
      </trkpt>
      <trkpt lat="43.47888" lon="6.80809">
        <ele>162</ele>
        <time>2011-01-09T10:12:45Z</time>
      </trkpt>
      <trkpt lat="43.4789" lon="6.80807">
        <ele>162</ele>
        <time>2011-01-09T10:12:46Z</time>
      </trkpt>
      <trkpt lat="43.47892" lon="6.80806">
        <ele>162</ele>
        <time>2011-01-09T10:12:47Z</time>
      </trkpt>
      <trkpt lat="43.47901" lon="6.80802">
        <ele>162</ele>
        <time>2011-01-09T10:12:50Z</time>
      </trkpt>
      <trkpt lat="43.47904" lon="6.808">
        <ele>162</ele>
        <time>2011-01-09T10:12:51Z</time>
      </trkpt>
      <trkpt lat="43.47906" lon="6.80799">
        <ele>162</ele>
        <time>2011-01-09T10:12:52Z</time>
      </trkpt>
      <trkpt lat="43.47909" lon="6.80799">
        <ele>163</ele>
        <time>2011-01-09T10:12:53Z</time>
      </trkpt>
      <trkpt lat="43.47913" lon="6.80798">
        <ele>163</ele>
        <time>2011-01-09T10:12:54Z</time>
      </trkpt>
      <trkpt lat="43.4792" lon="6.80793">
        <ele>163</ele>
        <time>2011-01-09T10:12:57Z</time>
      </trkpt>
      <trkpt lat="43.47923" lon="6.80792">
        <ele>164</ele>
        <time>2011-01-09T10:12:58Z</time>
      </trkpt>
      <trkpt lat="43.47926" lon="6.80792">
        <ele>164</ele>
        <time>2011-01-09T10:12:59Z</time>
      </trkpt>
      <trkpt lat="43.47929" lon="6.80791">
        <ele>164</ele>
        <time>2011-01-09T10:13:00Z</time>
      </trkpt>
      <trkpt lat="43.47931" lon="6.80792">
        <ele>164</ele>
        <time>2011-01-09T10:13:01Z</time>
      </trkpt>
      <trkpt lat="43.47937" lon="6.80795">
        <ele>165</ele>
        <time>2011-01-09T10:13:03Z</time>
      </trkpt>
      <trkpt lat="43.47939" lon="6.80796">
        <ele>165</ele>
        <time>2011-01-09T10:13:04Z</time>
      </trkpt>
      <trkpt lat="43.47942" lon="6.80796">
        <ele>165</ele>
        <time>2011-01-09T10:13:05Z</time>
      </trkpt>
      <trkpt lat="43.47948" lon="6.80797">
        <ele>165</ele>
        <time>2011-01-09T10:13:07Z</time>
      </trkpt>
      <trkpt lat="43.47954" lon="6.80799">
        <ele>165</ele>
        <time>2011-01-09T10:13:09Z</time>
      </trkpt>
      <trkpt lat="43.4796" lon="6.808">
        <ele>166</ele>
        <time>2011-01-09T10:13:11Z</time>
      </trkpt>
      <trkpt lat="43.47965" lon="6.80801">
        <ele>166</ele>
        <time>2011-01-09T10:13:13Z</time>
      </trkpt>
      <trkpt lat="43.47968" lon="6.80801">
        <ele>166</ele>
        <time>2011-01-09T10:13:14Z</time>
      </trkpt>
      <trkpt lat="43.47977" lon="6.80801">
        <ele>166</ele>
        <time>2011-01-09T10:13:17Z</time>
      </trkpt>
      <trkpt lat="43.47983" lon="6.808">
        <ele>166</ele>
        <time>2011-01-09T10:13:19Z</time>
      </trkpt>
      <trkpt lat="43.47988" lon="6.80801">
        <ele>167</ele>
        <time>2011-01-09T10:13:21Z</time>
      </trkpt>
      <trkpt lat="43.48" lon="6.80802">
        <ele>167</ele>
        <time>2011-01-09T10:13:25Z</time>
      </trkpt>
      <trkpt lat="43.48008" lon="6.80802">
        <ele>168</ele>
        <time>2011-01-09T10:13:28Z</time>
      </trkpt>
      <trkpt lat="43.48013" lon="6.80801">
        <ele>168</ele>
        <time>2011-01-09T10:13:30Z</time>
      </trkpt>
      <trkpt lat="43.48016" lon="6.808">
        <ele>168</ele>
        <time>2011-01-09T10:13:31Z</time>
      </trkpt>
      <trkpt lat="43.48026" lon="6.80794">
        <ele>169</ele>
        <time>2011-01-09T10:13:35Z</time>
      </trkpt>
      <trkpt lat="43.48034" lon="6.80789">
        <ele>169</ele>
        <time>2011-01-09T10:13:38Z</time>
      </trkpt>
      <trkpt lat="43.48036" lon="6.80787">
        <ele>169</ele>
        <time>2011-01-09T10:13:39Z</time>
      </trkpt>
      <trkpt lat="43.48046" lon="6.80776">
        <ele>170</ele>
        <time>2011-01-09T10:13:44Z</time>
      </trkpt>
      <trkpt lat="43.48048" lon="6.80774">
        <ele>170</ele>
        <time>2011-01-09T10:13:45Z</time>
      </trkpt>
      <trkpt lat="43.48052" lon="6.80769">
        <ele>170</ele>
        <time>2011-01-09T10:13:47Z</time>
      </trkpt>
      <trkpt lat="43.48054" lon="6.80767">
        <ele>170</ele>
        <time>2011-01-09T10:13:48Z</time>
      </trkpt>
      <trkpt lat="43.48063" lon="6.80754">
        <ele>171</ele>
        <time>2011-01-09T10:13:53Z</time>
      </trkpt>
      <trkpt lat="43.48065" lon="6.80751">
        <ele>171</ele>
        <time>2011-01-09T10:13:54Z</time>
      </trkpt>
      <trkpt lat="43.48068" lon="6.80745">
        <ele>171</ele>
        <time>2011-01-09T10:13:56Z</time>
      </trkpt>
      <trkpt lat="43.48072" lon="6.80736">
        <ele>171</ele>
        <time>2011-01-09T10:13:59Z</time>
      </trkpt>
      <trkpt lat="43.48075" lon="6.80729">
        <ele>172</ele>
        <time>2011-01-09T10:14:01Z</time>
      </trkpt>
      <trkpt lat="43.48078" lon="6.8072">
        <ele>172</ele>
        <time>2011-01-09T10:14:04Z</time>
      </trkpt>
      <trkpt lat="43.48082" lon="6.80706">
        <ele>172</ele>
        <time>2011-01-09T10:14:08Z</time>
      </trkpt>
      <trkpt lat="43.48086" lon="6.80695">
        <ele>172</ele>
        <time>2011-01-09T10:14:11Z</time>
      </trkpt>
      <trkpt lat="43.48087" lon="6.80692">
        <ele>172</ele>
        <time>2011-01-09T10:14:12Z</time>
      </trkpt>
      <trkpt lat="43.48089" lon="6.80688">
        <ele>172</ele>
        <time>2011-01-09T10:14:13Z</time>
      </trkpt>
      <trkpt lat="43.48091" lon="6.80681">
        <ele>173</ele>
        <time>2011-01-09T10:14:15Z</time>
      </trkpt>
      <trkpt lat="43.48094" lon="6.80673">
        <ele>173</ele>
        <time>2011-01-09T10:14:17Z</time>
      </trkpt>
      <trkpt lat="43.48096" lon="6.8067">
        <ele>173</ele>
        <time>2011-01-09T10:14:18Z</time>
      </trkpt>
      <trkpt lat="43.48098" lon="6.80659">
        <ele>173</ele>
        <time>2011-01-09T10:14:21Z</time>
      </trkpt>
      <trkpt lat="43.481" lon="6.80647">
        <ele>173</ele>
        <time>2011-01-09T10:14:24Z</time>
      </trkpt>
      <trkpt lat="43.481" lon="6.8064">
        <ele>174</ele>
        <time>2011-01-09T10:14:26Z</time>
      </trkpt>
      <trkpt lat="43.481" lon="6.80637">
        <ele>174</ele>
        <time>2011-01-09T10:14:27Z</time>
      </trkpt>
      <trkpt lat="43.48099" lon="6.80634">
        <ele>174</ele>
        <time>2011-01-09T10:14:28Z</time>
      </trkpt>
      <trkpt lat="43.48098" lon="6.80631">
        <ele>174</ele>
        <time>2011-01-09T10:14:29Z</time>
      </trkpt>
      <trkpt lat="43.48096" lon="6.80629">
        <ele>174</ele>
        <time>2011-01-09T10:14:30Z</time>
      </trkpt>
      <trkpt lat="43.48092" lon="6.80624">
        <ele>174</ele>
        <time>2011-01-09T10:14:32Z</time>
      </trkpt>
      <trkpt lat="43.48088" lon="6.80619">
        <ele>174</ele>
        <time>2011-01-09T10:14:34Z</time>
      </trkpt>
      <trkpt lat="43.48086" lon="6.80617">
        <ele>174</ele>
        <time>2011-01-09T10:14:35Z</time>
      </trkpt>
      <trkpt lat="43.48085" lon="6.80614">
        <ele>174</ele>
        <time>2011-01-09T10:14:36Z</time>
      </trkpt>
      <trkpt lat="43.48084" lon="6.80611">
        <ele>175</ele>
        <time>2011-01-09T10:14:37Z</time>
      </trkpt>
      <trkpt lat="43.48082" lon="6.80609">
        <ele>175</ele>
        <time>2011-01-09T10:14:38Z</time>
      </trkpt>
      <trkpt lat="43.4808" lon="6.80607">
        <ele>175</ele>
        <time>2011-01-09T10:14:39Z</time>
      </trkpt>
      <trkpt lat="43.48077" lon="6.80603">
        <ele>175</ele>
        <time>2011-01-09T10:14:41Z</time>
      </trkpt>
      <trkpt lat="43.48075" lon="6.80601">
        <ele>175</ele>
        <time>2011-01-09T10:14:42Z</time>
      </trkpt>
      <trkpt lat="43.48073" lon="6.80598">
        <ele>175</ele>
        <time>2011-01-09T10:14:43Z</time>
      </trkpt>
      <trkpt lat="43.48071" lon="6.80594">
        <ele>176</ele>
        <time>2011-01-09T10:14:45Z</time>
      </trkpt>
      <trkpt lat="43.4807" lon="6.80592">
        <ele>176</ele>
        <time>2011-01-09T10:14:46Z</time>
      </trkpt>
      <trkpt lat="43.4807" lon="6.8059">
        <ele>176</ele>
        <time>2011-01-09T10:14:47Z</time>
      </trkpt>
      <trkpt lat="43.4807" lon="6.80588">
        <ele>176</ele>
        <time>2011-01-09T10:14:48Z</time>
      </trkpt>
      <trkpt lat="43.48072" lon="6.80585">
        <ele>176</ele>
        <time>2011-01-09T10:14:50Z</time>
      </trkpt>
      <trkpt lat="43.48073" lon="6.80584">
        <ele>176</ele>
        <time>2011-01-09T10:14:51Z</time>
      </trkpt>
      <trkpt lat="43.48075" lon="6.80583">
        <ele>176</ele>
        <time>2011-01-09T10:14:52Z</time>
      </trkpt>
      <trkpt lat="43.48079" lon="6.80577">
        <ele>178</ele>
        <time>2011-01-09T10:14:56Z</time>
      </trkpt>
      <trkpt lat="43.4808" lon="6.80575">
        <ele>178</ele>
        <time>2011-01-09T10:14:57Z</time>
      </trkpt>
      <trkpt lat="43.48081" lon="6.80573">
        <ele>178</ele>
        <time>2011-01-09T10:14:58Z</time>
      </trkpt>
      <trkpt lat="43.48082" lon="6.80571">
        <ele>178</ele>
        <time>2011-01-09T10:14:59Z</time>
      </trkpt>
      <trkpt lat="43.48083" lon="6.80563">
        <ele>179</ele>
        <time>2011-01-09T10:15:02Z</time>
      </trkpt>
      <trkpt lat="43.48084" lon="6.80559">
        <ele>180</ele>
        <time>2011-01-09T10:15:04Z</time>
      </trkpt>
      <trkpt lat="43.48083" lon="6.80554">
        <ele>180</ele>
        <time>2011-01-09T10:15:06Z</time>
      </trkpt>
      <trkpt lat="43.48083" lon="6.80549">
        <ele>181</ele>
        <time>2011-01-09T10:15:08Z</time>
      </trkpt>
      <trkpt lat="43.48083" lon="6.80547">
        <ele>181</ele>
        <time>2011-01-09T10:15:09Z</time>
      </trkpt>
      <trkpt lat="43.48082" lon="6.80542">
        <ele>181</ele>
        <time>2011-01-09T10:15:11Z</time>
      </trkpt>
      <trkpt lat="43.48082" lon="6.8054">
        <ele>181</ele>
        <time>2011-01-09T10:15:12Z</time>
      </trkpt>
      <trkpt lat="43.48082" lon="6.80537">
        <ele>182</ele>
        <time>2011-01-09T10:15:13Z</time>
      </trkpt>
      <trkpt lat="43.48083" lon="6.80535">
        <ele>182</ele>
        <time>2011-01-09T10:15:14Z</time>
      </trkpt>
      <trkpt lat="43.48086" lon="6.80529">
        <ele>183</ele>
        <time>2011-01-09T10:15:17Z</time>
      </trkpt>
      <trkpt lat="43.48088" lon="6.80522">
        <ele>183</ele>
        <time>2011-01-09T10:15:20Z</time>
      </trkpt>
      <trkpt lat="43.48088" lon="6.8052">
        <ele>183</ele>
        <time>2011-01-09T10:15:21Z</time>
      </trkpt>
      <trkpt lat="43.48089" lon="6.80514">
        <ele>184</ele>
        <time>2011-01-09T10:15:23Z</time>
      </trkpt>
      <trkpt lat="43.4809" lon="6.8051">
        <ele>184</ele>
        <time>2011-01-09T10:15:25Z</time>
      </trkpt>
      <trkpt lat="43.48091" lon="6.80508">
        <ele>185</ele>
        <time>2011-01-09T10:15:26Z</time>
      </trkpt>
      <trkpt lat="43.48093" lon="6.80504">
        <ele>185</ele>
        <time>2011-01-09T10:15:28Z</time>
      </trkpt>
      <trkpt lat="43.48096" lon="6.805">
        <ele>186</ele>
        <time>2011-01-09T10:15:30Z</time>
      </trkpt>
      <trkpt lat="43.481" lon="6.80494">
        <ele>187</ele>
        <time>2011-01-09T10:15:34Z</time>
      </trkpt>
      <trkpt lat="43.48104" lon="6.80486">
        <ele>188</ele>
        <time>2011-01-09T10:15:38Z</time>
      </trkpt>
      <trkpt lat="43.48108" lon="6.80481">
        <ele>189</ele>
        <time>2011-01-09T10:15:41Z</time>
      </trkpt>
      <trkpt lat="43.48111" lon="6.80475">
        <ele>189</ele>
        <time>2011-01-09T10:15:44Z</time>
      </trkpt>
      <trkpt lat="43.48112" lon="6.80473">
        <ele>190</ele>
        <time>2011-01-09T10:15:45Z</time>
      </trkpt>
      <trkpt lat="43.48114" lon="6.80469">
        <ele>190</ele>
        <time>2011-01-09T10:15:47Z</time>
      </trkpt>
      <trkpt lat="43.48116" lon="6.80465">
        <ele>191</ele>
        <time>2011-01-09T10:15:49Z</time>
      </trkpt>
      <trkpt lat="43.48119" lon="6.80455">
        <ele>192</ele>
        <time>2011-01-09T10:15:54Z</time>
      </trkpt>
      <trkpt lat="43.48119" lon="6.80453">
        <ele>192</ele>
        <time>2011-01-09T10:15:55Z</time>
      </trkpt>
      <trkpt lat="43.4812" lon="6.80451">
        <ele>192</ele>
        <time>2011-01-09T10:15:56Z</time>
      </trkpt>
      <trkpt lat="43.48121" lon="6.80447">
        <ele>192</ele>
        <time>2011-01-09T10:15:58Z</time>
      </trkpt>
      <trkpt lat="43.48123" lon="6.80441">
        <ele>193</ele>
        <time>2011-01-09T10:16:01Z</time>
      </trkpt>
      <trkpt lat="43.48124" lon="6.80437">
        <ele>193</ele>
        <time>2011-01-09T10:16:03Z</time>
      </trkpt>
      <trkpt lat="43.48128" lon="6.80427">
        <ele>194</ele>
        <time>2011-01-09T10:16:08Z</time>
      </trkpt>
      <trkpt lat="43.48129" lon="6.80423">
        <ele>195</ele>
        <time>2011-01-09T10:16:10Z</time>
      </trkpt>
      <trkpt lat="43.48129" lon="6.80421">
        <ele>195</ele>
        <time>2011-01-09T10:16:11Z</time>
      </trkpt>
      <trkpt lat="43.4813" lon="6.80417">
        <ele>195</ele>
        <time>2011-01-09T10:16:13Z</time>
      </trkpt>
      <trkpt lat="43.48132" lon="6.80411">
        <ele>196</ele>
        <time>2011-01-09T10:16:16Z</time>
      </trkpt>
      <trkpt lat="43.48134" lon="6.80408">
        <ele>196</ele>
        <time>2011-01-09T10:16:18Z</time>
      </trkpt>
      <trkpt lat="43.48136" lon="6.80404">
        <ele>197</ele>
        <time>2011-01-09T10:16:20Z</time>
      </trkpt>
      <trkpt lat="43.4814" lon="6.80399">
        <ele>197</ele>
        <time>2011-01-09T10:16:23Z</time>
      </trkpt>
      <trkpt lat="43.48144" lon="6.80395">
        <ele>198</ele>
        <time>2011-01-09T10:16:26Z</time>
      </trkpt>
      <trkpt lat="43.48145" lon="6.80393">
        <ele>198</ele>
        <time>2011-01-09T10:16:27Z</time>
      </trkpt>
      <trkpt lat="43.48147" lon="6.80392">
        <ele>198</ele>
        <time>2011-01-09T10:16:28Z</time>
      </trkpt>
      <trkpt lat="43.48147" lon="6.8039">
        <ele>198</ele>
        <time>2011-01-09T10:16:29Z</time>
      </trkpt>
      <trkpt lat="43.48148" lon="6.80388">
        <ele>199</ele>
        <time>2011-01-09T10:16:30Z</time>
      </trkpt>
      <trkpt lat="43.48149" lon="6.80387">
        <ele>199</ele>
        <time>2011-01-09T10:16:31Z</time>
      </trkpt>
      <trkpt lat="43.48151" lon="6.80383">
        <ele>199</ele>
        <time>2011-01-09T10:16:33Z</time>
      </trkpt>
      <trkpt lat="43.48152" lon="6.80377">
        <ele>200</ele>
        <time>2011-01-09T10:16:36Z</time>
      </trkpt>
      <trkpt lat="43.48153" lon="6.8037">
        <ele>201</ele>
        <time>2011-01-09T10:16:39Z</time>
      </trkpt>
      <trkpt lat="43.48154" lon="6.80363">
        <ele>201</ele>
        <time>2011-01-09T10:16:42Z</time>
      </trkpt>
      <trkpt lat="43.48153" lon="6.80352">
        <ele>202</ele>
        <time>2011-01-09T10:16:47Z</time>
      </trkpt>
      <trkpt lat="43.48151" lon="6.80343">
        <ele>203</ele>
        <time>2011-01-09T10:16:51Z</time>
      </trkpt>
      <trkpt lat="43.48151" lon="6.80341">
        <ele>203</ele>
        <time>2011-01-09T10:16:52Z</time>
      </trkpt>
      <trkpt lat="43.48149" lon="6.80335">
        <ele>204</ele>
        <time>2011-01-09T10:16:55Z</time>
      </trkpt>
      <trkpt lat="43.48146" lon="6.8033">
        <ele>205</ele>
        <time>2011-01-09T10:16:58Z</time>
      </trkpt>
      <trkpt lat="43.48145" lon="6.80326">
        <ele>205</ele>
        <time>2011-01-09T10:17:00Z</time>
      </trkpt>
      <trkpt lat="43.48143" lon="6.80322">
        <ele>206</ele>
        <time>2011-01-09T10:17:02Z</time>
      </trkpt>
      <trkpt lat="43.48142" lon="6.80321">
        <ele>206</ele>
        <time>2011-01-09T10:17:03Z</time>
      </trkpt>
      <trkpt lat="43.4814" lon="6.80317">
        <ele>206</ele>
        <time>2011-01-09T10:17:05Z</time>
      </trkpt>
      <trkpt lat="43.48138" lon="6.80312">
        <ele>207</ele>
        <time>2011-01-09T10:17:08Z</time>
      </trkpt>
      <trkpt lat="43.48134" lon="6.80307">
        <ele>208</ele>
        <time>2011-01-09T10:17:11Z</time>
      </trkpt>
      <trkpt lat="43.48133" lon="6.80303">
        <ele>208</ele>
        <time>2011-01-09T10:17:13Z</time>
      </trkpt>
      <trkpt lat="43.48132" lon="6.80302">
        <ele>208</ele>
        <time>2011-01-09T10:17:14Z</time>
      </trkpt>
      <trkpt lat="43.48131" lon="6.803">
        <ele>209</ele>
        <time>2011-01-09T10:17:15Z</time>
      </trkpt>
      <trkpt lat="43.48129" lon="6.80296">
        <ele>209</ele>
        <time>2011-01-09T10:17:17Z</time>
      </trkpt>
      <trkpt lat="43.48126" lon="6.80291">
        <ele>210</ele>
        <time>2011-01-09T10:17:20Z</time>
      </trkpt>
      <trkpt lat="43.48126" lon="6.8029">
        <ele>210</ele>
        <time>2011-01-09T10:17:21Z</time>
      </trkpt>
      <trkpt lat="43.48124" lon="6.80286">
        <ele>210</ele>
        <time>2011-01-09T10:17:23Z</time>
      </trkpt>
      <trkpt lat="43.48122" lon="6.80285">
        <ele>211</ele>
        <time>2011-01-09T10:17:24Z</time>
      </trkpt>
      <trkpt lat="43.48121" lon="6.80284">
        <ele>211</ele>
        <time>2011-01-09T10:17:25Z</time>
      </trkpt>
      <trkpt lat="43.4812" lon="6.80282">
        <ele>211</ele>
        <time>2011-01-09T10:17:26Z</time>
      </trkpt>
      <trkpt lat="43.48118" lon="6.80279">
        <ele>212</ele>
        <time>2011-01-09T10:17:28Z</time>
      </trkpt>
      <trkpt lat="43.48114" lon="6.80274">
        <ele>212</ele>
        <time>2011-01-09T10:17:31Z</time>
      </trkpt>
      <trkpt lat="43.48112" lon="6.80272">
        <ele>213</ele>
        <time>2011-01-09T10:17:33Z</time>
      </trkpt>
      <trkpt lat="43.48111" lon="6.80271">
        <ele>213</ele>
        <time>2011-01-09T10:17:34Z</time>
      </trkpt>
      <trkpt lat="43.48107" lon="6.80266">
        <ele>214</ele>
        <time>2011-01-09T10:17:37Z</time>
      </trkpt>
      <trkpt lat="43.48105" lon="6.80263">
        <ele>214</ele>
        <time>2011-01-09T10:17:39Z</time>
      </trkpt>
      <trkpt lat="43.48103" lon="6.80259">
        <ele>215</ele>
        <time>2011-01-09T10:17:41Z</time>
      </trkpt>
      <trkpt lat="43.48102" lon="6.80255">
        <ele>215</ele>
        <time>2011-01-09T10:17:43Z</time>
      </trkpt>
      <trkpt lat="43.48101" lon="6.80254">
        <ele>215</ele>
        <time>2011-01-09T10:17:44Z</time>
      </trkpt>
      <trkpt lat="43.48097" lon="6.8025">
        <ele>216</ele>
        <time>2011-01-09T10:17:47Z</time>
      </trkpt>
      <trkpt lat="43.48095" lon="6.80247">
        <ele>217</ele>
        <time>2011-01-09T10:17:49Z</time>
      </trkpt>
      <trkpt lat="43.48093" lon="6.80243">
        <ele>217</ele>
        <time>2011-01-09T10:17:51Z</time>
      </trkpt>
      <trkpt lat="43.48091" lon="6.8024">
        <ele>218</ele>
        <time>2011-01-09T10:17:53Z</time>
      </trkpt>
      <trkpt lat="43.4809" lon="6.80238">
        <ele>218</ele>
        <time>2011-01-09T10:17:54Z</time>
      </trkpt>
      <trkpt lat="43.48086" lon="6.80232">
        <ele>219</ele>
        <time>2011-01-09T10:17:58Z</time>
      </trkpt>
      <trkpt lat="43.48084" lon="6.80228">
        <ele>219</ele>
        <time>2011-01-09T10:18:00Z</time>
      </trkpt>
      <trkpt lat="43.48082" lon="6.80224">
        <ele>220</ele>
        <time>2011-01-09T10:18:02Z</time>
      </trkpt>
      <trkpt lat="43.4808" lon="6.80221">
        <ele>220</ele>
        <time>2011-01-09T10:18:04Z</time>
      </trkpt>
      <trkpt lat="43.48078" lon="6.80217">
        <ele>221</ele>
        <time>2011-01-09T10:18:06Z</time>
      </trkpt>
      <trkpt lat="43.48078" lon="6.80215">
        <ele>221</ele>
        <time>2011-01-09T10:18:07Z</time>
      </trkpt>
      <trkpt lat="43.48077" lon="6.80213">
        <ele>221</ele>
        <time>2011-01-09T10:18:08Z</time>
      </trkpt>
      <trkpt lat="43.48072" lon="6.80204">
        <ele>223</ele>
        <time>2011-01-09T10:18:13Z</time>
      </trkpt>
      <trkpt lat="43.48069" lon="6.80199">
        <ele>223</ele>
        <time>2011-01-09T10:18:16Z</time>
      </trkpt>
      <trkpt lat="43.48068" lon="6.80196">
        <ele>223</ele>
        <time>2011-01-09T10:18:17Z</time>
      </trkpt>
      <trkpt lat="43.48068" lon="6.80194">
        <ele>223</ele>
        <time>2011-01-09T10:18:18Z</time>
      </trkpt>
      <trkpt lat="43.48068" lon="6.80189">
        <ele>224</ele>
        <time>2011-01-09T10:18:20Z</time>
      </trkpt>
      <trkpt lat="43.48068" lon="6.80185">
        <ele>224</ele>
        <time>2011-01-09T10:18:22Z</time>
      </trkpt>
      <trkpt lat="43.48068" lon="6.80182">
        <ele>224</ele>
        <time>2011-01-09T10:18:23Z</time>
      </trkpt>
      <trkpt lat="43.48068" lon="6.8018">
        <ele>224</ele>
        <time>2011-01-09T10:18:24Z</time>
      </trkpt>
      <trkpt lat="43.48067" lon="6.80178">
        <ele>224</ele>
        <time>2011-01-09T10:18:25Z</time>
      </trkpt>
      <trkpt lat="43.48067" lon="6.80171">
        <ele>225</ele>
        <time>2011-01-09T10:18:28Z</time>
      </trkpt>
      <trkpt lat="43.48066" lon="6.80164">
        <ele>225</ele>
        <time>2011-01-09T10:18:31Z</time>
      </trkpt>
      <trkpt lat="43.48064" lon="6.80156">
        <ele>226</ele>
        <time>2011-01-09T10:18:35Z</time>
      </trkpt>
      <trkpt lat="43.48063" lon="6.80151">
        <ele>226</ele>
        <time>2011-01-09T10:18:37Z</time>
      </trkpt>
      <trkpt lat="43.48063" lon="6.80149">
        <ele>226</ele>
        <time>2011-01-09T10:18:38Z</time>
      </trkpt>
      <trkpt lat="43.48061" lon="6.80145">
        <ele>227</ele>
        <time>2011-01-09T10:18:40Z</time>
      </trkpt>
      <trkpt lat="43.48061" lon="6.8014">
        <ele>227</ele>
        <time>2011-01-09T10:18:42Z</time>
      </trkpt>
      <trkpt lat="43.48059" lon="6.80132">
        <ele>228</ele>
        <time>2011-01-09T10:18:46Z</time>
      </trkpt>
      <trkpt lat="43.48058" lon="6.80129">
        <ele>228</ele>
        <time>2011-01-09T10:18:47Z</time>
      </trkpt>
      <trkpt lat="43.48056" lon="6.80121">
        <ele>229</ele>
        <time>2011-01-09T10:18:51Z</time>
      </trkpt>
      <trkpt lat="43.48056" lon="6.80116">
        <ele>230</ele>
        <time>2011-01-09T10:18:53Z</time>
      </trkpt>
      <trkpt lat="43.48055" lon="6.80112">
        <ele>230</ele>
        <time>2011-01-09T10:18:55Z</time>
      </trkpt>
      <trkpt lat="43.48055" lon="6.8011">
        <ele>230</ele>
        <time>2011-01-09T10:18:56Z</time>
      </trkpt>
      <trkpt lat="43.48056" lon="6.80108">
        <ele>231</ele>
        <time>2011-01-09T10:18:57Z</time>
      </trkpt>
      <trkpt lat="43.48056" lon="6.80105">
        <ele>231</ele>
        <time>2011-01-09T10:18:58Z</time>
      </trkpt>
      <trkpt lat="43.48056" lon="6.801">
        <ele>231</ele>
        <time>2011-01-09T10:19:00Z</time>
      </trkpt>
      <trkpt lat="43.48056" lon="6.80098">
        <ele>232</ele>
        <time>2011-01-09T10:19:01Z</time>
      </trkpt>
      <trkpt lat="43.48056" lon="6.80093">
        <ele>232</ele>
        <time>2011-01-09T10:19:03Z</time>
      </trkpt>
      <trkpt lat="43.48056" lon="6.80088">
        <ele>232</ele>
        <time>2011-01-09T10:19:05Z</time>
      </trkpt>
      <trkpt lat="43.48055" lon="6.80081">
        <ele>233</ele>
        <time>2011-01-09T10:19:08Z</time>
      </trkpt>
      <trkpt lat="43.48055" lon="6.80079">
        <ele>233</ele>
        <time>2011-01-09T10:19:09Z</time>
      </trkpt>
      <trkpt lat="43.48054" lon="6.80077">
        <ele>233</ele>
        <time>2011-01-09T10:19:10Z</time>
      </trkpt>
      <trkpt lat="43.48054" lon="6.8007">
        <ele>234</ele>
        <time>2011-01-09T10:19:13Z</time>
      </trkpt>
      <trkpt lat="43.48054" lon="6.80068">
        <ele>234</ele>
        <time>2011-01-09T10:19:14Z</time>
      </trkpt>
      <trkpt lat="43.48053" lon="6.80066">
        <ele>234</ele>
        <time>2011-01-09T10:19:15Z</time>
      </trkpt>
      <trkpt lat="43.48052" lon="6.80059">
        <ele>235</ele>
        <time>2011-01-09T10:19:18Z</time>
      </trkpt>
      <trkpt lat="43.48051" lon="6.80047">
        <ele>236</ele>
        <time>2011-01-09T10:19:23Z</time>
      </trkpt>
      <trkpt lat="43.48049" lon="6.80036">
        <ele>237</ele>
        <time>2011-01-09T10:19:28Z</time>
      </trkpt>
      <trkpt lat="43.48049" lon="6.80034">
        <ele>238</ele>
        <time>2011-01-09T10:19:29Z</time>
      </trkpt>
      <trkpt lat="43.48049" lon="6.80028">
        <ele>238</ele>
        <time>2011-01-09T10:19:32Z</time>
      </trkpt>
      <trkpt lat="43.48048" lon="6.80023">
        <ele>239</ele>
        <time>2011-01-09T10:19:34Z</time>
      </trkpt>
      <trkpt lat="43.48048" lon="6.80021">
        <ele>239</ele>
        <time>2011-01-09T10:19:35Z</time>
      </trkpt>
      <trkpt lat="43.48048" lon="6.80018">
        <ele>239</ele>
        <time>2011-01-09T10:19:36Z</time>
      </trkpt>
      <trkpt lat="43.48048" lon="6.80014">
        <ele>240</ele>
        <time>2011-01-09T10:19:38Z</time>
      </trkpt>
      <trkpt lat="43.48048" lon="6.80009">
        <ele>240</ele>
        <time>2011-01-09T10:19:40Z</time>
      </trkpt>
      <trkpt lat="43.48048" lon="6.80007">
        <ele>241</ele>
        <time>2011-01-09T10:19:41Z</time>
      </trkpt>
      <trkpt lat="43.48047" lon="6.80003">
        <ele>241</ele>
        <time>2011-01-09T10:19:43Z</time>
      </trkpt>
      <trkpt lat="43.48047" lon="6.8">
        <ele>241</ele>
        <time>2011-01-09T10:19:44Z</time>
      </trkpt>
      <trkpt lat="43.48047" lon="6.79998">
        <ele>241</ele>
        <time>2011-01-09T10:19:45Z</time>
      </trkpt>
      <trkpt lat="43.48046" lon="6.79992">
        <ele>242</ele>
        <time>2011-01-09T10:19:48Z</time>
      </trkpt>
      <trkpt lat="43.48043" lon="6.79972">
        <ele>244</ele>
        <time>2011-01-09T10:19:57Z</time>
      </trkpt>
      <trkpt lat="43.48043" lon="6.79967">
        <ele>245</ele>
        <time>2011-01-09T10:19:59Z</time>
      </trkpt>
      <trkpt lat="43.48044" lon="6.79962">
        <ele>245</ele>
        <time>2011-01-09T10:20:01Z</time>
      </trkpt>
      <trkpt lat="43.48044" lon="6.79958">
        <ele>246</ele>
        <time>2011-01-09T10:20:03Z</time>
      </trkpt>
      <trkpt lat="43.48046" lon="6.79951">
        <ele>247</ele>
        <time>2011-01-09T10:20:06Z</time>
      </trkpt>
      <trkpt lat="43.48046" lon="6.79947">
        <ele>247</ele>
        <time>2011-01-09T10:20:08Z</time>
      </trkpt>
      <trkpt lat="43.48048" lon="6.7994">
        <ele>248</ele>
        <time>2011-01-09T10:20:11Z</time>
      </trkpt>
      <trkpt lat="43.48049" lon="6.79936">
        <ele>248</ele>
        <time>2011-01-09T10:20:13Z</time>
      </trkpt>
      <trkpt lat="43.48049" lon="6.79933">
        <ele>249</ele>
        <time>2011-01-09T10:20:14Z</time>
      </trkpt>
      <trkpt lat="43.48049" lon="6.79931">
        <ele>249</ele>
        <time>2011-01-09T10:20:15Z</time>
      </trkpt>
      <trkpt lat="43.4805" lon="6.79929">
        <ele>249</ele>
        <time>2011-01-09T10:20:16Z</time>
      </trkpt>
      <trkpt lat="43.48051" lon="6.79917">
        <ele>251</ele>
        <time>2011-01-09T10:20:22Z</time>
      </trkpt>
      <trkpt lat="43.48052" lon="6.79915">
        <ele>251</ele>
        <time>2011-01-09T10:20:23Z</time>
      </trkpt>
      <trkpt lat="43.48052" lon="6.79914">
        <ele>251</ele>
        <time>2011-01-09T10:20:24Z</time>
      </trkpt>
      <trkpt lat="43.48053" lon="6.79913">
        <ele>251</ele>
        <time>2011-01-09T10:20:25Z</time>
      </trkpt>
      <trkpt lat="43.48053" lon="6.79912">
        <ele>251</ele>
        <time>2011-01-09T10:20:26Z</time>
      </trkpt>
      <trkpt lat="43.48054" lon="6.79913">
        <ele>251</ele>
        <time>2011-01-09T10:22:19Z</time>
      </trkpt>
      <trkpt lat="43.48055" lon="6.79913">
        <ele>251</ele>
        <time>2011-01-09T10:22:20Z</time>
      </trkpt>
      <trkpt lat="43.48056" lon="6.79913">
        <ele>251</ele>
        <time>2011-01-09T10:22:21Z</time>
      </trkpt>
      <trkpt lat="43.48058" lon="6.79915">
        <ele>251</ele>
        <time>2011-01-09T10:22:22Z</time>
      </trkpt>
      <trkpt lat="43.48061" lon="6.79918">
        <ele>251</ele>
        <time>2011-01-09T10:22:24Z</time>
      </trkpt>
      <trkpt lat="43.48063" lon="6.79919">
        <ele>251</ele>
        <time>2011-01-09T10:22:25Z</time>
      </trkpt>
      <trkpt lat="43.48068" lon="6.79923">
        <ele>252</ele>
        <time>2011-01-09T10:22:28Z</time>
      </trkpt>
      <trkpt lat="43.48073" lon="6.79927">
        <ele>252</ele>
        <time>2011-01-09T10:22:30Z</time>
      </trkpt>
      <trkpt lat="43.48075" lon="6.79929">
        <ele>252</ele>
        <time>2011-01-09T10:22:31Z</time>
      </trkpt>
      <trkpt lat="43.48084" lon="6.79942">
        <ele>253</ele>
        <time>2011-01-09T10:22:37Z</time>
      </trkpt>
      <trkpt lat="43.48086" lon="6.79944">
        <ele>253</ele>
        <time>2011-01-09T10:22:38Z</time>
      </trkpt>
      <trkpt lat="43.48089" lon="6.79947">
        <ele>253</ele>
        <time>2011-01-09T10:22:40Z</time>
      </trkpt>
      <trkpt lat="43.48092" lon="6.7995">
        <ele>253</ele>
        <time>2011-01-09T10:22:42Z</time>
      </trkpt>
      <trkpt lat="43.48095" lon="6.79953">
        <ele>253</ele>
        <time>2011-01-09T10:22:44Z</time>
      </trkpt>
      <trkpt lat="43.48103" lon="6.79961">
        <ele>254</ele>
        <time>2011-01-09T10:22:49Z</time>
      </trkpt>
      <trkpt lat="43.48106" lon="6.79964">
        <ele>254</ele>
        <time>2011-01-09T10:22:51Z</time>
      </trkpt>
      <trkpt lat="43.48109" lon="6.79967">
        <ele>255</ele>
        <time>2011-01-09T10:22:53Z</time>
      </trkpt>
      <trkpt lat="43.48119" lon="6.79976">
        <ele>255</ele>
        <time>2011-01-09T10:22:59Z</time>
      </trkpt>
      <trkpt lat="43.48125" lon="6.79983">
        <ele>255</ele>
        <time>2011-01-09T10:23:03Z</time>
      </trkpt>
      <trkpt lat="43.48128" lon="6.79986">
        <ele>256</ele>
        <time>2011-01-09T10:23:05Z</time>
      </trkpt>
      <trkpt lat="43.48131" lon="6.79989">
        <ele>256</ele>
        <time>2011-01-09T10:23:07Z</time>
      </trkpt>
      <trkpt lat="43.48136" lon="6.79994">
        <ele>256</ele>
        <time>2011-01-09T10:23:10Z</time>
      </trkpt>
      <trkpt lat="43.48148" lon="6.80007">
        <ele>257</ele>
        <time>2011-01-09T10:23:18Z</time>
      </trkpt>
      <trkpt lat="43.48151" lon="6.80011">
        <ele>257</ele>
        <time>2011-01-09T10:23:20Z</time>
      </trkpt>
      <trkpt lat="43.48156" lon="6.80016">
        <ele>257</ele>
        <time>2011-01-09T10:23:23Z</time>
      </trkpt>
      <trkpt lat="43.48164" lon="6.80024">
        <ele>257</ele>
        <time>2011-01-09T10:23:28Z</time>
      </trkpt>
      <trkpt lat="43.48169" lon="6.80029">
        <ele>258</ele>
        <time>2011-01-09T10:23:31Z</time>
      </trkpt>
      <trkpt lat="43.48171" lon="6.80031">
        <ele>258</ele>
        <time>2011-01-09T10:23:32Z</time>
      </trkpt>
      <trkpt lat="43.48173" lon="6.80032">
        <ele>258</ele>
        <time>2011-01-09T10:23:33Z</time>
      </trkpt>
      <trkpt lat="43.4818" lon="6.80038">
        <ele>259</ele>
        <time>2011-01-09T10:23:37Z</time>
      </trkpt>
      <trkpt lat="43.4819" lon="6.80045">
        <ele>259</ele>
        <time>2011-01-09T10:23:42Z</time>
      </trkpt>
      <trkpt lat="43.48192" lon="6.80046">
        <ele>259</ele>
        <time>2011-01-09T10:23:43Z</time>
      </trkpt>
      <trkpt lat="43.48196" lon="6.80048">
        <ele>259</ele>
        <time>2011-01-09T10:23:45Z</time>
      </trkpt>
      <trkpt lat="43.48211" lon="6.80056">
        <ele>260</ele>
        <time>2011-01-09T10:23:52Z</time>
      </trkpt>
      <trkpt lat="43.48213" lon="6.80057">
        <ele>260</ele>
        <time>2011-01-09T10:23:53Z</time>
      </trkpt>
      <trkpt lat="43.48222" lon="6.8006">
        <ele>261</ele>
        <time>2011-01-09T10:23:57Z</time>
      </trkpt>
      <trkpt lat="43.48239" lon="6.80064">
        <ele>262</ele>
        <time>2011-01-09T10:24:04Z</time>
      </trkpt>
      <trkpt lat="43.48243" lon="6.80064">
        <ele>262</ele>
        <time>2011-01-09T10:24:06Z</time>
      </trkpt>
      <trkpt lat="43.48251" lon="6.80064">
        <ele>262</ele>
        <time>2011-01-09T10:24:09Z</time>
      </trkpt>
      <trkpt lat="43.48258" lon="6.80063">
        <ele>262</ele>
        <time>2011-01-09T10:24:12Z</time>
      </trkpt>
      <trkpt lat="43.48261" lon="6.80063">
        <ele>263</ele>
        <time>2011-01-09T10:24:13Z</time>
      </trkpt>
      <trkpt lat="43.48266" lon="6.80063">
        <ele>263</ele>
        <time>2011-01-09T10:24:15Z</time>
      </trkpt>
      <trkpt lat="43.48269" lon="6.80063">
        <ele>263</ele>
        <time>2011-01-09T10:24:16Z</time>
      </trkpt>
      <trkpt lat="43.48276" lon="6.80062">
        <ele>263</ele>
        <time>2011-01-09T10:24:19Z</time>
      </trkpt>
      <trkpt lat="43.48288" lon="6.80058">
        <ele>264</ele>
        <time>2011-01-09T10:24:24Z</time>
      </trkpt>
      <trkpt lat="43.48293" lon="6.80056">
        <ele>264</ele>
        <time>2011-01-09T10:24:26Z</time>
      </trkpt>
      <trkpt lat="43.48306" lon="6.80052">
        <ele>265</ele>
        <time>2011-01-09T10:24:32Z</time>
      </trkpt>
      <trkpt lat="43.48318" lon="6.80047">
        <ele>266</ele>
        <time>2011-01-09T10:24:38Z</time>
      </trkpt>
      <trkpt lat="43.48322" lon="6.80044">
        <ele>266</ele>
        <time>2011-01-09T10:24:40Z</time>
      </trkpt>
      <trkpt lat="43.48324" lon="6.80043">
        <ele>266</ele>
        <time>2011-01-09T10:24:41Z</time>
      </trkpt>
      <trkpt lat="43.48326" lon="6.80042">
        <ele>266</ele>
        <time>2011-01-09T10:24:42Z</time>
      </trkpt>
      <trkpt lat="43.4833" lon="6.80039">
        <ele>267</ele>
        <time>2011-01-09T10:24:44Z</time>
      </trkpt>
      <trkpt lat="43.48339" lon="6.80034">
        <ele>267</ele>
        <time>2011-01-09T10:24:48Z</time>
      </trkpt>
      <trkpt lat="43.48342" lon="6.8003">
        <ele>268</ele>
        <time>2011-01-09T10:24:50Z</time>
      </trkpt>
      <trkpt lat="43.48346" lon="6.80027">
        <ele>268</ele>
        <time>2011-01-09T10:24:52Z</time>
      </trkpt>
      <trkpt lat="43.4835" lon="6.80024">
        <ele>268</ele>
        <time>2011-01-09T10:24:54Z</time>
      </trkpt>
      <trkpt lat="43.48355" lon="6.80021">
        <ele>268</ele>
        <time>2011-01-09T10:24:56Z</time>
      </trkpt>
      <trkpt lat="43.48357" lon="6.80019">
        <ele>269</ele>
        <time>2011-01-09T10:24:57Z</time>
      </trkpt>
      <trkpt lat="43.48359" lon="6.80017">
        <ele>268</ele>
        <time>2011-01-09T10:24:58Z</time>
      </trkpt>
      <trkpt lat="43.48369" lon="6.80009">
        <ele>269</ele>
        <time>2011-01-09T10:25:03Z</time>
      </trkpt>
      <trkpt lat="43.48377" lon="6.80003">
        <ele>270</ele>
        <time>2011-01-09T10:25:07Z</time>
      </trkpt>
      <trkpt lat="43.48381" lon="6.80001">
        <ele>270</ele>
        <time>2011-01-09T10:25:09Z</time>
      </trkpt>
      <trkpt lat="43.48388" lon="6.79996">
        <ele>270</ele>
        <time>2011-01-09T10:25:12Z</time>
      </trkpt>
      <trkpt lat="43.48392" lon="6.79993">
        <ele>271</ele>
        <time>2011-01-09T10:25:14Z</time>
      </trkpt>
      <trkpt lat="43.48394" lon="6.7999">
        <ele>271</ele>
        <time>2011-01-09T10:25:15Z</time>
      </trkpt>
      <trkpt lat="43.48396" lon="6.79988">
        <ele>271</ele>
        <time>2011-01-09T10:25:16Z</time>
      </trkpt>
      <trkpt lat="43.48397" lon="6.79986">
        <ele>271</ele>
        <time>2011-01-09T10:25:17Z</time>
      </trkpt>
      <trkpt lat="43.48398" lon="6.79983">
        <ele>271</ele>
        <time>2011-01-09T10:25:18Z</time>
      </trkpt>
      <trkpt lat="43.484" lon="6.7998">
        <ele>271</ele>
        <time>2011-01-09T10:25:19Z</time>
      </trkpt>
      <trkpt lat="43.48404" lon="6.79967">
        <ele>272</ele>
        <time>2011-01-09T10:25:23Z</time>
      </trkpt>
      <trkpt lat="43.48406" lon="6.79961">
        <ele>272</ele>
        <time>2011-01-09T10:25:25Z</time>
      </trkpt>
      <trkpt lat="43.48408" lon="6.79955">
        <ele>272</ele>
        <time>2011-01-09T10:25:27Z</time>
      </trkpt>
      <trkpt lat="43.48411" lon="6.79949">
        <ele>272</ele>
        <time>2011-01-09T10:25:29Z</time>
      </trkpt>
      <trkpt lat="43.48414" lon="6.79943">
        <ele>273</ele>
        <time>2011-01-09T10:25:31Z</time>
      </trkpt>
      <trkpt lat="43.48417" lon="6.79938">
        <ele>273</ele>
        <time>2011-01-09T10:25:33Z</time>
      </trkpt>
      <trkpt lat="43.48419" lon="6.79936">
        <ele>273</ele>
        <time>2011-01-09T10:25:34Z</time>
      </trkpt>
      <trkpt lat="43.48422" lon="6.79935">
        <ele>273</ele>
        <time>2011-01-09T10:25:35Z</time>
      </trkpt>
      <trkpt lat="43.48424" lon="6.79934">
        <ele>273</ele>
        <time>2011-01-09T10:25:36Z</time>
      </trkpt>
      <trkpt lat="43.48427" lon="6.79933">
        <ele>273</ele>
        <time>2011-01-09T10:25:37Z</time>
      </trkpt>
      <trkpt lat="43.48429" lon="6.79934">
        <ele>274</ele>
        <time>2011-01-09T10:25:38Z</time>
      </trkpt>
      <trkpt lat="43.48432" lon="6.79935">
        <ele>274</ele>
        <time>2011-01-09T10:25:39Z</time>
      </trkpt>
      <trkpt lat="43.48434" lon="6.79936">
        <ele>274</ele>
        <time>2011-01-09T10:25:40Z</time>
      </trkpt>
      <trkpt lat="43.48436" lon="6.79939">
        <ele>274</ele>
        <time>2011-01-09T10:25:41Z</time>
      </trkpt>
      <trkpt lat="43.48438" lon="6.79941">
        <ele>274</ele>
        <time>2011-01-09T10:25:42Z</time>
      </trkpt>
      <trkpt lat="43.48439" lon="6.79944">
        <ele>274</ele>
        <time>2011-01-09T10:25:43Z</time>
      </trkpt>
      <trkpt lat="43.48441" lon="6.79951">
        <ele>275</ele>
        <time>2011-01-09T10:25:45Z</time>
      </trkpt>
      <trkpt lat="43.48442" lon="6.79954">
        <ele>275</ele>
        <time>2011-01-09T10:25:46Z</time>
      </trkpt>
      <trkpt lat="43.48447" lon="6.79963">
        <ele>275</ele>
        <time>2011-01-09T10:25:49Z</time>
      </trkpt>
      <trkpt lat="43.48448" lon="6.79965">
        <ele>275</ele>
        <time>2011-01-09T10:25:50Z</time>
      </trkpt>
      <trkpt lat="43.48452" lon="6.79971">
        <ele>275</ele>
        <time>2011-01-09T10:25:52Z</time>
      </trkpt>
      <trkpt lat="43.48454" lon="6.79973">
        <ele>276</ele>
        <time>2011-01-09T10:25:53Z</time>
      </trkpt>
      <trkpt lat="43.48456" lon="6.79975">
        <ele>276</ele>
        <time>2011-01-09T10:25:54Z</time>
      </trkpt>
      <trkpt lat="43.48462" lon="6.79982">
        <ele>277</ele>
        <time>2011-01-09T10:25:57Z</time>
      </trkpt>
      <trkpt lat="43.48473" lon="6.79996">
        <ele>278</ele>
        <time>2011-01-09T10:26:03Z</time>
      </trkpt>
      <trkpt lat="43.48478" lon="6.80003">
        <ele>278</ele>
        <time>2011-01-09T10:26:06Z</time>
      </trkpt>
      <trkpt lat="43.48482" lon="6.80009">
        <ele>278</ele>
        <time>2011-01-09T10:26:08Z</time>
      </trkpt>
      <trkpt lat="43.48484" lon="6.80015">
        <ele>279</ele>
        <time>2011-01-09T10:26:10Z</time>
      </trkpt>
      <trkpt lat="43.48485" lon="6.80019">
        <ele>279</ele>
        <time>2011-01-09T10:26:11Z</time>
      </trkpt>
      <trkpt lat="43.48486" lon="6.80026">
        <ele>279</ele>
        <time>2011-01-09T10:26:13Z</time>
      </trkpt>
      <trkpt lat="43.48487" lon="6.80036">
        <ele>279</ele>
        <time>2011-01-09T10:26:16Z</time>
      </trkpt>
      <trkpt lat="43.48488" lon="6.8004">
        <ele>279</ele>
        <time>2011-01-09T10:26:17Z</time>
      </trkpt>
      <trkpt lat="43.48488" lon="6.80043">
        <ele>279</ele>
        <time>2011-01-09T10:26:18Z</time>
      </trkpt>
      <trkpt lat="43.48491" lon="6.80061">
        <ele>280</ele>
        <time>2011-01-09T10:26:23Z</time>
      </trkpt>
      <trkpt lat="43.48492" lon="6.80064">
        <ele>280</ele>
        <time>2011-01-09T10:26:24Z</time>
      </trkpt>
      <trkpt lat="43.48494" lon="6.80074">
        <ele>280</ele>
        <time>2011-01-09T10:26:27Z</time>
      </trkpt>
      <trkpt lat="43.48495" lon="6.80078">
        <ele>280</ele>
        <time>2011-01-09T10:26:28Z</time>
      </trkpt>
      <trkpt lat="43.48499" lon="6.80091">
        <ele>280</ele>
        <time>2011-01-09T10:26:32Z</time>
      </trkpt>
      <trkpt lat="43.48501" lon="6.80094">
        <ele>281</ele>
        <time>2011-01-09T10:26:33Z</time>
      </trkpt>
      <trkpt lat="43.48507" lon="6.80106">
        <ele>281</ele>
        <time>2011-01-09T10:26:37Z</time>
      </trkpt>
      <trkpt lat="43.48511" lon="6.80115">
        <ele>281</ele>
        <time>2011-01-09T10:26:40Z</time>
      </trkpt>
      <trkpt lat="43.48514" lon="6.8012">
        <ele>281</ele>
        <time>2011-01-09T10:26:42Z</time>
      </trkpt>
      <trkpt lat="43.48515" lon="6.80123">
        <ele>281</ele>
        <time>2011-01-09T10:26:43Z</time>
      </trkpt>
      <trkpt lat="43.48517" lon="6.80129">
        <ele>282</ele>
        <time>2011-01-09T10:26:45Z</time>
      </trkpt>
      <trkpt lat="43.48523" lon="6.8014">
        <ele>282</ele>
        <time>2011-01-09T10:26:49Z</time>
      </trkpt>
      <trkpt lat="43.48526" lon="6.80145">
        <ele>282</ele>
        <time>2011-01-09T10:26:51Z</time>
      </trkpt>
      <trkpt lat="43.48527" lon="6.80147">
        <ele>282</ele>
        <time>2011-01-09T10:26:52Z</time>
      </trkpt>
      <trkpt lat="43.48536" lon="6.80162">
        <ele>283</ele>
        <time>2011-01-09T10:26:58Z</time>
      </trkpt>
      <trkpt lat="43.4854" lon="6.80167">
        <ele>283</ele>
        <time>2011-01-09T10:27:00Z</time>
      </trkpt>
      <trkpt lat="43.48541" lon="6.80169">
        <ele>283</ele>
        <time>2011-01-09T10:27:01Z</time>
      </trkpt>
      <trkpt lat="43.48547" lon="6.80176">
        <ele>283</ele>
        <time>2011-01-09T10:27:04Z</time>
      </trkpt>
      <trkpt lat="43.4855" lon="6.8018">
        <ele>284</ele>
        <time>2011-01-09T10:27:06Z</time>
      </trkpt>
      <trkpt lat="43.48555" lon="6.80187">
        <ele>284</ele>
        <time>2011-01-09T10:27:09Z</time>
      </trkpt>
      <trkpt lat="43.48557" lon="6.80189">
        <ele>284</ele>
        <time>2011-01-09T10:27:10Z</time>
      </trkpt>
      <trkpt lat="43.48561" lon="6.80193">
        <ele>284</ele>
        <time>2011-01-09T10:27:12Z</time>
      </trkpt>
      <trkpt lat="43.48568" lon="6.80201">
        <ele>285</ele>
        <time>2011-01-09T10:27:16Z</time>
      </trkpt>
      <trkpt lat="43.4857" lon="6.80203">
        <ele>285</ele>
        <time>2011-01-09T10:27:17Z</time>
      </trkpt>
      <trkpt lat="43.48572" lon="6.80205">
        <ele>285</ele>
        <time>2011-01-09T10:27:18Z</time>
      </trkpt>
      <trkpt lat="43.48573" lon="6.80208">
        <ele>285</ele>
        <time>2011-01-09T10:27:19Z</time>
      </trkpt>
      <trkpt lat="43.48583" lon="6.80219">
        <ele>286</ele>
        <time>2011-01-09T10:27:24Z</time>
      </trkpt>
      <trkpt lat="43.48586" lon="6.80223">
        <ele>286</ele>
        <time>2011-01-09T10:27:26Z</time>
      </trkpt>
      <trkpt lat="43.4859" lon="6.80227">
        <ele>286</ele>
        <time>2011-01-09T10:27:28Z</time>
      </trkpt>
      <trkpt lat="43.48592" lon="6.8023">
        <ele>286</ele>
        <time>2011-01-09T10:27:29Z</time>
      </trkpt>
      <trkpt lat="43.48594" lon="6.80232">
        <ele>286</ele>
        <time>2011-01-09T10:27:30Z</time>
      </trkpt>
      <trkpt lat="43.48599" lon="6.80239">
        <ele>287</ele>
        <time>2011-01-09T10:27:33Z</time>
      </trkpt>
      <trkpt lat="43.48606" lon="6.80247">
        <ele>287</ele>
        <time>2011-01-09T10:27:37Z</time>
      </trkpt>
      <trkpt lat="43.4861" lon="6.80251">
        <ele>287</ele>
        <time>2011-01-09T10:27:39Z</time>
      </trkpt>
      <trkpt lat="43.48614" lon="6.80256">
        <ele>288</ele>
        <time>2011-01-09T10:27:41Z</time>
      </trkpt>
      <trkpt lat="43.48628" lon="6.8027">
        <ele>289</ele>
        <time>2011-01-09T10:27:48Z</time>
      </trkpt>
      <trkpt lat="43.4863" lon="6.80272">
        <ele>289</ele>
        <time>2011-01-09T10:27:49Z</time>
      </trkpt>
      <trkpt lat="43.48632" lon="6.80275">
        <ele>289</ele>
        <time>2011-01-09T10:27:50Z</time>
      </trkpt>
      <trkpt lat="43.48643" lon="6.80284">
        <ele>289</ele>
        <time>2011-01-09T10:27:55Z</time>
      </trkpt>
      <trkpt lat="43.48651" lon="6.80291">
        <ele>290</ele>
        <time>2011-01-09T10:27:59Z</time>
      </trkpt>
      <trkpt lat="43.48656" lon="6.80295">
        <ele>290</ele>
        <time>2011-01-09T10:28:01Z</time>
      </trkpt>
      <trkpt lat="43.48658" lon="6.80297">
        <ele>290</ele>
        <time>2011-01-09T10:28:02Z</time>
      </trkpt>
      <trkpt lat="43.48663" lon="6.80301">
        <ele>290</ele>
        <time>2011-01-09T10:28:04Z</time>
      </trkpt>
      <trkpt lat="43.48667" lon="6.80305">
        <ele>290</ele>
        <time>2011-01-09T10:28:06Z</time>
      </trkpt>
      <trkpt lat="43.48671" lon="6.8031">
        <ele>291</ele>
        <time>2011-01-09T10:28:08Z</time>
      </trkpt>
      <trkpt lat="43.48674" lon="6.80316">
        <ele>291</ele>
        <time>2011-01-09T10:28:10Z</time>
      </trkpt>
      <trkpt lat="43.48679" lon="6.80324">
        <ele>291</ele>
        <time>2011-01-09T10:28:13Z</time>
      </trkpt>
      <trkpt lat="43.48681" lon="6.80328">
        <ele>291</ele>
        <time>2011-01-09T10:28:14Z</time>
      </trkpt>
      <trkpt lat="43.48683" lon="6.80331">
        <ele>292</ele>
        <time>2011-01-09T10:28:15Z</time>
      </trkpt>
      <trkpt lat="43.48686" lon="6.80336">
        <ele>292</ele>
        <time>2011-01-09T10:28:17Z</time>
      </trkpt>
      <trkpt lat="43.48689" lon="6.80338">
        <ele>292</ele>
        <time>2011-01-09T10:28:18Z</time>
      </trkpt>
      <trkpt lat="43.48691" lon="6.8034">
        <ele>292</ele>
        <time>2011-01-09T10:28:19Z</time>
      </trkpt>
      <trkpt lat="43.48693" lon="6.80342">
        <ele>292</ele>
        <time>2011-01-09T10:28:20Z</time>
      </trkpt>
      <trkpt lat="43.48698" lon="6.80344">
        <ele>292</ele>
        <time>2011-01-09T10:28:22Z</time>
      </trkpt>
      <trkpt lat="43.48701" lon="6.80345">
        <ele>293</ele>
        <time>2011-01-09T10:28:23Z</time>
      </trkpt>
      <trkpt lat="43.48704" lon="6.80345">
        <ele>293</ele>
        <time>2011-01-09T10:28:24Z</time>
      </trkpt>
      <trkpt lat="43.48706" lon="6.80344">
        <ele>293</ele>
        <time>2011-01-09T10:28:25Z</time>
      </trkpt>
      <trkpt lat="43.48709" lon="6.80343">
        <ele>293</ele>
        <time>2011-01-09T10:28:26Z</time>
      </trkpt>
      <trkpt lat="43.48714" lon="6.8034">
        <ele>293</ele>
        <time>2011-01-09T10:28:28Z</time>
      </trkpt>
      <trkpt lat="43.48723" lon="6.80332">
        <ele>294</ele>
        <time>2011-01-09T10:28:32Z</time>
      </trkpt>
      <trkpt lat="43.48729" lon="6.80325">
        <ele>294</ele>
        <time>2011-01-09T10:28:35Z</time>
      </trkpt>
      <trkpt lat="43.48735" lon="6.80318">
        <ele>295</ele>
        <time>2011-01-09T10:28:38Z</time>
      </trkpt>
      <trkpt lat="43.48737" lon="6.80316">
        <ele>295</ele>
        <time>2011-01-09T10:28:39Z</time>
      </trkpt>
      <trkpt lat="43.48739" lon="6.80313">
        <ele>295</ele>
        <time>2011-01-09T10:28:40Z</time>
      </trkpt>
      <trkpt lat="43.48742" lon="6.80307">
        <ele>296</ele>
        <time>2011-01-09T10:28:42Z</time>
      </trkpt>
      <trkpt lat="43.48743" lon="6.80299">
        <ele>296</ele>
        <time>2011-01-09T10:28:44Z</time>
      </trkpt>
      <trkpt lat="43.48746" lon="6.80284">
        <ele>296</ele>
        <time>2011-01-09T10:28:48Z</time>
      </trkpt>
      <trkpt lat="43.48747" lon="6.80281">
        <ele>296</ele>
        <time>2011-01-09T10:28:49Z</time>
      </trkpt>
      <trkpt lat="43.48748" lon="6.80277">
        <ele>296</ele>
        <time>2011-01-09T10:28:50Z</time>
      </trkpt>
      <trkpt lat="43.48749" lon="6.8027">
        <ele>297</ele>
        <time>2011-01-09T10:28:52Z</time>
      </trkpt>
      <trkpt lat="43.48753" lon="6.8026">
        <ele>297</ele>
        <time>2011-01-09T10:28:55Z</time>
      </trkpt>
      <trkpt lat="43.48753" lon="6.80257">
        <ele>297</ele>
        <time>2011-01-09T10:28:56Z</time>
      </trkpt>
      <trkpt lat="43.48755" lon="6.8025">
        <ele>297</ele>
        <time>2011-01-09T10:28:58Z</time>
      </trkpt>
      <trkpt lat="43.48756" lon="6.80246">
        <ele>298</ele>
        <time>2011-01-09T10:28:59Z</time>
      </trkpt>
      <trkpt lat="43.48759" lon="6.8024">
        <ele>298</ele>
        <time>2011-01-09T10:29:01Z</time>
      </trkpt>
      <trkpt lat="43.48764" lon="6.80227">
        <ele>298</ele>
        <time>2011-01-09T10:29:05Z</time>
      </trkpt>
      <trkpt lat="43.48766" lon="6.8022">
        <ele>299</ele>
        <time>2011-01-09T10:29:07Z</time>
      </trkpt>
      <trkpt lat="43.48769" lon="6.80214">
        <ele>299</ele>
        <time>2011-01-09T10:29:09Z</time>
      </trkpt>
      <trkpt lat="43.48771" lon="6.80208">
        <ele>299</ele>
        <time>2011-01-09T10:29:11Z</time>
      </trkpt>
      <trkpt lat="43.48772" lon="6.80204">
        <ele>299</ele>
        <time>2011-01-09T10:29:12Z</time>
      </trkpt>
      <trkpt lat="43.48775" lon="6.80198">
        <ele>300</ele>
        <time>2011-01-09T10:29:14Z</time>
      </trkpt>
      <trkpt lat="43.48779" lon="6.80184">
        <ele>300</ele>
        <time>2011-01-09T10:29:18Z</time>
      </trkpt>
      <trkpt lat="43.48781" lon="6.80177">
        <ele>300</ele>
        <time>2011-01-09T10:29:20Z</time>
      </trkpt>
      <trkpt lat="43.48783" lon="6.80163">
        <ele>301</ele>
        <time>2011-01-09T10:29:24Z</time>
      </trkpt>
      <trkpt lat="43.48784" lon="6.80156">
        <ele>301</ele>
        <time>2011-01-09T10:29:26Z</time>
      </trkpt>
      <trkpt lat="43.48785" lon="6.8015">
        <ele>301</ele>
        <time>2011-01-09T10:29:28Z</time>
      </trkpt>
      <trkpt lat="43.48786" lon="6.80143">
        <ele>301</ele>
        <time>2011-01-09T10:29:30Z</time>
      </trkpt>
      <trkpt lat="43.48786" lon="6.8014">
        <ele>301</ele>
        <time>2011-01-09T10:29:31Z</time>
      </trkpt>
      <trkpt lat="43.48787" lon="6.80134">
        <ele>301</ele>
        <time>2011-01-09T10:29:33Z</time>
      </trkpt>
      <trkpt lat="43.48788" lon="6.80128">
        <ele>302</ele>
        <time>2011-01-09T10:29:35Z</time>
      </trkpt>
      <trkpt lat="43.48788" lon="6.80124">
        <ele>302</ele>
        <time>2011-01-09T10:29:36Z</time>
      </trkpt>
      <trkpt lat="43.48788" lon="6.80108">
        <ele>302</ele>
        <time>2011-01-09T10:29:41Z</time>
      </trkpt>
      <trkpt lat="43.48788" lon="6.80101">
        <ele>303</ele>
        <time>2011-01-09T10:29:43Z</time>
      </trkpt>
      <trkpt lat="43.48787" lon="6.80095">
        <ele>303</ele>
        <time>2011-01-09T10:29:45Z</time>
      </trkpt>
      <trkpt lat="43.48785" lon="6.80088">
        <ele>303</ele>
        <time>2011-01-09T10:29:47Z</time>
      </trkpt>
      <trkpt lat="43.48784" lon="6.80085">
        <ele>303</ele>
        <time>2011-01-09T10:29:48Z</time>
      </trkpt>
      <trkpt lat="43.48784" lon="6.80082">
        <ele>304</ele>
        <time>2011-01-09T10:29:49Z</time>
      </trkpt>
      <trkpt lat="43.48779" lon="6.80062">
        <ele>304</ele>
        <time>2011-01-09T10:29:55Z</time>
      </trkpt>
      <trkpt lat="43.48776" lon="6.80053">
        <ele>304</ele>
        <time>2011-01-09T10:29:58Z</time>
      </trkpt>
      <trkpt lat="43.48771" lon="6.80041">
        <ele>305</ele>
        <time>2011-01-09T10:30:02Z</time>
      </trkpt>
      <trkpt lat="43.48768" lon="6.80035">
        <ele>305</ele>
        <time>2011-01-09T10:30:04Z</time>
      </trkpt>
      <trkpt lat="43.48767" lon="6.80033">
        <ele>305</ele>
        <time>2011-01-09T10:30:05Z</time>
      </trkpt>
      <trkpt lat="43.4876" lon="6.80019">
        <ele>306</ele>
        <time>2011-01-09T10:30:10Z</time>
      </trkpt>
      <trkpt lat="43.48758" lon="6.80013">
        <ele>306</ele>
        <time>2011-01-09T10:30:12Z</time>
      </trkpt>
      <trkpt lat="43.48756" lon="6.8001">
        <ele>307</ele>
        <time>2011-01-09T10:30:13Z</time>
      </trkpt>
      <trkpt lat="43.48752" lon="6.80002">
        <ele>307</ele>
        <time>2011-01-09T10:30:16Z</time>
      </trkpt>
      <trkpt lat="43.48749" lon="6.79996">
        <ele>308</ele>
        <time>2011-01-09T10:30:18Z</time>
      </trkpt>
      <trkpt lat="43.48743" lon="6.79985">
        <ele>308</ele>
        <time>2011-01-09T10:30:22Z</time>
      </trkpt>
      <trkpt lat="43.4874" lon="6.79979">
        <ele>308</ele>
        <time>2011-01-09T10:30:24Z</time>
      </trkpt>
      <trkpt lat="43.48738" lon="6.79973">
        <ele>309</ele>
        <time>2011-01-09T10:30:26Z</time>
      </trkpt>
      <trkpt lat="43.48735" lon="6.79967">
        <ele>309</ele>
        <time>2011-01-09T10:30:28Z</time>
      </trkpt>
      <trkpt lat="43.48735" lon="6.79964">
        <ele>309</ele>
        <time>2011-01-09T10:30:29Z</time>
      </trkpt>
      <trkpt lat="43.48732" lon="6.79954">
        <ele>309</ele>
        <time>2011-01-09T10:30:32Z</time>
      </trkpt>
      <trkpt lat="43.48732" lon="6.79951">
        <ele>309</ele>
        <time>2011-01-09T10:30:33Z</time>
      </trkpt>
      <trkpt lat="43.48732" lon="6.79944">
        <ele>309</ele>
        <time>2011-01-09T10:30:35Z</time>
      </trkpt>
      <trkpt lat="43.48732" lon="6.79937">
        <ele>310</ele>
        <time>2011-01-09T10:30:37Z</time>
      </trkpt>
      <trkpt lat="43.48732" lon="6.79934">
        <ele>310</ele>
        <time>2011-01-09T10:30:38Z</time>
      </trkpt>
      <trkpt lat="43.48733" lon="6.7993">
        <ele>310</ele>
        <time>2011-01-09T10:30:39Z</time>
      </trkpt>
      <trkpt lat="43.48734" lon="6.79924">
        <ele>310</ele>
        <time>2011-01-09T10:30:41Z</time>
      </trkpt>
      <trkpt lat="43.48736" lon="6.79914">
        <ele>310</ele>
        <time>2011-01-09T10:30:44Z</time>
      </trkpt>
      <trkpt lat="43.48736" lon="6.79911">
        <ele>310</ele>
        <time>2011-01-09T10:30:45Z</time>
      </trkpt>
      <trkpt lat="43.48737" lon="6.79907">
        <ele>310</ele>
        <time>2011-01-09T10:30:46Z</time>
      </trkpt>
      <trkpt lat="43.48738" lon="6.79901">
        <ele>311</ele>
        <time>2011-01-09T10:30:48Z</time>
      </trkpt>
      <trkpt lat="43.48741" lon="6.79891">
        <ele>311</ele>
        <time>2011-01-09T10:30:51Z</time>
      </trkpt>
      <trkpt lat="43.48744" lon="6.79882">
        <ele>311</ele>
        <time>2011-01-09T10:30:54Z</time>
      </trkpt>
      <trkpt lat="43.48745" lon="6.79879">
        <ele>311</ele>
        <time>2011-01-09T10:30:55Z</time>
      </trkpt>
      <trkpt lat="43.48748" lon="6.79874">
        <ele>312</ele>
        <time>2011-01-09T10:30:57Z</time>
      </trkpt>
      <trkpt lat="43.48752" lon="6.79869">
        <ele>312</ele>
        <time>2011-01-09T10:30:59Z</time>
      </trkpt>
      <trkpt lat="43.48754" lon="6.79867">
        <ele>312</ele>
        <time>2011-01-09T10:31:00Z</time>
      </trkpt>
      <trkpt lat="43.48758" lon="6.79863">
        <ele>312</ele>
        <time>2011-01-09T10:31:02Z</time>
      </trkpt>
      <trkpt lat="43.48766" lon="6.79854">
        <ele>313</ele>
        <time>2011-01-09T10:31:06Z</time>
      </trkpt>
      <trkpt lat="43.48771" lon="6.79851">
        <ele>313</ele>
        <time>2011-01-09T10:31:08Z</time>
      </trkpt>
      <trkpt lat="43.48784" lon="6.7984">
        <ele>314</ele>
        <time>2011-01-09T10:31:14Z</time>
      </trkpt>
      <trkpt lat="43.48791" lon="6.79835">
        <ele>315</ele>
        <time>2011-01-09T10:31:17Z</time>
      </trkpt>
      <trkpt lat="43.488" lon="6.79826">
        <ele>315</ele>
        <time>2011-01-09T10:31:21Z</time>
      </trkpt>
      <trkpt lat="43.48804" lon="6.79822">
        <ele>315</ele>
        <time>2011-01-09T10:31:23Z</time>
      </trkpt>
      <trkpt lat="43.48808" lon="6.79818">
        <ele>315</ele>
        <time>2011-01-09T10:31:25Z</time>
      </trkpt>
      <trkpt lat="43.48812" lon="6.79813">
        <ele>316</ele>
        <time>2011-01-09T10:31:27Z</time>
      </trkpt>
      <trkpt lat="43.48815" lon="6.79807">
        <ele>316</ele>
        <time>2011-01-09T10:31:29Z</time>
      </trkpt>
      <trkpt lat="43.4882" lon="6.79799">
        <ele>316</ele>
        <time>2011-01-09T10:31:32Z</time>
      </trkpt>
      <trkpt lat="43.48825" lon="6.79791">
        <ele>317</ele>
        <time>2011-01-09T10:31:35Z</time>
      </trkpt>
      <trkpt lat="43.48828" lon="6.79785">
        <ele>317</ele>
        <time>2011-01-09T10:31:37Z</time>
      </trkpt>
      <trkpt lat="43.4883" lon="6.79782">
        <ele>317</ele>
        <time>2011-01-09T10:31:38Z</time>
      </trkpt>
      <trkpt lat="43.48831" lon="6.79779">
        <ele>317</ele>
        <time>2011-01-09T10:31:39Z</time>
      </trkpt>
      <trkpt lat="43.48833" lon="6.79772">
        <ele>317</ele>
        <time>2011-01-09T10:31:41Z</time>
      </trkpt>
      <trkpt lat="43.48834" lon="6.79769">
        <ele>318</ele>
        <time>2011-01-09T10:31:42Z</time>
      </trkpt>
      <trkpt lat="43.48835" lon="6.79766">
        <ele>318</ele>
        <time>2011-01-09T10:31:43Z</time>
      </trkpt>
      <trkpt lat="43.48838" lon="6.79759">
        <ele>318</ele>
        <time>2011-01-09T10:31:45Z</time>
      </trkpt>
      <trkpt lat="43.48839" lon="6.79756">
        <ele>318</ele>
        <time>2011-01-09T10:31:46Z</time>
      </trkpt>
      <trkpt lat="43.48841" lon="6.79749">
        <ele>318</ele>
        <time>2011-01-09T10:31:48Z</time>
      </trkpt>
      <trkpt lat="43.48842" lon="6.79746">
        <ele>318</ele>
        <time>2011-01-09T10:31:49Z</time>
      </trkpt>
      <trkpt lat="43.48843" lon="6.79743">
        <ele>319</ele>
        <time>2011-01-09T10:31:50Z</time>
      </trkpt>
      <trkpt lat="43.48844" lon="6.79736">
        <ele>319</ele>
        <time>2011-01-09T10:31:52Z</time>
      </trkpt>
      <trkpt lat="43.48846" lon="6.7973">
        <ele>319</ele>
        <time>2011-01-09T10:31:54Z</time>
      </trkpt>
      <trkpt lat="43.48847" lon="6.79723">
        <ele>319</ele>
        <time>2011-01-09T10:31:56Z</time>
      </trkpt>
      <trkpt lat="43.48849" lon="6.79717">
        <ele>319</ele>
        <time>2011-01-09T10:31:58Z</time>
      </trkpt>
      <trkpt lat="43.4885" lon="6.79713">
        <ele>320</ele>
        <time>2011-01-09T10:31:59Z</time>
      </trkpt>
      <trkpt lat="43.48854" lon="6.79697">
        <ele>320</ele>
        <time>2011-01-09T10:32:04Z</time>
      </trkpt>
      <trkpt lat="43.48857" lon="6.79687">
        <ele>320</ele>
        <time>2011-01-09T10:32:07Z</time>
      </trkpt>
      <trkpt lat="43.48861" lon="6.79675">
        <ele>321</ele>
        <time>2011-01-09T10:32:11Z</time>
      </trkpt>
      <trkpt lat="43.48861" lon="6.79671">
        <ele>321</ele>
        <time>2011-01-09T10:32:12Z</time>
      </trkpt>
      <trkpt lat="43.48862" lon="6.79664">
        <ele>321</ele>
        <time>2011-01-09T10:32:14Z</time>
      </trkpt>
      <trkpt lat="43.48863" lon="6.79658">
        <ele>321</ele>
        <time>2011-01-09T10:32:16Z</time>
      </trkpt>
      <trkpt lat="43.48864" lon="6.79651">
        <ele>322</ele>
        <time>2011-01-09T10:32:18Z</time>
      </trkpt>
      <trkpt lat="43.48865" lon="6.79648">
        <ele>322</ele>
        <time>2011-01-09T10:32:19Z</time>
      </trkpt>
      <trkpt lat="43.48866" lon="6.79645">
        <ele>322</ele>
        <time>2011-01-09T10:32:20Z</time>
      </trkpt>
      <trkpt lat="43.48866" lon="6.79641">
        <ele>322</ele>
        <time>2011-01-09T10:32:21Z</time>
      </trkpt>
      <trkpt lat="43.48869" lon="6.79632">
        <ele>322</ele>
        <time>2011-01-09T10:32:24Z</time>
      </trkpt>
      <trkpt lat="43.48869" lon="6.79629">
        <ele>322</ele>
        <time>2011-01-09T10:32:25Z</time>
      </trkpt>
      <trkpt lat="43.48872" lon="6.7962">
        <ele>323</ele>
        <time>2011-01-09T10:32:28Z</time>
      </trkpt>
      <trkpt lat="43.48873" lon="6.79616">
        <ele>323</ele>
        <time>2011-01-09T10:32:29Z</time>
      </trkpt>
      <trkpt lat="43.48875" lon="6.7961">
        <ele>323</ele>
        <time>2011-01-09T10:32:31Z</time>
      </trkpt>
      <trkpt lat="43.48876" lon="6.79608">
        <ele>323</ele>
        <time>2011-01-09T10:32:32Z</time>
      </trkpt>
      <trkpt lat="43.48877" lon="6.79605">
        <ele>323</ele>
        <time>2011-01-09T10:32:33Z</time>
      </trkpt>
      <trkpt lat="43.48879" lon="6.79596">
        <ele>323</ele>
        <time>2011-01-09T10:32:36Z</time>
      </trkpt>
      <trkpt lat="43.4888" lon="6.79593">
        <ele>324</ele>
        <time>2011-01-09T10:32:37Z</time>
      </trkpt>
      <trkpt lat="43.48881" lon="6.79588">
        <ele>324</ele>
        <time>2011-01-09T10:32:39Z</time>
      </trkpt>
      <trkpt lat="43.48883" lon="6.79583">
        <ele>324</ele>
        <time>2011-01-09T10:32:41Z</time>
      </trkpt>
      <trkpt lat="43.48885" lon="6.79578">
        <ele>324</ele>
        <time>2011-01-09T10:32:43Z</time>
      </trkpt>
      <trkpt lat="43.48887" lon="6.79573">
        <ele>324</ele>
        <time>2011-01-09T10:32:45Z</time>
      </trkpt>
      <trkpt lat="43.48888" lon="6.7957">
        <ele>325</ele>
        <time>2011-01-09T10:32:46Z</time>
      </trkpt>
      <trkpt lat="43.48891" lon="6.79566">
        <ele>325</ele>
        <time>2011-01-09T10:32:48Z</time>
      </trkpt>
      <trkpt lat="43.48893" lon="6.79564">
        <ele>325</ele>
        <time>2011-01-09T10:32:49Z</time>
      </trkpt>
      <trkpt lat="43.48895" lon="6.79564">
        <ele>325</ele>
        <time>2011-01-09T10:32:50Z</time>
      </trkpt>
      <trkpt lat="43.48897" lon="6.79564">
        <ele>325</ele>
        <time>2011-01-09T10:32:51Z</time>
      </trkpt>
      <trkpt lat="43.489" lon="6.79564">
        <ele>325</ele>
        <time>2011-01-09T10:32:52Z</time>
      </trkpt>
      <trkpt lat="43.48902" lon="6.79566">
        <ele>326</ele>
        <time>2011-01-09T10:32:53Z</time>
      </trkpt>
      <trkpt lat="43.48904" lon="6.79567">
        <ele>326</ele>
        <time>2011-01-09T10:32:54Z</time>
      </trkpt>
      <trkpt lat="43.48906" lon="6.7957">
        <ele>326</ele>
        <time>2011-01-09T10:32:55Z</time>
      </trkpt>
      <trkpt lat="43.48909" lon="6.79575">
        <ele>326</ele>
        <time>2011-01-09T10:32:57Z</time>
      </trkpt>
      <trkpt lat="43.48913" lon="6.79579">
        <ele>327</ele>
        <time>2011-01-09T10:32:59Z</time>
      </trkpt>
      <trkpt lat="43.48917" lon="6.79583">
        <ele>327</ele>
        <time>2011-01-09T10:33:01Z</time>
      </trkpt>
      <trkpt lat="43.48922" lon="6.79589">
        <ele>327</ele>
        <time>2011-01-09T10:33:04Z</time>
      </trkpt>
      <trkpt lat="43.48926" lon="6.79592">
        <ele>328</ele>
        <time>2011-01-09T10:33:06Z</time>
      </trkpt>
      <trkpt lat="43.4893" lon="6.79596">
        <ele>328</ele>
        <time>2011-01-09T10:33:08Z</time>
      </trkpt>
      <trkpt lat="43.48941" lon="6.79604">
        <ele>328</ele>
        <time>2011-01-09T10:33:13Z</time>
      </trkpt>
      <trkpt lat="43.48945" lon="6.79606">
        <ele>328</ele>
        <time>2011-01-09T10:33:15Z</time>
      </trkpt>
      <trkpt lat="43.4895" lon="6.79608">
        <ele>329</ele>
        <time>2011-01-09T10:33:17Z</time>
      </trkpt>
      <trkpt lat="43.48952" lon="6.79609">
        <ele>329</ele>
        <time>2011-01-09T10:33:18Z</time>
      </trkpt>
      <trkpt lat="43.48956" lon="6.79611">
        <ele>329</ele>
        <time>2011-01-09T10:33:20Z</time>
      </trkpt>
      <trkpt lat="43.48961" lon="6.79611">
        <ele>329</ele>
        <time>2011-01-09T10:33:22Z</time>
      </trkpt>
      <trkpt lat="43.48966" lon="6.79611">
        <ele>329</ele>
        <time>2011-01-09T10:33:24Z</time>
      </trkpt>
      <trkpt lat="43.48968" lon="6.79611">
        <ele>329</ele>
        <time>2011-01-09T10:33:25Z</time>
      </trkpt>
      <trkpt lat="43.48975" lon="6.79609">
        <ele>329</ele>
        <time>2011-01-09T10:33:28Z</time>
      </trkpt>
      <trkpt lat="43.48979" lon="6.79608">
        <ele>329</ele>
        <time>2011-01-09T10:33:30Z</time>
      </trkpt>
      <trkpt lat="43.48989" lon="6.79603">
        <ele>329</ele>
        <time>2011-01-09T10:33:34Z</time>
      </trkpt>
      <trkpt lat="43.48994" lon="6.796">
        <ele>329</ele>
        <time>2011-01-09T10:33:36Z</time>
      </trkpt>
      <trkpt lat="43.48996" lon="6.79598">
        <ele>329</ele>
        <time>2011-01-09T10:33:37Z</time>
      </trkpt>
      <trkpt lat="43.48998" lon="6.79597">
        <ele>330</ele>
        <time>2011-01-09T10:33:38Z</time>
      </trkpt>
      <trkpt lat="43.49003" lon="6.79596">
        <ele>330</ele>
        <time>2011-01-09T10:33:40Z</time>
      </trkpt>
      <trkpt lat="43.49006" lon="6.79596">
        <ele>330</ele>
        <time>2011-01-09T10:33:41Z</time>
      </trkpt>
      <trkpt lat="43.49008" lon="6.79597">
        <ele>330</ele>
        <time>2011-01-09T10:33:42Z</time>
      </trkpt>
      <trkpt lat="43.49011" lon="6.79598">
        <ele>330</ele>
        <time>2011-01-09T10:33:43Z</time>
      </trkpt>
      <trkpt lat="43.49013" lon="6.796">
        <ele>330</ele>
        <time>2011-01-09T10:33:44Z</time>
      </trkpt>
      <trkpt lat="43.49015" lon="6.79602">
        <ele>330</ele>
        <time>2011-01-09T10:33:45Z</time>
      </trkpt>
      <trkpt lat="43.49017" lon="6.79604">
        <ele>330</ele>
        <time>2011-01-09T10:33:46Z</time>
      </trkpt>
      <trkpt lat="43.49019" lon="6.79606">
        <ele>330</ele>
        <time>2011-01-09T10:33:47Z</time>
      </trkpt>
      <trkpt lat="43.4902" lon="6.79609">
        <ele>330</ele>
        <time>2011-01-09T10:33:48Z</time>
      </trkpt>
      <trkpt lat="43.49021" lon="6.79612">
        <ele>330</ele>
        <time>2011-01-09T10:33:49Z</time>
      </trkpt>
      <trkpt lat="43.49022" lon="6.79616">
        <ele>330</ele>
        <time>2011-01-09T10:33:50Z</time>
      </trkpt>
      <trkpt lat="43.49023" lon="6.7962">
        <ele>330</ele>
        <time>2011-01-09T10:33:51Z</time>
      </trkpt>
      <trkpt lat="43.49023" lon="6.79627">
        <ele>330</ele>
        <time>2011-01-09T10:33:53Z</time>
      </trkpt>
      <trkpt lat="43.49024" lon="6.79631">
        <ele>330</ele>
        <time>2011-01-09T10:33:54Z</time>
      </trkpt>
      <trkpt lat="43.49024" lon="6.79634">
        <ele>330</ele>
        <time>2011-01-09T10:33:55Z</time>
      </trkpt>
      <trkpt lat="43.49025" lon="6.79641">
        <ele>331</ele>
        <time>2011-01-09T10:33:57Z</time>
      </trkpt>
      <trkpt lat="43.49026" lon="6.79649">
        <ele>331</ele>
        <time>2011-01-09T10:33:59Z</time>
      </trkpt>
      <trkpt lat="43.49026" lon="6.79652">
        <ele>331</ele>
        <time>2011-01-09T10:34:00Z</time>
      </trkpt>
      <trkpt lat="43.49027" lon="6.79655">
        <ele>331</ele>
        <time>2011-01-09T10:34:01Z</time>
      </trkpt>
      <trkpt lat="43.49028" lon="6.79658">
        <ele>331</ele>
        <time>2011-01-09T10:34:02Z</time>
      </trkpt>
      <trkpt lat="43.49032" lon="6.79668">
        <ele>331</ele>
        <time>2011-01-09T10:34:05Z</time>
      </trkpt>
      <trkpt lat="43.49032" lon="6.79671">
        <ele>332</ele>
        <time>2011-01-09T10:34:06Z</time>
      </trkpt>
      <trkpt lat="43.49034" lon="6.79674">
        <ele>332</ele>
        <time>2011-01-09T10:34:07Z</time>
      </trkpt>
      <trkpt lat="43.49036" lon="6.7968">
        <ele>332</ele>
        <time>2011-01-09T10:34:09Z</time>
      </trkpt>
      <trkpt lat="43.49037" lon="6.79687">
        <ele>332</ele>
        <time>2011-01-09T10:34:11Z</time>
      </trkpt>
      <trkpt lat="43.49038" lon="6.79691">
        <ele>332</ele>
        <time>2011-01-09T10:34:12Z</time>
      </trkpt>
      <trkpt lat="43.49039" lon="6.79698">
        <ele>332</ele>
        <time>2011-01-09T10:34:14Z</time>
      </trkpt>
      <trkpt lat="43.4904" lon="6.79708">
        <ele>333</ele>
        <time>2011-01-09T10:34:17Z</time>
      </trkpt>
      <trkpt lat="43.4904" lon="6.79711">
        <ele>333</ele>
        <time>2011-01-09T10:34:18Z</time>
      </trkpt>
      <trkpt lat="43.4904" lon="6.79718">
        <ele>333</ele>
        <time>2011-01-09T10:34:20Z</time>
      </trkpt>
      <trkpt lat="43.4904" lon="6.79721">
        <ele>333</ele>
        <time>2011-01-09T10:34:21Z</time>
      </trkpt>
      <trkpt lat="43.49042" lon="6.79731">
        <ele>333</ele>
        <time>2011-01-09T10:34:24Z</time>
      </trkpt>
      <trkpt lat="43.49044" lon="6.79738">
        <ele>333</ele>
        <time>2011-01-09T10:34:26Z</time>
      </trkpt>
      <trkpt lat="43.49045" lon="6.79741">
        <ele>334</ele>
        <time>2011-01-09T10:34:27Z</time>
      </trkpt>
      <trkpt lat="43.49048" lon="6.7975">
        <ele>334</ele>
        <time>2011-01-09T10:34:30Z</time>
      </trkpt>
      <trkpt lat="43.49051" lon="6.79759">
        <ele>334</ele>
        <time>2011-01-09T10:34:33Z</time>
      </trkpt>
      <trkpt lat="43.49054" lon="6.79765">
        <ele>335</ele>
        <time>2011-01-09T10:34:35Z</time>
      </trkpt>
      <trkpt lat="43.49059" lon="6.79773">
        <ele>335</ele>
        <time>2011-01-09T10:34:38Z</time>
      </trkpt>
      <trkpt lat="43.49063" lon="6.79778">
        <ele>335</ele>
        <time>2011-01-09T10:34:40Z</time>
      </trkpt>
      <trkpt lat="43.4907" lon="6.79789">
        <ele>336</ele>
        <time>2011-01-09T10:34:44Z</time>
      </trkpt>
      <trkpt lat="43.49071" lon="6.79791">
        <ele>336</ele>
        <time>2011-01-09T10:34:45Z</time>
      </trkpt>
      <trkpt lat="43.49075" lon="6.79796">
        <ele>336</ele>
        <time>2011-01-09T10:34:47Z</time>
      </trkpt>
      <trkpt lat="43.49079" lon="6.79801">
        <ele>336</ele>
        <time>2011-01-09T10:34:49Z</time>
      </trkpt>
      <trkpt lat="43.49085" lon="6.79806">
        <ele>337</ele>
        <time>2011-01-09T10:34:52Z</time>
      </trkpt>
      <trkpt lat="43.49089" lon="6.7981">
        <ele>337</ele>
        <time>2011-01-09T10:34:54Z</time>
      </trkpt>
      <trkpt lat="43.49095" lon="6.79817">
        <ele>338</ele>
        <time>2011-01-09T10:34:57Z</time>
      </trkpt>
      <trkpt lat="43.49107" lon="6.7983">
        <ele>338</ele>
        <time>2011-01-09T10:35:03Z</time>
      </trkpt>
      <trkpt lat="43.49113" lon="6.79837">
        <ele>339</ele>
        <time>2011-01-09T10:35:06Z</time>
      </trkpt>
      <trkpt lat="43.49114" lon="6.79839">
        <ele>339</ele>
        <time>2011-01-09T10:35:07Z</time>
      </trkpt>
      <trkpt lat="43.49118" lon="6.79844">
        <ele>339</ele>
        <time>2011-01-09T10:35:09Z</time>
      </trkpt>
      <trkpt lat="43.49123" lon="6.79852">
        <ele>339</ele>
        <time>2011-01-09T10:35:12Z</time>
      </trkpt>
      <trkpt lat="43.49125" lon="6.79855">
        <ele>339</ele>
        <time>2011-01-09T10:35:13Z</time>
      </trkpt>
      <trkpt lat="43.49126" lon="6.79858">
        <ele>339</ele>
        <time>2011-01-09T10:35:14Z</time>
      </trkpt>
      <trkpt lat="43.4913" lon="6.79871">
        <ele>340</ele>
        <time>2011-01-09T10:35:18Z</time>
      </trkpt>
      <trkpt lat="43.49132" lon="6.79878">
        <ele>340</ele>
        <time>2011-01-09T10:35:20Z</time>
      </trkpt>
      <trkpt lat="43.49135" lon="6.79888">
        <ele>340</ele>
        <time>2011-01-09T10:35:23Z</time>
      </trkpt>
      <trkpt lat="43.49138" lon="6.79894">
        <ele>341</ele>
        <time>2011-01-09T10:35:25Z</time>
      </trkpt>
      <trkpt lat="43.49142" lon="6.79907">
        <ele>341</ele>
        <time>2011-01-09T10:35:29Z</time>
      </trkpt>
      <trkpt lat="43.49143" lon="6.7991">
        <ele>341</ele>
        <time>2011-01-09T10:35:30Z</time>
      </trkpt>
      <trkpt lat="43.49147" lon="6.79923">
        <ele>342</ele>
        <time>2011-01-09T10:35:34Z</time>
      </trkpt>
      <trkpt lat="43.49149" lon="6.79926">
        <ele>342</ele>
        <time>2011-01-09T10:35:35Z</time>
      </trkpt>
      <trkpt lat="43.49151" lon="6.79936">
        <ele>342</ele>
        <time>2011-01-09T10:35:38Z</time>
      </trkpt>
      <trkpt lat="43.49153" lon="6.79946">
        <ele>343</ele>
        <time>2011-01-09T10:35:41Z</time>
      </trkpt>
      <trkpt lat="43.49153" lon="6.7995">
        <ele>343</ele>
        <time>2011-01-09T10:35:42Z</time>
      </trkpt>
      <trkpt lat="43.49155" lon="6.79956">
        <ele>343</ele>
        <time>2011-01-09T10:35:44Z</time>
      </trkpt>
      <trkpt lat="43.49156" lon="6.79963">
        <ele>343</ele>
        <time>2011-01-09T10:35:46Z</time>
      </trkpt>
      <trkpt lat="43.49157" lon="6.79969">
        <ele>344</ele>
        <time>2011-01-09T10:35:48Z</time>
      </trkpt>
      <trkpt lat="43.49158" lon="6.79973">
        <ele>344</ele>
        <time>2011-01-09T10:35:49Z</time>
      </trkpt>
      <trkpt lat="43.4916" lon="6.79979">
        <ele>344</ele>
        <time>2011-01-09T10:35:51Z</time>
      </trkpt>
      <trkpt lat="43.49161" lon="6.79981">
        <ele>344</ele>
        <time>2011-01-09T10:35:52Z</time>
      </trkpt>
      <trkpt lat="43.49163" lon="6.79983">
        <ele>344</ele>
        <time>2011-01-09T10:35:53Z</time>
      </trkpt>
      <trkpt lat="43.49164" lon="6.79985">
        <ele>344</ele>
        <time>2011-01-09T10:35:54Z</time>
      </trkpt>
      <trkpt lat="43.49168" lon="6.79989">
        <ele>344</ele>
        <time>2011-01-09T10:35:56Z</time>
      </trkpt>
      <trkpt lat="43.4917" lon="6.7999">
        <ele>344</ele>
        <time>2011-01-09T10:35:57Z</time>
      </trkpt>
      <trkpt lat="43.49171" lon="6.79992">
        <ele>344</ele>
        <time>2011-01-09T10:35:58Z</time>
      </trkpt>
      <trkpt lat="43.49173" lon="6.79993">
        <ele>344</ele>
        <time>2011-01-09T10:35:59Z</time>
      </trkpt>
      <trkpt lat="43.49175" lon="6.79993">
        <ele>345</ele>
        <time>2011-01-09T10:36:00Z</time>
      </trkpt>
      <trkpt lat="43.49178" lon="6.79994">
        <ele>345</ele>
        <time>2011-01-09T10:36:02Z</time>
      </trkpt>
      <trkpt lat="43.49182" lon="6.79993">
        <ele>345</ele>
        <time>2011-01-09T10:36:04Z</time>
      </trkpt>
      <trkpt lat="43.49187" lon="6.79993">
        <ele>345</ele>
        <time>2011-01-09T10:36:06Z</time>
      </trkpt>
      <trkpt lat="43.49191" lon="6.79993">
        <ele>346</ele>
        <time>2011-01-09T10:36:08Z</time>
      </trkpt>
      <trkpt lat="43.49196" lon="6.79996">
        <ele>346</ele>
        <time>2011-01-09T10:36:10Z</time>
      </trkpt>
      <trkpt lat="43.49202" lon="6.8">
        <ele>346</ele>
        <time>2011-01-09T10:36:13Z</time>
      </trkpt>
      <trkpt lat="43.49208" lon="6.80007">
        <ele>346</ele>
        <time>2011-01-09T10:36:16Z</time>
      </trkpt>
      <trkpt lat="43.49212" lon="6.8001">
        <ele>347</ele>
        <time>2011-01-09T10:36:18Z</time>
      </trkpt>
      <trkpt lat="43.49219" lon="6.80015">
        <ele>347</ele>
        <time>2011-01-09T10:36:21Z</time>
      </trkpt>
      <trkpt lat="43.49223" lon="6.80018">
        <ele>347</ele>
        <time>2011-01-09T10:36:23Z</time>
      </trkpt>
      <trkpt lat="43.49231" lon="6.80021">
        <ele>347</ele>
        <time>2011-01-09T10:36:26Z</time>
      </trkpt>
      <trkpt lat="43.49233" lon="6.80022">
        <ele>347</ele>
        <time>2011-01-09T10:36:27Z</time>
      </trkpt>
      <trkpt lat="43.4924" lon="6.80024">
        <ele>348</ele>
        <time>2011-01-09T10:36:30Z</time>
      </trkpt>
      <trkpt lat="43.49245" lon="6.80024">
        <ele>348</ele>
        <time>2011-01-09T10:36:32Z</time>
      </trkpt>
      <trkpt lat="43.4925" lon="6.80024">
        <ele>348</ele>
        <time>2011-01-09T10:36:34Z</time>
      </trkpt>
      <trkpt lat="43.49253" lon="6.80023">
        <ele>348</ele>
        <time>2011-01-09T10:36:35Z</time>
      </trkpt>
      <trkpt lat="43.4926" lon="6.8002">
        <ele>348</ele>
        <time>2011-01-09T10:36:38Z</time>
      </trkpt>
      <trkpt lat="43.49262" lon="6.80018">
        <ele>348</ele>
        <time>2011-01-09T10:36:39Z</time>
      </trkpt>
      <trkpt lat="43.49264" lon="6.80017">
        <ele>349</ele>
        <time>2011-01-09T10:36:40Z</time>
      </trkpt>
      <trkpt lat="43.49269" lon="6.80014">
        <ele>349</ele>
        <time>2011-01-09T10:36:42Z</time>
      </trkpt>
      <trkpt lat="43.49271" lon="6.80013">
        <ele>349</ele>
        <time>2011-01-09T10:36:43Z</time>
      </trkpt>
      <trkpt lat="43.49274" lon="6.80011">
        <ele>349</ele>
        <time>2011-01-09T10:36:44Z</time>
      </trkpt>
      <trkpt lat="43.49276" lon="6.8001">
        <ele>349</ele>
        <time>2011-01-09T10:36:45Z</time>
      </trkpt>
      <trkpt lat="43.49279" lon="6.8001">
        <ele>350</ele>
        <time>2011-01-09T10:36:46Z</time>
      </trkpt>
      <trkpt lat="43.49287" lon="6.80009">
        <ele>350</ele>
        <time>2011-01-09T10:36:49Z</time>
      </trkpt>
      <trkpt lat="43.49292" lon="6.80009">
        <ele>350</ele>
        <time>2011-01-09T10:36:51Z</time>
      </trkpt>
      <trkpt lat="43.49294" lon="6.8001">
        <ele>350</ele>
        <time>2011-01-09T10:36:52Z</time>
      </trkpt>
      <trkpt lat="43.49299" lon="6.80011">
        <ele>350</ele>
        <time>2011-01-09T10:36:54Z</time>
      </trkpt>
      <trkpt lat="43.49312" lon="6.80016">
        <ele>350</ele>
        <time>2011-01-09T10:36:59Z</time>
      </trkpt>
      <trkpt lat="43.49317" lon="6.80019">
        <ele>350</ele>
        <time>2011-01-09T10:37:01Z</time>
      </trkpt>
      <trkpt lat="43.49323" lon="6.80024">
        <ele>351</ele>
        <time>2011-01-09T10:37:04Z</time>
      </trkpt>
      <trkpt lat="43.49329" lon="6.80029">
        <ele>351</ele>
        <time>2011-01-09T10:37:07Z</time>
      </trkpt>
      <trkpt lat="43.49334" lon="6.80032">
        <ele>352</ele>
        <time>2011-01-09T10:37:09Z</time>
      </trkpt>
      <trkpt lat="43.49336" lon="6.80034">
        <ele>352</ele>
        <time>2011-01-09T10:37:10Z</time>
      </trkpt>
      <trkpt lat="43.4934" lon="6.80037">
        <ele>352</ele>
        <time>2011-01-09T10:37:12Z</time>
      </trkpt>
      <trkpt lat="43.49348" lon="6.80041">
        <ele>352</ele>
        <time>2011-01-09T10:37:15Z</time>
      </trkpt>
      <trkpt lat="43.49352" lon="6.80044">
        <ele>352</ele>
        <time>2011-01-09T10:37:17Z</time>
      </trkpt>
      <trkpt lat="43.49363" lon="6.80053">
        <ele>353</ele>
        <time>2011-01-09T10:37:22Z</time>
      </trkpt>
      <trkpt lat="43.49365" lon="6.80055">
        <ele>353</ele>
        <time>2011-01-09T10:37:23Z</time>
      </trkpt>
      <trkpt lat="43.4937" lon="6.80058">
        <ele>353</ele>
        <time>2011-01-09T10:37:25Z</time>
      </trkpt>
      <trkpt lat="43.49372" lon="6.8006">
        <ele>354</ele>
        <time>2011-01-09T10:37:26Z</time>
      </trkpt>
      <trkpt lat="43.49384" lon="6.80069">
        <ele>354</ele>
        <time>2011-01-09T10:37:31Z</time>
      </trkpt>
      <trkpt lat="43.49388" lon="6.80073">
        <ele>354</ele>
        <time>2011-01-09T10:37:33Z</time>
      </trkpt>
      <trkpt lat="43.49393" lon="6.80076">
        <ele>354</ele>
        <time>2011-01-09T10:37:35Z</time>
      </trkpt>
      <trkpt lat="43.494" lon="6.80083">
        <ele>355</ele>
        <time>2011-01-09T10:37:38Z</time>
      </trkpt>
      <trkpt lat="43.49404" lon="6.80087">
        <ele>355</ele>
        <time>2011-01-09T10:37:40Z</time>
      </trkpt>
      <trkpt lat="43.49406" lon="6.8009">
        <ele>355</ele>
        <time>2011-01-09T10:37:41Z</time>
      </trkpt>
      <trkpt lat="43.49407" lon="6.80093">
        <ele>355</ele>
        <time>2011-01-09T10:37:42Z</time>
      </trkpt>
      <trkpt lat="43.49409" lon="6.80096">
        <ele>355</ele>
        <time>2011-01-09T10:37:43Z</time>
      </trkpt>
      <trkpt lat="43.4941" lon="6.80099">
        <ele>356</ele>
        <time>2011-01-09T10:37:44Z</time>
      </trkpt>
      <trkpt lat="43.49411" lon="6.80102">
        <ele>356</ele>
        <time>2011-01-09T10:37:45Z</time>
      </trkpt>
      <trkpt lat="43.49413" lon="6.80106">
        <ele>356</ele>
        <time>2011-01-09T10:37:46Z</time>
      </trkpt>
      <trkpt lat="43.49413" lon="6.80109">
        <ele>356</ele>
        <time>2011-01-09T10:37:47Z</time>
      </trkpt>
      <trkpt lat="43.49415" lon="6.80117">
        <ele>356</ele>
        <time>2011-01-09T10:37:49Z</time>
      </trkpt>
      <trkpt lat="43.49415" lon="6.8012">
        <ele>356</ele>
        <time>2011-01-09T10:37:50Z</time>
      </trkpt>
      <trkpt lat="43.49416" lon="6.80128">
        <ele>356</ele>
        <time>2011-01-09T10:37:52Z</time>
      </trkpt>
      <trkpt lat="43.49416" lon="6.80131">
        <ele>356</ele>
        <time>2011-01-09T10:37:53Z</time>
      </trkpt>
      <trkpt lat="43.49417" lon="6.80135">
        <ele>356</ele>
        <time>2011-01-09T10:37:54Z</time>
      </trkpt>
      <trkpt lat="43.49417" lon="6.80138">
        <ele>356</ele>
        <time>2011-01-09T10:37:55Z</time>
      </trkpt>
      <trkpt lat="43.49419" lon="6.80159">
        <ele>357</ele>
        <time>2011-01-09T10:38:01Z</time>
      </trkpt>
      <trkpt lat="43.4942" lon="6.80166">
        <ele>357</ele>
        <time>2011-01-09T10:38:03Z</time>
      </trkpt>
      <trkpt lat="43.49421" lon="6.80169">
        <ele>357</ele>
        <time>2011-01-09T10:38:04Z</time>
      </trkpt>
      <trkpt lat="43.49422" lon="6.80172">
        <ele>357</ele>
        <time>2011-01-09T10:38:05Z</time>
      </trkpt>
      <trkpt lat="43.49425" lon="6.80179">
        <ele>357</ele>
        <time>2011-01-09T10:38:07Z</time>
      </trkpt>
      <trkpt lat="43.49426" lon="6.80182">
        <ele>357</ele>
        <time>2011-01-09T10:38:08Z</time>
      </trkpt>
      <trkpt lat="43.4943" lon="6.80187">
        <ele>358</ele>
        <time>2011-01-09T10:38:10Z</time>
      </trkpt>
      <trkpt lat="43.49432" lon="6.8019">
        <ele>358</ele>
        <time>2011-01-09T10:38:11Z</time>
      </trkpt>
      <trkpt lat="43.49435" lon="6.80194">
        <ele>358</ele>
        <time>2011-01-09T10:38:13Z</time>
      </trkpt>
      <trkpt lat="43.49437" lon="6.80196">
        <ele>358</ele>
        <time>2011-01-09T10:38:14Z</time>
      </trkpt>
      <trkpt lat="43.49442" lon="6.80199">
        <ele>359</ele>
        <time>2011-01-09T10:38:16Z</time>
      </trkpt>
      <trkpt lat="43.49444" lon="6.802">
        <ele>360</ele>
        <time>2011-01-09T10:38:17Z</time>
      </trkpt>
      <trkpt lat="43.49449" lon="6.80202">
        <ele>360</ele>
        <time>2011-01-09T10:38:19Z</time>
      </trkpt>
      <trkpt lat="43.49451" lon="6.80202">
        <ele>360</ele>
        <time>2011-01-09T10:38:20Z</time>
      </trkpt>
      <trkpt lat="43.49456" lon="6.80202">
        <ele>360</ele>
        <time>2011-01-09T10:38:22Z</time>
      </trkpt>
      <trkpt lat="43.49463" lon="6.80204">
        <ele>360</ele>
        <time>2011-01-09T10:38:25Z</time>
      </trkpt>
      <trkpt lat="43.49466" lon="6.80205">
        <ele>360</ele>
        <time>2011-01-09T10:38:26Z</time>
      </trkpt>
      <trkpt lat="43.49471" lon="6.80204">
        <ele>360</ele>
        <time>2011-01-09T10:38:28Z</time>
      </trkpt>
      <trkpt lat="43.49478" lon="6.80203">
        <ele>361</ele>
        <time>2011-01-09T10:38:31Z</time>
      </trkpt>
      <trkpt lat="43.49486" lon="6.80201">
        <ele>361</ele>
        <time>2011-01-09T10:38:34Z</time>
      </trkpt>
      <trkpt lat="43.49493" lon="6.802">
        <ele>361</ele>
        <time>2011-01-09T10:38:37Z</time>
      </trkpt>
      <trkpt lat="43.49506" lon="6.80196">
        <ele>362</ele>
        <time>2011-01-09T10:38:42Z</time>
      </trkpt>
      <trkpt lat="43.49511" lon="6.80194">
        <ele>362</ele>
        <time>2011-01-09T10:38:44Z</time>
      </trkpt>
      <trkpt lat="43.49516" lon="6.80192">
        <ele>362</ele>
        <time>2011-01-09T10:38:46Z</time>
      </trkpt>
      <trkpt lat="43.49522" lon="6.8019">
        <ele>362</ele>
        <time>2011-01-09T10:38:48Z</time>
      </trkpt>
      <trkpt lat="43.49527" lon="6.80188">
        <ele>362</ele>
        <time>2011-01-09T10:38:50Z</time>
      </trkpt>
      <trkpt lat="43.49529" lon="6.80187">
        <ele>363</ele>
        <time>2011-01-09T10:38:51Z</time>
      </trkpt>
      <trkpt lat="43.49532" lon="6.80186">
        <ele>363</ele>
        <time>2011-01-09T10:38:52Z</time>
      </trkpt>
      <trkpt lat="43.49535" lon="6.80185">
        <ele>363</ele>
        <time>2011-01-09T10:38:53Z</time>
      </trkpt>
      <trkpt lat="43.4954" lon="6.80182">
        <ele>363</ele>
        <time>2011-01-09T10:38:55Z</time>
      </trkpt>
      <trkpt lat="43.49542" lon="6.80181">
        <ele>363</ele>
        <time>2011-01-09T10:38:56Z</time>
      </trkpt>
      <trkpt lat="43.49549" lon="6.80176">
        <ele>364</ele>
        <time>2011-01-09T10:38:59Z</time>
      </trkpt>
      <trkpt lat="43.49551" lon="6.80174">
        <ele>364</ele>
        <time>2011-01-09T10:39:00Z</time>
      </trkpt>
      <trkpt lat="43.49558" lon="6.80166">
        <ele>365</ele>
        <time>2011-01-09T10:39:04Z</time>
      </trkpt>
      <trkpt lat="43.4956" lon="6.80165">
        <ele>365</ele>
        <time>2011-01-09T10:39:05Z</time>
      </trkpt>
      <trkpt lat="43.49563" lon="6.80164">
        <ele>365</ele>
        <time>2011-01-09T10:39:06Z</time>
      </trkpt>
      <trkpt lat="43.49565" lon="6.80165">
        <ele>365</ele>
        <time>2011-01-09T10:39:07Z</time>
      </trkpt>
      <trkpt lat="43.49567" lon="6.80166">
        <ele>366</ele>
        <time>2011-01-09T10:39:08Z</time>
      </trkpt>
      <trkpt lat="43.49568" lon="6.80166">
        <ele>366</ele>
        <time>2011-01-09T10:39:09Z</time>
      </trkpt>
      <trkpt lat="43.49568" lon="6.80165">
        <ele>366</ele>
        <time>2011-01-09T10:39:11Z</time>
      </trkpt>
      <trkpt lat="43.49567" lon="6.80165">
        <ele>367</ele>
        <time>2011-01-09T10:39:17Z</time>
      </trkpt>
      <trkpt lat="43.49567" lon="6.80165">
        <ele>367</ele>
        <time>2011-01-09T10:39:37Z</time>
      </trkpt>
      <trkpt lat="43.49567" lon="6.80165">
        <ele>367</ele>
        <time>2011-01-09T10:40:00Z</time>
      </trkpt>
      <trkpt lat="43.49569" lon="6.80165">
        <ele>367</ele>
        <time>2011-01-09T10:40:02Z</time>
      </trkpt>
      <trkpt lat="43.49574" lon="6.80166">
        <ele>367</ele>
        <time>2011-01-09T10:40:06Z</time>
      </trkpt>
      <trkpt lat="43.49575" lon="6.80166">
        <ele>367</ele>
        <time>2011-01-09T10:40:07Z</time>
      </trkpt>
      <trkpt lat="43.49577" lon="6.80165">
        <ele>367</ele>
        <time>2011-01-09T10:40:11Z</time>
      </trkpt>
      <trkpt lat="43.49578" lon="6.80165">
        <ele>367</ele>
        <time>2011-01-09T10:40:42Z</time>
      </trkpt>
      <trkpt lat="43.4958" lon="6.80165">
        <ele>366</ele>
        <time>2011-01-09T10:41:10Z</time>
      </trkpt>
      <trkpt lat="43.49585" lon="6.80165">
        <ele>366</ele>
        <time>2011-01-09T10:41:13Z</time>
      </trkpt>
      <trkpt lat="43.49589" lon="6.80165">
        <ele>366</ele>
        <time>2011-01-09T10:41:15Z</time>
      </trkpt>
      <trkpt lat="43.49594" lon="6.80164">
        <ele>366</ele>
        <time>2011-01-09T10:41:17Z</time>
      </trkpt>
      <trkpt lat="43.49596" lon="6.80164">
        <ele>366</ele>
        <time>2011-01-09T10:41:18Z</time>
      </trkpt>
      <trkpt lat="43.49601" lon="6.80164">
        <ele>366</ele>
        <time>2011-01-09T10:41:20Z</time>
      </trkpt>
      <trkpt lat="43.4961" lon="6.80164">
        <ele>366</ele>
        <time>2011-01-09T10:41:23Z</time>
      </trkpt>
      <trkpt lat="43.49615" lon="6.80163">
        <ele>366</ele>
        <time>2011-01-09T10:41:25Z</time>
      </trkpt>
      <trkpt lat="43.49619" lon="6.80163">
        <ele>365</ele>
        <time>2011-01-09T10:41:26Z</time>
      </trkpt>
      <trkpt lat="43.49631" lon="6.80161">
        <ele>365</ele>
        <time>2011-01-09T10:41:30Z</time>
      </trkpt>
      <trkpt lat="43.49634" lon="6.80161">
        <ele>365</ele>
        <time>2011-01-09T10:41:31Z</time>
      </trkpt>
      <trkpt lat="43.49641" lon="6.80161">
        <ele>364</ele>
        <time>2011-01-09T10:41:33Z</time>
      </trkpt>
      <trkpt lat="43.49645" lon="6.80161">
        <ele>364</ele>
        <time>2011-01-09T10:41:34Z</time>
      </trkpt>
      <trkpt lat="43.49654" lon="6.80158">
        <ele>364</ele>
        <time>2011-01-09T10:41:36Z</time>
      </trkpt>
      <trkpt lat="43.49658" lon="6.80157">
        <ele>363</ele>
        <time>2011-01-09T10:41:37Z</time>
      </trkpt>
      <trkpt lat="43.49662" lon="6.80155">
        <ele>363</ele>
        <time>2011-01-09T10:41:38Z</time>
      </trkpt>
      <trkpt lat="43.49667" lon="6.80153">
        <ele>363</ele>
        <time>2011-01-09T10:41:39Z</time>
      </trkpt>
      <trkpt lat="43.49672" lon="6.8015">
        <ele>363</ele>
        <time>2011-01-09T10:41:40Z</time>
      </trkpt>
      <trkpt lat="43.49676" lon="6.80146">
        <ele>363</ele>
        <time>2011-01-09T10:41:41Z</time>
      </trkpt>
      <trkpt lat="43.49727" lon="6.80094">
        <ele>363</ele>
        <time>2011-01-09T10:41:51Z</time>
      </trkpt>
      <trkpt lat="43.4979" lon="6.80032">
        <ele>355</ele>
        <time>2011-01-09T10:42:01Z</time>
      </trkpt>
      <trkpt lat="43.49852" lon="6.79948">
        <ele>349</ele>
        <time>2011-01-09T10:42:11Z</time>
      </trkpt>
      <trkpt lat="43.49923" lon="6.79864">
        <ele>343</ele>
        <time>2011-01-09T10:42:21Z</time>
      </trkpt>
      <trkpt lat="43.50001" lon="6.79796">
        <ele>337</ele>
        <time>2011-01-09T10:42:31Z</time>
      </trkpt>
      <trkpt lat="43.5005" lon="6.79699">
        <ele>331</ele>
        <time>2011-01-09T10:42:41Z</time>
      </trkpt>
      <trkpt lat="43.50087" lon="6.79589">
        <ele>325</ele>
        <time>2011-01-09T10:42:51Z</time>
      </trkpt>
      <trkpt lat="43.50131" lon="6.79483">
        <ele>318</ele>
        <time>2011-01-09T10:43:01Z</time>
      </trkpt>
      <trkpt lat="43.50162" lon="6.79437">
        <ele>316</ele>
        <time>2011-01-09T10:43:11Z</time>
      </trkpt>
      <trkpt lat="43.50165" lon="6.79438">
        <ele>315</ele>
        <time>2011-01-09T10:43:12Z</time>
      </trkpt>
      <trkpt lat="43.50172" lon="6.79438">
        <ele>315</ele>
        <time>2011-01-09T10:43:14Z</time>
      </trkpt>
      <trkpt lat="43.50175" lon="6.79438">
        <ele>315</ele>
        <time>2011-01-09T10:43:15Z</time>
      </trkpt>
      <trkpt lat="43.50177" lon="6.79436">
        <ele>315</ele>
        <time>2011-01-09T10:43:16Z</time>
      </trkpt>
      <trkpt lat="43.5018" lon="6.79434">
        <ele>315</ele>
        <time>2011-01-09T10:43:17Z</time>
      </trkpt>
      <trkpt lat="43.50182" lon="6.7943">
        <ele>315</ele>
        <time>2011-01-09T10:43:18Z</time>
      </trkpt>
      <trkpt lat="43.50184" lon="6.79425">
        <ele>315</ele>
        <time>2011-01-09T10:43:19Z</time>
      </trkpt>
      <trkpt lat="43.50187" lon="6.79414">
        <ele>314</ele>
        <time>2011-01-09T10:43:21Z</time>
      </trkpt>
      <trkpt lat="43.5019" lon="6.79402">
        <ele>314</ele>
        <time>2011-01-09T10:43:23Z</time>
      </trkpt>
      <trkpt lat="43.50191" lon="6.79396">
        <ele>314</ele>
        <time>2011-01-09T10:43:24Z</time>
      </trkpt>
      <trkpt lat="43.50194" lon="6.7939">
        <ele>314</ele>
        <time>2011-01-09T10:43:25Z</time>
      </trkpt>
      <trkpt lat="43.50199" lon="6.79379">
        <ele>314</ele>
        <time>2011-01-09T10:43:27Z</time>
      </trkpt>
      <trkpt lat="43.50201" lon="6.79375">
        <ele>313</ele>
        <time>2011-01-09T10:43:28Z</time>
      </trkpt>
      <trkpt lat="43.50202" lon="6.79369">
        <ele>313</ele>
        <time>2011-01-09T10:43:29Z</time>
      </trkpt>
      <trkpt lat="43.50204" lon="6.79364">
        <ele>313</ele>
        <time>2011-01-09T10:43:30Z</time>
      </trkpt>
      <trkpt lat="43.5021" lon="6.79351">
        <ele>313</ele>
        <time>2011-01-09T10:43:33Z</time>
      </trkpt>
      <trkpt lat="43.50212" lon="6.79347">
        <ele>313</ele>
        <time>2011-01-09T10:43:34Z</time>
      </trkpt>
      <trkpt lat="43.50213" lon="6.79343">
        <ele>313</ele>
        <time>2011-01-09T10:43:35Z</time>
      </trkpt>
      <trkpt lat="43.50213" lon="6.79338">
        <ele>313</ele>
        <time>2011-01-09T10:43:36Z</time>
      </trkpt>
      <trkpt lat="43.50213" lon="6.79333">
        <ele>313</ele>
        <time>2011-01-09T10:43:37Z</time>
      </trkpt>
      <trkpt lat="43.50213" lon="6.79329">
        <ele>313</ele>
        <time>2011-01-09T10:43:38Z</time>
      </trkpt>
      <trkpt lat="43.50212" lon="6.79324">
        <ele>313</ele>
        <time>2011-01-09T10:43:39Z</time>
      </trkpt>
      <trkpt lat="43.50212" lon="6.79319">
        <ele>313</ele>
        <time>2011-01-09T10:43:40Z</time>
      </trkpt>
      <trkpt lat="43.50212" lon="6.79315">
        <ele>313</ele>
        <time>2011-01-09T10:43:41Z</time>
      </trkpt>
      <trkpt lat="43.50211" lon="6.79311">
        <ele>313</ele>
        <time>2011-01-09T10:43:42Z</time>
      </trkpt>
      <trkpt lat="43.5021" lon="6.79307">
        <ele>314</ele>
        <time>2011-01-09T10:43:43Z</time>
      </trkpt>
      <trkpt lat="43.50208" lon="6.79305">
        <ele>314</ele>
        <time>2011-01-09T10:43:44Z</time>
      </trkpt>
      <trkpt lat="43.50206" lon="6.79304">
        <ele>314</ele>
        <time>2011-01-09T10:43:45Z</time>
      </trkpt>
      <trkpt lat="43.50203" lon="6.79303">
        <ele>315</ele>
        <time>2011-01-09T10:43:46Z</time>
      </trkpt>
      <trkpt lat="43.50201" lon="6.79304">
        <ele>315</ele>
        <time>2011-01-09T10:43:47Z</time>
      </trkpt>
      <trkpt lat="43.50199" lon="6.79304">
        <ele>316</ele>
        <time>2011-01-09T10:43:48Z</time>
      </trkpt>
      <trkpt lat="43.50195" lon="6.79308">
        <ele>316</ele>
        <time>2011-01-09T10:43:50Z</time>
      </trkpt>
      <trkpt lat="43.50191" lon="6.79312">
        <ele>317</ele>
        <time>2011-01-09T10:43:52Z</time>
      </trkpt>
      <trkpt lat="43.50189" lon="6.79313">
        <ele>317</ele>
        <time>2011-01-09T10:43:53Z</time>
      </trkpt>
      <trkpt lat="43.50187" lon="6.79315">
        <ele>317</ele>
        <time>2011-01-09T10:43:54Z</time>
      </trkpt>
      <trkpt lat="43.50185" lon="6.79316">
        <ele>317</ele>
        <time>2011-01-09T10:43:55Z</time>
      </trkpt>
      <trkpt lat="43.50184" lon="6.79316">
        <ele>317</ele>
        <time>2011-01-09T10:43:56Z</time>
      </trkpt>
      <trkpt lat="43.50181" lon="6.79317">
        <ele>318</ele>
        <time>2011-01-09T10:43:58Z</time>
      </trkpt>
      <trkpt lat="43.50179" lon="6.79316">
        <ele>318</ele>
        <time>2011-01-09T10:43:59Z</time>
      </trkpt>
      <trkpt lat="43.50177" lon="6.79315">
        <ele>318</ele>
        <time>2011-01-09T10:44:00Z</time>
      </trkpt>
      <trkpt lat="43.50176" lon="6.79314">
        <ele>318</ele>
        <time>2011-01-09T10:44:01Z</time>
      </trkpt>
      <trkpt lat="43.50174" lon="6.79312">
        <ele>318</ele>
        <time>2011-01-09T10:44:02Z</time>
      </trkpt>
      <trkpt lat="43.50171" lon="6.79303">
        <ele>319</ele>
        <time>2011-01-09T10:44:06Z</time>
      </trkpt>
      <trkpt lat="43.5017" lon="6.793">
        <ele>319</ele>
        <time>2011-01-09T10:44:07Z</time>
      </trkpt>
      <trkpt lat="43.50169" lon="6.79298">
        <ele>319</ele>
        <time>2011-01-09T10:44:08Z</time>
      </trkpt>
      <trkpt lat="43.50168" lon="6.79288">
        <ele>320</ele>
        <time>2011-01-09T10:44:12Z</time>
      </trkpt>
      <trkpt lat="43.50167" lon="6.79283">
        <ele>320</ele>
        <time>2011-01-09T10:44:14Z</time>
      </trkpt>
      <trkpt lat="43.50166" lon="6.79277">
        <ele>321</ele>
        <time>2011-01-09T10:44:16Z</time>
      </trkpt>
      <trkpt lat="43.50166" lon="6.79275">
        <ele>321</ele>
        <time>2011-01-09T10:44:17Z</time>
      </trkpt>
      <trkpt lat="43.50165" lon="6.79264">
        <ele>322</ele>
        <time>2011-01-09T10:44:21Z</time>
      </trkpt>
      <trkpt lat="43.50166" lon="6.79256">
        <ele>322</ele>
        <time>2011-01-09T10:44:24Z</time>
      </trkpt>
      <trkpt lat="43.50166" lon="6.79251">
        <ele>323</ele>
        <time>2011-01-09T10:44:26Z</time>
      </trkpt>
      <trkpt lat="43.50168" lon="6.79246">
        <ele>323</ele>
        <time>2011-01-09T10:44:28Z</time>
      </trkpt>
      <trkpt lat="43.50168" lon="6.79244">
        <ele>323</ele>
        <time>2011-01-09T10:44:29Z</time>
      </trkpt>
      <trkpt lat="43.50169" lon="6.79241">
        <ele>323</ele>
        <time>2011-01-09T10:44:30Z</time>
      </trkpt>
      <trkpt lat="43.5017" lon="6.79236">
        <ele>323</ele>
        <time>2011-01-09T10:44:32Z</time>
      </trkpt>
      <trkpt lat="43.50171" lon="6.79233">
        <ele>323</ele>
        <time>2011-01-09T10:44:33Z</time>
      </trkpt>
      <trkpt lat="43.50172" lon="6.79228">
        <ele>324</ele>
        <time>2011-01-09T10:44:35Z</time>
      </trkpt>
      <trkpt lat="43.50173" lon="6.79225">
        <ele>324</ele>
        <time>2011-01-09T10:44:36Z</time>
      </trkpt>
      <trkpt lat="43.50174" lon="6.7922">
        <ele>325</ele>
        <time>2011-01-09T10:44:38Z</time>
      </trkpt>
      <trkpt lat="43.50175" lon="6.79217">
        <ele>325</ele>
        <time>2011-01-09T10:44:39Z</time>
      </trkpt>
      <trkpt lat="43.50176" lon="6.79209">
        <ele>326</ele>
        <time>2011-01-09T10:44:42Z</time>
      </trkpt>
      <trkpt lat="43.50176" lon="6.79204">
        <ele>326</ele>
        <time>2011-01-09T10:44:44Z</time>
      </trkpt>
      <trkpt lat="43.50176" lon="6.79201">
        <ele>326</ele>
        <time>2011-01-09T10:44:45Z</time>
      </trkpt>
      <trkpt lat="43.50176" lon="6.79199">
        <ele>326</ele>
        <time>2011-01-09T10:44:46Z</time>
      </trkpt>
      <trkpt lat="43.50177" lon="6.79193">
        <ele>326</ele>
        <time>2011-01-09T10:44:48Z</time>
      </trkpt>
      <trkpt lat="43.50178" lon="6.79185">
        <ele>326</ele>
        <time>2011-01-09T10:44:51Z</time>
      </trkpt>
      <trkpt lat="43.50179" lon="6.79182">
        <ele>326</ele>
        <time>2011-01-09T10:44:52Z</time>
      </trkpt>
      <trkpt lat="43.5018" lon="6.79177">
        <ele>327</ele>
        <time>2011-01-09T10:44:54Z</time>
      </trkpt>
      <trkpt lat="43.5018" lon="6.79174">
        <ele>327</ele>
        <time>2011-01-09T10:44:55Z</time>
      </trkpt>
      <trkpt lat="43.50181" lon="6.79169">
        <ele>327</ele>
        <time>2011-01-09T10:44:57Z</time>
      </trkpt>
      <trkpt lat="43.50183" lon="6.79164">
        <ele>327</ele>
        <time>2011-01-09T10:44:59Z</time>
      </trkpt>
      <trkpt lat="43.50184" lon="6.79159">
        <ele>327</ele>
        <time>2011-01-09T10:45:01Z</time>
      </trkpt>
      <trkpt lat="43.50186" lon="6.79154">
        <ele>327</ele>
        <time>2011-01-09T10:45:03Z</time>
      </trkpt>
      <trkpt lat="43.50187" lon="6.79152">
        <ele>327</ele>
        <time>2011-01-09T10:45:04Z</time>
      </trkpt>
      <trkpt lat="43.50189" lon="6.79147">
        <ele>328</ele>
        <time>2011-01-09T10:45:06Z</time>
      </trkpt>
      <trkpt lat="43.50191" lon="6.79145">
        <ele>328</ele>
        <time>2011-01-09T10:45:07Z</time>
      </trkpt>
      <trkpt lat="43.50193" lon="6.7914">
        <ele>328</ele>
        <time>2011-01-09T10:45:09Z</time>
      </trkpt>
      <trkpt lat="43.50193" lon="6.79137">
        <ele>328</ele>
        <time>2011-01-09T10:45:10Z</time>
      </trkpt>
      <trkpt lat="43.50197" lon="6.7913">
        <ele>328</ele>
        <time>2011-01-09T10:45:13Z</time>
      </trkpt>
      <trkpt lat="43.50198" lon="6.79128">
        <ele>329</ele>
        <time>2011-01-09T10:45:14Z</time>
      </trkpt>
      <trkpt lat="43.502" lon="6.7912">
        <ele>329</ele>
        <time>2011-01-09T10:45:17Z</time>
      </trkpt>
      <trkpt lat="43.50202" lon="6.79113">
        <ele>329</ele>
        <time>2011-01-09T10:45:20Z</time>
      </trkpt>
      <trkpt lat="43.50203" lon="6.7911">
        <ele>329</ele>
        <time>2011-01-09T10:45:21Z</time>
      </trkpt>
      <trkpt lat="43.50204" lon="6.79097">
        <ele>330</ele>
        <time>2011-01-09T10:45:26Z</time>
      </trkpt>
      <trkpt lat="43.50205" lon="6.79092">
        <ele>331</ele>
        <time>2011-01-09T10:45:28Z</time>
      </trkpt>
      <trkpt lat="43.50205" lon="6.79089">
        <ele>331</ele>
        <time>2011-01-09T10:45:29Z</time>
      </trkpt>
      <trkpt lat="43.50205" lon="6.79084">
        <ele>331</ele>
        <time>2011-01-09T10:45:31Z</time>
      </trkpt>
      <trkpt lat="43.50205" lon="6.79078">
        <ele>332</ele>
        <time>2011-01-09T10:45:33Z</time>
      </trkpt>
      <trkpt lat="43.50205" lon="6.79075">
        <ele>332</ele>
        <time>2011-01-09T10:45:34Z</time>
      </trkpt>
      <trkpt lat="43.50206" lon="6.79073">
        <ele>332</ele>
        <time>2011-01-09T10:45:35Z</time>
      </trkpt>
      <trkpt lat="43.50206" lon="6.79068">
        <ele>333</ele>
        <time>2011-01-09T10:45:37Z</time>
      </trkpt>
      <trkpt lat="43.50206" lon="6.79057">
        <ele>334</ele>
        <time>2011-01-09T10:45:41Z</time>
      </trkpt>
      <trkpt lat="43.50207" lon="6.79055">
        <ele>334</ele>
        <time>2011-01-09T10:45:42Z</time>
      </trkpt>
      <trkpt lat="43.50207" lon="6.7905">
        <ele>334</ele>
        <time>2011-01-09T10:45:44Z</time>
      </trkpt>
      <trkpt lat="43.50209" lon="6.79046">
        <ele>334</ele>
        <time>2011-01-09T10:45:46Z</time>
      </trkpt>
      <trkpt lat="43.50209" lon="6.79043">
        <ele>335</ele>
        <time>2011-01-09T10:45:47Z</time>
      </trkpt>
      <trkpt lat="43.5021" lon="6.79039">
        <ele>335</ele>
        <time>2011-01-09T10:45:49Z</time>
      </trkpt>
      <trkpt lat="43.50211" lon="6.79035">
        <ele>335</ele>
        <time>2011-01-09T10:45:51Z</time>
      </trkpt>
      <trkpt lat="43.50211" lon="6.79033">
        <ele>335</ele>
        <time>2011-01-09T10:45:52Z</time>
      </trkpt>
      <trkpt lat="43.50213" lon="6.79026">
        <ele>335</ele>
        <time>2011-01-09T10:45:55Z</time>
      </trkpt>
      <trkpt lat="43.50214" lon="6.79022">
        <ele>335</ele>
        <time>2011-01-09T10:45:57Z</time>
      </trkpt>
      <trkpt lat="43.50215" lon="6.79019">
        <ele>335</ele>
        <time>2011-01-09T10:45:58Z</time>
      </trkpt>
      <trkpt lat="43.50215" lon="6.79017">
        <ele>335</ele>
        <time>2011-01-09T10:45:59Z</time>
      </trkpt>
      <trkpt lat="43.50216" lon="6.79015">
        <ele>335</ele>
        <time>2011-01-09T10:46:00Z</time>
      </trkpt>
      <trkpt lat="43.50216" lon="6.79013">
        <ele>335</ele>
        <time>2011-01-09T10:46:01Z</time>
      </trkpt>
      <trkpt lat="43.50218" lon="6.79005">
        <ele>335</ele>
        <time>2011-01-09T10:46:04Z</time>
      </trkpt>
      <trkpt lat="43.50219" lon="6.78999">
        <ele>335</ele>
        <time>2011-01-09T10:46:06Z</time>
      </trkpt>
      <trkpt lat="43.50219" lon="6.78996">
        <ele>335</ele>
        <time>2011-01-09T10:46:07Z</time>
      </trkpt>
      <trkpt lat="43.5022" lon="6.78993">
        <ele>335</ele>
        <time>2011-01-09T10:46:08Z</time>
      </trkpt>
      <trkpt lat="43.50221" lon="6.7899">
        <ele>335</ele>
        <time>2011-01-09T10:46:09Z</time>
      </trkpt>
      <trkpt lat="43.50224" lon="6.78984">
        <ele>335</ele>
        <time>2011-01-09T10:46:11Z</time>
      </trkpt>
      <trkpt lat="43.50228" lon="6.78977">
        <ele>334</ele>
        <time>2011-01-09T10:46:13Z</time>
      </trkpt>
      <trkpt lat="43.50232" lon="6.78969">
        <ele>334</ele>
        <time>2011-01-09T10:46:15Z</time>
      </trkpt>
      <trkpt lat="43.50235" lon="6.78965">
        <ele>334</ele>
        <time>2011-01-09T10:46:16Z</time>
      </trkpt>
      <trkpt lat="43.50245" lon="6.78951">
        <ele>333</ele>
        <time>2011-01-09T10:46:19Z</time>
      </trkpt>
      <trkpt lat="43.50319" lon="6.78922">
        <ele>325</ele>
        <time>2011-01-09T10:46:29Z</time>
      </trkpt>
      <trkpt lat="43.50366" lon="6.78847">
        <ele>323</ele>
        <time>2011-01-09T10:46:39Z</time>
      </trkpt>
      <trkpt lat="43.50404" lon="6.78785">
        <ele>321</ele>
        <time>2011-01-09T10:46:49Z</time>
      </trkpt>
      <trkpt lat="43.50421" lon="6.78716">
        <ele>322</ele>
        <time>2011-01-09T10:46:59Z</time>
      </trkpt>
      <trkpt lat="43.50422" lon="6.78709">
        <ele>322</ele>
        <time>2011-01-09T10:47:00Z</time>
      </trkpt>
      <trkpt lat="43.50422" lon="6.78702">
        <ele>321</ele>
        <time>2011-01-09T10:47:01Z</time>
      </trkpt>
      <trkpt lat="43.50427" lon="6.78628">
        <ele>320</ele>
        <time>2011-01-09T10:47:11Z</time>
      </trkpt>
      <trkpt lat="43.50426" lon="6.78621">
        <ele>320</ele>
        <time>2011-01-09T10:47:12Z</time>
      </trkpt>
      <trkpt lat="43.50425" lon="6.78614">
        <ele>320</ele>
        <time>2011-01-09T10:47:13Z</time>
      </trkpt>
      <trkpt lat="43.50424" lon="6.78609">
        <ele>320</ele>
        <time>2011-01-09T10:47:14Z</time>
      </trkpt>
      <trkpt lat="43.50423" lon="6.78604">
        <ele>320</ele>
        <time>2011-01-09T10:47:15Z</time>
      </trkpt>
      <trkpt lat="43.50423" lon="6.786">
        <ele>320</ele>
        <time>2011-01-09T10:47:16Z</time>
      </trkpt>
      <trkpt lat="43.50423" lon="6.78599">
        <ele>320</ele>
        <time>2011-01-09T10:47:17Z</time>
      </trkpt>
      <trkpt lat="43.50423" lon="6.786">
        <ele>320</ele>
        <time>2011-01-09T10:47:19Z</time>
      </trkpt>
      <trkpt lat="43.50423" lon="6.78601">
        <ele>320</ele>
        <time>2011-01-09T10:48:00Z</time>
      </trkpt>
      <trkpt lat="43.50423" lon="6.786">
        <ele>320</ele>
        <time>2011-01-09T10:48:01Z</time>
      </trkpt>
      <trkpt lat="43.50422" lon="6.78596">
        <ele>320</ele>
        <time>2011-01-09T10:48:03Z</time>
      </trkpt>
      <trkpt lat="43.50421" lon="6.78593">
        <ele>321</ele>
        <time>2011-01-09T10:48:04Z</time>
      </trkpt>
      <trkpt lat="43.5042" lon="6.7859">
        <ele>321</ele>
        <time>2011-01-09T10:48:05Z</time>
      </trkpt>
      <trkpt lat="43.50419" lon="6.78585">
        <ele>321</ele>
        <time>2011-01-09T10:48:07Z</time>
      </trkpt>
      <trkpt lat="43.50418" lon="6.78582">
        <ele>321</ele>
        <time>2011-01-09T10:48:08Z</time>
      </trkpt>
      <trkpt lat="43.50417" lon="6.78575">
        <ele>321</ele>
        <time>2011-01-09T10:48:10Z</time>
      </trkpt>
      <trkpt lat="43.50417" lon="6.78571">
        <ele>321</ele>
        <time>2011-01-09T10:48:11Z</time>
      </trkpt>
      <trkpt lat="43.50416" lon="6.78566">
        <ele>321</ele>
        <time>2011-01-09T10:48:12Z</time>
      </trkpt>
      <trkpt lat="43.50415" lon="6.78563">
        <ele>322</ele>
        <time>2011-01-09T10:48:13Z</time>
      </trkpt>
      <trkpt lat="43.50412" lon="6.78548">
        <ele>322</ele>
        <time>2011-01-09T10:48:17Z</time>
      </trkpt>
      <trkpt lat="43.50411" lon="6.78544">
        <ele>322</ele>
        <time>2011-01-09T10:48:18Z</time>
      </trkpt>
      <trkpt lat="43.5041" lon="6.78541">
        <ele>322</ele>
        <time>2011-01-09T10:48:19Z</time>
      </trkpt>
      <trkpt lat="43.50409" lon="6.78537">
        <ele>322</ele>
        <time>2011-01-09T10:48:20Z</time>
      </trkpt>
      <trkpt lat="43.50408" lon="6.78533">
        <ele>322</ele>
        <time>2011-01-09T10:48:21Z</time>
      </trkpt>
      <trkpt lat="43.50406" lon="6.78521">
        <ele>322</ele>
        <time>2011-01-09T10:48:24Z</time>
      </trkpt>
      <trkpt lat="43.50406" lon="6.78512">
        <ele>323</ele>
        <time>2011-01-09T10:48:26Z</time>
      </trkpt>
      <trkpt lat="43.50405" lon="6.785">
        <ele>324</ele>
        <time>2011-01-09T10:48:29Z</time>
      </trkpt>
      <trkpt lat="43.50404" lon="6.78496">
        <ele>324</ele>
        <time>2011-01-09T10:48:30Z</time>
      </trkpt>
      <trkpt lat="43.50402" lon="6.78489">
        <ele>324</ele>
        <time>2011-01-09T10:48:32Z</time>
      </trkpt>
      <trkpt lat="43.50401" lon="6.78486">
        <ele>324</ele>
        <time>2011-01-09T10:48:33Z</time>
      </trkpt>
      <trkpt lat="43.504" lon="6.78482">
        <ele>324</ele>
        <time>2011-01-09T10:48:34Z</time>
      </trkpt>
      <trkpt lat="43.50397" lon="6.78477">
        <ele>324</ele>
        <time>2011-01-09T10:48:36Z</time>
      </trkpt>
      <trkpt lat="43.50395" lon="6.78474">
        <ele>324</ele>
        <time>2011-01-09T10:48:37Z</time>
      </trkpt>
      <trkpt lat="43.50392" lon="6.78472">
        <ele>325</ele>
        <time>2011-01-09T10:48:38Z</time>
      </trkpt>
      <trkpt lat="43.50387" lon="6.78468">
        <ele>325</ele>
        <time>2011-01-09T10:48:40Z</time>
      </trkpt>
      <trkpt lat="43.50378" lon="6.7846">
        <ele>326</ele>
        <time>2011-01-09T10:48:44Z</time>
      </trkpt>
      <trkpt lat="43.50376" lon="6.78457">
        <ele>326</ele>
        <time>2011-01-09T10:48:45Z</time>
      </trkpt>
      <trkpt lat="43.50374" lon="6.78455">
        <ele>326</ele>
        <time>2011-01-09T10:48:46Z</time>
      </trkpt>
      <trkpt lat="43.50366" lon="6.78449">
        <ele>326</ele>
        <time>2011-01-09T10:48:49Z</time>
      </trkpt>
      <trkpt lat="43.50359" lon="6.78442">
        <ele>326</ele>
        <time>2011-01-09T10:48:52Z</time>
      </trkpt>
      <trkpt lat="43.50354" lon="6.78438">
        <ele>327</ele>
        <time>2011-01-09T10:48:54Z</time>
      </trkpt>
      <trkpt lat="43.50348" lon="6.78432">
        <ele>326</ele>
        <time>2011-01-09T10:48:57Z</time>
      </trkpt>
      <trkpt lat="43.50345" lon="6.7843">
        <ele>326</ele>
        <time>2011-01-09T10:48:58Z</time>
      </trkpt>
      <trkpt lat="43.50341" lon="6.78427">
        <ele>327</ele>
        <time>2011-01-09T10:49:00Z</time>
      </trkpt>
      <trkpt lat="43.50339" lon="6.78425">
        <ele>327</ele>
        <time>2011-01-09T10:49:01Z</time>
      </trkpt>
      <trkpt lat="43.50336" lon="6.7842">
        <ele>328</ele>
        <time>2011-01-09T10:49:03Z</time>
      </trkpt>
      <trkpt lat="43.50334" lon="6.78417">
        <ele>328</ele>
        <time>2011-01-09T10:49:04Z</time>
      </trkpt>
      <trkpt lat="43.50328" lon="6.78407">
        <ele>329</ele>
        <time>2011-01-09T10:49:08Z</time>
      </trkpt>
      <trkpt lat="43.50325" lon="6.78402">
        <ele>329</ele>
        <time>2011-01-09T10:49:10Z</time>
      </trkpt>
      <trkpt lat="43.50323" lon="6.78399">
        <ele>330</ele>
        <time>2011-01-09T10:49:11Z</time>
      </trkpt>
      <trkpt lat="43.50317" lon="6.78391">
        <ele>331</ele>
        <time>2011-01-09T10:49:14Z</time>
      </trkpt>
      <trkpt lat="43.50314" lon="6.78386">
        <ele>331</ele>
        <time>2011-01-09T10:49:16Z</time>
      </trkpt>
      <trkpt lat="43.50311" lon="6.78382">
        <ele>331</ele>
        <time>2011-01-09T10:49:18Z</time>
      </trkpt>
      <trkpt lat="43.5031" lon="6.78379">
        <ele>332</ele>
        <time>2011-01-09T10:49:19Z</time>
      </trkpt>
      <trkpt lat="43.50306" lon="6.78375">
        <ele>332</ele>
        <time>2011-01-09T10:49:21Z</time>
      </trkpt>
      <trkpt lat="43.50304" lon="6.78373">
        <ele>332</ele>
        <time>2011-01-09T10:49:22Z</time>
      </trkpt>
      <trkpt lat="43.50303" lon="6.7837">
        <ele>332</ele>
        <time>2011-01-09T10:49:23Z</time>
      </trkpt>
      <trkpt lat="43.503" lon="6.78366">
        <ele>333</ele>
        <time>2011-01-09T10:49:25Z</time>
      </trkpt>
      <trkpt lat="43.50296" lon="6.78361">
        <ele>334</ele>
        <time>2011-01-09T10:49:28Z</time>
      </trkpt>
      <trkpt lat="43.50295" lon="6.78359">
        <ele>334</ele>
        <time>2011-01-09T10:49:29Z</time>
      </trkpt>
      <trkpt lat="43.50295" lon="6.78358">
        <ele>334</ele>
        <time>2011-01-09T10:49:32Z</time>
      </trkpt>
      <trkpt lat="43.50295" lon="6.78357">
        <ele>334</ele>
        <time>2011-01-09T10:49:33Z</time>
      </trkpt>
      <trkpt lat="43.50294" lon="6.78354">
        <ele>335</ele>
        <time>2011-01-09T10:49:36Z</time>
      </trkpt>
      <trkpt lat="43.50294" lon="6.78354">
        <ele>335</ele>
        <time>2011-01-09T10:49:37Z</time>
      </trkpt>
      <trkpt lat="43.50294" lon="6.78352">
        <ele>335</ele>
        <time>2011-01-09T10:49:40Z</time>
      </trkpt>
      <trkpt lat="43.50293" lon="6.7835">
        <ele>336</ele>
        <time>2011-01-09T10:49:42Z</time>
      </trkpt>
      <trkpt lat="43.50293" lon="6.78346">
        <ele>336</ele>
        <time>2011-01-09T10:49:44Z</time>
      </trkpt>
      <trkpt lat="43.50292" lon="6.78344">
        <ele>336</ele>
        <time>2011-01-09T10:49:45Z</time>
      </trkpt>
      <trkpt lat="43.50291" lon="6.78343">
        <ele>336</ele>
        <time>2011-01-09T10:49:46Z</time>
      </trkpt>
      <trkpt lat="43.5029" lon="6.78342">
        <ele>336</ele>
        <time>2011-01-09T10:49:47Z</time>
      </trkpt>
      <trkpt lat="43.50289" lon="6.78342">
        <ele>336</ele>
        <time>2011-01-09T10:49:48Z</time>
      </trkpt>
      <trkpt lat="43.50287" lon="6.78343">
        <ele>336</ele>
        <time>2011-01-09T10:49:49Z</time>
      </trkpt>
      <trkpt lat="43.50285" lon="6.78343">
        <ele>336</ele>
        <time>2011-01-09T10:49:50Z</time>
      </trkpt>
      <trkpt lat="43.50284" lon="6.78343">
        <ele>336</ele>
        <time>2011-01-09T10:49:51Z</time>
      </trkpt>
      <trkpt lat="43.50283" lon="6.78342">
        <ele>336</ele>
        <time>2011-01-09T10:49:52Z</time>
      </trkpt>
      <trkpt lat="43.5028" lon="6.78341">
        <ele>335</ele>
        <time>2011-01-09T10:49:54Z</time>
      </trkpt>
      <trkpt lat="43.50278" lon="6.78339">
        <ele>335</ele>
        <time>2011-01-09T10:49:55Z</time>
      </trkpt>
      <trkpt lat="43.50277" lon="6.78337">
        <ele>335</ele>
        <time>2011-01-09T10:49:56Z</time>
      </trkpt>
      <trkpt lat="43.50277" lon="6.78335">
        <ele>334</ele>
        <time>2011-01-09T10:49:57Z</time>
      </trkpt>
      <trkpt lat="43.50278" lon="6.78327">
        <ele>333</ele>
        <time>2011-01-09T10:50:00Z</time>
      </trkpt>
      <trkpt lat="43.50278" lon="6.78325">
        <ele>332</ele>
        <time>2011-01-09T10:50:01Z</time>
      </trkpt>
      <trkpt lat="43.50279" lon="6.78322">
        <ele>332</ele>
        <time>2011-01-09T10:50:02Z</time>
      </trkpt>
      <trkpt lat="43.5028" lon="6.78315">
        <ele>331</ele>
        <time>2011-01-09T10:50:04Z</time>
      </trkpt>
      <trkpt lat="43.50281" lon="6.7831">
        <ele>330</ele>
        <time>2011-01-09T10:50:06Z</time>
      </trkpt>
      <trkpt lat="43.50282" lon="6.78308">
        <ele>329</ele>
        <time>2011-01-09T10:50:07Z</time>
      </trkpt>
      <trkpt lat="43.50286" lon="6.78301">
        <ele>328</ele>
        <time>2011-01-09T10:50:10Z</time>
      </trkpt>
      <trkpt lat="43.50288" lon="6.78299">
        <ele>327</ele>
        <time>2011-01-09T10:50:11Z</time>
      </trkpt>
      <trkpt lat="43.50291" lon="6.78295">
        <ele>327</ele>
        <time>2011-01-09T10:50:13Z</time>
      </trkpt>
      <trkpt lat="43.50293" lon="6.78291">
        <ele>326</ele>
        <time>2011-01-09T10:50:15Z</time>
      </trkpt>
      <trkpt lat="43.50295" lon="6.78289">
        <ele>326</ele>
        <time>2011-01-09T10:50:16Z</time>
      </trkpt>
      <trkpt lat="43.50297" lon="6.78288">
        <ele>325</ele>
        <time>2011-01-09T10:50:17Z</time>
      </trkpt>
      <trkpt lat="43.50303" lon="6.78283">
        <ele>324</ele>
        <time>2011-01-09T10:50:20Z</time>
      </trkpt>
      <trkpt lat="43.50309" lon="6.78279">
        <ele>324</ele>
        <time>2011-01-09T10:50:22Z</time>
      </trkpt>
      <trkpt lat="43.50311" lon="6.78277">
        <ele>324</ele>
        <time>2011-01-09T10:50:23Z</time>
      </trkpt>
      <trkpt lat="43.50313" lon="6.78274">
        <ele>323</ele>
        <time>2011-01-09T10:50:24Z</time>
      </trkpt>
      <trkpt lat="43.50314" lon="6.78271">
        <ele>323</ele>
        <time>2011-01-09T10:50:25Z</time>
      </trkpt>
      <trkpt lat="43.50315" lon="6.78269">
        <ele>322</ele>
        <time>2011-01-09T10:50:26Z</time>
      </trkpt>
      <trkpt lat="43.50318" lon="6.78265">
        <ele>321</ele>
        <time>2011-01-09T10:50:28Z</time>
      </trkpt>
      <trkpt lat="43.50319" lon="6.78262">
        <ele>321</ele>
        <time>2011-01-09T10:50:29Z</time>
      </trkpt>
      <trkpt lat="43.50321" lon="6.78257">
        <ele>320</ele>
        <time>2011-01-09T10:50:31Z</time>
      </trkpt>
      <trkpt lat="43.50322" lon="6.78254">
        <ele>320</ele>
        <time>2011-01-09T10:50:32Z</time>
      </trkpt>
      <trkpt lat="43.50324" lon="6.78249">
        <ele>319</ele>
        <time>2011-01-09T10:50:34Z</time>
      </trkpt>
      <trkpt lat="43.50326" lon="6.78243">
        <ele>318</ele>
        <time>2011-01-09T10:50:36Z</time>
      </trkpt>
      <trkpt lat="43.50327" lon="6.7824">
        <ele>318</ele>
        <time>2011-01-09T10:50:37Z</time>
      </trkpt>
      <trkpt lat="43.50329" lon="6.78237">
        <ele>318</ele>
        <time>2011-01-09T10:50:38Z</time>
      </trkpt>
      <trkpt lat="43.50331" lon="6.78234">
        <ele>318</ele>
        <time>2011-01-09T10:50:39Z</time>
      </trkpt>
      <trkpt lat="43.50332" lon="6.78231">
        <ele>317</ele>
        <time>2011-01-09T10:50:40Z</time>
      </trkpt>
      <trkpt lat="43.50333" lon="6.78228">
        <ele>317</ele>
        <time>2011-01-09T10:50:41Z</time>
      </trkpt>
      <trkpt lat="43.50335" lon="6.78214">
        <ele>316</ele>
        <time>2011-01-09T10:50:44Z</time>
      </trkpt>
      <trkpt lat="43.50335" lon="6.7821">
        <ele>316</ele>
        <time>2011-01-09T10:50:45Z</time>
      </trkpt>
      <trkpt lat="43.50336" lon="6.78207">
        <ele>316</ele>
        <time>2011-01-09T10:50:46Z</time>
      </trkpt>
      <trkpt lat="43.50335" lon="6.782">
        <ele>316</ele>
        <time>2011-01-09T10:50:48Z</time>
      </trkpt>
      <trkpt lat="43.50335" lon="6.78193">
        <ele>316</ele>
        <time>2011-01-09T10:50:50Z</time>
      </trkpt>
      <trkpt lat="43.50334" lon="6.7819">
        <ele>316</ele>
        <time>2011-01-09T10:50:51Z</time>
      </trkpt>
      <trkpt lat="43.50334" lon="6.78187">
        <ele>316</ele>
        <time>2011-01-09T10:50:52Z</time>
      </trkpt>
      <trkpt lat="43.50333" lon="6.78184">
        <ele>316</ele>
        <time>2011-01-09T10:50:53Z</time>
      </trkpt>
      <trkpt lat="43.50332" lon="6.78177">
        <ele>315</ele>
        <time>2011-01-09T10:50:55Z</time>
      </trkpt>
      <trkpt lat="43.50331" lon="6.78173">
        <ele>315</ele>
        <time>2011-01-09T10:50:56Z</time>
      </trkpt>
      <trkpt lat="43.5033" lon="6.7817">
        <ele>315</ele>
        <time>2011-01-09T10:50:57Z</time>
      </trkpt>
      <trkpt lat="43.50327" lon="6.78161">
        <ele>314</ele>
        <time>2011-01-09T10:50:59Z</time>
      </trkpt>
      <trkpt lat="43.50325" lon="6.78153">
        <ele>313</ele>
        <time>2011-01-09T10:51:01Z</time>
      </trkpt>
      <trkpt lat="43.50324" lon="6.78149">
        <ele>313</ele>
        <time>2011-01-09T10:51:02Z</time>
      </trkpt>
      <trkpt lat="43.5032" lon="6.78128">
        <ele>312</ele>
        <time>2011-01-09T10:51:06Z</time>
      </trkpt>
      <trkpt lat="43.50319" lon="6.78123">
        <ele>312</ele>
        <time>2011-01-09T10:51:07Z</time>
      </trkpt>
      <trkpt lat="43.50317" lon="6.78114">
        <ele>312</ele>
        <time>2011-01-09T10:51:09Z</time>
      </trkpt>
      <trkpt lat="43.50317" lon="6.7811">
        <ele>312</ele>
        <time>2011-01-09T10:51:10Z</time>
      </trkpt>
      <trkpt lat="43.50317" lon="6.78106">
        <ele>313</ele>
        <time>2011-01-09T10:51:11Z</time>
      </trkpt>
      <trkpt lat="43.50317" lon="6.78103">
        <ele>313</ele>
        <time>2011-01-09T10:51:12Z</time>
      </trkpt>
      <trkpt lat="43.50318" lon="6.781">
        <ele>313</ele>
        <time>2011-01-09T10:51:13Z</time>
      </trkpt>
      <trkpt lat="43.50319" lon="6.78099">
        <ele>314</ele>
        <time>2011-01-09T10:51:14Z</time>
      </trkpt>
      <trkpt lat="43.5032" lon="6.78098">
        <ele>314</ele>
        <time>2011-01-09T10:51:16Z</time>
      </trkpt>
      <trkpt lat="43.50321" lon="6.78097">
        <ele>314</ele>
        <time>2011-01-09T10:51:17Z</time>
      </trkpt>
      <trkpt lat="43.50322" lon="6.78095">
        <ele>313</ele>
        <time>2011-01-09T10:51:18Z</time>
      </trkpt>
      <trkpt lat="43.50323" lon="6.78086">
        <ele>312</ele>
        <time>2011-01-09T10:51:21Z</time>
      </trkpt>
      <trkpt lat="43.50323" lon="6.78083">
        <ele>311</ele>
        <time>2011-01-09T10:51:22Z</time>
      </trkpt>
      <trkpt lat="43.50322" lon="6.78079">
        <ele>311</ele>
        <time>2011-01-09T10:51:23Z</time>
      </trkpt>
      <trkpt lat="43.5032" lon="6.78076">
        <ele>310</ele>
        <time>2011-01-09T10:51:24Z</time>
      </trkpt>
      <trkpt lat="43.50318" lon="6.78073">
        <ele>310</ele>
        <time>2011-01-09T10:51:25Z</time>
      </trkpt>
      <trkpt lat="43.50316" lon="6.7807">
        <ele>310</ele>
        <time>2011-01-09T10:51:26Z</time>
      </trkpt>
      <trkpt lat="43.50311" lon="6.78063">
        <ele>310</ele>
        <time>2011-01-09T10:51:28Z</time>
      </trkpt>
      <trkpt lat="43.50305" lon="6.78053">
        <ele>309</ele>
        <time>2011-01-09T10:51:31Z</time>
      </trkpt>
      <trkpt lat="43.50302" lon="6.78047">
        <ele>308</ele>
        <time>2011-01-09T10:51:33Z</time>
      </trkpt>
      <trkpt lat="43.50301" lon="6.78044">
        <ele>307</ele>
        <time>2011-01-09T10:51:34Z</time>
      </trkpt>
      <trkpt lat="43.503" lon="6.78037">
        <ele>306</ele>
        <time>2011-01-09T10:51:36Z</time>
      </trkpt>
      <trkpt lat="43.50298" lon="6.78033">
        <ele>305</ele>
        <time>2011-01-09T10:51:37Z</time>
      </trkpt>
      <trkpt lat="43.50296" lon="6.78029">
        <ele>305</ele>
        <time>2011-01-09T10:51:38Z</time>
      </trkpt>
      <trkpt lat="43.5029" lon="6.78024">
        <ele>304</ele>
        <time>2011-01-09T10:51:40Z</time>
      </trkpt>
      <trkpt lat="43.50286" lon="6.78019">
        <ele>303</ele>
        <time>2011-01-09T10:51:42Z</time>
      </trkpt>
      <trkpt lat="43.50284" lon="6.78018">
        <ele>303</ele>
        <time>2011-01-09T10:51:43Z</time>
      </trkpt>
      <trkpt lat="43.50277" lon="6.78018">
        <ele>302</ele>
        <time>2011-01-09T10:51:45Z</time>
      </trkpt>
      <trkpt lat="43.50274" lon="6.78018">
        <ele>302</ele>
        <time>2011-01-09T10:51:46Z</time>
      </trkpt>
      <trkpt lat="43.5027" lon="6.78017">
        <ele>301</ele>
        <time>2011-01-09T10:51:47Z</time>
      </trkpt>
      <trkpt lat="43.50266" lon="6.78016">
        <ele>301</ele>
        <time>2011-01-09T10:51:48Z</time>
      </trkpt>
      <trkpt lat="43.50263" lon="6.78013">
        <ele>300</ele>
        <time>2011-01-09T10:51:49Z</time>
      </trkpt>
      <trkpt lat="43.50259" lon="6.7801">
        <ele>300</ele>
        <time>2011-01-09T10:51:50Z</time>
      </trkpt>
      <trkpt lat="43.50255" lon="6.78006">
        <ele>299</ele>
        <time>2011-01-09T10:51:51Z</time>
      </trkpt>
      <trkpt lat="43.5025" lon="6.78002">
        <ele>299</ele>
        <time>2011-01-09T10:51:52Z</time>
      </trkpt>
      <trkpt lat="43.50211" lon="6.7798">
        <ele>298</ele>
        <time>2011-01-09T10:52:02Z</time>
      </trkpt>
      <trkpt lat="43.50208" lon="6.77978">
        <ele>298</ele>
        <time>2011-01-09T10:52:03Z</time>
      </trkpt>
      <trkpt lat="43.50202" lon="6.77975">
        <ele>298</ele>
        <time>2011-01-09T10:52:05Z</time>
      </trkpt>
      <trkpt lat="43.50201" lon="6.77973">
        <ele>297</ele>
        <time>2011-01-09T10:52:06Z</time>
      </trkpt>
      <trkpt lat="43.50202" lon="6.7797">
        <ele>297</ele>
        <time>2011-01-09T10:52:07Z</time>
      </trkpt>
      <trkpt lat="43.50204" lon="6.77968">
        <ele>297</ele>
        <time>2011-01-09T10:52:08Z</time>
      </trkpt>
      <trkpt lat="43.50214" lon="6.77967">
        <ele>297</ele>
        <time>2011-01-09T10:52:11Z</time>
      </trkpt>
      <trkpt lat="43.50225" lon="6.77966">
        <ele>296</ele>
        <time>2011-01-09T10:52:14Z</time>
      </trkpt>
      <trkpt lat="43.50228" lon="6.77965">
        <ele>296</ele>
        <time>2011-01-09T10:52:15Z</time>
      </trkpt>
      <trkpt lat="43.50242" lon="6.77964">
        <ele>295</ele>
        <time>2011-01-09T10:52:18Z</time>
      </trkpt>
      <trkpt lat="43.50252" lon="6.77963">
        <ele>294</ele>
        <time>2011-01-09T10:52:20Z</time>
      </trkpt>
      <trkpt lat="43.50261" lon="6.77965">
        <ele>294</ele>
        <time>2011-01-09T10:52:22Z</time>
      </trkpt>
      <trkpt lat="43.50265" lon="6.77965">
        <ele>294</ele>
        <time>2011-01-09T10:52:23Z</time>
      </trkpt>
      <trkpt lat="43.50268" lon="6.77964">
        <ele>293</ele>
        <time>2011-01-09T10:52:24Z</time>
      </trkpt>
      <trkpt lat="43.50268" lon="6.77961">
        <ele>293</ele>
        <time>2011-01-09T10:52:25Z</time>
      </trkpt>
      <trkpt lat="43.50267" lon="6.77957">
        <ele>292</ele>
        <time>2011-01-09T10:52:26Z</time>
      </trkpt>
      <trkpt lat="43.50265" lon="6.77953">
        <ele>291</ele>
        <time>2011-01-09T10:52:27Z</time>
      </trkpt>
      <trkpt lat="43.50261" lon="6.77951">
        <ele>291</ele>
        <time>2011-01-09T10:52:28Z</time>
      </trkpt>
      <trkpt lat="43.50258" lon="6.7795">
        <ele>290</ele>
        <time>2011-01-09T10:52:29Z</time>
      </trkpt>
      <trkpt lat="43.50254" lon="6.77947">
        <ele>290</ele>
        <time>2011-01-09T10:52:30Z</time>
      </trkpt>
      <trkpt lat="43.50251" lon="6.77944">
        <ele>289</ele>
        <time>2011-01-09T10:52:31Z</time>
      </trkpt>
      <trkpt lat="43.50247" lon="6.77941">
        <ele>289</ele>
        <time>2011-01-09T10:52:32Z</time>
      </trkpt>
      <trkpt lat="43.5024" lon="6.77934">
        <ele>288</ele>
        <time>2011-01-09T10:52:34Z</time>
      </trkpt>
      <trkpt lat="43.50233" lon="6.77929">
        <ele>287</ele>
        <time>2011-01-09T10:52:36Z</time>
      </trkpt>
      <trkpt lat="43.5023" lon="6.77926">
        <ele>286</ele>
        <time>2011-01-09T10:52:37Z</time>
      </trkpt>
      <trkpt lat="43.50225" lon="6.7792">
        <ele>285</ele>
        <time>2011-01-09T10:52:39Z</time>
      </trkpt>
      <trkpt lat="43.50213" lon="6.77909">
        <ele>283</ele>
        <time>2011-01-09T10:52:42Z</time>
      </trkpt>
      <trkpt lat="43.50198" lon="6.77885">
        <ele>278</ele>
        <time>2011-01-09T10:52:52Z</time>
      </trkpt>
      <trkpt lat="43.50201" lon="6.77886">
        <ele>278</ele>
        <time>2011-01-09T10:52:53Z</time>
      </trkpt>
      <trkpt lat="43.50204" lon="6.77887">
        <ele>277</ele>
        <time>2011-01-09T10:52:54Z</time>
      </trkpt>
      <trkpt lat="43.50207" lon="6.77888">
        <ele>277</ele>
        <time>2011-01-09T10:52:55Z</time>
      </trkpt>
      <trkpt lat="43.50212" lon="6.77889">
        <ele>276</ele>
        <time>2011-01-09T10:52:56Z</time>
      </trkpt>
      <trkpt lat="43.50217" lon="6.77889">
        <ele>275</ele>
        <time>2011-01-09T10:52:57Z</time>
      </trkpt>
      <trkpt lat="43.50227" lon="6.7789">
        <ele>274</ele>
        <time>2011-01-09T10:52:59Z</time>
      </trkpt>
      <trkpt lat="43.50232" lon="6.77891">
        <ele>273</ele>
        <time>2011-01-09T10:53:00Z</time>
      </trkpt>
      <trkpt lat="43.50237" lon="6.77892">
        <ele>273</ele>
        <time>2011-01-09T10:53:01Z</time>
      </trkpt>
      <trkpt lat="43.50252" lon="6.77894">
        <ele>271</ele>
        <time>2011-01-09T10:53:04Z</time>
      </trkpt>
      <trkpt lat="43.50256" lon="6.77895">
        <ele>270</ele>
        <time>2011-01-09T10:53:05Z</time>
      </trkpt>
      <trkpt lat="43.50264" lon="6.77899">
        <ele>269</ele>
        <time>2011-01-09T10:53:07Z</time>
      </trkpt>
      <trkpt lat="43.50267" lon="6.77899">
        <ele>269</ele>
        <time>2011-01-09T10:53:08Z</time>
      </trkpt>
      <trkpt lat="43.50268" lon="6.77898">
        <ele>269</ele>
        <time>2011-01-09T10:53:09Z</time>
      </trkpt>
      <trkpt lat="43.50269" lon="6.77895">
        <ele>268</ele>
        <time>2011-01-09T10:53:10Z</time>
      </trkpt>
      <trkpt lat="43.50268" lon="6.77892">
        <ele>268</ele>
        <time>2011-01-09T10:53:11Z</time>
      </trkpt>
      <trkpt lat="43.50266" lon="6.7789">
        <ele>268</ele>
        <time>2011-01-09T10:53:12Z</time>
      </trkpt>
      <trkpt lat="43.50263" lon="6.77887">
        <ele>268</ele>
        <time>2011-01-09T10:53:13Z</time>
      </trkpt>
      <trkpt lat="43.5026" lon="6.77886">
        <ele>268</ele>
        <time>2011-01-09T10:53:14Z</time>
      </trkpt>
      <trkpt lat="43.50254" lon="6.7788">
        <ele>267</ele>
        <time>2011-01-09T10:53:16Z</time>
      </trkpt>
      <trkpt lat="43.5025" lon="6.77877">
        <ele>266</ele>
        <time>2011-01-09T10:53:17Z</time>
      </trkpt>
      <trkpt lat="43.50243" lon="6.77871">
        <ele>265</ele>
        <time>2011-01-09T10:53:19Z</time>
      </trkpt>
      <trkpt lat="43.50235" lon="6.77861">
        <ele>263</ele>
        <time>2011-01-09T10:53:21Z</time>
      </trkpt>
      <trkpt lat="43.50187" lon="6.77824">
        <ele>257</ele>
        <time>2011-01-09T10:53:31Z</time>
      </trkpt>
      <trkpt lat="43.50182" lon="6.77822">
        <ele>256</ele>
        <time>2011-01-09T10:53:32Z</time>
      </trkpt>
      <trkpt lat="43.50173" lon="6.77821">
        <ele>256</ele>
        <time>2011-01-09T10:53:34Z</time>
      </trkpt>
      <trkpt lat="43.5017" lon="6.7782">
        <ele>255</ele>
        <time>2011-01-09T10:53:35Z</time>
      </trkpt>
      <trkpt lat="43.50168" lon="6.77817">
        <ele>255</ele>
        <time>2011-01-09T10:53:36Z</time>
      </trkpt>
      <trkpt lat="43.50169" lon="6.77814">
        <ele>254</ele>
        <time>2011-01-09T10:53:37Z</time>
      </trkpt>
      <trkpt lat="43.50171" lon="6.77812">
        <ele>254</ele>
        <time>2011-01-09T10:53:38Z</time>
      </trkpt>
      <trkpt lat="43.50175" lon="6.77811">
        <ele>253</ele>
        <time>2011-01-09T10:53:39Z</time>
      </trkpt>
      <trkpt lat="43.50179" lon="6.77812">
        <ele>253</ele>
        <time>2011-01-09T10:53:40Z</time>
      </trkpt>
      <trkpt lat="43.50183" lon="6.77812">
        <ele>253</ele>
        <time>2011-01-09T10:53:41Z</time>
      </trkpt>
      <trkpt lat="43.50198" lon="6.7781">
        <ele>251</ele>
        <time>2011-01-09T10:53:44Z</time>
      </trkpt>
      <trkpt lat="43.50202" lon="6.77809">
        <ele>250</ele>
        <time>2011-01-09T10:53:45Z</time>
      </trkpt>
      <trkpt lat="43.50212" lon="6.77809">
        <ele>249</ele>
        <time>2011-01-09T10:53:47Z</time>
      </trkpt>
      <trkpt lat="43.50222" lon="6.7781">
        <ele>248</ele>
        <time>2011-01-09T10:53:49Z</time>
      </trkpt>
      <trkpt lat="43.50232" lon="6.7781">
        <ele>247</ele>
        <time>2011-01-09T10:53:51Z</time>
      </trkpt>
      <trkpt lat="43.50237" lon="6.77811">
        <ele>246</ele>
        <time>2011-01-09T10:53:52Z</time>
      </trkpt>
      <trkpt lat="43.5024" lon="6.77812">
        <ele>246</ele>
        <time>2011-01-09T10:53:53Z</time>
      </trkpt>
      <trkpt lat="43.50242" lon="6.77814">
        <ele>245</ele>
        <time>2011-01-09T10:53:54Z</time>
      </trkpt>
      <trkpt lat="43.50244" lon="6.77815">
        <ele>245</ele>
        <time>2011-01-09T10:53:55Z</time>
      </trkpt>
      <trkpt lat="43.50247" lon="6.77816">
        <ele>245</ele>
        <time>2011-01-09T10:53:56Z</time>
      </trkpt>
      <trkpt lat="43.50249" lon="6.77815">
        <ele>244</ele>
        <time>2011-01-09T10:53:57Z</time>
      </trkpt>
      <trkpt lat="43.5025" lon="6.77813">
        <ele>243</ele>
        <time>2011-01-09T10:53:58Z</time>
      </trkpt>
      <trkpt lat="43.5025" lon="6.7781">
        <ele>243</ele>
        <time>2011-01-09T10:53:59Z</time>
      </trkpt>
      <trkpt lat="43.5025" lon="6.77807">
        <ele>243</ele>
        <time>2011-01-09T10:54:00Z</time>
      </trkpt>
      <trkpt lat="43.50249" lon="6.77805">
        <ele>243</ele>
        <time>2011-01-09T10:54:01Z</time>
      </trkpt>
      <trkpt lat="43.50247" lon="6.77804">
        <ele>243</ele>
        <time>2011-01-09T10:54:02Z</time>
      </trkpt>
      <trkpt lat="43.50243" lon="6.77802">
        <ele>243</ele>
        <time>2011-01-09T10:54:04Z</time>
      </trkpt>
      <trkpt lat="43.5023" lon="6.77795">
        <ele>243</ele>
        <time>2011-01-09T10:54:08Z</time>
      </trkpt>
      <trkpt lat="43.50222" lon="6.7779">
        <ele>243</ele>
        <time>2011-01-09T10:54:10Z</time>
      </trkpt>
      <trkpt lat="43.50215" lon="6.77786">
        <ele>243</ele>
        <time>2011-01-09T10:54:12Z</time>
      </trkpt>
      <trkpt lat="43.50212" lon="6.77784">
        <ele>242</ele>
        <time>2011-01-09T10:54:14Z</time>
      </trkpt>
      <trkpt lat="43.50208" lon="6.77779">
        <ele>242</ele>
        <time>2011-01-09T10:54:16Z</time>
      </trkpt>
      <trkpt lat="43.50206" lon="6.77777">
        <ele>242</ele>
        <time>2011-01-09T10:54:17Z</time>
      </trkpt>
      <trkpt lat="43.50205" lon="6.77774">
        <ele>242</ele>
        <time>2011-01-09T10:54:18Z</time>
      </trkpt>
      <trkpt lat="43.50206" lon="6.77772">
        <ele>242</ele>
        <time>2011-01-09T10:54:19Z</time>
      </trkpt>
      <trkpt lat="43.50207" lon="6.7777">
        <ele>242</ele>
        <time>2011-01-09T10:54:20Z</time>
      </trkpt>
      <trkpt lat="43.50208" lon="6.7777">
        <ele>241</ele>
        <time>2011-01-09T10:54:21Z</time>
      </trkpt>
      <trkpt lat="43.50211" lon="6.7777">
        <ele>242</ele>
        <time>2011-01-09T10:54:23Z</time>
      </trkpt>
      <trkpt lat="43.50212" lon="6.7777">
        <ele>242</ele>
        <time>2011-01-09T10:54:36Z</time>
      </trkpt>
      <trkpt lat="43.50223" lon="6.7777">
        <ele>241</ele>
        <time>2011-01-09T10:54:40Z</time>
      </trkpt>
      <trkpt lat="43.50226" lon="6.7777">
        <ele>241</ele>
        <time>2011-01-09T10:54:41Z</time>
      </trkpt>
      <trkpt lat="43.50229" lon="6.77771">
        <ele>241</ele>
        <time>2011-01-09T10:54:42Z</time>
      </trkpt>
      <trkpt lat="43.50232" lon="6.77772">
        <ele>241</ele>
        <time>2011-01-09T10:54:43Z</time>
      </trkpt>
      <trkpt lat="43.50241" lon="6.77778">
        <ele>241</ele>
        <time>2011-01-09T10:54:46Z</time>
      </trkpt>
      <trkpt lat="43.50244" lon="6.77779">
        <ele>241</ele>
        <time>2011-01-09T10:54:47Z</time>
      </trkpt>
      <trkpt lat="43.50253" lon="6.77782">
        <ele>240</ele>
        <time>2011-01-09T10:54:50Z</time>
      </trkpt>
      <trkpt lat="43.50257" lon="6.77784">
        <ele>240</ele>
        <time>2011-01-09T10:54:51Z</time>
      </trkpt>
      <trkpt lat="43.5026" lon="6.77785">
        <ele>240</ele>
        <time>2011-01-09T10:54:52Z</time>
      </trkpt>
      <trkpt lat="43.50276" lon="6.77793">
        <ele>240</ele>
        <time>2011-01-09T10:54:56Z</time>
      </trkpt>
      <trkpt lat="43.5028" lon="6.77795">
        <ele>240</ele>
        <time>2011-01-09T10:54:57Z</time>
      </trkpt>
      <trkpt lat="43.50284" lon="6.77799">
        <ele>240</ele>
        <time>2011-01-09T10:54:58Z</time>
      </trkpt>
      <trkpt lat="43.50289" lon="6.77801">
        <ele>240</ele>
        <time>2011-01-09T10:54:59Z</time>
      </trkpt>
      <trkpt lat="43.50295" lon="6.77804">
        <ele>240</ele>
        <time>2011-01-09T10:55:00Z</time>
      </trkpt>
      <trkpt lat="43.50299" lon="6.77807">
        <ele>239</ele>
        <time>2011-01-09T10:55:01Z</time>
      </trkpt>
      <trkpt lat="43.50303" lon="6.7781">
        <ele>239</ele>
        <time>2011-01-09T10:55:02Z</time>
      </trkpt>
      <trkpt lat="43.50312" lon="6.77817">
        <ele>239</ele>
        <time>2011-01-09T10:55:04Z</time>
      </trkpt>
      <trkpt lat="43.50358" lon="6.77842">
        <ele>239</ele>
        <time>2011-01-09T10:55:15Z</time>
      </trkpt>
      <trkpt lat="43.50361" lon="6.77843">
        <ele>239</ele>
        <time>2011-01-09T10:55:16Z</time>
      </trkpt>
      <trkpt lat="43.50368" lon="6.77848">
        <ele>239</ele>
        <time>2011-01-09T10:55:18Z</time>
      </trkpt>
      <trkpt lat="43.50377" lon="6.77852">
        <ele>239</ele>
        <time>2011-01-09T10:55:20Z</time>
      </trkpt>
      <trkpt lat="43.50384" lon="6.77857">
        <ele>239</ele>
        <time>2011-01-09T10:55:22Z</time>
      </trkpt>
      <trkpt lat="43.50388" lon="6.7786">
        <ele>239</ele>
        <time>2011-01-09T10:55:23Z</time>
      </trkpt>
      <trkpt lat="43.50391" lon="6.77863">
        <ele>239</ele>
        <time>2011-01-09T10:55:24Z</time>
      </trkpt>
      <trkpt lat="43.50393" lon="6.77867">
        <ele>239</ele>
        <time>2011-01-09T10:55:25Z</time>
      </trkpt>
      <trkpt lat="43.50398" lon="6.77876">
        <ele>239</ele>
        <time>2011-01-09T10:55:27Z</time>
      </trkpt>
      <trkpt lat="43.50401" lon="6.7788">
        <ele>239</ele>
        <time>2011-01-09T10:55:28Z</time>
      </trkpt>
      <trkpt lat="43.50404" lon="6.77883">
        <ele>239</ele>
        <time>2011-01-09T10:55:29Z</time>
      </trkpt>
      <trkpt lat="43.50406" lon="6.77887">
        <ele>239</ele>
        <time>2011-01-09T10:55:30Z</time>
      </trkpt>
      <trkpt lat="43.50406" lon="6.77892">
        <ele>239</ele>
        <time>2011-01-09T10:55:31Z</time>
      </trkpt>
      <trkpt lat="43.50408" lon="6.77896">
        <ele>239</ele>
        <time>2011-01-09T10:55:32Z</time>
      </trkpt>
      <trkpt lat="43.50411" lon="6.77901">
        <ele>239</ele>
        <time>2011-01-09T10:55:33Z</time>
      </trkpt>
      <trkpt lat="43.50414" lon="6.77907">
        <ele>239</ele>
        <time>2011-01-09T10:55:35Z</time>
      </trkpt>
      <trkpt lat="43.50417" lon="6.77909">
        <ele>239</ele>
        <time>2011-01-09T10:55:36Z</time>
      </trkpt>
      <trkpt lat="43.50421" lon="6.77912">
        <ele>239</ele>
        <time>2011-01-09T10:55:37Z</time>
      </trkpt>
      <trkpt lat="43.50426" lon="6.77911">
        <ele>239</ele>
        <time>2011-01-09T10:55:38Z</time>
      </trkpt>
      <trkpt lat="43.50431" lon="6.77909">
        <ele>239</ele>
        <time>2011-01-09T10:55:39Z</time>
      </trkpt>
      <trkpt lat="43.50435" lon="6.77909">
        <ele>239</ele>
        <time>2011-01-09T10:55:40Z</time>
      </trkpt>
      <trkpt lat="43.50439" lon="6.77906">
        <ele>239</ele>
        <time>2011-01-09T10:55:41Z</time>
      </trkpt>
      <trkpt lat="43.50444" lon="6.77904">
        <ele>239</ele>
        <time>2011-01-09T10:55:42Z</time>
      </trkpt>
      <trkpt lat="43.50447" lon="6.77901">
        <ele>239</ele>
        <time>2011-01-09T10:55:43Z</time>
      </trkpt>
      <trkpt lat="43.50452" lon="6.77898">
        <ele>239</ele>
        <time>2011-01-09T10:55:44Z</time>
      </trkpt>
      <trkpt lat="43.50509" lon="6.77868">
        <ele>236</ele>
        <time>2011-01-09T10:55:54Z</time>
      </trkpt>
      <trkpt lat="43.50513" lon="6.77865">
        <ele>236</ele>
        <time>2011-01-09T10:55:55Z</time>
      </trkpt>
      <trkpt lat="43.5052" lon="6.7786">
        <ele>236</ele>
        <time>2011-01-09T10:55:57Z</time>
      </trkpt>
      <trkpt lat="43.50523" lon="6.77857">
        <ele>236</ele>
        <time>2011-01-09T10:55:58Z</time>
      </trkpt>
      <trkpt lat="43.50528" lon="6.77855">
        <ele>236</ele>
        <time>2011-01-09T10:55:59Z</time>
      </trkpt>
      <trkpt lat="43.50535" lon="6.77849">
        <ele>236</ele>
        <time>2011-01-09T10:56:01Z</time>
      </trkpt>
      <trkpt lat="43.50539" lon="6.77845">
        <ele>235</ele>
        <time>2011-01-09T10:56:02Z</time>
      </trkpt>
      <trkpt lat="43.50541" lon="6.7784">
        <ele>235</ele>
        <time>2011-01-09T10:56:03Z</time>
      </trkpt>
      <trkpt lat="43.50545" lon="6.77836">
        <ele>235</ele>
        <time>2011-01-09T10:56:04Z</time>
      </trkpt>
      <trkpt lat="43.50555" lon="6.7783">
        <ele>235</ele>
        <time>2011-01-09T10:56:06Z</time>
      </trkpt>
      <trkpt lat="43.50628" lon="6.77815">
        <ele>231</ele>
        <time>2011-01-09T10:56:16Z</time>
      </trkpt>
      <trkpt lat="43.50682" lon="6.7777">
        <ele>225</ele>
        <time>2011-01-09T10:56:26Z</time>
      </trkpt>
      <trkpt lat="43.5073" lon="6.77805">
        <ele>215</ele>
        <time>2011-01-09T10:56:36Z</time>
      </trkpt>
      <trkpt lat="43.50732" lon="6.77806">
        <ele>214</ele>
        <time>2011-01-09T10:56:37Z</time>
      </trkpt>
      <trkpt lat="43.50734" lon="6.77805">
        <ele>213</ele>
        <time>2011-01-09T10:56:38Z</time>
      </trkpt>
      <trkpt lat="43.50734" lon="6.77803">
        <ele>213</ele>
        <time>2011-01-09T10:56:39Z</time>
      </trkpt>
      <trkpt lat="43.50734" lon="6.778">
        <ele>212</ele>
        <time>2011-01-09T10:56:40Z</time>
      </trkpt>
      <trkpt lat="43.50731" lon="6.77796">
        <ele>211</ele>
        <time>2011-01-09T10:56:42Z</time>
      </trkpt>
      <trkpt lat="43.50728" lon="6.7779">
        <ele>210</ele>
        <time>2011-01-09T10:56:44Z</time>
      </trkpt>
      <trkpt lat="43.50727" lon="6.77787">
        <ele>210</ele>
        <time>2011-01-09T10:56:45Z</time>
      </trkpt>
      <trkpt lat="43.50727" lon="6.77783">
        <ele>209</ele>
        <time>2011-01-09T10:56:46Z</time>
      </trkpt>
      <trkpt lat="43.50727" lon="6.77779">
        <ele>209</ele>
        <time>2011-01-09T10:56:47Z</time>
      </trkpt>
      <trkpt lat="43.50727" lon="6.77777">
        <ele>208</ele>
        <time>2011-01-09T10:56:48Z</time>
      </trkpt>
      <trkpt lat="43.50728" lon="6.77775">
        <ele>208</ele>
        <time>2011-01-09T10:56:49Z</time>
      </trkpt>
      <trkpt lat="43.5073" lon="6.77771">
        <ele>207</ele>
        <time>2011-01-09T10:56:51Z</time>
      </trkpt>
      <trkpt lat="43.50731" lon="6.77769">
        <ele>206</ele>
        <time>2011-01-09T10:56:52Z</time>
      </trkpt>
      <trkpt lat="43.50734" lon="6.77764">
        <ele>205</ele>
        <time>2011-01-09T10:56:55Z</time>
      </trkpt>
      <trkpt lat="43.50737" lon="6.7776">
        <ele>204</ele>
        <time>2011-01-09T10:56:57Z</time>
      </trkpt>
      <trkpt lat="43.50742" lon="6.77755">
        <ele>203</ele>
        <time>2011-01-09T10:56:59Z</time>
      </trkpt>
      <trkpt lat="43.50745" lon="6.77752">
        <ele>202</ele>
        <time>2011-01-09T10:57:00Z</time>
      </trkpt>
      <trkpt lat="43.50753" lon="6.77742">
        <ele>200</ele>
        <time>2011-01-09T10:57:02Z</time>
      </trkpt>
      <trkpt lat="43.50757" lon="6.77673">
        <ele>195</ele>
        <time>2011-01-09T10:57:12Z</time>
      </trkpt>
      <trkpt lat="43.50742" lon="6.77627">
        <ele>187</ele>
        <time>2011-01-09T10:57:22Z</time>
      </trkpt>
      <trkpt lat="43.50742" lon="6.77623">
        <ele>187</ele>
        <time>2011-01-09T10:57:23Z</time>
      </trkpt>
      <trkpt lat="43.50743" lon="6.7762">
        <ele>187</ele>
        <time>2011-01-09T10:57:24Z</time>
      </trkpt>
      <trkpt lat="43.50745" lon="6.77616">
        <ele>186</ele>
        <time>2011-01-09T10:57:25Z</time>
      </trkpt>
      <trkpt lat="43.50746" lon="6.77612">
        <ele>186</ele>
        <time>2011-01-09T10:57:26Z</time>
      </trkpt>
      <trkpt lat="43.5075" lon="6.77609">
        <ele>186</ele>
        <time>2011-01-09T10:57:27Z</time>
      </trkpt>
      <trkpt lat="43.50754" lon="6.77607">
        <ele>186</ele>
        <time>2011-01-09T10:57:28Z</time>
      </trkpt>
      <trkpt lat="43.5076" lon="6.77605">
        <ele>186</ele>
        <time>2011-01-09T10:57:29Z</time>
      </trkpt>
      <trkpt lat="43.50764" lon="6.77606">
        <ele>186</ele>
        <time>2011-01-09T10:57:30Z</time>
      </trkpt>
      <trkpt lat="43.50768" lon="6.77607">
        <ele>186</ele>
        <time>2011-01-09T10:57:31Z</time>
      </trkpt>
      <trkpt lat="43.50773" lon="6.77609">
        <ele>185</ele>
        <time>2011-01-09T10:57:32Z</time>
      </trkpt>
      <trkpt lat="43.50781" lon="6.77616">
        <ele>185</ele>
        <time>2011-01-09T10:57:34Z</time>
      </trkpt>
      <trkpt lat="43.50786" lon="6.77625">
        <ele>184</ele>
        <time>2011-01-09T10:57:36Z</time>
      </trkpt>
      <trkpt lat="43.50789" lon="6.77628">
        <ele>184</ele>
        <time>2011-01-09T10:57:37Z</time>
      </trkpt>
      <trkpt lat="43.50792" lon="6.77629">
        <ele>184</ele>
        <time>2011-01-09T10:57:38Z</time>
      </trkpt>
      <trkpt lat="43.50797" lon="6.7763">
        <ele>183</ele>
        <time>2011-01-09T10:57:39Z</time>
      </trkpt>
      <trkpt lat="43.50801" lon="6.77631">
        <ele>182</ele>
        <time>2011-01-09T10:57:40Z</time>
      </trkpt>
      <trkpt lat="43.50805" lon="6.7763">
        <ele>181</ele>
        <time>2011-01-09T10:57:41Z</time>
      </trkpt>
      <trkpt lat="43.5081" lon="6.7763">
        <ele>181</ele>
        <time>2011-01-09T10:57:42Z</time>
      </trkpt>
      <trkpt lat="43.50814" lon="6.77631">
        <ele>180</ele>
        <time>2011-01-09T10:57:43Z</time>
      </trkpt>
      <trkpt lat="43.50823" lon="6.77632">
        <ele>179</ele>
        <time>2011-01-09T10:57:45Z</time>
      </trkpt>
      <trkpt lat="43.5083" lon="6.77633">
        <ele>178</ele>
        <time>2011-01-09T10:57:47Z</time>
      </trkpt>
      <trkpt lat="43.50835" lon="6.77634">
        <ele>178</ele>
        <time>2011-01-09T10:57:48Z</time>
      </trkpt>
      <trkpt lat="43.50838" lon="6.77636">
        <ele>177</ele>
        <time>2011-01-09T10:57:49Z</time>
      </trkpt>
      <trkpt lat="43.50841" lon="6.77638">
        <ele>177</ele>
        <time>2011-01-09T10:57:50Z</time>
      </trkpt>
      <trkpt lat="43.50844" lon="6.77639">
        <ele>177</ele>
        <time>2011-01-09T10:57:51Z</time>
      </trkpt>
      <trkpt lat="43.50846" lon="6.7764">
        <ele>176</ele>
        <time>2011-01-09T10:57:52Z</time>
      </trkpt>
      <trkpt lat="43.50855" lon="6.77642">
        <ele>174</ele>
        <time>2011-01-09T10:57:55Z</time>
      </trkpt>
      <trkpt lat="43.50858" lon="6.77642">
        <ele>174</ele>
        <time>2011-01-09T10:57:56Z</time>
      </trkpt>
      <trkpt lat="43.50863" lon="6.77644">
        <ele>172</ele>
        <time>2011-01-09T10:57:58Z</time>
      </trkpt>
      <trkpt lat="43.50865" lon="6.77644">
        <ele>172</ele>
        <time>2011-01-09T10:57:59Z</time>
      </trkpt>
      <trkpt lat="43.50867" lon="6.77643">
        <ele>171</ele>
        <time>2011-01-09T10:58:00Z</time>
      </trkpt>
      <trkpt lat="43.5087" lon="6.77642">
        <ele>170</ele>
        <time>2011-01-09T10:58:01Z</time>
      </trkpt>
      <trkpt lat="43.50879" lon="6.77636">
        <ele>168</ele>
        <time>2011-01-09T10:58:04Z</time>
      </trkpt>
      <trkpt lat="43.50883" lon="6.77633">
        <ele>167</ele>
        <time>2011-01-09T10:58:05Z</time>
      </trkpt>
      <trkpt lat="43.50886" lon="6.7763">
        <ele>166</ele>
        <time>2011-01-09T10:58:06Z</time>
      </trkpt>
      <trkpt lat="43.50891" lon="6.77625">
        <ele>164</ele>
        <time>2011-01-09T10:58:08Z</time>
      </trkpt>
      <trkpt lat="43.50898" lon="6.77619">
        <ele>163</ele>
        <time>2011-01-09T10:58:11Z</time>
      </trkpt>
      <trkpt lat="43.50902" lon="6.77615">
        <ele>162</ele>
        <time>2011-01-09T10:58:13Z</time>
      </trkpt>
      <trkpt lat="43.50904" lon="6.77613">
        <ele>162</ele>
        <time>2011-01-09T10:58:14Z</time>
      </trkpt>
      <trkpt lat="43.50906" lon="6.77611">
        <ele>161</ele>
        <time>2011-01-09T10:58:15Z</time>
      </trkpt>
      <trkpt lat="43.50911" lon="6.77604">
        <ele>160</ele>
        <time>2011-01-09T10:58:17Z</time>
      </trkpt>
      <trkpt lat="43.50915" lon="6.77597">
        <ele>159</ele>
        <time>2011-01-09T10:58:19Z</time>
      </trkpt>
      <trkpt lat="43.50919" lon="6.77589">
        <ele>159</ele>
        <time>2011-01-09T10:58:21Z</time>
      </trkpt>
      <trkpt lat="43.50921" lon="6.77586">
        <ele>158</ele>
        <time>2011-01-09T10:58:22Z</time>
      </trkpt>
      <trkpt lat="43.50927" lon="6.77581">
        <ele>158</ele>
        <time>2011-01-09T10:58:24Z</time>
      </trkpt>
      <trkpt lat="43.5093" lon="6.77578">
        <ele>157</ele>
        <time>2011-01-09T10:58:25Z</time>
      </trkpt>
      <trkpt lat="43.50932" lon="6.77574">
        <ele>157</ele>
        <time>2011-01-09T10:58:26Z</time>
      </trkpt>
      <trkpt lat="43.50935" lon="6.77571">
        <ele>157</ele>
        <time>2011-01-09T10:58:27Z</time>
      </trkpt>
      <trkpt lat="43.50937" lon="6.77567">
        <ele>156</ele>
        <time>2011-01-09T10:58:28Z</time>
      </trkpt>
      <trkpt lat="43.5094" lon="6.77563">
        <ele>156</ele>
        <time>2011-01-09T10:58:29Z</time>
      </trkpt>
      <trkpt lat="43.50942" lon="6.7756">
        <ele>156</ele>
        <time>2011-01-09T10:58:30Z</time>
      </trkpt>
      <trkpt lat="43.50947" lon="6.77555">
        <ele>156</ele>
        <time>2011-01-09T10:58:32Z</time>
      </trkpt>
      <trkpt lat="43.50949" lon="6.77554">
        <ele>155</ele>
        <time>2011-01-09T10:58:33Z</time>
      </trkpt>
      <trkpt lat="43.50952" lon="6.77553">
        <ele>155</ele>
        <time>2011-01-09T10:58:34Z</time>
      </trkpt>
      <trkpt lat="43.50954" lon="6.77551">
        <ele>154</ele>
        <time>2011-01-09T10:58:35Z</time>
      </trkpt>
      <trkpt lat="43.50957" lon="6.77549">
        <ele>153</ele>
        <time>2011-01-09T10:58:36Z</time>
      </trkpt>
      <trkpt lat="43.50965" lon="6.77541">
        <ele>151</ele>
        <time>2011-01-09T10:58:39Z</time>
      </trkpt>
      <trkpt lat="43.50969" lon="6.77534">
        <ele>150</ele>
        <time>2011-01-09T10:58:41Z</time>
      </trkpt>
      <trkpt lat="43.50971" lon="6.77532">
        <ele>149</ele>
        <time>2011-01-09T10:58:42Z</time>
      </trkpt>
      <trkpt lat="43.50973" lon="6.7753">
        <ele>148</ele>
        <time>2011-01-09T10:58:43Z</time>
      </trkpt>
      <trkpt lat="43.50976" lon="6.77528">
        <ele>148</ele>
        <time>2011-01-09T10:58:44Z</time>
      </trkpt>
      <trkpt lat="43.50979" lon="6.77528">
        <ele>147</ele>
        <time>2011-01-09T10:58:45Z</time>
      </trkpt>
      <trkpt lat="43.50981" lon="6.77528">
        <ele>146</ele>
        <time>2011-01-09T10:58:46Z</time>
      </trkpt>
      <trkpt lat="43.5099" lon="6.77528">
        <ele>143</ele>
        <time>2011-01-09T10:58:50Z</time>
      </trkpt>
      <trkpt lat="43.50994" lon="6.77528">
        <ele>141</ele>
        <time>2011-01-09T10:58:52Z</time>
      </trkpt>
      <trkpt lat="43.51001" lon="6.77528">
        <ele>139</ele>
        <time>2011-01-09T10:58:55Z</time>
      </trkpt>
      <trkpt lat="43.51003" lon="6.77529">
        <ele>139</ele>
        <time>2011-01-09T10:58:56Z</time>
      </trkpt>
      <trkpt lat="43.51011" lon="6.77527">
        <ele>137</ele>
        <time>2011-01-09T10:58:59Z</time>
      </trkpt>
      <trkpt lat="43.51017" lon="6.77526">
        <ele>136</ele>
        <time>2011-01-09T10:59:01Z</time>
      </trkpt>
      <trkpt lat="43.51021" lon="6.77527">
        <ele>135</ele>
        <time>2011-01-09T10:59:03Z</time>
      </trkpt>
      <trkpt lat="43.51025" lon="6.77525">
        <ele>135</ele>
        <time>2011-01-09T10:59:05Z</time>
      </trkpt>
      <trkpt lat="43.51028" lon="6.77525">
        <ele>134</ele>
        <time>2011-01-09T10:59:07Z</time>
      </trkpt>
      <trkpt lat="43.51032" lon="6.77524">
        <ele>133</ele>
        <time>2011-01-09T10:59:09Z</time>
      </trkpt>
      <trkpt lat="43.51036" lon="6.77522">
        <ele>132</ele>
        <time>2011-01-09T10:59:11Z</time>
      </trkpt>
      <trkpt lat="43.51041" lon="6.7752">
        <ele>131</ele>
        <time>2011-01-09T10:59:13Z</time>
      </trkpt>
      <trkpt lat="43.51047" lon="6.77518">
        <ele>129</ele>
        <time>2011-01-09T10:59:16Z</time>
      </trkpt>
      <trkpt lat="43.51049" lon="6.77517">
        <ele>128</ele>
        <time>2011-01-09T10:59:17Z</time>
      </trkpt>
      <trkpt lat="43.51055" lon="6.77512">
        <ele>127</ele>
        <time>2011-01-09T10:59:20Z</time>
      </trkpt>
      <trkpt lat="43.51059" lon="6.7751">
        <ele>125</ele>
        <time>2011-01-09T10:59:22Z</time>
      </trkpt>
      <trkpt lat="43.51063" lon="6.77508">
        <ele>124</ele>
        <time>2011-01-09T10:59:24Z</time>
      </trkpt>
      <trkpt lat="43.51065" lon="6.77507">
        <ele>124</ele>
        <time>2011-01-09T10:59:25Z</time>
      </trkpt>
      <trkpt lat="43.5107" lon="6.77505">
        <ele>123</ele>
        <time>2011-01-09T10:59:28Z</time>
      </trkpt>
      <trkpt lat="43.51072" lon="6.77503">
        <ele>122</ele>
        <time>2011-01-09T10:59:29Z</time>
      </trkpt>
      <trkpt lat="43.51076" lon="6.775">
        <ele>121</ele>
        <time>2011-01-09T10:59:31Z</time>
      </trkpt>
      <trkpt lat="43.51078" lon="6.77498">
        <ele>121</ele>
        <time>2011-01-09T10:59:32Z</time>
      </trkpt>
      <trkpt lat="43.5108" lon="6.77496">
        <ele>120</ele>
        <time>2011-01-09T10:59:33Z</time>
      </trkpt>
      <trkpt lat="43.51082" lon="6.77495">
        <ele>120</ele>
        <time>2011-01-09T10:59:34Z</time>
      </trkpt>
      <trkpt lat="43.51084" lon="6.77494">
        <ele>119</ele>
        <time>2011-01-09T10:59:35Z</time>
      </trkpt>
      <trkpt lat="43.51092" lon="6.77492">
        <ele>118</ele>
        <time>2011-01-09T10:59:38Z</time>
      </trkpt>
      <trkpt lat="43.51106" lon="6.77487">
        <ele>117</ele>
        <time>2011-01-09T10:59:42Z</time>
      </trkpt>
      <trkpt lat="43.51116" lon="6.77483">
        <ele>116</ele>
        <time>2011-01-09T10:59:45Z</time>
      </trkpt>
      <trkpt lat="43.5112" lon="6.77481">
        <ele>116</ele>
        <time>2011-01-09T10:59:46Z</time>
      </trkpt>
      <trkpt lat="43.51122" lon="6.77479">
        <ele>116</ele>
        <time>2011-01-09T10:59:47Z</time>
      </trkpt>
      <trkpt lat="43.51125" lon="6.77476">
        <ele>116</ele>
        <time>2011-01-09T10:59:48Z</time>
      </trkpt>
      <trkpt lat="43.51127" lon="6.77475">
        <ele>115</ele>
        <time>2011-01-09T10:59:49Z</time>
      </trkpt>
      <trkpt lat="43.5113" lon="6.77473">
        <ele>115</ele>
        <time>2011-01-09T10:59:50Z</time>
      </trkpt>
      <trkpt lat="43.51133" lon="6.77472">
        <ele>115</ele>
        <time>2011-01-09T10:59:51Z</time>
      </trkpt>
      <trkpt lat="43.51136" lon="6.77471">
        <ele>114</ele>
        <time>2011-01-09T10:59:52Z</time>
      </trkpt>
      <trkpt lat="43.51138" lon="6.77469">
        <ele>114</ele>
        <time>2011-01-09T10:59:53Z</time>
      </trkpt>
      <trkpt lat="43.5114" lon="6.77467">
        <ele>113</ele>
        <time>2011-01-09T10:59:54Z</time>
      </trkpt>
      <trkpt lat="43.51141" lon="6.77465">
        <ele>113</ele>
        <time>2011-01-09T10:59:55Z</time>
      </trkpt>
      <trkpt lat="43.51142" lon="6.77463">
        <ele>112</ele>
        <time>2011-01-09T10:59:56Z</time>
      </trkpt>
      <trkpt lat="43.51144" lon="6.77462">
        <ele>112</ele>
        <time>2011-01-09T10:59:57Z</time>
      </trkpt>
      <trkpt lat="43.51146" lon="6.77461">
        <ele>111</ele>
        <time>2011-01-09T10:59:58Z</time>
      </trkpt>
      <trkpt lat="43.51148" lon="6.77462">
        <ele>111</ele>
        <time>2011-01-09T10:59:59Z</time>
      </trkpt>
      <trkpt lat="43.5115" lon="6.77464">
        <ele>111</ele>
        <time>2011-01-09T11:00:00Z</time>
      </trkpt>
      <trkpt lat="43.51152" lon="6.77466">
        <ele>111</ele>
        <time>2011-01-09T11:00:01Z</time>
      </trkpt>
      <trkpt lat="43.51154" lon="6.77467">
        <ele>110</ele>
        <time>2011-01-09T11:00:02Z</time>
      </trkpt>
      <trkpt lat="43.51158" lon="6.77467">
        <ele>109</ele>
        <time>2011-01-09T11:00:04Z</time>
      </trkpt>
      <trkpt lat="43.51163" lon="6.77468">
        <ele>108</ele>
        <time>2011-01-09T11:00:06Z</time>
      </trkpt>
      <trkpt lat="43.51165" lon="6.77468">
        <ele>107</ele>
        <time>2011-01-09T11:00:07Z</time>
      </trkpt>
      <trkpt lat="43.51171" lon="6.77467">
        <ele>106</ele>
        <time>2011-01-09T11:00:09Z</time>
      </trkpt>
      <trkpt lat="43.51174" lon="6.77467">
        <ele>106</ele>
        <time>2011-01-09T11:00:10Z</time>
      </trkpt>
      <trkpt lat="43.5118" lon="6.77468">
        <ele>106</ele>
        <time>2011-01-09T11:00:12Z</time>
      </trkpt>
      <trkpt lat="43.51183" lon="6.77467">
        <ele>105</ele>
        <time>2011-01-09T11:00:13Z</time>
      </trkpt>
      <trkpt lat="43.51185" lon="6.77466">
        <ele>105</ele>
        <time>2011-01-09T11:00:14Z</time>
      </trkpt>
      <trkpt lat="43.51187" lon="6.77464">
        <ele>104</ele>
        <time>2011-01-09T11:00:15Z</time>
      </trkpt>
      <trkpt lat="43.51189" lon="6.77461">
        <ele>104</ele>
        <time>2011-01-09T11:00:16Z</time>
      </trkpt>
      <trkpt lat="43.51191" lon="6.77459">
        <ele>104</ele>
        <time>2011-01-09T11:00:17Z</time>
      </trkpt>
      <trkpt lat="43.51194" lon="6.77459">
        <ele>103</ele>
        <time>2011-01-09T11:00:18Z</time>
      </trkpt>
      <trkpt lat="43.51201" lon="6.77458">
        <ele>103</ele>
        <time>2011-01-09T11:00:20Z</time>
      </trkpt>
      <trkpt lat="43.51205" lon="6.77458">
        <ele>102</ele>
        <time>2011-01-09T11:00:21Z</time>
      </trkpt>
      <trkpt lat="43.51213" lon="6.77455">
        <ele>101</ele>
        <time>2011-01-09T11:00:23Z</time>
      </trkpt>
      <trkpt lat="43.51217" lon="6.77454">
        <ele>101</ele>
        <time>2011-01-09T11:00:24Z</time>
      </trkpt>
      <trkpt lat="43.51221" lon="6.77455">
        <ele>100</ele>
        <time>2011-01-09T11:00:25Z</time>
      </trkpt>
      <trkpt lat="43.51226" lon="6.77458">
        <ele>100</ele>
        <time>2011-01-09T11:00:27Z</time>
      </trkpt>
      <trkpt lat="43.51228" lon="6.77458">
        <ele>99</ele>
        <time>2011-01-09T11:00:28Z</time>
      </trkpt>
      <trkpt lat="43.5123" lon="6.77458">
        <ele>99</ele>
        <time>2011-01-09T11:00:29Z</time>
      </trkpt>
      <trkpt lat="43.51232" lon="6.77458">
        <ele>99</ele>
        <time>2011-01-09T11:00:30Z</time>
      </trkpt>
      <trkpt lat="43.51235" lon="6.77457">
        <ele>98</ele>
        <time>2011-01-09T11:00:31Z</time>
      </trkpt>
      <trkpt lat="43.51239" lon="6.77455">
        <ele>97</ele>
        <time>2011-01-09T11:00:32Z</time>
      </trkpt>
      <trkpt lat="43.51242" lon="6.77453">
        <ele>96</ele>
        <time>2011-01-09T11:00:33Z</time>
      </trkpt>
      <trkpt lat="43.51247" lon="6.77451">
        <ele>96</ele>
        <time>2011-01-09T11:00:34Z</time>
      </trkpt>
      <trkpt lat="43.51251" lon="6.77451">
        <ele>95</ele>
        <time>2011-01-09T11:00:35Z</time>
      </trkpt>
      <trkpt lat="43.51261" lon="6.77452">
        <ele>95</ele>
        <time>2011-01-09T11:00:37Z</time>
      </trkpt>
      <trkpt lat="43.51266" lon="6.77452">
        <ele>94</ele>
        <time>2011-01-09T11:00:38Z</time>
      </trkpt>
      <trkpt lat="43.5127" lon="6.77451">
        <ele>94</ele>
        <time>2011-01-09T11:00:39Z</time>
      </trkpt>
      <trkpt lat="43.51274" lon="6.77448">
        <ele>94</ele>
        <time>2011-01-09T11:00:40Z</time>
      </trkpt>
      <trkpt lat="43.51282" lon="6.77441">
        <ele>93</ele>
        <time>2011-01-09T11:00:42Z</time>
      </trkpt>
      <trkpt lat="43.51287" lon="6.77436">
        <ele>93</ele>
        <time>2011-01-09T11:00:44Z</time>
      </trkpt>
      <trkpt lat="43.51288" lon="6.77434">
        <ele>93</ele>
        <time>2011-01-09T11:00:45Z</time>
      </trkpt>
      <trkpt lat="43.51288" lon="6.77434">
        <ele>93</ele>
        <time>2011-01-09T11:00:57Z</time>
      </trkpt>
      <trkpt lat="43.51282" lon="6.77432">
        <ele>93</ele>
        <time>2011-01-09T11:01:02Z</time>
      </trkpt>
      <trkpt lat="43.51278" lon="6.7743">
        <ele>93</ele>
        <time>2011-01-09T11:01:04Z</time>
      </trkpt>
      <trkpt lat="43.51273" lon="6.77428">
        <ele>92</ele>
        <time>2011-01-09T11:01:06Z</time>
      </trkpt>
      <trkpt lat="43.51267" lon="6.77426">
        <ele>92</ele>
        <time>2011-01-09T11:01:08Z</time>
      </trkpt>
      <trkpt lat="43.51263" lon="6.77424">
        <ele>92</ele>
        <time>2011-01-09T11:01:09Z</time>
      </trkpt>
      <trkpt lat="43.5126" lon="6.77422">
        <ele>92</ele>
        <time>2011-01-09T11:01:10Z</time>
      </trkpt>
      <trkpt lat="43.51257" lon="6.77419">
        <ele>92</ele>
        <time>2011-01-09T11:01:11Z</time>
      </trkpt>
      <trkpt lat="43.51254" lon="6.77415">
        <ele>92</ele>
        <time>2011-01-09T11:01:12Z</time>
      </trkpt>
      <trkpt lat="43.51253" lon="6.77411">
        <ele>91</ele>
        <time>2011-01-09T11:01:13Z</time>
      </trkpt>
      <trkpt lat="43.51252" lon="6.77407">
        <ele>91</ele>
        <time>2011-01-09T11:01:14Z</time>
      </trkpt>
      <trkpt lat="43.51251" lon="6.77403">
        <ele>90</ele>
        <time>2011-01-09T11:01:15Z</time>
      </trkpt>
      <trkpt lat="43.51251" lon="6.774">
        <ele>90</ele>
        <time>2011-01-09T11:01:16Z</time>
      </trkpt>
      <trkpt lat="43.51252" lon="6.77398">
        <ele>89</ele>
        <time>2011-01-09T11:01:17Z</time>
      </trkpt>
      <trkpt lat="43.51254" lon="6.77396">
        <ele>89</ele>
        <time>2011-01-09T11:01:18Z</time>
      </trkpt>
      <trkpt lat="43.51256" lon="6.77397">
        <ele>89</ele>
        <time>2011-01-09T11:01:19Z</time>
      </trkpt>
      <trkpt lat="43.51257" lon="6.77397">
        <ele>89</ele>
        <time>2011-01-09T11:01:20Z</time>
      </trkpt>
      <trkpt lat="43.51256" lon="6.77398">
        <ele>89</ele>
        <time>2011-01-09T11:01:43Z</time>
      </trkpt>
      <trkpt lat="43.51258" lon="6.77399">
        <ele>89</ele>
        <time>2011-01-09T11:01:44Z</time>
      </trkpt>
      <trkpt lat="43.5126" lon="6.77399">
        <ele>89</ele>
        <time>2011-01-09T11:01:45Z</time>
      </trkpt>
      <trkpt lat="43.51262" lon="6.77399">
        <ele>89</ele>
        <time>2011-01-09T11:01:46Z</time>
      </trkpt>
      <trkpt lat="43.51264" lon="6.77398">
        <ele>89</ele>
        <time>2011-01-09T11:01:47Z</time>
      </trkpt>
      <trkpt lat="43.51266" lon="6.77396">
        <ele>89</ele>
        <time>2011-01-09T11:01:48Z</time>
      </trkpt>
      <trkpt lat="43.51268" lon="6.77392">
        <ele>89</ele>
        <time>2011-01-09T11:01:49Z</time>
      </trkpt>
      <trkpt lat="43.5127" lon="6.77388">
        <ele>88</ele>
        <time>2011-01-09T11:01:50Z</time>
      </trkpt>
      <trkpt lat="43.51271" lon="6.77383">
        <ele>88</ele>
        <time>2011-01-09T11:01:51Z</time>
      </trkpt>
      <trkpt lat="43.51272" lon="6.77377">
        <ele>88</ele>
        <time>2011-01-09T11:01:52Z</time>
      </trkpt>
      <trkpt lat="43.51274" lon="6.77361">
        <ele>88</ele>
        <time>2011-01-09T11:01:55Z</time>
      </trkpt>
      <trkpt lat="43.51275" lon="6.77355">
        <ele>88</ele>
        <time>2011-01-09T11:01:56Z</time>
      </trkpt>
      <trkpt lat="43.51277" lon="6.77344">
        <ele>88</ele>
        <time>2011-01-09T11:01:58Z</time>
      </trkpt>
      <trkpt lat="43.51279" lon="6.77332">
        <ele>88</ele>
        <time>2011-01-09T11:02:00Z</time>
      </trkpt>
      <trkpt lat="43.5128" lon="6.77326">
        <ele>88</ele>
        <time>2011-01-09T11:02:01Z</time>
      </trkpt>
      <trkpt lat="43.51282" lon="6.77315">
        <ele>88</ele>
        <time>2011-01-09T11:02:03Z</time>
      </trkpt>
      <trkpt lat="43.51284" lon="6.77309">
        <ele>88</ele>
        <time>2011-01-09T11:02:04Z</time>
      </trkpt>
      <trkpt lat="43.51286" lon="6.77305">
        <ele>88</ele>
        <time>2011-01-09T11:02:05Z</time>
      </trkpt>
      <trkpt lat="43.51288" lon="6.773">
        <ele>88</ele>
        <time>2011-01-09T11:02:06Z</time>
      </trkpt>
      <trkpt lat="43.51291" lon="6.77296">
        <ele>88</ele>
        <time>2011-01-09T11:02:07Z</time>
      </trkpt>
      <trkpt lat="43.51295" lon="6.77294">
        <ele>88</ele>
        <time>2011-01-09T11:02:08Z</time>
      </trkpt>
      <trkpt lat="43.51299" lon="6.77292">
        <ele>88</ele>
        <time>2011-01-09T11:02:09Z</time>
      </trkpt>
      <trkpt lat="43.51304" lon="6.77291">
        <ele>88</ele>
        <time>2011-01-09T11:02:10Z</time>
      </trkpt>
      <trkpt lat="43.51308" lon="6.77291">
        <ele>88</ele>
        <time>2011-01-09T11:02:11Z</time>
      </trkpt>
      <trkpt lat="43.51313" lon="6.77293">
        <ele>87</ele>
        <time>2011-01-09T11:02:12Z</time>
      </trkpt>
      <trkpt lat="43.51317" lon="6.77297">
        <ele>87</ele>
        <time>2011-01-09T11:02:13Z</time>
      </trkpt>
      <trkpt lat="43.51321" lon="6.77301">
        <ele>87</ele>
        <time>2011-01-09T11:02:14Z</time>
      </trkpt>
      <trkpt lat="43.51325" lon="6.77307">
        <ele>86</ele>
        <time>2011-01-09T11:02:15Z</time>
      </trkpt>
      <trkpt lat="43.51328" lon="6.77314">
        <ele>86</ele>
        <time>2011-01-09T11:02:16Z</time>
      </trkpt>
      <trkpt lat="43.51329" lon="6.77321">
        <ele>86</ele>
        <time>2011-01-09T11:02:17Z</time>
      </trkpt>
      <trkpt lat="43.51332" lon="6.77327">
        <ele>86</ele>
        <time>2011-01-09T11:02:18Z</time>
      </trkpt>
      <trkpt lat="43.51367" lon="6.7738">
        <ele>83</ele>
        <time>2011-01-09T11:02:28Z</time>
      </trkpt>
      <trkpt lat="43.51389" lon="6.77456">
        <ele>79</ele>
        <time>2011-01-09T11:02:38Z</time>
      </trkpt>
      <trkpt lat="43.51371" lon="6.77519">
        <ele>80</ele>
        <time>2011-01-09T11:02:48Z</time>
      </trkpt>
      <trkpt lat="43.51368" lon="6.77522">
        <ele>81</ele>
        <time>2011-01-09T11:02:50Z</time>
      </trkpt>
      <trkpt lat="43.51364" lon="6.77525">
        <ele>81</ele>
        <time>2011-01-09T11:02:52Z</time>
      </trkpt>
      <trkpt lat="43.51362" lon="6.77527">
        <ele>82</ele>
        <time>2011-01-09T11:02:53Z</time>
      </trkpt>
      <trkpt lat="43.51361" lon="6.7753">
        <ele>82</ele>
        <time>2011-01-09T11:02:54Z</time>
      </trkpt>
      <trkpt lat="43.5136" lon="6.77532">
        <ele>83</ele>
        <time>2011-01-09T11:02:55Z</time>
      </trkpt>
      <trkpt lat="43.51359" lon="6.77538">
        <ele>83</ele>
        <time>2011-01-09T11:02:57Z</time>
      </trkpt>
      <trkpt lat="43.5136" lon="6.77544">
        <ele>84</ele>
        <time>2011-01-09T11:02:59Z</time>
      </trkpt>
      <trkpt lat="43.51361" lon="6.77547">
        <ele>84</ele>
        <time>2011-01-09T11:03:00Z</time>
      </trkpt>
      <trkpt lat="43.51363" lon="6.77552">
        <ele>85</ele>
        <time>2011-01-09T11:03:02Z</time>
      </trkpt>
      <trkpt lat="43.51364" lon="6.77554">
        <ele>85</ele>
        <time>2011-01-09T11:03:03Z</time>
      </trkpt>
      <trkpt lat="43.51366" lon="6.77556">
        <ele>85</ele>
        <time>2011-01-09T11:03:04Z</time>
      </trkpt>
      <trkpt lat="43.51368" lon="6.77558">
        <ele>85</ele>
        <time>2011-01-09T11:03:05Z</time>
      </trkpt>
      <trkpt lat="43.51372" lon="6.77561">
        <ele>85</ele>
        <time>2011-01-09T11:03:07Z</time>
      </trkpt>
      <trkpt lat="43.51374" lon="6.77562">
        <ele>86</ele>
        <time>2011-01-09T11:03:08Z</time>
      </trkpt>
      <trkpt lat="43.51376" lon="6.77562">
        <ele>86</ele>
        <time>2011-01-09T11:03:09Z</time>
      </trkpt>
      <trkpt lat="43.51378" lon="6.77562">
        <ele>86</ele>
        <time>2011-01-09T11:03:10Z</time>
      </trkpt>
      <trkpt lat="43.51379" lon="6.77561">
        <ele>86</ele>
        <time>2011-01-09T11:03:11Z</time>
      </trkpt>
      <trkpt lat="43.51382" lon="6.77557">
        <ele>86</ele>
        <time>2011-01-09T11:03:13Z</time>
      </trkpt>
      <trkpt lat="43.51383" lon="6.77556">
        <ele>86</ele>
        <time>2011-01-09T11:03:14Z</time>
      </trkpt>
      <trkpt lat="43.51387" lon="6.77549">
        <ele>87</ele>
        <time>2011-01-09T11:03:17Z</time>
      </trkpt>
      <trkpt lat="43.51394" lon="6.77536">
        <ele>88</ele>
        <time>2011-01-09T11:03:23Z</time>
      </trkpt>
      <trkpt lat="43.51396" lon="6.77533">
        <ele>89</ele>
        <time>2011-01-09T11:03:25Z</time>
      </trkpt>
      <trkpt lat="43.51403" lon="6.77525">
        <ele>90</ele>
        <time>2011-01-09T11:03:30Z</time>
      </trkpt>
      <trkpt lat="43.51408" lon="6.7752">
        <ele>90</ele>
        <time>2011-01-09T11:03:33Z</time>
      </trkpt>
      <trkpt lat="43.5141" lon="6.77518">
        <ele>91</ele>
        <time>2011-01-09T11:03:35Z</time>
      </trkpt>
      <trkpt lat="43.51412" lon="6.77517">
        <ele>91</ele>
        <time>2011-01-09T11:03:36Z</time>
      </trkpt>
      <trkpt lat="43.51415" lon="6.77515">
        <ele>91</ele>
        <time>2011-01-09T11:03:38Z</time>
      </trkpt>
      <trkpt lat="43.51418" lon="6.77513">
        <ele>92</ele>
        <time>2011-01-09T11:03:40Z</time>
      </trkpt>
      <trkpt lat="43.51429" lon="6.77508">
        <ele>93</ele>
        <time>2011-01-09T11:03:46Z</time>
      </trkpt>
      <trkpt lat="43.51434" lon="6.77507">
        <ele>94</ele>
        <time>2011-01-09T11:03:49Z</time>
      </trkpt>
      <trkpt lat="43.5144" lon="6.77503">
        <ele>94</ele>
        <time>2011-01-09T11:03:53Z</time>
      </trkpt>
      <trkpt lat="43.51442" lon="6.77502">
        <ele>94</ele>
        <time>2011-01-09T11:03:54Z</time>
      </trkpt>
      <trkpt lat="43.51444" lon="6.77501">
        <ele>95</ele>
        <time>2011-01-09T11:03:55Z</time>
      </trkpt>
      <trkpt lat="43.51447" lon="6.775">
        <ele>95</ele>
        <time>2011-01-09T11:03:57Z</time>
      </trkpt>
      <trkpt lat="43.5145" lon="6.77498">
        <ele>95</ele>
        <time>2011-01-09T11:03:59Z</time>
      </trkpt>
      <trkpt lat="43.51455" lon="6.77496">
        <ele>96</ele>
        <time>2011-01-09T11:04:02Z</time>
      </trkpt>
      <trkpt lat="43.51459" lon="6.77495">
        <ele>96</ele>
        <time>2011-01-09T11:04:04Z</time>
      </trkpt>
      <trkpt lat="43.5146" lon="6.77494">
        <ele>96</ele>
        <time>2011-01-09T11:04:05Z</time>
      </trkpt>
      <trkpt lat="43.51464" lon="6.77494">
        <ele>96</ele>
        <time>2011-01-09T11:04:07Z</time>
      </trkpt>
      <trkpt lat="43.51467" lon="6.77494">
        <ele>96</ele>
        <time>2011-01-09T11:04:09Z</time>
      </trkpt>
      <trkpt lat="43.5147" lon="6.77495">
        <ele>96</ele>
        <time>2011-01-09T11:04:11Z</time>
      </trkpt>
      <trkpt lat="43.51481" lon="6.77496">
        <ele>95</ele>
        <time>2011-01-09T11:04:17Z</time>
      </trkpt>
      <trkpt lat="43.51484" lon="6.77496">
        <ele>95</ele>
        <time>2011-01-09T11:04:19Z</time>
      </trkpt>
      <trkpt lat="43.51488" lon="6.77495">
        <ele>95</ele>
        <time>2011-01-09T11:04:21Z</time>
      </trkpt>
      <trkpt lat="43.51493" lon="6.77493">
        <ele>96</ele>
        <time>2011-01-09T11:04:24Z</time>
      </trkpt>
      <trkpt lat="43.51495" lon="6.77492">
        <ele>96</ele>
        <time>2011-01-09T11:04:25Z</time>
      </trkpt>
      <trkpt lat="43.51498" lon="6.7749">
        <ele>96</ele>
        <time>2011-01-09T11:04:27Z</time>
      </trkpt>
      <trkpt lat="43.515" lon="6.77489">
        <ele>96</ele>
        <time>2011-01-09T11:04:28Z</time>
      </trkpt>
      <trkpt lat="43.51503" lon="6.77487">
        <ele>96</ele>
        <time>2011-01-09T11:04:30Z</time>
      </trkpt>
      <trkpt lat="43.51507" lon="6.77486">
        <ele>96</ele>
        <time>2011-01-09T11:04:32Z</time>
      </trkpt>
      <trkpt lat="43.51509" lon="6.77485">
        <ele>96</ele>
        <time>2011-01-09T11:04:33Z</time>
      </trkpt>
      <trkpt lat="43.51513" lon="6.77485">
        <ele>97</ele>
        <time>2011-01-09T11:04:35Z</time>
      </trkpt>
      <trkpt lat="43.51522" lon="6.77485">
        <ele>97</ele>
        <time>2011-01-09T11:04:39Z</time>
      </trkpt>
      <trkpt lat="43.51527" lon="6.77486">
        <ele>97</ele>
        <time>2011-01-09T11:04:41Z</time>
      </trkpt>
      <trkpt lat="43.51534" lon="6.77489">
        <ele>97</ele>
        <time>2011-01-09T11:04:44Z</time>
      </trkpt>
      <trkpt lat="43.51536" lon="6.77489">
        <ele>97</ele>
        <time>2011-01-09T11:04:45Z</time>
      </trkpt>
      <trkpt lat="43.51539" lon="6.7749">
        <ele>97</ele>
        <time>2011-01-09T11:04:46Z</time>
      </trkpt>
      <trkpt lat="43.51544" lon="6.77491">
        <ele>97</ele>
        <time>2011-01-09T11:04:48Z</time>
      </trkpt>
      <trkpt lat="43.51549" lon="6.77492">
        <ele>96</ele>
        <time>2011-01-09T11:04:50Z</time>
      </trkpt>
      <trkpt lat="43.51555" lon="6.77494">
        <ele>96</ele>
        <time>2011-01-09T11:04:52Z</time>
      </trkpt>
      <trkpt lat="43.51561" lon="6.77495">
        <ele>96</ele>
        <time>2011-01-09T11:04:54Z</time>
      </trkpt>
      <trkpt lat="43.51565" lon="6.77496">
        <ele>96</ele>
        <time>2011-01-09T11:04:55Z</time>
      </trkpt>
      <trkpt lat="43.51568" lon="6.77495">
        <ele>96</ele>
        <time>2011-01-09T11:04:56Z</time>
      </trkpt>
      <trkpt lat="43.51572" lon="6.77495">
        <ele>96</ele>
        <time>2011-01-09T11:04:57Z</time>
      </trkpt>
      <trkpt lat="43.51576" lon="6.77494">
        <ele>95</ele>
        <time>2011-01-09T11:04:58Z</time>
      </trkpt>
      <trkpt lat="43.51587" lon="6.77488">
        <ele>95</ele>
        <time>2011-01-09T11:05:01Z</time>
      </trkpt>
      <trkpt lat="43.51594" lon="6.77484">
        <ele>96</ele>
        <time>2011-01-09T11:05:03Z</time>
      </trkpt>
      <trkpt lat="43.51602" lon="6.77481">
        <ele>96</ele>
        <time>2011-01-09T11:05:05Z</time>
      </trkpt>
      <trkpt lat="43.51612" lon="6.77477">
        <ele>97</ele>
        <time>2011-01-09T11:05:08Z</time>
      </trkpt>
      <trkpt lat="43.51623" lon="6.77474">
        <ele>98</ele>
        <time>2011-01-09T11:05:12Z</time>
      </trkpt>
      <trkpt lat="43.51625" lon="6.77473">
        <ele>98</ele>
        <time>2011-01-09T11:05:13Z</time>
      </trkpt>
      <trkpt lat="43.51628" lon="6.77471">
        <ele>98</ele>
        <time>2011-01-09T11:05:14Z</time>
      </trkpt>
      <trkpt lat="43.5163" lon="6.77469">
        <ele>98</ele>
        <time>2011-01-09T11:05:15Z</time>
      </trkpt>
      <trkpt lat="43.51631" lon="6.77466">
        <ele>98</ele>
        <time>2011-01-09T11:05:16Z</time>
      </trkpt>
      <trkpt lat="43.51632" lon="6.77463">
        <ele>98</ele>
        <time>2011-01-09T11:05:17Z</time>
      </trkpt>
      <trkpt lat="43.51633" lon="6.7746">
        <ele>99</ele>
        <time>2011-01-09T11:05:18Z</time>
      </trkpt>
      <trkpt lat="43.51632" lon="6.77456">
        <ele>99</ele>
        <time>2011-01-09T11:05:19Z</time>
      </trkpt>
      <trkpt lat="43.51631" lon="6.77453">
        <ele>99</ele>
        <time>2011-01-09T11:05:20Z</time>
      </trkpt>
      <trkpt lat="43.5163" lon="6.7745">
        <ele>99</ele>
        <time>2011-01-09T11:05:21Z</time>
      </trkpt>
      <trkpt lat="43.51628" lon="6.77447">
        <ele>100</ele>
        <time>2011-01-09T11:05:22Z</time>
      </trkpt>
      <trkpt lat="43.51626" lon="6.77445">
        <ele>100</ele>
        <time>2011-01-09T11:05:23Z</time>
      </trkpt>
      <trkpt lat="43.51617" lon="6.77437">
        <ele>101</ele>
        <time>2011-01-09T11:05:27Z</time>
      </trkpt>
      <trkpt lat="43.51615" lon="6.77434">
        <ele>101</ele>
        <time>2011-01-09T11:05:28Z</time>
      </trkpt>
      <trkpt lat="43.51614" lon="6.77432">
        <ele>101</ele>
        <time>2011-01-09T11:05:29Z</time>
      </trkpt>
      <trkpt lat="43.51609" lon="6.77427">
        <ele>102</ele>
        <time>2011-01-09T11:05:31Z</time>
      </trkpt>
      <trkpt lat="43.51608" lon="6.77425">
        <ele>102</ele>
        <time>2011-01-09T11:05:32Z</time>
      </trkpt>
      <trkpt lat="43.51605" lon="6.77419">
        <ele>102</ele>
        <time>2011-01-09T11:05:34Z</time>
      </trkpt>
      <trkpt lat="43.51602" lon="6.77413">
        <ele>103</ele>
        <time>2011-01-09T11:05:36Z</time>
      </trkpt>
      <trkpt lat="43.51602" lon="6.7741">
        <ele>103</ele>
        <time>2011-01-09T11:05:37Z</time>
      </trkpt>
      <trkpt lat="43.51601" lon="6.77407">
        <ele>103</ele>
        <time>2011-01-09T11:05:38Z</time>
      </trkpt>
      <trkpt lat="43.51602" lon="6.77403">
        <ele>103</ele>
        <time>2011-01-09T11:05:39Z</time>
      </trkpt>
      <trkpt lat="43.51602" lon="6.774">
        <ele>103</ele>
        <time>2011-01-09T11:05:40Z</time>
      </trkpt>
      <trkpt lat="43.51604" lon="6.77397">
        <ele>103</ele>
        <time>2011-01-09T11:05:41Z</time>
      </trkpt>
      <trkpt lat="43.51605" lon="6.77394">
        <ele>103</ele>
        <time>2011-01-09T11:05:42Z</time>
      </trkpt>
      <trkpt lat="43.51609" lon="6.77391">
        <ele>104</ele>
        <time>2011-01-09T11:05:44Z</time>
      </trkpt>
      <trkpt lat="43.51612" lon="6.7739">
        <ele>104</ele>
        <time>2011-01-09T11:05:45Z</time>
      </trkpt>
      <trkpt lat="43.51618" lon="6.77388">
        <ele>104</ele>
        <time>2011-01-09T11:05:48Z</time>
      </trkpt>
      <trkpt lat="43.5162" lon="6.77387">
        <ele>104</ele>
        <time>2011-01-09T11:05:49Z</time>
      </trkpt>
      <trkpt lat="43.51624" lon="6.77385">
        <ele>104</ele>
        <time>2011-01-09T11:05:51Z</time>
      </trkpt>
      <trkpt lat="43.5163" lon="6.77383">
        <ele>105</ele>
        <time>2011-01-09T11:05:54Z</time>
      </trkpt>
      <trkpt lat="43.51633" lon="6.77383">
        <ele>105</ele>
        <time>2011-01-09T11:05:55Z</time>
      </trkpt>
      <trkpt lat="43.51638" lon="6.77381">
        <ele>105</ele>
        <time>2011-01-09T11:05:58Z</time>
      </trkpt>
      <trkpt lat="43.51651" lon="6.77374">
        <ele>106</ele>
        <time>2011-01-09T11:06:05Z</time>
      </trkpt>
      <trkpt lat="43.51656" lon="6.7737">
        <ele>107</ele>
        <time>2011-01-09T11:06:08Z</time>
      </trkpt>
      <trkpt lat="43.51665" lon="6.77364">
        <ele>107</ele>
        <time>2011-01-09T11:06:13Z</time>
      </trkpt>
      <trkpt lat="43.51668" lon="6.77361">
        <ele>108</ele>
        <time>2011-01-09T11:06:15Z</time>
      </trkpt>
      <trkpt lat="43.51674" lon="6.77355">
        <ele>108</ele>
        <time>2011-01-09T11:06:19Z</time>
      </trkpt>
      <trkpt lat="43.51677" lon="6.77351">
        <ele>109</ele>
        <time>2011-01-09T11:06:21Z</time>
      </trkpt>
      <trkpt lat="43.51682" lon="6.77343">
        <ele>109</ele>
        <time>2011-01-09T11:06:25Z</time>
      </trkpt>
      <trkpt lat="43.51686" lon="6.77339">
        <ele>110</ele>
        <time>2011-01-09T11:06:27Z</time>
      </trkpt>
      <trkpt lat="43.51687" lon="6.77338">
        <ele>110</ele>
        <time>2011-01-09T11:06:28Z</time>
      </trkpt>
      <trkpt lat="43.51689" lon="6.77336">
        <ele>111</ele>
        <time>2011-01-09T11:06:29Z</time>
      </trkpt>
      <trkpt lat="43.51691" lon="6.77335">
        <ele>111</ele>
        <time>2011-01-09T11:06:30Z</time>
      </trkpt>
      <trkpt lat="43.51693" lon="6.77335">
        <ele>111</ele>
        <time>2011-01-09T11:06:31Z</time>
      </trkpt>
      <trkpt lat="43.51695" lon="6.77336">
        <ele>111</ele>
        <time>2011-01-09T11:06:32Z</time>
      </trkpt>
      <trkpt lat="43.51697" lon="6.77337">
        <ele>111</ele>
        <time>2011-01-09T11:06:33Z</time>
      </trkpt>
      <trkpt lat="43.51698" lon="6.77339">
        <ele>112</ele>
        <time>2011-01-09T11:06:34Z</time>
      </trkpt>
      <trkpt lat="43.51699" lon="6.77342">
        <ele>112</ele>
        <time>2011-01-09T11:06:35Z</time>
      </trkpt>
      <trkpt lat="43.517" lon="6.77344">
        <ele>112</ele>
        <time>2011-01-09T11:06:36Z</time>
      </trkpt>
      <trkpt lat="43.517" lon="6.77347">
        <ele>112</ele>
        <time>2011-01-09T11:06:37Z</time>
      </trkpt>
      <trkpt lat="43.517" lon="6.77351">
        <ele>112</ele>
        <time>2011-01-09T11:06:39Z</time>
      </trkpt>
      <trkpt lat="43.517" lon="6.77354">
        <ele>112</ele>
        <time>2011-01-09T11:06:40Z</time>
      </trkpt>
      <trkpt lat="43.517" lon="6.77357">
        <ele>112</ele>
        <time>2011-01-09T11:06:41Z</time>
      </trkpt>
      <trkpt lat="43.517" lon="6.7736">
        <ele>112</ele>
        <time>2011-01-09T11:06:42Z</time>
      </trkpt>
      <trkpt lat="43.517" lon="6.77362">
        <ele>111</ele>
        <time>2011-01-09T11:06:43Z</time>
      </trkpt>
      <trkpt lat="43.51699" lon="6.77364">
        <ele>111</ele>
        <time>2011-01-09T11:06:44Z</time>
      </trkpt>
      <trkpt lat="43.51698" lon="6.7737">
        <ele>112</ele>
        <time>2011-01-09T11:06:47Z</time>
      </trkpt>
      <trkpt lat="43.51695" lon="6.77376">
        <ele>112</ele>
        <time>2011-01-09T11:06:50Z</time>
      </trkpt>
      <trkpt lat="43.51694" lon="6.7738">
        <ele>112</ele>
        <time>2011-01-09T11:06:52Z</time>
      </trkpt>
      <trkpt lat="43.51692" lon="6.77388">
        <ele>111</ele>
        <time>2011-01-09T11:06:56Z</time>
      </trkpt>
      <trkpt lat="43.51691" lon="6.77393">
        <ele>112</ele>
        <time>2011-01-09T11:06:58Z</time>
      </trkpt>
      <trkpt lat="43.51691" lon="6.77395">
        <ele>112</ele>
        <time>2011-01-09T11:06:59Z</time>
      </trkpt>
      <trkpt lat="43.51691" lon="6.77404">
        <ele>112</ele>
        <time>2011-01-09T11:07:03Z</time>
      </trkpt>
      <trkpt lat="43.51691" lon="6.77407">
        <ele>112</ele>
        <time>2011-01-09T11:07:04Z</time>
      </trkpt>
      <trkpt lat="43.51691" lon="6.77411">
        <ele>113</ele>
        <time>2011-01-09T11:07:06Z</time>
      </trkpt>
      <trkpt lat="43.51691" lon="6.77416">
        <ele>113</ele>
        <time>2011-01-09T11:07:08Z</time>
      </trkpt>
      <trkpt lat="43.51691" lon="6.7742">
        <ele>113</ele>
        <time>2011-01-09T11:07:10Z</time>
      </trkpt>
      <trkpt lat="43.51691" lon="6.77429">
        <ele>114</ele>
        <time>2011-01-09T11:07:14Z</time>
      </trkpt>
      <trkpt lat="43.51691" lon="6.77434">
        <ele>114</ele>
        <time>2011-01-09T11:07:16Z</time>
      </trkpt>
      <trkpt lat="43.51693" lon="6.77442">
        <ele>115</ele>
        <time>2011-01-09T11:07:20Z</time>
      </trkpt>
      <trkpt lat="43.51694" lon="6.77444">
        <ele>116</ele>
        <time>2011-01-09T11:07:21Z</time>
      </trkpt>
      <trkpt lat="43.51696" lon="6.77447">
        <ele>116</ele>
        <time>2011-01-09T11:07:23Z</time>
      </trkpt>
      <trkpt lat="43.51697" lon="6.77448">
        <ele>116</ele>
        <time>2011-01-09T11:07:24Z</time>
      </trkpt>
      <trkpt lat="43.51698" lon="6.77449">
        <ele>116</ele>
        <time>2011-01-09T11:07:25Z</time>
      </trkpt>
      <trkpt lat="43.517" lon="6.7745">
        <ele>116</ele>
        <time>2011-01-09T11:07:26Z</time>
      </trkpt>
      <trkpt lat="43.51703" lon="6.77449">
        <ele>116</ele>
        <time>2011-01-09T11:07:28Z</time>
      </trkpt>
      <trkpt lat="43.51704" lon="6.77448">
        <ele>117</ele>
        <time>2011-01-09T11:07:29Z</time>
      </trkpt>
      <trkpt lat="43.51705" lon="6.77447">
        <ele>117</ele>
        <time>2011-01-09T11:07:30Z</time>
      </trkpt>
      <trkpt lat="43.51706" lon="6.77445">
        <ele>117</ele>
        <time>2011-01-09T11:07:31Z</time>
      </trkpt>
      <trkpt lat="43.51706" lon="6.77443">
        <ele>117</ele>
        <time>2011-01-09T11:07:32Z</time>
      </trkpt>
      <trkpt lat="43.51707" lon="6.77436">
        <ele>118</ele>
        <time>2011-01-09T11:07:35Z</time>
      </trkpt>
      <trkpt lat="43.51709" lon="6.77427">
        <ele>118</ele>
        <time>2011-01-09T11:07:39Z</time>
      </trkpt>
      <trkpt lat="43.5171" lon="6.77425">
        <ele>118</ele>
        <time>2011-01-09T11:07:40Z</time>
      </trkpt>
      <trkpt lat="43.51711" lon="6.77419">
        <ele>119</ele>
        <time>2011-01-09T11:07:43Z</time>
      </trkpt>
      <trkpt lat="43.51712" lon="6.77417">
        <ele>119</ele>
        <time>2011-01-09T11:07:44Z</time>
      </trkpt>
      <trkpt lat="43.51714" lon="6.77413">
        <ele>119</ele>
        <time>2011-01-09T11:07:46Z</time>
      </trkpt>
      <trkpt lat="43.51716" lon="6.7741">
        <ele>120</ele>
        <time>2011-01-09T11:07:48Z</time>
      </trkpt>
      <trkpt lat="43.51717" lon="6.77409">
        <ele>120</ele>
        <time>2011-01-09T11:07:49Z</time>
      </trkpt>
      <trkpt lat="43.51719" lon="6.77407">
        <ele>120</ele>
        <time>2011-01-09T11:07:50Z</time>
      </trkpt>
      <trkpt lat="43.51721" lon="6.77404">
        <ele>121</ele>
        <time>2011-01-09T11:07:52Z</time>
      </trkpt>
      <trkpt lat="43.51722" lon="6.77402">
        <ele>121</ele>
        <time>2011-01-09T11:07:53Z</time>
      </trkpt>
      <trkpt lat="43.51724" lon="6.77398">
        <ele>121</ele>
        <time>2011-01-09T11:07:55Z</time>
      </trkpt>
      <trkpt lat="43.51728" lon="6.77388">
        <ele>122</ele>
        <time>2011-01-09T11:08:00Z</time>
      </trkpt>
      <trkpt lat="43.5173" lon="6.7738">
        <ele>123</ele>
        <time>2011-01-09T11:08:04Z</time>
      </trkpt>
      <trkpt lat="43.51731" lon="6.77378">
        <ele>123</ele>
        <time>2011-01-09T11:08:05Z</time>
      </trkpt>
      <trkpt lat="43.51733" lon="6.77374">
        <ele>123</ele>
        <time>2011-01-09T11:08:07Z</time>
      </trkpt>
      <trkpt lat="43.51733" lon="6.77372">
        <ele>124</ele>
        <time>2011-01-09T11:08:08Z</time>
      </trkpt>
      <trkpt lat="43.51735" lon="6.77368">
        <ele>124</ele>
        <time>2011-01-09T11:08:10Z</time>
      </trkpt>
      <trkpt lat="43.51737" lon="6.77365">
        <ele>124</ele>
        <time>2011-01-09T11:08:12Z</time>
      </trkpt>
      <trkpt lat="43.51738" lon="6.77363">
        <ele>125</ele>
        <time>2011-01-09T11:08:13Z</time>
      </trkpt>
      <trkpt lat="43.51741" lon="6.77359">
        <ele>125</ele>
        <time>2011-01-09T11:08:16Z</time>
      </trkpt>
      <trkpt lat="43.51744" lon="6.77354">
        <ele>126</ele>
        <time>2011-01-09T11:08:20Z</time>
      </trkpt>
      <trkpt lat="43.51746" lon="6.77352">
        <ele>126</ele>
        <time>2011-01-09T11:08:22Z</time>
      </trkpt>
      <trkpt lat="43.51747" lon="6.77351">
        <ele>126</ele>
        <time>2011-01-09T11:08:23Z</time>
      </trkpt>
      <trkpt lat="43.51747" lon="6.7735">
        <ele>126</ele>
        <time>2011-01-09T11:08:24Z</time>
      </trkpt>
      <trkpt lat="43.5175" lon="6.77346">
        <ele>127</ele>
        <time>2011-01-09T11:08:27Z</time>
      </trkpt>
      <trkpt lat="43.51752" lon="6.77344">
        <ele>127</ele>
        <time>2011-01-09T11:08:29Z</time>
      </trkpt>
      <trkpt lat="43.51754" lon="6.77341">
        <ele>127</ele>
        <time>2011-01-09T11:08:32Z</time>
      </trkpt>
      <trkpt lat="43.51756" lon="6.77339">
        <ele>128</ele>
        <time>2011-01-09T11:08:34Z</time>
      </trkpt>
      <trkpt lat="43.51762" lon="6.77332">
        <ele>129</ele>
        <time>2011-01-09T11:08:40Z</time>
      </trkpt>
      <trkpt lat="43.51764" lon="6.77331">
        <ele>129</ele>
        <time>2011-01-09T11:08:41Z</time>
      </trkpt>
      <trkpt lat="43.51765" lon="6.7733">
        <ele>129</ele>
        <time>2011-01-09T11:08:42Z</time>
      </trkpt>
      <trkpt lat="43.51766" lon="6.7733">
        <ele>129</ele>
        <time>2011-01-09T11:08:43Z</time>
      </trkpt>
      <trkpt lat="43.51769" lon="6.7733">
        <ele>129</ele>
        <time>2011-01-09T11:08:45Z</time>
      </trkpt>
      <trkpt lat="43.5177" lon="6.77331">
        <ele>129</ele>
        <time>2011-01-09T11:08:46Z</time>
      </trkpt>
      <trkpt lat="43.51771" lon="6.77332">
        <ele>129</ele>
        <time>2011-01-09T11:08:47Z</time>
      </trkpt>
      <trkpt lat="43.51772" lon="6.77333">
        <ele>130</ele>
        <time>2011-01-09T11:08:48Z</time>
      </trkpt>
      <trkpt lat="43.51774" lon="6.77338">
        <ele>130</ele>
        <time>2011-01-09T11:08:51Z</time>
      </trkpt>
      <trkpt lat="43.51775" lon="6.77342">
        <ele>130</ele>
        <time>2011-01-09T11:08:53Z</time>
      </trkpt>
      <trkpt lat="43.51774" lon="6.77346">
        <ele>130</ele>
        <time>2011-01-09T11:08:55Z</time>
      </trkpt>
      <trkpt lat="43.51773" lon="6.77348">
        <ele>130</ele>
        <time>2011-01-09T11:08:56Z</time>
      </trkpt>
      <trkpt lat="43.51773" lon="6.77349">
        <ele>130</ele>
        <time>2011-01-09T11:08:57Z</time>
      </trkpt>
      <trkpt lat="43.51771" lon="6.77351">
        <ele>130</ele>
        <time>2011-01-09T11:08:58Z</time>
      </trkpt>
      <trkpt lat="43.51769" lon="6.77353">
        <ele>130</ele>
        <time>2011-01-09T11:09:00Z</time>
      </trkpt>
      <trkpt lat="43.51764" lon="6.77356">
        <ele>131</ele>
        <time>2011-01-09T11:09:03Z</time>
      </trkpt>
      <trkpt lat="43.51761" lon="6.77358">
        <ele>131</ele>
        <time>2011-01-09T11:09:05Z</time>
      </trkpt>
      <trkpt lat="43.5176" lon="6.7736">
        <ele>131</ele>
        <time>2011-01-09T11:09:06Z</time>
      </trkpt>
      <trkpt lat="43.51758" lon="6.77361">
        <ele>131</ele>
        <time>2011-01-09T11:09:08Z</time>
      </trkpt>
      <trkpt lat="43.51757" lon="6.77363">
        <ele>131</ele>
        <time>2011-01-09T11:09:09Z</time>
      </trkpt>
      <trkpt lat="43.51757" lon="6.77364">
        <ele>131</ele>
        <time>2011-01-09T11:09:10Z</time>
      </trkpt>
      <trkpt lat="43.51756" lon="6.77366">
        <ele>131</ele>
        <time>2011-01-09T11:09:11Z</time>
      </trkpt>
      <trkpt lat="43.51754" lon="6.7737">
        <ele>131</ele>
        <time>2011-01-09T11:09:14Z</time>
      </trkpt>
      <trkpt lat="43.51753" lon="6.77372">
        <ele>131</ele>
        <time>2011-01-09T11:09:15Z</time>
      </trkpt>
      <trkpt lat="43.51752" lon="6.77377">
        <ele>132</ele>
        <time>2011-01-09T11:09:18Z</time>
      </trkpt>
      <trkpt lat="43.51751" lon="6.77379">
        <ele>132</ele>
        <time>2011-01-09T11:09:19Z</time>
      </trkpt>
      <trkpt lat="43.5175" lon="6.77382">
        <ele>132</ele>
        <time>2011-01-09T11:09:21Z</time>
      </trkpt>
      <trkpt lat="43.5175" lon="6.77386">
        <ele>132</ele>
        <time>2011-01-09T11:09:23Z</time>
      </trkpt>
      <trkpt lat="43.5175" lon="6.77393">
        <ele>132</ele>
        <time>2011-01-09T11:09:27Z</time>
      </trkpt>
      <trkpt lat="43.51751" lon="6.77397">
        <ele>133</ele>
        <time>2011-01-09T11:09:29Z</time>
      </trkpt>
      <trkpt lat="43.51751" lon="6.77401">
        <ele>133</ele>
        <time>2011-01-09T11:09:31Z</time>
      </trkpt>
      <trkpt lat="43.51752" lon="6.77405">
        <ele>133</ele>
        <time>2011-01-09T11:09:33Z</time>
      </trkpt>
      <trkpt lat="43.51753" lon="6.77409">
        <ele>133</ele>
        <time>2011-01-09T11:09:35Z</time>
      </trkpt>
      <trkpt lat="43.51753" lon="6.77413">
        <ele>133</ele>
        <time>2011-01-09T11:09:37Z</time>
      </trkpt>
      <trkpt lat="43.51754" lon="6.77417">
        <ele>134</ele>
        <time>2011-01-09T11:09:39Z</time>
      </trkpt>
      <trkpt lat="43.51755" lon="6.77423">
        <ele>134</ele>
        <time>2011-01-09T11:09:42Z</time>
      </trkpt>
      <trkpt lat="43.51756" lon="6.77426">
        <ele>134</ele>
        <time>2011-01-09T11:09:43Z</time>
      </trkpt>
      <trkpt lat="43.51757" lon="6.77432">
        <ele>135</ele>
        <time>2011-01-09T11:09:46Z</time>
      </trkpt>
      <trkpt lat="43.51757" lon="6.77434">
        <ele>135</ele>
        <time>2011-01-09T11:09:47Z</time>
      </trkpt>
      <trkpt lat="43.51758" lon="6.77438">
        <ele>135</ele>
        <time>2011-01-09T11:09:49Z</time>
      </trkpt>
      <trkpt lat="43.51758" lon="6.7744">
        <ele>135</ele>
        <time>2011-01-09T11:09:50Z</time>
      </trkpt>
      <trkpt lat="43.51757" lon="6.77445">
        <ele>136</ele>
        <time>2011-01-09T11:09:52Z</time>
      </trkpt>
      <trkpt lat="43.51755" lon="6.77453">
        <ele>137</ele>
        <time>2011-01-09T11:09:56Z</time>
      </trkpt>
      <trkpt lat="43.51754" lon="6.77457">
        <ele>137</ele>
        <time>2011-01-09T11:09:58Z</time>
      </trkpt>
      <trkpt lat="43.51753" lon="6.77461">
        <ele>138</ele>
        <time>2011-01-09T11:10:00Z</time>
      </trkpt>
      <trkpt lat="43.51752" lon="6.77465">
        <ele>138</ele>
        <time>2011-01-09T11:10:02Z</time>
      </trkpt>
      <trkpt lat="43.51752" lon="6.77469">
        <ele>138</ele>
        <time>2011-01-09T11:10:04Z</time>
      </trkpt>
      <trkpt lat="43.51751" lon="6.77472">
        <ele>138</ele>
        <time>2011-01-09T11:10:06Z</time>
      </trkpt>
      <trkpt lat="43.51751" lon="6.77475">
        <ele>138</ele>
        <time>2011-01-09T11:10:07Z</time>
      </trkpt>
      <trkpt lat="43.51752" lon="6.77483">
        <ele>139</ele>
        <time>2011-01-09T11:10:11Z</time>
      </trkpt>
      <trkpt lat="43.51752" lon="6.77485">
        <ele>139</ele>
        <time>2011-01-09T11:10:12Z</time>
      </trkpt>
      <trkpt lat="43.51753" lon="6.77491">
        <ele>139</ele>
        <time>2011-01-09T11:10:15Z</time>
      </trkpt>
      <trkpt lat="43.51753" lon="6.77495">
        <ele>140</ele>
        <time>2011-01-09T11:10:17Z</time>
      </trkpt>
      <trkpt lat="43.51754" lon="6.77497">
        <ele>140</ele>
        <time>2011-01-09T11:10:18Z</time>
      </trkpt>
      <trkpt lat="43.51754" lon="6.775">
        <ele>140</ele>
        <time>2011-01-09T11:10:19Z</time>
      </trkpt>
      <trkpt lat="43.51755" lon="6.77502">
        <ele>140</ele>
        <time>2011-01-09T11:10:20Z</time>
      </trkpt>
      <trkpt lat="43.51757" lon="6.77508">
        <ele>141</ele>
        <time>2011-01-09T11:10:23Z</time>
      </trkpt>
      <trkpt lat="43.51758" lon="6.77512">
        <ele>141</ele>
        <time>2011-01-09T11:10:25Z</time>
      </trkpt>
      <trkpt lat="43.5176" lon="6.77518">
        <ele>142</ele>
        <time>2011-01-09T11:10:28Z</time>
      </trkpt>
      <trkpt lat="43.51761" lon="6.77522">
        <ele>142</ele>
        <time>2011-01-09T11:10:30Z</time>
      </trkpt>
      <trkpt lat="43.51764" lon="6.77527">
        <ele>142</ele>
        <time>2011-01-09T11:10:33Z</time>
      </trkpt>
      <trkpt lat="43.51766" lon="6.77532">
        <ele>142</ele>
        <time>2011-01-09T11:10:36Z</time>
      </trkpt>
      <trkpt lat="43.51769" lon="6.77537">
        <ele>143</ele>
        <time>2011-01-09T11:10:39Z</time>
      </trkpt>
      <trkpt lat="43.51771" lon="6.7754">
        <ele>143</ele>
        <time>2011-01-09T11:10:41Z</time>
      </trkpt>
      <trkpt lat="43.51773" lon="6.77543">
        <ele>143</ele>
        <time>2011-01-09T11:10:43Z</time>
      </trkpt>
      <trkpt lat="43.51774" lon="6.77545">
        <ele>143</ele>
        <time>2011-01-09T11:10:44Z</time>
      </trkpt>
      <trkpt lat="43.51776" lon="6.77548">
        <ele>144</ele>
        <time>2011-01-09T11:10:46Z</time>
      </trkpt>
      <trkpt lat="43.51778" lon="6.7755">
        <ele>144</ele>
        <time>2011-01-09T11:10:47Z</time>
      </trkpt>
      <trkpt lat="43.51779" lon="6.77551">
        <ele>144</ele>
        <time>2011-01-09T11:10:48Z</time>
      </trkpt>
      <trkpt lat="43.51781" lon="6.77554">
        <ele>144</ele>
        <time>2011-01-09T11:10:50Z</time>
      </trkpt>
      <trkpt lat="43.51784" lon="6.77556">
        <ele>144</ele>
        <time>2011-01-09T11:10:52Z</time>
      </trkpt>
      <trkpt lat="43.51786" lon="6.77559">
        <ele>145</ele>
        <time>2011-01-09T11:10:54Z</time>
      </trkpt>
      <trkpt lat="43.51787" lon="6.77559">
        <ele>145</ele>
        <time>2011-01-09T11:10:55Z</time>
      </trkpt>
      <trkpt lat="43.51789" lon="6.7756">
        <ele>145</ele>
        <time>2011-01-09T11:10:56Z</time>
      </trkpt>
      <trkpt lat="43.51792" lon="6.77562">
        <ele>145</ele>
        <time>2011-01-09T11:10:58Z</time>
      </trkpt>
      <trkpt lat="43.51793" lon="6.77563">
        <ele>145</ele>
        <time>2011-01-09T11:10:59Z</time>
      </trkpt>
      <trkpt lat="43.51795" lon="6.77563">
        <ele>145</ele>
        <time>2011-01-09T11:11:00Z</time>
      </trkpt>
      <trkpt lat="43.51799" lon="6.77564">
        <ele>146</ele>
        <time>2011-01-09T11:11:03Z</time>
      </trkpt>
      <trkpt lat="43.51801" lon="6.77564">
        <ele>147</ele>
        <time>2011-01-09T11:11:04Z</time>
      </trkpt>
      <trkpt lat="43.51806" lon="6.77563">
        <ele>148</ele>
        <time>2011-01-09T11:11:07Z</time>
      </trkpt>
      <trkpt lat="43.51811" lon="6.77562">
        <ele>149</ele>
        <time>2011-01-09T11:11:10Z</time>
      </trkpt>
      <trkpt lat="43.51815" lon="6.77559">
        <ele>150</ele>
        <time>2011-01-09T11:11:13Z</time>
      </trkpt>
      <trkpt lat="43.51819" lon="6.77556">
        <ele>151</ele>
        <time>2011-01-09T11:11:16Z</time>
      </trkpt>
      <trkpt lat="43.51821" lon="6.77556">
        <ele>151</ele>
        <time>2011-01-09T11:11:17Z</time>
      </trkpt>
      <trkpt lat="43.51824" lon="6.77554">
        <ele>152</ele>
        <time>2011-01-09T11:11:19Z</time>
      </trkpt>
      <trkpt lat="43.51825" lon="6.77553">
        <ele>152</ele>
        <time>2011-01-09T11:11:20Z</time>
      </trkpt>
      <trkpt lat="43.51834" lon="6.77551">
        <ele>154</ele>
        <time>2011-01-09T11:11:25Z</time>
      </trkpt>
      <trkpt lat="43.51837" lon="6.77551">
        <ele>154</ele>
        <time>2011-01-09T11:11:27Z</time>
      </trkpt>
      <trkpt lat="43.51838" lon="6.77551">
        <ele>155</ele>
        <time>2011-01-09T11:11:28Z</time>
      </trkpt>
      <trkpt lat="43.5184" lon="6.77551">
        <ele>155</ele>
        <time>2011-01-09T11:11:29Z</time>
      </trkpt>
      <trkpt lat="43.51843" lon="6.77552">
        <ele>155</ele>
        <time>2011-01-09T11:11:31Z</time>
      </trkpt>
      <trkpt lat="43.51844" lon="6.77553">
        <ele>155</ele>
        <time>2011-01-09T11:11:32Z</time>
      </trkpt>
      <trkpt lat="43.51846" lon="6.77556">
        <ele>155</ele>
        <time>2011-01-09T11:11:35Z</time>
      </trkpt>
      <trkpt lat="43.51848" lon="6.77559">
        <ele>155</ele>
        <time>2011-01-09T11:11:37Z</time>
      </trkpt>
      <trkpt lat="43.51849" lon="6.77561">
        <ele>155</ele>
        <time>2011-01-09T11:11:39Z</time>
      </trkpt>
      <trkpt lat="43.51849" lon="6.77562">
        <ele>155</ele>
        <time>2011-01-09T11:11:40Z</time>
      </trkpt>
      <trkpt lat="43.5185" lon="6.77565">
        <ele>155</ele>
        <time>2011-01-09T11:11:42Z</time>
      </trkpt>
      <trkpt lat="43.5185" lon="6.77568">
        <ele>155</ele>
        <time>2011-01-09T11:11:44Z</time>
      </trkpt>
      <trkpt lat="43.5185" lon="6.7757">
        <ele>156</ele>
        <time>2011-01-09T11:11:46Z</time>
      </trkpt>
      <trkpt lat="43.51851" lon="6.77573">
        <ele>156</ele>
        <time>2011-01-09T11:11:48Z</time>
      </trkpt>
      <trkpt lat="43.51852" lon="6.77575">
        <ele>156</ele>
        <time>2011-01-09T11:11:50Z</time>
      </trkpt>
      <trkpt lat="43.51854" lon="6.7758">
        <ele>156</ele>
        <time>2011-01-09T11:11:54Z</time>
      </trkpt>
      <trkpt lat="43.51854" lon="6.77582">
        <ele>156</ele>
        <time>2011-01-09T11:11:55Z</time>
      </trkpt>
      <trkpt lat="43.51855" lon="6.77583">
        <ele>156</ele>
        <time>2011-01-09T11:11:56Z</time>
      </trkpt>
      <trkpt lat="43.51855" lon="6.77585">
        <ele>156</ele>
        <time>2011-01-09T11:11:57Z</time>
      </trkpt>
      <trkpt lat="43.51856" lon="6.77586">
        <ele>156</ele>
        <time>2011-01-09T11:11:58Z</time>
      </trkpt>
      <trkpt lat="43.51858" lon="6.7759">
        <ele>156</ele>
        <time>2011-01-09T11:12:01Z</time>
      </trkpt>
      <trkpt lat="43.51859" lon="6.77591">
        <ele>156</ele>
        <time>2011-01-09T11:12:03Z</time>
      </trkpt>
      <trkpt lat="43.5186" lon="6.77592">
        <ele>156</ele>
        <time>2011-01-09T11:12:04Z</time>
      </trkpt>
      <trkpt lat="43.51862" lon="6.77595">
        <ele>156</ele>
        <time>2011-01-09T11:12:06Z</time>
      </trkpt>
      <trkpt lat="43.51863" lon="6.77598">
        <ele>156</ele>
        <time>2011-01-09T11:12:08Z</time>
      </trkpt>
      <trkpt lat="43.51864" lon="6.776">
        <ele>157</ele>
        <time>2011-01-09T11:12:09Z</time>
      </trkpt>
      <trkpt lat="43.51867" lon="6.77606">
        <ele>157</ele>
        <time>2011-01-09T11:12:13Z</time>
      </trkpt>
      <trkpt lat="43.51867" lon="6.77608">
        <ele>157</ele>
        <time>2011-01-09T11:12:14Z</time>
      </trkpt>
      <trkpt lat="43.51868" lon="6.77609">
        <ele>158</ele>
        <time>2011-01-09T11:12:15Z</time>
      </trkpt>
      <trkpt lat="43.5187" lon="6.77612">
        <ele>158</ele>
        <time>2011-01-09T11:12:17Z</time>
      </trkpt>
      <trkpt lat="43.51872" lon="6.77613">
        <ele>158</ele>
        <time>2011-01-09T11:12:18Z</time>
      </trkpt>
      <trkpt lat="43.51876" lon="6.77615">
        <ele>159</ele>
        <time>2011-01-09T11:12:21Z</time>
      </trkpt>
      <trkpt lat="43.51877" lon="6.77616">
        <ele>159</ele>
        <time>2011-01-09T11:12:22Z</time>
      </trkpt>
      <trkpt lat="43.51879" lon="6.77616">
        <ele>160</ele>
        <time>2011-01-09T11:12:23Z</time>
      </trkpt>
      <trkpt lat="43.51881" lon="6.77615">
        <ele>160</ele>
        <time>2011-01-09T11:12:25Z</time>
      </trkpt>
      <trkpt lat="43.51883" lon="6.77614">
        <ele>160</ele>
        <time>2011-01-09T11:12:27Z</time>
      </trkpt>
      <trkpt lat="43.51884" lon="6.77611">
        <ele>161</ele>
        <time>2011-01-09T11:12:29Z</time>
      </trkpt>
      <trkpt lat="43.51885" lon="6.77608">
        <ele>161</ele>
        <time>2011-01-09T11:12:31Z</time>
      </trkpt>
      <trkpt lat="43.51885" lon="6.77604">
        <ele>161</ele>
        <time>2011-01-09T11:12:33Z</time>
      </trkpt>
      <trkpt lat="43.51884" lon="6.77597">
        <ele>162</ele>
        <time>2011-01-09T11:12:36Z</time>
      </trkpt>
      <trkpt lat="43.51882" lon="6.77592">
        <ele>163</ele>
        <time>2011-01-09T11:12:39Z</time>
      </trkpt>
      <trkpt lat="43.5188" lon="6.77588">
        <ele>164</ele>
        <time>2011-01-09T11:12:41Z</time>
      </trkpt>
      <trkpt lat="43.51879" lon="6.77586">
        <ele>164</ele>
        <time>2011-01-09T11:12:42Z</time>
      </trkpt>
      <trkpt lat="43.51879" lon="6.77582">
        <ele>164</ele>
        <time>2011-01-09T11:12:44Z</time>
      </trkpt>
      <trkpt lat="43.5188" lon="6.7758">
        <ele>165</ele>
        <time>2011-01-09T11:12:45Z</time>
      </trkpt>
      <trkpt lat="43.5188" lon="6.77576">
        <ele>165</ele>
        <time>2011-01-09T11:12:47Z</time>
      </trkpt>
      <trkpt lat="43.51881" lon="6.77574">
        <ele>165</ele>
        <time>2011-01-09T11:12:48Z</time>
      </trkpt>
      <trkpt lat="43.51883" lon="6.77571">
        <ele>166</ele>
        <time>2011-01-09T11:12:50Z</time>
      </trkpt>
      <trkpt lat="43.51884" lon="6.7757">
        <ele>166</ele>
        <time>2011-01-09T11:12:51Z</time>
      </trkpt>
      <trkpt lat="43.51885" lon="6.77569">
        <ele>166</ele>
        <time>2011-01-09T11:12:52Z</time>
      </trkpt>
      <trkpt lat="43.51887" lon="6.77569">
        <ele>166</ele>
        <time>2011-01-09T11:12:53Z</time>
      </trkpt>
      <trkpt lat="43.51888" lon="6.77569">
        <ele>166</ele>
        <time>2011-01-09T11:12:54Z</time>
      </trkpt>
      <trkpt lat="43.51891" lon="6.77569">
        <ele>167</ele>
        <time>2011-01-09T11:12:56Z</time>
      </trkpt>
      <trkpt lat="43.51893" lon="6.7757">
        <ele>167</ele>
        <time>2011-01-09T11:12:57Z</time>
      </trkpt>
      <trkpt lat="43.51894" lon="6.77571">
        <ele>167</ele>
        <time>2011-01-09T11:12:58Z</time>
      </trkpt>
      <trkpt lat="43.51895" lon="6.77572">
        <ele>167</ele>
        <time>2011-01-09T11:12:59Z</time>
      </trkpt>
      <trkpt lat="43.51897" lon="6.77576">
        <ele>167</ele>
        <time>2011-01-09T11:13:01Z</time>
      </trkpt>
      <trkpt lat="43.51898" lon="6.77577">
        <ele>167</ele>
        <time>2011-01-09T11:13:02Z</time>
      </trkpt>
      <trkpt lat="43.51899" lon="6.7758">
        <ele>167</ele>
        <time>2011-01-09T11:13:04Z</time>
      </trkpt>
      <trkpt lat="43.51899" lon="6.77582">
        <ele>167</ele>
        <time>2011-01-09T11:13:05Z</time>
      </trkpt>
      <trkpt lat="43.51899" lon="6.77585">
        <ele>167</ele>
        <time>2011-01-09T11:13:07Z</time>
      </trkpt>
      <trkpt lat="43.51897" lon="6.77591">
        <ele>168</ele>
        <time>2011-01-09T11:13:11Z</time>
      </trkpt>
      <trkpt lat="43.51896" lon="6.77593">
        <ele>168</ele>
        <time>2011-01-09T11:13:12Z</time>
      </trkpt>
      <trkpt lat="43.51896" lon="6.77595">
        <ele>169</ele>
        <time>2011-01-09T11:13:13Z</time>
      </trkpt>
      <trkpt lat="43.51896" lon="6.77596">
        <ele>169</ele>
        <time>2011-01-09T11:13:14Z</time>
      </trkpt>
      <trkpt lat="43.51897" lon="6.77598">
        <ele>169</ele>
        <time>2011-01-09T11:13:15Z</time>
      </trkpt>
      <trkpt lat="43.51898" lon="6.77603">
        <ele>169</ele>
        <time>2011-01-09T11:13:18Z</time>
      </trkpt>
      <trkpt lat="43.51898" lon="6.77605">
        <ele>169</ele>
        <time>2011-01-09T11:13:19Z</time>
      </trkpt>
      <trkpt lat="43.51899" lon="6.77608">
        <ele>169</ele>
        <time>2011-01-09T11:13:21Z</time>
      </trkpt>
      <trkpt lat="43.51899" lon="6.77609">
        <ele>169</ele>
        <time>2011-01-09T11:13:22Z</time>
      </trkpt>
      <trkpt lat="43.51899" lon="6.7761">
        <ele>169</ele>
        <time>2011-01-09T11:13:23Z</time>
      </trkpt>
      <trkpt lat="43.519" lon="6.77611">
        <ele>169</ele>
        <time>2011-01-09T11:13:24Z</time>
      </trkpt>
      <trkpt lat="43.519" lon="6.77614">
        <ele>169</ele>
        <time>2011-01-09T11:13:26Z</time>
      </trkpt>
      <trkpt lat="43.51901" lon="6.77618">
        <ele>169</ele>
        <time>2011-01-09T11:13:29Z</time>
      </trkpt>
      <trkpt lat="43.51901" lon="6.77622">
        <ele>169</ele>
        <time>2011-01-09T11:13:32Z</time>
      </trkpt>
      <trkpt lat="43.51901" lon="6.77624">
        <ele>169</ele>
        <time>2011-01-09T11:13:33Z</time>
      </trkpt>
      <trkpt lat="43.51903" lon="6.77629">
        <ele>170</ele>
        <time>2011-01-09T11:13:36Z</time>
      </trkpt>
      <trkpt lat="43.51903" lon="6.77632">
        <ele>170</ele>
        <time>2011-01-09T11:13:38Z</time>
      </trkpt>
      <trkpt lat="43.51904" lon="6.77635">
        <ele>170</ele>
        <time>2011-01-09T11:13:40Z</time>
      </trkpt>
      <trkpt lat="43.51905" lon="6.77636">
        <ele>170</ele>
        <time>2011-01-09T11:13:41Z</time>
      </trkpt>
      <trkpt lat="43.51906" lon="6.77639">
        <ele>170</ele>
        <time>2011-01-09T11:13:43Z</time>
      </trkpt>
      <trkpt lat="43.51907" lon="6.77642">
        <ele>170</ele>
        <time>2011-01-09T11:13:45Z</time>
      </trkpt>
      <trkpt lat="43.51908" lon="6.77645">
        <ele>170</ele>
        <time>2011-01-09T11:13:47Z</time>
      </trkpt>
      <trkpt lat="43.51911" lon="6.77649">
        <ele>170</ele>
        <time>2011-01-09T11:13:50Z</time>
      </trkpt>
      <trkpt lat="43.51916" lon="6.77654">
        <ele>171</ele>
        <time>2011-01-09T11:13:55Z</time>
      </trkpt>
      <trkpt lat="43.5192" lon="6.77658">
        <ele>171</ele>
        <time>2011-01-09T11:13:59Z</time>
      </trkpt>
      <trkpt lat="43.51922" lon="6.7766">
        <ele>171</ele>
        <time>2011-01-09T11:14:01Z</time>
      </trkpt>
      <trkpt lat="43.51923" lon="6.77663">
        <ele>171</ele>
        <time>2011-01-09T11:14:03Z</time>
      </trkpt>
      <trkpt lat="43.51926" lon="6.77667">
        <ele>171</ele>
        <time>2011-01-09T11:14:06Z</time>
      </trkpt>
      <trkpt lat="43.5193" lon="6.77675">
        <ele>171</ele>
        <time>2011-01-09T11:14:12Z</time>
      </trkpt>
      <trkpt lat="43.51931" lon="6.77676">
        <ele>171</ele>
        <time>2011-01-09T11:14:13Z</time>
      </trkpt>
      <trkpt lat="43.51932" lon="6.77678">
        <ele>172</ele>
        <time>2011-01-09T11:14:15Z</time>
      </trkpt>
      <trkpt lat="43.51932" lon="6.77678">
        <ele>172</ele>
        <time>2011-01-09T11:14:16Z</time>
      </trkpt>
      <trkpt lat="43.51932" lon="6.77678">
        <ele>172</ele>
        <time>2011-01-09T11:14:43Z</time>
      </trkpt>
      <trkpt lat="43.51932" lon="6.77679">
        <ele>172</ele>
        <time>2011-01-09T11:14:44Z</time>
      </trkpt>
      <trkpt lat="43.51935" lon="6.77686">
        <ele>172</ele>
        <time>2011-01-09T11:14:48Z</time>
      </trkpt>
      <trkpt lat="43.51936" lon="6.7769">
        <ele>172</ele>
        <time>2011-01-09T11:14:50Z</time>
      </trkpt>
      <trkpt lat="43.51937" lon="6.77693">
        <ele>172</ele>
        <time>2011-01-09T11:14:51Z</time>
      </trkpt>
      <trkpt lat="43.51938" lon="6.77695">
        <ele>172</ele>
        <time>2011-01-09T11:14:52Z</time>
      </trkpt>
      <trkpt lat="43.5194" lon="6.777">
        <ele>173</ele>
        <time>2011-01-09T11:14:55Z</time>
      </trkpt>
      <trkpt lat="43.51943" lon="6.77707">
        <ele>173</ele>
        <time>2011-01-09T11:14:59Z</time>
      </trkpt>
      <trkpt lat="43.51944" lon="6.7771">
        <ele>173</ele>
        <time>2011-01-09T11:15:01Z</time>
      </trkpt>
      <trkpt lat="43.51943" lon="6.7771">
        <ele>173</ele>
        <time>2011-01-09T11:16:21Z</time>
      </trkpt>
      <trkpt lat="43.51943" lon="6.77711">
        <ele>173</ele>
        <time>2011-01-09T11:16:22Z</time>
      </trkpt>
      <trkpt lat="43.51944" lon="6.77714">
        <ele>173</ele>
        <time>2011-01-09T11:16:24Z</time>
      </trkpt>
      <trkpt lat="43.51944" lon="6.77715">
        <ele>173</ele>
        <time>2011-01-09T11:16:25Z</time>
      </trkpt>
      <trkpt lat="43.51946" lon="6.77719">
        <ele>173</ele>
        <time>2011-01-09T11:16:27Z</time>
      </trkpt>
      <trkpt lat="43.51947" lon="6.77724">
        <ele>174</ele>
        <time>2011-01-09T11:16:30Z</time>
      </trkpt>
      <trkpt lat="43.51947" lon="6.77728">
        <ele>174</ele>
        <time>2011-01-09T11:16:32Z</time>
      </trkpt>
      <trkpt lat="43.51947" lon="6.7773">
        <ele>174</ele>
        <time>2011-01-09T11:16:33Z</time>
      </trkpt>
      <trkpt lat="43.51948" lon="6.77737">
        <ele>175</ele>
        <time>2011-01-09T11:16:36Z</time>
      </trkpt>
      <trkpt lat="43.51948" lon="6.77741">
        <ele>175</ele>
        <time>2011-01-09T11:16:38Z</time>
      </trkpt>
      <trkpt lat="43.51948" lon="6.77743">
        <ele>175</ele>
        <time>2011-01-09T11:16:39Z</time>
      </trkpt>
      <trkpt lat="43.51947" lon="6.77748">
        <ele>175</ele>
        <time>2011-01-09T11:16:42Z</time>
      </trkpt>
      <trkpt lat="43.51947" lon="6.7775">
        <ele>176</ele>
        <time>2011-01-09T11:16:43Z</time>
      </trkpt>
      <trkpt lat="43.51947" lon="6.77752">
        <ele>176</ele>
        <time>2011-01-09T11:16:44Z</time>
      </trkpt>
      <trkpt lat="43.51946" lon="6.77755">
        <ele>176</ele>
        <time>2011-01-09T11:16:45Z</time>
      </trkpt>
      <trkpt lat="43.51946" lon="6.77765">
        <ele>177</ele>
        <time>2011-01-09T11:16:50Z</time>
      </trkpt>
      <trkpt lat="43.51946" lon="6.77769">
        <ele>177</ele>
        <time>2011-01-09T11:16:52Z</time>
      </trkpt>
      <trkpt lat="43.51946" lon="6.77773">
        <ele>177</ele>
        <time>2011-01-09T11:16:54Z</time>
      </trkpt>
      <trkpt lat="43.51946" lon="6.7778">
        <ele>178</ele>
        <time>2011-01-09T11:16:57Z</time>
      </trkpt>
      <trkpt lat="43.51946" lon="6.77786">
        <ele>178</ele>
        <time>2011-01-09T11:17:00Z</time>
      </trkpt>
      <trkpt lat="43.51947" lon="6.7779">
        <ele>179</ele>
        <time>2011-01-09T11:17:02Z</time>
      </trkpt>
      <trkpt lat="43.51947" lon="6.77792">
        <ele>179</ele>
        <time>2011-01-09T11:17:03Z</time>
      </trkpt>
      <trkpt lat="43.51948" lon="6.77794">
        <ele>179</ele>
        <time>2011-01-09T11:17:04Z</time>
      </trkpt>
      <trkpt lat="43.51949" lon="6.77798">
        <ele>180</ele>
        <time>2011-01-09T11:17:06Z</time>
      </trkpt>
      <trkpt lat="43.5195" lon="6.77801">
        <ele>180</ele>
        <time>2011-01-09T11:17:08Z</time>
      </trkpt>
      <trkpt lat="43.51953" lon="6.77806">
        <ele>181</ele>
        <time>2011-01-09T11:17:11Z</time>
      </trkpt>
      <trkpt lat="43.51954" lon="6.77807">
        <ele>181</ele>
        <time>2011-01-09T11:17:12Z</time>
      </trkpt>
      <trkpt lat="43.51958" lon="6.77812">
        <ele>182</ele>
        <time>2011-01-09T11:17:16Z</time>
      </trkpt>
      <trkpt lat="43.5196" lon="6.77813">
        <ele>182</ele>
        <time>2011-01-09T11:17:17Z</time>
      </trkpt>
      <trkpt lat="43.51961" lon="6.77814">
        <ele>182</ele>
        <time>2011-01-09T11:17:18Z</time>
      </trkpt>
      <trkpt lat="43.51963" lon="6.77815">
        <ele>182</ele>
        <time>2011-01-09T11:17:20Z</time>
      </trkpt>
      <trkpt lat="43.51966" lon="6.77817">
        <ele>183</ele>
        <time>2011-01-09T11:17:22Z</time>
      </trkpt>
      <trkpt lat="43.51967" lon="6.77817">
        <ele>183</ele>
        <time>2011-01-09T11:17:23Z</time>
      </trkpt>
      <trkpt lat="43.5197" lon="6.77818">
        <ele>183</ele>
        <time>2011-01-09T11:17:25Z</time>
      </trkpt>
      <trkpt lat="43.51974" lon="6.77819">
        <ele>183</ele>
        <time>2011-01-09T11:17:28Z</time>
      </trkpt>
      <trkpt lat="43.51976" lon="6.77819">
        <ele>183</ele>
        <time>2011-01-09T11:17:30Z</time>
      </trkpt>
      <trkpt lat="43.5198" lon="6.7782">
        <ele>184</ele>
        <time>2011-01-09T11:17:33Z</time>
      </trkpt>
      <trkpt lat="43.51985" lon="6.7782">
        <ele>184</ele>
        <time>2011-01-09T11:17:36Z</time>
      </trkpt>
      <trkpt lat="43.51989" lon="6.77819">
        <ele>184</ele>
        <time>2011-01-09T11:17:39Z</time>
      </trkpt>
      <trkpt lat="43.51994" lon="6.77816">
        <ele>185</ele>
        <time>2011-01-09T11:17:43Z</time>
      </trkpt>
      <trkpt lat="43.51996" lon="6.77814">
        <ele>185</ele>
        <time>2011-01-09T11:17:45Z</time>
      </trkpt>
      <trkpt lat="43.51998" lon="6.77814">
        <ele>185</ele>
        <time>2011-01-09T11:17:46Z</time>
      </trkpt>
      <trkpt lat="43.52001" lon="6.77812">
        <ele>185</ele>
        <time>2011-01-09T11:17:49Z</time>
      </trkpt>
      <trkpt lat="43.52003" lon="6.77811">
        <ele>186</ele>
        <time>2011-01-09T11:17:51Z</time>
      </trkpt>
      <trkpt lat="43.52005" lon="6.77809">
        <ele>186</ele>
        <time>2011-01-09T11:17:53Z</time>
      </trkpt>
      <trkpt lat="43.5201" lon="6.77807">
        <ele>186</ele>
        <time>2011-01-09T11:17:57Z</time>
      </trkpt>
      <trkpt lat="43.52012" lon="6.77806">
        <ele>186</ele>
        <time>2011-01-09T11:17:59Z</time>
      </trkpt>
      <trkpt lat="43.52013" lon="6.77805">
        <ele>187</ele>
        <time>2011-01-09T11:18:00Z</time>
      </trkpt>
      <trkpt lat="43.52014" lon="6.77805">
        <ele>187</ele>
        <time>2011-01-09T11:18:01Z</time>
      </trkpt>
      <trkpt lat="43.52017" lon="6.77803">
        <ele>187</ele>
        <time>2011-01-09T11:18:04Z</time>
      </trkpt>
      <trkpt lat="43.5202" lon="6.77803">
        <ele>187</ele>
        <time>2011-01-09T11:18:06Z</time>
      </trkpt>
      <trkpt lat="43.52023" lon="6.77802">
        <ele>188</ele>
        <time>2011-01-09T11:18:08Z</time>
      </trkpt>
      <trkpt lat="43.52025" lon="6.77802">
        <ele>188</ele>
        <time>2011-01-09T11:18:10Z</time>
      </trkpt>
      <trkpt lat="43.52033" lon="6.778">
        <ele>188</ele>
        <time>2011-01-09T11:18:16Z</time>
      </trkpt>
      <trkpt lat="43.52035" lon="6.778">
        <ele>189</ele>
        <time>2011-01-09T11:18:18Z</time>
      </trkpt>
      <trkpt lat="43.52038" lon="6.77799">
        <ele>189</ele>
        <time>2011-01-09T11:18:20Z</time>
      </trkpt>
      <trkpt lat="43.5204" lon="6.77799">
        <ele>189</ele>
        <time>2011-01-09T11:18:21Z</time>
      </trkpt>
      <trkpt lat="43.52044" lon="6.77799">
        <ele>190</ele>
        <time>2011-01-09T11:18:24Z</time>
      </trkpt>
      <trkpt lat="43.5205" lon="6.77799">
        <ele>191</ele>
        <time>2011-01-09T11:18:28Z</time>
      </trkpt>
      <trkpt lat="43.52051" lon="6.77799">
        <ele>191</ele>
        <time>2011-01-09T11:18:29Z</time>
      </trkpt>
      <trkpt lat="43.52056" lon="6.77798">
        <ele>191</ele>
        <time>2011-01-09T11:18:32Z</time>
      </trkpt>
      <trkpt lat="43.52057" lon="6.77798">
        <ele>191</ele>
        <time>2011-01-09T11:18:33Z</time>
      </trkpt>
      <trkpt lat="43.52059" lon="6.77797">
        <ele>192</ele>
        <time>2011-01-09T11:18:35Z</time>
      </trkpt>
      <trkpt lat="43.52061" lon="6.77796">
        <ele>192</ele>
        <time>2011-01-09T11:18:36Z</time>
      </trkpt>
      <trkpt lat="43.52066" lon="6.77797">
        <ele>192</ele>
        <time>2011-01-09T11:18:40Z</time>
      </trkpt>
      <trkpt lat="43.52067" lon="6.77796">
        <ele>192</ele>
        <time>2011-01-09T11:18:41Z</time>
      </trkpt>
      <trkpt lat="43.52073" lon="6.77797">
        <ele>192</ele>
        <time>2011-01-09T11:18:46Z</time>
      </trkpt>
      <trkpt lat="43.52076" lon="6.77796">
        <ele>192</ele>
        <time>2011-01-09T11:18:48Z</time>
      </trkpt>
      <trkpt lat="43.52083" lon="6.77796">
        <ele>192</ele>
        <time>2011-01-09T11:18:53Z</time>
      </trkpt>
      <trkpt lat="43.52087" lon="6.77796">
        <ele>192</ele>
        <time>2011-01-09T11:18:56Z</time>
      </trkpt>
      <trkpt lat="43.52091" lon="6.77796">
        <ele>192</ele>
        <time>2011-01-09T11:18:59Z</time>
      </trkpt>
      <trkpt lat="43.52094" lon="6.77795">
        <ele>193</ele>
        <time>2011-01-09T11:19:02Z</time>
      </trkpt>
      <trkpt lat="43.52096" lon="6.77795">
        <ele>193</ele>
        <time>2011-01-09T11:19:04Z</time>
      </trkpt>
      <trkpt lat="43.52097" lon="6.77796">
        <ele>193</ele>
        <time>2011-01-09T11:19:05Z</time>
      </trkpt>
      <trkpt lat="43.52101" lon="6.77795">
        <ele>194</ele>
        <time>2011-01-09T11:19:10Z</time>
      </trkpt>
      <trkpt lat="43.52105" lon="6.77795">
        <ele>194</ele>
        <time>2011-01-09T11:19:13Z</time>
      </trkpt>
      <trkpt lat="43.52106" lon="6.77795">
        <ele>194</ele>
        <time>2011-01-09T11:19:15Z</time>
      </trkpt>
      <trkpt lat="43.52109" lon="6.77795">
        <ele>194</ele>
        <time>2011-01-09T11:19:17Z</time>
      </trkpt>
      <trkpt lat="43.52112" lon="6.77795">
        <ele>195</ele>
        <time>2011-01-09T11:19:20Z</time>
      </trkpt>
      <trkpt lat="43.52113" lon="6.77795">
        <ele>195</ele>
        <time>2011-01-09T11:19:21Z</time>
      </trkpt>
      <trkpt lat="43.52117" lon="6.77795">
        <ele>195</ele>
        <time>2011-01-09T11:19:24Z</time>
      </trkpt>
      <trkpt lat="43.52121" lon="6.77794">
        <ele>195</ele>
        <time>2011-01-09T11:19:27Z</time>
      </trkpt>
      <trkpt lat="43.52124" lon="6.77793">
        <ele>195</ele>
        <time>2011-01-09T11:19:29Z</time>
      </trkpt>
      <trkpt lat="43.52128" lon="6.77791">
        <ele>196</ele>
        <time>2011-01-09T11:19:32Z</time>
      </trkpt>
      <trkpt lat="43.52131" lon="6.7779">
        <ele>196</ele>
        <time>2011-01-09T11:19:34Z</time>
      </trkpt>
      <trkpt lat="43.52132" lon="6.77789">
        <ele>196</ele>
        <time>2011-01-09T11:19:35Z</time>
      </trkpt>
      <trkpt lat="43.52135" lon="6.77786">
        <ele>197</ele>
        <time>2011-01-09T11:19:37Z</time>
      </trkpt>
      <trkpt lat="43.52137" lon="6.77782">
        <ele>197</ele>
        <time>2011-01-09T11:19:39Z</time>
      </trkpt>
      <trkpt lat="43.52138" lon="6.77781">
        <ele>197</ele>
        <time>2011-01-09T11:19:40Z</time>
      </trkpt>
      <trkpt lat="43.52138" lon="6.77779">
        <ele>197</ele>
        <time>2011-01-09T11:19:41Z</time>
      </trkpt>
      <trkpt lat="43.5214" lon="6.77772">
        <ele>197</ele>
        <time>2011-01-09T11:19:44Z</time>
      </trkpt>
      <trkpt lat="43.52141" lon="6.77769">
        <ele>197</ele>
        <time>2011-01-09T11:19:46Z</time>
      </trkpt>
      <trkpt lat="43.52141" lon="6.77767">
        <ele>197</ele>
        <time>2011-01-09T11:19:47Z</time>
      </trkpt>
      <trkpt lat="43.52142" lon="6.77765">
        <ele>197</ele>
        <time>2011-01-09T11:19:48Z</time>
      </trkpt>
      <trkpt lat="43.52143" lon="6.77761">
        <ele>198</ele>
        <time>2011-01-09T11:19:50Z</time>
      </trkpt>
      <trkpt lat="43.52145" lon="6.77758">
        <ele>198</ele>
        <time>2011-01-09T11:19:52Z</time>
      </trkpt>
      <trkpt lat="43.52148" lon="6.77754">
        <ele>198</ele>
        <time>2011-01-09T11:19:55Z</time>
      </trkpt>
      <trkpt lat="43.5215" lon="6.77753">
        <ele>198</ele>
        <time>2011-01-09T11:19:56Z</time>
      </trkpt>
      <trkpt lat="43.52151" lon="6.77752">
        <ele>198</ele>
        <time>2011-01-09T11:19:57Z</time>
      </trkpt>
      <trkpt lat="43.52153" lon="6.77751">
        <ele>198</ele>
        <time>2011-01-09T11:19:58Z</time>
      </trkpt>
      <trkpt lat="43.52154" lon="6.77752">
        <ele>198</ele>
        <time>2011-01-09T11:19:59Z</time>
      </trkpt>
      <trkpt lat="43.52158" lon="6.77753">
        <ele>198</ele>
        <time>2011-01-09T11:20:01Z</time>
      </trkpt>
      <trkpt lat="43.52159" lon="6.77754">
        <ele>198</ele>
        <time>2011-01-09T11:20:02Z</time>
      </trkpt>
      <trkpt lat="43.52161" lon="6.77755">
        <ele>198</ele>
        <time>2011-01-09T11:20:03Z</time>
      </trkpt>
      <trkpt lat="43.52162" lon="6.77757">
        <ele>198</ele>
        <time>2011-01-09T11:20:04Z</time>
      </trkpt>
      <trkpt lat="43.52166" lon="6.77763">
        <ele>198</ele>
        <time>2011-01-09T11:20:07Z</time>
      </trkpt>
      <trkpt lat="43.52169" lon="6.77767">
        <ele>198</ele>
        <time>2011-01-09T11:20:09Z</time>
      </trkpt>
      <trkpt lat="43.52172" lon="6.77775">
        <ele>198</ele>
        <time>2011-01-09T11:20:12Z</time>
      </trkpt>
      <trkpt lat="43.52174" lon="6.77784">
        <ele>198</ele>
        <time>2011-01-09T11:20:15Z</time>
      </trkpt>
      <trkpt lat="43.52175" lon="6.77787">
        <ele>198</ele>
        <time>2011-01-09T11:20:16Z</time>
      </trkpt>
      <trkpt lat="43.52176" lon="6.7779">
        <ele>198</ele>
        <time>2011-01-09T11:20:17Z</time>
      </trkpt>
      <trkpt lat="43.52176" lon="6.77795">
        <ele>197</ele>
        <time>2011-01-09T11:20:19Z</time>
      </trkpt>
      <trkpt lat="43.52176" lon="6.77797">
        <ele>197</ele>
        <time>2011-01-09T11:20:20Z</time>
      </trkpt>
      <trkpt lat="43.52177" lon="6.77801">
        <ele>197</ele>
        <time>2011-01-09T11:20:22Z</time>
      </trkpt>
      <trkpt lat="43.52178" lon="6.77806">
        <ele>197</ele>
        <time>2011-01-09T11:20:24Z</time>
      </trkpt>
      <trkpt lat="43.52179" lon="6.77811">
        <ele>197</ele>
        <time>2011-01-09T11:20:26Z</time>
      </trkpt>
      <trkpt lat="43.52179" lon="6.77814">
        <ele>197</ele>
        <time>2011-01-09T11:20:27Z</time>
      </trkpt>
      <trkpt lat="43.5218" lon="6.77818">
        <ele>197</ele>
        <time>2011-01-09T11:20:29Z</time>
      </trkpt>
      <trkpt lat="43.52181" lon="6.77821">
        <ele>197</ele>
        <time>2011-01-09T11:20:30Z</time>
      </trkpt>
      <trkpt lat="43.52183" lon="6.77827">
        <ele>196</ele>
        <time>2011-01-09T11:20:33Z</time>
      </trkpt>
      <trkpt lat="43.52183" lon="6.77829">
        <ele>196</ele>
        <time>2011-01-09T11:20:34Z</time>
      </trkpt>
      <trkpt lat="43.52185" lon="6.77837">
        <ele>196</ele>
        <time>2011-01-09T11:20:37Z</time>
      </trkpt>
      <trkpt lat="43.52186" lon="6.7784">
        <ele>196</ele>
        <time>2011-01-09T11:20:38Z</time>
      </trkpt>
      <trkpt lat="43.52187" lon="6.77845">
        <ele>196</ele>
        <time>2011-01-09T11:20:40Z</time>
      </trkpt>
      <trkpt lat="43.52188" lon="6.77852">
        <ele>196</ele>
        <time>2011-01-09T11:20:42Z</time>
      </trkpt>
      <trkpt lat="43.52188" lon="6.77859">
        <ele>196</ele>
        <time>2011-01-09T11:20:44Z</time>
      </trkpt>
      <trkpt lat="43.52188" lon="6.77863">
        <ele>196</ele>
        <time>2011-01-09T11:20:45Z</time>
      </trkpt>
      <trkpt lat="43.52187" lon="6.77884">
        <ele>197</ele>
        <time>2011-01-09T11:20:51Z</time>
      </trkpt>
      <trkpt lat="43.52187" lon="6.77892">
        <ele>197</ele>
        <time>2011-01-09T11:20:53Z</time>
      </trkpt>
      <trkpt lat="43.52186" lon="6.77895">
        <ele>197</ele>
        <time>2011-01-09T11:20:54Z</time>
      </trkpt>
      <trkpt lat="43.52185" lon="6.77906">
        <ele>197</ele>
        <time>2011-01-09T11:20:57Z</time>
      </trkpt>
      <trkpt lat="43.52185" lon="6.7791">
        <ele>197</ele>
        <time>2011-01-09T11:20:58Z</time>
      </trkpt>
      <trkpt lat="43.52185" lon="6.77922">
        <ele>198</ele>
        <time>2011-01-09T11:21:01Z</time>
      </trkpt>
      <trkpt lat="43.52185" lon="6.7793">
        <ele>198</ele>
        <time>2011-01-09T11:21:03Z</time>
      </trkpt>
      <trkpt lat="43.52187" lon="6.77942">
        <ele>198</ele>
        <time>2011-01-09T11:21:06Z</time>
      </trkpt>
      <trkpt lat="43.52188" lon="6.77953">
        <ele>199</ele>
        <time>2011-01-09T11:21:09Z</time>
      </trkpt>
      <trkpt lat="43.52188" lon="6.77957">
        <ele>199</ele>
        <time>2011-01-09T11:21:10Z</time>
      </trkpt>
      <trkpt lat="43.52188" lon="6.7796">
        <ele>199</ele>
        <time>2011-01-09T11:21:11Z</time>
      </trkpt>
      <trkpt lat="43.52188" lon="6.77964">
        <ele>199</ele>
        <time>2011-01-09T11:21:12Z</time>
      </trkpt>
      <trkpt lat="43.52188" lon="6.77972">
        <ele>199</ele>
        <time>2011-01-09T11:21:14Z</time>
      </trkpt>
      <trkpt lat="43.52188" lon="6.7798">
        <ele>200</ele>
        <time>2011-01-09T11:21:16Z</time>
      </trkpt>
      <trkpt lat="43.52188" lon="6.77984">
        <ele>200</ele>
        <time>2011-01-09T11:21:17Z</time>
      </trkpt>
      <trkpt lat="43.52188" lon="6.77988">
        <ele>200</ele>
        <time>2011-01-09T11:21:18Z</time>
      </trkpt>
      <trkpt lat="43.52187" lon="6.77992">
        <ele>200</ele>
        <time>2011-01-09T11:21:19Z</time>
      </trkpt>
      <trkpt lat="43.5218" lon="6.78032">
        <ele>200</ele>
        <time>2011-01-09T11:21:29Z</time>
      </trkpt>
      <trkpt lat="43.5218" lon="6.78037">
        <ele>200</ele>
        <time>2011-01-09T11:21:30Z</time>
      </trkpt>
      <trkpt lat="43.5218" lon="6.78049">
        <ele>200</ele>
        <time>2011-01-09T11:21:33Z</time>
      </trkpt>
      <trkpt lat="43.5218" lon="6.78053">
        <ele>200</ele>
        <time>2011-01-09T11:21:34Z</time>
      </trkpt>
      <trkpt lat="43.5218" lon="6.78057">
        <ele>200</ele>
        <time>2011-01-09T11:21:35Z</time>
      </trkpt>
      <trkpt lat="43.5218" lon="6.78065">
        <ele>200</ele>
        <time>2011-01-09T11:21:37Z</time>
      </trkpt>
      <trkpt lat="43.52182" lon="6.78072">
        <ele>200</ele>
        <time>2011-01-09T11:21:39Z</time>
      </trkpt>
      <trkpt lat="43.52185" lon="6.78083">
        <ele>200</ele>
        <time>2011-01-09T11:21:42Z</time>
      </trkpt>
      <trkpt lat="43.52186" lon="6.78087">
        <ele>200</ele>
        <time>2011-01-09T11:21:43Z</time>
      </trkpt>
      <trkpt lat="43.52191" lon="6.78097">
        <ele>200</ele>
        <time>2011-01-09T11:21:46Z</time>
      </trkpt>
      <trkpt lat="43.52192" lon="6.781">
        <ele>200</ele>
        <time>2011-01-09T11:21:47Z</time>
      </trkpt>
      <trkpt lat="43.52198" lon="6.78109">
        <ele>200</ele>
        <time>2011-01-09T11:21:50Z</time>
      </trkpt>
      <trkpt lat="43.52199" lon="6.78112">
        <ele>200</ele>
        <time>2011-01-09T11:21:51Z</time>
      </trkpt>
      <trkpt lat="43.52203" lon="6.78117">
        <ele>199</ele>
        <time>2011-01-09T11:21:53Z</time>
      </trkpt>
      <trkpt lat="43.52204" lon="6.7812">
        <ele>199</ele>
        <time>2011-01-09T11:21:54Z</time>
      </trkpt>
      <trkpt lat="43.52206" lon="6.78122">
        <ele>199</ele>
        <time>2011-01-09T11:21:55Z</time>
      </trkpt>
      <trkpt lat="43.52208" lon="6.78124">
        <ele>199</ele>
        <time>2011-01-09T11:21:56Z</time>
      </trkpt>
      <trkpt lat="43.52213" lon="6.78132">
        <ele>198</ele>
        <time>2011-01-09T11:21:59Z</time>
      </trkpt>
      <trkpt lat="43.52218" lon="6.78138">
        <ele>198</ele>
        <time>2011-01-09T11:22:02Z</time>
      </trkpt>
      <trkpt lat="43.52223" lon="6.78142">
        <ele>198</ele>
        <time>2011-01-09T11:22:04Z</time>
      </trkpt>
      <trkpt lat="43.52227" lon="6.78145">
        <ele>198</ele>
        <time>2011-01-09T11:22:06Z</time>
      </trkpt>
      <trkpt lat="43.5223" lon="6.78149">
        <ele>197</ele>
        <time>2011-01-09T11:22:08Z</time>
      </trkpt>
      <trkpt lat="43.5224" lon="6.78156">
        <ele>198</ele>
        <time>2011-01-09T11:22:13Z</time>
      </trkpt>
      <trkpt lat="43.52241" lon="6.78157">
        <ele>198</ele>
        <time>2011-01-09T11:22:14Z</time>
      </trkpt>
      <trkpt lat="43.52243" lon="6.78159">
        <ele>198</ele>
        <time>2011-01-09T11:22:15Z</time>
      </trkpt>
      <trkpt lat="43.52246" lon="6.7816">
        <ele>197</ele>
        <time>2011-01-09T11:22:17Z</time>
      </trkpt>
      <trkpt lat="43.52247" lon="6.7816">
        <ele>197</ele>
        <time>2011-01-09T11:22:18Z</time>
      </trkpt>
      <trkpt lat="43.52248" lon="6.7816">
        <ele>197</ele>
        <time>2011-01-09T11:22:19Z</time>
      </trkpt>
      <trkpt lat="43.5225" lon="6.7816">
        <ele>197</ele>
        <time>2011-01-09T11:22:20Z</time>
      </trkpt>
      <trkpt lat="43.52253" lon="6.78156">
        <ele>197</ele>
        <time>2011-01-09T11:22:22Z</time>
      </trkpt>
      <trkpt lat="43.52256" lon="6.78155">
        <ele>197</ele>
        <time>2011-01-09T11:22:23Z</time>
      </trkpt>
      <trkpt lat="43.52258" lon="6.78153">
        <ele>196</ele>
        <time>2011-01-09T11:22:24Z</time>
      </trkpt>
      <trkpt lat="43.52263" lon="6.78147">
        <ele>196</ele>
        <time>2011-01-09T11:22:26Z</time>
      </trkpt>
      <trkpt lat="43.52269" lon="6.78141">
        <ele>196</ele>
        <time>2011-01-09T11:22:28Z</time>
      </trkpt>
      <trkpt lat="43.52272" lon="6.78138">
        <ele>196</ele>
        <time>2011-01-09T11:22:29Z</time>
      </trkpt>
      <trkpt lat="43.52275" lon="6.78136">
        <ele>196</ele>
        <time>2011-01-09T11:22:30Z</time>
      </trkpt>
      <trkpt lat="43.52279" lon="6.78135">
        <ele>196</ele>
        <time>2011-01-09T11:22:31Z</time>
      </trkpt>
      <trkpt lat="43.52283" lon="6.78135">
        <ele>195</ele>
        <time>2011-01-09T11:22:32Z</time>
      </trkpt>
      <trkpt lat="43.52286" lon="6.78137">
        <ele>195</ele>
        <time>2011-01-09T11:22:33Z</time>
      </trkpt>
      <trkpt lat="43.5229" lon="6.78139">
        <ele>195</ele>
        <time>2011-01-09T11:22:34Z</time>
      </trkpt>
      <trkpt lat="43.52292" lon="6.78143">
        <ele>195</ele>
        <time>2011-01-09T11:22:35Z</time>
      </trkpt>
      <trkpt lat="43.52293" lon="6.78148">
        <ele>195</ele>
        <time>2011-01-09T11:22:36Z</time>
      </trkpt>
      <trkpt lat="43.52295" lon="6.78153">
        <ele>195</ele>
        <time>2011-01-09T11:22:37Z</time>
      </trkpt>
      <trkpt lat="43.52295" lon="6.78158">
        <ele>195</ele>
        <time>2011-01-09T11:22:38Z</time>
      </trkpt>
      <trkpt lat="43.52295" lon="6.78163">
        <ele>194</ele>
        <time>2011-01-09T11:22:39Z</time>
      </trkpt>
      <trkpt lat="43.52293" lon="6.78173">
        <ele>194</ele>
        <time>2011-01-09T11:22:41Z</time>
      </trkpt>
      <trkpt lat="43.52293" lon="6.78177">
        <ele>194</ele>
        <time>2011-01-09T11:22:42Z</time>
      </trkpt>
      <trkpt lat="43.52291" lon="6.78182">
        <ele>194</ele>
        <time>2011-01-09T11:22:43Z</time>
      </trkpt>
      <trkpt lat="43.52288" lon="6.78186">
        <ele>194</ele>
        <time>2011-01-09T11:22:44Z</time>
      </trkpt>
      <trkpt lat="43.52283" lon="6.78195">
        <ele>193</ele>
        <time>2011-01-09T11:22:46Z</time>
      </trkpt>
      <trkpt lat="43.5228" lon="6.78199">
        <ele>192</ele>
        <time>2011-01-09T11:22:47Z</time>
      </trkpt>
      <trkpt lat="43.52279" lon="6.78204">
        <ele>192</ele>
        <time>2011-01-09T11:22:48Z</time>
      </trkpt>
      <trkpt lat="43.52277" lon="6.78209">
        <ele>191</ele>
        <time>2011-01-09T11:22:49Z</time>
      </trkpt>
      <trkpt lat="43.52277" lon="6.78215">
        <ele>191</ele>
        <time>2011-01-09T11:22:50Z</time>
      </trkpt>
      <trkpt lat="43.52279" lon="6.78219">
        <ele>190</ele>
        <time>2011-01-09T11:22:51Z</time>
      </trkpt>
      <trkpt lat="43.52281" lon="6.78222">
        <ele>189</ele>
        <time>2011-01-09T11:22:52Z</time>
      </trkpt>
      <trkpt lat="43.52284" lon="6.78224">
        <ele>189</ele>
        <time>2011-01-09T11:22:53Z</time>
      </trkpt>
      <trkpt lat="43.52288" lon="6.78226">
        <ele>188</ele>
        <time>2011-01-09T11:22:54Z</time>
      </trkpt>
      <trkpt lat="43.52293" lon="6.78226">
        <ele>188</ele>
        <time>2011-01-09T11:22:55Z</time>
      </trkpt>
      <trkpt lat="43.52298" lon="6.78226">
        <ele>187</ele>
        <time>2011-01-09T11:22:56Z</time>
      </trkpt>
      <trkpt lat="43.5236" lon="6.78201">
        <ele>183</ele>
        <time>2011-01-09T11:23:06Z</time>
      </trkpt>
      <trkpt lat="43.52411" lon="6.78183">
        <ele>181</ele>
        <time>2011-01-09T11:23:16Z</time>
      </trkpt>
      <trkpt lat="43.52417" lon="6.7818">
        <ele>182</ele>
        <time>2011-01-09T11:23:18Z</time>
      </trkpt>
      <trkpt lat="43.52419" lon="6.78179">
        <ele>182</ele>
        <time>2011-01-09T11:23:19Z</time>
      </trkpt>
      <trkpt lat="43.52425" lon="6.78178">
        <ele>183</ele>
        <time>2011-01-09T11:23:21Z</time>
      </trkpt>
      <trkpt lat="43.52435" lon="6.78178">
        <ele>184</ele>
        <time>2011-01-09T11:23:25Z</time>
      </trkpt>
      <trkpt lat="43.5244" lon="6.78178">
        <ele>184</ele>
        <time>2011-01-09T11:23:27Z</time>
      </trkpt>
      <trkpt lat="43.52457" lon="6.78177">
        <ele>185</ele>
        <time>2011-01-09T11:23:33Z</time>
      </trkpt>
      <trkpt lat="43.52462" lon="6.78177">
        <ele>185</ele>
        <time>2011-01-09T11:23:35Z</time>
      </trkpt>
      <trkpt lat="43.52468" lon="6.78178">
        <ele>185</ele>
        <time>2011-01-09T11:23:37Z</time>
      </trkpt>
      <trkpt lat="43.52471" lon="6.78178">
        <ele>185</ele>
        <time>2011-01-09T11:23:38Z</time>
      </trkpt>
      <trkpt lat="43.52478" lon="6.78182">
        <ele>185</ele>
        <time>2011-01-09T11:23:41Z</time>
      </trkpt>
      <trkpt lat="43.5248" lon="6.78183">
        <ele>186</ele>
        <time>2011-01-09T11:23:42Z</time>
      </trkpt>
      <trkpt lat="43.52483" lon="6.78183">
        <ele>186</ele>
        <time>2011-01-09T11:23:43Z</time>
      </trkpt>
      <trkpt lat="43.52488" lon="6.78185">
        <ele>186</ele>
        <time>2011-01-09T11:23:45Z</time>
      </trkpt>
      <trkpt lat="43.5249" lon="6.78187">
        <ele>186</ele>
        <time>2011-01-09T11:23:46Z</time>
      </trkpt>
      <trkpt lat="43.52493" lon="6.78188">
        <ele>186</ele>
        <time>2011-01-09T11:23:47Z</time>
      </trkpt>
      <trkpt lat="43.52495" lon="6.78189">
        <ele>186</ele>
        <time>2011-01-09T11:23:48Z</time>
      </trkpt>
      <trkpt lat="43.52499" lon="6.78192">
        <ele>186</ele>
        <time>2011-01-09T11:23:50Z</time>
      </trkpt>
      <trkpt lat="43.52504" lon="6.78197">
        <ele>186</ele>
        <time>2011-01-09T11:23:53Z</time>
      </trkpt>
      <trkpt lat="43.52505" lon="6.78198">
        <ele>186</ele>
        <time>2011-01-09T11:23:54Z</time>
      </trkpt>
      <trkpt lat="43.52507" lon="6.78201">
        <ele>186</ele>
        <time>2011-01-09T11:23:55Z</time>
      </trkpt>
      <trkpt lat="43.52511" lon="6.7821">
        <ele>187</ele>
        <time>2011-01-09T11:23:59Z</time>
      </trkpt>
      <trkpt lat="43.52512" lon="6.78213">
        <ele>187</ele>
        <time>2011-01-09T11:24:00Z</time>
      </trkpt>
      <trkpt lat="43.52515" lon="6.7822">
        <ele>188</ele>
        <time>2011-01-09T11:24:03Z</time>
      </trkpt>
      <trkpt lat="43.52516" lon="6.78225">
        <ele>188</ele>
        <time>2011-01-09T11:24:05Z</time>
      </trkpt>
      <trkpt lat="43.52517" lon="6.78227">
        <ele>189</ele>
        <time>2011-01-09T11:24:06Z</time>
      </trkpt>
      <trkpt lat="43.52517" lon="6.78229">
        <ele>189</ele>
        <time>2011-01-09T11:24:07Z</time>
      </trkpt>
      <trkpt lat="43.52518" lon="6.78232">
        <ele>189</ele>
        <time>2011-01-09T11:24:08Z</time>
      </trkpt>
      <trkpt lat="43.5252" lon="6.78236">
        <ele>189</ele>
        <time>2011-01-09T11:24:10Z</time>
      </trkpt>
      <trkpt lat="43.52522" lon="6.78243">
        <ele>190</ele>
        <time>2011-01-09T11:24:13Z</time>
      </trkpt>
      <trkpt lat="43.52523" lon="6.78247">
        <ele>190</ele>
        <time>2011-01-09T11:24:15Z</time>
      </trkpt>
      <trkpt lat="43.52524" lon="6.78249">
        <ele>190</ele>
        <time>2011-01-09T11:24:16Z</time>
      </trkpt>
      <trkpt lat="43.52529" lon="6.78254">
        <ele>191</ele>
        <time>2011-01-09T11:24:20Z</time>
      </trkpt>
      <trkpt lat="43.52531" lon="6.78254">
        <ele>191</ele>
        <time>2011-01-09T11:24:21Z</time>
      </trkpt>
      <trkpt lat="43.52536" lon="6.78255">
        <ele>191</ele>
        <time>2011-01-09T11:24:25Z</time>
      </trkpt>
      <trkpt lat="43.52539" lon="6.78254">
        <ele>191</ele>
        <time>2011-01-09T11:24:28Z</time>
      </trkpt>
      <trkpt lat="43.5254" lon="6.78255">
        <ele>191</ele>
        <time>2011-01-09T11:24:29Z</time>
      </trkpt>
      <trkpt lat="43.52541" lon="6.78255">
        <ele>191</ele>
        <time>2011-01-09T11:24:30Z</time>
      </trkpt>
      <trkpt lat="43.52541" lon="6.78254">
        <ele>191</ele>
        <time>2011-01-09T11:24:50Z</time>
      </trkpt>
      <trkpt lat="43.52542" lon="6.78255">
        <ele>191</ele>
        <time>2011-01-09T11:24:51Z</time>
      </trkpt>
      <trkpt lat="43.52543" lon="6.78255">
        <ele>191</ele>
        <time>2011-01-09T11:24:52Z</time>
      </trkpt>
      <trkpt lat="43.52544" lon="6.78255">
        <ele>191</ele>
        <time>2011-01-09T11:24:53Z</time>
      </trkpt>
      <trkpt lat="43.52546" lon="6.78254">
        <ele>191</ele>
        <time>2011-01-09T11:24:54Z</time>
      </trkpt>
      <trkpt lat="43.52547" lon="6.78254">
        <ele>191</ele>
        <time>2011-01-09T11:24:55Z</time>
      </trkpt>
      <trkpt lat="43.52548" lon="6.78253">
        <ele>191</ele>
        <time>2011-01-09T11:24:56Z</time>
      </trkpt>
      <trkpt lat="43.52549" lon="6.78252">
        <ele>191</ele>
        <time>2011-01-09T11:24:57Z</time>
      </trkpt>
      <trkpt lat="43.52551" lon="6.78251">
        <ele>191</ele>
        <time>2011-01-09T11:24:59Z</time>
      </trkpt>
      <trkpt lat="43.52553" lon="6.7825">
        <ele>191</ele>
        <time>2011-01-09T11:25:01Z</time>
      </trkpt>
      <trkpt lat="43.52556" lon="6.78247">
        <ele>191</ele>
        <time>2011-01-09T11:25:03Z</time>
      </trkpt>
      <trkpt lat="43.52559" lon="6.78246">
        <ele>190</ele>
        <time>2011-01-09T11:25:04Z</time>
      </trkpt>
      <trkpt lat="43.52561" lon="6.78244">
        <ele>190</ele>
        <time>2011-01-09T11:25:05Z</time>
      </trkpt>
      <trkpt lat="43.52564" lon="6.78244">
        <ele>189</ele>
        <time>2011-01-09T11:25:06Z</time>
      </trkpt>
      <trkpt lat="43.52572" lon="6.78244">
        <ele>188</ele>
        <time>2011-01-09T11:25:08Z</time>
      </trkpt>
      <trkpt lat="43.52576" lon="6.78244">
        <ele>188</ele>
        <time>2011-01-09T11:25:09Z</time>
      </trkpt>
      <trkpt lat="43.52581" lon="6.78246">
        <ele>187</ele>
        <time>2011-01-09T11:25:10Z</time>
      </trkpt>
      <trkpt lat="43.52585" lon="6.78247">
        <ele>187</ele>
        <time>2011-01-09T11:25:11Z</time>
      </trkpt>
      <trkpt lat="43.52589" lon="6.78249">
        <ele>186</ele>
        <time>2011-01-09T11:25:12Z</time>
      </trkpt>
      <trkpt lat="43.52593" lon="6.78252">
        <ele>186</ele>
        <time>2011-01-09T11:25:13Z</time>
      </trkpt>
      <trkpt lat="43.52596" lon="6.78254">
        <ele>185</ele>
        <time>2011-01-09T11:25:14Z</time>
      </trkpt>
      <trkpt lat="43.52599" lon="6.78257">
        <ele>184</ele>
        <time>2011-01-09T11:25:15Z</time>
      </trkpt>
      <trkpt lat="43.52606" lon="6.78265">
        <ele>183</ele>
        <time>2011-01-09T11:25:17Z</time>
      </trkpt>
      <trkpt lat="43.52621" lon="6.78279">
        <ele>181</ele>
        <time>2011-01-09T11:25:21Z</time>
      </trkpt>
      <trkpt lat="43.52625" lon="6.78282">
        <ele>180</ele>
        <time>2011-01-09T11:25:22Z</time>
      </trkpt>
      <trkpt lat="43.52632" lon="6.78286">
        <ele>180</ele>
        <time>2011-01-09T11:25:24Z</time>
      </trkpt>
      <trkpt lat="43.5264" lon="6.78292">
        <ele>180</ele>
        <time>2011-01-09T11:25:29Z</time>
      </trkpt>
      <trkpt lat="43.52645" lon="6.78297">
        <ele>180</ele>
        <time>2011-01-09T11:25:32Z</time>
      </trkpt>
      <trkpt lat="43.5265" lon="6.78303">
        <ele>179</ele>
        <time>2011-01-09T11:25:35Z</time>
      </trkpt>
      <trkpt lat="43.52653" lon="6.78308">
        <ele>179</ele>
        <time>2011-01-09T11:25:37Z</time>
      </trkpt>
      <trkpt lat="43.52658" lon="6.78316">
        <ele>178</ele>
        <time>2011-01-09T11:25:40Z</time>
      </trkpt>
      <trkpt lat="43.52661" lon="6.78321">
        <ele>177</ele>
        <time>2011-01-09T11:25:42Z</time>
      </trkpt>
      <trkpt lat="43.52665" lon="6.78326">
        <ele>177</ele>
        <time>2011-01-09T11:25:44Z</time>
      </trkpt>
      <trkpt lat="43.52669" lon="6.78332">
        <ele>177</ele>
        <time>2011-01-09T11:25:46Z</time>
      </trkpt>
      <trkpt lat="43.52674" lon="6.7834">
        <ele>175</ele>
        <time>2011-01-09T11:25:48Z</time>
      </trkpt>
      <trkpt lat="43.52676" lon="6.78344">
        <ele>174</ele>
        <time>2011-01-09T11:25:49Z</time>
      </trkpt>
      <trkpt lat="43.52681" lon="6.78352">
        <ele>173</ele>
        <time>2011-01-09T11:25:51Z</time>
      </trkpt>
      <trkpt lat="43.52684" lon="6.78356">
        <ele>173</ele>
        <time>2011-01-09T11:25:52Z</time>
      </trkpt>
      <trkpt lat="43.52688" lon="6.78362">
        <ele>172</ele>
        <time>2011-01-09T11:25:54Z</time>
      </trkpt>
      <trkpt lat="43.52691" lon="6.78365">
        <ele>172</ele>
        <time>2011-01-09T11:25:55Z</time>
      </trkpt>
      <trkpt lat="43.527" lon="6.78371">
        <ele>171</ele>
        <time>2011-01-09T11:25:58Z</time>
      </trkpt>
      <trkpt lat="43.52703" lon="6.78374">
        <ele>170</ele>
        <time>2011-01-09T11:25:59Z</time>
      </trkpt>
      <trkpt lat="43.52711" lon="6.78379">
        <ele>169</ele>
        <time>2011-01-09T11:26:01Z</time>
      </trkpt>
      <trkpt lat="43.52719" lon="6.78383">
        <ele>169</ele>
        <time>2011-01-09T11:26:03Z</time>
      </trkpt>
      <trkpt lat="43.52723" lon="6.78384">
        <ele>168</ele>
        <time>2011-01-09T11:26:04Z</time>
      </trkpt>
      <trkpt lat="43.52728" lon="6.78384">
        <ele>168</ele>
        <time>2011-01-09T11:26:05Z</time>
      </trkpt>
      <trkpt lat="43.52733" lon="6.78384">
        <ele>167</ele>
        <time>2011-01-09T11:26:06Z</time>
      </trkpt>
      <trkpt lat="43.52738" lon="6.78383">
        <ele>167</ele>
        <time>2011-01-09T11:26:07Z</time>
      </trkpt>
      <trkpt lat="43.52743" lon="6.78381">
        <ele>166</ele>
        <time>2011-01-09T11:26:08Z</time>
      </trkpt>
      <trkpt lat="43.52779" lon="6.7831">
        <ele>162</ele>
        <time>2011-01-09T11:26:19Z</time>
      </trkpt>
      <trkpt lat="43.52786" lon="6.78297">
        <ele>160</ele>
        <time>2011-01-09T11:26:22Z</time>
      </trkpt>
      <trkpt lat="43.52788" lon="6.78294">
        <ele>160</ele>
        <time>2011-01-09T11:26:23Z</time>
      </trkpt>
      <trkpt lat="43.5279" lon="6.78291">
        <ele>160</ele>
        <time>2011-01-09T11:26:24Z</time>
      </trkpt>
      <trkpt lat="43.52792" lon="6.78289">
        <ele>159</ele>
        <time>2011-01-09T11:26:25Z</time>
      </trkpt>
      <trkpt lat="43.52794" lon="6.78287">
        <ele>159</ele>
        <time>2011-01-09T11:26:26Z</time>
      </trkpt>
      <trkpt lat="43.52796" lon="6.78287">
        <ele>159</ele>
        <time>2011-01-09T11:26:27Z</time>
      </trkpt>
      <trkpt lat="43.52798" lon="6.78287">
        <ele>159</ele>
        <time>2011-01-09T11:26:28Z</time>
      </trkpt>
      <trkpt lat="43.528" lon="6.78289">
        <ele>158</ele>
        <time>2011-01-09T11:26:29Z</time>
      </trkpt>
      <trkpt lat="43.52801" lon="6.7829">
        <ele>158</ele>
        <time>2011-01-09T11:26:30Z</time>
      </trkpt>
      <trkpt lat="43.52801" lon="6.78292">
        <ele>158</ele>
        <time>2011-01-09T11:26:31Z</time>
      </trkpt>
      <trkpt lat="43.52802" lon="6.78294">
        <ele>158</ele>
        <time>2011-01-09T11:26:32Z</time>
      </trkpt>
      <trkpt lat="43.52802" lon="6.78296">
        <ele>158</ele>
        <time>2011-01-09T11:26:33Z</time>
      </trkpt>
      <trkpt lat="43.52801" lon="6.78301">
        <ele>158</ele>
        <time>2011-01-09T11:26:35Z</time>
      </trkpt>
      <trkpt lat="43.52799" lon="6.78308">
        <ele>157</ele>
        <time>2011-01-09T11:26:37Z</time>
      </trkpt>
      <trkpt lat="43.52795" lon="6.78323">
        <ele>156</ele>
        <time>2011-01-09T11:26:40Z</time>
      </trkpt>
      <trkpt lat="43.52792" lon="6.78335">
        <ele>155</ele>
        <time>2011-01-09T11:26:42Z</time>
      </trkpt>
      <trkpt lat="43.52791" lon="6.78342">
        <ele>155</ele>
        <time>2011-01-09T11:26:43Z</time>
      </trkpt>
      <trkpt lat="43.5279" lon="6.78349">
        <ele>155</ele>
        <time>2011-01-09T11:26:44Z</time>
      </trkpt>
      <trkpt lat="43.52789" lon="6.78356">
        <ele>154</ele>
        <time>2011-01-09T11:26:45Z</time>
      </trkpt>
      <trkpt lat="43.52789" lon="6.78363">
        <ele>154</ele>
        <time>2011-01-09T11:26:46Z</time>
      </trkpt>
      <trkpt lat="43.52773" lon="6.78436">
        <ele>151</ele>
        <time>2011-01-09T11:26:56Z</time>
      </trkpt>
      <trkpt lat="43.52773" lon="6.78441">
        <ele>150</ele>
        <time>2011-01-09T11:26:57Z</time>
      </trkpt>
      <trkpt lat="43.52774" lon="6.78447">
        <ele>150</ele>
        <time>2011-01-09T11:26:58Z</time>
      </trkpt>
      <trkpt lat="43.52776" lon="6.78453">
        <ele>150</ele>
        <time>2011-01-09T11:26:59Z</time>
      </trkpt>
      <trkpt lat="43.52778" lon="6.78459">
        <ele>149</ele>
        <time>2011-01-09T11:27:00Z</time>
      </trkpt>
      <trkpt lat="43.52781" lon="6.78466">
        <ele>148</ele>
        <time>2011-01-09T11:27:01Z</time>
      </trkpt>
      <trkpt lat="43.52809" lon="6.78539">
        <ele>143</ele>
        <time>2011-01-09T11:27:11Z</time>
      </trkpt>
      <trkpt lat="43.5284" lon="6.78537">
        <ele>143</ele>
        <time>2011-01-09T11:27:21Z</time>
      </trkpt>
      <trkpt lat="43.5284" lon="6.78535">
        <ele>143</ele>
        <time>2011-01-09T11:27:22Z</time>
      </trkpt>
      <trkpt lat="43.5284" lon="6.78532">
        <ele>143</ele>
        <time>2011-01-09T11:27:23Z</time>
      </trkpt>
      <trkpt lat="43.5284" lon="6.7853">
        <ele>143</ele>
        <time>2011-01-09T11:27:24Z</time>
      </trkpt>
      <trkpt lat="43.5284" lon="6.78528">
        <ele>143</ele>
        <time>2011-01-09T11:27:25Z</time>
      </trkpt>
      <trkpt lat="43.52839" lon="6.78525">
        <ele>143</ele>
        <time>2011-01-09T11:27:26Z</time>
      </trkpt>
      <trkpt lat="43.52838" lon="6.78521">
        <ele>143</ele>
        <time>2011-01-09T11:27:28Z</time>
      </trkpt>
      <trkpt lat="43.52837" lon="6.78519">
        <ele>143</ele>
        <time>2011-01-09T11:27:29Z</time>
      </trkpt>
      <trkpt lat="43.52836" lon="6.78516">
        <ele>143</ele>
        <time>2011-01-09T11:27:30Z</time>
      </trkpt>
      <trkpt lat="43.52835" lon="6.78514">
        <ele>143</ele>
        <time>2011-01-09T11:27:31Z</time>
      </trkpt>
      <trkpt lat="43.52834" lon="6.7851">
        <ele>143</ele>
        <time>2011-01-09T11:27:33Z</time>
      </trkpt>
      <trkpt lat="43.52834" lon="6.78505">
        <ele>143</ele>
        <time>2011-01-09T11:27:35Z</time>
      </trkpt>
      <trkpt lat="43.52834" lon="6.785">
        <ele>143</ele>
        <time>2011-01-09T11:27:37Z</time>
      </trkpt>
      <trkpt lat="43.52833" lon="6.78498">
        <ele>143</ele>
        <time>2011-01-09T11:27:38Z</time>
      </trkpt>
      <trkpt lat="43.52833" lon="6.78496">
        <ele>143</ele>
        <time>2011-01-09T11:27:39Z</time>
      </trkpt>
      <trkpt lat="43.52832" lon="6.7848">
        <ele>143</ele>
        <time>2011-01-09T11:27:45Z</time>
      </trkpt>
      <trkpt lat="43.52832" lon="6.78477">
        <ele>143</ele>
        <time>2011-01-09T11:27:46Z</time>
      </trkpt>
      <trkpt lat="43.52832" lon="6.78471">
        <ele>143</ele>
        <time>2011-01-09T11:27:48Z</time>
      </trkpt>
      <trkpt lat="43.52832" lon="6.78466">
        <ele>143</ele>
        <time>2011-01-09T11:27:50Z</time>
      </trkpt>
      <trkpt lat="43.52833" lon="6.78463">
        <ele>143</ele>
        <time>2011-01-09T11:27:51Z</time>
      </trkpt>
      <trkpt lat="43.52834" lon="6.78456">
        <ele>142</ele>
        <time>2011-01-09T11:27:53Z</time>
      </trkpt>
      <trkpt lat="43.52835" lon="6.78449">
        <ele>142</ele>
        <time>2011-01-09T11:27:55Z</time>
      </trkpt>
      <trkpt lat="43.52836" lon="6.78442">
        <ele>142</ele>
        <time>2011-01-09T11:27:57Z</time>
      </trkpt>
      <trkpt lat="43.52839" lon="6.78436">
        <ele>142</ele>
        <time>2011-01-09T11:27:59Z</time>
      </trkpt>
      <trkpt lat="43.5284" lon="6.78433">
        <ele>142</ele>
        <time>2011-01-09T11:28:00Z</time>
      </trkpt>
      <trkpt lat="43.52842" lon="6.7843">
        <ele>142</ele>
        <time>2011-01-09T11:28:01Z</time>
      </trkpt>
      <trkpt lat="43.52844" lon="6.78423">
        <ele>142</ele>
        <time>2011-01-09T11:28:03Z</time>
      </trkpt>
      <trkpt lat="43.52845" lon="6.78419">
        <ele>142</ele>
        <time>2011-01-09T11:28:04Z</time>
      </trkpt>
      <trkpt lat="43.52846" lon="6.78416">
        <ele>142</ele>
        <time>2011-01-09T11:28:05Z</time>
      </trkpt>
      <trkpt lat="43.52847" lon="6.78412">
        <ele>142</ele>
        <time>2011-01-09T11:28:06Z</time>
      </trkpt>
      <trkpt lat="43.52848" lon="6.78409">
        <ele>142</ele>
        <time>2011-01-09T11:28:07Z</time>
      </trkpt>
      <trkpt lat="43.52849" lon="6.78406">
        <ele>142</ele>
        <time>2011-01-09T11:28:08Z</time>
      </trkpt>
      <trkpt lat="43.5285" lon="6.78404">
        <ele>142</ele>
        <time>2011-01-09T11:28:09Z</time>
      </trkpt>
      <trkpt lat="43.52852" lon="6.78401">
        <ele>142</ele>
        <time>2011-01-09T11:28:10Z</time>
      </trkpt>
      <trkpt lat="43.52854" lon="6.784">
        <ele>142</ele>
        <time>2011-01-09T11:28:11Z</time>
      </trkpt>
      <trkpt lat="43.52856" lon="6.784">
        <ele>143</ele>
        <time>2011-01-09T11:28:12Z</time>
      </trkpt>
      <trkpt lat="43.52858" lon="6.784">
        <ele>143</ele>
        <time>2011-01-09T11:28:13Z</time>
      </trkpt>
      <trkpt lat="43.52859" lon="6.78401">
        <ele>143</ele>
        <time>2011-01-09T11:28:14Z</time>
      </trkpt>
      <trkpt lat="43.5286" lon="6.78403">
        <ele>143</ele>
        <time>2011-01-09T11:28:15Z</time>
      </trkpt>
      <trkpt lat="43.5286" lon="6.78405">
        <ele>144</ele>
        <time>2011-01-09T11:28:16Z</time>
      </trkpt>
      <trkpt lat="43.5286" lon="6.78408">
        <ele>144</ele>
        <time>2011-01-09T11:28:17Z</time>
      </trkpt>
      <trkpt lat="43.52859" lon="6.78411">
        <ele>144</ele>
        <time>2011-01-09T11:28:18Z</time>
      </trkpt>
      <trkpt lat="43.52857" lon="6.78415">
        <ele>145</ele>
        <time>2011-01-09T11:28:20Z</time>
      </trkpt>
      <trkpt lat="43.52855" lon="6.78422">
        <ele>146</ele>
        <time>2011-01-09T11:28:23Z</time>
      </trkpt>
      <trkpt lat="43.52854" lon="6.78426">
        <ele>146</ele>
        <time>2011-01-09T11:28:25Z</time>
      </trkpt>
      <trkpt lat="43.52854" lon="6.78428">
        <ele>146</ele>
        <time>2011-01-09T11:28:26Z</time>
      </trkpt>
      <trkpt lat="43.52853" lon="6.7843">
        <ele>146</ele>
        <time>2011-01-09T11:28:27Z</time>
      </trkpt>
      <trkpt lat="43.52853" lon="6.78433">
        <ele>147</ele>
        <time>2011-01-09T11:28:28Z</time>
      </trkpt>
      <trkpt lat="43.52853" lon="6.78437">
        <ele>147</ele>
        <time>2011-01-09T11:28:30Z</time>
      </trkpt>
      <trkpt lat="43.52852" lon="6.78443">
        <ele>147</ele>
        <time>2011-01-09T11:28:33Z</time>
      </trkpt>
      <trkpt lat="43.52852" lon="6.78448">
        <ele>147</ele>
        <time>2011-01-09T11:28:35Z</time>
      </trkpt>
      <trkpt lat="43.52851" lon="6.78452">
        <ele>148</ele>
        <time>2011-01-09T11:28:37Z</time>
      </trkpt>
      <trkpt lat="43.52851" lon="6.7846">
        <ele>148</ele>
        <time>2011-01-09T11:28:41Z</time>
      </trkpt>
      <trkpt lat="43.52851" lon="6.78463">
        <ele>148</ele>
        <time>2011-01-09T11:28:42Z</time>
      </trkpt>
      <trkpt lat="43.52851" lon="6.78467">
        <ele>148</ele>
        <time>2011-01-09T11:28:44Z</time>
      </trkpt>
      <trkpt lat="43.52851" lon="6.78473">
        <ele>148</ele>
        <time>2011-01-09T11:28:47Z</time>
      </trkpt>
      <trkpt lat="43.52852" lon="6.78475">
        <ele>149</ele>
        <time>2011-01-09T11:28:48Z</time>
      </trkpt>
      <trkpt lat="43.52853" lon="6.78482">
        <ele>149</ele>
        <time>2011-01-09T11:28:51Z</time>
      </trkpt>
      <trkpt lat="43.52854" lon="6.78486">
        <ele>149</ele>
        <time>2011-01-09T11:28:53Z</time>
      </trkpt>
      <trkpt lat="43.52856" lon="6.78494">
        <ele>150</ele>
        <time>2011-01-09T11:28:57Z</time>
      </trkpt>
      <trkpt lat="43.52859" lon="6.78499">
        <ele>150</ele>
        <time>2011-01-09T11:29:00Z</time>
      </trkpt>
      <trkpt lat="43.52863" lon="6.78506">
        <ele>151</ele>
        <time>2011-01-09T11:29:05Z</time>
      </trkpt>
      <trkpt lat="43.52864" lon="6.78508">
        <ele>151</ele>
        <time>2011-01-09T11:29:06Z</time>
      </trkpt>
      <trkpt lat="43.52866" lon="6.78511">
        <ele>151</ele>
        <time>2011-01-09T11:29:08Z</time>
      </trkpt>
      <trkpt lat="43.52869" lon="6.78514">
        <ele>152</ele>
        <time>2011-01-09T11:29:10Z</time>
      </trkpt>
      <trkpt lat="43.52872" lon="6.78518">
        <ele>152</ele>
        <time>2011-01-09T11:29:13Z</time>
      </trkpt>
      <trkpt lat="43.52876" lon="6.78523">
        <ele>153</ele>
        <time>2011-01-09T11:29:17Z</time>
      </trkpt>
      <trkpt lat="43.52877" lon="6.78524">
        <ele>153</ele>
        <time>2011-01-09T11:29:18Z</time>
      </trkpt>
      <trkpt lat="43.52888" lon="6.78534">
        <ele>155</ele>
        <time>2011-01-09T11:29:27Z</time>
      </trkpt>
      <trkpt lat="43.52889" lon="6.78536">
        <ele>155</ele>
        <time>2011-01-09T11:29:28Z</time>
      </trkpt>
      <trkpt lat="43.52894" lon="6.7854">
        <ele>156</ele>
        <time>2011-01-09T11:29:32Z</time>
      </trkpt>
      <trkpt lat="43.52895" lon="6.78541">
        <ele>156</ele>
        <time>2011-01-09T11:29:33Z</time>
      </trkpt>
      <trkpt lat="43.52903" lon="6.78548">
        <ele>157</ele>
        <time>2011-01-09T11:29:40Z</time>
      </trkpt>
      <trkpt lat="43.52908" lon="6.78552">
        <ele>158</ele>
        <time>2011-01-09T11:29:44Z</time>
      </trkpt>
      <trkpt lat="43.52909" lon="6.78552">
        <ele>158</ele>
        <time>2011-01-09T11:29:45Z</time>
      </trkpt>
      <trkpt lat="43.52912" lon="6.78554">
        <ele>159</ele>
        <time>2011-01-09T11:29:47Z</time>
      </trkpt>
      <trkpt lat="43.52914" lon="6.78555">
        <ele>159</ele>
        <time>2011-01-09T11:29:49Z</time>
      </trkpt>
      <trkpt lat="43.52921" lon="6.78561">
        <ele>161</ele>
        <time>2011-01-09T11:29:55Z</time>
      </trkpt>
      <trkpt lat="43.52923" lon="6.78562">
        <ele>161</ele>
        <time>2011-01-09T11:29:56Z</time>
      </trkpt>
      <trkpt lat="43.52924" lon="6.78563">
        <ele>161</ele>
        <time>2011-01-09T11:29:57Z</time>
      </trkpt>
      <trkpt lat="43.52927" lon="6.78567">
        <ele>162</ele>
        <time>2011-01-09T11:30:00Z</time>
      </trkpt>
      <trkpt lat="43.52928" lon="6.78568">
        <ele>162</ele>
        <time>2011-01-09T11:30:01Z</time>
      </trkpt>
      <trkpt lat="43.52929" lon="6.78568">
        <ele>162</ele>
        <time>2011-01-09T11:30:02Z</time>
      </trkpt>
      <trkpt lat="43.5293" lon="6.78569">
        <ele>162</ele>
        <time>2011-01-09T11:30:03Z</time>
      </trkpt>
      <trkpt lat="43.52933" lon="6.7857">
        <ele>163</ele>
        <time>2011-01-09T11:30:05Z</time>
      </trkpt>
      <trkpt lat="43.52938" lon="6.7857">
        <ele>163</ele>
        <time>2011-01-09T11:30:08Z</time>
      </trkpt>
      <trkpt lat="43.5294" lon="6.7857">
        <ele>163</ele>
        <time>2011-01-09T11:30:10Z</time>
      </trkpt>
      <trkpt lat="43.52944" lon="6.78569">
        <ele>164</ele>
        <time>2011-01-09T11:30:13Z</time>
      </trkpt>
      <trkpt lat="43.52946" lon="6.78568">
        <ele>164</ele>
        <time>2011-01-09T11:30:14Z</time>
      </trkpt>
      <trkpt lat="43.52949" lon="6.78564">
        <ele>165</ele>
        <time>2011-01-09T11:30:17Z</time>
      </trkpt>
      <trkpt lat="43.5295" lon="6.78561">
        <ele>166</ele>
        <time>2011-01-09T11:30:19Z</time>
      </trkpt>
      <trkpt lat="43.52951" lon="6.7856">
        <ele>166</ele>
        <time>2011-01-09T11:30:20Z</time>
      </trkpt>
      <trkpt lat="43.52951" lon="6.78556">
        <ele>166</ele>
        <time>2011-01-09T11:30:22Z</time>
      </trkpt>
      <trkpt lat="43.52951" lon="6.78552">
        <ele>166</ele>
        <time>2011-01-09T11:30:24Z</time>
      </trkpt>
      <trkpt lat="43.52951" lon="6.78547">
        <ele>167</ele>
        <time>2011-01-09T11:30:27Z</time>
      </trkpt>
      <trkpt lat="43.5295" lon="6.78542">
        <ele>167</ele>
        <time>2011-01-09T11:30:30Z</time>
      </trkpt>
      <trkpt lat="43.52947" lon="6.78533">
        <ele>168</ele>
        <time>2011-01-09T11:30:35Z</time>
      </trkpt>
      <trkpt lat="43.52947" lon="6.7853">
        <ele>169</ele>
        <time>2011-01-09T11:30:37Z</time>
      </trkpt>
      <trkpt lat="43.52946" lon="6.78527">
        <ele>169</ele>
        <time>2011-01-09T11:30:39Z</time>
      </trkpt>
      <trkpt lat="43.52946" lon="6.78525">
        <ele>169</ele>
        <time>2011-01-09T11:30:40Z</time>
      </trkpt>
      <trkpt lat="43.52946" lon="6.78521">
        <ele>170</ele>
        <time>2011-01-09T11:30:42Z</time>
      </trkpt>
      <trkpt lat="43.52947" lon="6.78519">
        <ele>170</ele>
        <time>2011-01-09T11:30:43Z</time>
      </trkpt>
      <trkpt lat="43.52948" lon="6.78516">
        <ele>170</ele>
        <time>2011-01-09T11:30:45Z</time>
      </trkpt>
      <trkpt lat="43.52949" lon="6.78515">
        <ele>171</ele>
        <time>2011-01-09T11:30:46Z</time>
      </trkpt>
      <trkpt lat="43.52951" lon="6.78513">
        <ele>171</ele>
        <time>2011-01-09T11:30:48Z</time>
      </trkpt>
      <trkpt lat="43.52954" lon="6.78511">
        <ele>172</ele>
        <time>2011-01-09T11:30:51Z</time>
      </trkpt>
      <trkpt lat="43.52956" lon="6.78509">
        <ele>172</ele>
        <time>2011-01-09T11:30:53Z</time>
      </trkpt>
      <trkpt lat="43.52958" lon="6.78509">
        <ele>172</ele>
        <time>2011-01-09T11:30:54Z</time>
      </trkpt>
      <trkpt lat="43.52961" lon="6.7851">
        <ele>173</ele>
        <time>2011-01-09T11:30:57Z</time>
      </trkpt>
      <trkpt lat="43.52964" lon="6.7851">
        <ele>173</ele>
        <time>2011-01-09T11:30:59Z</time>
      </trkpt>
      <trkpt lat="43.52965" lon="6.78511">
        <ele>173</ele>
        <time>2011-01-09T11:31:00Z</time>
      </trkpt>
      <trkpt lat="43.52966" lon="6.78512">
        <ele>174</ele>
        <time>2011-01-09T11:31:01Z</time>
      </trkpt>
      <trkpt lat="43.52969" lon="6.78512">
        <ele>174</ele>
        <time>2011-01-09T11:31:03Z</time>
      </trkpt>
      <trkpt lat="43.52974" lon="6.78513">
        <ele>175</ele>
        <time>2011-01-09T11:31:07Z</time>
      </trkpt>
      <trkpt lat="43.52976" lon="6.78515">
        <ele>176</ele>
        <time>2011-01-09T11:31:09Z</time>
      </trkpt>
      <trkpt lat="43.52983" lon="6.78516">
        <ele>177</ele>
        <time>2011-01-09T11:31:15Z</time>
      </trkpt>
      <trkpt lat="43.52993" lon="6.78522">
        <ele>178</ele>
        <time>2011-01-09T11:31:23Z</time>
      </trkpt>
      <trkpt lat="43.52995" lon="6.78523">
        <ele>178</ele>
        <time>2011-01-09T11:31:25Z</time>
      </trkpt>
      <trkpt lat="43.52997" lon="6.78524">
        <ele>179</ele>
        <time>2011-01-09T11:31:26Z</time>
      </trkpt>
      <trkpt lat="43.52998" lon="6.78524">
        <ele>179</ele>
        <time>2011-01-09T11:31:27Z</time>
      </trkpt>
      <trkpt lat="43.53" lon="6.78525">
        <ele>179</ele>
        <time>2011-01-09T11:31:29Z</time>
      </trkpt>
      <trkpt lat="43.53004" lon="6.78528">
        <ele>179</ele>
        <time>2011-01-09T11:31:32Z</time>
      </trkpt>
      <trkpt lat="43.53008" lon="6.7853">
        <ele>180</ele>
        <time>2011-01-09T11:31:35Z</time>
      </trkpt>
      <trkpt lat="43.53009" lon="6.7853">
        <ele>180</ele>
        <time>2011-01-09T11:31:36Z</time>
      </trkpt>
      <trkpt lat="43.5301" lon="6.78531">
        <ele>180</ele>
        <time>2011-01-09T11:31:37Z</time>
      </trkpt>
      <trkpt lat="43.53011" lon="6.78532">
        <ele>180</ele>
        <time>2011-01-09T11:31:38Z</time>
      </trkpt>
      <trkpt lat="43.53013" lon="6.78533">
        <ele>181</ele>
        <time>2011-01-09T11:31:39Z</time>
      </trkpt>
      <trkpt lat="43.53017" lon="6.78535">
        <ele>181</ele>
        <time>2011-01-09T11:31:42Z</time>
      </trkpt>
      <trkpt lat="43.53019" lon="6.78536">
        <ele>182</ele>
        <time>2011-01-09T11:31:44Z</time>
      </trkpt>
      <trkpt lat="43.53024" lon="6.78539">
        <ele>182</ele>
        <time>2011-01-09T11:31:48Z</time>
      </trkpt>
      <trkpt lat="43.5303" lon="6.78542">
        <ele>183</ele>
        <time>2011-01-09T11:31:52Z</time>
      </trkpt>
      <trkpt lat="43.53032" lon="6.78543">
        <ele>183</ele>
        <time>2011-01-09T11:31:54Z</time>
      </trkpt>
      <trkpt lat="43.53037" lon="6.78545">
        <ele>184</ele>
        <time>2011-01-09T11:31:58Z</time>
      </trkpt>
      <trkpt lat="43.53041" lon="6.78546">
        <ele>185</ele>
        <time>2011-01-09T11:32:01Z</time>
      </trkpt>
      <trkpt lat="43.53044" lon="6.78547">
        <ele>185</ele>
        <time>2011-01-09T11:32:03Z</time>
      </trkpt>
      <trkpt lat="43.53047" lon="6.78548">
        <ele>186</ele>
        <time>2011-01-09T11:32:06Z</time>
      </trkpt>
      <trkpt lat="43.5305" lon="6.78549">
        <ele>186</ele>
        <time>2011-01-09T11:32:08Z</time>
      </trkpt>
      <trkpt lat="43.53054" lon="6.7855">
        <ele>187</ele>
        <time>2011-01-09T11:32:11Z</time>
      </trkpt>
      <trkpt lat="43.53055" lon="6.7855">
        <ele>187</ele>
        <time>2011-01-09T11:32:12Z</time>
      </trkpt>
      <trkpt lat="43.53059" lon="6.78551">
        <ele>187</ele>
        <time>2011-01-09T11:32:15Z</time>
      </trkpt>
      <trkpt lat="43.53068" lon="6.78552">
        <ele>189</ele>
        <time>2011-01-09T11:32:22Z</time>
      </trkpt>
      <trkpt lat="43.53076" lon="6.78553">
        <ele>190</ele>
        <time>2011-01-09T11:32:28Z</time>
      </trkpt>
      <trkpt lat="43.53077" lon="6.78554">
        <ele>190</ele>
        <time>2011-01-09T11:32:29Z</time>
      </trkpt>
      <trkpt lat="43.5308" lon="6.78555">
        <ele>190</ele>
        <time>2011-01-09T11:32:31Z</time>
      </trkpt>
      <trkpt lat="43.53085" lon="6.78557">
        <ele>191</ele>
        <time>2011-01-09T11:32:35Z</time>
      </trkpt>
      <trkpt lat="43.53088" lon="6.78558">
        <ele>192</ele>
        <time>2011-01-09T11:32:37Z</time>
      </trkpt>
      <trkpt lat="43.53094" lon="6.7856">
        <ele>193</ele>
        <time>2011-01-09T11:32:42Z</time>
      </trkpt>
      <trkpt lat="43.53095" lon="6.78561">
        <ele>193</ele>
        <time>2011-01-09T11:32:43Z</time>
      </trkpt>
      <trkpt lat="43.53099" lon="6.78562">
        <ele>194</ele>
        <time>2011-01-09T11:32:46Z</time>
      </trkpt>
      <trkpt lat="43.531" lon="6.78563">
        <ele>194</ele>
        <time>2011-01-09T11:32:47Z</time>
      </trkpt>
      <trkpt lat="43.53102" lon="6.78563">
        <ele>194</ele>
        <time>2011-01-09T11:32:48Z</time>
      </trkpt>
      <trkpt lat="43.53111" lon="6.78568">
        <ele>195</ele>
        <time>2011-01-09T11:32:55Z</time>
      </trkpt>
      <trkpt lat="43.53114" lon="6.7857">
        <ele>196</ele>
        <time>2011-01-09T11:32:58Z</time>
      </trkpt>
      <trkpt lat="43.5312" lon="6.78574">
        <ele>196</ele>
        <time>2011-01-09T11:33:03Z</time>
      </trkpt>
      <trkpt lat="43.53124" lon="6.78575">
        <ele>196</ele>
        <time>2011-01-09T11:33:06Z</time>
      </trkpt>
      <trkpt lat="43.53127" lon="6.78575">
        <ele>196</ele>
        <time>2011-01-09T11:33:08Z</time>
      </trkpt>
      <trkpt lat="43.53131" lon="6.78575">
        <ele>196</ele>
        <time>2011-01-09T11:33:11Z</time>
      </trkpt>
      <trkpt lat="43.53134" lon="6.78574">
        <ele>196</ele>
        <time>2011-01-09T11:33:14Z</time>
      </trkpt>
      <trkpt lat="43.53141" lon="6.78572">
        <ele>197</ele>
        <time>2011-01-09T11:33:19Z</time>
      </trkpt>
      <trkpt lat="43.53144" lon="6.78572">
        <ele>197</ele>
        <time>2011-01-09T11:33:21Z</time>
      </trkpt>
      <trkpt lat="43.53145" lon="6.78571">
        <ele>198</ele>
        <time>2011-01-09T11:33:22Z</time>
      </trkpt>
      <trkpt lat="43.53149" lon="6.7857">
        <ele>198</ele>
        <time>2011-01-09T11:33:25Z</time>
      </trkpt>
      <trkpt lat="43.53151" lon="6.78569">
        <ele>198</ele>
        <time>2011-01-09T11:33:27Z</time>
      </trkpt>
      <trkpt lat="43.53159" lon="6.78568">
        <ele>200</ele>
        <time>2011-01-09T11:33:33Z</time>
      </trkpt>
      <trkpt lat="43.53163" lon="6.78567">
        <ele>200</ele>
        <time>2011-01-09T11:33:36Z</time>
      </trkpt>
      <trkpt lat="43.53164" lon="6.78567">
        <ele>200</ele>
        <time>2011-01-09T11:33:37Z</time>
      </trkpt>
      <trkpt lat="43.53167" lon="6.78566">
        <ele>201</ele>
        <time>2011-01-09T11:33:39Z</time>
      </trkpt>
      <trkpt lat="43.53172" lon="6.78567">
        <ele>202</ele>
        <time>2011-01-09T11:33:42Z</time>
      </trkpt>
      <trkpt lat="43.53176" lon="6.78567">
        <ele>202</ele>
        <time>2011-01-09T11:33:45Z</time>
      </trkpt>
      <trkpt lat="43.53178" lon="6.78567">
        <ele>202</ele>
        <time>2011-01-09T11:33:46Z</time>
      </trkpt>
      <trkpt lat="43.53182" lon="6.78567">
        <ele>203</ele>
        <time>2011-01-09T11:33:49Z</time>
      </trkpt>
      <trkpt lat="43.53188" lon="6.78568">
        <ele>203</ele>
        <time>2011-01-09T11:33:53Z</time>
      </trkpt>
      <trkpt lat="43.53193" lon="6.78569">
        <ele>204</ele>
        <time>2011-01-09T11:33:57Z</time>
      </trkpt>
      <trkpt lat="43.53196" lon="6.78569">
        <ele>204</ele>
        <time>2011-01-09T11:33:59Z</time>
      </trkpt>
      <trkpt lat="43.53197" lon="6.78569">
        <ele>204</ele>
        <time>2011-01-09T11:34:00Z</time>
      </trkpt>
      <trkpt lat="43.53203" lon="6.78571">
        <ele>204</ele>
        <time>2011-01-09T11:34:04Z</time>
      </trkpt>
      <trkpt lat="43.53205" lon="6.78573">
        <ele>205</ele>
        <time>2011-01-09T11:34:06Z</time>
      </trkpt>
      <trkpt lat="43.53207" lon="6.78573">
        <ele>205</ele>
        <time>2011-01-09T11:34:07Z</time>
      </trkpt>
      <trkpt lat="43.53211" lon="6.78575">
        <ele>205</ele>
        <time>2011-01-09T11:34:10Z</time>
      </trkpt>
      <trkpt lat="43.53212" lon="6.78575">
        <ele>206</ele>
        <time>2011-01-09T11:34:11Z</time>
      </trkpt>
      <trkpt lat="43.53216" lon="6.78578">
        <ele>206</ele>
        <time>2011-01-09T11:34:14Z</time>
      </trkpt>
      <trkpt lat="43.53219" lon="6.7858">
        <ele>207</ele>
        <time>2011-01-09T11:34:17Z</time>
      </trkpt>
      <trkpt lat="43.53224" lon="6.78583">
        <ele>207</ele>
        <time>2011-01-09T11:34:21Z</time>
      </trkpt>
      <trkpt lat="43.53228" lon="6.78585">
        <ele>208</ele>
        <time>2011-01-09T11:34:24Z</time>
      </trkpt>
      <trkpt lat="43.53231" lon="6.78586">
        <ele>208</ele>
        <time>2011-01-09T11:34:26Z</time>
      </trkpt>
      <trkpt lat="43.53232" lon="6.78587">
        <ele>208</ele>
        <time>2011-01-09T11:34:27Z</time>
      </trkpt>
      <trkpt lat="43.53236" lon="6.78588">
        <ele>209</ele>
        <time>2011-01-09T11:34:30Z</time>
      </trkpt>
      <trkpt lat="43.53241" lon="6.78589">
        <ele>209</ele>
        <time>2011-01-09T11:34:34Z</time>
      </trkpt>
      <trkpt lat="43.53244" lon="6.78589">
        <ele>209</ele>
        <time>2011-01-09T11:34:36Z</time>
      </trkpt>
      <trkpt lat="43.53247" lon="6.7859">
        <ele>210</ele>
        <time>2011-01-09T11:34:38Z</time>
      </trkpt>
      <trkpt lat="43.53248" lon="6.7859">
        <ele>210</ele>
        <time>2011-01-09T11:34:39Z</time>
      </trkpt>
      <trkpt lat="43.53256" lon="6.78591">
        <ele>211</ele>
        <time>2011-01-09T11:34:45Z</time>
      </trkpt>
      <trkpt lat="43.5326" lon="6.78591">
        <ele>211</ele>
        <time>2011-01-09T11:34:48Z</time>
      </trkpt>
      <trkpt lat="43.53267" lon="6.78592">
        <ele>212</ele>
        <time>2011-01-09T11:34:53Z</time>
      </trkpt>
      <trkpt lat="43.53268" lon="6.78592">
        <ele>212</ele>
        <time>2011-01-09T11:34:54Z</time>
      </trkpt>
      <trkpt lat="43.53279" lon="6.78594">
        <ele>213</ele>
        <time>2011-01-09T11:35:02Z</time>
      </trkpt>
      <trkpt lat="43.5328" lon="6.78594">
        <ele>214</ele>
        <time>2011-01-09T11:35:03Z</time>
      </trkpt>
      <trkpt lat="43.53281" lon="6.78593">
        <ele>214</ele>
        <time>2011-01-09T11:35:04Z</time>
      </trkpt>
      <trkpt lat="43.53283" lon="6.78592">
        <ele>214</ele>
        <time>2011-01-09T11:35:05Z</time>
      </trkpt>
      <trkpt lat="43.53283" lon="6.78591">
        <ele>214</ele>
        <time>2011-01-09T11:35:06Z</time>
      </trkpt>
      <trkpt lat="43.53283" lon="6.7859">
        <ele>214</ele>
        <time>2011-01-09T11:35:07Z</time>
      </trkpt>
      <trkpt lat="43.53283" lon="6.78589">
        <ele>214</ele>
        <time>2011-01-09T11:35:14Z</time>
      </trkpt>
      <trkpt lat="43.53282" lon="6.78589">
        <ele>213</ele>
        <time>2011-01-09T11:35:22Z</time>
      </trkpt>
      <trkpt lat="43.53283" lon="6.78589">
        <ele>213</ele>
        <time>2011-01-09T11:35:26Z</time>
      </trkpt>
      <trkpt lat="43.53284" lon="6.78589">
        <ele>213</ele>
        <time>2011-01-09T11:35:45Z</time>
      </trkpt>
      <trkpt lat="43.53284" lon="6.78589">
        <ele>213</ele>
        <time>2011-01-09T11:35:46Z</time>
      </trkpt>
      <trkpt lat="43.53283" lon="6.78591">
        <ele>213</ele>
        <time>2011-01-09T11:35:49Z</time>
      </trkpt>
      <trkpt lat="43.53282" lon="6.78591">
        <ele>213</ele>
        <time>2011-01-09T11:35:57Z</time>
      </trkpt>
      <trkpt lat="43.53282" lon="6.78589">
        <ele>213</ele>
        <time>2011-01-09T11:36:51Z</time>
      </trkpt>
      <trkpt lat="43.53282" lon="6.78591">
        <ele>213</ele>
        <time>2011-01-09T11:36:52Z</time>
      </trkpt>
      <trkpt lat="43.53282" lon="6.78592">
        <ele>213</ele>
        <time>2011-01-09T11:36:53Z</time>
      </trkpt>
      <trkpt lat="43.53281" lon="6.78593">
        <ele>213</ele>
        <time>2011-01-09T11:36:54Z</time>
      </trkpt>
      <trkpt lat="43.53279" lon="6.78594">
        <ele>213</ele>
        <time>2011-01-09T11:37:10Z</time>
      </trkpt>
      <trkpt lat="43.5328" lon="6.78594">
        <ele>213</ele>
        <time>2011-01-09T11:37:11Z</time>
      </trkpt>
      <trkpt lat="43.53281" lon="6.78593">
        <ele>213</ele>
        <time>2011-01-09T11:37:12Z</time>
      </trkpt>
      <trkpt lat="43.53281" lon="6.78592">
        <ele>213</ele>
        <time>2011-01-09T11:37:13Z</time>
      </trkpt>
      <trkpt lat="43.53282" lon="6.78591">
        <ele>213</ele>
        <time>2011-01-09T11:37:14Z</time>
      </trkpt>
      <trkpt lat="43.53282" lon="6.78589">
        <ele>213</ele>
        <time>2011-01-09T11:37:15Z</time>
      </trkpt>
      <trkpt lat="43.53282" lon="6.78588">
        <ele>213</ele>
        <time>2011-01-09T11:37:17Z</time>
      </trkpt>
      <trkpt lat="43.53283" lon="6.78589">
        <ele>213</ele>
        <time>2011-01-09T11:37:19Z</time>
      </trkpt>
      <trkpt lat="43.53283" lon="6.78589">
        <ele>213</ele>
        <time>2011-01-09T11:37:20Z</time>
      </trkpt>
      <trkpt lat="43.53283" lon="6.78589">
        <ele>213</ele>
        <time>2011-01-09T11:37:21Z</time>
      </trkpt>
      <trkpt lat="43.53283" lon="6.78589">
        <ele>213</ele>
        <time>2011-01-09T11:37:25Z</time>
      </trkpt>
      <trkpt lat="43.53285" lon="6.78588">
        <ele>213</ele>
        <time>2011-01-09T11:37:26Z</time>
      </trkpt>
      <trkpt lat="43.53286" lon="6.78585">
        <ele>213</ele>
        <time>2011-01-09T11:37:28Z</time>
      </trkpt>
      <trkpt lat="43.53289" lon="6.78578">
        <ele>213</ele>
        <time>2011-01-09T11:37:31Z</time>
      </trkpt>
      <trkpt lat="43.53291" lon="6.78575">
        <ele>213</ele>
        <time>2011-01-09T11:37:32Z</time>
      </trkpt>
      <trkpt lat="43.53293" lon="6.78572">
        <ele>213</ele>
        <time>2011-01-09T11:37:33Z</time>
      </trkpt>
      <trkpt lat="43.53295" lon="6.78569">
        <ele>213</ele>
        <time>2011-01-09T11:37:34Z</time>
      </trkpt>
      <trkpt lat="43.53297" lon="6.78566">
        <ele>213</ele>
        <time>2011-01-09T11:37:35Z</time>
      </trkpt>
      <trkpt lat="43.53302" lon="6.78561">
        <ele>213</ele>
        <time>2011-01-09T11:37:37Z</time>
      </trkpt>
      <trkpt lat="43.53307" lon="6.78556">
        <ele>213</ele>
        <time>2011-01-09T11:37:39Z</time>
      </trkpt>
      <trkpt lat="43.53312" lon="6.7855">
        <ele>213</ele>
        <time>2011-01-09T11:37:41Z</time>
      </trkpt>
      <trkpt lat="43.53314" lon="6.78546">
        <ele>213</ele>
        <time>2011-01-09T11:37:42Z</time>
      </trkpt>
      <trkpt lat="43.53317" lon="6.78538">
        <ele>213</ele>
        <time>2011-01-09T11:37:44Z</time>
      </trkpt>
      <trkpt lat="43.53319" lon="6.78535">
        <ele>213</ele>
        <time>2011-01-09T11:37:45Z</time>
      </trkpt>
      <trkpt lat="43.53321" lon="6.78532">
        <ele>213</ele>
        <time>2011-01-09T11:37:46Z</time>
      </trkpt>
      <trkpt lat="43.53323" lon="6.78529">
        <ele>213</ele>
        <time>2011-01-09T11:37:47Z</time>
      </trkpt>
      <trkpt lat="43.53325" lon="6.78526">
        <ele>213</ele>
        <time>2011-01-09T11:37:48Z</time>
      </trkpt>
      <trkpt lat="43.53329" lon="6.78522">
        <ele>213</ele>
        <time>2011-01-09T11:37:50Z</time>
      </trkpt>
      <trkpt lat="43.53331" lon="6.7852">
        <ele>213</ele>
        <time>2011-01-09T11:37:51Z</time>
      </trkpt>
      <trkpt lat="43.53336" lon="6.78516">
        <ele>213</ele>
        <time>2011-01-09T11:37:53Z</time>
      </trkpt>
      <trkpt lat="43.53338" lon="6.78515">
        <ele>213</ele>
        <time>2011-01-09T11:37:54Z</time>
      </trkpt>
      <trkpt lat="43.53341" lon="6.78514">
        <ele>213</ele>
        <time>2011-01-09T11:37:55Z</time>
      </trkpt>
      <trkpt lat="43.53343" lon="6.78513">
        <ele>213</ele>
        <time>2011-01-09T11:37:56Z</time>
      </trkpt>
      <trkpt lat="43.53348" lon="6.78512">
        <ele>213</ele>
        <time>2011-01-09T11:37:58Z</time>
      </trkpt>
      <trkpt lat="43.53351" lon="6.78511">
        <ele>213</ele>
        <time>2011-01-09T11:37:59Z</time>
      </trkpt>
      <trkpt lat="43.53355" lon="6.78509">
        <ele>214</ele>
        <time>2011-01-09T11:38:01Z</time>
      </trkpt>
      <trkpt lat="43.53359" lon="6.78508">
        <ele>214</ele>
        <time>2011-01-09T11:38:03Z</time>
      </trkpt>
      <trkpt lat="43.53365" lon="6.78505">
        <ele>214</ele>
        <time>2011-01-09T11:38:06Z</time>
      </trkpt>
      <trkpt lat="43.53371" lon="6.78503">
        <ele>215</ele>
        <time>2011-01-09T11:38:09Z</time>
      </trkpt>
      <trkpt lat="43.53374" lon="6.78502">
        <ele>215</ele>
        <time>2011-01-09T11:38:11Z</time>
      </trkpt>
      <trkpt lat="43.53381" lon="6.78501">
        <ele>215</ele>
        <time>2011-01-09T11:38:14Z</time>
      </trkpt>
      <trkpt lat="43.53385" lon="6.78499">
        <ele>215</ele>
        <time>2011-01-09T11:38:16Z</time>
      </trkpt>
      <trkpt lat="43.53393" lon="6.78497">
        <ele>215</ele>
        <time>2011-01-09T11:38:20Z</time>
      </trkpt>
      <trkpt lat="43.53397" lon="6.78495">
        <ele>215</ele>
        <time>2011-01-09T11:38:22Z</time>
      </trkpt>
      <trkpt lat="43.534" lon="6.78495">
        <ele>215</ele>
        <time>2011-01-09T11:38:23Z</time>
      </trkpt>
      <trkpt lat="43.53408" lon="6.78491">
        <ele>216</ele>
        <time>2011-01-09T11:38:27Z</time>
      </trkpt>
      <trkpt lat="43.5341" lon="6.7849">
        <ele>216</ele>
        <time>2011-01-09T11:38:28Z</time>
      </trkpt>
      <trkpt lat="43.53412" lon="6.78489">
        <ele>216</ele>
        <time>2011-01-09T11:38:29Z</time>
      </trkpt>
      <trkpt lat="43.53419" lon="6.78488">
        <ele>216</ele>
        <time>2011-01-09T11:38:32Z</time>
      </trkpt>
      <trkpt lat="43.53435" lon="6.78483">
        <ele>215</ele>
        <time>2011-01-09T11:38:38Z</time>
      </trkpt>
      <trkpt lat="43.5344" lon="6.78482">
        <ele>216</ele>
        <time>2011-01-09T11:38:40Z</time>
      </trkpt>
      <trkpt lat="43.53445" lon="6.78481">
        <ele>216</ele>
        <time>2011-01-09T11:38:42Z</time>
      </trkpt>
      <trkpt lat="43.53447" lon="6.78481">
        <ele>216</ele>
        <time>2011-01-09T11:38:43Z</time>
      </trkpt>
      <trkpt lat="43.53455" lon="6.78481">
        <ele>216</ele>
        <time>2011-01-09T11:38:46Z</time>
      </trkpt>
      <trkpt lat="43.53482" lon="6.78476">
        <ele>216</ele>
        <time>2011-01-09T11:38:56Z</time>
      </trkpt>
      <trkpt lat="43.53485" lon="6.78476">
        <ele>216</ele>
        <time>2011-01-09T11:38:57Z</time>
      </trkpt>
      <trkpt lat="43.5349" lon="6.78475">
        <ele>216</ele>
        <time>2011-01-09T11:38:59Z</time>
      </trkpt>
      <trkpt lat="43.53493" lon="6.78474">
        <ele>216</ele>
        <time>2011-01-09T11:39:00Z</time>
      </trkpt>
      <trkpt lat="43.53501" lon="6.78473">
        <ele>216</ele>
        <time>2011-01-09T11:39:03Z</time>
      </trkpt>
      <trkpt lat="43.53506" lon="6.78472">
        <ele>217</ele>
        <time>2011-01-09T11:39:05Z</time>
      </trkpt>
      <trkpt lat="43.53516" lon="6.7847">
        <ele>217</ele>
        <time>2011-01-09T11:39:09Z</time>
      </trkpt>
      <trkpt lat="43.53525" lon="6.78469">
        <ele>218</ele>
        <time>2011-01-09T11:39:13Z</time>
      </trkpt>
      <trkpt lat="43.53527" lon="6.78469">
        <ele>218</ele>
        <time>2011-01-09T11:39:14Z</time>
      </trkpt>
      <trkpt lat="43.53529" lon="6.78468">
        <ele>218</ele>
        <time>2011-01-09T11:39:15Z</time>
      </trkpt>
      <trkpt lat="43.53535" lon="6.78469">
        <ele>218</ele>
        <time>2011-01-09T11:39:18Z</time>
      </trkpt>
      <trkpt lat="43.53537" lon="6.78469">
        <ele>218</ele>
        <time>2011-01-09T11:39:19Z</time>
      </trkpt>
      <trkpt lat="43.53543" lon="6.7847">
        <ele>219</ele>
        <time>2011-01-09T11:39:22Z</time>
      </trkpt>
      <trkpt lat="43.5355" lon="6.78471">
        <ele>219</ele>
        <time>2011-01-09T11:39:25Z</time>
      </trkpt>
      <trkpt lat="43.53553" lon="6.78472">
        <ele>219</ele>
        <time>2011-01-09T11:39:26Z</time>
      </trkpt>
      <trkpt lat="43.53555" lon="6.78473">
        <ele>219</ele>
        <time>2011-01-09T11:39:27Z</time>
      </trkpt>
      <trkpt lat="43.53557" lon="6.78474">
        <ele>219</ele>
        <time>2011-01-09T11:39:28Z</time>
      </trkpt>
      <trkpt lat="43.5356" lon="6.78474">
        <ele>219</ele>
        <time>2011-01-09T11:39:29Z</time>
      </trkpt>
      <trkpt lat="43.53568" lon="6.78475">
        <ele>219</ele>
        <time>2011-01-09T11:39:32Z</time>
      </trkpt>
      <trkpt lat="43.53574" lon="6.78475">
        <ele>218</ele>
        <time>2011-01-09T11:39:34Z</time>
      </trkpt>
      <trkpt lat="43.53585" lon="6.78474">
        <ele>218</ele>
        <time>2011-01-09T11:39:38Z</time>
      </trkpt>
      <trkpt lat="43.53587" lon="6.78474">
        <ele>218</ele>
        <time>2011-01-09T11:39:39Z</time>
      </trkpt>
      <trkpt lat="43.53593" lon="6.78472">
        <ele>217</ele>
        <time>2011-01-09T11:39:41Z</time>
      </trkpt>
      <trkpt lat="43.53596" lon="6.78472">
        <ele>217</ele>
        <time>2011-01-09T11:39:42Z</time>
      </trkpt>
      <trkpt lat="43.53605" lon="6.78471">
        <ele>217</ele>
        <time>2011-01-09T11:39:46Z</time>
      </trkpt>
      <trkpt lat="43.53609" lon="6.78472">
        <ele>218</ele>
        <time>2011-01-09T11:39:48Z</time>
      </trkpt>
      <trkpt lat="43.53613" lon="6.78472">
        <ele>218</ele>
        <time>2011-01-09T11:39:50Z</time>
      </trkpt>
      <trkpt lat="43.53618" lon="6.78473">
        <ele>217</ele>
        <time>2011-01-09T11:39:52Z</time>
      </trkpt>
      <trkpt lat="43.53626" lon="6.78474">
        <ele>217</ele>
        <time>2011-01-09T11:39:55Z</time>
      </trkpt>
      <trkpt lat="43.53632" lon="6.78475">
        <ele>217</ele>
        <time>2011-01-09T11:39:57Z</time>
      </trkpt>
      <trkpt lat="43.53634" lon="6.78476">
        <ele>216</ele>
        <time>2011-01-09T11:39:58Z</time>
      </trkpt>
      <trkpt lat="43.53644" lon="6.78479">
        <ele>215</ele>
        <time>2011-01-09T11:40:01Z</time>
      </trkpt>
      <trkpt lat="43.53654" lon="6.78481">
        <ele>214</ele>
        <time>2011-01-09T11:40:03Z</time>
      </trkpt>
      <trkpt lat="43.53659" lon="6.78482">
        <ele>213</ele>
        <time>2011-01-09T11:40:04Z</time>
      </trkpt>
      <trkpt lat="43.53718" lon="6.78515">
        <ele>208</ele>
        <time>2011-01-09T11:40:14Z</time>
      </trkpt>
      <trkpt lat="43.5378" lon="6.78544">
        <ele>203</ele>
        <time>2011-01-09T11:40:24Z</time>
      </trkpt>
      <trkpt lat="43.53846" lon="6.78549">
        <ele>201</ele>
        <time>2011-01-09T11:40:34Z</time>
      </trkpt>
      <trkpt lat="43.53896" lon="6.78556">
        <ele>200</ele>
        <time>2011-01-09T11:40:44Z</time>
      </trkpt>
      <trkpt lat="43.53905" lon="6.78558">
        <ele>200</ele>
        <time>2011-01-09T11:40:46Z</time>
      </trkpt>
      <trkpt lat="43.53909" lon="6.78559">
        <ele>200</ele>
        <time>2011-01-09T11:40:47Z</time>
      </trkpt>
      <trkpt lat="43.53913" lon="6.78561">
        <ele>200</ele>
        <time>2011-01-09T11:40:48Z</time>
      </trkpt>
      <trkpt lat="43.53922" lon="6.78564">
        <ele>201</ele>
        <time>2011-01-09T11:40:50Z</time>
      </trkpt>
      <trkpt lat="43.53926" lon="6.78566">
        <ele>201</ele>
        <time>2011-01-09T11:40:51Z</time>
      </trkpt>
      <trkpt lat="43.53935" lon="6.78571">
        <ele>201</ele>
        <time>2011-01-09T11:40:53Z</time>
      </trkpt>
      <trkpt lat="43.53952" lon="6.78582">
        <ele>200</ele>
        <time>2011-01-09T11:40:57Z</time>
      </trkpt>
      <trkpt lat="43.53956" lon="6.78584">
        <ele>200</ele>
        <time>2011-01-09T11:40:58Z</time>
      </trkpt>
      <trkpt lat="43.53961" lon="6.78586">
        <ele>200</ele>
        <time>2011-01-09T11:40:59Z</time>
      </trkpt>
      <trkpt lat="43.53965" lon="6.78587">
        <ele>200</ele>
        <time>2011-01-09T11:41:00Z</time>
      </trkpt>
      <trkpt lat="43.53977" lon="6.78588">
        <ele>200</ele>
        <time>2011-01-09T11:41:03Z</time>
      </trkpt>
      <trkpt lat="43.53989" lon="6.7859">
        <ele>200</ele>
        <time>2011-01-09T11:41:06Z</time>
      </trkpt>
      <trkpt lat="43.53994" lon="6.78591">
        <ele>199</ele>
        <time>2011-01-09T11:41:07Z</time>
      </trkpt>
      <trkpt lat="43.53999" lon="6.78593">
        <ele>199</ele>
        <time>2011-01-09T11:41:08Z</time>
      </trkpt>
      <trkpt lat="43.54004" lon="6.78595">
        <ele>198</ele>
        <time>2011-01-09T11:41:09Z</time>
      </trkpt>
      <trkpt lat="43.54006" lon="6.78645">
        <ele>195</ele>
        <time>2011-01-09T11:41:19Z</time>
      </trkpt>
      <trkpt lat="43.54001" lon="6.78647">
        <ele>195</ele>
        <time>2011-01-09T11:41:20Z</time>
      </trkpt>
      <trkpt lat="43.53997" lon="6.7865">
        <ele>194</ele>
        <time>2011-01-09T11:41:21Z</time>
      </trkpt>
      <trkpt lat="43.53991" lon="6.78652">
        <ele>194</ele>
        <time>2011-01-09T11:41:22Z</time>
      </trkpt>
      <trkpt lat="43.53926" lon="6.78673">
        <ele>187</ele>
        <time>2011-01-09T11:41:32Z</time>
      </trkpt>
      <trkpt lat="43.53919" lon="6.78729">
        <ele>179</ele>
        <time>2011-01-09T11:41:42Z</time>
      </trkpt>
      <trkpt lat="43.53994" lon="6.78812">
        <ele>168</ele>
        <time>2011-01-09T11:41:52Z</time>
      </trkpt>
      <trkpt lat="43.54067" lon="6.78855">
        <ele>165</ele>
        <time>2011-01-09T11:42:02Z</time>
      </trkpt>
      <trkpt lat="43.54113" lon="6.78876">
        <ele>166</ele>
        <time>2011-01-09T11:42:12Z</time>
      </trkpt>
      <trkpt lat="43.54121" lon="6.7888">
        <ele>166</ele>
        <time>2011-01-09T11:42:14Z</time>
      </trkpt>
      <trkpt lat="43.54129" lon="6.78883">
        <ele>166</ele>
        <time>2011-01-09T11:42:16Z</time>
      </trkpt>
      <trkpt lat="43.54161" lon="6.78896">
        <ele>167</ele>
        <time>2011-01-09T11:42:24Z</time>
      </trkpt>
      <trkpt lat="43.54165" lon="6.78898">
        <ele>167</ele>
        <time>2011-01-09T11:42:25Z</time>
      </trkpt>
      <trkpt lat="43.54172" lon="6.789">
        <ele>167</ele>
        <time>2011-01-09T11:42:27Z</time>
      </trkpt>
      <trkpt lat="43.54182" lon="6.78902">
        <ele>166</ele>
        <time>2011-01-09T11:42:29Z</time>
      </trkpt>
      <trkpt lat="43.54187" lon="6.78903">
        <ele>166</ele>
        <time>2011-01-09T11:42:30Z</time>
      </trkpt>
      <trkpt lat="43.54255" lon="6.78896">
        <ele>160</ele>
        <time>2011-01-09T11:42:40Z</time>
      </trkpt>
      <trkpt lat="43.54316" lon="6.78927">
        <ele>159</ele>
        <time>2011-01-09T11:42:50Z</time>
      </trkpt>
      <trkpt lat="43.5432" lon="6.78929">
        <ele>158</ele>
        <time>2011-01-09T11:42:51Z</time>
      </trkpt>
      <trkpt lat="43.54325" lon="6.78929">
        <ele>158</ele>
        <time>2011-01-09T11:42:52Z</time>
      </trkpt>
      <trkpt lat="43.54329" lon="6.7893">
        <ele>158</ele>
        <time>2011-01-09T11:42:53Z</time>
      </trkpt>
      <trkpt lat="43.54334" lon="6.78929">
        <ele>158</ele>
        <time>2011-01-09T11:42:54Z</time>
      </trkpt>
      <trkpt lat="43.54348" lon="6.78927">
        <ele>158</ele>
        <time>2011-01-09T11:42:57Z</time>
      </trkpt>
      <trkpt lat="43.54353" lon="6.78927">
        <ele>158</ele>
        <time>2011-01-09T11:42:58Z</time>
      </trkpt>
      <trkpt lat="43.54357" lon="6.78927">
        <ele>158</ele>
        <time>2011-01-09T11:42:59Z</time>
      </trkpt>
      <trkpt lat="43.54362" lon="6.78929">
        <ele>157</ele>
        <time>2011-01-09T11:43:00Z</time>
      </trkpt>
      <trkpt lat="43.54367" lon="6.78931">
        <ele>157</ele>
        <time>2011-01-09T11:43:01Z</time>
      </trkpt>
      <trkpt lat="43.54372" lon="6.78934">
        <ele>157</ele>
        <time>2011-01-09T11:43:02Z</time>
      </trkpt>
      <trkpt lat="43.54377" lon="6.78937">
        <ele>157</ele>
        <time>2011-01-09T11:43:03Z</time>
      </trkpt>
      <trkpt lat="43.5439" lon="6.78945">
        <ele>156</ele>
        <time>2011-01-09T11:43:06Z</time>
      </trkpt>
      <trkpt lat="43.54395" lon="6.78947">
        <ele>156</ele>
        <time>2011-01-09T11:43:07Z</time>
      </trkpt>
      <trkpt lat="43.54399" lon="6.78949">
        <ele>156</ele>
        <time>2011-01-09T11:43:08Z</time>
      </trkpt>
      <trkpt lat="43.54407" lon="6.78952">
        <ele>156</ele>
        <time>2011-01-09T11:43:10Z</time>
      </trkpt>
      <trkpt lat="43.54412" lon="6.78953">
        <ele>156</ele>
        <time>2011-01-09T11:43:11Z</time>
      </trkpt>
      <trkpt lat="43.54424" lon="6.78956">
        <ele>156</ele>
        <time>2011-01-09T11:43:14Z</time>
      </trkpt>
      <trkpt lat="43.54429" lon="6.78957">
        <ele>156</ele>
        <time>2011-01-09T11:43:15Z</time>
      </trkpt>
      <trkpt lat="43.54433" lon="6.78958">
        <ele>156</ele>
        <time>2011-01-09T11:43:16Z</time>
      </trkpt>
      <trkpt lat="43.54437" lon="6.78959">
        <ele>156</ele>
        <time>2011-01-09T11:43:17Z</time>
      </trkpt>
      <trkpt lat="43.54445" lon="6.78959">
        <ele>156</ele>
        <time>2011-01-09T11:43:19Z</time>
      </trkpt>
      <trkpt lat="43.54448" lon="6.7896">
        <ele>156</ele>
        <time>2011-01-09T11:43:20Z</time>
      </trkpt>
      <trkpt lat="43.54452" lon="6.78961">
        <ele>156</ele>
        <time>2011-01-09T11:43:21Z</time>
      </trkpt>
      <trkpt lat="43.54455" lon="6.78963">
        <ele>156</ele>
        <time>2011-01-09T11:43:22Z</time>
      </trkpt>
      <trkpt lat="43.5446" lon="6.78967">
        <ele>157</ele>
        <time>2011-01-09T11:43:24Z</time>
      </trkpt>
      <trkpt lat="43.54464" lon="6.78972">
        <ele>157</ele>
        <time>2011-01-09T11:43:26Z</time>
      </trkpt>
      <trkpt lat="43.54465" lon="6.78974">
        <ele>157</ele>
        <time>2011-01-09T11:43:27Z</time>
      </trkpt>
      <trkpt lat="43.54468" lon="6.78978">
        <ele>158</ele>
        <time>2011-01-09T11:43:29Z</time>
      </trkpt>
      <trkpt lat="43.54469" lon="6.7898">
        <ele>158</ele>
        <time>2011-01-09T11:43:30Z</time>
      </trkpt>
      <trkpt lat="43.54472" lon="6.78984">
        <ele>159</ele>
        <time>2011-01-09T11:43:32Z</time>
      </trkpt>
      <trkpt lat="43.54472" lon="6.78986">
        <ele>159</ele>
        <time>2011-01-09T11:43:33Z</time>
      </trkpt>
      <trkpt lat="43.54476" lon="6.78992">
        <ele>159</ele>
        <time>2011-01-09T11:43:36Z</time>
      </trkpt>
      <trkpt lat="43.54479" lon="6.78998">
        <ele>160</ele>
        <time>2011-01-09T11:43:39Z</time>
      </trkpt>
      <trkpt lat="43.5448" lon="6.78999">
        <ele>160</ele>
        <time>2011-01-09T11:43:40Z</time>
      </trkpt>
      <trkpt lat="43.54483" lon="6.79003">
        <ele>161</ele>
        <time>2011-01-09T11:43:42Z</time>
      </trkpt>
      <trkpt lat="43.54485" lon="6.79006">
        <ele>161</ele>
        <time>2011-01-09T11:43:44Z</time>
      </trkpt>
      <trkpt lat="43.54487" lon="6.7901">
        <ele>162</ele>
        <time>2011-01-09T11:43:46Z</time>
      </trkpt>
      <trkpt lat="43.54489" lon="6.79013">
        <ele>162</ele>
        <time>2011-01-09T11:43:48Z</time>
      </trkpt>
      <trkpt lat="43.54492" lon="6.79017">
        <ele>162</ele>
        <time>2011-01-09T11:43:50Z</time>
      </trkpt>
      <trkpt lat="43.54494" lon="6.7902">
        <ele>163</ele>
        <time>2011-01-09T11:43:52Z</time>
      </trkpt>
      <trkpt lat="43.54495" lon="6.79022">
        <ele>163</ele>
        <time>2011-01-09T11:43:53Z</time>
      </trkpt>
      <trkpt lat="43.54497" lon="6.79026">
        <ele>163</ele>
        <time>2011-01-09T11:43:55Z</time>
      </trkpt>
      <trkpt lat="43.54498" lon="6.79027">
        <ele>164</ele>
        <time>2011-01-09T11:43:56Z</time>
      </trkpt>
      <trkpt lat="43.54499" lon="6.79029">
        <ele>164</ele>
        <time>2011-01-09T11:43:57Z</time>
      </trkpt>
      <trkpt lat="43.54499" lon="6.79032">
        <ele>164</ele>
        <time>2011-01-09T11:43:58Z</time>
      </trkpt>
      <trkpt lat="43.545" lon="6.79034">
        <ele>164</ele>
        <time>2011-01-09T11:43:59Z</time>
      </trkpt>
      <trkpt lat="43.545" lon="6.79038">
        <ele>164</ele>
        <time>2011-01-09T11:44:01Z</time>
      </trkpt>
      <trkpt lat="43.54499" lon="6.7904">
        <ele>165</ele>
        <time>2011-01-09T11:44:02Z</time>
      </trkpt>
      <trkpt lat="43.54499" lon="6.79043">
        <ele>165</ele>
        <time>2011-01-09T11:44:03Z</time>
      </trkpt>
      <trkpt lat="43.54498" lon="6.79044">
        <ele>165</ele>
        <time>2011-01-09T11:44:04Z</time>
      </trkpt>
      <trkpt lat="43.54497" lon="6.79046">
        <ele>165</ele>
        <time>2011-01-09T11:44:05Z</time>
      </trkpt>
      <trkpt lat="43.54495" lon="6.79051">
        <ele>166</ele>
        <time>2011-01-09T11:44:08Z</time>
      </trkpt>
      <trkpt lat="43.54493" lon="6.79053">
        <ele>166</ele>
        <time>2011-01-09T11:44:09Z</time>
      </trkpt>
      <trkpt lat="43.54492" lon="6.79053">
        <ele>166</ele>
        <time>2011-01-09T11:44:10Z</time>
      </trkpt>
      <trkpt lat="43.54487" lon="6.79054">
        <ele>167</ele>
        <time>2011-01-09T11:44:13Z</time>
      </trkpt>
      <trkpt lat="43.54486" lon="6.79054">
        <ele>167</ele>
        <time>2011-01-09T11:44:14Z</time>
      </trkpt>
      <trkpt lat="43.54484" lon="6.79055">
        <ele>167</ele>
        <time>2011-01-09T11:44:15Z</time>
      </trkpt>
      <trkpt lat="43.54479" lon="6.79057">
        <ele>168</ele>
        <time>2011-01-09T11:44:18Z</time>
      </trkpt>
      <trkpt lat="43.54478" lon="6.79057">
        <ele>168</ele>
        <time>2011-01-09T11:44:19Z</time>
      </trkpt>
      <trkpt lat="43.54474" lon="6.79057">
        <ele>169</ele>
        <time>2011-01-09T11:44:21Z</time>
      </trkpt>
      <trkpt lat="43.54473" lon="6.79057">
        <ele>169</ele>
        <time>2011-01-09T11:44:22Z</time>
      </trkpt>
      <trkpt lat="43.54464" lon="6.79061">
        <ele>170</ele>
        <time>2011-01-09T11:44:28Z</time>
      </trkpt>
      <trkpt lat="43.54463" lon="6.79062">
        <ele>170</ele>
        <time>2011-01-09T11:44:29Z</time>
      </trkpt>
      <trkpt lat="43.5446" lon="6.79065">
        <ele>170</ele>
        <time>2011-01-09T11:44:31Z</time>
      </trkpt>
      <trkpt lat="43.54458" lon="6.79067">
        <ele>170</ele>
        <time>2011-01-09T11:44:33Z</time>
      </trkpt>
      <trkpt lat="43.54457" lon="6.79068">
        <ele>170</ele>
        <time>2011-01-09T11:44:34Z</time>
      </trkpt>
      <trkpt lat="43.54451" lon="6.79073">
        <ele>171</ele>
        <time>2011-01-09T11:44:38Z</time>
      </trkpt>
      <trkpt lat="43.54448" lon="6.79075">
        <ele>171</ele>
        <time>2011-01-09T11:44:40Z</time>
      </trkpt>
      <trkpt lat="43.54445" lon="6.79078">
        <ele>171</ele>
        <time>2011-01-09T11:44:42Z</time>
      </trkpt>
      <trkpt lat="43.54444" lon="6.79079">
        <ele>172</ele>
        <time>2011-01-09T11:44:43Z</time>
      </trkpt>
      <trkpt lat="43.54442" lon="6.7908">
        <ele>172</ele>
        <time>2011-01-09T11:44:44Z</time>
      </trkpt>
      <trkpt lat="43.54441" lon="6.79081">
        <ele>172</ele>
        <time>2011-01-09T11:44:45Z</time>
      </trkpt>
      <trkpt lat="43.54438" lon="6.79083">
        <ele>172</ele>
        <time>2011-01-09T11:44:47Z</time>
      </trkpt>
      <trkpt lat="43.54435" lon="6.79084">
        <ele>172</ele>
        <time>2011-01-09T11:44:49Z</time>
      </trkpt>
      <trkpt lat="43.54432" lon="6.79085">
        <ele>172</ele>
        <time>2011-01-09T11:44:51Z</time>
      </trkpt>
      <trkpt lat="43.5443" lon="6.79086">
        <ele>173</ele>
        <time>2011-01-09T11:44:53Z</time>
      </trkpt>
      <trkpt lat="43.54427" lon="6.79089">
        <ele>173</ele>
        <time>2011-01-09T11:44:56Z</time>
      </trkpt>
      <trkpt lat="43.54424" lon="6.79091">
        <ele>173</ele>
        <time>2011-01-09T11:44:58Z</time>
      </trkpt>
      <trkpt lat="43.54422" lon="6.79093">
        <ele>173</ele>
        <time>2011-01-09T11:45:00Z</time>
      </trkpt>
      <trkpt lat="43.54421" lon="6.79094">
        <ele>173</ele>
        <time>2011-01-09T11:45:01Z</time>
      </trkpt>
      <trkpt lat="43.5442" lon="6.79095">
        <ele>173</ele>
        <time>2011-01-09T11:45:02Z</time>
      </trkpt>
      <trkpt lat="43.5442" lon="6.79097">
        <ele>173</ele>
        <time>2011-01-09T11:45:03Z</time>
      </trkpt>
      <trkpt lat="43.54417" lon="6.79101">
        <ele>173</ele>
        <time>2011-01-09T11:45:06Z</time>
      </trkpt>
      <trkpt lat="43.54412" lon="6.79106">
        <ele>173</ele>
        <time>2011-01-09T11:45:11Z</time>
      </trkpt>
      <trkpt lat="43.5441" lon="6.79109">
        <ele>173</ele>
        <time>2011-01-09T11:45:13Z</time>
      </trkpt>
      <trkpt lat="43.54409" lon="6.79109">
        <ele>173</ele>
        <time>2011-01-09T11:45:14Z</time>
      </trkpt>
      <trkpt lat="43.54408" lon="6.7911">
        <ele>173</ele>
        <time>2011-01-09T11:45:15Z</time>
      </trkpt>
      <trkpt lat="43.54405" lon="6.79114">
        <ele>173</ele>
        <time>2011-01-09T11:45:18Z</time>
      </trkpt>
      <trkpt lat="43.54403" lon="6.79117">
        <ele>173</ele>
        <time>2011-01-09T11:45:21Z</time>
      </trkpt>
      <trkpt lat="43.54401" lon="6.79119">
        <ele>173</ele>
        <time>2011-01-09T11:45:23Z</time>
      </trkpt>
      <trkpt lat="43.544" lon="6.7912">
        <ele>174</ele>
        <time>2011-01-09T11:45:25Z</time>
      </trkpt>
      <trkpt lat="43.54398" lon="6.79122">
        <ele>174</ele>
        <time>2011-01-09T11:45:27Z</time>
      </trkpt>
      <trkpt lat="43.54398" lon="6.79123">
        <ele>174</ele>
        <time>2011-01-09T11:45:28Z</time>
      </trkpt>
      <trkpt lat="43.54394" lon="6.79127">
        <ele>174</ele>
        <time>2011-01-09T11:45:32Z</time>
      </trkpt>
      <trkpt lat="43.54392" lon="6.79129">
        <ele>175</ele>
        <time>2011-01-09T11:45:34Z</time>
      </trkpt>
      <trkpt lat="43.54388" lon="6.79132">
        <ele>175</ele>
        <time>2011-01-09T11:45:38Z</time>
      </trkpt>
      <trkpt lat="43.54385" lon="6.79135">
        <ele>176</ele>
        <time>2011-01-09T11:45:41Z</time>
      </trkpt>
      <trkpt lat="43.54382" lon="6.79137">
        <ele>176</ele>
        <time>2011-01-09T11:45:43Z</time>
      </trkpt>
      <trkpt lat="43.54379" lon="6.79139">
        <ele>176</ele>
        <time>2011-01-09T11:45:45Z</time>
      </trkpt>
      <trkpt lat="43.54378" lon="6.79139">
        <ele>176</ele>
        <time>2011-01-09T11:45:46Z</time>
      </trkpt>
      <trkpt lat="43.54375" lon="6.7914">
        <ele>177</ele>
        <time>2011-01-09T11:45:48Z</time>
      </trkpt>
      <trkpt lat="43.5437" lon="6.79145">
        <ele>177</ele>
        <time>2011-01-09T11:45:52Z</time>
      </trkpt>
      <trkpt lat="43.54367" lon="6.79146">
        <ele>177</ele>
        <time>2011-01-09T11:45:54Z</time>
      </trkpt>
      <trkpt lat="43.54363" lon="6.79149">
        <ele>177</ele>
        <time>2011-01-09T11:45:57Z</time>
      </trkpt>
      <trkpt lat="43.54351" lon="6.79155">
        <ele>177</ele>
        <time>2011-01-09T11:46:04Z</time>
      </trkpt>
      <trkpt lat="43.54346" lon="6.79157">
        <ele>177</ele>
        <time>2011-01-09T11:46:07Z</time>
      </trkpt>
      <trkpt lat="43.54344" lon="6.79158">
        <ele>177</ele>
        <time>2011-01-09T11:46:08Z</time>
      </trkpt>
      <trkpt lat="43.54343" lon="6.7916">
        <ele>177</ele>
        <time>2011-01-09T11:46:09Z</time>
      </trkpt>
      <trkpt lat="43.54341" lon="6.79162">
        <ele>177</ele>
        <time>2011-01-09T11:46:10Z</time>
      </trkpt>
      <trkpt lat="43.54341" lon="6.79165">
        <ele>176</ele>
        <time>2011-01-09T11:46:11Z</time>
      </trkpt>
      <trkpt lat="43.54341" lon="6.79168">
        <ele>176</ele>
        <time>2011-01-09T11:46:12Z</time>
      </trkpt>
      <trkpt lat="43.54341" lon="6.79172">
        <ele>176</ele>
        <time>2011-01-09T11:46:13Z</time>
      </trkpt>
      <trkpt lat="43.54342" lon="6.79177">
        <ele>175</ele>
        <time>2011-01-09T11:46:14Z</time>
      </trkpt>
      <trkpt lat="43.54343" lon="6.79182">
        <ele>175</ele>
        <time>2011-01-09T11:46:15Z</time>
      </trkpt>
      <trkpt lat="43.54346" lon="6.79187">
        <ele>174</ele>
        <time>2011-01-09T11:46:16Z</time>
      </trkpt>
      <trkpt lat="43.54349" lon="6.79192">
        <ele>174</ele>
        <time>2011-01-09T11:46:17Z</time>
      </trkpt>
      <trkpt lat="43.54353" lon="6.79195">
        <ele>173</ele>
        <time>2011-01-09T11:46:18Z</time>
      </trkpt>
      <trkpt lat="43.54413" lon="6.79206">
        <ele>165</ele>
        <time>2011-01-09T11:46:28Z</time>
      </trkpt>
      <trkpt lat="43.54467" lon="6.79168">
        <ele>159</ele>
        <time>2011-01-09T11:46:38Z</time>
      </trkpt>
      <trkpt lat="43.54519" lon="6.79151">
        <ele>151</ele>
        <time>2011-01-09T11:46:48Z</time>
      </trkpt>
      <trkpt lat="43.5457" lon="6.79207">
        <ele>144</ele>
        <time>2011-01-09T11:46:58Z</time>
      </trkpt>
      <trkpt lat="43.5466" lon="6.79191">
        <ele>134</ele>
        <time>2011-01-09T11:47:18Z</time>
      </trkpt>
      <trkpt lat="43.54662" lon="6.79187">
        <ele>134</ele>
        <time>2011-01-09T11:47:19Z</time>
      </trkpt>
      <trkpt lat="43.54713" lon="6.79208">
        <ele>133</ele>
        <time>2011-01-09T11:47:32Z</time>
      </trkpt>
      <trkpt lat="43.54733" lon="6.79214">
        <ele>134</ele>
        <time>2011-01-09T11:47:33Z</time>
      </trkpt>
      <trkpt lat="43.54729" lon="6.79207">
        <ele>134</ele>
        <time>2011-01-09T11:47:34Z</time>
      </trkpt>
      <trkpt lat="43.54729" lon="6.79203">
        <ele>134</ele>
        <time>2011-01-09T11:47:35Z</time>
      </trkpt>
      <trkpt lat="43.54725" lon="6.79193">
        <ele>133</ele>
        <time>2011-01-09T11:47:36Z</time>
      </trkpt>
      <trkpt lat="43.5473" lon="6.79186">
        <ele>132</ele>
        <time>2011-01-09T11:47:38Z</time>
      </trkpt>
      <trkpt lat="43.54733" lon="6.79184">
        <ele>133</ele>
        <time>2011-01-09T11:47:39Z</time>
      </trkpt>
      <trkpt lat="43.54736" lon="6.79181">
        <ele>133</ele>
        <time>2011-01-09T11:47:40Z</time>
      </trkpt>
      <trkpt lat="43.54738" lon="6.79179">
        <ele>133</ele>
        <time>2011-01-09T11:47:41Z</time>
      </trkpt>
      <trkpt lat="43.54741" lon="6.79176">
        <ele>134</ele>
        <time>2011-01-09T11:47:42Z</time>
      </trkpt>
      <trkpt lat="43.54745" lon="6.79171">
        <ele>135</ele>
        <time>2011-01-09T11:47:44Z</time>
      </trkpt>
      <trkpt lat="43.54748" lon="6.79168">
        <ele>137</ele>
        <time>2011-01-09T11:47:45Z</time>
      </trkpt>
      <trkpt lat="43.5475" lon="6.79165">
        <ele>138</ele>
        <time>2011-01-09T11:47:46Z</time>
      </trkpt>
      <trkpt lat="43.54751" lon="6.79161">
        <ele>138</ele>
        <time>2011-01-09T11:47:47Z</time>
      </trkpt>
      <trkpt lat="43.54754" lon="6.79154">
        <ele>138</ele>
        <time>2011-01-09T11:47:49Z</time>
      </trkpt>
      <trkpt lat="43.54759" lon="6.79145">
        <ele>138</ele>
        <time>2011-01-09T11:47:52Z</time>
      </trkpt>
      <trkpt lat="43.54761" lon="6.79142">
        <ele>138</ele>
        <time>2011-01-09T11:47:53Z</time>
      </trkpt>
      <trkpt lat="43.54765" lon="6.79135">
        <ele>138</ele>
        <time>2011-01-09T11:47:55Z</time>
      </trkpt>
      <trkpt lat="43.54767" lon="6.79132">
        <ele>138</ele>
        <time>2011-01-09T11:47:56Z</time>
      </trkpt>
      <trkpt lat="43.54769" lon="6.79129">
        <ele>138</ele>
        <time>2011-01-09T11:47:57Z</time>
      </trkpt>
      <trkpt lat="43.54772" lon="6.79126">
        <ele>137</ele>
        <time>2011-01-09T11:47:58Z</time>
      </trkpt>
      <trkpt lat="43.54774" lon="6.79122">
        <ele>137</ele>
        <time>2011-01-09T11:47:59Z</time>
      </trkpt>
      <trkpt lat="43.54778" lon="6.79114">
        <ele>137</ele>
        <time>2011-01-09T11:48:01Z</time>
      </trkpt>
      <trkpt lat="43.54782" lon="6.79108">
        <ele>137</ele>
        <time>2011-01-09T11:48:03Z</time>
      </trkpt>
      <trkpt lat="43.54786" lon="6.79102">
        <ele>137</ele>
        <time>2011-01-09T11:48:05Z</time>
      </trkpt>
      <trkpt lat="43.54791" lon="6.79096">
        <ele>136</ele>
        <time>2011-01-09T11:48:07Z</time>
      </trkpt>
      <trkpt lat="43.54794" lon="6.79093">
        <ele>136</ele>
        <time>2011-01-09T11:48:08Z</time>
      </trkpt>
      <trkpt lat="43.54797" lon="6.7909">
        <ele>136</ele>
        <time>2011-01-09T11:48:09Z</time>
      </trkpt>
      <trkpt lat="43.54801" lon="6.79088">
        <ele>135</ele>
        <time>2011-01-09T11:48:10Z</time>
      </trkpt>
      <trkpt lat="43.54805" lon="6.79085">
        <ele>135</ele>
        <time>2011-01-09T11:48:11Z</time>
      </trkpt>
      <trkpt lat="43.54809" lon="6.79084">
        <ele>135</ele>
        <time>2011-01-09T11:48:12Z</time>
      </trkpt>
      <trkpt lat="43.54817" lon="6.79081">
        <ele>134</ele>
        <time>2011-01-09T11:48:14Z</time>
      </trkpt>
      <trkpt lat="43.54821" lon="6.7908">
        <ele>134</ele>
        <time>2011-01-09T11:48:15Z</time>
      </trkpt>
      <trkpt lat="43.54824" lon="6.79079">
        <ele>134</ele>
        <time>2011-01-09T11:48:16Z</time>
      </trkpt>
      <trkpt lat="43.54828" lon="6.79077">
        <ele>134</ele>
        <time>2011-01-09T11:48:17Z</time>
      </trkpt>
      <trkpt lat="43.54832" lon="6.79075">
        <ele>134</ele>
        <time>2011-01-09T11:48:18Z</time>
      </trkpt>
      <trkpt lat="43.54835" lon="6.79072">
        <ele>134</ele>
        <time>2011-01-09T11:48:19Z</time>
      </trkpt>
      <trkpt lat="43.54839" lon="6.79069">
        <ele>133</ele>
        <time>2011-01-09T11:48:20Z</time>
      </trkpt>
      <trkpt lat="43.54846" lon="6.79062">
        <ele>133</ele>
        <time>2011-01-09T11:48:22Z</time>
      </trkpt>
      <trkpt lat="43.5485" lon="6.79058">
        <ele>133</ele>
        <time>2011-01-09T11:48:23Z</time>
      </trkpt>
      <trkpt lat="43.54856" lon="6.79048">
        <ele>132</ele>
        <time>2011-01-09T11:48:25Z</time>
      </trkpt>
      <trkpt lat="43.5486" lon="6.79044">
        <ele>132</ele>
        <time>2011-01-09T11:48:26Z</time>
      </trkpt>
      <trkpt lat="43.54864" lon="6.7904">
        <ele>132</ele>
        <time>2011-01-09T11:48:27Z</time>
      </trkpt>
      <trkpt lat="43.54872" lon="6.79031">
        <ele>133</ele>
        <time>2011-01-09T11:48:30Z</time>
      </trkpt>
      <trkpt lat="43.54875" lon="6.79029">
        <ele>134</ele>
        <time>2011-01-09T11:48:31Z</time>
      </trkpt>
      <trkpt lat="43.54878" lon="6.79026">
        <ele>134</ele>
        <time>2011-01-09T11:48:32Z</time>
      </trkpt>
      <trkpt lat="43.5488" lon="6.79023">
        <ele>134</ele>
        <time>2011-01-09T11:48:33Z</time>
      </trkpt>
      <trkpt lat="43.54884" lon="6.79017">
        <ele>135</ele>
        <time>2011-01-09T11:48:35Z</time>
      </trkpt>
      <trkpt lat="43.54888" lon="6.7901">
        <ele>135</ele>
        <time>2011-01-09T11:48:37Z</time>
      </trkpt>
      <trkpt lat="43.54892" lon="6.79002">
        <ele>135</ele>
        <time>2011-01-09T11:48:39Z</time>
      </trkpt>
      <trkpt lat="43.54896" lon="6.78993">
        <ele>135</ele>
        <time>2011-01-09T11:48:41Z</time>
      </trkpt>
      <trkpt lat="43.54897" lon="6.78988">
        <ele>135</ele>
        <time>2011-01-09T11:48:42Z</time>
      </trkpt>
      <trkpt lat="43.549" lon="6.7898">
        <ele>135</ele>
        <time>2011-01-09T11:48:44Z</time>
      </trkpt>
      <trkpt lat="43.54902" lon="6.78975">
        <ele>135</ele>
        <time>2011-01-09T11:48:45Z</time>
      </trkpt>
      <trkpt lat="43.54906" lon="6.78966">
        <ele>134</ele>
        <time>2011-01-09T11:48:47Z</time>
      </trkpt>
      <trkpt lat="43.54912" lon="6.78957">
        <ele>134</ele>
        <time>2011-01-09T11:48:49Z</time>
      </trkpt>
      <trkpt lat="43.54916" lon="6.78952">
        <ele>133</ele>
        <time>2011-01-09T11:48:50Z</time>
      </trkpt>
      <trkpt lat="43.54919" lon="6.78947">
        <ele>133</ele>
        <time>2011-01-09T11:48:51Z</time>
      </trkpt>
      <trkpt lat="43.54953" lon="6.78886">
        <ele>131</ele>
        <time>2011-01-09T11:49:02Z</time>
      </trkpt>
      <trkpt lat="43.54956" lon="6.78884">
        <ele>131</ele>
        <time>2011-01-09T11:49:03Z</time>
      </trkpt>
      <trkpt lat="43.54958" lon="6.78883">
        <ele>132</ele>
        <time>2011-01-09T11:49:04Z</time>
      </trkpt>
      <trkpt lat="43.5496" lon="6.78882">
        <ele>132</ele>
        <time>2011-01-09T11:49:05Z</time>
      </trkpt>
      <trkpt lat="43.54962" lon="6.78881">
        <ele>132</ele>
        <time>2011-01-09T11:49:06Z</time>
      </trkpt>
      <trkpt lat="43.54964" lon="6.78879">
        <ele>131</ele>
        <time>2011-01-09T11:49:07Z</time>
      </trkpt>
      <trkpt lat="43.54965" lon="6.78876">
        <ele>131</ele>
        <time>2011-01-09T11:49:08Z</time>
      </trkpt>
      <trkpt lat="43.54966" lon="6.78872">
        <ele>131</ele>
        <time>2011-01-09T11:49:09Z</time>
      </trkpt>
      <trkpt lat="43.54967" lon="6.78868">
        <ele>131</ele>
        <time>2011-01-09T11:49:10Z</time>
      </trkpt>
      <trkpt lat="43.54967" lon="6.78862">
        <ele>131</ele>
        <time>2011-01-09T11:49:11Z</time>
      </trkpt>
      <trkpt lat="43.54968" lon="6.78851">
        <ele>131</ele>
        <time>2011-01-09T11:49:13Z</time>
      </trkpt>
      <trkpt lat="43.54968" lon="6.78845">
        <ele>131</ele>
        <time>2011-01-09T11:49:14Z</time>
      </trkpt>
      <trkpt lat="43.5497" lon="6.78834">
        <ele>131</ele>
        <time>2011-01-09T11:49:16Z</time>
      </trkpt>
      <trkpt lat="43.54974" lon="6.78816">
        <ele>130</ele>
        <time>2011-01-09T11:49:19Z</time>
      </trkpt>
      <trkpt lat="43.54977" lon="6.78805">
        <ele>130</ele>
        <time>2011-01-09T11:49:21Z</time>
      </trkpt>
      <trkpt lat="43.54978" lon="6.78799">
        <ele>130</ele>
        <time>2011-01-09T11:49:22Z</time>
      </trkpt>
      <trkpt lat="43.54982" lon="6.78788">
        <ele>129</ele>
        <time>2011-01-09T11:49:24Z</time>
      </trkpt>
      <trkpt lat="43.54985" lon="6.78782">
        <ele>129</ele>
        <time>2011-01-09T11:49:25Z</time>
      </trkpt>
      <trkpt lat="43.54987" lon="6.78777">
        <ele>129</ele>
        <time>2011-01-09T11:49:26Z</time>
      </trkpt>
      <trkpt lat="43.5503" lon="6.78716">
        <ele>126</ele>
        <time>2011-01-09T11:49:36Z</time>
      </trkpt>
      <trkpt lat="43.5506" lon="6.78647">
        <ele>124</ele>
        <time>2011-01-09T11:49:46Z</time>
      </trkpt>
      <trkpt lat="43.55078" lon="6.78561">
        <ele>122</ele>
        <time>2011-01-09T11:49:56Z</time>
      </trkpt>
      <trkpt lat="43.55107" lon="6.78475">
        <ele>120</ele>
        <time>2011-01-09T11:50:06Z</time>
      </trkpt>
      <trkpt lat="43.55133" lon="6.78387">
        <ele>118</ele>
        <time>2011-01-09T11:50:16Z</time>
      </trkpt>
      <trkpt lat="43.55114" lon="6.78312">
        <ele>118</ele>
        <time>2011-01-09T11:50:26Z</time>
      </trkpt>
      <trkpt lat="43.5511" lon="6.78308">
        <ele>118</ele>
        <time>2011-01-09T11:50:27Z</time>
      </trkpt>
      <trkpt lat="43.55106" lon="6.78304">
        <ele>118</ele>
        <time>2011-01-09T11:50:28Z</time>
      </trkpt>
      <trkpt lat="43.55096" lon="6.78299">
        <ele>117</ele>
        <time>2011-01-09T11:50:30Z</time>
      </trkpt>
      <trkpt lat="43.55046" lon="6.78302">
        <ele>118</ele>
        <time>2011-01-09T11:50:42Z</time>
      </trkpt>
      <trkpt lat="43.55042" lon="6.78302">
        <ele>119</ele>
        <time>2011-01-09T11:50:44Z</time>
      </trkpt>
      <trkpt lat="43.55039" lon="6.78303">
        <ele>119</ele>
        <time>2011-01-09T11:50:46Z</time>
      </trkpt>
      <trkpt lat="43.55036" lon="6.78302">
        <ele>120</ele>
        <time>2011-01-09T11:50:48Z</time>
      </trkpt>
      <trkpt lat="43.55035" lon="6.78303">
        <ele>120</ele>
        <time>2011-01-09T11:50:49Z</time>
      </trkpt>
      <trkpt lat="43.55033" lon="6.78304">
        <ele>120</ele>
        <time>2011-01-09T11:50:51Z</time>
      </trkpt>
      <trkpt lat="43.55032" lon="6.78305">
        <ele>120</ele>
        <time>2011-01-09T11:50:52Z</time>
      </trkpt>
      <trkpt lat="43.5503" lon="6.78305">
        <ele>121</ele>
        <time>2011-01-09T11:50:53Z</time>
      </trkpt>
      <trkpt lat="43.55028" lon="6.78306">
        <ele>121</ele>
        <time>2011-01-09T11:50:54Z</time>
      </trkpt>
      <trkpt lat="43.55027" lon="6.78305">
        <ele>121</ele>
        <time>2011-01-09T11:50:55Z</time>
      </trkpt>
      <trkpt lat="43.55025" lon="6.78304">
        <ele>122</ele>
        <time>2011-01-09T11:50:57Z</time>
      </trkpt>
      <trkpt lat="43.55021" lon="6.78302">
        <ele>122</ele>
        <time>2011-01-09T11:51:00Z</time>
      </trkpt>
      <trkpt lat="43.55017" lon="6.78302">
        <ele>123</ele>
        <time>2011-01-09T11:51:03Z</time>
      </trkpt>
      <trkpt lat="43.55015" lon="6.78303">
        <ele>124</ele>
        <time>2011-01-09T11:51:05Z</time>
      </trkpt>
      <trkpt lat="43.55013" lon="6.78304">
        <ele>124</ele>
        <time>2011-01-09T11:51:07Z</time>
      </trkpt>
      <trkpt lat="43.55011" lon="6.78304">
        <ele>124</ele>
        <time>2011-01-09T11:51:08Z</time>
      </trkpt>
      <trkpt lat="43.5501" lon="6.78304">
        <ele>124</ele>
        <time>2011-01-09T11:51:09Z</time>
      </trkpt>
      <trkpt lat="43.5501" lon="6.78303">
        <ele>125</ele>
        <time>2011-01-09T11:51:10Z</time>
      </trkpt>
      <trkpt lat="43.55009" lon="6.78301">
        <ele>125</ele>
        <time>2011-01-09T11:51:11Z</time>
      </trkpt>
      <trkpt lat="43.55008" lon="6.783">
        <ele>125</ele>
        <time>2011-01-09T11:51:12Z</time>
      </trkpt>
      <trkpt lat="43.55007" lon="6.783">
        <ele>125</ele>
        <time>2011-01-09T11:51:13Z</time>
      </trkpt>
      <trkpt lat="43.55006" lon="6.78302">
        <ele>125</ele>
        <time>2011-01-09T11:51:14Z</time>
      </trkpt>
      <trkpt lat="43.55005" lon="6.78303">
        <ele>125</ele>
        <time>2011-01-09T11:51:15Z</time>
      </trkpt>
      <trkpt lat="43.55004" lon="6.78304">
        <ele>126</ele>
        <time>2011-01-09T11:51:16Z</time>
      </trkpt>
      <trkpt lat="43.55003" lon="6.78304">
        <ele>126</ele>
        <time>2011-01-09T11:51:17Z</time>
      </trkpt>
      <trkpt lat="43.55002" lon="6.78303">
        <ele>126</ele>
        <time>2011-01-09T11:51:18Z</time>
      </trkpt>
      <trkpt lat="43.55001" lon="6.78301">
        <ele>126</ele>
        <time>2011-01-09T11:51:19Z</time>
      </trkpt>
      <trkpt lat="43.55" lon="6.783">
        <ele>126</ele>
        <time>2011-01-09T11:51:20Z</time>
      </trkpt>
      <trkpt lat="43.54999" lon="6.783">
        <ele>127</ele>
        <time>2011-01-09T11:51:21Z</time>
      </trkpt>
      <trkpt lat="43.54997" lon="6.78302">
        <ele>127</ele>
        <time>2011-01-09T11:51:23Z</time>
      </trkpt>
      <trkpt lat="43.54994" lon="6.78304">
        <ele>128</ele>
        <time>2011-01-09T11:51:25Z</time>
      </trkpt>
      <trkpt lat="43.54993" lon="6.78304">
        <ele>128</ele>
        <time>2011-01-09T11:51:26Z</time>
      </trkpt>
      <trkpt lat="43.5499" lon="6.78304">
        <ele>129</ele>
        <time>2011-01-09T11:51:28Z</time>
      </trkpt>
      <trkpt lat="43.54989" lon="6.78303">
        <ele>129</ele>
        <time>2011-01-09T11:51:29Z</time>
      </trkpt>
      <trkpt lat="43.54988" lon="6.78301">
        <ele>129</ele>
        <time>2011-01-09T11:51:31Z</time>
      </trkpt>
      <trkpt lat="43.54987" lon="6.783">
        <ele>130</ele>
        <time>2011-01-09T11:51:32Z</time>
      </trkpt>
      <trkpt lat="43.54986" lon="6.783">
        <ele>130</ele>
        <time>2011-01-09T11:51:33Z</time>
      </trkpt>
      <trkpt lat="43.54983" lon="6.78299">
        <ele>130</ele>
        <time>2011-01-09T11:51:35Z</time>
      </trkpt>
      <trkpt lat="43.54983" lon="6.78299">
        <ele>131</ele>
        <time>2011-01-09T11:51:36Z</time>
      </trkpt>
      <trkpt lat="43.5498" lon="6.78299">
        <ele>131</ele>
        <time>2011-01-09T11:51:38Z</time>
      </trkpt>
      <trkpt lat="43.54978" lon="6.78299">
        <ele>132</ele>
        <time>2011-01-09T11:51:40Z</time>
      </trkpt>
      <trkpt lat="43.54975" lon="6.78299">
        <ele>132</ele>
        <time>2011-01-09T11:51:42Z</time>
      </trkpt>
      <trkpt lat="43.54971" lon="6.783">
        <ele>133</ele>
        <time>2011-01-09T11:51:44Z</time>
      </trkpt>
      <trkpt lat="43.54965" lon="6.78302">
        <ele>134</ele>
        <time>2011-01-09T11:51:48Z</time>
      </trkpt>
      <trkpt lat="43.54964" lon="6.78303">
        <ele>134</ele>
        <time>2011-01-09T11:51:49Z</time>
      </trkpt>
      <trkpt lat="43.54961" lon="6.78303">
        <ele>134</ele>
        <time>2011-01-09T11:51:51Z</time>
      </trkpt>
      <trkpt lat="43.54957" lon="6.78304">
        <ele>135</ele>
        <time>2011-01-09T11:51:54Z</time>
      </trkpt>
      <trkpt lat="43.54951" lon="6.78307">
        <ele>135</ele>
        <time>2011-01-09T11:51:58Z</time>
      </trkpt>
      <trkpt lat="43.5495" lon="6.78308">
        <ele>135</ele>
        <time>2011-01-09T11:51:59Z</time>
      </trkpt>
      <trkpt lat="43.54941" lon="6.78311">
        <ele>135</ele>
        <time>2011-01-09T11:52:04Z</time>
      </trkpt>
      <trkpt lat="43.54936" lon="6.78312">
        <ele>135</ele>
        <time>2011-01-09T11:52:07Z</time>
      </trkpt>
      <trkpt lat="43.54933" lon="6.78313">
        <ele>135</ele>
        <time>2011-01-09T11:52:09Z</time>
      </trkpt>
      <trkpt lat="43.54931" lon="6.78314">
        <ele>135</ele>
        <time>2011-01-09T11:52:10Z</time>
      </trkpt>
      <trkpt lat="43.54926" lon="6.78316">
        <ele>135</ele>
        <time>2011-01-09T11:52:12Z</time>
      </trkpt>
      <trkpt lat="43.54922" lon="6.78318">
        <ele>135</ele>
        <time>2011-01-09T11:52:14Z</time>
      </trkpt>
      <trkpt lat="43.54919" lon="6.78318">
        <ele>135</ele>
        <time>2011-01-09T11:52:15Z</time>
      </trkpt>
      <trkpt lat="43.5491" lon="6.78322">
        <ele>135</ele>
        <time>2011-01-09T11:52:19Z</time>
      </trkpt>
      <trkpt lat="43.54905" lon="6.78325">
        <ele>135</ele>
        <time>2011-01-09T11:52:21Z</time>
      </trkpt>
      <trkpt lat="43.54903" lon="6.78326">
        <ele>134</ele>
        <time>2011-01-09T11:52:22Z</time>
      </trkpt>
      <trkpt lat="43.549" lon="6.78327">
        <ele>134</ele>
        <time>2011-01-09T11:52:23Z</time>
      </trkpt>
      <trkpt lat="43.54897" lon="6.78328">
        <ele>134</ele>
        <time>2011-01-09T11:52:24Z</time>
      </trkpt>
      <trkpt lat="43.54895" lon="6.78329">
        <ele>134</ele>
        <time>2011-01-09T11:52:25Z</time>
      </trkpt>
      <trkpt lat="43.54892" lon="6.7833">
        <ele>135</ele>
        <time>2011-01-09T11:52:26Z</time>
      </trkpt>
      <trkpt lat="43.54884" lon="6.78333">
        <ele>135</ele>
        <time>2011-01-09T11:52:29Z</time>
      </trkpt>
      <trkpt lat="43.54874" lon="6.78337">
        <ele>134</ele>
        <time>2011-01-09T11:52:32Z</time>
      </trkpt>
      <trkpt lat="43.54867" lon="6.7834">
        <ele>134</ele>
        <time>2011-01-09T11:52:34Z</time>
      </trkpt>
      <trkpt lat="43.54857" lon="6.78343">
        <ele>134</ele>
        <time>2011-01-09T11:52:37Z</time>
      </trkpt>
      <trkpt lat="43.5485" lon="6.78347">
        <ele>134</ele>
        <time>2011-01-09T11:52:39Z</time>
      </trkpt>
      <trkpt lat="43.54847" lon="6.78349">
        <ele>133</ele>
        <time>2011-01-09T11:52:40Z</time>
      </trkpt>
      <trkpt lat="43.54839" lon="6.78353">
        <ele>133</ele>
        <time>2011-01-09T11:52:42Z</time>
      </trkpt>
      <trkpt lat="43.54827" lon="6.7836">
        <ele>132</ele>
        <time>2011-01-09T11:52:45Z</time>
      </trkpt>
      <trkpt lat="43.54822" lon="6.78362">
        <ele>132</ele>
        <time>2011-01-09T11:52:46Z</time>
      </trkpt>
      <trkpt lat="43.54818" lon="6.78364">
        <ele>132</ele>
        <time>2011-01-09T11:52:47Z</time>
      </trkpt>
      <trkpt lat="43.54808" lon="6.78367">
        <ele>131</ele>
        <time>2011-01-09T11:52:49Z</time>
      </trkpt>
      <trkpt lat="43.54803" lon="6.78368">
        <ele>131</ele>
        <time>2011-01-09T11:52:50Z</time>
      </trkpt>
      <trkpt lat="43.54799" lon="6.78366">
        <ele>131</ele>
        <time>2011-01-09T11:52:51Z</time>
      </trkpt>
      <trkpt lat="43.54796" lon="6.78363">
        <ele>131</ele>
        <time>2011-01-09T11:52:52Z</time>
      </trkpt>
      <trkpt lat="43.54794" lon="6.78357">
        <ele>130</ele>
        <time>2011-01-09T11:52:53Z</time>
      </trkpt>
      <trkpt lat="43.54793" lon="6.7835">
        <ele>130</ele>
        <time>2011-01-09T11:52:54Z</time>
      </trkpt>
      <trkpt lat="43.54767" lon="6.78282">
        <ele>125</ele>
        <time>2011-01-09T11:53:04Z</time>
      </trkpt>
      <trkpt lat="43.54762" lon="6.78284">
        <ele>126</ele>
        <time>2011-01-09T11:53:05Z</time>
      </trkpt>
      <trkpt lat="43.54758" lon="6.78286">
        <ele>126</ele>
        <time>2011-01-09T11:53:06Z</time>
      </trkpt>
      <trkpt lat="43.54755" lon="6.78287">
        <ele>126</ele>
        <time>2011-01-09T11:53:07Z</time>
      </trkpt>
      <trkpt lat="43.54748" lon="6.7829">
        <ele>126</ele>
        <time>2011-01-09T11:53:09Z</time>
      </trkpt>
      <trkpt lat="43.54745" lon="6.78291">
        <ele>127</ele>
        <time>2011-01-09T11:53:10Z</time>
      </trkpt>
      <trkpt lat="43.54736" lon="6.78295">
        <ele>127</ele>
        <time>2011-01-09T11:53:13Z</time>
      </trkpt>
      <trkpt lat="43.5473" lon="6.78297">
        <ele>127</ele>
        <time>2011-01-09T11:53:15Z</time>
      </trkpt>
      <trkpt lat="43.54723" lon="6.78299">
        <ele>126</ele>
        <time>2011-01-09T11:53:17Z</time>
      </trkpt>
      <trkpt lat="43.54712" lon="6.78303">
        <ele>126</ele>
        <time>2011-01-09T11:53:20Z</time>
      </trkpt>
      <trkpt lat="43.54703" lon="6.78305">
        <ele>125</ele>
        <time>2011-01-09T11:53:22Z</time>
      </trkpt>
      <trkpt lat="43.54693" lon="6.78308">
        <ele>124</ele>
        <time>2011-01-09T11:53:24Z</time>
      </trkpt>
      <trkpt lat="43.54651" lon="6.78299">
        <ele>126</ele>
        <time>2011-01-09T11:53:34Z</time>
      </trkpt>
      <trkpt lat="43.5465" lon="6.78285">
        <ele>126</ele>
        <time>2011-01-09T11:53:37Z</time>
      </trkpt>
      <trkpt lat="43.54651" lon="6.78281">
        <ele>126</ele>
        <time>2011-01-09T11:53:38Z</time>
      </trkpt>
      <trkpt lat="43.54651" lon="6.78276">
        <ele>126</ele>
        <time>2011-01-09T11:53:39Z</time>
      </trkpt>
      <trkpt lat="43.54654" lon="6.78266">
        <ele>126</ele>
        <time>2011-01-09T11:53:41Z</time>
      </trkpt>
      <trkpt lat="43.54657" lon="6.78256">
        <ele>126</ele>
        <time>2011-01-09T11:53:43Z</time>
      </trkpt>
      <trkpt lat="43.54659" lon="6.78246">
        <ele>126</ele>
        <time>2011-01-09T11:53:45Z</time>
      </trkpt>
      <trkpt lat="43.54661" lon="6.78241">
        <ele>126</ele>
        <time>2011-01-09T11:53:46Z</time>
      </trkpt>
      <trkpt lat="43.54663" lon="6.78237">
        <ele>126</ele>
        <time>2011-01-09T11:53:47Z</time>
      </trkpt>
      <trkpt lat="43.54666" lon="6.78233">
        <ele>126</ele>
        <time>2011-01-09T11:53:48Z</time>
      </trkpt>
      <trkpt lat="43.54668" lon="6.7823">
        <ele>126</ele>
        <time>2011-01-09T11:53:49Z</time>
      </trkpt>
      <trkpt lat="43.54671" lon="6.78227">
        <ele>126</ele>
        <time>2011-01-09T11:53:50Z</time>
      </trkpt>
      <trkpt lat="43.54678" lon="6.78221">
        <ele>126</ele>
        <time>2011-01-09T11:53:52Z</time>
      </trkpt>
      <trkpt lat="43.54684" lon="6.78216">
        <ele>126</ele>
        <time>2011-01-09T11:53:54Z</time>
      </trkpt>
      <trkpt lat="43.54688" lon="6.78214">
        <ele>126</ele>
        <time>2011-01-09T11:53:55Z</time>
      </trkpt>
      <trkpt lat="43.54691" lon="6.78211">
        <ele>125</ele>
        <time>2011-01-09T11:53:56Z</time>
      </trkpt>
      <trkpt lat="43.54698" lon="6.78204">
        <ele>125</ele>
        <time>2011-01-09T11:53:58Z</time>
      </trkpt>
      <trkpt lat="43.54701" lon="6.78201">
        <ele>125</ele>
        <time>2011-01-09T11:53:59Z</time>
      </trkpt>
      <trkpt lat="43.54704" lon="6.78199">
        <ele>125</ele>
        <time>2011-01-09T11:54:00Z</time>
      </trkpt>
      <trkpt lat="43.54711" lon="6.78195">
        <ele>125</ele>
        <time>2011-01-09T11:54:02Z</time>
      </trkpt>
      <trkpt lat="43.54717" lon="6.78191">
        <ele>125</ele>
        <time>2011-01-09T11:54:04Z</time>
      </trkpt>
      <trkpt lat="43.54722" lon="6.78187">
        <ele>125</ele>
        <time>2011-01-09T11:54:06Z</time>
      </trkpt>
      <trkpt lat="43.54725" lon="6.78186">
        <ele>125</ele>
        <time>2011-01-09T11:54:07Z</time>
      </trkpt>
      <trkpt lat="43.54731" lon="6.78183">
        <ele>125</ele>
        <time>2011-01-09T11:54:09Z</time>
      </trkpt>
      <trkpt lat="43.54741" lon="6.78178">
        <ele>125</ele>
        <time>2011-01-09T11:54:12Z</time>
      </trkpt>
      <trkpt lat="43.54747" lon="6.78175">
        <ele>124</ele>
        <time>2011-01-09T11:54:14Z</time>
      </trkpt>
      <trkpt lat="43.54751" lon="6.78174">
        <ele>124</ele>
        <time>2011-01-09T11:54:15Z</time>
      </trkpt>
      <trkpt lat="43.54754" lon="6.78173">
        <ele>124</ele>
        <time>2011-01-09T11:54:16Z</time>
      </trkpt>
      <trkpt lat="43.54759" lon="6.78173">
        <ele>124</ele>
        <time>2011-01-09T11:54:18Z</time>
      </trkpt>
      <trkpt lat="43.54761" lon="6.78172">
        <ele>124</ele>
        <time>2011-01-09T11:54:19Z</time>
      </trkpt>
      <trkpt lat="43.54762" lon="6.7817">
        <ele>124</ele>
        <time>2011-01-09T11:54:20Z</time>
      </trkpt>
      <trkpt lat="43.54764" lon="6.7817">
        <ele>124</ele>
        <time>2011-01-09T11:54:21Z</time>
      </trkpt>
      <trkpt lat="43.54766" lon="6.7817">
        <ele>124</ele>
        <time>2011-01-09T11:54:23Z</time>
      </trkpt>
      <trkpt lat="43.54766" lon="6.7817">
        <ele>124</ele>
        <time>2011-01-09T11:54:25Z</time>
      </trkpt>
      <trkpt lat="43.54765" lon="6.7817">
        <ele>124</ele>
        <time>2011-01-09T11:54:26Z</time>
      </trkpt>
      <trkpt lat="43.54765" lon="6.7817">
        <ele>124</ele>
        <time>2011-01-09T11:54:27Z</time>
      </trkpt>
      <trkpt lat="43.54766" lon="6.7817">
        <ele>124</ele>
        <time>2011-01-09T11:54:28Z</time>
      </trkpt>
      <trkpt lat="43.54766" lon="6.7817">
        <ele>124</ele>
        <time>2011-01-09T11:54:29Z</time>
      </trkpt>
      <trkpt lat="43.54766" lon="6.78169">
        <ele>124</ele>
        <time>2011-01-09T11:54:30Z</time>
      </trkpt>
      <trkpt lat="43.54766" lon="6.78169">
        <ele>125</ele>
        <time>2011-01-09T11:54:31Z</time>
      </trkpt>
      <trkpt lat="43.54766" lon="6.78168">
        <ele>125</ele>
        <time>2011-01-09T11:54:37Z</time>
      </trkpt>
      <trkpt lat="43.54766" lon="6.78169">
        <ele>125</ele>
        <time>2011-01-09T11:54:43Z</time>
      </trkpt>
      <trkpt lat="43.54766" lon="6.78169">
        <ele>125</ele>
        <time>2011-01-09T11:54:47Z</time>
      </trkpt>
      <trkpt lat="43.54766" lon="6.78169">
        <ele>125</ele>
        <time>2011-01-09T11:54:54Z</time>
      </trkpt>
      <trkpt lat="43.54768" lon="6.78168">
        <ele>125</ele>
        <time>2011-01-09T11:54:55Z</time>
      </trkpt>
      <trkpt lat="43.54769" lon="6.78167">
        <ele>126</ele>
        <time>2011-01-09T11:54:56Z</time>
      </trkpt>
      <trkpt lat="43.54771" lon="6.78165">
        <ele>126</ele>
        <time>2011-01-09T11:54:57Z</time>
      </trkpt>
      <trkpt lat="43.54774" lon="6.7816">
        <ele>127</ele>
        <time>2011-01-09T11:55:00Z</time>
      </trkpt>
      <trkpt lat="43.54776" lon="6.78157">
        <ele>128</ele>
        <time>2011-01-09T11:55:02Z</time>
      </trkpt>
      <trkpt lat="43.54777" lon="6.78156">
        <ele>128</ele>
        <time>2011-01-09T11:55:03Z</time>
      </trkpt>
      <trkpt lat="43.54777" lon="6.78154">
        <ele>128</ele>
        <time>2011-01-09T11:55:04Z</time>
      </trkpt>
      <trkpt lat="43.54777" lon="6.78152">
        <ele>128</ele>
        <time>2011-01-09T11:55:05Z</time>
      </trkpt>
      <trkpt lat="43.54776" lon="6.7815">
        <ele>129</ele>
        <time>2011-01-09T11:55:06Z</time>
      </trkpt>
      <trkpt lat="43.54775" lon="6.78148">
        <ele>129</ele>
        <time>2011-01-09T11:55:07Z</time>
      </trkpt>
      <trkpt lat="43.54773" lon="6.78147">
        <ele>129</ele>
        <time>2011-01-09T11:55:08Z</time>
      </trkpt>
      <trkpt lat="43.54768" lon="6.78147">
        <ele>129</ele>
        <time>2011-01-09T11:55:11Z</time>
      </trkpt>
      <trkpt lat="43.54766" lon="6.78147">
        <ele>129</ele>
        <time>2011-01-09T11:55:12Z</time>
      </trkpt>
      <trkpt lat="43.54765" lon="6.78146">
        <ele>129</ele>
        <time>2011-01-09T11:55:13Z</time>
      </trkpt>
      <trkpt lat="43.54762" lon="6.78143">
        <ele>129</ele>
        <time>2011-01-09T11:55:15Z</time>
      </trkpt>
      <trkpt lat="43.54762" lon="6.78142">
        <ele>129</ele>
        <time>2011-01-09T11:55:16Z</time>
      </trkpt>
      <trkpt lat="43.54761" lon="6.78142">
        <ele>129</ele>
        <time>2011-01-09T11:55:17Z</time>
      </trkpt>
      <trkpt lat="43.54762" lon="6.78142">
        <ele>129</ele>
        <time>2011-01-09T11:55:20Z</time>
      </trkpt>
      <trkpt lat="43.54762" lon="6.7814">
        <ele>129</ele>
        <time>2011-01-09T11:55:22Z</time>
      </trkpt>
      <trkpt lat="43.54763" lon="6.7814">
        <ele>129</ele>
        <time>2011-01-09T11:55:23Z</time>
      </trkpt>
      <trkpt lat="43.54763" lon="6.78139">
        <ele>130</ele>
        <time>2011-01-09T11:55:27Z</time>
      </trkpt>
      <trkpt lat="43.54763" lon="6.7814">
        <ele>129</ele>
        <time>2011-01-09T11:55:28Z</time>
      </trkpt>
      <trkpt lat="43.54762" lon="6.78143">
        <ele>129</ele>
        <time>2011-01-09T11:55:30Z</time>
      </trkpt>
      <trkpt lat="43.54762" lon="6.78144">
        <ele>129</ele>
        <time>2011-01-09T11:55:31Z</time>
      </trkpt>
      <trkpt lat="43.54762" lon="6.78142">
        <ele>130</ele>
        <time>2011-01-09T11:55:32Z</time>
      </trkpt>
      <trkpt lat="43.54765" lon="6.78142">
        <ele>130</ele>
        <time>2011-01-09T11:55:34Z</time>
      </trkpt>
      <trkpt lat="43.54766" lon="6.7814">
        <ele>130</ele>
        <time>2011-01-09T11:55:35Z</time>
      </trkpt>
    </trkseg>
  </trk>
</gpx>